<?xml version="1.0" encoding="UTF-8" standalone="no" ?>
<gpx xmlns="http://www.topografix.com/GPX/1/1" xmlns:xsi="http://www.w3.org/2001/XMLSchema-instance" xsi:schemaLocation="http://www.topografix.com/GPX/1/1 http://www.topografix.com/GPX/1/1/gpx.xsd" version="1.1" creator="VisuGPX - https://www.visugpx.com">
  <metadata>
    <name>Sortie à vélo le midi</name>
    <desc><![CDATA[petite route de l enclave ]]></desc>
  </metadata>
  <trk>
    <name><![CDATA[Sortie à vélo le midi]]></name>
    <trkseg>
      <trkpt lat="44.36383" lon="5.1323">
        <ele>294</ele>
        <time>2021-02-24T11:52:18Z</time>
      </trkpt>
      <trkpt lat="44.36382" lon="5.13245">
        <ele>293.9</ele>
        <time>2021-02-24T11:52:19Z</time>
      </trkpt>
      <trkpt lat="44.36382" lon="5.13247">
        <ele>293.9</ele>
        <time>2021-02-24T11:52:20Z</time>
      </trkpt>
      <trkpt lat="44.36381" lon="5.13252">
        <ele>293.8</ele>
        <time>2021-02-24T11:52:21Z</time>
      </trkpt>
      <trkpt lat="44.36381" lon="5.13257">
        <ele>293.8</ele>
        <time>2021-02-24T11:52:22Z</time>
      </trkpt>
      <trkpt lat="44.3638" lon="5.13261">
        <ele>293.8</ele>
        <time>2021-02-24T11:52:23Z</time>
      </trkpt>
      <trkpt lat="44.36379" lon="5.13264">
        <ele>293.8</ele>
        <time>2021-02-24T11:52:24Z</time>
      </trkpt>
      <trkpt lat="44.36378" lon="5.13267">
        <ele>293.7</ele>
        <time>2021-02-24T11:52:25Z</time>
      </trkpt>
      <trkpt lat="44.36376" lon="5.13269">
        <ele>293.7</ele>
        <time>2021-02-24T11:52:26Z</time>
      </trkpt>
      <trkpt lat="44.36374" lon="5.1327">
        <ele>293.7</ele>
        <time>2021-02-24T11:52:27Z</time>
      </trkpt>
      <trkpt lat="44.36371" lon="5.13271">
        <ele>293.1</ele>
        <time>2021-02-24T11:52:28Z</time>
      </trkpt>
      <trkpt lat="44.36368" lon="5.13273">
        <ele>292.8</ele>
        <time>2021-02-24T11:52:29Z</time>
      </trkpt>
      <trkpt lat="44.36366" lon="5.13273">
        <ele>292.6</ele>
        <time>2021-02-24T11:52:30Z</time>
      </trkpt>
      <trkpt lat="44.36362" lon="5.13274">
        <ele>292.4</ele>
        <time>2021-02-24T11:52:31Z</time>
      </trkpt>
      <trkpt lat="44.36358" lon="5.13274">
        <ele>292.1</ele>
        <time>2021-02-24T11:52:32Z</time>
      </trkpt>
      <trkpt lat="44.36354" lon="5.13274">
        <ele>291.8</ele>
        <time>2021-02-24T11:52:33Z</time>
      </trkpt>
      <trkpt lat="44.3635" lon="5.13273">
        <ele>291.5</ele>
        <time>2021-02-24T11:52:34Z</time>
      </trkpt>
      <trkpt lat="44.36346" lon="5.13273">
        <ele>291.3</ele>
        <time>2021-02-24T11:52:35Z</time>
      </trkpt>
      <trkpt lat="44.36342" lon="5.13273">
        <ele>291</ele>
        <time>2021-02-24T11:52:36Z</time>
      </trkpt>
      <trkpt lat="44.36338" lon="5.13274">
        <ele>290.7</ele>
        <time>2021-02-24T11:52:37Z</time>
      </trkpt>
      <trkpt lat="44.36333" lon="5.13274">
        <ele>290.3</ele>
        <time>2021-02-24T11:52:38Z</time>
      </trkpt>
      <trkpt lat="44.36328" lon="5.13275">
        <ele>290</ele>
        <time>2021-02-24T11:52:39Z</time>
      </trkpt>
      <trkpt lat="44.36323" lon="5.13276">
        <ele>289.6</ele>
        <time>2021-02-24T11:52:40Z</time>
      </trkpt>
      <trkpt lat="44.36318" lon="5.13277">
        <ele>289.2</ele>
        <time>2021-02-24T11:52:41Z</time>
      </trkpt>
      <trkpt lat="44.36312" lon="5.13279">
        <ele>288.9</ele>
        <time>2021-02-24T11:52:42Z</time>
      </trkpt>
      <trkpt lat="44.36307" lon="5.13282">
        <ele>288.5</ele>
        <time>2021-02-24T11:52:43Z</time>
      </trkpt>
      <trkpt lat="44.36302" lon="5.13283">
        <ele>288.2</ele>
        <time>2021-02-24T11:52:44Z</time>
      </trkpt>
      <trkpt lat="44.36297" lon="5.13286">
        <ele>287.8</ele>
        <time>2021-02-24T11:52:45Z</time>
      </trkpt>
      <trkpt lat="44.36292" lon="5.13288">
        <ele>287.5</ele>
        <time>2021-02-24T11:52:46Z</time>
      </trkpt>
      <trkpt lat="44.36288" lon="5.13291">
        <ele>287.2</ele>
        <time>2021-02-24T11:52:47Z</time>
      </trkpt>
      <trkpt lat="44.36283" lon="5.13293">
        <ele>286.8</ele>
        <time>2021-02-24T11:52:48Z</time>
      </trkpt>
      <trkpt lat="44.36279" lon="5.13296">
        <ele>286.6</ele>
        <time>2021-02-24T11:52:49Z</time>
      </trkpt>
      <trkpt lat="44.36274" lon="5.13298">
        <ele>286.3</ele>
        <time>2021-02-24T11:52:50Z</time>
      </trkpt>
      <trkpt lat="44.36269" lon="5.13301">
        <ele>286</ele>
        <time>2021-02-24T11:52:51Z</time>
      </trkpt>
      <trkpt lat="44.36265" lon="5.13303">
        <ele>285.7</ele>
        <time>2021-02-24T11:52:52Z</time>
      </trkpt>
      <trkpt lat="44.36261" lon="5.13306">
        <ele>285.4</ele>
        <time>2021-02-24T11:52:53Z</time>
      </trkpt>
      <trkpt lat="44.36256" lon="5.13309">
        <ele>285.2</ele>
        <time>2021-02-24T11:52:54Z</time>
      </trkpt>
      <trkpt lat="44.36252" lon="5.13312">
        <ele>284.9</ele>
        <time>2021-02-24T11:52:55Z</time>
      </trkpt>
      <trkpt lat="44.36247" lon="5.13314">
        <ele>284.7</ele>
        <time>2021-02-24T11:52:56Z</time>
      </trkpt>
      <trkpt lat="44.36244" lon="5.13317">
        <ele>284.4</ele>
        <time>2021-02-24T11:52:57Z</time>
      </trkpt>
      <trkpt lat="44.3624" lon="5.13319">
        <ele>284.2</ele>
        <time>2021-02-24T11:52:58Z</time>
      </trkpt>
      <trkpt lat="44.36238" lon="5.13321">
        <ele>284.1</ele>
        <time>2021-02-24T11:52:59Z</time>
      </trkpt>
      <trkpt lat="44.36236" lon="5.13323">
        <ele>283.9</ele>
        <time>2021-02-24T11:53:00Z</time>
      </trkpt>
      <trkpt lat="44.36233" lon="5.13325">
        <ele>283.8</ele>
        <time>2021-02-24T11:53:01Z</time>
      </trkpt>
      <trkpt lat="44.36231" lon="5.13325">
        <ele>283.7</ele>
        <time>2021-02-24T11:53:02Z</time>
      </trkpt>
      <trkpt lat="44.36228" lon="5.13325">
        <ele>283.6</ele>
        <time>2021-02-24T11:53:03Z</time>
      </trkpt>
      <trkpt lat="44.36226" lon="5.13325">
        <ele>283.6</ele>
        <time>2021-02-24T11:53:04Z</time>
      </trkpt>
      <trkpt lat="44.36224" lon="5.13325">
        <ele>283.5</ele>
        <time>2021-02-24T11:53:05Z</time>
      </trkpt>
      <trkpt lat="44.36224" lon="5.13325">
        <ele>283.5</ele>
        <time>2021-02-24T11:53:06Z</time>
      </trkpt>
      <trkpt lat="44.36222" lon="5.13325">
        <ele>283.5</ele>
        <time>2021-02-24T11:53:07Z</time>
      </trkpt>
      <trkpt lat="44.36222" lon="5.13325">
        <ele>283.5</ele>
        <time>2021-02-24T11:53:08Z</time>
      </trkpt>
      <trkpt lat="44.36222" lon="5.13325">
        <ele>283.5</ele>
        <time>2021-02-24T11:53:09Z</time>
      </trkpt>
      <trkpt lat="44.36222" lon="5.13325">
        <ele>283.5</ele>
        <time>2021-02-24T11:53:10Z</time>
      </trkpt>
      <trkpt lat="44.36222" lon="5.13325">
        <ele>283.5</ele>
        <time>2021-02-24T11:53:11Z</time>
      </trkpt>
      <trkpt lat="44.36221" lon="5.13325">
        <ele>283.4</ele>
        <time>2021-02-24T11:53:12Z</time>
      </trkpt>
      <trkpt lat="44.36217" lon="5.13325">
        <ele>283.3</ele>
        <time>2021-02-24T11:53:19Z</time>
      </trkpt>
      <trkpt lat="44.36216" lon="5.13328">
        <ele>283.2</ele>
        <time>2021-02-24T11:53:20Z</time>
      </trkpt>
      <trkpt lat="44.36215" lon="5.13333">
        <ele>283.1</ele>
        <time>2021-02-24T11:53:21Z</time>
      </trkpt>
      <trkpt lat="44.36215" lon="5.13337">
        <ele>283.1</ele>
        <time>2021-02-24T11:53:22Z</time>
      </trkpt>
      <trkpt lat="44.36214" lon="5.13342">
        <ele>282.9</ele>
        <time>2021-02-24T11:53:23Z</time>
      </trkpt>
      <trkpt lat="44.36214" lon="5.13347">
        <ele>282.8</ele>
        <time>2021-02-24T11:53:24Z</time>
      </trkpt>
      <trkpt lat="44.36214" lon="5.13352">
        <ele>282.7</ele>
        <time>2021-02-24T11:53:25Z</time>
      </trkpt>
      <trkpt lat="44.36213" lon="5.13358">
        <ele>282.5</ele>
        <time>2021-02-24T11:53:26Z</time>
      </trkpt>
      <trkpt lat="44.36213" lon="5.13365">
        <ele>282.4</ele>
        <time>2021-02-24T11:53:27Z</time>
      </trkpt>
      <trkpt lat="44.36212" lon="5.13372">
        <ele>282.2</ele>
        <time>2021-02-24T11:53:28Z</time>
      </trkpt>
      <trkpt lat="44.36212" lon="5.13379">
        <ele>282</ele>
        <time>2021-02-24T11:53:29Z</time>
      </trkpt>
      <trkpt lat="44.36211" lon="5.13387">
        <ele>281.8</ele>
        <time>2021-02-24T11:53:30Z</time>
      </trkpt>
      <trkpt lat="44.36211" lon="5.13395">
        <ele>281.5</ele>
        <time>2021-02-24T11:53:31Z</time>
      </trkpt>
      <trkpt lat="44.3621" lon="5.13404">
        <ele>281.3</ele>
        <time>2021-02-24T11:53:32Z</time>
      </trkpt>
      <trkpt lat="44.36208" lon="5.13413">
        <ele>281</ele>
        <time>2021-02-24T11:53:33Z</time>
      </trkpt>
      <trkpt lat="44.36207" lon="5.13422">
        <ele>280.7</ele>
        <time>2021-02-24T11:53:34Z</time>
      </trkpt>
      <trkpt lat="44.36206" lon="5.13431">
        <ele>280.5</ele>
        <time>2021-02-24T11:53:35Z</time>
      </trkpt>
      <trkpt lat="44.36205" lon="5.13441">
        <ele>280.3</ele>
        <time>2021-02-24T11:53:36Z</time>
      </trkpt>
      <trkpt lat="44.36203" lon="5.13451">
        <ele>279.9</ele>
        <time>2021-02-24T11:53:37Z</time>
      </trkpt>
      <trkpt lat="44.36201" lon="5.13461">
        <ele>279.5</ele>
        <time>2021-02-24T11:53:38Z</time>
      </trkpt>
      <trkpt lat="44.362" lon="5.13472">
        <ele>279.1</ele>
        <time>2021-02-24T11:53:39Z</time>
      </trkpt>
      <trkpt lat="44.36197" lon="5.13483">
        <ele>278.7</ele>
        <time>2021-02-24T11:53:40Z</time>
      </trkpt>
      <trkpt lat="44.36195" lon="5.13494">
        <ele>278.3</ele>
        <time>2021-02-24T11:53:41Z</time>
      </trkpt>
      <trkpt lat="44.36193" lon="5.13505">
        <ele>277.9</ele>
        <time>2021-02-24T11:53:42Z</time>
      </trkpt>
      <trkpt lat="44.36191" lon="5.13516">
        <ele>277.5</ele>
        <time>2021-02-24T11:53:43Z</time>
      </trkpt>
      <trkpt lat="44.36189" lon="5.13528">
        <ele>277.1</ele>
        <time>2021-02-24T11:53:44Z</time>
      </trkpt>
      <trkpt lat="44.36186" lon="5.1354">
        <ele>276.7</ele>
        <time>2021-02-24T11:53:45Z</time>
      </trkpt>
      <trkpt lat="44.36184" lon="5.13552">
        <ele>276.3</ele>
        <time>2021-02-24T11:53:46Z</time>
      </trkpt>
      <trkpt lat="44.36182" lon="5.13563">
        <ele>276</ele>
        <time>2021-02-24T11:53:47Z</time>
      </trkpt>
      <trkpt lat="44.3618" lon="5.13575">
        <ele>275.8</ele>
        <time>2021-02-24T11:53:48Z</time>
      </trkpt>
      <trkpt lat="44.36177" lon="5.13587">
        <ele>275.4</ele>
        <time>2021-02-24T11:53:49Z</time>
      </trkpt>
      <trkpt lat="44.36175" lon="5.13599">
        <ele>275</ele>
        <time>2021-02-24T11:53:50Z</time>
      </trkpt>
      <trkpt lat="44.36173" lon="5.13611">
        <ele>274.6</ele>
        <time>2021-02-24T11:53:51Z</time>
      </trkpt>
      <trkpt lat="44.36171" lon="5.13623">
        <ele>274.3</ele>
        <time>2021-02-24T11:53:52Z</time>
      </trkpt>
      <trkpt lat="44.36168" lon="5.13635">
        <ele>274</ele>
        <time>2021-02-24T11:53:53Z</time>
      </trkpt>
      <trkpt lat="44.36166" lon="5.13647">
        <ele>273.7</ele>
        <time>2021-02-24T11:53:54Z</time>
      </trkpt>
      <trkpt lat="44.36164" lon="5.13659">
        <ele>273.3</ele>
        <time>2021-02-24T11:53:55Z</time>
      </trkpt>
      <trkpt lat="44.36162" lon="5.13671">
        <ele>273</ele>
        <time>2021-02-24T11:53:56Z</time>
      </trkpt>
      <trkpt lat="44.3616" lon="5.13684">
        <ele>272.7</ele>
        <time>2021-02-24T11:53:57Z</time>
      </trkpt>
      <trkpt lat="44.36158" lon="5.13696">
        <ele>272.5</ele>
        <time>2021-02-24T11:53:58Z</time>
      </trkpt>
      <trkpt lat="44.36156" lon="5.13708">
        <ele>272.2</ele>
        <time>2021-02-24T11:53:59Z</time>
      </trkpt>
      <trkpt lat="44.36153" lon="5.13721">
        <ele>272.1</ele>
        <time>2021-02-24T11:54:00Z</time>
      </trkpt>
      <trkpt lat="44.36151" lon="5.13733">
        <ele>272</ele>
        <time>2021-02-24T11:54:01Z</time>
      </trkpt>
      <trkpt lat="44.36149" lon="5.13745">
        <ele>271.8</ele>
        <time>2021-02-24T11:54:02Z</time>
      </trkpt>
      <trkpt lat="44.36147" lon="5.13756">
        <ele>271.7</ele>
        <time>2021-02-24T11:54:03Z</time>
      </trkpt>
      <trkpt lat="44.36144" lon="5.13767">
        <ele>271.6</ele>
        <time>2021-02-24T11:54:04Z</time>
      </trkpt>
      <trkpt lat="44.36141" lon="5.13778">
        <ele>271.5</ele>
        <time>2021-02-24T11:54:05Z</time>
      </trkpt>
      <trkpt lat="44.36136" lon="5.13789">
        <ele>271.4</ele>
        <time>2021-02-24T11:54:06Z</time>
      </trkpt>
      <trkpt lat="44.36131" lon="5.13801">
        <ele>271.3</ele>
        <time>2021-02-24T11:54:07Z</time>
      </trkpt>
      <trkpt lat="44.36127" lon="5.13811">
        <ele>271.2</ele>
        <time>2021-02-24T11:54:08Z</time>
      </trkpt>
      <trkpt lat="44.36122" lon="5.13822">
        <ele>271.2</ele>
        <time>2021-02-24T11:54:09Z</time>
      </trkpt>
      <trkpt lat="44.36118" lon="5.13832">
        <ele>271.1</ele>
        <time>2021-02-24T11:54:10Z</time>
      </trkpt>
      <trkpt lat="44.36115" lon="5.13842">
        <ele>271.1</ele>
        <time>2021-02-24T11:54:11Z</time>
      </trkpt>
      <trkpt lat="44.36114" lon="5.13851">
        <ele>271</ele>
        <time>2021-02-24T11:54:12Z</time>
      </trkpt>
      <trkpt lat="44.36111" lon="5.13859">
        <ele>271</ele>
        <time>2021-02-24T11:54:13Z</time>
      </trkpt>
      <trkpt lat="44.36109" lon="5.13868">
        <ele>270.9</ele>
        <time>2021-02-24T11:54:14Z</time>
      </trkpt>
      <trkpt lat="44.36106" lon="5.13877">
        <ele>270.9</ele>
        <time>2021-02-24T11:54:15Z</time>
      </trkpt>
      <trkpt lat="44.36103" lon="5.13886">
        <ele>270.8</ele>
        <time>2021-02-24T11:54:16Z</time>
      </trkpt>
      <trkpt lat="44.36101" lon="5.13895">
        <ele>270.8</ele>
        <time>2021-02-24T11:54:17Z</time>
      </trkpt>
      <trkpt lat="44.36099" lon="5.13904">
        <ele>270.7</ele>
        <time>2021-02-24T11:54:18Z</time>
      </trkpt>
      <trkpt lat="44.36099" lon="5.13904">
        <ele>270.7</ele>
        <time>2021-02-24T11:54:19Z</time>
      </trkpt>
      <trkpt lat="44.36087" lon="5.13922">
        <ele>270.6</ele>
        <time>2021-02-24T11:54:20Z</time>
      </trkpt>
      <trkpt lat="44.36084" lon="5.13925">
        <ele>270.5</ele>
        <time>2021-02-24T11:54:21Z</time>
      </trkpt>
      <trkpt lat="44.36079" lon="5.1393">
        <ele>270.4</ele>
        <time>2021-02-24T11:54:22Z</time>
      </trkpt>
      <trkpt lat="44.36074" lon="5.13932">
        <ele>270.4</ele>
        <time>2021-02-24T11:54:23Z</time>
      </trkpt>
      <trkpt lat="44.36068" lon="5.13932">
        <ele>270.3</ele>
        <time>2021-02-24T11:54:24Z</time>
      </trkpt>
      <trkpt lat="44.36063" lon="5.13933">
        <ele>270.2</ele>
        <time>2021-02-24T11:54:25Z</time>
      </trkpt>
      <trkpt lat="44.36057" lon="5.13933">
        <ele>269.9</ele>
        <time>2021-02-24T11:54:26Z</time>
      </trkpt>
      <trkpt lat="44.36053" lon="5.13933">
        <ele>269.9</ele>
        <time>2021-02-24T11:54:27Z</time>
      </trkpt>
      <trkpt lat="44.36049" lon="5.13932">
        <ele>269.5</ele>
        <time>2021-02-24T11:54:28Z</time>
      </trkpt>
      <trkpt lat="44.36046" lon="5.1393">
        <ele>269.5</ele>
        <time>2021-02-24T11:54:29Z</time>
      </trkpt>
      <trkpt lat="44.36044" lon="5.13928">
        <ele>268.9</ele>
        <time>2021-02-24T11:54:30Z</time>
      </trkpt>
      <trkpt lat="44.36044" lon="5.13928">
        <ele>268.9</ele>
        <time>2021-02-24T11:54:31Z</time>
      </trkpt>
      <trkpt lat="44.36042" lon="5.13926">
        <ele>268.8</ele>
        <time>2021-02-24T11:54:32Z</time>
      </trkpt>
      <trkpt lat="44.36042" lon="5.13926">
        <ele>268.8</ele>
        <time>2021-02-24T11:54:33Z</time>
      </trkpt>
      <trkpt lat="44.36042" lon="5.13926">
        <ele>268.8</ele>
        <time>2021-02-24T11:54:34Z</time>
      </trkpt>
      <trkpt lat="44.36042" lon="5.13926">
        <ele>268.8</ele>
        <time>2021-02-24T11:54:35Z</time>
      </trkpt>
      <trkpt lat="44.36042" lon="5.13926">
        <ele>268.8</ele>
        <time>2021-02-24T11:54:36Z</time>
      </trkpt>
      <trkpt lat="44.3604" lon="5.13927">
        <ele>268.8</ele>
        <time>2021-02-24T11:54:37Z</time>
      </trkpt>
      <trkpt lat="44.3604" lon="5.13927">
        <ele>268.8</ele>
        <time>2021-02-24T11:54:38Z</time>
      </trkpt>
      <trkpt lat="44.36037" lon="5.13927">
        <ele>268.8</ele>
        <time>2021-02-24T11:54:39Z</time>
      </trkpt>
      <trkpt lat="44.36035" lon="5.13927">
        <ele>268.8</ele>
        <time>2021-02-24T11:54:40Z</time>
      </trkpt>
      <trkpt lat="44.36033" lon="5.13928">
        <ele>268.8</ele>
        <time>2021-02-24T11:54:41Z</time>
      </trkpt>
      <trkpt lat="44.3603" lon="5.13928">
        <ele>268.7</ele>
        <time>2021-02-24T11:54:42Z</time>
      </trkpt>
      <trkpt lat="44.36028" lon="5.13929">
        <ele>268.7</ele>
        <time>2021-02-24T11:54:43Z</time>
      </trkpt>
      <trkpt lat="44.36026" lon="5.13929">
        <ele>268.7</ele>
        <time>2021-02-24T11:54:44Z</time>
      </trkpt>
      <trkpt lat="44.36026" lon="5.13929">
        <ele>268.7</ele>
        <time>2021-02-24T11:54:45Z</time>
      </trkpt>
      <trkpt lat="44.36024" lon="5.13929">
        <ele>268.7</ele>
        <time>2021-02-24T11:54:46Z</time>
      </trkpt>
      <trkpt lat="44.36024" lon="5.13929">
        <ele>268.7</ele>
        <time>2021-02-24T11:54:47Z</time>
      </trkpt>
      <trkpt lat="44.36024" lon="5.13929">
        <ele>268.7</ele>
        <time>2021-02-24T11:54:48Z</time>
      </trkpt>
      <trkpt lat="44.36024" lon="5.13929">
        <ele>268.7</ele>
        <time>2021-02-24T11:54:49Z</time>
      </trkpt>
      <trkpt lat="44.36024" lon="5.13929">
        <ele>268.7</ele>
        <time>2021-02-24T11:54:50Z</time>
      </trkpt>
      <trkpt lat="44.36025" lon="5.1393">
        <ele>268.7</ele>
        <time>2021-02-24T11:54:51Z</time>
      </trkpt>
      <trkpt lat="44.3603" lon="5.13927">
        <ele>268.7</ele>
        <time>2021-02-24T11:55:08Z</time>
      </trkpt>
      <trkpt lat="44.3603" lon="5.13927">
        <ele>268.7</ele>
        <time>2021-02-24T11:55:09Z</time>
      </trkpt>
      <trkpt lat="44.36028" lon="5.13924">
        <ele>268.6</ele>
        <time>2021-02-24T11:55:10Z</time>
      </trkpt>
      <trkpt lat="44.36028" lon="5.13924">
        <ele>268.6</ele>
        <time>2021-02-24T11:55:11Z</time>
      </trkpt>
      <trkpt lat="44.36026" lon="5.13924">
        <ele>268.6</ele>
        <time>2021-02-24T11:55:12Z</time>
      </trkpt>
      <trkpt lat="44.36026" lon="5.13924">
        <ele>268.6</ele>
        <time>2021-02-24T11:55:13Z</time>
      </trkpt>
      <trkpt lat="44.36026" lon="5.13924">
        <ele>268.6</ele>
        <time>2021-02-24T11:55:14Z</time>
      </trkpt>
      <trkpt lat="44.36026" lon="5.13924">
        <ele>268.6</ele>
        <time>2021-02-24T11:55:15Z</time>
      </trkpt>
      <trkpt lat="44.36024" lon="5.13925">
        <ele>268.6</ele>
        <time>2021-02-24T11:55:16Z</time>
      </trkpt>
      <trkpt lat="44.36024" lon="5.13925">
        <ele>268.6</ele>
        <time>2021-02-24T11:55:17Z</time>
      </trkpt>
      <trkpt lat="44.36024" lon="5.13925">
        <ele>268.6</ele>
        <time>2021-02-24T11:55:18Z</time>
      </trkpt>
      <trkpt lat="44.36024" lon="5.13925">
        <ele>268.6</ele>
        <time>2021-02-24T11:55:19Z</time>
      </trkpt>
      <trkpt lat="44.36024" lon="5.13925">
        <ele>268.6</ele>
        <time>2021-02-24T11:55:20Z</time>
      </trkpt>
      <trkpt lat="44.36024" lon="5.13925">
        <ele>268.6</ele>
        <time>2021-02-24T11:55:21Z</time>
      </trkpt>
      <trkpt lat="44.36024" lon="5.13925">
        <ele>268.6</ele>
        <time>2021-02-24T11:55:22Z</time>
      </trkpt>
      <trkpt lat="44.36022" lon="5.13926">
        <ele>268.6</ele>
        <time>2021-02-24T11:55:23Z</time>
      </trkpt>
      <trkpt lat="44.36022" lon="5.13926">
        <ele>268.6</ele>
        <time>2021-02-24T11:55:24Z</time>
      </trkpt>
      <trkpt lat="44.36022" lon="5.13926">
        <ele>268.6</ele>
        <time>2021-02-24T11:55:25Z</time>
      </trkpt>
      <trkpt lat="44.36023" lon="5.13922">
        <ele>268.6</ele>
        <time>2021-02-24T11:55:26Z</time>
      </trkpt>
      <trkpt lat="44.36023" lon="5.13922">
        <ele>268.6</ele>
        <time>2021-02-24T11:55:27Z</time>
      </trkpt>
      <trkpt lat="44.36023" lon="5.13922">
        <ele>268.6</ele>
        <time>2021-02-24T11:55:28Z</time>
      </trkpt>
      <trkpt lat="44.36023" lon="5.13922">
        <ele>268.6</ele>
        <time>2021-02-24T11:55:29Z</time>
      </trkpt>
      <trkpt lat="44.36023" lon="5.13922">
        <ele>268.6</ele>
        <time>2021-02-24T11:55:30Z</time>
      </trkpt>
      <trkpt lat="44.36023" lon="5.13923">
        <ele>268.6</ele>
        <time>2021-02-24T11:55:31Z</time>
      </trkpt>
      <trkpt lat="44.36021" lon="5.13923">
        <ele>268.5</ele>
        <time>2021-02-24T11:57:12Z</time>
      </trkpt>
      <trkpt lat="44.36021" lon="5.13923">
        <ele>268.5</ele>
        <time>2021-02-24T11:57:13Z</time>
      </trkpt>
      <trkpt lat="44.36021" lon="5.13923">
        <ele>268.5</ele>
        <time>2021-02-24T11:57:14Z</time>
      </trkpt>
      <trkpt lat="44.36021" lon="5.13923">
        <ele>268.5</ele>
        <time>2021-02-24T11:57:15Z</time>
      </trkpt>
      <trkpt lat="44.3603" lon="5.13936">
        <ele>268.5</ele>
        <time>2021-02-24T12:02:12Z</time>
      </trkpt>
      <trkpt lat="44.3603" lon="5.13936">
        <ele>268.5</ele>
        <time>2021-02-24T12:02:13Z</time>
      </trkpt>
      <trkpt lat="44.3603" lon="5.13936">
        <ele>268.5</ele>
        <time>2021-02-24T12:02:14Z</time>
      </trkpt>
      <trkpt lat="44.3603" lon="5.13936">
        <ele>268.5</ele>
        <time>2021-02-24T12:02:15Z</time>
      </trkpt>
      <trkpt lat="44.3603" lon="5.13936">
        <ele>268.5</ele>
        <time>2021-02-24T12:02:16Z</time>
      </trkpt>
      <trkpt lat="44.3603" lon="5.13936">
        <ele>268.5</ele>
        <time>2021-02-24T12:02:17Z</time>
      </trkpt>
      <trkpt lat="44.3603" lon="5.13936">
        <ele>268.5</ele>
        <time>2021-02-24T12:02:18Z</time>
      </trkpt>
      <trkpt lat="44.36031" lon="5.13935">
        <ele>268.5</ele>
        <time>2021-02-24T12:02:19Z</time>
      </trkpt>
      <trkpt lat="44.36031" lon="5.13935">
        <ele>268.5</ele>
        <time>2021-02-24T12:02:20Z</time>
      </trkpt>
      <trkpt lat="44.36031" lon="5.13935">
        <ele>268.5</ele>
        <time>2021-02-24T12:02:21Z</time>
      </trkpt>
      <trkpt lat="44.36031" lon="5.13932">
        <ele>268.5</ele>
        <time>2021-02-24T12:02:22Z</time>
      </trkpt>
      <trkpt lat="44.36031" lon="5.13932">
        <ele>268.5</ele>
        <time>2021-02-24T12:02:23Z</time>
      </trkpt>
      <trkpt lat="44.36031" lon="5.13932">
        <ele>268.5</ele>
        <time>2021-02-24T12:02:24Z</time>
      </trkpt>
      <trkpt lat="44.36031" lon="5.13932">
        <ele>268.5</ele>
        <time>2021-02-24T12:02:25Z</time>
      </trkpt>
      <trkpt lat="44.36031" lon="5.13932">
        <ele>268.5</ele>
        <time>2021-02-24T12:02:26Z</time>
      </trkpt>
      <trkpt lat="44.36031" lon="5.13932">
        <ele>268.5</ele>
        <time>2021-02-24T12:02:27Z</time>
      </trkpt>
      <trkpt lat="44.36031" lon="5.13932">
        <ele>268.5</ele>
        <time>2021-02-24T12:02:28Z</time>
      </trkpt>
      <trkpt lat="44.36031" lon="5.13932">
        <ele>268.5</ele>
        <time>2021-02-24T12:02:29Z</time>
      </trkpt>
      <trkpt lat="44.36031" lon="5.13932">
        <ele>268.5</ele>
        <time>2021-02-24T12:02:30Z</time>
      </trkpt>
      <trkpt lat="44.36031" lon="5.13932">
        <ele>268.5</ele>
        <time>2021-02-24T12:02:31Z</time>
      </trkpt>
      <trkpt lat="44.36036" lon="5.13918">
        <ele>268.4</ele>
        <time>2021-02-24T12:05:41Z</time>
      </trkpt>
      <trkpt lat="44.36036" lon="5.13915">
        <ele>268.4</ele>
        <time>2021-02-24T12:05:42Z</time>
      </trkpt>
      <trkpt lat="44.36036" lon="5.13911">
        <ele>268.4</ele>
        <time>2021-02-24T12:05:43Z</time>
      </trkpt>
      <trkpt lat="44.36036" lon="5.13908">
        <ele>268.4</ele>
        <time>2021-02-24T12:05:44Z</time>
      </trkpt>
      <trkpt lat="44.36036" lon="5.13905">
        <ele>268.3</ele>
        <time>2021-02-24T12:05:45Z</time>
      </trkpt>
      <trkpt lat="44.36035" lon="5.13901">
        <ele>268.3</ele>
        <time>2021-02-24T12:05:46Z</time>
      </trkpt>
      <trkpt lat="44.36034" lon="5.13897">
        <ele>268.3</ele>
        <time>2021-02-24T12:05:47Z</time>
      </trkpt>
      <trkpt lat="44.36034" lon="5.13893">
        <ele>268.3</ele>
        <time>2021-02-24T12:05:48Z</time>
      </trkpt>
      <trkpt lat="44.36033" lon="5.13888">
        <ele>268.2</ele>
        <time>2021-02-24T12:05:49Z</time>
      </trkpt>
      <trkpt lat="44.36033" lon="5.13884">
        <ele>268.2</ele>
        <time>2021-02-24T12:05:50Z</time>
      </trkpt>
      <trkpt lat="44.36032" lon="5.13878">
        <ele>268.2</ele>
        <time>2021-02-24T12:05:51Z</time>
      </trkpt>
      <trkpt lat="44.36032" lon="5.13873">
        <ele>268.1</ele>
        <time>2021-02-24T12:05:52Z</time>
      </trkpt>
      <trkpt lat="44.36031" lon="5.13868">
        <ele>268.1</ele>
        <time>2021-02-24T12:05:53Z</time>
      </trkpt>
      <trkpt lat="44.36031" lon="5.13863">
        <ele>268</ele>
        <time>2021-02-24T12:05:54Z</time>
      </trkpt>
      <trkpt lat="44.3603" lon="5.13857">
        <ele>268</ele>
        <time>2021-02-24T12:05:55Z</time>
      </trkpt>
      <trkpt lat="44.36029" lon="5.13852">
        <ele>268</ele>
        <time>2021-02-24T12:05:56Z</time>
      </trkpt>
      <trkpt lat="44.36029" lon="5.13852">
        <ele>268</ele>
        <time>2021-02-24T12:05:57Z</time>
      </trkpt>
      <trkpt lat="44.36026" lon="5.13839">
        <ele>267.9</ele>
        <time>2021-02-24T12:05:58Z</time>
      </trkpt>
      <trkpt lat="44.36026" lon="5.13836">
        <ele>267.8</ele>
        <time>2021-02-24T12:05:59Z</time>
      </trkpt>
      <trkpt lat="44.36024" lon="5.13831">
        <ele>267.8</ele>
        <time>2021-02-24T12:06:00Z</time>
      </trkpt>
      <trkpt lat="44.36024" lon="5.13825">
        <ele>267.8</ele>
        <time>2021-02-24T12:06:01Z</time>
      </trkpt>
      <trkpt lat="44.36023" lon="5.13819">
        <ele>267.7</ele>
        <time>2021-02-24T12:06:02Z</time>
      </trkpt>
      <trkpt lat="44.36022" lon="5.13813">
        <ele>267.7</ele>
        <time>2021-02-24T12:06:03Z</time>
      </trkpt>
      <trkpt lat="44.36021" lon="5.13807">
        <ele>267.7</ele>
        <time>2021-02-24T12:06:04Z</time>
      </trkpt>
      <trkpt lat="44.3602" lon="5.13801">
        <ele>267.7</ele>
        <time>2021-02-24T12:06:05Z</time>
      </trkpt>
      <trkpt lat="44.36018" lon="5.13795">
        <ele>267.6</ele>
        <time>2021-02-24T12:06:06Z</time>
      </trkpt>
      <trkpt lat="44.36016" lon="5.1379">
        <ele>267.6</ele>
        <time>2021-02-24T12:06:07Z</time>
      </trkpt>
      <trkpt lat="44.36015" lon="5.13783">
        <ele>267.6</ele>
        <time>2021-02-24T12:06:08Z</time>
      </trkpt>
      <trkpt lat="44.36013" lon="5.13777">
        <ele>267.6</ele>
        <time>2021-02-24T12:06:09Z</time>
      </trkpt>
      <trkpt lat="44.36011" lon="5.13771">
        <ele>267.6</ele>
        <time>2021-02-24T12:06:10Z</time>
      </trkpt>
      <trkpt lat="44.36011" lon="5.13764">
        <ele>267.6</ele>
        <time>2021-02-24T12:06:11Z</time>
      </trkpt>
      <trkpt lat="44.36012" lon="5.13757">
        <ele>267.6</ele>
        <time>2021-02-24T12:06:12Z</time>
      </trkpt>
      <trkpt lat="44.36012" lon="5.13757">
        <ele>267.6</ele>
        <time>2021-02-24T12:06:13Z</time>
      </trkpt>
      <trkpt lat="44.36015" lon="5.13744">
        <ele>267.7</ele>
        <time>2021-02-24T12:06:14Z</time>
      </trkpt>
      <trkpt lat="44.36016" lon="5.13737">
        <ele>267.7</ele>
        <time>2021-02-24T12:06:15Z</time>
      </trkpt>
      <trkpt lat="44.36016" lon="5.13731">
        <ele>267.8</ele>
        <time>2021-02-24T12:06:16Z</time>
      </trkpt>
      <trkpt lat="44.36017" lon="5.13724">
        <ele>267.8</ele>
        <time>2021-02-24T12:06:17Z</time>
      </trkpt>
      <trkpt lat="44.36017" lon="5.13718">
        <ele>267.9</ele>
        <time>2021-02-24T12:06:18Z</time>
      </trkpt>
      <trkpt lat="44.36018" lon="5.13711">
        <ele>267.9</ele>
        <time>2021-02-24T12:06:19Z</time>
      </trkpt>
      <trkpt lat="44.36018" lon="5.13705">
        <ele>268</ele>
        <time>2021-02-24T12:06:20Z</time>
      </trkpt>
      <trkpt lat="44.36019" lon="5.13698">
        <ele>268</ele>
        <time>2021-02-24T12:06:21Z</time>
      </trkpt>
      <trkpt lat="44.36019" lon="5.13692">
        <ele>268.1</ele>
        <time>2021-02-24T12:06:22Z</time>
      </trkpt>
      <trkpt lat="44.36019" lon="5.13685">
        <ele>268.1</ele>
        <time>2021-02-24T12:06:23Z</time>
      </trkpt>
      <trkpt lat="44.36019" lon="5.13679">
        <ele>268.2</ele>
        <time>2021-02-24T12:06:24Z</time>
      </trkpt>
      <trkpt lat="44.3602" lon="5.13672">
        <ele>268.2</ele>
        <time>2021-02-24T12:06:25Z</time>
      </trkpt>
      <trkpt lat="44.3602" lon="5.13666">
        <ele>268.3</ele>
        <time>2021-02-24T12:06:26Z</time>
      </trkpt>
      <trkpt lat="44.3602" lon="5.13659">
        <ele>268.4</ele>
        <time>2021-02-24T12:06:27Z</time>
      </trkpt>
      <trkpt lat="44.36021" lon="5.13653">
        <ele>268.4</ele>
        <time>2021-02-24T12:06:28Z</time>
      </trkpt>
      <trkpt lat="44.36022" lon="5.13646">
        <ele>268.5</ele>
        <time>2021-02-24T12:06:29Z</time>
      </trkpt>
      <trkpt lat="44.36023" lon="5.1364">
        <ele>268.6</ele>
        <time>2021-02-24T12:06:30Z</time>
      </trkpt>
      <trkpt lat="44.36023" lon="5.13633">
        <ele>268.6</ele>
        <time>2021-02-24T12:06:31Z</time>
      </trkpt>
      <trkpt lat="44.36024" lon="5.13627">
        <ele>268.7</ele>
        <time>2021-02-24T12:06:32Z</time>
      </trkpt>
      <trkpt lat="44.36024" lon="5.13622">
        <ele>268.8</ele>
        <time>2021-02-24T12:06:33Z</time>
      </trkpt>
      <trkpt lat="44.36024" lon="5.13616">
        <ele>268.8</ele>
        <time>2021-02-24T12:06:34Z</time>
      </trkpt>
      <trkpt lat="44.36024" lon="5.1361">
        <ele>268.9</ele>
        <time>2021-02-24T12:06:35Z</time>
      </trkpt>
      <trkpt lat="44.36024" lon="5.13604">
        <ele>269</ele>
        <time>2021-02-24T12:06:36Z</time>
      </trkpt>
      <trkpt lat="44.36024" lon="5.13599">
        <ele>269</ele>
        <time>2021-02-24T12:06:37Z</time>
      </trkpt>
      <trkpt lat="44.36024" lon="5.13593">
        <ele>269.1</ele>
        <time>2021-02-24T12:06:38Z</time>
      </trkpt>
      <trkpt lat="44.36024" lon="5.13587">
        <ele>269.2</ele>
        <time>2021-02-24T12:06:39Z</time>
      </trkpt>
      <trkpt lat="44.36024" lon="5.13581">
        <ele>269.2</ele>
        <time>2021-02-24T12:06:40Z</time>
      </trkpt>
      <trkpt lat="44.36024" lon="5.13576">
        <ele>269.3</ele>
        <time>2021-02-24T12:06:41Z</time>
      </trkpt>
      <trkpt lat="44.36024" lon="5.13569">
        <ele>269.3</ele>
        <time>2021-02-24T12:06:42Z</time>
      </trkpt>
      <trkpt lat="44.36024" lon="5.13563">
        <ele>269.4</ele>
        <time>2021-02-24T12:06:43Z</time>
      </trkpt>
      <trkpt lat="44.36024" lon="5.13557">
        <ele>269.5</ele>
        <time>2021-02-24T12:06:44Z</time>
      </trkpt>
      <trkpt lat="44.36025" lon="5.13551">
        <ele>269.5</ele>
        <time>2021-02-24T12:06:45Z</time>
      </trkpt>
      <trkpt lat="44.36025" lon="5.13545">
        <ele>269.6</ele>
        <time>2021-02-24T12:06:46Z</time>
      </trkpt>
      <trkpt lat="44.36026" lon="5.13538">
        <ele>269.7</ele>
        <time>2021-02-24T12:06:47Z</time>
      </trkpt>
      <trkpt lat="44.36026" lon="5.13532">
        <ele>269.8</ele>
        <time>2021-02-24T12:06:48Z</time>
      </trkpt>
      <trkpt lat="44.36026" lon="5.13526">
        <ele>269.8</ele>
        <time>2021-02-24T12:06:49Z</time>
      </trkpt>
      <trkpt lat="44.36026" lon="5.13519">
        <ele>269.9</ele>
        <time>2021-02-24T12:06:50Z</time>
      </trkpt>
      <trkpt lat="44.36026" lon="5.13513">
        <ele>270</ele>
        <time>2021-02-24T12:06:51Z</time>
      </trkpt>
      <trkpt lat="44.36026" lon="5.13507">
        <ele>270</ele>
        <time>2021-02-24T12:06:52Z</time>
      </trkpt>
      <trkpt lat="44.36025" lon="5.135">
        <ele>270.1</ele>
        <time>2021-02-24T12:06:53Z</time>
      </trkpt>
      <trkpt lat="44.36026" lon="5.13494">
        <ele>270.2</ele>
        <time>2021-02-24T12:06:54Z</time>
      </trkpt>
      <trkpt lat="44.36027" lon="5.13487">
        <ele>270.2</ele>
        <time>2021-02-24T12:06:55Z</time>
      </trkpt>
      <trkpt lat="44.36027" lon="5.1348">
        <ele>270.3</ele>
        <time>2021-02-24T12:06:56Z</time>
      </trkpt>
      <trkpt lat="44.36027" lon="5.13474">
        <ele>270.4</ele>
        <time>2021-02-24T12:06:57Z</time>
      </trkpt>
      <trkpt lat="44.36027" lon="5.13467">
        <ele>270.5</ele>
        <time>2021-02-24T12:06:58Z</time>
      </trkpt>
      <trkpt lat="44.36027" lon="5.1346">
        <ele>270.5</ele>
        <time>2021-02-24T12:06:59Z</time>
      </trkpt>
      <trkpt lat="44.36028" lon="5.13454">
        <ele>270.6</ele>
        <time>2021-02-24T12:07:00Z</time>
      </trkpt>
      <trkpt lat="44.36028" lon="5.13447">
        <ele>270.7</ele>
        <time>2021-02-24T12:07:01Z</time>
      </trkpt>
      <trkpt lat="44.36029" lon="5.13441">
        <ele>270.8</ele>
        <time>2021-02-24T12:07:02Z</time>
      </trkpt>
      <trkpt lat="44.36029" lon="5.13434">
        <ele>270.9</ele>
        <time>2021-02-24T12:07:03Z</time>
      </trkpt>
      <trkpt lat="44.36029" lon="5.13428">
        <ele>271</ele>
        <time>2021-02-24T12:07:04Z</time>
      </trkpt>
      <trkpt lat="44.3603" lon="5.13422">
        <ele>271</ele>
        <time>2021-02-24T12:07:05Z</time>
      </trkpt>
      <trkpt lat="44.3603" lon="5.13415">
        <ele>271.1</ele>
        <time>2021-02-24T12:07:06Z</time>
      </trkpt>
      <trkpt lat="44.3603" lon="5.13409">
        <ele>271.2</ele>
        <time>2021-02-24T12:07:07Z</time>
      </trkpt>
      <trkpt lat="44.3603" lon="5.13402">
        <ele>271.3</ele>
        <time>2021-02-24T12:07:08Z</time>
      </trkpt>
      <trkpt lat="44.3603" lon="5.13396">
        <ele>271.4</ele>
        <time>2021-02-24T12:07:09Z</time>
      </trkpt>
      <trkpt lat="44.36031" lon="5.1339">
        <ele>271.5</ele>
        <time>2021-02-24T12:07:10Z</time>
      </trkpt>
      <trkpt lat="44.36031" lon="5.13384">
        <ele>271.5</ele>
        <time>2021-02-24T12:07:11Z</time>
      </trkpt>
      <trkpt lat="44.36031" lon="5.13377">
        <ele>271.6</ele>
        <time>2021-02-24T12:07:12Z</time>
      </trkpt>
      <trkpt lat="44.3603" lon="5.13371">
        <ele>271.7</ele>
        <time>2021-02-24T12:07:13Z</time>
      </trkpt>
      <trkpt lat="44.3603" lon="5.13365">
        <ele>271.7</ele>
        <time>2021-02-24T12:07:14Z</time>
      </trkpt>
      <trkpt lat="44.3603" lon="5.13358">
        <ele>271.8</ele>
        <time>2021-02-24T12:07:15Z</time>
      </trkpt>
      <trkpt lat="44.36028" lon="5.13352">
        <ele>271.9</ele>
        <time>2021-02-24T12:07:16Z</time>
      </trkpt>
      <trkpt lat="44.36028" lon="5.13346">
        <ele>271.9</ele>
        <time>2021-02-24T12:07:17Z</time>
      </trkpt>
      <trkpt lat="44.36027" lon="5.1334">
        <ele>272</ele>
        <time>2021-02-24T12:07:18Z</time>
      </trkpt>
      <trkpt lat="44.36025" lon="5.13334">
        <ele>272</ele>
        <time>2021-02-24T12:07:19Z</time>
      </trkpt>
      <trkpt lat="44.36024" lon="5.13328">
        <ele>272</ele>
        <time>2021-02-24T12:07:20Z</time>
      </trkpt>
      <trkpt lat="44.36023" lon="5.13322">
        <ele>272.1</ele>
        <time>2021-02-24T12:07:21Z</time>
      </trkpt>
      <trkpt lat="44.36022" lon="5.13317">
        <ele>272.1</ele>
        <time>2021-02-24T12:07:22Z</time>
      </trkpt>
      <trkpt lat="44.36021" lon="5.13311">
        <ele>272.1</ele>
        <time>2021-02-24T12:07:23Z</time>
      </trkpt>
      <trkpt lat="44.3602" lon="5.13306">
        <ele>272.2</ele>
        <time>2021-02-24T12:07:24Z</time>
      </trkpt>
      <trkpt lat="44.3602" lon="5.13301">
        <ele>272.1</ele>
        <time>2021-02-24T12:07:25Z</time>
      </trkpt>
      <trkpt lat="44.3602" lon="5.13296">
        <ele>272.1</ele>
        <time>2021-02-24T12:07:26Z</time>
      </trkpt>
      <trkpt lat="44.3602" lon="5.1329">
        <ele>272.1</ele>
        <time>2021-02-24T12:07:27Z</time>
      </trkpt>
      <trkpt lat="44.36021" lon="5.13285">
        <ele>272.2</ele>
        <time>2021-02-24T12:07:28Z</time>
      </trkpt>
      <trkpt lat="44.36022" lon="5.13279">
        <ele>272.3</ele>
        <time>2021-02-24T12:07:29Z</time>
      </trkpt>
      <trkpt lat="44.36023" lon="5.13274">
        <ele>272.4</ele>
        <time>2021-02-24T12:07:30Z</time>
      </trkpt>
      <trkpt lat="44.36022" lon="5.13268">
        <ele>272.5</ele>
        <time>2021-02-24T12:07:31Z</time>
      </trkpt>
      <trkpt lat="44.36021" lon="5.13262">
        <ele>272.6</ele>
        <time>2021-02-24T12:07:32Z</time>
      </trkpt>
      <trkpt lat="44.3602" lon="5.13256">
        <ele>272.6</ele>
        <time>2021-02-24T12:07:33Z</time>
      </trkpt>
      <trkpt lat="44.36017" lon="5.1325">
        <ele>272.5</ele>
        <time>2021-02-24T12:07:34Z</time>
      </trkpt>
      <trkpt lat="44.36014" lon="5.13244">
        <ele>272.4</ele>
        <time>2021-02-24T12:07:35Z</time>
      </trkpt>
      <trkpt lat="44.36012" lon="5.13237">
        <ele>272.2</ele>
        <time>2021-02-24T12:07:36Z</time>
      </trkpt>
      <trkpt lat="44.36009" lon="5.1323">
        <ele>272.1</ele>
        <time>2021-02-24T12:07:37Z</time>
      </trkpt>
      <trkpt lat="44.36006" lon="5.13222">
        <ele>271.9</ele>
        <time>2021-02-24T12:07:38Z</time>
      </trkpt>
      <trkpt lat="44.36004" lon="5.13215">
        <ele>271.9</ele>
        <time>2021-02-24T12:07:39Z</time>
      </trkpt>
      <trkpt lat="44.36002" lon="5.13207">
        <ele>271.8</ele>
        <time>2021-02-24T12:07:40Z</time>
      </trkpt>
      <trkpt lat="44.36" lon="5.13199">
        <ele>271.9</ele>
        <time>2021-02-24T12:07:41Z</time>
      </trkpt>
      <trkpt lat="44.35999" lon="5.13191">
        <ele>271.9</ele>
        <time>2021-02-24T12:07:42Z</time>
      </trkpt>
      <trkpt lat="44.35998" lon="5.13184">
        <ele>272</ele>
        <time>2021-02-24T12:07:43Z</time>
      </trkpt>
      <trkpt lat="44.35997" lon="5.13177">
        <ele>272</ele>
        <time>2021-02-24T12:07:44Z</time>
      </trkpt>
      <trkpt lat="44.35996" lon="5.1317">
        <ele>272.1</ele>
        <time>2021-02-24T12:07:45Z</time>
      </trkpt>
      <trkpt lat="44.35995" lon="5.13163">
        <ele>272.2</ele>
        <time>2021-02-24T12:07:46Z</time>
      </trkpt>
      <trkpt lat="44.35994" lon="5.13156">
        <ele>272.3</ele>
        <time>2021-02-24T12:07:47Z</time>
      </trkpt>
      <trkpt lat="44.35993" lon="5.1315">
        <ele>272.4</ele>
        <time>2021-02-24T12:07:48Z</time>
      </trkpt>
      <trkpt lat="44.35993" lon="5.13144">
        <ele>272.5</ele>
        <time>2021-02-24T12:07:49Z</time>
      </trkpt>
      <trkpt lat="44.35991" lon="5.13137">
        <ele>272.6</ele>
        <time>2021-02-24T12:07:50Z</time>
      </trkpt>
      <trkpt lat="44.3599" lon="5.1313">
        <ele>272.7</ele>
        <time>2021-02-24T12:07:51Z</time>
      </trkpt>
      <trkpt lat="44.35989" lon="5.13123">
        <ele>272.8</ele>
        <time>2021-02-24T12:07:52Z</time>
      </trkpt>
      <trkpt lat="44.35988" lon="5.13116">
        <ele>272.9</ele>
        <time>2021-02-24T12:07:53Z</time>
      </trkpt>
      <trkpt lat="44.35987" lon="5.13109">
        <ele>272.9</ele>
        <time>2021-02-24T12:07:54Z</time>
      </trkpt>
      <trkpt lat="44.35987" lon="5.13102">
        <ele>273</ele>
        <time>2021-02-24T12:07:55Z</time>
      </trkpt>
      <trkpt lat="44.35986" lon="5.13095">
        <ele>273</ele>
        <time>2021-02-24T12:07:56Z</time>
      </trkpt>
      <trkpt lat="44.35985" lon="5.13088">
        <ele>273</ele>
        <time>2021-02-24T12:07:57Z</time>
      </trkpt>
      <trkpt lat="44.35985" lon="5.13081">
        <ele>273</ele>
        <time>2021-02-24T12:07:58Z</time>
      </trkpt>
      <trkpt lat="44.35984" lon="5.13073">
        <ele>273.1</ele>
        <time>2021-02-24T12:07:59Z</time>
      </trkpt>
      <trkpt lat="44.35983" lon="5.13066">
        <ele>273.1</ele>
        <time>2021-02-24T12:08:00Z</time>
      </trkpt>
      <trkpt lat="44.35982" lon="5.13059">
        <ele>273.1</ele>
        <time>2021-02-24T12:08:01Z</time>
      </trkpt>
      <trkpt lat="44.35981" lon="5.13051">
        <ele>273.1</ele>
        <time>2021-02-24T12:08:02Z</time>
      </trkpt>
      <trkpt lat="44.3598" lon="5.13044">
        <ele>273.1</ele>
        <time>2021-02-24T12:08:03Z</time>
      </trkpt>
      <trkpt lat="44.35979" lon="5.13037">
        <ele>273.1</ele>
        <time>2021-02-24T12:08:04Z</time>
      </trkpt>
      <trkpt lat="44.35979" lon="5.1303">
        <ele>273.1</ele>
        <time>2021-02-24T12:08:05Z</time>
      </trkpt>
      <trkpt lat="44.35978" lon="5.13023">
        <ele>273.1</ele>
        <time>2021-02-24T12:08:06Z</time>
      </trkpt>
      <trkpt lat="44.35977" lon="5.13016">
        <ele>273.2</ele>
        <time>2021-02-24T12:08:07Z</time>
      </trkpt>
      <trkpt lat="44.35976" lon="5.13008">
        <ele>273.2</ele>
        <time>2021-02-24T12:08:08Z</time>
      </trkpt>
      <trkpt lat="44.35975" lon="5.13001">
        <ele>273.2</ele>
        <time>2021-02-24T12:08:09Z</time>
      </trkpt>
      <trkpt lat="44.35974" lon="5.12993">
        <ele>273.1</ele>
        <time>2021-02-24T12:08:10Z</time>
      </trkpt>
      <trkpt lat="44.35973" lon="5.12986">
        <ele>273.1</ele>
        <time>2021-02-24T12:08:11Z</time>
      </trkpt>
      <trkpt lat="44.35972" lon="5.12978">
        <ele>273.1</ele>
        <time>2021-02-24T12:08:12Z</time>
      </trkpt>
      <trkpt lat="44.35972" lon="5.12971">
        <ele>273.1</ele>
        <time>2021-02-24T12:08:13Z</time>
      </trkpt>
      <trkpt lat="44.35971" lon="5.12963">
        <ele>273.1</ele>
        <time>2021-02-24T12:08:14Z</time>
      </trkpt>
      <trkpt lat="44.3597" lon="5.12956">
        <ele>273.1</ele>
        <time>2021-02-24T12:08:15Z</time>
      </trkpt>
      <trkpt lat="44.35969" lon="5.12948">
        <ele>273.1</ele>
        <time>2021-02-24T12:08:16Z</time>
      </trkpt>
      <trkpt lat="44.35968" lon="5.12941">
        <ele>273.1</ele>
        <time>2021-02-24T12:08:17Z</time>
      </trkpt>
      <trkpt lat="44.35968" lon="5.12933">
        <ele>273.1</ele>
        <time>2021-02-24T12:08:18Z</time>
      </trkpt>
      <trkpt lat="44.35967" lon="5.12926">
        <ele>273.2</ele>
        <time>2021-02-24T12:08:19Z</time>
      </trkpt>
      <trkpt lat="44.35966" lon="5.12919">
        <ele>273.2</ele>
        <time>2021-02-24T12:08:20Z</time>
      </trkpt>
      <trkpt lat="44.35965" lon="5.12912">
        <ele>273.2</ele>
        <time>2021-02-24T12:08:21Z</time>
      </trkpt>
      <trkpt lat="44.35965" lon="5.12904">
        <ele>273.3</ele>
        <time>2021-02-24T12:08:22Z</time>
      </trkpt>
      <trkpt lat="44.35964" lon="5.12897">
        <ele>273.3</ele>
        <time>2021-02-24T12:08:23Z</time>
      </trkpt>
      <trkpt lat="44.35963" lon="5.1289">
        <ele>273.3</ele>
        <time>2021-02-24T12:08:24Z</time>
      </trkpt>
      <trkpt lat="44.35962" lon="5.12883">
        <ele>273.3</ele>
        <time>2021-02-24T12:08:25Z</time>
      </trkpt>
      <trkpt lat="44.35962" lon="5.12876">
        <ele>273.3</ele>
        <time>2021-02-24T12:08:26Z</time>
      </trkpt>
      <trkpt lat="44.35961" lon="5.12868">
        <ele>273.3</ele>
        <time>2021-02-24T12:08:27Z</time>
      </trkpt>
      <trkpt lat="44.3596" lon="5.12861">
        <ele>273.3</ele>
        <time>2021-02-24T12:08:28Z</time>
      </trkpt>
      <trkpt lat="44.35959" lon="5.12854">
        <ele>273.3</ele>
        <time>2021-02-24T12:08:29Z</time>
      </trkpt>
      <trkpt lat="44.35958" lon="5.12847">
        <ele>273.3</ele>
        <time>2021-02-24T12:08:30Z</time>
      </trkpt>
      <trkpt lat="44.35958" lon="5.1284">
        <ele>273.2</ele>
        <time>2021-02-24T12:08:31Z</time>
      </trkpt>
      <trkpt lat="44.35957" lon="5.12833">
        <ele>273.2</ele>
        <time>2021-02-24T12:08:32Z</time>
      </trkpt>
      <trkpt lat="44.35956" lon="5.12825">
        <ele>273.2</ele>
        <time>2021-02-24T12:08:33Z</time>
      </trkpt>
      <trkpt lat="44.35955" lon="5.12818">
        <ele>273.2</ele>
        <time>2021-02-24T12:08:34Z</time>
      </trkpt>
      <trkpt lat="44.35955" lon="5.12811">
        <ele>273.2</ele>
        <time>2021-02-24T12:08:35Z</time>
      </trkpt>
      <trkpt lat="44.35954" lon="5.12804">
        <ele>273.2</ele>
        <time>2021-02-24T12:08:36Z</time>
      </trkpt>
      <trkpt lat="44.35954" lon="5.12797">
        <ele>273.2</ele>
        <time>2021-02-24T12:08:37Z</time>
      </trkpt>
      <trkpt lat="44.35953" lon="5.1279">
        <ele>273.2</ele>
        <time>2021-02-24T12:08:38Z</time>
      </trkpt>
      <trkpt lat="44.35953" lon="5.12783">
        <ele>273.3</ele>
        <time>2021-02-24T12:08:39Z</time>
      </trkpt>
      <trkpt lat="44.35953" lon="5.12776">
        <ele>273.3</ele>
        <time>2021-02-24T12:08:40Z</time>
      </trkpt>
      <trkpt lat="44.35954" lon="5.12769">
        <ele>273.3</ele>
        <time>2021-02-24T12:08:41Z</time>
      </trkpt>
      <trkpt lat="44.35955" lon="5.12763">
        <ele>273.3</ele>
        <time>2021-02-24T12:08:42Z</time>
      </trkpt>
      <trkpt lat="44.35957" lon="5.12756">
        <ele>273.3</ele>
        <time>2021-02-24T12:08:43Z</time>
      </trkpt>
      <trkpt lat="44.35959" lon="5.1275">
        <ele>273.4</ele>
        <time>2021-02-24T12:08:44Z</time>
      </trkpt>
      <trkpt lat="44.35962" lon="5.12744">
        <ele>273.4</ele>
        <time>2021-02-24T12:08:45Z</time>
      </trkpt>
      <trkpt lat="44.35964" lon="5.12739">
        <ele>273.4</ele>
        <time>2021-02-24T12:08:46Z</time>
      </trkpt>
      <trkpt lat="44.35966" lon="5.12733">
        <ele>273.5</ele>
        <time>2021-02-24T12:08:47Z</time>
      </trkpt>
      <trkpt lat="44.35969" lon="5.12729">
        <ele>273.5</ele>
        <time>2021-02-24T12:08:48Z</time>
      </trkpt>
      <trkpt lat="44.35972" lon="5.12724">
        <ele>273.5</ele>
        <time>2021-02-24T12:08:49Z</time>
      </trkpt>
      <trkpt lat="44.35975" lon="5.12719">
        <ele>273.5</ele>
        <time>2021-02-24T12:08:50Z</time>
      </trkpt>
      <trkpt lat="44.35976" lon="5.12714">
        <ele>273.5</ele>
        <time>2021-02-24T12:08:51Z</time>
      </trkpt>
      <trkpt lat="44.35976" lon="5.12708">
        <ele>273.5</ele>
        <time>2021-02-24T12:08:52Z</time>
      </trkpt>
      <trkpt lat="44.35976" lon="5.12702">
        <ele>273.5</ele>
        <time>2021-02-24T12:08:53Z</time>
      </trkpt>
      <trkpt lat="44.35975" lon="5.12695">
        <ele>273.5</ele>
        <time>2021-02-24T12:08:54Z</time>
      </trkpt>
      <trkpt lat="44.35975" lon="5.12689">
        <ele>273.5</ele>
        <time>2021-02-24T12:08:55Z</time>
      </trkpt>
      <trkpt lat="44.35975" lon="5.12681">
        <ele>273.6</ele>
        <time>2021-02-24T12:08:56Z</time>
      </trkpt>
      <trkpt lat="44.35975" lon="5.12674">
        <ele>273.6</ele>
        <time>2021-02-24T12:08:57Z</time>
      </trkpt>
      <trkpt lat="44.35975" lon="5.12667">
        <ele>273.6</ele>
        <time>2021-02-24T12:08:58Z</time>
      </trkpt>
      <trkpt lat="44.35975" lon="5.1266">
        <ele>273.6</ele>
        <time>2021-02-24T12:08:59Z</time>
      </trkpt>
      <trkpt lat="44.35975" lon="5.12653">
        <ele>273.7</ele>
        <time>2021-02-24T12:09:00Z</time>
      </trkpt>
      <trkpt lat="44.35975" lon="5.12646">
        <ele>273.7</ele>
        <time>2021-02-24T12:09:01Z</time>
      </trkpt>
      <trkpt lat="44.35975" lon="5.12639">
        <ele>273.8</ele>
        <time>2021-02-24T12:09:02Z</time>
      </trkpt>
      <trkpt lat="44.35975" lon="5.12632">
        <ele>273.8</ele>
        <time>2021-02-24T12:09:03Z</time>
      </trkpt>
      <trkpt lat="44.35974" lon="5.12626">
        <ele>273.9</ele>
        <time>2021-02-24T12:09:04Z</time>
      </trkpt>
      <trkpt lat="44.35974" lon="5.12619">
        <ele>273.9</ele>
        <time>2021-02-24T12:09:05Z</time>
      </trkpt>
      <trkpt lat="44.35974" lon="5.12612">
        <ele>274</ele>
        <time>2021-02-24T12:09:06Z</time>
      </trkpt>
      <trkpt lat="44.35974" lon="5.12605">
        <ele>274.1</ele>
        <time>2021-02-24T12:09:07Z</time>
      </trkpt>
      <trkpt lat="44.35974" lon="5.12598">
        <ele>274.1</ele>
        <time>2021-02-24T12:09:08Z</time>
      </trkpt>
      <trkpt lat="44.35975" lon="5.12591">
        <ele>274.2</ele>
        <time>2021-02-24T12:09:09Z</time>
      </trkpt>
      <trkpt lat="44.35975" lon="5.12585">
        <ele>274.2</ele>
        <time>2021-02-24T12:09:10Z</time>
      </trkpt>
      <trkpt lat="44.35975" lon="5.12578">
        <ele>274.3</ele>
        <time>2021-02-24T12:09:11Z</time>
      </trkpt>
      <trkpt lat="44.35976" lon="5.12571">
        <ele>274.4</ele>
        <time>2021-02-24T12:09:12Z</time>
      </trkpt>
      <trkpt lat="44.35976" lon="5.12565">
        <ele>274.4</ele>
        <time>2021-02-24T12:09:13Z</time>
      </trkpt>
      <trkpt lat="44.35977" lon="5.12558">
        <ele>274.5</ele>
        <time>2021-02-24T12:09:14Z</time>
      </trkpt>
      <trkpt lat="44.35978" lon="5.12552">
        <ele>274.6</ele>
        <time>2021-02-24T12:09:15Z</time>
      </trkpt>
      <trkpt lat="44.35979" lon="5.12545">
        <ele>274.6</ele>
        <time>2021-02-24T12:09:16Z</time>
      </trkpt>
      <trkpt lat="44.35979" lon="5.12539">
        <ele>274.7</ele>
        <time>2021-02-24T12:09:17Z</time>
      </trkpt>
      <trkpt lat="44.3598" lon="5.12533">
        <ele>274.8</ele>
        <time>2021-02-24T12:09:18Z</time>
      </trkpt>
      <trkpt lat="44.35981" lon="5.12527">
        <ele>274.8</ele>
        <time>2021-02-24T12:09:19Z</time>
      </trkpt>
      <trkpt lat="44.35982" lon="5.12521">
        <ele>274.9</ele>
        <time>2021-02-24T12:09:20Z</time>
      </trkpt>
      <trkpt lat="44.35983" lon="5.12514">
        <ele>275</ele>
        <time>2021-02-24T12:09:21Z</time>
      </trkpt>
      <trkpt lat="44.35984" lon="5.12508">
        <ele>275</ele>
        <time>2021-02-24T12:09:22Z</time>
      </trkpt>
      <trkpt lat="44.35985" lon="5.12502">
        <ele>275.1</ele>
        <time>2021-02-24T12:09:23Z</time>
      </trkpt>
      <trkpt lat="44.35986" lon="5.12496">
        <ele>275.1</ele>
        <time>2021-02-24T12:09:24Z</time>
      </trkpt>
      <trkpt lat="44.35987" lon="5.1249">
        <ele>275.1</ele>
        <time>2021-02-24T12:09:25Z</time>
      </trkpt>
      <trkpt lat="44.35988" lon="5.12484">
        <ele>275.2</ele>
        <time>2021-02-24T12:09:26Z</time>
      </trkpt>
      <trkpt lat="44.3599" lon="5.12479">
        <ele>275.2</ele>
        <time>2021-02-24T12:09:27Z</time>
      </trkpt>
      <trkpt lat="44.35991" lon="5.12473">
        <ele>275.3</ele>
        <time>2021-02-24T12:09:28Z</time>
      </trkpt>
      <trkpt lat="44.35992" lon="5.12467">
        <ele>275.4</ele>
        <time>2021-02-24T12:09:29Z</time>
      </trkpt>
      <trkpt lat="44.35994" lon="5.12461">
        <ele>275.4</ele>
        <time>2021-02-24T12:09:30Z</time>
      </trkpt>
      <trkpt lat="44.35996" lon="5.12455">
        <ele>275.5</ele>
        <time>2021-02-24T12:09:31Z</time>
      </trkpt>
      <trkpt lat="44.35997" lon="5.12449">
        <ele>275.6</ele>
        <time>2021-02-24T12:09:32Z</time>
      </trkpt>
      <trkpt lat="44.35999" lon="5.12443">
        <ele>275.6</ele>
        <time>2021-02-24T12:09:33Z</time>
      </trkpt>
      <trkpt lat="44.36" lon="5.12437">
        <ele>275.7</ele>
        <time>2021-02-24T12:09:34Z</time>
      </trkpt>
      <trkpt lat="44.36002" lon="5.12431">
        <ele>275.8</ele>
        <time>2021-02-24T12:09:35Z</time>
      </trkpt>
      <trkpt lat="44.36004" lon="5.12425">
        <ele>275.9</ele>
        <time>2021-02-24T12:09:36Z</time>
      </trkpt>
      <trkpt lat="44.36004" lon="5.12425">
        <ele>275.9</ele>
        <time>2021-02-24T12:09:37Z</time>
      </trkpt>
      <trkpt lat="44.36008" lon="5.12414">
        <ele>276.1</ele>
        <time>2021-02-24T12:09:38Z</time>
      </trkpt>
      <trkpt lat="44.3601" lon="5.12408">
        <ele>276.2</ele>
        <time>2021-02-24T12:09:39Z</time>
      </trkpt>
      <trkpt lat="44.36012" lon="5.12403">
        <ele>276.3</ele>
        <time>2021-02-24T12:09:40Z</time>
      </trkpt>
      <trkpt lat="44.36014" lon="5.12397">
        <ele>276.4</ele>
        <time>2021-02-24T12:09:41Z</time>
      </trkpt>
      <trkpt lat="44.36016" lon="5.12391">
        <ele>276.5</ele>
        <time>2021-02-24T12:09:42Z</time>
      </trkpt>
      <trkpt lat="44.36018" lon="5.12385">
        <ele>276.6</ele>
        <time>2021-02-24T12:09:43Z</time>
      </trkpt>
      <trkpt lat="44.3602" lon="5.1238">
        <ele>276.7</ele>
        <time>2021-02-24T12:09:44Z</time>
      </trkpt>
      <trkpt lat="44.36023" lon="5.12374">
        <ele>276.8</ele>
        <time>2021-02-24T12:09:45Z</time>
      </trkpt>
      <trkpt lat="44.36025" lon="5.12368">
        <ele>276.9</ele>
        <time>2021-02-24T12:09:46Z</time>
      </trkpt>
      <trkpt lat="44.36027" lon="5.12362">
        <ele>277</ele>
        <time>2021-02-24T12:09:47Z</time>
      </trkpt>
      <trkpt lat="44.3603" lon="5.12357">
        <ele>277.1</ele>
        <time>2021-02-24T12:09:48Z</time>
      </trkpt>
      <trkpt lat="44.36032" lon="5.12352">
        <ele>277.3</ele>
        <time>2021-02-24T12:09:49Z</time>
      </trkpt>
      <trkpt lat="44.36035" lon="5.12347">
        <ele>277.4</ele>
        <time>2021-02-24T12:09:50Z</time>
      </trkpt>
      <trkpt lat="44.36038" lon="5.12342">
        <ele>277.5</ele>
        <time>2021-02-24T12:09:51Z</time>
      </trkpt>
      <trkpt lat="44.3604" lon="5.12336">
        <ele>277.7</ele>
        <time>2021-02-24T12:09:52Z</time>
      </trkpt>
      <trkpt lat="44.36043" lon="5.12331">
        <ele>277.8</ele>
        <time>2021-02-24T12:09:53Z</time>
      </trkpt>
      <trkpt lat="44.36045" lon="5.12326">
        <ele>277.9</ele>
        <time>2021-02-24T12:09:54Z</time>
      </trkpt>
      <trkpt lat="44.36048" lon="5.12321">
        <ele>278</ele>
        <time>2021-02-24T12:09:55Z</time>
      </trkpt>
      <trkpt lat="44.36051" lon="5.12316">
        <ele>278.2</ele>
        <time>2021-02-24T12:09:56Z</time>
      </trkpt>
      <trkpt lat="44.36054" lon="5.12311">
        <ele>278.3</ele>
        <time>2021-02-24T12:09:57Z</time>
      </trkpt>
      <trkpt lat="44.36057" lon="5.12306">
        <ele>278.4</ele>
        <time>2021-02-24T12:09:58Z</time>
      </trkpt>
      <trkpt lat="44.3606" lon="5.12301">
        <ele>278.5</ele>
        <time>2021-02-24T12:09:59Z</time>
      </trkpt>
      <trkpt lat="44.36064" lon="5.12297">
        <ele>278.7</ele>
        <time>2021-02-24T12:10:00Z</time>
      </trkpt>
      <trkpt lat="44.36067" lon="5.12292">
        <ele>278.8</ele>
        <time>2021-02-24T12:10:01Z</time>
      </trkpt>
      <trkpt lat="44.36069" lon="5.12288">
        <ele>278.9</ele>
        <time>2021-02-24T12:10:02Z</time>
      </trkpt>
      <trkpt lat="44.36072" lon="5.12283">
        <ele>279</ele>
        <time>2021-02-24T12:10:03Z</time>
      </trkpt>
      <trkpt lat="44.36075" lon="5.12279">
        <ele>279.2</ele>
        <time>2021-02-24T12:10:04Z</time>
      </trkpt>
      <trkpt lat="44.36079" lon="5.12275">
        <ele>279.3</ele>
        <time>2021-02-24T12:10:05Z</time>
      </trkpt>
      <trkpt lat="44.36082" lon="5.1227">
        <ele>279.4</ele>
        <time>2021-02-24T12:10:06Z</time>
      </trkpt>
      <trkpt lat="44.36084" lon="5.12265">
        <ele>279.6</ele>
        <time>2021-02-24T12:10:07Z</time>
      </trkpt>
      <trkpt lat="44.36087" lon="5.1226">
        <ele>279.7</ele>
        <time>2021-02-24T12:10:08Z</time>
      </trkpt>
      <trkpt lat="44.3609" lon="5.12256">
        <ele>279.8</ele>
        <time>2021-02-24T12:10:09Z</time>
      </trkpt>
      <trkpt lat="44.36093" lon="5.12252">
        <ele>280</ele>
        <time>2021-02-24T12:10:10Z</time>
      </trkpt>
      <trkpt lat="44.36096" lon="5.12247">
        <ele>280.1</ele>
        <time>2021-02-24T12:10:11Z</time>
      </trkpt>
      <trkpt lat="44.36099" lon="5.12243">
        <ele>280.2</ele>
        <time>2021-02-24T12:10:12Z</time>
      </trkpt>
      <trkpt lat="44.36102" lon="5.12239">
        <ele>280.3</ele>
        <time>2021-02-24T12:10:13Z</time>
      </trkpt>
      <trkpt lat="44.36105" lon="5.12235">
        <ele>280.4</ele>
        <time>2021-02-24T12:10:14Z</time>
      </trkpt>
      <trkpt lat="44.36108" lon="5.1223">
        <ele>280.5</ele>
        <time>2021-02-24T12:10:15Z</time>
      </trkpt>
      <trkpt lat="44.36111" lon="5.12226">
        <ele>280.6</ele>
        <time>2021-02-24T12:10:16Z</time>
      </trkpt>
      <trkpt lat="44.36114" lon="5.12223">
        <ele>280.8</ele>
        <time>2021-02-24T12:10:17Z</time>
      </trkpt>
      <trkpt lat="44.36117" lon="5.1222">
        <ele>280.9</ele>
        <time>2021-02-24T12:10:18Z</time>
      </trkpt>
      <trkpt lat="44.36121" lon="5.12219">
        <ele>281</ele>
        <time>2021-02-24T12:10:19Z</time>
      </trkpt>
      <trkpt lat="44.36125" lon="5.12218">
        <ele>281</ele>
        <time>2021-02-24T12:10:20Z</time>
      </trkpt>
      <trkpt lat="44.36128" lon="5.12216">
        <ele>281.6</ele>
        <time>2021-02-24T12:10:21Z</time>
      </trkpt>
      <trkpt lat="44.36131" lon="5.12212">
        <ele>281.6</ele>
        <time>2021-02-24T12:10:22Z</time>
      </trkpt>
      <trkpt lat="44.36134" lon="5.12208">
        <ele>281.7</ele>
        <time>2021-02-24T12:10:23Z</time>
      </trkpt>
      <trkpt lat="44.36137" lon="5.12204">
        <ele>281.8</ele>
        <time>2021-02-24T12:10:24Z</time>
      </trkpt>
      <trkpt lat="44.3614" lon="5.122">
        <ele>281.9</ele>
        <time>2021-02-24T12:10:25Z</time>
      </trkpt>
      <trkpt lat="44.36144" lon="5.12197">
        <ele>282</ele>
        <time>2021-02-24T12:10:26Z</time>
      </trkpt>
      <trkpt lat="44.36144" lon="5.12197">
        <ele>282</ele>
        <time>2021-02-24T12:10:27Z</time>
      </trkpt>
      <trkpt lat="44.36152" lon="5.1219">
        <ele>282.1</ele>
        <time>2021-02-24T12:10:28Z</time>
      </trkpt>
      <trkpt lat="44.36156" lon="5.12187">
        <ele>282.2</ele>
        <time>2021-02-24T12:10:29Z</time>
      </trkpt>
      <trkpt lat="44.3616" lon="5.12184">
        <ele>282.3</ele>
        <time>2021-02-24T12:10:30Z</time>
      </trkpt>
      <trkpt lat="44.36164" lon="5.12181">
        <ele>282.4</ele>
        <time>2021-02-24T12:10:31Z</time>
      </trkpt>
      <trkpt lat="44.36168" lon="5.12178">
        <ele>282.5</ele>
        <time>2021-02-24T12:10:32Z</time>
      </trkpt>
      <trkpt lat="44.36172" lon="5.12175">
        <ele>282.6</ele>
        <time>2021-02-24T12:10:33Z</time>
      </trkpt>
      <trkpt lat="44.36172" lon="5.12175">
        <ele>282.6</ele>
        <time>2021-02-24T12:10:34Z</time>
      </trkpt>
      <trkpt lat="44.36175" lon="5.12172">
        <ele>282.6</ele>
        <time>2021-02-24T12:10:35Z</time>
      </trkpt>
      <trkpt lat="44.36183" lon="5.12168">
        <ele>282.8</ele>
        <time>2021-02-24T12:10:36Z</time>
      </trkpt>
      <trkpt lat="44.36183" lon="5.12168">
        <ele>282.8</ele>
        <time>2021-02-24T12:10:37Z</time>
      </trkpt>
      <trkpt lat="44.36187" lon="5.12165">
        <ele>282.9</ele>
        <time>2021-02-24T12:10:38Z</time>
      </trkpt>
      <trkpt lat="44.3619" lon="5.12162">
        <ele>283</ele>
        <time>2021-02-24T12:10:39Z</time>
      </trkpt>
      <trkpt lat="44.36194" lon="5.1216">
        <ele>283.1</ele>
        <time>2021-02-24T12:10:40Z</time>
      </trkpt>
      <trkpt lat="44.36197" lon="5.12158">
        <ele>283.2</ele>
        <time>2021-02-24T12:10:41Z</time>
      </trkpt>
      <trkpt lat="44.36201" lon="5.12156">
        <ele>283.3</ele>
        <time>2021-02-24T12:10:42Z</time>
      </trkpt>
      <trkpt lat="44.36205" lon="5.12154">
        <ele>283.4</ele>
        <time>2021-02-24T12:10:43Z</time>
      </trkpt>
      <trkpt lat="44.36212" lon="5.12151">
        <ele>283.5</ele>
        <time>2021-02-24T12:10:44Z</time>
      </trkpt>
      <trkpt lat="44.36216" lon="5.12149">
        <ele>283.6</ele>
        <time>2021-02-24T12:10:45Z</time>
      </trkpt>
      <trkpt lat="44.36219" lon="5.12147">
        <ele>283.7</ele>
        <time>2021-02-24T12:10:46Z</time>
      </trkpt>
      <trkpt lat="44.36223" lon="5.12145">
        <ele>283.8</ele>
        <time>2021-02-24T12:10:47Z</time>
      </trkpt>
      <trkpt lat="44.36227" lon="5.12144">
        <ele>283.9</ele>
        <time>2021-02-24T12:10:48Z</time>
      </trkpt>
      <trkpt lat="44.36231" lon="5.12142">
        <ele>284</ele>
        <time>2021-02-24T12:10:49Z</time>
      </trkpt>
      <trkpt lat="44.36231" lon="5.12142">
        <ele>284</ele>
        <time>2021-02-24T12:10:50Z</time>
      </trkpt>
      <trkpt lat="44.36239" lon="5.12139">
        <ele>284.2</ele>
        <time>2021-02-24T12:10:51Z</time>
      </trkpt>
      <trkpt lat="44.36239" lon="5.12139">
        <ele>284.2</ele>
        <time>2021-02-24T12:10:52Z</time>
      </trkpt>
      <trkpt lat="44.36243" lon="5.12138">
        <ele>284.3</ele>
        <time>2021-02-24T12:10:53Z</time>
      </trkpt>
      <trkpt lat="44.36247" lon="5.12136">
        <ele>284.4</ele>
        <time>2021-02-24T12:10:54Z</time>
      </trkpt>
      <trkpt lat="44.36251" lon="5.12135">
        <ele>284.5</ele>
        <time>2021-02-24T12:10:55Z</time>
      </trkpt>
      <trkpt lat="44.36258" lon="5.12133">
        <ele>284.7</ele>
        <time>2021-02-24T12:10:56Z</time>
      </trkpt>
      <trkpt lat="44.36258" lon="5.12133">
        <ele>284.7</ele>
        <time>2021-02-24T12:10:57Z</time>
      </trkpt>
      <trkpt lat="44.36262" lon="5.12131">
        <ele>284.8</ele>
        <time>2021-02-24T12:10:58Z</time>
      </trkpt>
      <trkpt lat="44.36266" lon="5.1213">
        <ele>284.9</ele>
        <time>2021-02-24T12:10:59Z</time>
      </trkpt>
      <trkpt lat="44.36269" lon="5.12129">
        <ele>285</ele>
        <time>2021-02-24T12:11:00Z</time>
      </trkpt>
      <trkpt lat="44.36273" lon="5.12129">
        <ele>285.1</ele>
        <time>2021-02-24T12:11:01Z</time>
      </trkpt>
      <trkpt lat="44.36278" lon="5.12128">
        <ele>285.2</ele>
        <time>2021-02-24T12:11:02Z</time>
      </trkpt>
      <trkpt lat="44.36282" lon="5.12127">
        <ele>285.3</ele>
        <time>2021-02-24T12:11:03Z</time>
      </trkpt>
      <trkpt lat="44.36289" lon="5.12126">
        <ele>285.6</ele>
        <time>2021-02-24T12:11:04Z</time>
      </trkpt>
      <trkpt lat="44.36289" lon="5.12126">
        <ele>285.6</ele>
        <time>2021-02-24T12:11:05Z</time>
      </trkpt>
      <trkpt lat="44.36293" lon="5.12125">
        <ele>285.7</ele>
        <time>2021-02-24T12:11:06Z</time>
      </trkpt>
      <trkpt lat="44.36297" lon="5.12125">
        <ele>285.8</ele>
        <time>2021-02-24T12:11:07Z</time>
      </trkpt>
      <trkpt lat="44.36305" lon="5.12123">
        <ele>286.1</ele>
        <time>2021-02-24T12:11:08Z</time>
      </trkpt>
      <trkpt lat="44.36305" lon="5.12123">
        <ele>286.1</ele>
        <time>2021-02-24T12:11:09Z</time>
      </trkpt>
      <trkpt lat="44.36309" lon="5.12123">
        <ele>286.2</ele>
        <time>2021-02-24T12:11:10Z</time>
      </trkpt>
      <trkpt lat="44.36313" lon="5.12122">
        <ele>286.3</ele>
        <time>2021-02-24T12:11:11Z</time>
      </trkpt>
      <trkpt lat="44.36317" lon="5.12121">
        <ele>286.5</ele>
        <time>2021-02-24T12:11:12Z</time>
      </trkpt>
      <trkpt lat="44.36321" lon="5.12121">
        <ele>286.6</ele>
        <time>2021-02-24T12:11:13Z</time>
      </trkpt>
      <trkpt lat="44.36325" lon="5.1212">
        <ele>286.7</ele>
        <time>2021-02-24T12:11:14Z</time>
      </trkpt>
      <trkpt lat="44.36329" lon="5.12119">
        <ele>286.8</ele>
        <time>2021-02-24T12:11:15Z</time>
      </trkpt>
      <trkpt lat="44.36332" lon="5.12119">
        <ele>286.9</ele>
        <time>2021-02-24T12:11:16Z</time>
      </trkpt>
      <trkpt lat="44.36336" lon="5.12118">
        <ele>287</ele>
        <time>2021-02-24T12:11:17Z</time>
      </trkpt>
      <trkpt lat="44.3634" lon="5.12118">
        <ele>287.1</ele>
        <time>2021-02-24T12:11:18Z</time>
      </trkpt>
      <trkpt lat="44.36344" lon="5.12117">
        <ele>287.2</ele>
        <time>2021-02-24T12:11:19Z</time>
      </trkpt>
      <trkpt lat="44.36348" lon="5.12116">
        <ele>287.3</ele>
        <time>2021-02-24T12:11:20Z</time>
      </trkpt>
      <trkpt lat="44.36351" lon="5.12116">
        <ele>287.4</ele>
        <time>2021-02-24T12:11:21Z</time>
      </trkpt>
      <trkpt lat="44.36358" lon="5.12114">
        <ele>287.6</ele>
        <time>2021-02-24T12:11:22Z</time>
      </trkpt>
      <trkpt lat="44.36362" lon="5.12114">
        <ele>287.6</ele>
        <time>2021-02-24T12:11:23Z</time>
      </trkpt>
      <trkpt lat="44.36365" lon="5.12114">
        <ele>287.7</ele>
        <time>2021-02-24T12:11:24Z</time>
      </trkpt>
      <trkpt lat="44.36369" lon="5.12114">
        <ele>287.8</ele>
        <time>2021-02-24T12:11:25Z</time>
      </trkpt>
      <trkpt lat="44.36372" lon="5.12114">
        <ele>287.9</ele>
        <time>2021-02-24T12:11:26Z</time>
      </trkpt>
      <trkpt lat="44.36376" lon="5.12113">
        <ele>288</ele>
        <time>2021-02-24T12:11:27Z</time>
      </trkpt>
      <trkpt lat="44.36379" lon="5.12113">
        <ele>288.1</ele>
        <time>2021-02-24T12:11:28Z</time>
      </trkpt>
      <trkpt lat="44.36383" lon="5.12113">
        <ele>288.3</ele>
        <time>2021-02-24T12:11:29Z</time>
      </trkpt>
      <trkpt lat="44.36386" lon="5.12112">
        <ele>288.4</ele>
        <time>2021-02-24T12:11:30Z</time>
      </trkpt>
      <trkpt lat="44.3639" lon="5.12112">
        <ele>288.5</ele>
        <time>2021-02-24T12:11:31Z</time>
      </trkpt>
      <trkpt lat="44.36394" lon="5.12111">
        <ele>288.6</ele>
        <time>2021-02-24T12:11:32Z</time>
      </trkpt>
      <trkpt lat="44.36397" lon="5.12111">
        <ele>288.7</ele>
        <time>2021-02-24T12:11:33Z</time>
      </trkpt>
      <trkpt lat="44.36401" lon="5.1211">
        <ele>288.8</ele>
        <time>2021-02-24T12:11:34Z</time>
      </trkpt>
      <trkpt lat="44.36405" lon="5.1211">
        <ele>288.9</ele>
        <time>2021-02-24T12:11:35Z</time>
      </trkpt>
      <trkpt lat="44.36408" lon="5.12109">
        <ele>289</ele>
        <time>2021-02-24T12:11:36Z</time>
      </trkpt>
      <trkpt lat="44.36412" lon="5.12109">
        <ele>289.1</ele>
        <time>2021-02-24T12:11:37Z</time>
      </trkpt>
      <trkpt lat="44.36416" lon="5.12109">
        <ele>289.2</ele>
        <time>2021-02-24T12:11:38Z</time>
      </trkpt>
      <trkpt lat="44.3642" lon="5.12109">
        <ele>289.4</ele>
        <time>2021-02-24T12:11:39Z</time>
      </trkpt>
      <trkpt lat="44.36423" lon="5.12108">
        <ele>289.5</ele>
        <time>2021-02-24T12:11:40Z</time>
      </trkpt>
      <trkpt lat="44.36427" lon="5.12107">
        <ele>289.6</ele>
        <time>2021-02-24T12:11:41Z</time>
      </trkpt>
      <trkpt lat="44.36431" lon="5.12106">
        <ele>289.7</ele>
        <time>2021-02-24T12:11:42Z</time>
      </trkpt>
      <trkpt lat="44.36435" lon="5.12106">
        <ele>289.8</ele>
        <time>2021-02-24T12:11:43Z</time>
      </trkpt>
      <trkpt lat="44.36439" lon="5.12105">
        <ele>289.9</ele>
        <time>2021-02-24T12:11:44Z</time>
      </trkpt>
      <trkpt lat="44.36443" lon="5.12104">
        <ele>290</ele>
        <time>2021-02-24T12:11:45Z</time>
      </trkpt>
      <trkpt lat="44.36443" lon="5.12104">
        <ele>290</ele>
        <time>2021-02-24T12:11:46Z</time>
      </trkpt>
      <trkpt lat="44.36447" lon="5.12104">
        <ele>290.2</ele>
        <time>2021-02-24T12:11:47Z</time>
      </trkpt>
      <trkpt lat="44.36451" lon="5.12103">
        <ele>290.3</ele>
        <time>2021-02-24T12:11:48Z</time>
      </trkpt>
      <trkpt lat="44.36455" lon="5.12102">
        <ele>290.4</ele>
        <time>2021-02-24T12:11:49Z</time>
      </trkpt>
      <trkpt lat="44.36459" lon="5.12101">
        <ele>290.5</ele>
        <time>2021-02-24T12:11:50Z</time>
      </trkpt>
      <trkpt lat="44.36463" lon="5.121">
        <ele>290.6</ele>
        <time>2021-02-24T12:11:51Z</time>
      </trkpt>
      <trkpt lat="44.36466" lon="5.12099">
        <ele>290.7</ele>
        <time>2021-02-24T12:11:52Z</time>
      </trkpt>
      <trkpt lat="44.36475" lon="5.12097">
        <ele>290.9</ele>
        <time>2021-02-24T12:11:53Z</time>
      </trkpt>
      <trkpt lat="44.36475" lon="5.12097">
        <ele>290.9</ele>
        <time>2021-02-24T12:11:54Z</time>
      </trkpt>
      <trkpt lat="44.36479" lon="5.12096">
        <ele>291</ele>
        <time>2021-02-24T12:11:55Z</time>
      </trkpt>
      <trkpt lat="44.36483" lon="5.12094">
        <ele>291.2</ele>
        <time>2021-02-24T12:11:56Z</time>
      </trkpt>
      <trkpt lat="44.36487" lon="5.12093">
        <ele>291.3</ele>
        <time>2021-02-24T12:11:57Z</time>
      </trkpt>
      <trkpt lat="44.36494" lon="5.12091">
        <ele>291.5</ele>
        <time>2021-02-24T12:11:58Z</time>
      </trkpt>
      <trkpt lat="44.36497" lon="5.1209">
        <ele>291.6</ele>
        <time>2021-02-24T12:11:59Z</time>
      </trkpt>
      <trkpt lat="44.36501" lon="5.12089">
        <ele>291.7</ele>
        <time>2021-02-24T12:12:00Z</time>
      </trkpt>
      <trkpt lat="44.36504" lon="5.12087">
        <ele>291.8</ele>
        <time>2021-02-24T12:12:01Z</time>
      </trkpt>
      <trkpt lat="44.36504" lon="5.12087">
        <ele>291.8</ele>
        <time>2021-02-24T12:12:02Z</time>
      </trkpt>
      <trkpt lat="44.36508" lon="5.12085">
        <ele>291.9</ele>
        <time>2021-02-24T12:12:03Z</time>
      </trkpt>
      <trkpt lat="44.36512" lon="5.12083">
        <ele>292.1</ele>
        <time>2021-02-24T12:12:04Z</time>
      </trkpt>
      <trkpt lat="44.36516" lon="5.12081">
        <ele>292.2</ele>
        <time>2021-02-24T12:12:05Z</time>
      </trkpt>
      <trkpt lat="44.36519" lon="5.12079">
        <ele>292.3</ele>
        <time>2021-02-24T12:12:06Z</time>
      </trkpt>
      <trkpt lat="44.36523" lon="5.12077">
        <ele>292.4</ele>
        <time>2021-02-24T12:12:07Z</time>
      </trkpt>
      <trkpt lat="44.36526" lon="5.12075">
        <ele>292.5</ele>
        <time>2021-02-24T12:12:08Z</time>
      </trkpt>
      <trkpt lat="44.3653" lon="5.12074">
        <ele>292.6</ele>
        <time>2021-02-24T12:12:09Z</time>
      </trkpt>
      <trkpt lat="44.36533" lon="5.12072">
        <ele>292.7</ele>
        <time>2021-02-24T12:12:10Z</time>
      </trkpt>
      <trkpt lat="44.36537" lon="5.1207">
        <ele>292.8</ele>
        <time>2021-02-24T12:12:11Z</time>
      </trkpt>
      <trkpt lat="44.36543" lon="5.12066">
        <ele>293</ele>
        <time>2021-02-24T12:12:12Z</time>
      </trkpt>
      <trkpt lat="44.36547" lon="5.12064">
        <ele>293.1</ele>
        <time>2021-02-24T12:12:13Z</time>
      </trkpt>
      <trkpt lat="44.3655" lon="5.12062">
        <ele>293.2</ele>
        <time>2021-02-24T12:12:14Z</time>
      </trkpt>
      <trkpt lat="44.36553" lon="5.12059">
        <ele>293.3</ele>
        <time>2021-02-24T12:12:15Z</time>
      </trkpt>
      <trkpt lat="44.36557" lon="5.12056">
        <ele>293.4</ele>
        <time>2021-02-24T12:12:16Z</time>
      </trkpt>
      <trkpt lat="44.3656" lon="5.12054">
        <ele>293.5</ele>
        <time>2021-02-24T12:12:17Z</time>
      </trkpt>
      <trkpt lat="44.36564" lon="5.12051">
        <ele>293.6</ele>
        <time>2021-02-24T12:12:18Z</time>
      </trkpt>
      <trkpt lat="44.36567" lon="5.12048">
        <ele>293.8</ele>
        <time>2021-02-24T12:12:19Z</time>
      </trkpt>
      <trkpt lat="44.36571" lon="5.12045">
        <ele>293.9</ele>
        <time>2021-02-24T12:12:20Z</time>
      </trkpt>
      <trkpt lat="44.36571" lon="5.12045">
        <ele>293.9</ele>
        <time>2021-02-24T12:12:21Z</time>
      </trkpt>
      <trkpt lat="44.36574" lon="5.12042">
        <ele>294</ele>
        <time>2021-02-24T12:12:22Z</time>
      </trkpt>
      <trkpt lat="44.36577" lon="5.12039">
        <ele>294.1</ele>
        <time>2021-02-24T12:12:23Z</time>
      </trkpt>
      <trkpt lat="44.36581" lon="5.12036">
        <ele>294.2</ele>
        <time>2021-02-24T12:12:24Z</time>
      </trkpt>
      <trkpt lat="44.36584" lon="5.12033">
        <ele>294.3</ele>
        <time>2021-02-24T12:12:25Z</time>
      </trkpt>
      <trkpt lat="44.36588" lon="5.1203">
        <ele>294.4</ele>
        <time>2021-02-24T12:12:26Z</time>
      </trkpt>
      <trkpt lat="44.36591" lon="5.12026">
        <ele>294.6</ele>
        <time>2021-02-24T12:12:27Z</time>
      </trkpt>
      <trkpt lat="44.36594" lon="5.12023">
        <ele>294.7</ele>
        <time>2021-02-24T12:12:28Z</time>
      </trkpt>
      <trkpt lat="44.36598" lon="5.1202">
        <ele>294.8</ele>
        <time>2021-02-24T12:12:29Z</time>
      </trkpt>
      <trkpt lat="44.36601" lon="5.12017">
        <ele>294.9</ele>
        <time>2021-02-24T12:12:30Z</time>
      </trkpt>
      <trkpt lat="44.36604" lon="5.12013">
        <ele>295</ele>
        <time>2021-02-24T12:12:31Z</time>
      </trkpt>
      <trkpt lat="44.36607" lon="5.12009">
        <ele>295.2</ele>
        <time>2021-02-24T12:12:32Z</time>
      </trkpt>
      <trkpt lat="44.3661" lon="5.12006">
        <ele>295.3</ele>
        <time>2021-02-24T12:12:33Z</time>
      </trkpt>
      <trkpt lat="44.36613" lon="5.12002">
        <ele>295.4</ele>
        <time>2021-02-24T12:12:34Z</time>
      </trkpt>
      <trkpt lat="44.36617" lon="5.11998">
        <ele>295.5</ele>
        <time>2021-02-24T12:12:35Z</time>
      </trkpt>
      <trkpt lat="44.3662" lon="5.11995">
        <ele>295.6</ele>
        <time>2021-02-24T12:12:36Z</time>
      </trkpt>
      <trkpt lat="44.36623" lon="5.11991">
        <ele>295.7</ele>
        <time>2021-02-24T12:12:37Z</time>
      </trkpt>
      <trkpt lat="44.36625" lon="5.11987">
        <ele>295.9</ele>
        <time>2021-02-24T12:12:38Z</time>
      </trkpt>
      <trkpt lat="44.36631" lon="5.1198">
        <ele>296.1</ele>
        <time>2021-02-24T12:12:39Z</time>
      </trkpt>
      <trkpt lat="44.36631" lon="5.1198">
        <ele>296.1</ele>
        <time>2021-02-24T12:12:40Z</time>
      </trkpt>
      <trkpt lat="44.36634" lon="5.11976">
        <ele>296.2</ele>
        <time>2021-02-24T12:12:41Z</time>
      </trkpt>
      <trkpt lat="44.36637" lon="5.11972">
        <ele>296.3</ele>
        <time>2021-02-24T12:12:42Z</time>
      </trkpt>
      <trkpt lat="44.36642" lon="5.11964">
        <ele>296.5</ele>
        <time>2021-02-24T12:12:43Z</time>
      </trkpt>
      <trkpt lat="44.36642" lon="5.11964">
        <ele>296.5</ele>
        <time>2021-02-24T12:12:44Z</time>
      </trkpt>
      <trkpt lat="44.36645" lon="5.1196">
        <ele>296.6</ele>
        <time>2021-02-24T12:12:45Z</time>
      </trkpt>
      <trkpt lat="44.36647" lon="5.11955">
        <ele>296.7</ele>
        <time>2021-02-24T12:12:46Z</time>
      </trkpt>
      <trkpt lat="44.3665" lon="5.11951">
        <ele>296.8</ele>
        <time>2021-02-24T12:12:47Z</time>
      </trkpt>
      <trkpt lat="44.36653" lon="5.11947">
        <ele>296.8</ele>
        <time>2021-02-24T12:12:48Z</time>
      </trkpt>
      <trkpt lat="44.36658" lon="5.11938">
        <ele>296.9</ele>
        <time>2021-02-24T12:12:49Z</time>
      </trkpt>
      <trkpt lat="44.3666" lon="5.11933">
        <ele>297</ele>
        <time>2021-02-24T12:12:50Z</time>
      </trkpt>
      <trkpt lat="44.36662" lon="5.11929">
        <ele>297</ele>
        <time>2021-02-24T12:12:51Z</time>
      </trkpt>
      <trkpt lat="44.36665" lon="5.11925">
        <ele>297.1</ele>
        <time>2021-02-24T12:12:52Z</time>
      </trkpt>
      <trkpt lat="44.36667" lon="5.1192">
        <ele>297.2</ele>
        <time>2021-02-24T12:12:53Z</time>
      </trkpt>
      <trkpt lat="44.3667" lon="5.11916">
        <ele>297.3</ele>
        <time>2021-02-24T12:12:54Z</time>
      </trkpt>
      <trkpt lat="44.36672" lon="5.11911">
        <ele>297.4</ele>
        <time>2021-02-24T12:12:55Z</time>
      </trkpt>
      <trkpt lat="44.36674" lon="5.11907">
        <ele>297.5</ele>
        <time>2021-02-24T12:12:56Z</time>
      </trkpt>
      <trkpt lat="44.36676" lon="5.11902">
        <ele>297.6</ele>
        <time>2021-02-24T12:12:57Z</time>
      </trkpt>
      <trkpt lat="44.36678" lon="5.11898">
        <ele>297.7</ele>
        <time>2021-02-24T12:12:58Z</time>
      </trkpt>
      <trkpt lat="44.3668" lon="5.11893">
        <ele>297.8</ele>
        <time>2021-02-24T12:12:59Z</time>
      </trkpt>
      <trkpt lat="44.36682" lon="5.11888">
        <ele>297.9</ele>
        <time>2021-02-24T12:13:00Z</time>
      </trkpt>
      <trkpt lat="44.36684" lon="5.11884">
        <ele>298.1</ele>
        <time>2021-02-24T12:13:01Z</time>
      </trkpt>
      <trkpt lat="44.36686" lon="5.11879">
        <ele>298.2</ele>
        <time>2021-02-24T12:13:02Z</time>
      </trkpt>
      <trkpt lat="44.36688" lon="5.11874">
        <ele>298.3</ele>
        <time>2021-02-24T12:13:03Z</time>
      </trkpt>
      <trkpt lat="44.3669" lon="5.11869">
        <ele>298.4</ele>
        <time>2021-02-24T12:13:04Z</time>
      </trkpt>
      <trkpt lat="44.36691" lon="5.11864">
        <ele>298.5</ele>
        <time>2021-02-24T12:13:05Z</time>
      </trkpt>
      <trkpt lat="44.36693" lon="5.1186">
        <ele>298.6</ele>
        <time>2021-02-24T12:13:06Z</time>
      </trkpt>
      <trkpt lat="44.36695" lon="5.11855">
        <ele>298.6</ele>
        <time>2021-02-24T12:13:07Z</time>
      </trkpt>
      <trkpt lat="44.36696" lon="5.1185">
        <ele>298.7</ele>
        <time>2021-02-24T12:13:08Z</time>
      </trkpt>
      <trkpt lat="44.36698" lon="5.11845">
        <ele>298.8</ele>
        <time>2021-02-24T12:13:09Z</time>
      </trkpt>
      <trkpt lat="44.36699" lon="5.1184">
        <ele>298.9</ele>
        <time>2021-02-24T12:13:10Z</time>
      </trkpt>
      <trkpt lat="44.367" lon="5.11834">
        <ele>299</ele>
        <time>2021-02-24T12:13:11Z</time>
      </trkpt>
      <trkpt lat="44.36702" lon="5.11829">
        <ele>299.1</ele>
        <time>2021-02-24T12:13:12Z</time>
      </trkpt>
      <trkpt lat="44.36703" lon="5.11823">
        <ele>299.2</ele>
        <time>2021-02-24T12:13:13Z</time>
      </trkpt>
      <trkpt lat="44.36704" lon="5.11818">
        <ele>299.3</ele>
        <time>2021-02-24T12:13:14Z</time>
      </trkpt>
      <trkpt lat="44.36706" lon="5.11812">
        <ele>299.4</ele>
        <time>2021-02-24T12:13:15Z</time>
      </trkpt>
      <trkpt lat="44.36707" lon="5.11807">
        <ele>299.4</ele>
        <time>2021-02-24T12:13:16Z</time>
      </trkpt>
      <trkpt lat="44.36708" lon="5.11801">
        <ele>299.6</ele>
        <time>2021-02-24T12:13:17Z</time>
      </trkpt>
      <trkpt lat="44.36709" lon="5.11796">
        <ele>299.7</ele>
        <time>2021-02-24T12:13:18Z</time>
      </trkpt>
      <trkpt lat="44.3671" lon="5.11791">
        <ele>299.8</ele>
        <time>2021-02-24T12:13:19Z</time>
      </trkpt>
      <trkpt lat="44.36711" lon="5.11786">
        <ele>299.9</ele>
        <time>2021-02-24T12:13:20Z</time>
      </trkpt>
      <trkpt lat="44.36712" lon="5.1178">
        <ele>300</ele>
        <time>2021-02-24T12:13:21Z</time>
      </trkpt>
      <trkpt lat="44.36713" lon="5.11775">
        <ele>300.1</ele>
        <time>2021-02-24T12:13:22Z</time>
      </trkpt>
      <trkpt lat="44.36714" lon="5.11769">
        <ele>300.3</ele>
        <time>2021-02-24T12:13:23Z</time>
      </trkpt>
      <trkpt lat="44.36715" lon="5.11764">
        <ele>300.4</ele>
        <time>2021-02-24T12:13:24Z</time>
      </trkpt>
      <trkpt lat="44.36717" lon="5.11759">
        <ele>300.5</ele>
        <time>2021-02-24T12:13:25Z</time>
      </trkpt>
      <trkpt lat="44.36719" lon="5.11754">
        <ele>300.6</ele>
        <time>2021-02-24T12:13:26Z</time>
      </trkpt>
      <trkpt lat="44.3672" lon="5.11748">
        <ele>300.7</ele>
        <time>2021-02-24T12:13:27Z</time>
      </trkpt>
      <trkpt lat="44.36721" lon="5.11743">
        <ele>300.8</ele>
        <time>2021-02-24T12:13:28Z</time>
      </trkpt>
      <trkpt lat="44.36722" lon="5.11738">
        <ele>300.9</ele>
        <time>2021-02-24T12:13:29Z</time>
      </trkpt>
      <trkpt lat="44.36723" lon="5.11732">
        <ele>301</ele>
        <time>2021-02-24T12:13:30Z</time>
      </trkpt>
      <trkpt lat="44.36724" lon="5.11727">
        <ele>301.2</ele>
        <time>2021-02-24T12:13:31Z</time>
      </trkpt>
      <trkpt lat="44.36725" lon="5.11722">
        <ele>301.3</ele>
        <time>2021-02-24T12:13:32Z</time>
      </trkpt>
      <trkpt lat="44.36726" lon="5.11716">
        <ele>301.4</ele>
        <time>2021-02-24T12:13:33Z</time>
      </trkpt>
      <trkpt lat="44.36727" lon="5.11711">
        <ele>301.5</ele>
        <time>2021-02-24T12:13:34Z</time>
      </trkpt>
      <trkpt lat="44.36728" lon="5.11706">
        <ele>301.6</ele>
        <time>2021-02-24T12:13:35Z</time>
      </trkpt>
      <trkpt lat="44.36729" lon="5.11701">
        <ele>301.7</ele>
        <time>2021-02-24T12:13:36Z</time>
      </trkpt>
      <trkpt lat="44.36729" lon="5.11701">
        <ele>301.7</ele>
        <time>2021-02-24T12:13:37Z</time>
      </trkpt>
      <trkpt lat="44.36731" lon="5.11696">
        <ele>301.8</ele>
        <time>2021-02-24T12:13:38Z</time>
      </trkpt>
      <trkpt lat="44.36732" lon="5.1169">
        <ele>301.9</ele>
        <time>2021-02-24T12:13:39Z</time>
      </trkpt>
      <trkpt lat="44.36733" lon="5.11685">
        <ele>302</ele>
        <time>2021-02-24T12:13:40Z</time>
      </trkpt>
      <trkpt lat="44.36735" lon="5.1168">
        <ele>302.1</ele>
        <time>2021-02-24T12:13:41Z</time>
      </trkpt>
      <trkpt lat="44.36736" lon="5.11675">
        <ele>302.2</ele>
        <time>2021-02-24T12:13:42Z</time>
      </trkpt>
      <trkpt lat="44.36738" lon="5.11665">
        <ele>302.4</ele>
        <time>2021-02-24T12:13:43Z</time>
      </trkpt>
      <trkpt lat="44.36738" lon="5.11665">
        <ele>302.4</ele>
        <time>2021-02-24T12:13:44Z</time>
      </trkpt>
      <trkpt lat="44.3674" lon="5.1166">
        <ele>302.5</ele>
        <time>2021-02-24T12:13:45Z</time>
      </trkpt>
      <trkpt lat="44.36741" lon="5.11655">
        <ele>302.6</ele>
        <time>2021-02-24T12:13:46Z</time>
      </trkpt>
      <trkpt lat="44.36742" lon="5.11649">
        <ele>302.7</ele>
        <time>2021-02-24T12:13:47Z</time>
      </trkpt>
      <trkpt lat="44.36743" lon="5.11644">
        <ele>302.8</ele>
        <time>2021-02-24T12:13:48Z</time>
      </trkpt>
      <trkpt lat="44.36744" lon="5.11639">
        <ele>302.9</ele>
        <time>2021-02-24T12:13:49Z</time>
      </trkpt>
      <trkpt lat="44.36745" lon="5.11634">
        <ele>303</ele>
        <time>2021-02-24T12:13:50Z</time>
      </trkpt>
      <trkpt lat="44.36747" lon="5.11629">
        <ele>303.1</ele>
        <time>2021-02-24T12:13:51Z</time>
      </trkpt>
      <trkpt lat="44.36748" lon="5.11623">
        <ele>303.2</ele>
        <time>2021-02-24T12:13:52Z</time>
      </trkpt>
      <trkpt lat="44.36749" lon="5.11618">
        <ele>303.4</ele>
        <time>2021-02-24T12:13:53Z</time>
      </trkpt>
      <trkpt lat="44.3675" lon="5.11613">
        <ele>303.5</ele>
        <time>2021-02-24T12:13:54Z</time>
      </trkpt>
      <trkpt lat="44.36753" lon="5.11602">
        <ele>303.7</ele>
        <time>2021-02-24T12:13:55Z</time>
      </trkpt>
      <trkpt lat="44.36753" lon="5.11602">
        <ele>303.7</ele>
        <time>2021-02-24T12:13:56Z</time>
      </trkpt>
      <trkpt lat="44.36754" lon="5.11597">
        <ele>303.8</ele>
        <time>2021-02-24T12:13:57Z</time>
      </trkpt>
      <trkpt lat="44.36755" lon="5.11591">
        <ele>303.9</ele>
        <time>2021-02-24T12:13:58Z</time>
      </trkpt>
      <trkpt lat="44.36756" lon="5.11586">
        <ele>304</ele>
        <time>2021-02-24T12:13:59Z</time>
      </trkpt>
      <trkpt lat="44.36757" lon="5.11581">
        <ele>304.1</ele>
        <time>2021-02-24T12:14:00Z</time>
      </trkpt>
      <trkpt lat="44.36758" lon="5.11576">
        <ele>304.2</ele>
        <time>2021-02-24T12:14:01Z</time>
      </trkpt>
      <trkpt lat="44.3676" lon="5.11571">
        <ele>304.3</ele>
        <time>2021-02-24T12:14:02Z</time>
      </trkpt>
      <trkpt lat="44.36761" lon="5.11565">
        <ele>304.5</ele>
        <time>2021-02-24T12:14:03Z</time>
      </trkpt>
      <trkpt lat="44.36762" lon="5.1156">
        <ele>304.6</ele>
        <time>2021-02-24T12:14:04Z</time>
      </trkpt>
      <trkpt lat="44.36763" lon="5.11555">
        <ele>304.7</ele>
        <time>2021-02-24T12:14:05Z</time>
      </trkpt>
      <trkpt lat="44.36764" lon="5.1155">
        <ele>304.8</ele>
        <time>2021-02-24T12:14:06Z</time>
      </trkpt>
      <trkpt lat="44.36765" lon="5.11545">
        <ele>304.9</ele>
        <time>2021-02-24T12:14:07Z</time>
      </trkpt>
      <trkpt lat="44.36766" lon="5.11539">
        <ele>305</ele>
        <time>2021-02-24T12:14:08Z</time>
      </trkpt>
      <trkpt lat="44.36768" lon="5.11534">
        <ele>305.1</ele>
        <time>2021-02-24T12:14:09Z</time>
      </trkpt>
      <trkpt lat="44.36769" lon="5.11529">
        <ele>305.2</ele>
        <time>2021-02-24T12:14:10Z</time>
      </trkpt>
      <trkpt lat="44.3677" lon="5.11523">
        <ele>305.3</ele>
        <time>2021-02-24T12:14:11Z</time>
      </trkpt>
      <trkpt lat="44.36771" lon="5.11518">
        <ele>305.4</ele>
        <time>2021-02-24T12:14:12Z</time>
      </trkpt>
      <trkpt lat="44.36772" lon="5.11512">
        <ele>305.5</ele>
        <time>2021-02-24T12:14:13Z</time>
      </trkpt>
      <trkpt lat="44.36775" lon="5.11502">
        <ele>305.7</ele>
        <time>2021-02-24T12:14:14Z</time>
      </trkpt>
      <trkpt lat="44.36775" lon="5.11502">
        <ele>305.7</ele>
        <time>2021-02-24T12:14:15Z</time>
      </trkpt>
      <trkpt lat="44.36776" lon="5.11496">
        <ele>305.8</ele>
        <time>2021-02-24T12:14:16Z</time>
      </trkpt>
      <trkpt lat="44.36777" lon="5.11491">
        <ele>305.9</ele>
        <time>2021-02-24T12:14:17Z</time>
      </trkpt>
      <trkpt lat="44.36779" lon="5.11486">
        <ele>306</ele>
        <time>2021-02-24T12:14:18Z</time>
      </trkpt>
      <trkpt lat="44.3678" lon="5.1148">
        <ele>306.1</ele>
        <time>2021-02-24T12:14:19Z</time>
      </trkpt>
      <trkpt lat="44.36781" lon="5.11475">
        <ele>306.2</ele>
        <time>2021-02-24T12:14:20Z</time>
      </trkpt>
      <trkpt lat="44.36783" lon="5.1147">
        <ele>306.4</ele>
        <time>2021-02-24T12:14:21Z</time>
      </trkpt>
      <trkpt lat="44.36784" lon="5.11465">
        <ele>306.5</ele>
        <time>2021-02-24T12:14:22Z</time>
      </trkpt>
      <trkpt lat="44.36785" lon="5.11459">
        <ele>306.6</ele>
        <time>2021-02-24T12:14:23Z</time>
      </trkpt>
      <trkpt lat="44.36787" lon="5.11454">
        <ele>306.7</ele>
        <time>2021-02-24T12:14:24Z</time>
      </trkpt>
      <trkpt lat="44.36788" lon="5.11449">
        <ele>306.8</ele>
        <time>2021-02-24T12:14:25Z</time>
      </trkpt>
      <trkpt lat="44.36791" lon="5.11439">
        <ele>307</ele>
        <time>2021-02-24T12:14:26Z</time>
      </trkpt>
      <trkpt lat="44.36791" lon="5.11439">
        <ele>307</ele>
        <time>2021-02-24T12:14:27Z</time>
      </trkpt>
      <trkpt lat="44.36793" lon="5.11433">
        <ele>307.2</ele>
        <time>2021-02-24T12:14:28Z</time>
      </trkpt>
      <trkpt lat="44.36794" lon="5.11428">
        <ele>307.3</ele>
        <time>2021-02-24T12:14:29Z</time>
      </trkpt>
      <trkpt lat="44.36798" lon="5.11418">
        <ele>307.5</ele>
        <time>2021-02-24T12:14:30Z</time>
      </trkpt>
      <trkpt lat="44.368" lon="5.11413">
        <ele>307.7</ele>
        <time>2021-02-24T12:14:31Z</time>
      </trkpt>
      <trkpt lat="44.36801" lon="5.11409">
        <ele>307.8</ele>
        <time>2021-02-24T12:14:32Z</time>
      </trkpt>
      <trkpt lat="44.36803" lon="5.11404">
        <ele>307.9</ele>
        <time>2021-02-24T12:14:33Z</time>
      </trkpt>
      <trkpt lat="44.36805" lon="5.11398">
        <ele>308</ele>
        <time>2021-02-24T12:14:34Z</time>
      </trkpt>
      <trkpt lat="44.36807" lon="5.11393">
        <ele>308.1</ele>
        <time>2021-02-24T12:14:35Z</time>
      </trkpt>
      <trkpt lat="44.36809" lon="5.11388">
        <ele>308.2</ele>
        <time>2021-02-24T12:14:36Z</time>
      </trkpt>
      <trkpt lat="44.36811" lon="5.11383">
        <ele>308.3</ele>
        <time>2021-02-24T12:14:37Z</time>
      </trkpt>
      <trkpt lat="44.36813" lon="5.11378">
        <ele>308.4</ele>
        <time>2021-02-24T12:14:38Z</time>
      </trkpt>
      <trkpt lat="44.36815" lon="5.11373">
        <ele>308.5</ele>
        <time>2021-02-24T12:14:39Z</time>
      </trkpt>
      <trkpt lat="44.36817" lon="5.11368">
        <ele>308.6</ele>
        <time>2021-02-24T12:14:40Z</time>
      </trkpt>
      <trkpt lat="44.3682" lon="5.11363">
        <ele>308.7</ele>
        <time>2021-02-24T12:14:41Z</time>
      </trkpt>
      <trkpt lat="44.36822" lon="5.11359">
        <ele>308.8</ele>
        <time>2021-02-24T12:14:42Z</time>
      </trkpt>
      <trkpt lat="44.36824" lon="5.11354">
        <ele>309</ele>
        <time>2021-02-24T12:14:43Z</time>
      </trkpt>
      <trkpt lat="44.36826" lon="5.1135">
        <ele>309.1</ele>
        <time>2021-02-24T12:14:44Z</time>
      </trkpt>
      <trkpt lat="44.36829" lon="5.11346">
        <ele>309.2</ele>
        <time>2021-02-24T12:14:45Z</time>
      </trkpt>
      <trkpt lat="44.36831" lon="5.11342">
        <ele>309.3</ele>
        <time>2021-02-24T12:14:46Z</time>
      </trkpt>
      <trkpt lat="44.36833" lon="5.11338">
        <ele>309.4</ele>
        <time>2021-02-24T12:14:47Z</time>
      </trkpt>
      <trkpt lat="44.36835" lon="5.11334">
        <ele>309.5</ele>
        <time>2021-02-24T12:14:48Z</time>
      </trkpt>
      <trkpt lat="44.36837" lon="5.11331">
        <ele>309.6</ele>
        <time>2021-02-24T12:14:49Z</time>
      </trkpt>
      <trkpt lat="44.36839" lon="5.11327">
        <ele>309.7</ele>
        <time>2021-02-24T12:14:50Z</time>
      </trkpt>
      <trkpt lat="44.36841" lon="5.11324">
        <ele>309.8</ele>
        <time>2021-02-24T12:14:51Z</time>
      </trkpt>
      <trkpt lat="44.36844" lon="5.11319">
        <ele>309.9</ele>
        <time>2021-02-24T12:14:52Z</time>
      </trkpt>
      <trkpt lat="44.36846" lon="5.11315">
        <ele>310</ele>
        <time>2021-02-24T12:14:53Z</time>
      </trkpt>
      <trkpt lat="44.36849" lon="5.11311">
        <ele>310.1</ele>
        <time>2021-02-24T12:14:54Z</time>
      </trkpt>
      <trkpt lat="44.36851" lon="5.11307">
        <ele>310.2</ele>
        <time>2021-02-24T12:14:55Z</time>
      </trkpt>
      <trkpt lat="44.36851" lon="5.11307">
        <ele>310.2</ele>
        <time>2021-02-24T12:14:56Z</time>
      </trkpt>
      <trkpt lat="44.36854" lon="5.11303">
        <ele>310.4</ele>
        <time>2021-02-24T12:14:57Z</time>
      </trkpt>
      <trkpt lat="44.36856" lon="5.11298">
        <ele>310.5</ele>
        <time>2021-02-24T12:14:58Z</time>
      </trkpt>
      <trkpt lat="44.36862" lon="5.1129">
        <ele>310.7</ele>
        <time>2021-02-24T12:14:59Z</time>
      </trkpt>
      <trkpt lat="44.36865" lon="5.11287">
        <ele>310.8</ele>
        <time>2021-02-24T12:15:00Z</time>
      </trkpt>
      <trkpt lat="44.36865" lon="5.11287">
        <ele>310.8</ele>
        <time>2021-02-24T12:15:01Z</time>
      </trkpt>
      <trkpt lat="44.36871" lon="5.11279">
        <ele>311.1</ele>
        <time>2021-02-24T12:15:02Z</time>
      </trkpt>
      <trkpt lat="44.36874" lon="5.11275">
        <ele>311.2</ele>
        <time>2021-02-24T12:15:03Z</time>
      </trkpt>
      <trkpt lat="44.36877" lon="5.11271">
        <ele>311.3</ele>
        <time>2021-02-24T12:15:04Z</time>
      </trkpt>
      <trkpt lat="44.3688" lon="5.11268">
        <ele>311.4</ele>
        <time>2021-02-24T12:15:05Z</time>
      </trkpt>
      <trkpt lat="44.36883" lon="5.11264">
        <ele>311.5</ele>
        <time>2021-02-24T12:15:06Z</time>
      </trkpt>
      <trkpt lat="44.36885" lon="5.1126">
        <ele>311.7</ele>
        <time>2021-02-24T12:15:07Z</time>
      </trkpt>
      <trkpt lat="44.36888" lon="5.11256">
        <ele>311.8</ele>
        <time>2021-02-24T12:15:08Z</time>
      </trkpt>
      <trkpt lat="44.36891" lon="5.11252">
        <ele>311.9</ele>
        <time>2021-02-24T12:15:09Z</time>
      </trkpt>
      <trkpt lat="44.36894" lon="5.11248">
        <ele>312</ele>
        <time>2021-02-24T12:15:10Z</time>
      </trkpt>
      <trkpt lat="44.36897" lon="5.11245">
        <ele>312.1</ele>
        <time>2021-02-24T12:15:11Z</time>
      </trkpt>
      <trkpt lat="44.36899" lon="5.11241">
        <ele>312.3</ele>
        <time>2021-02-24T12:15:12Z</time>
      </trkpt>
      <trkpt lat="44.36902" lon="5.11238">
        <ele>312.4</ele>
        <time>2021-02-24T12:15:13Z</time>
      </trkpt>
      <trkpt lat="44.36905" lon="5.11234">
        <ele>312.5</ele>
        <time>2021-02-24T12:15:14Z</time>
      </trkpt>
      <trkpt lat="44.36908" lon="5.1123">
        <ele>312.6</ele>
        <time>2021-02-24T12:15:15Z</time>
      </trkpt>
      <trkpt lat="44.36911" lon="5.11227">
        <ele>312.7</ele>
        <time>2021-02-24T12:15:16Z</time>
      </trkpt>
      <trkpt lat="44.36914" lon="5.11223">
        <ele>312.8</ele>
        <time>2021-02-24T12:15:17Z</time>
      </trkpt>
      <trkpt lat="44.36914" lon="5.11223">
        <ele>312.8</ele>
        <time>2021-02-24T12:15:18Z</time>
      </trkpt>
      <trkpt lat="44.36921" lon="5.11215">
        <ele>313.1</ele>
        <time>2021-02-24T12:15:19Z</time>
      </trkpt>
      <trkpt lat="44.36924" lon="5.11211">
        <ele>313.2</ele>
        <time>2021-02-24T12:15:20Z</time>
      </trkpt>
      <trkpt lat="44.36927" lon="5.11207">
        <ele>313.3</ele>
        <time>2021-02-24T12:15:21Z</time>
      </trkpt>
      <trkpt lat="44.3693" lon="5.11203">
        <ele>313.4</ele>
        <time>2021-02-24T12:15:22Z</time>
      </trkpt>
      <trkpt lat="44.3693" lon="5.11203">
        <ele>313.4</ele>
        <time>2021-02-24T12:15:23Z</time>
      </trkpt>
      <trkpt lat="44.36936" lon="5.11196">
        <ele>313.7</ele>
        <time>2021-02-24T12:15:24Z</time>
      </trkpt>
      <trkpt lat="44.36939" lon="5.11192">
        <ele>313.8</ele>
        <time>2021-02-24T12:15:25Z</time>
      </trkpt>
      <trkpt lat="44.36942" lon="5.11188">
        <ele>313.9</ele>
        <time>2021-02-24T12:15:26Z</time>
      </trkpt>
      <trkpt lat="44.36945" lon="5.11184">
        <ele>314.1</ele>
        <time>2021-02-24T12:15:27Z</time>
      </trkpt>
      <trkpt lat="44.36948" lon="5.1118">
        <ele>314.2</ele>
        <time>2021-02-24T12:15:28Z</time>
      </trkpt>
      <trkpt lat="44.36951" lon="5.11177">
        <ele>314.3</ele>
        <time>2021-02-24T12:15:29Z</time>
      </trkpt>
      <trkpt lat="44.36953" lon="5.11174">
        <ele>314.4</ele>
        <time>2021-02-24T12:15:30Z</time>
      </trkpt>
      <trkpt lat="44.36953" lon="5.11174">
        <ele>314.4</ele>
        <time>2021-02-24T12:15:31Z</time>
      </trkpt>
      <trkpt lat="44.36959" lon="5.11167">
        <ele>314.6</ele>
        <time>2021-02-24T12:15:32Z</time>
      </trkpt>
      <trkpt lat="44.36961" lon="5.11164">
        <ele>314.7</ele>
        <time>2021-02-24T12:15:33Z</time>
      </trkpt>
      <trkpt lat="44.36964" lon="5.1116">
        <ele>314.8</ele>
        <time>2021-02-24T12:15:34Z</time>
      </trkpt>
      <trkpt lat="44.36967" lon="5.11156">
        <ele>314.9</ele>
        <time>2021-02-24T12:15:35Z</time>
      </trkpt>
      <trkpt lat="44.3697" lon="5.11153">
        <ele>315.1</ele>
        <time>2021-02-24T12:15:36Z</time>
      </trkpt>
      <trkpt lat="44.36974" lon="5.11149">
        <ele>315.2</ele>
        <time>2021-02-24T12:15:37Z</time>
      </trkpt>
      <trkpt lat="44.36977" lon="5.11145">
        <ele>315.3</ele>
        <time>2021-02-24T12:15:38Z</time>
      </trkpt>
      <trkpt lat="44.3698" lon="5.11142">
        <ele>315.4</ele>
        <time>2021-02-24T12:15:39Z</time>
      </trkpt>
      <trkpt lat="44.36983" lon="5.11138">
        <ele>315.5</ele>
        <time>2021-02-24T12:15:40Z</time>
      </trkpt>
      <trkpt lat="44.36986" lon="5.11134">
        <ele>315.6</ele>
        <time>2021-02-24T12:15:41Z</time>
      </trkpt>
      <trkpt lat="44.36989" lon="5.11131">
        <ele>315.7</ele>
        <time>2021-02-24T12:15:42Z</time>
      </trkpt>
      <trkpt lat="44.36992" lon="5.11127">
        <ele>315.8</ele>
        <time>2021-02-24T12:15:43Z</time>
      </trkpt>
      <trkpt lat="44.36996" lon="5.11123">
        <ele>315.9</ele>
        <time>2021-02-24T12:15:44Z</time>
      </trkpt>
      <trkpt lat="44.36999" lon="5.1112">
        <ele>316</ele>
        <time>2021-02-24T12:15:45Z</time>
      </trkpt>
      <trkpt lat="44.37002" lon="5.11116">
        <ele>316.2</ele>
        <time>2021-02-24T12:15:46Z</time>
      </trkpt>
      <trkpt lat="44.37005" lon="5.11112">
        <ele>316.3</ele>
        <time>2021-02-24T12:15:47Z</time>
      </trkpt>
      <trkpt lat="44.37008" lon="5.11108">
        <ele>316.4</ele>
        <time>2021-02-24T12:15:48Z</time>
      </trkpt>
      <trkpt lat="44.37012" lon="5.11104">
        <ele>316.6</ele>
        <time>2021-02-24T12:15:49Z</time>
      </trkpt>
      <trkpt lat="44.37015" lon="5.111">
        <ele>316.7</ele>
        <time>2021-02-24T12:15:50Z</time>
      </trkpt>
      <trkpt lat="44.37018" lon="5.11097">
        <ele>316.9</ele>
        <time>2021-02-24T12:15:51Z</time>
      </trkpt>
      <trkpt lat="44.37021" lon="5.11093">
        <ele>317</ele>
        <time>2021-02-24T12:15:52Z</time>
      </trkpt>
      <trkpt lat="44.37024" lon="5.11089">
        <ele>317.1</ele>
        <time>2021-02-24T12:15:53Z</time>
      </trkpt>
      <trkpt lat="44.37027" lon="5.11084">
        <ele>317.2</ele>
        <time>2021-02-24T12:15:54Z</time>
      </trkpt>
      <trkpt lat="44.3703" lon="5.1108">
        <ele>317.3</ele>
        <time>2021-02-24T12:15:55Z</time>
      </trkpt>
      <trkpt lat="44.37033" lon="5.11076">
        <ele>317.4</ele>
        <time>2021-02-24T12:15:56Z</time>
      </trkpt>
      <trkpt lat="44.37036" lon="5.11072">
        <ele>317.6</ele>
        <time>2021-02-24T12:15:57Z</time>
      </trkpt>
      <trkpt lat="44.37039" lon="5.11069">
        <ele>317.7</ele>
        <time>2021-02-24T12:15:58Z</time>
      </trkpt>
      <trkpt lat="44.37042" lon="5.11066">
        <ele>317.8</ele>
        <time>2021-02-24T12:15:59Z</time>
      </trkpt>
      <trkpt lat="44.37045" lon="5.11062">
        <ele>317.9</ele>
        <time>2021-02-24T12:16:00Z</time>
      </trkpt>
      <trkpt lat="44.37048" lon="5.11059">
        <ele>318</ele>
        <time>2021-02-24T12:16:01Z</time>
      </trkpt>
      <trkpt lat="44.37051" lon="5.11056">
        <ele>318.1</ele>
        <time>2021-02-24T12:16:02Z</time>
      </trkpt>
      <trkpt lat="44.37054" lon="5.11052">
        <ele>318.2</ele>
        <time>2021-02-24T12:16:03Z</time>
      </trkpt>
      <trkpt lat="44.37057" lon="5.11048">
        <ele>318.3</ele>
        <time>2021-02-24T12:16:04Z</time>
      </trkpt>
      <trkpt lat="44.3706" lon="5.11044">
        <ele>318.4</ele>
        <time>2021-02-24T12:16:05Z</time>
      </trkpt>
      <trkpt lat="44.37063" lon="5.1104">
        <ele>318.5</ele>
        <time>2021-02-24T12:16:06Z</time>
      </trkpt>
      <trkpt lat="44.37066" lon="5.11036">
        <ele>318.6</ele>
        <time>2021-02-24T12:16:07Z</time>
      </trkpt>
      <trkpt lat="44.37069" lon="5.11032">
        <ele>318.8</ele>
        <time>2021-02-24T12:16:08Z</time>
      </trkpt>
      <trkpt lat="44.37072" lon="5.11028">
        <ele>318.9</ele>
        <time>2021-02-24T12:16:09Z</time>
      </trkpt>
      <trkpt lat="44.37075" lon="5.11023">
        <ele>319</ele>
        <time>2021-02-24T12:16:10Z</time>
      </trkpt>
      <trkpt lat="44.37078" lon="5.11019">
        <ele>319.1</ele>
        <time>2021-02-24T12:16:11Z</time>
      </trkpt>
      <trkpt lat="44.3708" lon="5.11015">
        <ele>319.2</ele>
        <time>2021-02-24T12:16:12Z</time>
      </trkpt>
      <trkpt lat="44.37083" lon="5.11011">
        <ele>319.4</ele>
        <time>2021-02-24T12:16:13Z</time>
      </trkpt>
      <trkpt lat="44.37086" lon="5.11006">
        <ele>319.5</ele>
        <time>2021-02-24T12:16:14Z</time>
      </trkpt>
      <trkpt lat="44.37088" lon="5.11002">
        <ele>319.6</ele>
        <time>2021-02-24T12:16:15Z</time>
      </trkpt>
      <trkpt lat="44.37091" lon="5.10997">
        <ele>319.7</ele>
        <time>2021-02-24T12:16:16Z</time>
      </trkpt>
      <trkpt lat="44.37093" lon="5.10992">
        <ele>319.8</ele>
        <time>2021-02-24T12:16:17Z</time>
      </trkpt>
      <trkpt lat="44.37096" lon="5.10988">
        <ele>320</ele>
        <time>2021-02-24T12:16:18Z</time>
      </trkpt>
      <trkpt lat="44.37098" lon="5.10983">
        <ele>320.1</ele>
        <time>2021-02-24T12:16:19Z</time>
      </trkpt>
      <trkpt lat="44.37101" lon="5.10978">
        <ele>320.2</ele>
        <time>2021-02-24T12:16:20Z</time>
      </trkpt>
      <trkpt lat="44.37103" lon="5.10973">
        <ele>320.3</ele>
        <time>2021-02-24T12:16:21Z</time>
      </trkpt>
      <trkpt lat="44.37106" lon="5.10969">
        <ele>320.5</ele>
        <time>2021-02-24T12:16:22Z</time>
      </trkpt>
      <trkpt lat="44.37109" lon="5.10964">
        <ele>320.6</ele>
        <time>2021-02-24T12:16:23Z</time>
      </trkpt>
      <trkpt lat="44.37111" lon="5.1096">
        <ele>320.7</ele>
        <time>2021-02-24T12:16:24Z</time>
      </trkpt>
      <trkpt lat="44.37113" lon="5.10955">
        <ele>320.8</ele>
        <time>2021-02-24T12:16:25Z</time>
      </trkpt>
      <trkpt lat="44.37115" lon="5.10951">
        <ele>320.9</ele>
        <time>2021-02-24T12:16:26Z</time>
      </trkpt>
      <trkpt lat="44.37117" lon="5.10947">
        <ele>321</ele>
        <time>2021-02-24T12:16:27Z</time>
      </trkpt>
      <trkpt lat="44.37117" lon="5.10947">
        <ele>321</ele>
        <time>2021-02-24T12:16:28Z</time>
      </trkpt>
      <trkpt lat="44.3712" lon="5.10942">
        <ele>321.1</ele>
        <time>2021-02-24T12:16:29Z</time>
      </trkpt>
      <trkpt lat="44.37122" lon="5.10938">
        <ele>321.3</ele>
        <time>2021-02-24T12:16:30Z</time>
      </trkpt>
      <trkpt lat="44.37124" lon="5.10934">
        <ele>321.4</ele>
        <time>2021-02-24T12:16:31Z</time>
      </trkpt>
      <trkpt lat="44.37127" lon="5.1093">
        <ele>321.5</ele>
        <time>2021-02-24T12:16:32Z</time>
      </trkpt>
      <trkpt lat="44.37129" lon="5.10926">
        <ele>321.6</ele>
        <time>2021-02-24T12:16:33Z</time>
      </trkpt>
      <trkpt lat="44.37132" lon="5.10922">
        <ele>321.8</ele>
        <time>2021-02-24T12:16:34Z</time>
      </trkpt>
      <trkpt lat="44.37135" lon="5.10918">
        <ele>321.9</ele>
        <time>2021-02-24T12:16:35Z</time>
      </trkpt>
      <trkpt lat="44.3714" lon="5.1091">
        <ele>322.1</ele>
        <time>2021-02-24T12:16:36Z</time>
      </trkpt>
      <trkpt lat="44.37141" lon="5.10906">
        <ele>322.2</ele>
        <time>2021-02-24T12:16:37Z</time>
      </trkpt>
      <trkpt lat="44.37141" lon="5.10906">
        <ele>322.2</ele>
        <time>2021-02-24T12:16:38Z</time>
      </trkpt>
      <trkpt lat="44.37144" lon="5.109">
        <ele>322.4</ele>
        <time>2021-02-24T12:16:39Z</time>
      </trkpt>
      <trkpt lat="44.37147" lon="5.10895">
        <ele>322.5</ele>
        <time>2021-02-24T12:16:40Z</time>
      </trkpt>
      <trkpt lat="44.37151" lon="5.10889">
        <ele>322.7</ele>
        <time>2021-02-24T12:16:41Z</time>
      </trkpt>
      <trkpt lat="44.37152" lon="5.10885">
        <ele>322.8</ele>
        <time>2021-02-24T12:16:42Z</time>
      </trkpt>
      <trkpt lat="44.37155" lon="5.1088">
        <ele>322.9</ele>
        <time>2021-02-24T12:16:43Z</time>
      </trkpt>
      <trkpt lat="44.37157" lon="5.10876">
        <ele>323</ele>
        <time>2021-02-24T12:16:44Z</time>
      </trkpt>
      <trkpt lat="44.37159" lon="5.10872">
        <ele>323.1</ele>
        <time>2021-02-24T12:16:45Z</time>
      </trkpt>
      <trkpt lat="44.37162" lon="5.10868">
        <ele>323.3</ele>
        <time>2021-02-24T12:16:46Z</time>
      </trkpt>
      <trkpt lat="44.37162" lon="5.10868">
        <ele>323.3</ele>
        <time>2021-02-24T12:16:47Z</time>
      </trkpt>
      <trkpt lat="44.37164" lon="5.10864">
        <ele>323.4</ele>
        <time>2021-02-24T12:16:48Z</time>
      </trkpt>
      <trkpt lat="44.37167" lon="5.1086">
        <ele>323.5</ele>
        <time>2021-02-24T12:16:49Z</time>
      </trkpt>
      <trkpt lat="44.3717" lon="5.10856">
        <ele>323.6</ele>
        <time>2021-02-24T12:16:50Z</time>
      </trkpt>
      <trkpt lat="44.37173" lon="5.10853">
        <ele>323.7</ele>
        <time>2021-02-24T12:16:51Z</time>
      </trkpt>
      <trkpt lat="44.37179" lon="5.10849">
        <ele>324</ele>
        <time>2021-02-24T12:16:52Z</time>
      </trkpt>
      <trkpt lat="44.37179" lon="5.10849">
        <ele>324</ele>
        <time>2021-02-24T12:16:53Z</time>
      </trkpt>
      <trkpt lat="44.37182" lon="5.10847">
        <ele>324</ele>
        <time>2021-02-24T12:16:54Z</time>
      </trkpt>
      <trkpt lat="44.37185" lon="5.10845">
        <ele>323.9</ele>
        <time>2021-02-24T12:16:55Z</time>
      </trkpt>
      <trkpt lat="44.37188" lon="5.10844">
        <ele>323.8</ele>
        <time>2021-02-24T12:16:56Z</time>
      </trkpt>
      <trkpt lat="44.37192" lon="5.10842">
        <ele>323.6</ele>
        <time>2021-02-24T12:16:57Z</time>
      </trkpt>
      <trkpt lat="44.37196" lon="5.10839">
        <ele>323.4</ele>
        <time>2021-02-24T12:16:58Z</time>
      </trkpt>
      <trkpt lat="44.37201" lon="5.10835">
        <ele>323.1</ele>
        <time>2021-02-24T12:16:59Z</time>
      </trkpt>
      <trkpt lat="44.37205" lon="5.1083">
        <ele>322.8</ele>
        <time>2021-02-24T12:17:00Z</time>
      </trkpt>
      <trkpt lat="44.3721" lon="5.10824">
        <ele>322.4</ele>
        <time>2021-02-24T12:17:01Z</time>
      </trkpt>
      <trkpt lat="44.37214" lon="5.10818">
        <ele>322.1</ele>
        <time>2021-02-24T12:17:02Z</time>
      </trkpt>
      <trkpt lat="44.3722" lon="5.10813">
        <ele>321.8</ele>
        <time>2021-02-24T12:17:03Z</time>
      </trkpt>
      <trkpt lat="44.37235" lon="5.10812">
        <ele>321.2</ele>
        <time>2021-02-24T12:17:04Z</time>
      </trkpt>
      <trkpt lat="44.37242" lon="5.10817">
        <ele>321</ele>
        <time>2021-02-24T12:17:05Z</time>
      </trkpt>
      <trkpt lat="44.37242" lon="5.10817">
        <ele>321</ele>
        <time>2021-02-24T12:17:06Z</time>
      </trkpt>
      <trkpt lat="44.37249" lon="5.10823">
        <ele>320.8</ele>
        <time>2021-02-24T12:17:07Z</time>
      </trkpt>
      <trkpt lat="44.3726" lon="5.10837">
        <ele>320.5</ele>
        <time>2021-02-24T12:17:08Z</time>
      </trkpt>
      <trkpt lat="44.37265" lon="5.10844">
        <ele>320.5</ele>
        <time>2021-02-24T12:17:09Z</time>
      </trkpt>
      <trkpt lat="44.3727" lon="5.1085">
        <ele>320.4</ele>
        <time>2021-02-24T12:17:10Z</time>
      </trkpt>
      <trkpt lat="44.37275" lon="5.10856">
        <ele>320.4</ele>
        <time>2021-02-24T12:17:11Z</time>
      </trkpt>
      <trkpt lat="44.3728" lon="5.10862">
        <ele>320.4</ele>
        <time>2021-02-24T12:17:12Z</time>
      </trkpt>
      <trkpt lat="44.37284" lon="5.10868">
        <ele>320.4</ele>
        <time>2021-02-24T12:17:13Z</time>
      </trkpt>
      <trkpt lat="44.37288" lon="5.10874">
        <ele>320.4</ele>
        <time>2021-02-24T12:17:14Z</time>
      </trkpt>
      <trkpt lat="44.37292" lon="5.1088">
        <ele>320.4</ele>
        <time>2021-02-24T12:17:15Z</time>
      </trkpt>
      <trkpt lat="44.37292" lon="5.1088">
        <ele>320.4</ele>
        <time>2021-02-24T12:17:16Z</time>
      </trkpt>
      <trkpt lat="44.37295" lon="5.10886">
        <ele>320.4</ele>
        <time>2021-02-24T12:17:17Z</time>
      </trkpt>
      <trkpt lat="44.37299" lon="5.10891">
        <ele>320.4</ele>
        <time>2021-02-24T12:17:18Z</time>
      </trkpt>
      <trkpt lat="44.37303" lon="5.10896">
        <ele>320.4</ele>
        <time>2021-02-24T12:17:19Z</time>
      </trkpt>
      <trkpt lat="44.37306" lon="5.10901">
        <ele>320.5</ele>
        <time>2021-02-24T12:17:20Z</time>
      </trkpt>
      <trkpt lat="44.3731" lon="5.10906">
        <ele>320.5</ele>
        <time>2021-02-24T12:17:21Z</time>
      </trkpt>
      <trkpt lat="44.37313" lon="5.10911">
        <ele>320.5</ele>
        <time>2021-02-24T12:17:22Z</time>
      </trkpt>
      <trkpt lat="44.37316" lon="5.10916">
        <ele>320.6</ele>
        <time>2021-02-24T12:17:23Z</time>
      </trkpt>
      <trkpt lat="44.37323" lon="5.10926">
        <ele>320.7</ele>
        <time>2021-02-24T12:17:24Z</time>
      </trkpt>
      <trkpt lat="44.37323" lon="5.10926">
        <ele>320.7</ele>
        <time>2021-02-24T12:17:25Z</time>
      </trkpt>
      <trkpt lat="44.37325" lon="5.10931">
        <ele>320.8</ele>
        <time>2021-02-24T12:17:26Z</time>
      </trkpt>
      <trkpt lat="44.37328" lon="5.10936">
        <ele>320.9</ele>
        <time>2021-02-24T12:17:27Z</time>
      </trkpt>
      <trkpt lat="44.37331" lon="5.10946">
        <ele>321.1</ele>
        <time>2021-02-24T12:17:28Z</time>
      </trkpt>
      <trkpt lat="44.37331" lon="5.10946">
        <ele>321.1</ele>
        <time>2021-02-24T12:17:29Z</time>
      </trkpt>
      <trkpt lat="44.37332" lon="5.10951">
        <ele>321.2</ele>
        <time>2021-02-24T12:17:30Z</time>
      </trkpt>
      <trkpt lat="44.37334" lon="5.10955">
        <ele>321.2</ele>
        <time>2021-02-24T12:17:31Z</time>
      </trkpt>
      <trkpt lat="44.37336" lon="5.10958">
        <ele>321.3</ele>
        <time>2021-02-24T12:17:32Z</time>
      </trkpt>
      <trkpt lat="44.37338" lon="5.10961">
        <ele>321.4</ele>
        <time>2021-02-24T12:17:33Z</time>
      </trkpt>
      <trkpt lat="44.37341" lon="5.10963">
        <ele>321.4</ele>
        <time>2021-02-24T12:17:34Z</time>
      </trkpt>
      <trkpt lat="44.37345" lon="5.10963">
        <ele>321.5</ele>
        <time>2021-02-24T12:17:35Z</time>
      </trkpt>
      <trkpt lat="44.37347" lon="5.10961">
        <ele>321.5</ele>
        <time>2021-02-24T12:17:36Z</time>
      </trkpt>
      <trkpt lat="44.3735" lon="5.10958">
        <ele>321.5</ele>
        <time>2021-02-24T12:17:37Z</time>
      </trkpt>
      <trkpt lat="44.37352" lon="5.10955">
        <ele>321.6</ele>
        <time>2021-02-24T12:17:38Z</time>
      </trkpt>
      <trkpt lat="44.37354" lon="5.10952">
        <ele>321.6</ele>
        <time>2021-02-24T12:17:39Z</time>
      </trkpt>
      <trkpt lat="44.37356" lon="5.10949">
        <ele>321.6</ele>
        <time>2021-02-24T12:17:40Z</time>
      </trkpt>
      <trkpt lat="44.37359" lon="5.10945">
        <ele>321.7</ele>
        <time>2021-02-24T12:17:41Z</time>
      </trkpt>
      <trkpt lat="44.37361" lon="5.10942">
        <ele>321.7</ele>
        <time>2021-02-24T12:17:42Z</time>
      </trkpt>
      <trkpt lat="44.37365" lon="5.10935">
        <ele>321.8</ele>
        <time>2021-02-24T12:17:43Z</time>
      </trkpt>
      <trkpt lat="44.37365" lon="5.10935">
        <ele>321.8</ele>
        <time>2021-02-24T12:17:44Z</time>
      </trkpt>
      <trkpt lat="44.37367" lon="5.10932">
        <ele>321.9</ele>
        <time>2021-02-24T12:17:45Z</time>
      </trkpt>
      <trkpt lat="44.3737" lon="5.10929">
        <ele>321.9</ele>
        <time>2021-02-24T12:17:46Z</time>
      </trkpt>
      <trkpt lat="44.37372" lon="5.10925">
        <ele>322</ele>
        <time>2021-02-24T12:17:47Z</time>
      </trkpt>
      <trkpt lat="44.37374" lon="5.10922">
        <ele>322</ele>
        <time>2021-02-24T12:17:48Z</time>
      </trkpt>
      <trkpt lat="44.37376" lon="5.10919">
        <ele>322.1</ele>
        <time>2021-02-24T12:17:49Z</time>
      </trkpt>
      <trkpt lat="44.37378" lon="5.10916">
        <ele>322.2</ele>
        <time>2021-02-24T12:17:50Z</time>
      </trkpt>
      <trkpt lat="44.3738" lon="5.10913">
        <ele>322.2</ele>
        <time>2021-02-24T12:17:51Z</time>
      </trkpt>
      <trkpt lat="44.37382" lon="5.1091">
        <ele>322.3</ele>
        <time>2021-02-24T12:17:52Z</time>
      </trkpt>
      <trkpt lat="44.37384" lon="5.10907">
        <ele>322.3</ele>
        <time>2021-02-24T12:17:53Z</time>
      </trkpt>
      <trkpt lat="44.37386" lon="5.10904">
        <ele>322.4</ele>
        <time>2021-02-24T12:17:54Z</time>
      </trkpt>
      <trkpt lat="44.37387" lon="5.10902">
        <ele>322.5</ele>
        <time>2021-02-24T12:17:55Z</time>
      </trkpt>
      <trkpt lat="44.37389" lon="5.10899">
        <ele>322.5</ele>
        <time>2021-02-24T12:17:56Z</time>
      </trkpt>
      <trkpt lat="44.37391" lon="5.10897">
        <ele>322.6</ele>
        <time>2021-02-24T12:17:57Z</time>
      </trkpt>
      <trkpt lat="44.37393" lon="5.10894">
        <ele>322.6</ele>
        <time>2021-02-24T12:17:58Z</time>
      </trkpt>
      <trkpt lat="44.37395" lon="5.10892">
        <ele>322.7</ele>
        <time>2021-02-24T12:17:59Z</time>
      </trkpt>
      <trkpt lat="44.37397" lon="5.10889">
        <ele>322.8</ele>
        <time>2021-02-24T12:18:00Z</time>
      </trkpt>
      <trkpt lat="44.37399" lon="5.10886">
        <ele>322.8</ele>
        <time>2021-02-24T12:18:01Z</time>
      </trkpt>
      <trkpt lat="44.37403" lon="5.1088">
        <ele>323</ele>
        <time>2021-02-24T12:18:02Z</time>
      </trkpt>
      <trkpt lat="44.37405" lon="5.10877">
        <ele>323.1</ele>
        <time>2021-02-24T12:18:03Z</time>
      </trkpt>
      <trkpt lat="44.37406" lon="5.10874">
        <ele>323.1</ele>
        <time>2021-02-24T12:18:04Z</time>
      </trkpt>
      <trkpt lat="44.37408" lon="5.10872">
        <ele>323.2</ele>
        <time>2021-02-24T12:18:05Z</time>
      </trkpt>
      <trkpt lat="44.3741" lon="5.10868">
        <ele>323.3</ele>
        <time>2021-02-24T12:18:06Z</time>
      </trkpt>
      <trkpt lat="44.37412" lon="5.10865">
        <ele>323.3</ele>
        <time>2021-02-24T12:18:07Z</time>
      </trkpt>
      <trkpt lat="44.37414" lon="5.10862">
        <ele>323.4</ele>
        <time>2021-02-24T12:18:08Z</time>
      </trkpt>
      <trkpt lat="44.37416" lon="5.10859">
        <ele>323.5</ele>
        <time>2021-02-24T12:18:09Z</time>
      </trkpt>
      <trkpt lat="44.37418" lon="5.10856">
        <ele>323.6</ele>
        <time>2021-02-24T12:18:10Z</time>
      </trkpt>
      <trkpt lat="44.37421" lon="5.10853">
        <ele>323.6</ele>
        <time>2021-02-24T12:18:11Z</time>
      </trkpt>
      <trkpt lat="44.37423" lon="5.1085">
        <ele>323.7</ele>
        <time>2021-02-24T12:18:12Z</time>
      </trkpt>
      <trkpt lat="44.37425" lon="5.10847">
        <ele>323.8</ele>
        <time>2021-02-24T12:18:13Z</time>
      </trkpt>
      <trkpt lat="44.37427" lon="5.10844">
        <ele>323.8</ele>
        <time>2021-02-24T12:18:14Z</time>
      </trkpt>
      <trkpt lat="44.37429" lon="5.10841">
        <ele>323.9</ele>
        <time>2021-02-24T12:18:15Z</time>
      </trkpt>
      <trkpt lat="44.37431" lon="5.10838">
        <ele>324</ele>
        <time>2021-02-24T12:18:16Z</time>
      </trkpt>
      <trkpt lat="44.37433" lon="5.10835">
        <ele>324</ele>
        <time>2021-02-24T12:18:17Z</time>
      </trkpt>
      <trkpt lat="44.37435" lon="5.10832">
        <ele>324.1</ele>
        <time>2021-02-24T12:18:18Z</time>
      </trkpt>
      <trkpt lat="44.37438" lon="5.10829">
        <ele>324.2</ele>
        <time>2021-02-24T12:18:19Z</time>
      </trkpt>
      <trkpt lat="44.3744" lon="5.10825">
        <ele>324.3</ele>
        <time>2021-02-24T12:18:20Z</time>
      </trkpt>
      <trkpt lat="44.37443" lon="5.10822">
        <ele>324.4</ele>
        <time>2021-02-24T12:18:21Z</time>
      </trkpt>
      <trkpt lat="44.37445" lon="5.10819">
        <ele>324.5</ele>
        <time>2021-02-24T12:18:22Z</time>
      </trkpt>
      <trkpt lat="44.37448" lon="5.10815">
        <ele>324.6</ele>
        <time>2021-02-24T12:18:23Z</time>
      </trkpt>
      <trkpt lat="44.3745" lon="5.10812">
        <ele>324.6</ele>
        <time>2021-02-24T12:18:24Z</time>
      </trkpt>
      <trkpt lat="44.37453" lon="5.10809">
        <ele>324.7</ele>
        <time>2021-02-24T12:18:25Z</time>
      </trkpt>
      <trkpt lat="44.37455" lon="5.10805">
        <ele>324.8</ele>
        <time>2021-02-24T12:18:26Z</time>
      </trkpt>
      <trkpt lat="44.37458" lon="5.10801">
        <ele>324.9</ele>
        <time>2021-02-24T12:18:27Z</time>
      </trkpt>
      <trkpt lat="44.3746" lon="5.10798">
        <ele>325</ele>
        <time>2021-02-24T12:18:28Z</time>
      </trkpt>
      <trkpt lat="44.3746" lon="5.10798">
        <ele>325</ele>
        <time>2021-02-24T12:18:29Z</time>
      </trkpt>
      <trkpt lat="44.37462" lon="5.10794">
        <ele>325.1</ele>
        <time>2021-02-24T12:18:30Z</time>
      </trkpt>
      <trkpt lat="44.37465" lon="5.1079">
        <ele>325.2</ele>
        <time>2021-02-24T12:18:31Z</time>
      </trkpt>
      <trkpt lat="44.37468" lon="5.10786">
        <ele>325.3</ele>
        <time>2021-02-24T12:18:32Z</time>
      </trkpt>
      <trkpt lat="44.3747" lon="5.10782">
        <ele>325.4</ele>
        <time>2021-02-24T12:18:33Z</time>
      </trkpt>
      <trkpt lat="44.37473" lon="5.10778">
        <ele>325.5</ele>
        <time>2021-02-24T12:18:34Z</time>
      </trkpt>
      <trkpt lat="44.37476" lon="5.10774">
        <ele>325.6</ele>
        <time>2021-02-24T12:18:35Z</time>
      </trkpt>
      <trkpt lat="44.37479" lon="5.1077">
        <ele>325.7</ele>
        <time>2021-02-24T12:18:36Z</time>
      </trkpt>
      <trkpt lat="44.37481" lon="5.10766">
        <ele>325.8</ele>
        <time>2021-02-24T12:18:37Z</time>
      </trkpt>
      <trkpt lat="44.37484" lon="5.10763">
        <ele>325.9</ele>
        <time>2021-02-24T12:18:38Z</time>
      </trkpt>
      <trkpt lat="44.37487" lon="5.10759">
        <ele>326.1</ele>
        <time>2021-02-24T12:18:39Z</time>
      </trkpt>
      <trkpt lat="44.37492" lon="5.10751">
        <ele>326.3</ele>
        <time>2021-02-24T12:18:40Z</time>
      </trkpt>
      <trkpt lat="44.37494" lon="5.10748">
        <ele>326.4</ele>
        <time>2021-02-24T12:18:41Z</time>
      </trkpt>
      <trkpt lat="44.37497" lon="5.10744">
        <ele>326.5</ele>
        <time>2021-02-24T12:18:42Z</time>
      </trkpt>
      <trkpt lat="44.37499" lon="5.10741">
        <ele>326.6</ele>
        <time>2021-02-24T12:18:43Z</time>
      </trkpt>
      <trkpt lat="44.37502" lon="5.10737">
        <ele>326.8</ele>
        <time>2021-02-24T12:18:44Z</time>
      </trkpt>
      <trkpt lat="44.37504" lon="5.10734">
        <ele>326.9</ele>
        <time>2021-02-24T12:18:45Z</time>
      </trkpt>
      <trkpt lat="44.37506" lon="5.1073">
        <ele>327</ele>
        <time>2021-02-24T12:18:46Z</time>
      </trkpt>
      <trkpt lat="44.37509" lon="5.10727">
        <ele>327.1</ele>
        <time>2021-02-24T12:18:47Z</time>
      </trkpt>
      <trkpt lat="44.37512" lon="5.10724">
        <ele>327.3</ele>
        <time>2021-02-24T12:18:48Z</time>
      </trkpt>
      <trkpt lat="44.37514" lon="5.1072">
        <ele>327.4</ele>
        <time>2021-02-24T12:18:49Z</time>
      </trkpt>
      <trkpt lat="44.37517" lon="5.10717">
        <ele>327.5</ele>
        <time>2021-02-24T12:18:50Z</time>
      </trkpt>
      <trkpt lat="44.37519" lon="5.10714">
        <ele>327.7</ele>
        <time>2021-02-24T12:18:51Z</time>
      </trkpt>
      <trkpt lat="44.37522" lon="5.1071">
        <ele>327.8</ele>
        <time>2021-02-24T12:18:52Z</time>
      </trkpt>
      <trkpt lat="44.37524" lon="5.10707">
        <ele>327.9</ele>
        <time>2021-02-24T12:18:53Z</time>
      </trkpt>
      <trkpt lat="44.37526" lon="5.10704">
        <ele>328.1</ele>
        <time>2021-02-24T12:18:54Z</time>
      </trkpt>
      <trkpt lat="44.37529" lon="5.10701">
        <ele>328.2</ele>
        <time>2021-02-24T12:18:55Z</time>
      </trkpt>
      <trkpt lat="44.37531" lon="5.10698">
        <ele>328.3</ele>
        <time>2021-02-24T12:18:56Z</time>
      </trkpt>
      <trkpt lat="44.37533" lon="5.10695">
        <ele>328.5</ele>
        <time>2021-02-24T12:18:57Z</time>
      </trkpt>
      <trkpt lat="44.37535" lon="5.10692">
        <ele>328.6</ele>
        <time>2021-02-24T12:18:58Z</time>
      </trkpt>
      <trkpt lat="44.37537" lon="5.10688">
        <ele>328.7</ele>
        <time>2021-02-24T12:18:59Z</time>
      </trkpt>
      <trkpt lat="44.3754" lon="5.10685">
        <ele>328.9</ele>
        <time>2021-02-24T12:19:00Z</time>
      </trkpt>
      <trkpt lat="44.37542" lon="5.10682">
        <ele>329</ele>
        <time>2021-02-24T12:19:01Z</time>
      </trkpt>
      <trkpt lat="44.37544" lon="5.10679">
        <ele>329.2</ele>
        <time>2021-02-24T12:19:02Z</time>
      </trkpt>
      <trkpt lat="44.37547" lon="5.10676">
        <ele>329.4</ele>
        <time>2021-02-24T12:19:03Z</time>
      </trkpt>
      <trkpt lat="44.37549" lon="5.10673">
        <ele>329.5</ele>
        <time>2021-02-24T12:19:04Z</time>
      </trkpt>
      <trkpt lat="44.37551" lon="5.10669">
        <ele>329.7</ele>
        <time>2021-02-24T12:19:05Z</time>
      </trkpt>
      <trkpt lat="44.37554" lon="5.10666">
        <ele>329.8</ele>
        <time>2021-02-24T12:19:06Z</time>
      </trkpt>
      <trkpt lat="44.37556" lon="5.10663">
        <ele>330</ele>
        <time>2021-02-24T12:19:07Z</time>
      </trkpt>
      <trkpt lat="44.37558" lon="5.10659">
        <ele>330.1</ele>
        <time>2021-02-24T12:19:08Z</time>
      </trkpt>
      <trkpt lat="44.37561" lon="5.10656">
        <ele>330.3</ele>
        <time>2021-02-24T12:19:09Z</time>
      </trkpt>
      <trkpt lat="44.37563" lon="5.10652">
        <ele>330.4</ele>
        <time>2021-02-24T12:19:10Z</time>
      </trkpt>
      <trkpt lat="44.37565" lon="5.10649">
        <ele>330.6</ele>
        <time>2021-02-24T12:19:11Z</time>
      </trkpt>
      <trkpt lat="44.37568" lon="5.10645">
        <ele>330.7</ele>
        <time>2021-02-24T12:19:12Z</time>
      </trkpt>
      <trkpt lat="44.3757" lon="5.10641">
        <ele>330.9</ele>
        <time>2021-02-24T12:19:13Z</time>
      </trkpt>
      <trkpt lat="44.37572" lon="5.10638">
        <ele>331</ele>
        <time>2021-02-24T12:19:14Z</time>
      </trkpt>
      <trkpt lat="44.37575" lon="5.10635">
        <ele>331.2</ele>
        <time>2021-02-24T12:19:15Z</time>
      </trkpt>
      <trkpt lat="44.37577" lon="5.10632">
        <ele>331.3</ele>
        <time>2021-02-24T12:19:16Z</time>
      </trkpt>
      <trkpt lat="44.3758" lon="5.10628">
        <ele>331.5</ele>
        <time>2021-02-24T12:19:17Z</time>
      </trkpt>
      <trkpt lat="44.37582" lon="5.10624">
        <ele>331.7</ele>
        <time>2021-02-24T12:19:18Z</time>
      </trkpt>
      <trkpt lat="44.37582" lon="5.10624">
        <ele>331.7</ele>
        <time>2021-02-24T12:19:19Z</time>
      </trkpt>
      <trkpt lat="44.37584" lon="5.1062">
        <ele>331.8</ele>
        <time>2021-02-24T12:19:20Z</time>
      </trkpt>
      <trkpt lat="44.37587" lon="5.10617">
        <ele>332</ele>
        <time>2021-02-24T12:19:21Z</time>
      </trkpt>
      <trkpt lat="44.37589" lon="5.10613">
        <ele>332.1</ele>
        <time>2021-02-24T12:19:22Z</time>
      </trkpt>
      <trkpt lat="44.37591" lon="5.10609">
        <ele>332.3</ele>
        <time>2021-02-24T12:19:23Z</time>
      </trkpt>
      <trkpt lat="44.37593" lon="5.10606">
        <ele>332.5</ele>
        <time>2021-02-24T12:19:24Z</time>
      </trkpt>
      <trkpt lat="44.37595" lon="5.10602">
        <ele>332.6</ele>
        <time>2021-02-24T12:19:25Z</time>
      </trkpt>
      <trkpt lat="44.37597" lon="5.10598">
        <ele>332.8</ele>
        <time>2021-02-24T12:19:26Z</time>
      </trkpt>
      <trkpt lat="44.37599" lon="5.10595">
        <ele>333</ele>
        <time>2021-02-24T12:19:27Z</time>
      </trkpt>
      <trkpt lat="44.37601" lon="5.10591">
        <ele>333.1</ele>
        <time>2021-02-24T12:19:28Z</time>
      </trkpt>
      <trkpt lat="44.37603" lon="5.10588">
        <ele>333.3</ele>
        <time>2021-02-24T12:19:29Z</time>
      </trkpt>
      <trkpt lat="44.37605" lon="5.10584">
        <ele>333.5</ele>
        <time>2021-02-24T12:19:30Z</time>
      </trkpt>
      <trkpt lat="44.37607" lon="5.1058">
        <ele>333.6</ele>
        <time>2021-02-24T12:19:31Z</time>
      </trkpt>
      <trkpt lat="44.3761" lon="5.10576">
        <ele>333.8</ele>
        <time>2021-02-24T12:19:32Z</time>
      </trkpt>
      <trkpt lat="44.37612" lon="5.10573">
        <ele>333.9</ele>
        <time>2021-02-24T12:19:33Z</time>
      </trkpt>
      <trkpt lat="44.37613" lon="5.10569">
        <ele>334.1</ele>
        <time>2021-02-24T12:19:34Z</time>
      </trkpt>
      <trkpt lat="44.37615" lon="5.10565">
        <ele>334.3</ele>
        <time>2021-02-24T12:19:35Z</time>
      </trkpt>
      <trkpt lat="44.37617" lon="5.10561">
        <ele>334.4</ele>
        <time>2021-02-24T12:19:36Z</time>
      </trkpt>
      <trkpt lat="44.3762" lon="5.10553">
        <ele>334.7</ele>
        <time>2021-02-24T12:19:37Z</time>
      </trkpt>
      <trkpt lat="44.3762" lon="5.10553">
        <ele>334.7</ele>
        <time>2021-02-24T12:19:38Z</time>
      </trkpt>
      <trkpt lat="44.37622" lon="5.10549">
        <ele>334.8</ele>
        <time>2021-02-24T12:19:39Z</time>
      </trkpt>
      <trkpt lat="44.37623" lon="5.10545">
        <ele>335</ele>
        <time>2021-02-24T12:19:40Z</time>
      </trkpt>
      <trkpt lat="44.37626" lon="5.10537">
        <ele>335.3</ele>
        <time>2021-02-24T12:19:41Z</time>
      </trkpt>
      <trkpt lat="44.37628" lon="5.10533">
        <ele>335.4</ele>
        <time>2021-02-24T12:19:42Z</time>
      </trkpt>
      <trkpt lat="44.37629" lon="5.10529">
        <ele>335.5</ele>
        <time>2021-02-24T12:19:43Z</time>
      </trkpt>
      <trkpt lat="44.37631" lon="5.10525">
        <ele>335.6</ele>
        <time>2021-02-24T12:19:44Z</time>
      </trkpt>
      <trkpt lat="44.37632" lon="5.1052">
        <ele>335.6</ele>
        <time>2021-02-24T12:19:45Z</time>
      </trkpt>
      <trkpt lat="44.37634" lon="5.10516">
        <ele>335.6</ele>
        <time>2021-02-24T12:19:46Z</time>
      </trkpt>
      <trkpt lat="44.37635" lon="5.10511">
        <ele>335.8</ele>
        <time>2021-02-24T12:19:47Z</time>
      </trkpt>
      <trkpt lat="44.37636" lon="5.10507">
        <ele>335.9</ele>
        <time>2021-02-24T12:19:48Z</time>
      </trkpt>
      <trkpt lat="44.37638" lon="5.10502">
        <ele>336.1</ele>
        <time>2021-02-24T12:19:49Z</time>
      </trkpt>
      <trkpt lat="44.37639" lon="5.10498">
        <ele>336.2</ele>
        <time>2021-02-24T12:19:50Z</time>
      </trkpt>
      <trkpt lat="44.37641" lon="5.10493">
        <ele>336.4</ele>
        <time>2021-02-24T12:19:51Z</time>
      </trkpt>
      <trkpt lat="44.37642" lon="5.10489">
        <ele>336.6</ele>
        <time>2021-02-24T12:19:52Z</time>
      </trkpt>
      <trkpt lat="44.37644" lon="5.10484">
        <ele>336.7</ele>
        <time>2021-02-24T12:19:53Z</time>
      </trkpt>
      <trkpt lat="44.37645" lon="5.1048">
        <ele>336.9</ele>
        <time>2021-02-24T12:19:54Z</time>
      </trkpt>
      <trkpt lat="44.37646" lon="5.10476">
        <ele>337</ele>
        <time>2021-02-24T12:19:55Z</time>
      </trkpt>
      <trkpt lat="44.37648" lon="5.10471">
        <ele>337.1</ele>
        <time>2021-02-24T12:19:56Z</time>
      </trkpt>
      <trkpt lat="44.37649" lon="5.10467">
        <ele>337.3</ele>
        <time>2021-02-24T12:19:57Z</time>
      </trkpt>
      <trkpt lat="44.37651" lon="5.10463">
        <ele>337.4</ele>
        <time>2021-02-24T12:19:58Z</time>
      </trkpt>
      <trkpt lat="44.37652" lon="5.10458">
        <ele>337.6</ele>
        <time>2021-02-24T12:19:59Z</time>
      </trkpt>
      <trkpt lat="44.37653" lon="5.10454">
        <ele>337.7</ele>
        <time>2021-02-24T12:20:00Z</time>
      </trkpt>
      <trkpt lat="44.37655" lon="5.1045">
        <ele>337.9</ele>
        <time>2021-02-24T12:20:01Z</time>
      </trkpt>
      <trkpt lat="44.37656" lon="5.10445">
        <ele>338</ele>
        <time>2021-02-24T12:20:02Z</time>
      </trkpt>
      <trkpt lat="44.37658" lon="5.10441">
        <ele>338.2</ele>
        <time>2021-02-24T12:20:03Z</time>
      </trkpt>
      <trkpt lat="44.37659" lon="5.10436">
        <ele>338.3</ele>
        <time>2021-02-24T12:20:04Z</time>
      </trkpt>
      <trkpt lat="44.37661" lon="5.10432">
        <ele>338.5</ele>
        <time>2021-02-24T12:20:05Z</time>
      </trkpt>
      <trkpt lat="44.37662" lon="5.10427">
        <ele>338.7</ele>
        <time>2021-02-24T12:20:06Z</time>
      </trkpt>
      <trkpt lat="44.37664" lon="5.10423">
        <ele>338.8</ele>
        <time>2021-02-24T12:20:07Z</time>
      </trkpt>
      <trkpt lat="44.37665" lon="5.10419">
        <ele>339</ele>
        <time>2021-02-24T12:20:08Z</time>
      </trkpt>
      <trkpt lat="44.37667" lon="5.10414">
        <ele>339.2</ele>
        <time>2021-02-24T12:20:09Z</time>
      </trkpt>
      <trkpt lat="44.37668" lon="5.1041">
        <ele>339.3</ele>
        <time>2021-02-24T12:20:10Z</time>
      </trkpt>
      <trkpt lat="44.3767" lon="5.10406">
        <ele>339.5</ele>
        <time>2021-02-24T12:20:11Z</time>
      </trkpt>
      <trkpt lat="44.37671" lon="5.10402">
        <ele>339.6</ele>
        <time>2021-02-24T12:20:12Z</time>
      </trkpt>
      <trkpt lat="44.37673" lon="5.10398">
        <ele>339.8</ele>
        <time>2021-02-24T12:20:13Z</time>
      </trkpt>
      <trkpt lat="44.37674" lon="5.10394">
        <ele>339.9</ele>
        <time>2021-02-24T12:20:14Z</time>
      </trkpt>
      <trkpt lat="44.37676" lon="5.10391">
        <ele>340.1</ele>
        <time>2021-02-24T12:20:15Z</time>
      </trkpt>
      <trkpt lat="44.37677" lon="5.10387">
        <ele>340.2</ele>
        <time>2021-02-24T12:20:16Z</time>
      </trkpt>
      <trkpt lat="44.37679" lon="5.10384">
        <ele>340.3</ele>
        <time>2021-02-24T12:20:17Z</time>
      </trkpt>
      <trkpt lat="44.3768" lon="5.1038">
        <ele>340.5</ele>
        <time>2021-02-24T12:20:18Z</time>
      </trkpt>
      <trkpt lat="44.37682" lon="5.10376">
        <ele>340.6</ele>
        <time>2021-02-24T12:20:19Z</time>
      </trkpt>
      <trkpt lat="44.37684" lon="5.10372">
        <ele>340.8</ele>
        <time>2021-02-24T12:20:20Z</time>
      </trkpt>
      <trkpt lat="44.37686" lon="5.10368">
        <ele>340.9</ele>
        <time>2021-02-24T12:20:21Z</time>
      </trkpt>
      <trkpt lat="44.37688" lon="5.10364">
        <ele>341.1</ele>
        <time>2021-02-24T12:20:22Z</time>
      </trkpt>
      <trkpt lat="44.37691" lon="5.1036">
        <ele>341.2</ele>
        <time>2021-02-24T12:20:23Z</time>
      </trkpt>
      <trkpt lat="44.37693" lon="5.10356">
        <ele>341.4</ele>
        <time>2021-02-24T12:20:24Z</time>
      </trkpt>
      <trkpt lat="44.37696" lon="5.10353">
        <ele>341.6</ele>
        <time>2021-02-24T12:20:25Z</time>
      </trkpt>
      <trkpt lat="44.37698" lon="5.10349">
        <ele>341.7</ele>
        <time>2021-02-24T12:20:26Z</time>
      </trkpt>
      <trkpt lat="44.37701" lon="5.10346">
        <ele>341.9</ele>
        <time>2021-02-24T12:20:27Z</time>
      </trkpt>
      <trkpt lat="44.37703" lon="5.10343">
        <ele>342</ele>
        <time>2021-02-24T12:20:28Z</time>
      </trkpt>
      <trkpt lat="44.37706" lon="5.1034">
        <ele>342.1</ele>
        <time>2021-02-24T12:20:29Z</time>
      </trkpt>
      <trkpt lat="44.37708" lon="5.10337">
        <ele>342.3</ele>
        <time>2021-02-24T12:20:30Z</time>
      </trkpt>
      <trkpt lat="44.37711" lon="5.10334">
        <ele>342.4</ele>
        <time>2021-02-24T12:20:31Z</time>
      </trkpt>
      <trkpt lat="44.37714" lon="5.10331">
        <ele>342.6</ele>
        <time>2021-02-24T12:20:32Z</time>
      </trkpt>
      <trkpt lat="44.37716" lon="5.10329">
        <ele>342.7</ele>
        <time>2021-02-24T12:20:33Z</time>
      </trkpt>
      <trkpt lat="44.37719" lon="5.10326">
        <ele>342.9</ele>
        <time>2021-02-24T12:20:34Z</time>
      </trkpt>
      <trkpt lat="44.37719" lon="5.10326">
        <ele>342.9</ele>
        <time>2021-02-24T12:20:35Z</time>
      </trkpt>
      <trkpt lat="44.37722" lon="5.10324">
        <ele>343</ele>
        <time>2021-02-24T12:20:36Z</time>
      </trkpt>
      <trkpt lat="44.37725" lon="5.10321">
        <ele>343.1</ele>
        <time>2021-02-24T12:20:37Z</time>
      </trkpt>
      <trkpt lat="44.37727" lon="5.10319">
        <ele>343.3</ele>
        <time>2021-02-24T12:20:38Z</time>
      </trkpt>
      <trkpt lat="44.3773" lon="5.10316">
        <ele>343.4</ele>
        <time>2021-02-24T12:20:39Z</time>
      </trkpt>
      <trkpt lat="44.37733" lon="5.10314">
        <ele>343.6</ele>
        <time>2021-02-24T12:20:40Z</time>
      </trkpt>
      <trkpt lat="44.37736" lon="5.10311">
        <ele>343.7</ele>
        <time>2021-02-24T12:20:41Z</time>
      </trkpt>
      <trkpt lat="44.37739" lon="5.10309">
        <ele>343.9</ele>
        <time>2021-02-24T12:20:42Z</time>
      </trkpt>
      <trkpt lat="44.37742" lon="5.10306">
        <ele>344</ele>
        <time>2021-02-24T12:20:43Z</time>
      </trkpt>
      <trkpt lat="44.37745" lon="5.10304">
        <ele>344.2</ele>
        <time>2021-02-24T12:20:44Z</time>
      </trkpt>
      <trkpt lat="44.37748" lon="5.10302">
        <ele>344.4</ele>
        <time>2021-02-24T12:20:45Z</time>
      </trkpt>
      <trkpt lat="44.37751" lon="5.10299">
        <ele>344.6</ele>
        <time>2021-02-24T12:20:46Z</time>
      </trkpt>
      <trkpt lat="44.37754" lon="5.10297">
        <ele>344.7</ele>
        <time>2021-02-24T12:20:47Z</time>
      </trkpt>
      <trkpt lat="44.3776" lon="5.10294">
        <ele>345</ele>
        <time>2021-02-24T12:20:48Z</time>
      </trkpt>
      <trkpt lat="44.3776" lon="5.10294">
        <ele>345</ele>
        <time>2021-02-24T12:20:49Z</time>
      </trkpt>
      <trkpt lat="44.37763" lon="5.10292">
        <ele>345.2</ele>
        <time>2021-02-24T12:20:50Z</time>
      </trkpt>
      <trkpt lat="44.37766" lon="5.1029">
        <ele>345.4</ele>
        <time>2021-02-24T12:20:51Z</time>
      </trkpt>
      <trkpt lat="44.37769" lon="5.10288">
        <ele>345.5</ele>
        <time>2021-02-24T12:20:52Z</time>
      </trkpt>
      <trkpt lat="44.37775" lon="5.10284">
        <ele>345.9</ele>
        <time>2021-02-24T12:20:53Z</time>
      </trkpt>
      <trkpt lat="44.37779" lon="5.10282">
        <ele>346.1</ele>
        <time>2021-02-24T12:20:54Z</time>
      </trkpt>
      <trkpt lat="44.37782" lon="5.1028">
        <ele>346.2</ele>
        <time>2021-02-24T12:20:55Z</time>
      </trkpt>
      <trkpt lat="44.37785" lon="5.10278">
        <ele>346.4</ele>
        <time>2021-02-24T12:20:56Z</time>
      </trkpt>
      <trkpt lat="44.37788" lon="5.10276">
        <ele>346.6</ele>
        <time>2021-02-24T12:20:57Z</time>
      </trkpt>
      <trkpt lat="44.37791" lon="5.10275">
        <ele>346.8</ele>
        <time>2021-02-24T12:20:58Z</time>
      </trkpt>
      <trkpt lat="44.37795" lon="5.10273">
        <ele>347</ele>
        <time>2021-02-24T12:20:59Z</time>
      </trkpt>
      <trkpt lat="44.37798" lon="5.10271">
        <ele>347.1</ele>
        <time>2021-02-24T12:21:00Z</time>
      </trkpt>
      <trkpt lat="44.37801" lon="5.10269">
        <ele>347.3</ele>
        <time>2021-02-24T12:21:01Z</time>
      </trkpt>
      <trkpt lat="44.37804" lon="5.10267">
        <ele>347.5</ele>
        <time>2021-02-24T12:21:02Z</time>
      </trkpt>
      <trkpt lat="44.37807" lon="5.10265">
        <ele>347.7</ele>
        <time>2021-02-24T12:21:03Z</time>
      </trkpt>
      <trkpt lat="44.3781" lon="5.10263">
        <ele>347.9</ele>
        <time>2021-02-24T12:21:04Z</time>
      </trkpt>
      <trkpt lat="44.37813" lon="5.10261">
        <ele>348.1</ele>
        <time>2021-02-24T12:21:05Z</time>
      </trkpt>
      <trkpt lat="44.37816" lon="5.1026">
        <ele>348.3</ele>
        <time>2021-02-24T12:21:06Z</time>
      </trkpt>
      <trkpt lat="44.37819" lon="5.10258">
        <ele>348.4</ele>
        <time>2021-02-24T12:21:07Z</time>
      </trkpt>
      <trkpt lat="44.37822" lon="5.10256">
        <ele>348.6</ele>
        <time>2021-02-24T12:21:08Z</time>
      </trkpt>
      <trkpt lat="44.37825" lon="5.10254">
        <ele>348.8</ele>
        <time>2021-02-24T12:21:09Z</time>
      </trkpt>
      <trkpt lat="44.37828" lon="5.10252">
        <ele>348.9</ele>
        <time>2021-02-24T12:21:10Z</time>
      </trkpt>
      <trkpt lat="44.37831" lon="5.10251">
        <ele>349.1</ele>
        <time>2021-02-24T12:21:11Z</time>
      </trkpt>
      <trkpt lat="44.37834" lon="5.10249">
        <ele>349.3</ele>
        <time>2021-02-24T12:21:12Z</time>
      </trkpt>
      <trkpt lat="44.37834" lon="5.10249">
        <ele>349.3</ele>
        <time>2021-02-24T12:21:13Z</time>
      </trkpt>
      <trkpt lat="44.37837" lon="5.10247">
        <ele>349.4</ele>
        <time>2021-02-24T12:21:14Z</time>
      </trkpt>
      <trkpt lat="44.3784" lon="5.10245">
        <ele>349.6</ele>
        <time>2021-02-24T12:21:15Z</time>
      </trkpt>
      <trkpt lat="44.37843" lon="5.10243">
        <ele>349.8</ele>
        <time>2021-02-24T12:21:16Z</time>
      </trkpt>
      <trkpt lat="44.37846" lon="5.10241">
        <ele>350</ele>
        <time>2021-02-24T12:21:17Z</time>
      </trkpt>
      <trkpt lat="44.37849" lon="5.1024">
        <ele>350.2</ele>
        <time>2021-02-24T12:21:18Z</time>
      </trkpt>
      <trkpt lat="44.37852" lon="5.10238">
        <ele>350.3</ele>
        <time>2021-02-24T12:21:19Z</time>
      </trkpt>
      <trkpt lat="44.37855" lon="5.10235">
        <ele>350.5</ele>
        <time>2021-02-24T12:21:20Z</time>
      </trkpt>
      <trkpt lat="44.37859" lon="5.10234">
        <ele>350.7</ele>
        <time>2021-02-24T12:21:21Z</time>
      </trkpt>
      <trkpt lat="44.37862" lon="5.10232">
        <ele>350.9</ele>
        <time>2021-02-24T12:21:22Z</time>
      </trkpt>
      <trkpt lat="44.37865" lon="5.1023">
        <ele>351</ele>
        <time>2021-02-24T12:21:23Z</time>
      </trkpt>
      <trkpt lat="44.37868" lon="5.10228">
        <ele>351.2</ele>
        <time>2021-02-24T12:21:24Z</time>
      </trkpt>
      <trkpt lat="44.37874" lon="5.10225">
        <ele>351.5</ele>
        <time>2021-02-24T12:21:25Z</time>
      </trkpt>
      <trkpt lat="44.37874" lon="5.10225">
        <ele>351.5</ele>
        <time>2021-02-24T12:21:26Z</time>
      </trkpt>
      <trkpt lat="44.37877" lon="5.10223">
        <ele>351.7</ele>
        <time>2021-02-24T12:21:27Z</time>
      </trkpt>
      <trkpt lat="44.3788" lon="5.10221">
        <ele>351.8</ele>
        <time>2021-02-24T12:21:28Z</time>
      </trkpt>
      <trkpt lat="44.37887" lon="5.10217">
        <ele>352.1</ele>
        <time>2021-02-24T12:21:29Z</time>
      </trkpt>
      <trkpt lat="44.37887" lon="5.10217">
        <ele>352.1</ele>
        <time>2021-02-24T12:21:30Z</time>
      </trkpt>
      <trkpt lat="44.37893" lon="5.10213">
        <ele>352.4</ele>
        <time>2021-02-24T12:21:31Z</time>
      </trkpt>
      <trkpt lat="44.37897" lon="5.10211">
        <ele>352.6</ele>
        <time>2021-02-24T12:21:32Z</time>
      </trkpt>
      <trkpt lat="44.379" lon="5.10209">
        <ele>352.7</ele>
        <time>2021-02-24T12:21:33Z</time>
      </trkpt>
      <trkpt lat="44.37904" lon="5.10207">
        <ele>352.8</ele>
        <time>2021-02-24T12:21:34Z</time>
      </trkpt>
      <trkpt lat="44.37907" lon="5.10205">
        <ele>353</ele>
        <time>2021-02-24T12:21:35Z</time>
      </trkpt>
      <trkpt lat="44.37911" lon="5.10203">
        <ele>353.1</ele>
        <time>2021-02-24T12:21:36Z</time>
      </trkpt>
      <trkpt lat="44.37914" lon="5.10201">
        <ele>353.2</ele>
        <time>2021-02-24T12:21:37Z</time>
      </trkpt>
      <trkpt lat="44.37917" lon="5.10198">
        <ele>353.3</ele>
        <time>2021-02-24T12:21:38Z</time>
      </trkpt>
      <trkpt lat="44.37917" lon="5.10198">
        <ele>353.3</ele>
        <time>2021-02-24T12:21:39Z</time>
      </trkpt>
      <trkpt lat="44.37921" lon="5.10196">
        <ele>353.4</ele>
        <time>2021-02-24T12:21:40Z</time>
      </trkpt>
      <trkpt lat="44.37924" lon="5.10194">
        <ele>353.5</ele>
        <time>2021-02-24T12:21:41Z</time>
      </trkpt>
      <trkpt lat="44.37927" lon="5.10192">
        <ele>353.5</ele>
        <time>2021-02-24T12:21:42Z</time>
      </trkpt>
      <trkpt lat="44.3793" lon="5.1019">
        <ele>353.6</ele>
        <time>2021-02-24T12:21:43Z</time>
      </trkpt>
      <trkpt lat="44.37933" lon="5.10188">
        <ele>353.7</ele>
        <time>2021-02-24T12:21:44Z</time>
      </trkpt>
      <trkpt lat="44.37937" lon="5.10186">
        <ele>353.7</ele>
        <time>2021-02-24T12:21:45Z</time>
      </trkpt>
      <trkpt lat="44.3794" lon="5.10184">
        <ele>353.8</ele>
        <time>2021-02-24T12:21:46Z</time>
      </trkpt>
      <trkpt lat="44.37944" lon="5.10182">
        <ele>353.9</ele>
        <time>2021-02-24T12:21:47Z</time>
      </trkpt>
      <trkpt lat="44.37951" lon="5.10178">
        <ele>354</ele>
        <time>2021-02-24T12:21:48Z</time>
      </trkpt>
      <trkpt lat="44.37951" lon="5.10178">
        <ele>354</ele>
        <time>2021-02-24T12:21:49Z</time>
      </trkpt>
      <trkpt lat="44.37959" lon="5.10173">
        <ele>354.1</ele>
        <time>2021-02-24T12:21:50Z</time>
      </trkpt>
      <trkpt lat="44.37963" lon="5.10171">
        <ele>354.1</ele>
        <time>2021-02-24T12:21:51Z</time>
      </trkpt>
      <trkpt lat="44.37963" lon="5.10171">
        <ele>354.1</ele>
        <time>2021-02-24T12:21:52Z</time>
      </trkpt>
      <trkpt lat="44.37971" lon="5.10166">
        <ele>354.2</ele>
        <time>2021-02-24T12:21:53Z</time>
      </trkpt>
      <trkpt lat="44.37975" lon="5.10163">
        <ele>354.2</ele>
        <time>2021-02-24T12:21:54Z</time>
      </trkpt>
      <trkpt lat="44.37979" lon="5.10161">
        <ele>354.3</ele>
        <time>2021-02-24T12:21:55Z</time>
      </trkpt>
      <trkpt lat="44.37983" lon="5.10158">
        <ele>354.3</ele>
        <time>2021-02-24T12:21:56Z</time>
      </trkpt>
      <trkpt lat="44.37987" lon="5.10156">
        <ele>354.3</ele>
        <time>2021-02-24T12:21:57Z</time>
      </trkpt>
      <trkpt lat="44.37991" lon="5.10154">
        <ele>354.4</ele>
        <time>2021-02-24T12:21:58Z</time>
      </trkpt>
      <trkpt lat="44.37995" lon="5.10151">
        <ele>354.4</ele>
        <time>2021-02-24T12:21:59Z</time>
      </trkpt>
      <trkpt lat="44.37999" lon="5.10148">
        <ele>354.5</ele>
        <time>2021-02-24T12:22:00Z</time>
      </trkpt>
      <trkpt lat="44.38003" lon="5.10146">
        <ele>354.5</ele>
        <time>2021-02-24T12:22:01Z</time>
      </trkpt>
      <trkpt lat="44.38007" lon="5.10144">
        <ele>354.5</ele>
        <time>2021-02-24T12:22:02Z</time>
      </trkpt>
      <trkpt lat="44.38011" lon="5.10141">
        <ele>354.6</ele>
        <time>2021-02-24T12:22:03Z</time>
      </trkpt>
      <trkpt lat="44.38014" lon="5.10139">
        <ele>354.6</ele>
        <time>2021-02-24T12:22:04Z</time>
      </trkpt>
      <trkpt lat="44.38018" lon="5.10136">
        <ele>354.7</ele>
        <time>2021-02-24T12:22:05Z</time>
      </trkpt>
      <trkpt lat="44.38022" lon="5.10134">
        <ele>354.7</ele>
        <time>2021-02-24T12:22:06Z</time>
      </trkpt>
      <trkpt lat="44.38026" lon="5.10132">
        <ele>354.8</ele>
        <time>2021-02-24T12:22:07Z</time>
      </trkpt>
      <trkpt lat="44.3803" lon="5.1013">
        <ele>354.8</ele>
        <time>2021-02-24T12:22:08Z</time>
      </trkpt>
      <trkpt lat="44.38034" lon="5.10127">
        <ele>354.9</ele>
        <time>2021-02-24T12:22:09Z</time>
      </trkpt>
      <trkpt lat="44.38034" lon="5.10127">
        <ele>354.9</ele>
        <time>2021-02-24T12:22:10Z</time>
      </trkpt>
      <trkpt lat="44.38037" lon="5.10125">
        <ele>354.9</ele>
        <time>2021-02-24T12:22:11Z</time>
      </trkpt>
      <trkpt lat="44.38041" lon="5.10123">
        <ele>355</ele>
        <time>2021-02-24T12:22:12Z</time>
      </trkpt>
      <trkpt lat="44.38045" lon="5.1012">
        <ele>355</ele>
        <time>2021-02-24T12:22:13Z</time>
      </trkpt>
      <trkpt lat="44.38049" lon="5.10118">
        <ele>355.1</ele>
        <time>2021-02-24T12:22:14Z</time>
      </trkpt>
      <trkpt lat="44.38053" lon="5.10116">
        <ele>355.2</ele>
        <time>2021-02-24T12:22:15Z</time>
      </trkpt>
      <trkpt lat="44.38056" lon="5.10113">
        <ele>355.2</ele>
        <time>2021-02-24T12:22:16Z</time>
      </trkpt>
      <trkpt lat="44.3806" lon="5.10111">
        <ele>355.3</ele>
        <time>2021-02-24T12:22:17Z</time>
      </trkpt>
      <trkpt lat="44.38064" lon="5.10108">
        <ele>355.3</ele>
        <time>2021-02-24T12:22:18Z</time>
      </trkpt>
      <trkpt lat="44.38068" lon="5.10106">
        <ele>355.4</ele>
        <time>2021-02-24T12:22:19Z</time>
      </trkpt>
      <trkpt lat="44.38073" lon="5.10103">
        <ele>355.5</ele>
        <time>2021-02-24T12:22:20Z</time>
      </trkpt>
      <trkpt lat="44.38077" lon="5.10101">
        <ele>355.5</ele>
        <time>2021-02-24T12:22:21Z</time>
      </trkpt>
      <trkpt lat="44.38081" lon="5.10099">
        <ele>355.6</ele>
        <time>2021-02-24T12:22:22Z</time>
      </trkpt>
      <trkpt lat="44.38085" lon="5.10096">
        <ele>355.6</ele>
        <time>2021-02-24T12:22:23Z</time>
      </trkpt>
      <trkpt lat="44.38089" lon="5.10093">
        <ele>355.7</ele>
        <time>2021-02-24T12:22:24Z</time>
      </trkpt>
      <trkpt lat="44.38093" lon="5.10091">
        <ele>355.7</ele>
        <time>2021-02-24T12:22:25Z</time>
      </trkpt>
      <trkpt lat="44.38097" lon="5.10088">
        <ele>355.8</ele>
        <time>2021-02-24T12:22:26Z</time>
      </trkpt>
      <trkpt lat="44.38105" lon="5.10083">
        <ele>355.9</ele>
        <time>2021-02-24T12:22:27Z</time>
      </trkpt>
      <trkpt lat="44.38109" lon="5.10081">
        <ele>355.9</ele>
        <time>2021-02-24T12:22:28Z</time>
      </trkpt>
      <trkpt lat="44.38109" lon="5.10081">
        <ele>355.9</ele>
        <time>2021-02-24T12:22:29Z</time>
      </trkpt>
      <trkpt lat="44.38113" lon="5.10079">
        <ele>356</ele>
        <time>2021-02-24T12:22:30Z</time>
      </trkpt>
      <trkpt lat="44.38116" lon="5.10076">
        <ele>356</ele>
        <time>2021-02-24T12:22:31Z</time>
      </trkpt>
      <trkpt lat="44.3812" lon="5.10074">
        <ele>356</ele>
        <time>2021-02-24T12:22:32Z</time>
      </trkpt>
      <trkpt lat="44.38124" lon="5.10073">
        <ele>356.1</ele>
        <time>2021-02-24T12:22:33Z</time>
      </trkpt>
      <trkpt lat="44.3813" lon="5.10069">
        <ele>356.1</ele>
        <time>2021-02-24T12:22:34Z</time>
      </trkpt>
      <trkpt lat="44.3813" lon="5.10069">
        <ele>356.1</ele>
        <time>2021-02-24T12:22:35Z</time>
      </trkpt>
      <trkpt lat="44.38133" lon="5.10066">
        <ele>356.2</ele>
        <time>2021-02-24T12:22:36Z</time>
      </trkpt>
      <trkpt lat="44.38136" lon="5.10064">
        <ele>356.2</ele>
        <time>2021-02-24T12:22:37Z</time>
      </trkpt>
      <trkpt lat="44.38139" lon="5.10061">
        <ele>356.2</ele>
        <time>2021-02-24T12:22:38Z</time>
      </trkpt>
      <trkpt lat="44.38143" lon="5.10058">
        <ele>356.3</ele>
        <time>2021-02-24T12:22:39Z</time>
      </trkpt>
      <trkpt lat="44.38146" lon="5.10055">
        <ele>356.3</ele>
        <time>2021-02-24T12:22:40Z</time>
      </trkpt>
      <trkpt lat="44.3815" lon="5.10052">
        <ele>356.4</ele>
        <time>2021-02-24T12:22:41Z</time>
      </trkpt>
      <trkpt lat="44.38153" lon="5.10048">
        <ele>356.4</ele>
        <time>2021-02-24T12:22:42Z</time>
      </trkpt>
      <trkpt lat="44.38156" lon="5.10045">
        <ele>356.5</ele>
        <time>2021-02-24T12:22:43Z</time>
      </trkpt>
      <trkpt lat="44.3816" lon="5.10042">
        <ele>356.5</ele>
        <time>2021-02-24T12:22:44Z</time>
      </trkpt>
      <trkpt lat="44.38163" lon="5.10038">
        <ele>356.6</ele>
        <time>2021-02-24T12:22:45Z</time>
      </trkpt>
      <trkpt lat="44.38166" lon="5.10034">
        <ele>356.6</ele>
        <time>2021-02-24T12:22:46Z</time>
      </trkpt>
      <trkpt lat="44.38173" lon="5.10026">
        <ele>356.7</ele>
        <time>2021-02-24T12:22:47Z</time>
      </trkpt>
      <trkpt lat="44.38173" lon="5.10026">
        <ele>356.7</ele>
        <time>2021-02-24T12:22:48Z</time>
      </trkpt>
      <trkpt lat="44.3818" lon="5.10019">
        <ele>356.8</ele>
        <time>2021-02-24T12:22:49Z</time>
      </trkpt>
      <trkpt lat="44.3818" lon="5.10019">
        <ele>356.8</ele>
        <time>2021-02-24T12:22:50Z</time>
      </trkpt>
      <trkpt lat="44.38188" lon="5.10011">
        <ele>356.9</ele>
        <time>2021-02-24T12:22:51Z</time>
      </trkpt>
      <trkpt lat="44.38191" lon="5.10008">
        <ele>356.9</ele>
        <time>2021-02-24T12:22:52Z</time>
      </trkpt>
      <trkpt lat="44.38195" lon="5.10004">
        <ele>357</ele>
        <time>2021-02-24T12:22:53Z</time>
      </trkpt>
      <trkpt lat="44.38198" lon="5.1">
        <ele>357</ele>
        <time>2021-02-24T12:22:54Z</time>
      </trkpt>
      <trkpt lat="44.38202" lon="5.09997">
        <ele>357</ele>
        <time>2021-02-24T12:22:55Z</time>
      </trkpt>
      <trkpt lat="44.38206" lon="5.09994">
        <ele>357.1</ele>
        <time>2021-02-24T12:22:56Z</time>
      </trkpt>
      <trkpt lat="44.38209" lon="5.0999">
        <ele>357.1</ele>
        <time>2021-02-24T12:22:57Z</time>
      </trkpt>
      <trkpt lat="44.38212" lon="5.09987">
        <ele>357.1</ele>
        <time>2021-02-24T12:22:58Z</time>
      </trkpt>
      <trkpt lat="44.38216" lon="5.09983">
        <ele>357.1</ele>
        <time>2021-02-24T12:22:59Z</time>
      </trkpt>
      <trkpt lat="44.38219" lon="5.0998">
        <ele>357.1</ele>
        <time>2021-02-24T12:23:00Z</time>
      </trkpt>
      <trkpt lat="44.38222" lon="5.09976">
        <ele>357.2</ele>
        <time>2021-02-24T12:23:01Z</time>
      </trkpt>
      <trkpt lat="44.38226" lon="5.09973">
        <ele>357.2</ele>
        <time>2021-02-24T12:23:02Z</time>
      </trkpt>
      <trkpt lat="44.38229" lon="5.09969">
        <ele>357.2</ele>
        <time>2021-02-24T12:23:03Z</time>
      </trkpt>
      <trkpt lat="44.38233" lon="5.09965">
        <ele>357.2</ele>
        <time>2021-02-24T12:23:04Z</time>
      </trkpt>
      <trkpt lat="44.38236" lon="5.09961">
        <ele>357.3</ele>
        <time>2021-02-24T12:23:05Z</time>
      </trkpt>
      <trkpt lat="44.3824" lon="5.09957">
        <ele>357.3</ele>
        <time>2021-02-24T12:23:06Z</time>
      </trkpt>
      <trkpt lat="44.3824" lon="5.09957">
        <ele>357.3</ele>
        <time>2021-02-24T12:23:07Z</time>
      </trkpt>
      <trkpt lat="44.38243" lon="5.09953">
        <ele>357.3</ele>
        <time>2021-02-24T12:23:08Z</time>
      </trkpt>
      <trkpt lat="44.38246" lon="5.09949">
        <ele>357.3</ele>
        <time>2021-02-24T12:23:09Z</time>
      </trkpt>
      <trkpt lat="44.3825" lon="5.09945">
        <ele>357.4</ele>
        <time>2021-02-24T12:23:10Z</time>
      </trkpt>
      <trkpt lat="44.38253" lon="5.09942">
        <ele>357.4</ele>
        <time>2021-02-24T12:23:11Z</time>
      </trkpt>
      <trkpt lat="44.38256" lon="5.09938">
        <ele>357.4</ele>
        <time>2021-02-24T12:23:12Z</time>
      </trkpt>
      <trkpt lat="44.38259" lon="5.09933">
        <ele>357.4</ele>
        <time>2021-02-24T12:23:13Z</time>
      </trkpt>
      <trkpt lat="44.38262" lon="5.09929">
        <ele>357.4</ele>
        <time>2021-02-24T12:23:14Z</time>
      </trkpt>
      <trkpt lat="44.38265" lon="5.09924">
        <ele>357.4</ele>
        <time>2021-02-24T12:23:15Z</time>
      </trkpt>
      <trkpt lat="44.38268" lon="5.0992">
        <ele>357.4</ele>
        <time>2021-02-24T12:23:16Z</time>
      </trkpt>
      <trkpt lat="44.38274" lon="5.0991">
        <ele>357.5</ele>
        <time>2021-02-24T12:23:17Z</time>
      </trkpt>
      <trkpt lat="44.38274" lon="5.0991">
        <ele>357.5</ele>
        <time>2021-02-24T12:23:18Z</time>
      </trkpt>
      <trkpt lat="44.38277" lon="5.09904">
        <ele>357.5</ele>
        <time>2021-02-24T12:23:19Z</time>
      </trkpt>
      <trkpt lat="44.3828" lon="5.09899">
        <ele>357.6</ele>
        <time>2021-02-24T12:23:20Z</time>
      </trkpt>
      <trkpt lat="44.38283" lon="5.09894">
        <ele>357.7</ele>
        <time>2021-02-24T12:23:21Z</time>
      </trkpt>
      <trkpt lat="44.38286" lon="5.09889">
        <ele>357.8</ele>
        <time>2021-02-24T12:23:22Z</time>
      </trkpt>
      <trkpt lat="44.38288" lon="5.09883">
        <ele>357.8</ele>
        <time>2021-02-24T12:23:23Z</time>
      </trkpt>
      <trkpt lat="44.38294" lon="5.09872">
        <ele>358</ele>
        <time>2021-02-24T12:23:24Z</time>
      </trkpt>
      <trkpt lat="44.38296" lon="5.09867">
        <ele>358.1</ele>
        <time>2021-02-24T12:23:25Z</time>
      </trkpt>
      <trkpt lat="44.38296" lon="5.09867">
        <ele>358.1</ele>
        <time>2021-02-24T12:23:26Z</time>
      </trkpt>
      <trkpt lat="44.38301" lon="5.09856">
        <ele>358.2</ele>
        <time>2021-02-24T12:23:27Z</time>
      </trkpt>
      <trkpt lat="44.38301" lon="5.09856">
        <ele>358.2</ele>
        <time>2021-02-24T12:23:28Z</time>
      </trkpt>
      <trkpt lat="44.38303" lon="5.0985">
        <ele>358.3</ele>
        <time>2021-02-24T12:23:29Z</time>
      </trkpt>
      <trkpt lat="44.38305" lon="5.09845">
        <ele>358.4</ele>
        <time>2021-02-24T12:23:30Z</time>
      </trkpt>
      <trkpt lat="44.38307" lon="5.09839">
        <ele>358.5</ele>
        <time>2021-02-24T12:23:31Z</time>
      </trkpt>
      <trkpt lat="44.38311" lon="5.09827">
        <ele>358.7</ele>
        <time>2021-02-24T12:23:32Z</time>
      </trkpt>
      <trkpt lat="44.38311" lon="5.09827">
        <ele>358.7</ele>
        <time>2021-02-24T12:23:33Z</time>
      </trkpt>
      <trkpt lat="44.38312" lon="5.09821">
        <ele>358.8</ele>
        <time>2021-02-24T12:23:34Z</time>
      </trkpt>
      <trkpt lat="44.38314" lon="5.09816">
        <ele>358.8</ele>
        <time>2021-02-24T12:23:35Z</time>
      </trkpt>
      <trkpt lat="44.38316" lon="5.0981">
        <ele>358.9</ele>
        <time>2021-02-24T12:23:36Z</time>
      </trkpt>
      <trkpt lat="44.38317" lon="5.09804">
        <ele>359.1</ele>
        <time>2021-02-24T12:23:37Z</time>
      </trkpt>
      <trkpt lat="44.38321" lon="5.09792">
        <ele>359.3</ele>
        <time>2021-02-24T12:23:38Z</time>
      </trkpt>
      <trkpt lat="44.38321" lon="5.09792">
        <ele>359.3</ele>
        <time>2021-02-24T12:23:39Z</time>
      </trkpt>
      <trkpt lat="44.38322" lon="5.09785">
        <ele>359.4</ele>
        <time>2021-02-24T12:23:40Z</time>
      </trkpt>
      <trkpt lat="44.38324" lon="5.0978">
        <ele>359.5</ele>
        <time>2021-02-24T12:23:41Z</time>
      </trkpt>
      <trkpt lat="44.38325" lon="5.09774">
        <ele>359.6</ele>
        <time>2021-02-24T12:23:42Z</time>
      </trkpt>
      <trkpt lat="44.38327" lon="5.09768">
        <ele>359.8</ele>
        <time>2021-02-24T12:23:43Z</time>
      </trkpt>
      <trkpt lat="44.3833" lon="5.09756">
        <ele>360.1</ele>
        <time>2021-02-24T12:23:44Z</time>
      </trkpt>
      <trkpt lat="44.38331" lon="5.09751">
        <ele>360.3</ele>
        <time>2021-02-24T12:23:45Z</time>
      </trkpt>
      <trkpt lat="44.38332" lon="5.09745">
        <ele>360.5</ele>
        <time>2021-02-24T12:23:46Z</time>
      </trkpt>
      <trkpt lat="44.38332" lon="5.09745">
        <ele>360.5</ele>
        <time>2021-02-24T12:23:47Z</time>
      </trkpt>
      <trkpt lat="44.38334" lon="5.0974">
        <ele>360.6</ele>
        <time>2021-02-24T12:23:48Z</time>
      </trkpt>
      <trkpt lat="44.38335" lon="5.09735">
        <ele>360.8</ele>
        <time>2021-02-24T12:23:49Z</time>
      </trkpt>
      <trkpt lat="44.38337" lon="5.0973">
        <ele>361</ele>
        <time>2021-02-24T12:23:50Z</time>
      </trkpt>
      <trkpt lat="44.38338" lon="5.09725">
        <ele>361.1</ele>
        <time>2021-02-24T12:23:51Z</time>
      </trkpt>
      <trkpt lat="44.38339" lon="5.0972">
        <ele>361.3</ele>
        <time>2021-02-24T12:23:52Z</time>
      </trkpt>
      <trkpt lat="44.3834" lon="5.09715">
        <ele>361.1</ele>
        <time>2021-02-24T12:23:53Z</time>
      </trkpt>
      <trkpt lat="44.38341" lon="5.0971">
        <ele>360.9</ele>
        <time>2021-02-24T12:23:54Z</time>
      </trkpt>
      <trkpt lat="44.38343" lon="5.09705">
        <ele>360.9</ele>
        <time>2021-02-24T12:23:55Z</time>
      </trkpt>
      <trkpt lat="44.38344" lon="5.097">
        <ele>360.9</ele>
        <time>2021-02-24T12:23:56Z</time>
      </trkpt>
      <trkpt lat="44.38345" lon="5.09696">
        <ele>360.8</ele>
        <time>2021-02-24T12:23:57Z</time>
      </trkpt>
      <trkpt lat="44.38346" lon="5.09691">
        <ele>360.8</ele>
        <time>2021-02-24T12:23:58Z</time>
      </trkpt>
      <trkpt lat="44.38348" lon="5.09686">
        <ele>360.9</ele>
        <time>2021-02-24T12:23:59Z</time>
      </trkpt>
      <trkpt lat="44.38349" lon="5.09681">
        <ele>361.1</ele>
        <time>2021-02-24T12:24:00Z</time>
      </trkpt>
      <trkpt lat="44.3835" lon="5.09677">
        <ele>361.3</ele>
        <time>2021-02-24T12:24:01Z</time>
      </trkpt>
      <trkpt lat="44.38352" lon="5.09672">
        <ele>361.4</ele>
        <time>2021-02-24T12:24:02Z</time>
      </trkpt>
      <trkpt lat="44.38355" lon="5.09664">
        <ele>361.7</ele>
        <time>2021-02-24T12:24:03Z</time>
      </trkpt>
      <trkpt lat="44.38355" lon="5.09664">
        <ele>361.7</ele>
        <time>2021-02-24T12:24:04Z</time>
      </trkpt>
      <trkpt lat="44.38357" lon="5.09656">
        <ele>362.1</ele>
        <time>2021-02-24T12:24:05Z</time>
      </trkpt>
      <trkpt lat="44.38357" lon="5.09656">
        <ele>362.1</ele>
        <time>2021-02-24T12:24:06Z</time>
      </trkpt>
      <trkpt lat="44.38359" lon="5.09652">
        <ele>362.3</ele>
        <time>2021-02-24T12:24:07Z</time>
      </trkpt>
      <trkpt lat="44.3836" lon="5.09648">
        <ele>362.5</ele>
        <time>2021-02-24T12:24:08Z</time>
      </trkpt>
      <trkpt lat="44.38362" lon="5.09644">
        <ele>362.7</ele>
        <time>2021-02-24T12:24:09Z</time>
      </trkpt>
      <trkpt lat="44.38363" lon="5.0964">
        <ele>362.8</ele>
        <time>2021-02-24T12:24:10Z</time>
      </trkpt>
      <trkpt lat="44.38365" lon="5.09636">
        <ele>363</ele>
        <time>2021-02-24T12:24:11Z</time>
      </trkpt>
      <trkpt lat="44.38367" lon="5.09632">
        <ele>363.2</ele>
        <time>2021-02-24T12:24:12Z</time>
      </trkpt>
      <trkpt lat="44.38369" lon="5.09628">
        <ele>363.4</ele>
        <time>2021-02-24T12:24:13Z</time>
      </trkpt>
      <trkpt lat="44.3837" lon="5.09624">
        <ele>363.6</ele>
        <time>2021-02-24T12:24:14Z</time>
      </trkpt>
      <trkpt lat="44.38372" lon="5.0962">
        <ele>363.8</ele>
        <time>2021-02-24T12:24:15Z</time>
      </trkpt>
      <trkpt lat="44.38374" lon="5.09616">
        <ele>364</ele>
        <time>2021-02-24T12:24:16Z</time>
      </trkpt>
      <trkpt lat="44.38376" lon="5.09612">
        <ele>364.2</ele>
        <time>2021-02-24T12:24:17Z</time>
      </trkpt>
      <trkpt lat="44.38378" lon="5.09608">
        <ele>364.4</ele>
        <time>2021-02-24T12:24:18Z</time>
      </trkpt>
      <trkpt lat="44.38382" lon="5.096">
        <ele>364.8</ele>
        <time>2021-02-24T12:24:19Z</time>
      </trkpt>
      <trkpt lat="44.38382" lon="5.096">
        <ele>364.8</ele>
        <time>2021-02-24T12:24:20Z</time>
      </trkpt>
      <trkpt lat="44.38384" lon="5.09597">
        <ele>365</ele>
        <time>2021-02-24T12:24:21Z</time>
      </trkpt>
      <trkpt lat="44.38388" lon="5.09589">
        <ele>365.5</ele>
        <time>2021-02-24T12:24:22Z</time>
      </trkpt>
      <trkpt lat="44.3839" lon="5.09585">
        <ele>365.7</ele>
        <time>2021-02-24T12:24:23Z</time>
      </trkpt>
      <trkpt lat="44.38392" lon="5.09582">
        <ele>365.9</ele>
        <time>2021-02-24T12:24:24Z</time>
      </trkpt>
      <trkpt lat="44.38394" lon="5.09578">
        <ele>366.1</ele>
        <time>2021-02-24T12:24:25Z</time>
      </trkpt>
      <trkpt lat="44.38396" lon="5.09574">
        <ele>366.3</ele>
        <time>2021-02-24T12:24:26Z</time>
      </trkpt>
      <trkpt lat="44.38399" lon="5.09571">
        <ele>366.5</ele>
        <time>2021-02-24T12:24:27Z</time>
      </trkpt>
      <trkpt lat="44.38401" lon="5.09568">
        <ele>366.7</ele>
        <time>2021-02-24T12:24:28Z</time>
      </trkpt>
      <trkpt lat="44.38403" lon="5.09564">
        <ele>367</ele>
        <time>2021-02-24T12:24:29Z</time>
      </trkpt>
      <trkpt lat="44.38406" lon="5.09561">
        <ele>367.2</ele>
        <time>2021-02-24T12:24:30Z</time>
      </trkpt>
      <trkpt lat="44.38408" lon="5.09558">
        <ele>367.4</ele>
        <time>2021-02-24T12:24:31Z</time>
      </trkpt>
      <trkpt lat="44.3841" lon="5.09555">
        <ele>367.6</ele>
        <time>2021-02-24T12:24:32Z</time>
      </trkpt>
      <trkpt lat="44.38413" lon="5.09552">
        <ele>367.8</ele>
        <time>2021-02-24T12:24:33Z</time>
      </trkpt>
      <trkpt lat="44.38415" lon="5.09549">
        <ele>368</ele>
        <time>2021-02-24T12:24:34Z</time>
      </trkpt>
      <trkpt lat="44.38418" lon="5.09546">
        <ele>368.2</ele>
        <time>2021-02-24T12:24:35Z</time>
      </trkpt>
      <trkpt lat="44.38421" lon="5.09543">
        <ele>368.4</ele>
        <time>2021-02-24T12:24:36Z</time>
      </trkpt>
      <trkpt lat="44.38423" lon="5.0954">
        <ele>368.7</ele>
        <time>2021-02-24T12:24:37Z</time>
      </trkpt>
      <trkpt lat="44.38426" lon="5.09537">
        <ele>368.9</ele>
        <time>2021-02-24T12:24:38Z</time>
      </trkpt>
      <trkpt lat="44.38428" lon="5.09534">
        <ele>369</ele>
        <time>2021-02-24T12:24:39Z</time>
      </trkpt>
      <trkpt lat="44.38431" lon="5.09532">
        <ele>369.2</ele>
        <time>2021-02-24T12:24:40Z</time>
      </trkpt>
      <trkpt lat="44.38434" lon="5.09529">
        <ele>369.4</ele>
        <time>2021-02-24T12:24:41Z</time>
      </trkpt>
      <trkpt lat="44.38436" lon="5.09526">
        <ele>369.6</ele>
        <time>2021-02-24T12:24:42Z</time>
      </trkpt>
      <trkpt lat="44.38439" lon="5.09523">
        <ele>369.8</ele>
        <time>2021-02-24T12:24:43Z</time>
      </trkpt>
      <trkpt lat="44.38441" lon="5.0952">
        <ele>370</ele>
        <time>2021-02-24T12:24:44Z</time>
      </trkpt>
      <trkpt lat="44.38444" lon="5.09517">
        <ele>370.2</ele>
        <time>2021-02-24T12:24:45Z</time>
      </trkpt>
      <trkpt lat="44.38447" lon="5.09515">
        <ele>370.4</ele>
        <time>2021-02-24T12:24:46Z</time>
      </trkpt>
      <trkpt lat="44.3845" lon="5.09512">
        <ele>370.6</ele>
        <time>2021-02-24T12:24:47Z</time>
      </trkpt>
      <trkpt lat="44.38452" lon="5.09509">
        <ele>370.7</ele>
        <time>2021-02-24T12:24:48Z</time>
      </trkpt>
      <trkpt lat="44.38455" lon="5.09506">
        <ele>370.9</ele>
        <time>2021-02-24T12:24:49Z</time>
      </trkpt>
      <trkpt lat="44.38458" lon="5.09503">
        <ele>371.1</ele>
        <time>2021-02-24T12:24:50Z</time>
      </trkpt>
      <trkpt lat="44.3846" lon="5.095">
        <ele>371.3</ele>
        <time>2021-02-24T12:24:51Z</time>
      </trkpt>
      <trkpt lat="44.38463" lon="5.09497">
        <ele>371.5</ele>
        <time>2021-02-24T12:24:52Z</time>
      </trkpt>
      <trkpt lat="44.38466" lon="5.09494">
        <ele>371.7</ele>
        <time>2021-02-24T12:24:53Z</time>
      </trkpt>
      <trkpt lat="44.38468" lon="5.09491">
        <ele>371.9</ele>
        <time>2021-02-24T12:24:54Z</time>
      </trkpt>
      <trkpt lat="44.38471" lon="5.09488">
        <ele>372</ele>
        <time>2021-02-24T12:24:55Z</time>
      </trkpt>
      <trkpt lat="44.38473" lon="5.09486">
        <ele>372.2</ele>
        <time>2021-02-24T12:24:56Z</time>
      </trkpt>
      <trkpt lat="44.38476" lon="5.09483">
        <ele>372.4</ele>
        <time>2021-02-24T12:24:57Z</time>
      </trkpt>
      <trkpt lat="44.38478" lon="5.0948">
        <ele>372.6</ele>
        <time>2021-02-24T12:24:58Z</time>
      </trkpt>
      <trkpt lat="44.38481" lon="5.09477">
        <ele>372.7</ele>
        <time>2021-02-24T12:24:59Z</time>
      </trkpt>
      <trkpt lat="44.38483" lon="5.09475">
        <ele>372.9</ele>
        <time>2021-02-24T12:25:00Z</time>
      </trkpt>
      <trkpt lat="44.38486" lon="5.09472">
        <ele>373.1</ele>
        <time>2021-02-24T12:25:01Z</time>
      </trkpt>
      <trkpt lat="44.38488" lon="5.09469">
        <ele>373.3</ele>
        <time>2021-02-24T12:25:02Z</time>
      </trkpt>
      <trkpt lat="44.38491" lon="5.09466">
        <ele>373.4</ele>
        <time>2021-02-24T12:25:03Z</time>
      </trkpt>
      <trkpt lat="44.38493" lon="5.09463">
        <ele>373.6</ele>
        <time>2021-02-24T12:25:04Z</time>
      </trkpt>
      <trkpt lat="44.38496" lon="5.09461">
        <ele>373.8</ele>
        <time>2021-02-24T12:25:05Z</time>
      </trkpt>
      <trkpt lat="44.38498" lon="5.09458">
        <ele>373.9</ele>
        <time>2021-02-24T12:25:06Z</time>
      </trkpt>
      <trkpt lat="44.38501" lon="5.09456">
        <ele>374.1</ele>
        <time>2021-02-24T12:25:07Z</time>
      </trkpt>
      <trkpt lat="44.38503" lon="5.09453">
        <ele>374.2</ele>
        <time>2021-02-24T12:25:08Z</time>
      </trkpt>
      <trkpt lat="44.38505" lon="5.0945">
        <ele>374.4</ele>
        <time>2021-02-24T12:25:09Z</time>
      </trkpt>
      <trkpt lat="44.38508" lon="5.09448">
        <ele>374.6</ele>
        <time>2021-02-24T12:25:10Z</time>
      </trkpt>
      <trkpt lat="44.3851" lon="5.09445">
        <ele>374.7</ele>
        <time>2021-02-24T12:25:11Z</time>
      </trkpt>
      <trkpt lat="44.38513" lon="5.09442">
        <ele>374.9</ele>
        <time>2021-02-24T12:25:12Z</time>
      </trkpt>
      <trkpt lat="44.38515" lon="5.09439">
        <ele>375.1</ele>
        <time>2021-02-24T12:25:13Z</time>
      </trkpt>
      <trkpt lat="44.38518" lon="5.09437">
        <ele>375.2</ele>
        <time>2021-02-24T12:25:14Z</time>
      </trkpt>
      <trkpt lat="44.3852" lon="5.09434">
        <ele>375.4</ele>
        <time>2021-02-24T12:25:15Z</time>
      </trkpt>
      <trkpt lat="44.38523" lon="5.09431">
        <ele>375.6</ele>
        <time>2021-02-24T12:25:16Z</time>
      </trkpt>
      <trkpt lat="44.38523" lon="5.09431">
        <ele>375.6</ele>
        <time>2021-02-24T12:25:17Z</time>
      </trkpt>
      <trkpt lat="44.38525" lon="5.09429">
        <ele>375.7</ele>
        <time>2021-02-24T12:25:18Z</time>
      </trkpt>
      <trkpt lat="44.3853" lon="5.09423">
        <ele>376</ele>
        <time>2021-02-24T12:25:19Z</time>
      </trkpt>
      <trkpt lat="44.3853" lon="5.09423">
        <ele>376</ele>
        <time>2021-02-24T12:25:20Z</time>
      </trkpt>
      <trkpt lat="44.38533" lon="5.09421">
        <ele>376.1</ele>
        <time>2021-02-24T12:25:21Z</time>
      </trkpt>
      <trkpt lat="44.38536" lon="5.09418">
        <ele>376.3</ele>
        <time>2021-02-24T12:25:22Z</time>
      </trkpt>
      <trkpt lat="44.38538" lon="5.09415">
        <ele>376.4</ele>
        <time>2021-02-24T12:25:23Z</time>
      </trkpt>
      <trkpt lat="44.38541" lon="5.09413">
        <ele>376.5</ele>
        <time>2021-02-24T12:25:24Z</time>
      </trkpt>
      <trkpt lat="44.38543" lon="5.0941">
        <ele>376.6</ele>
        <time>2021-02-24T12:25:25Z</time>
      </trkpt>
      <trkpt lat="44.38546" lon="5.09408">
        <ele>376.8</ele>
        <time>2021-02-24T12:25:26Z</time>
      </trkpt>
      <trkpt lat="44.38549" lon="5.09406">
        <ele>376.9</ele>
        <time>2021-02-24T12:25:27Z</time>
      </trkpt>
      <trkpt lat="44.38552" lon="5.09403">
        <ele>377</ele>
        <time>2021-02-24T12:25:28Z</time>
      </trkpt>
      <trkpt lat="44.38554" lon="5.094">
        <ele>377.1</ele>
        <time>2021-02-24T12:25:29Z</time>
      </trkpt>
      <trkpt lat="44.38557" lon="5.09398">
        <ele>377.2</ele>
        <time>2021-02-24T12:25:30Z</time>
      </trkpt>
      <trkpt lat="44.3856" lon="5.09395">
        <ele>377.3</ele>
        <time>2021-02-24T12:25:31Z</time>
      </trkpt>
      <trkpt lat="44.38562" lon="5.09393">
        <ele>377.5</ele>
        <time>2021-02-24T12:25:32Z</time>
      </trkpt>
      <trkpt lat="44.38565" lon="5.0939">
        <ele>377.6</ele>
        <time>2021-02-24T12:25:33Z</time>
      </trkpt>
      <trkpt lat="44.38568" lon="5.09388">
        <ele>377.7</ele>
        <time>2021-02-24T12:25:34Z</time>
      </trkpt>
      <trkpt lat="44.38571" lon="5.09386">
        <ele>377.8</ele>
        <time>2021-02-24T12:25:35Z</time>
      </trkpt>
      <trkpt lat="44.38574" lon="5.09383">
        <ele>378</ele>
        <time>2021-02-24T12:25:36Z</time>
      </trkpt>
      <trkpt lat="44.38579" lon="5.09378">
        <ele>378.2</ele>
        <time>2021-02-24T12:25:37Z</time>
      </trkpt>
      <trkpt lat="44.38582" lon="5.09376">
        <ele>378.3</ele>
        <time>2021-02-24T12:25:38Z</time>
      </trkpt>
      <trkpt lat="44.38585" lon="5.09373">
        <ele>378.4</ele>
        <time>2021-02-24T12:25:39Z</time>
      </trkpt>
      <trkpt lat="44.38588" lon="5.0937">
        <ele>378.6</ele>
        <time>2021-02-24T12:25:40Z</time>
      </trkpt>
      <trkpt lat="44.38591" lon="5.09367">
        <ele>378.7</ele>
        <time>2021-02-24T12:25:41Z</time>
      </trkpt>
      <trkpt lat="44.38593" lon="5.09364">
        <ele>378.8</ele>
        <time>2021-02-24T12:25:42Z</time>
      </trkpt>
      <trkpt lat="44.38596" lon="5.09362">
        <ele>378.9</ele>
        <time>2021-02-24T12:25:43Z</time>
      </trkpt>
      <trkpt lat="44.38599" lon="5.09359">
        <ele>379.1</ele>
        <time>2021-02-24T12:25:44Z</time>
      </trkpt>
      <trkpt lat="44.38602" lon="5.09356">
        <ele>379.2</ele>
        <time>2021-02-24T12:25:45Z</time>
      </trkpt>
      <trkpt lat="44.38605" lon="5.09353">
        <ele>379.3</ele>
        <time>2021-02-24T12:25:46Z</time>
      </trkpt>
      <trkpt lat="44.38605" lon="5.09353">
        <ele>379.3</ele>
        <time>2021-02-24T12:25:47Z</time>
      </trkpt>
      <trkpt lat="44.38608" lon="5.0935">
        <ele>379.4</ele>
        <time>2021-02-24T12:25:48Z</time>
      </trkpt>
      <trkpt lat="44.38614" lon="5.09345">
        <ele>379.7</ele>
        <time>2021-02-24T12:25:49Z</time>
      </trkpt>
      <trkpt lat="44.38614" lon="5.09345">
        <ele>379.7</ele>
        <time>2021-02-24T12:25:50Z</time>
      </trkpt>
      <trkpt lat="44.38617" lon="5.09342">
        <ele>379.8</ele>
        <time>2021-02-24T12:25:51Z</time>
      </trkpt>
      <trkpt lat="44.3862" lon="5.09339">
        <ele>379.9</ele>
        <time>2021-02-24T12:25:52Z</time>
      </trkpt>
      <trkpt lat="44.38623" lon="5.09337">
        <ele>380.1</ele>
        <time>2021-02-24T12:25:53Z</time>
      </trkpt>
      <trkpt lat="44.38629" lon="5.09331">
        <ele>380.3</ele>
        <time>2021-02-24T12:25:54Z</time>
      </trkpt>
      <trkpt lat="44.38629" lon="5.09331">
        <ele>380.3</ele>
        <time>2021-02-24T12:25:55Z</time>
      </trkpt>
      <trkpt lat="44.38632" lon="5.09328">
        <ele>380.5</ele>
        <time>2021-02-24T12:25:56Z</time>
      </trkpt>
      <trkpt lat="44.38638" lon="5.09322">
        <ele>380.7</ele>
        <time>2021-02-24T12:25:57Z</time>
      </trkpt>
      <trkpt lat="44.38638" lon="5.09322">
        <ele>380.7</ele>
        <time>2021-02-24T12:25:58Z</time>
      </trkpt>
      <trkpt lat="44.38641" lon="5.09319">
        <ele>380.9</ele>
        <time>2021-02-24T12:25:59Z</time>
      </trkpt>
      <trkpt lat="44.38644" lon="5.09316">
        <ele>381</ele>
        <time>2021-02-24T12:26:00Z</time>
      </trkpt>
      <trkpt lat="44.3865" lon="5.0931">
        <ele>381.2</ele>
        <time>2021-02-24T12:26:01Z</time>
      </trkpt>
      <trkpt lat="44.38653" lon="5.09307">
        <ele>381.3</ele>
        <time>2021-02-24T12:26:02Z</time>
      </trkpt>
      <trkpt lat="44.38656" lon="5.09304">
        <ele>381.4</ele>
        <time>2021-02-24T12:26:03Z</time>
      </trkpt>
      <trkpt lat="44.38659" lon="5.09301">
        <ele>381.5</ele>
        <time>2021-02-24T12:26:04Z</time>
      </trkpt>
      <trkpt lat="44.38662" lon="5.09298">
        <ele>381.6</ele>
        <time>2021-02-24T12:26:05Z</time>
      </trkpt>
      <trkpt lat="44.38665" lon="5.09295">
        <ele>381.7</ele>
        <time>2021-02-24T12:26:06Z</time>
      </trkpt>
      <trkpt lat="44.38668" lon="5.09293">
        <ele>381.8</ele>
        <time>2021-02-24T12:26:07Z</time>
      </trkpt>
      <trkpt lat="44.38671" lon="5.0929">
        <ele>381.9</ele>
        <time>2021-02-24T12:26:08Z</time>
      </trkpt>
      <trkpt lat="44.38674" lon="5.09288">
        <ele>382</ele>
        <time>2021-02-24T12:26:09Z</time>
      </trkpt>
      <trkpt lat="44.38677" lon="5.09285">
        <ele>382.2</ele>
        <time>2021-02-24T12:26:10Z</time>
      </trkpt>
      <trkpt lat="44.3868" lon="5.09282">
        <ele>382.3</ele>
        <time>2021-02-24T12:26:11Z</time>
      </trkpt>
      <trkpt lat="44.38683" lon="5.0928">
        <ele>382.4</ele>
        <time>2021-02-24T12:26:12Z</time>
      </trkpt>
      <trkpt lat="44.38686" lon="5.09277">
        <ele>382.5</ele>
        <time>2021-02-24T12:26:13Z</time>
      </trkpt>
      <trkpt lat="44.3869" lon="5.09274">
        <ele>382.6</ele>
        <time>2021-02-24T12:26:14Z</time>
      </trkpt>
      <trkpt lat="44.38693" lon="5.09272">
        <ele>382.8</ele>
        <time>2021-02-24T12:26:15Z</time>
      </trkpt>
      <trkpt lat="44.38696" lon="5.09269">
        <ele>382.9</ele>
        <time>2021-02-24T12:26:16Z</time>
      </trkpt>
      <trkpt lat="44.38696" lon="5.09269">
        <ele>382.9</ele>
        <time>2021-02-24T12:26:17Z</time>
      </trkpt>
      <trkpt lat="44.38701" lon="5.09263">
        <ele>383.1</ele>
        <time>2021-02-24T12:26:18Z</time>
      </trkpt>
      <trkpt lat="44.38701" lon="5.09263">
        <ele>383.1</ele>
        <time>2021-02-24T12:26:19Z</time>
      </trkpt>
      <trkpt lat="44.38704" lon="5.09261">
        <ele>383.2</ele>
        <time>2021-02-24T12:26:20Z</time>
      </trkpt>
      <trkpt lat="44.38707" lon="5.09258">
        <ele>383.3</ele>
        <time>2021-02-24T12:26:21Z</time>
      </trkpt>
      <trkpt lat="44.38711" lon="5.09255">
        <ele>383.4</ele>
        <time>2021-02-24T12:26:22Z</time>
      </trkpt>
      <trkpt lat="44.38714" lon="5.09252">
        <ele>383.5</ele>
        <time>2021-02-24T12:26:23Z</time>
      </trkpt>
      <trkpt lat="44.38717" lon="5.09249">
        <ele>383.6</ele>
        <time>2021-02-24T12:26:24Z</time>
      </trkpt>
      <trkpt lat="44.3872" lon="5.09246">
        <ele>383.7</ele>
        <time>2021-02-24T12:26:25Z</time>
      </trkpt>
      <trkpt lat="44.38723" lon="5.09243">
        <ele>383.8</ele>
        <time>2021-02-24T12:26:26Z</time>
      </trkpt>
      <trkpt lat="44.38726" lon="5.0924">
        <ele>383.9</ele>
        <time>2021-02-24T12:26:27Z</time>
      </trkpt>
      <trkpt lat="44.3873" lon="5.09237">
        <ele>384.1</ele>
        <time>2021-02-24T12:26:28Z</time>
      </trkpt>
      <trkpt lat="44.38733" lon="5.09233">
        <ele>384.2</ele>
        <time>2021-02-24T12:26:29Z</time>
      </trkpt>
      <trkpt lat="44.38736" lon="5.0923">
        <ele>384.3</ele>
        <time>2021-02-24T12:26:30Z</time>
      </trkpt>
      <trkpt lat="44.38743" lon="5.09224">
        <ele>384.5</ele>
        <time>2021-02-24T12:26:31Z</time>
      </trkpt>
      <trkpt lat="44.38743" lon="5.09224">
        <ele>384.5</ele>
        <time>2021-02-24T12:26:32Z</time>
      </trkpt>
      <trkpt lat="44.38747" lon="5.09222">
        <ele>384.6</ele>
        <time>2021-02-24T12:26:33Z</time>
      </trkpt>
      <trkpt lat="44.3875" lon="5.09219">
        <ele>384.7</ele>
        <time>2021-02-24T12:26:34Z</time>
      </trkpt>
      <trkpt lat="44.38757" lon="5.09214">
        <ele>385</ele>
        <time>2021-02-24T12:26:35Z</time>
      </trkpt>
      <trkpt lat="44.38757" lon="5.09214">
        <ele>385</ele>
        <time>2021-02-24T12:26:36Z</time>
      </trkpt>
      <trkpt lat="44.38764" lon="5.09208">
        <ele>385.2</ele>
        <time>2021-02-24T12:26:37Z</time>
      </trkpt>
      <trkpt lat="44.38764" lon="5.09208">
        <ele>385.2</ele>
        <time>2021-02-24T12:26:38Z</time>
      </trkpt>
      <trkpt lat="44.38767" lon="5.09205">
        <ele>385.3</ele>
        <time>2021-02-24T12:26:39Z</time>
      </trkpt>
      <trkpt lat="44.38771" lon="5.09203">
        <ele>385.5</ele>
        <time>2021-02-24T12:26:40Z</time>
      </trkpt>
      <trkpt lat="44.38774" lon="5.092">
        <ele>385.6</ele>
        <time>2021-02-24T12:26:41Z</time>
      </trkpt>
      <trkpt lat="44.38777" lon="5.09198">
        <ele>385.7</ele>
        <time>2021-02-24T12:26:42Z</time>
      </trkpt>
      <trkpt lat="44.38781" lon="5.09195">
        <ele>385.8</ele>
        <time>2021-02-24T12:26:43Z</time>
      </trkpt>
      <trkpt lat="44.38784" lon="5.09192">
        <ele>385.9</ele>
        <time>2021-02-24T12:26:44Z</time>
      </trkpt>
      <trkpt lat="44.38787" lon="5.09189">
        <ele>386.1</ele>
        <time>2021-02-24T12:26:45Z</time>
      </trkpt>
      <trkpt lat="44.38791" lon="5.09187">
        <ele>386.2</ele>
        <time>2021-02-24T12:26:46Z</time>
      </trkpt>
      <trkpt lat="44.38795" lon="5.09184">
        <ele>386.3</ele>
        <time>2021-02-24T12:26:47Z</time>
      </trkpt>
      <trkpt lat="44.38798" lon="5.09181">
        <ele>386.5</ele>
        <time>2021-02-24T12:26:48Z</time>
      </trkpt>
      <trkpt lat="44.38802" lon="5.09178">
        <ele>386.6</ele>
        <time>2021-02-24T12:26:49Z</time>
      </trkpt>
      <trkpt lat="44.38809" lon="5.09172">
        <ele>386.8</ele>
        <time>2021-02-24T12:26:50Z</time>
      </trkpt>
      <trkpt lat="44.38809" lon="5.09172">
        <ele>386.8</ele>
        <time>2021-02-24T12:26:51Z</time>
      </trkpt>
      <trkpt lat="44.38812" lon="5.09169">
        <ele>387</ele>
        <time>2021-02-24T12:26:52Z</time>
      </trkpt>
      <trkpt lat="44.3882" lon="5.09164">
        <ele>387.2</ele>
        <time>2021-02-24T12:26:53Z</time>
      </trkpt>
      <trkpt lat="44.38823" lon="5.09161">
        <ele>387.3</ele>
        <time>2021-02-24T12:26:54Z</time>
      </trkpt>
      <trkpt lat="44.38827" lon="5.09158">
        <ele>387.5</ele>
        <time>2021-02-24T12:26:55Z</time>
      </trkpt>
      <trkpt lat="44.3883" lon="5.09155">
        <ele>387.6</ele>
        <time>2021-02-24T12:26:56Z</time>
      </trkpt>
      <trkpt lat="44.38834" lon="5.09152">
        <ele>387.7</ele>
        <time>2021-02-24T12:26:57Z</time>
      </trkpt>
      <trkpt lat="44.38837" lon="5.09149">
        <ele>387.9</ele>
        <time>2021-02-24T12:26:58Z</time>
      </trkpt>
      <trkpt lat="44.38841" lon="5.09146">
        <ele>388</ele>
        <time>2021-02-24T12:26:59Z</time>
      </trkpt>
      <trkpt lat="44.38845" lon="5.09143">
        <ele>388.1</ele>
        <time>2021-02-24T12:27:00Z</time>
      </trkpt>
      <trkpt lat="44.38849" lon="5.09141">
        <ele>388.3</ele>
        <time>2021-02-24T12:27:01Z</time>
      </trkpt>
      <trkpt lat="44.38852" lon="5.09138">
        <ele>388.4</ele>
        <time>2021-02-24T12:27:02Z</time>
      </trkpt>
      <trkpt lat="44.38856" lon="5.09135">
        <ele>388.5</ele>
        <time>2021-02-24T12:27:03Z</time>
      </trkpt>
      <trkpt lat="44.3886" lon="5.09132">
        <ele>388.6</ele>
        <time>2021-02-24T12:27:04Z</time>
      </trkpt>
      <trkpt lat="44.3886" lon="5.09132">
        <ele>388.6</ele>
        <time>2021-02-24T12:27:05Z</time>
      </trkpt>
      <trkpt lat="44.38863" lon="5.09129">
        <ele>388.8</ele>
        <time>2021-02-24T12:27:06Z</time>
      </trkpt>
      <trkpt lat="44.38867" lon="5.09126">
        <ele>388.9</ele>
        <time>2021-02-24T12:27:07Z</time>
      </trkpt>
      <trkpt lat="44.38871" lon="5.09123">
        <ele>389</ele>
        <time>2021-02-24T12:27:08Z</time>
      </trkpt>
      <trkpt lat="44.38874" lon="5.0912">
        <ele>389.1</ele>
        <time>2021-02-24T12:27:09Z</time>
      </trkpt>
      <trkpt lat="44.38878" lon="5.09118">
        <ele>389.3</ele>
        <time>2021-02-24T12:27:10Z</time>
      </trkpt>
      <trkpt lat="44.38881" lon="5.09115">
        <ele>389.4</ele>
        <time>2021-02-24T12:27:11Z</time>
      </trkpt>
      <trkpt lat="44.38885" lon="5.09112">
        <ele>389.5</ele>
        <time>2021-02-24T12:27:12Z</time>
      </trkpt>
      <trkpt lat="44.38892" lon="5.09106">
        <ele>389.7</ele>
        <time>2021-02-24T12:27:13Z</time>
      </trkpt>
      <trkpt lat="44.38895" lon="5.09103">
        <ele>389.8</ele>
        <time>2021-02-24T12:27:14Z</time>
      </trkpt>
      <trkpt lat="44.38899" lon="5.09101">
        <ele>390</ele>
        <time>2021-02-24T12:27:15Z</time>
      </trkpt>
      <trkpt lat="44.38902" lon="5.09098">
        <ele>390.1</ele>
        <time>2021-02-24T12:27:16Z</time>
      </trkpt>
      <trkpt lat="44.38906" lon="5.09095">
        <ele>390.2</ele>
        <time>2021-02-24T12:27:17Z</time>
      </trkpt>
      <trkpt lat="44.38909" lon="5.09092">
        <ele>390.3</ele>
        <time>2021-02-24T12:27:18Z</time>
      </trkpt>
      <trkpt lat="44.38913" lon="5.09089">
        <ele>390.4</ele>
        <time>2021-02-24T12:27:19Z</time>
      </trkpt>
      <trkpt lat="44.38917" lon="5.09086">
        <ele>390.5</ele>
        <time>2021-02-24T12:27:20Z</time>
      </trkpt>
      <trkpt lat="44.3892" lon="5.09083">
        <ele>390.6</ele>
        <time>2021-02-24T12:27:21Z</time>
      </trkpt>
      <trkpt lat="44.38924" lon="5.09081">
        <ele>390.7</ele>
        <time>2021-02-24T12:27:22Z</time>
      </trkpt>
      <trkpt lat="44.38927" lon="5.09078">
        <ele>390.9</ele>
        <time>2021-02-24T12:27:23Z</time>
      </trkpt>
      <trkpt lat="44.38931" lon="5.09075">
        <ele>391</ele>
        <time>2021-02-24T12:27:24Z</time>
      </trkpt>
      <trkpt lat="44.38935" lon="5.09072">
        <ele>391.1</ele>
        <time>2021-02-24T12:27:25Z</time>
      </trkpt>
      <trkpt lat="44.38939" lon="5.09069">
        <ele>391.2</ele>
        <time>2021-02-24T12:27:26Z</time>
      </trkpt>
      <trkpt lat="44.38943" lon="5.09066">
        <ele>391.3</ele>
        <time>2021-02-24T12:27:27Z</time>
      </trkpt>
      <trkpt lat="44.38946" lon="5.09063">
        <ele>391.4</ele>
        <time>2021-02-24T12:27:28Z</time>
      </trkpt>
      <trkpt lat="44.38946" lon="5.09063">
        <ele>391.4</ele>
        <time>2021-02-24T12:27:29Z</time>
      </trkpt>
      <trkpt lat="44.3895" lon="5.0906">
        <ele>391.6</ele>
        <time>2021-02-24T12:27:30Z</time>
      </trkpt>
      <trkpt lat="44.38954" lon="5.09057">
        <ele>391.7</ele>
        <time>2021-02-24T12:27:31Z</time>
      </trkpt>
      <trkpt lat="44.38962" lon="5.09051">
        <ele>391.9</ele>
        <time>2021-02-24T12:27:32Z</time>
      </trkpt>
      <trkpt lat="44.38965" lon="5.09049">
        <ele>392.1</ele>
        <time>2021-02-24T12:27:33Z</time>
      </trkpt>
      <trkpt lat="44.38969" lon="5.09046">
        <ele>392.2</ele>
        <time>2021-02-24T12:27:34Z</time>
      </trkpt>
      <trkpt lat="44.38973" lon="5.09043">
        <ele>392.3</ele>
        <time>2021-02-24T12:27:35Z</time>
      </trkpt>
      <trkpt lat="44.38977" lon="5.09041">
        <ele>392.4</ele>
        <time>2021-02-24T12:27:36Z</time>
      </trkpt>
      <trkpt lat="44.3898" lon="5.09038">
        <ele>392.5</ele>
        <time>2021-02-24T12:27:37Z</time>
      </trkpt>
      <trkpt lat="44.38984" lon="5.09036">
        <ele>392.7</ele>
        <time>2021-02-24T12:27:38Z</time>
      </trkpt>
      <trkpt lat="44.38988" lon="5.09033">
        <ele>392.8</ele>
        <time>2021-02-24T12:27:39Z</time>
      </trkpt>
      <trkpt lat="44.38991" lon="5.09031">
        <ele>392.9</ele>
        <time>2021-02-24T12:27:40Z</time>
      </trkpt>
      <trkpt lat="44.38995" lon="5.09028">
        <ele>393</ele>
        <time>2021-02-24T12:27:41Z</time>
      </trkpt>
      <trkpt lat="44.38999" lon="5.09025">
        <ele>393.1</ele>
        <time>2021-02-24T12:27:42Z</time>
      </trkpt>
      <trkpt lat="44.39003" lon="5.09023">
        <ele>393.3</ele>
        <time>2021-02-24T12:27:43Z</time>
      </trkpt>
      <trkpt lat="44.39007" lon="5.0902">
        <ele>393.4</ele>
        <time>2021-02-24T12:27:44Z</time>
      </trkpt>
      <trkpt lat="44.39011" lon="5.09017">
        <ele>393.5</ele>
        <time>2021-02-24T12:27:45Z</time>
      </trkpt>
      <trkpt lat="44.39015" lon="5.09015">
        <ele>393.6</ele>
        <time>2021-02-24T12:27:46Z</time>
      </trkpt>
      <trkpt lat="44.39018" lon="5.09012">
        <ele>393.8</ele>
        <time>2021-02-24T12:27:47Z</time>
      </trkpt>
      <trkpt lat="44.39022" lon="5.09009">
        <ele>393.9</ele>
        <time>2021-02-24T12:27:48Z</time>
      </trkpt>
      <trkpt lat="44.39026" lon="5.09007">
        <ele>394</ele>
        <time>2021-02-24T12:27:49Z</time>
      </trkpt>
      <trkpt lat="44.3903" lon="5.09004">
        <ele>394.1</ele>
        <time>2021-02-24T12:27:50Z</time>
      </trkpt>
      <trkpt lat="44.39034" lon="5.09002">
        <ele>394.3</ele>
        <time>2021-02-24T12:27:51Z</time>
      </trkpt>
      <trkpt lat="44.39038" lon="5.08999">
        <ele>394.4</ele>
        <time>2021-02-24T12:27:52Z</time>
      </trkpt>
      <trkpt lat="44.39041" lon="5.08997">
        <ele>394.5</ele>
        <time>2021-02-24T12:27:53Z</time>
      </trkpt>
      <trkpt lat="44.39045" lon="5.08995">
        <ele>394.6</ele>
        <time>2021-02-24T12:27:54Z</time>
      </trkpt>
      <trkpt lat="44.39049" lon="5.08992">
        <ele>394.8</ele>
        <time>2021-02-24T12:27:55Z</time>
      </trkpt>
      <trkpt lat="44.39053" lon="5.0899">
        <ele>394.9</ele>
        <time>2021-02-24T12:27:56Z</time>
      </trkpt>
      <trkpt lat="44.39057" lon="5.08987">
        <ele>395</ele>
        <time>2021-02-24T12:27:57Z</time>
      </trkpt>
      <trkpt lat="44.39061" lon="5.08984">
        <ele>395.1</ele>
        <time>2021-02-24T12:27:58Z</time>
      </trkpt>
      <trkpt lat="44.39065" lon="5.08982">
        <ele>395.3</ele>
        <time>2021-02-24T12:27:59Z</time>
      </trkpt>
      <trkpt lat="44.39068" lon="5.08979">
        <ele>395.4</ele>
        <time>2021-02-24T12:28:00Z</time>
      </trkpt>
      <trkpt lat="44.39072" lon="5.08976">
        <ele>395.5</ele>
        <time>2021-02-24T12:28:01Z</time>
      </trkpt>
      <trkpt lat="44.39076" lon="5.08974">
        <ele>395.6</ele>
        <time>2021-02-24T12:28:02Z</time>
      </trkpt>
      <trkpt lat="44.3908" lon="5.08971">
        <ele>395.6</ele>
        <time>2021-02-24T12:28:03Z</time>
      </trkpt>
      <trkpt lat="44.39084" lon="5.08968">
        <ele>395.7</ele>
        <time>2021-02-24T12:28:04Z</time>
      </trkpt>
      <trkpt lat="44.39088" lon="5.08965">
        <ele>395.8</ele>
        <time>2021-02-24T12:28:05Z</time>
      </trkpt>
      <trkpt lat="44.39092" lon="5.08962">
        <ele>395.9</ele>
        <time>2021-02-24T12:28:06Z</time>
      </trkpt>
      <trkpt lat="44.39096" lon="5.08959">
        <ele>395.9</ele>
        <time>2021-02-24T12:28:07Z</time>
      </trkpt>
      <trkpt lat="44.391" lon="5.08957">
        <ele>396</ele>
        <time>2021-02-24T12:28:08Z</time>
      </trkpt>
      <trkpt lat="44.39104" lon="5.08954">
        <ele>396.1</ele>
        <time>2021-02-24T12:28:09Z</time>
      </trkpt>
      <trkpt lat="44.39107" lon="5.08951">
        <ele>396.2</ele>
        <time>2021-02-24T12:28:10Z</time>
      </trkpt>
      <trkpt lat="44.39107" lon="5.08951">
        <ele>396.2</ele>
        <time>2021-02-24T12:28:11Z</time>
      </trkpt>
      <trkpt lat="44.39111" lon="5.08947">
        <ele>396.3</ele>
        <time>2021-02-24T12:28:12Z</time>
      </trkpt>
      <trkpt lat="44.39115" lon="5.08944">
        <ele>396.4</ele>
        <time>2021-02-24T12:28:13Z</time>
      </trkpt>
      <trkpt lat="44.39119" lon="5.0894">
        <ele>396.4</ele>
        <time>2021-02-24T12:28:14Z</time>
      </trkpt>
      <trkpt lat="44.39126" lon="5.08933">
        <ele>396.6</ele>
        <time>2021-02-24T12:28:15Z</time>
      </trkpt>
      <trkpt lat="44.39129" lon="5.08929">
        <ele>396.7</ele>
        <time>2021-02-24T12:28:16Z</time>
      </trkpt>
      <trkpt lat="44.39133" lon="5.08925">
        <ele>396.8</ele>
        <time>2021-02-24T12:28:17Z</time>
      </trkpt>
      <trkpt lat="44.39136" lon="5.08921">
        <ele>396.9</ele>
        <time>2021-02-24T12:28:18Z</time>
      </trkpt>
      <trkpt lat="44.39139" lon="5.08916">
        <ele>397</ele>
        <time>2021-02-24T12:28:19Z</time>
      </trkpt>
      <trkpt lat="44.39143" lon="5.08912">
        <ele>397</ele>
        <time>2021-02-24T12:28:20Z</time>
      </trkpt>
      <trkpt lat="44.39146" lon="5.08908">
        <ele>397.1</ele>
        <time>2021-02-24T12:28:21Z</time>
      </trkpt>
      <trkpt lat="44.39149" lon="5.08903">
        <ele>397.2</ele>
        <time>2021-02-24T12:28:22Z</time>
      </trkpt>
      <trkpt lat="44.39152" lon="5.08899">
        <ele>397.3</ele>
        <time>2021-02-24T12:28:23Z</time>
      </trkpt>
      <trkpt lat="44.39155" lon="5.08894">
        <ele>397.3</ele>
        <time>2021-02-24T12:28:24Z</time>
      </trkpt>
      <trkpt lat="44.39159" lon="5.08889">
        <ele>397.4</ele>
        <time>2021-02-24T12:28:25Z</time>
      </trkpt>
      <trkpt lat="44.39162" lon="5.08885">
        <ele>397.5</ele>
        <time>2021-02-24T12:28:26Z</time>
      </trkpt>
      <trkpt lat="44.39165" lon="5.0888">
        <ele>397.6</ele>
        <time>2021-02-24T12:28:27Z</time>
      </trkpt>
      <trkpt lat="44.39168" lon="5.08876">
        <ele>397.7</ele>
        <time>2021-02-24T12:28:28Z</time>
      </trkpt>
      <trkpt lat="44.39171" lon="5.08871">
        <ele>397.7</ele>
        <time>2021-02-24T12:28:29Z</time>
      </trkpt>
      <trkpt lat="44.39171" lon="5.08871">
        <ele>397.7</ele>
        <time>2021-02-24T12:28:30Z</time>
      </trkpt>
      <trkpt lat="44.39177" lon="5.08862">
        <ele>397.9</ele>
        <time>2021-02-24T12:28:31Z</time>
      </trkpt>
      <trkpt lat="44.39177" lon="5.08862">
        <ele>397.9</ele>
        <time>2021-02-24T12:28:32Z</time>
      </trkpt>
      <trkpt lat="44.3918" lon="5.08858">
        <ele>398</ele>
        <time>2021-02-24T12:28:33Z</time>
      </trkpt>
      <trkpt lat="44.39184" lon="5.08853">
        <ele>398.1</ele>
        <time>2021-02-24T12:28:34Z</time>
      </trkpt>
      <trkpt lat="44.39187" lon="5.08849">
        <ele>398.2</ele>
        <time>2021-02-24T12:28:35Z</time>
      </trkpt>
      <trkpt lat="44.3919" lon="5.08844">
        <ele>398.2</ele>
        <time>2021-02-24T12:28:36Z</time>
      </trkpt>
      <trkpt lat="44.39193" lon="5.0884">
        <ele>398.3</ele>
        <time>2021-02-24T12:28:37Z</time>
      </trkpt>
      <trkpt lat="44.39196" lon="5.08835">
        <ele>398.4</ele>
        <time>2021-02-24T12:28:38Z</time>
      </trkpt>
      <trkpt lat="44.39199" lon="5.08831">
        <ele>398.5</ele>
        <time>2021-02-24T12:28:39Z</time>
      </trkpt>
      <trkpt lat="44.39203" lon="5.08826">
        <ele>398.5</ele>
        <time>2021-02-24T12:28:40Z</time>
      </trkpt>
      <trkpt lat="44.39206" lon="5.08821">
        <ele>398.6</ele>
        <time>2021-02-24T12:28:41Z</time>
      </trkpt>
      <trkpt lat="44.39209" lon="5.08816">
        <ele>398.7</ele>
        <time>2021-02-24T12:28:42Z</time>
      </trkpt>
      <trkpt lat="44.39212" lon="5.08812">
        <ele>398.7</ele>
        <time>2021-02-24T12:28:43Z</time>
      </trkpt>
      <trkpt lat="44.39216" lon="5.08807">
        <ele>398.8</ele>
        <time>2021-02-24T12:28:44Z</time>
      </trkpt>
      <trkpt lat="44.39219" lon="5.08802">
        <ele>398.9</ele>
        <time>2021-02-24T12:28:45Z</time>
      </trkpt>
      <trkpt lat="44.39223" lon="5.08798">
        <ele>399</ele>
        <time>2021-02-24T12:28:46Z</time>
      </trkpt>
      <trkpt lat="44.39226" lon="5.08793">
        <ele>399.1</ele>
        <time>2021-02-24T12:28:47Z</time>
      </trkpt>
      <trkpt lat="44.39232" lon="5.08784">
        <ele>399.3</ele>
        <time>2021-02-24T12:28:48Z</time>
      </trkpt>
      <trkpt lat="44.39232" lon="5.08784">
        <ele>399.3</ele>
        <time>2021-02-24T12:28:49Z</time>
      </trkpt>
      <trkpt lat="44.39235" lon="5.0878">
        <ele>399.4</ele>
        <time>2021-02-24T12:28:50Z</time>
      </trkpt>
      <trkpt lat="44.39238" lon="5.08776">
        <ele>399.5</ele>
        <time>2021-02-24T12:28:51Z</time>
      </trkpt>
      <trkpt lat="44.39241" lon="5.08771">
        <ele>399.6</ele>
        <time>2021-02-24T12:28:52Z</time>
      </trkpt>
      <trkpt lat="44.39244" lon="5.08766">
        <ele>399.6</ele>
        <time>2021-02-24T12:28:53Z</time>
      </trkpt>
      <trkpt lat="44.39247" lon="5.08762">
        <ele>399.7</ele>
        <time>2021-02-24T12:28:54Z</time>
      </trkpt>
      <trkpt lat="44.3925" lon="5.08757">
        <ele>399.8</ele>
        <time>2021-02-24T12:28:55Z</time>
      </trkpt>
      <trkpt lat="44.39254" lon="5.08752">
        <ele>399.9</ele>
        <time>2021-02-24T12:28:56Z</time>
      </trkpt>
      <trkpt lat="44.39257" lon="5.08748">
        <ele>400</ele>
        <time>2021-02-24T12:28:57Z</time>
      </trkpt>
      <trkpt lat="44.39259" lon="5.08743">
        <ele>400.1</ele>
        <time>2021-02-24T12:28:58Z</time>
      </trkpt>
      <trkpt lat="44.39262" lon="5.08739">
        <ele>400.2</ele>
        <time>2021-02-24T12:28:59Z</time>
      </trkpt>
      <trkpt lat="44.39265" lon="5.08734">
        <ele>400.3</ele>
        <time>2021-02-24T12:29:00Z</time>
      </trkpt>
      <trkpt lat="44.39268" lon="5.0873">
        <ele>400.5</ele>
        <time>2021-02-24T12:29:01Z</time>
      </trkpt>
      <trkpt lat="44.39273" lon="5.08721">
        <ele>400.7</ele>
        <time>2021-02-24T12:29:02Z</time>
      </trkpt>
      <trkpt lat="44.39273" lon="5.08721">
        <ele>400.7</ele>
        <time>2021-02-24T12:29:03Z</time>
      </trkpt>
      <trkpt lat="44.39276" lon="5.08717">
        <ele>400.8</ele>
        <time>2021-02-24T12:29:04Z</time>
      </trkpt>
      <trkpt lat="44.39279" lon="5.08713">
        <ele>401</ele>
        <time>2021-02-24T12:29:05Z</time>
      </trkpt>
      <trkpt lat="44.39282" lon="5.08708">
        <ele>401.1</ele>
        <time>2021-02-24T12:29:06Z</time>
      </trkpt>
      <trkpt lat="44.39287" lon="5.08699">
        <ele>401.4</ele>
        <time>2021-02-24T12:29:07Z</time>
      </trkpt>
      <trkpt lat="44.39287" lon="5.08699">
        <ele>401.4</ele>
        <time>2021-02-24T12:29:08Z</time>
      </trkpt>
      <trkpt lat="44.39293" lon="5.08691">
        <ele>401.7</ele>
        <time>2021-02-24T12:29:09Z</time>
      </trkpt>
      <trkpt lat="44.39293" lon="5.08691">
        <ele>401.7</ele>
        <time>2021-02-24T12:29:10Z</time>
      </trkpt>
      <trkpt lat="44.39299" lon="5.08682">
        <ele>401.9</ele>
        <time>2021-02-24T12:29:11Z</time>
      </trkpt>
      <trkpt lat="44.39302" lon="5.08678">
        <ele>402</ele>
        <time>2021-02-24T12:29:12Z</time>
      </trkpt>
      <trkpt lat="44.39305" lon="5.08674">
        <ele>402.2</ele>
        <time>2021-02-24T12:29:13Z</time>
      </trkpt>
      <trkpt lat="44.39309" lon="5.0867">
        <ele>402.3</ele>
        <time>2021-02-24T12:29:14Z</time>
      </trkpt>
      <trkpt lat="44.39312" lon="5.08667">
        <ele>402.4</ele>
        <time>2021-02-24T12:29:15Z</time>
      </trkpt>
      <trkpt lat="44.39315" lon="5.08663">
        <ele>402.5</ele>
        <time>2021-02-24T12:29:16Z</time>
      </trkpt>
      <trkpt lat="44.39319" lon="5.0866">
        <ele>402.6</ele>
        <time>2021-02-24T12:29:17Z</time>
      </trkpt>
      <trkpt lat="44.39322" lon="5.08657">
        <ele>402.7</ele>
        <time>2021-02-24T12:29:18Z</time>
      </trkpt>
      <trkpt lat="44.39326" lon="5.08654">
        <ele>402.8</ele>
        <time>2021-02-24T12:29:19Z</time>
      </trkpt>
      <trkpt lat="44.3933" lon="5.08651">
        <ele>402.9</ele>
        <time>2021-02-24T12:29:20Z</time>
      </trkpt>
      <trkpt lat="44.39334" lon="5.08648">
        <ele>403</ele>
        <time>2021-02-24T12:29:21Z</time>
      </trkpt>
      <trkpt lat="44.39338" lon="5.08645">
        <ele>403</ele>
        <time>2021-02-24T12:29:22Z</time>
      </trkpt>
      <trkpt lat="44.39342" lon="5.08643">
        <ele>403.1</ele>
        <time>2021-02-24T12:29:23Z</time>
      </trkpt>
      <trkpt lat="44.39346" lon="5.08641">
        <ele>403.2</ele>
        <time>2021-02-24T12:29:24Z</time>
      </trkpt>
      <trkpt lat="44.3935" lon="5.08639">
        <ele>403.3</ele>
        <time>2021-02-24T12:29:25Z</time>
      </trkpt>
      <trkpt lat="44.39354" lon="5.08637">
        <ele>403.5</ele>
        <time>2021-02-24T12:29:26Z</time>
      </trkpt>
      <trkpt lat="44.39354" lon="5.08637">
        <ele>403.5</ele>
        <time>2021-02-24T12:29:27Z</time>
      </trkpt>
      <trkpt lat="44.39359" lon="5.08636">
        <ele>403.6</ele>
        <time>2021-02-24T12:29:28Z</time>
      </trkpt>
      <trkpt lat="44.39363" lon="5.08634">
        <ele>403.7</ele>
        <time>2021-02-24T12:29:29Z</time>
      </trkpt>
      <trkpt lat="44.39367" lon="5.08633">
        <ele>403.8</ele>
        <time>2021-02-24T12:29:30Z</time>
      </trkpt>
      <trkpt lat="44.39371" lon="5.08632">
        <ele>403.9</ele>
        <time>2021-02-24T12:29:31Z</time>
      </trkpt>
      <trkpt lat="44.39375" lon="5.0863">
        <ele>404</ele>
        <time>2021-02-24T12:29:32Z</time>
      </trkpt>
      <trkpt lat="44.39379" lon="5.08629">
        <ele>404.1</ele>
        <time>2021-02-24T12:29:33Z</time>
      </trkpt>
      <trkpt lat="44.39383" lon="5.08628">
        <ele>404.2</ele>
        <time>2021-02-24T12:29:34Z</time>
      </trkpt>
      <trkpt lat="44.39387" lon="5.08627">
        <ele>404.3</ele>
        <time>2021-02-24T12:29:35Z</time>
      </trkpt>
      <trkpt lat="44.39391" lon="5.08626">
        <ele>404.4</ele>
        <time>2021-02-24T12:29:36Z</time>
      </trkpt>
      <trkpt lat="44.39395" lon="5.08624">
        <ele>404.6</ele>
        <time>2021-02-24T12:29:37Z</time>
      </trkpt>
      <trkpt lat="44.39399" lon="5.08622">
        <ele>404.7</ele>
        <time>2021-02-24T12:29:38Z</time>
      </trkpt>
      <trkpt lat="44.39403" lon="5.0862">
        <ele>404.8</ele>
        <time>2021-02-24T12:29:39Z</time>
      </trkpt>
      <trkpt lat="44.39407" lon="5.08618">
        <ele>404.9</ele>
        <time>2021-02-24T12:29:40Z</time>
      </trkpt>
      <trkpt lat="44.39411" lon="5.08616">
        <ele>405</ele>
        <time>2021-02-24T12:29:41Z</time>
      </trkpt>
      <trkpt lat="44.39414" lon="5.08614">
        <ele>405.1</ele>
        <time>2021-02-24T12:29:42Z</time>
      </trkpt>
      <trkpt lat="44.39418" lon="5.08611">
        <ele>405.2</ele>
        <time>2021-02-24T12:29:43Z</time>
      </trkpt>
      <trkpt lat="44.39422" lon="5.08608">
        <ele>405.3</ele>
        <time>2021-02-24T12:29:44Z</time>
      </trkpt>
      <trkpt lat="44.3943" lon="5.08602">
        <ele>405.5</ele>
        <time>2021-02-24T12:29:45Z</time>
      </trkpt>
      <trkpt lat="44.39434" lon="5.08599">
        <ele>405.7</ele>
        <time>2021-02-24T12:29:46Z</time>
      </trkpt>
      <trkpt lat="44.39437" lon="5.08596">
        <ele>405.8</ele>
        <time>2021-02-24T12:29:47Z</time>
      </trkpt>
      <trkpt lat="44.39441" lon="5.08593">
        <ele>405.9</ele>
        <time>2021-02-24T12:29:48Z</time>
      </trkpt>
      <trkpt lat="44.39445" lon="5.0859">
        <ele>406</ele>
        <time>2021-02-24T12:29:49Z</time>
      </trkpt>
      <trkpt lat="44.39448" lon="5.08587">
        <ele>406.1</ele>
        <time>2021-02-24T12:29:50Z</time>
      </trkpt>
      <trkpt lat="44.39452" lon="5.08585">
        <ele>406.2</ele>
        <time>2021-02-24T12:29:51Z</time>
      </trkpt>
      <trkpt lat="44.39456" lon="5.08582">
        <ele>406.3</ele>
        <time>2021-02-24T12:29:52Z</time>
      </trkpt>
      <trkpt lat="44.39459" lon="5.0858">
        <ele>406.4</ele>
        <time>2021-02-24T12:29:53Z</time>
      </trkpt>
      <trkpt lat="44.39463" lon="5.08577">
        <ele>406.5</ele>
        <time>2021-02-24T12:29:54Z</time>
      </trkpt>
      <trkpt lat="44.39466" lon="5.08574">
        <ele>406.6</ele>
        <time>2021-02-24T12:29:55Z</time>
      </trkpt>
      <trkpt lat="44.3947" lon="5.08571">
        <ele>406.7</ele>
        <time>2021-02-24T12:29:56Z</time>
      </trkpt>
      <trkpt lat="44.39474" lon="5.08568">
        <ele>406.8</ele>
        <time>2021-02-24T12:29:57Z</time>
      </trkpt>
      <trkpt lat="44.39478" lon="5.08565">
        <ele>406.9</ele>
        <time>2021-02-24T12:29:58Z</time>
      </trkpt>
      <trkpt lat="44.39482" lon="5.08562">
        <ele>407</ele>
        <time>2021-02-24T12:29:59Z</time>
      </trkpt>
      <trkpt lat="44.39486" lon="5.08559">
        <ele>407.1</ele>
        <time>2021-02-24T12:30:00Z</time>
      </trkpt>
      <trkpt lat="44.3949" lon="5.08556">
        <ele>407.2</ele>
        <time>2021-02-24T12:30:01Z</time>
      </trkpt>
      <trkpt lat="44.39493" lon="5.08553">
        <ele>407.3</ele>
        <time>2021-02-24T12:30:02Z</time>
      </trkpt>
      <trkpt lat="44.39497" lon="5.0855">
        <ele>407.5</ele>
        <time>2021-02-24T12:30:03Z</time>
      </trkpt>
      <trkpt lat="44.39501" lon="5.08547">
        <ele>407.6</ele>
        <time>2021-02-24T12:30:04Z</time>
      </trkpt>
      <trkpt lat="44.39501" lon="5.08547">
        <ele>407.6</ele>
        <time>2021-02-24T12:30:05Z</time>
      </trkpt>
      <trkpt lat="44.39505" lon="5.08544">
        <ele>407.7</ele>
        <time>2021-02-24T12:30:06Z</time>
      </trkpt>
      <trkpt lat="44.39509" lon="5.08541">
        <ele>407.8</ele>
        <time>2021-02-24T12:30:07Z</time>
      </trkpt>
      <trkpt lat="44.39512" lon="5.08538">
        <ele>407.9</ele>
        <time>2021-02-24T12:30:08Z</time>
      </trkpt>
      <trkpt lat="44.39516" lon="5.08535">
        <ele>408.1</ele>
        <time>2021-02-24T12:30:09Z</time>
      </trkpt>
      <trkpt lat="44.3952" lon="5.08531">
        <ele>408.2</ele>
        <time>2021-02-24T12:30:10Z</time>
      </trkpt>
      <trkpt lat="44.39523" lon="5.08528">
        <ele>408.3</ele>
        <time>2021-02-24T12:30:11Z</time>
      </trkpt>
      <trkpt lat="44.39527" lon="5.08525">
        <ele>408.4</ele>
        <time>2021-02-24T12:30:12Z</time>
      </trkpt>
      <trkpt lat="44.39531" lon="5.08522">
        <ele>408.5</ele>
        <time>2021-02-24T12:30:13Z</time>
      </trkpt>
      <trkpt lat="44.39535" lon="5.08519">
        <ele>408.6</ele>
        <time>2021-02-24T12:30:14Z</time>
      </trkpt>
      <trkpt lat="44.39538" lon="5.08516">
        <ele>408.7</ele>
        <time>2021-02-24T12:30:15Z</time>
      </trkpt>
      <trkpt lat="44.39542" lon="5.08513">
        <ele>408.8</ele>
        <time>2021-02-24T12:30:16Z</time>
      </trkpt>
      <trkpt lat="44.39545" lon="5.0851">
        <ele>408.9</ele>
        <time>2021-02-24T12:30:17Z</time>
      </trkpt>
      <trkpt lat="44.39549" lon="5.08507">
        <ele>409</ele>
        <time>2021-02-24T12:30:18Z</time>
      </trkpt>
      <trkpt lat="44.39552" lon="5.08505">
        <ele>409.1</ele>
        <time>2021-02-24T12:30:19Z</time>
      </trkpt>
      <trkpt lat="44.39556" lon="5.08502">
        <ele>409.1</ele>
        <time>2021-02-24T12:30:20Z</time>
      </trkpt>
      <trkpt lat="44.39559" lon="5.08499">
        <ele>409.2</ele>
        <time>2021-02-24T12:30:21Z</time>
      </trkpt>
      <trkpt lat="44.39563" lon="5.08496">
        <ele>409.2</ele>
        <time>2021-02-24T12:30:22Z</time>
      </trkpt>
      <trkpt lat="44.3957" lon="5.0849">
        <ele>409.3</ele>
        <time>2021-02-24T12:30:23Z</time>
      </trkpt>
      <trkpt lat="44.39574" lon="5.08487">
        <ele>409.4</ele>
        <time>2021-02-24T12:30:24Z</time>
      </trkpt>
      <trkpt lat="44.39577" lon="5.08484">
        <ele>409.4</ele>
        <time>2021-02-24T12:30:25Z</time>
      </trkpt>
      <trkpt lat="44.39581" lon="5.08481">
        <ele>409.5</ele>
        <time>2021-02-24T12:30:26Z</time>
      </trkpt>
      <trkpt lat="44.39584" lon="5.08478">
        <ele>409.5</ele>
        <time>2021-02-24T12:30:27Z</time>
      </trkpt>
      <trkpt lat="44.39588" lon="5.08475">
        <ele>409.6</ele>
        <time>2021-02-24T12:30:28Z</time>
      </trkpt>
      <trkpt lat="44.39591" lon="5.08473">
        <ele>409.6</ele>
        <time>2021-02-24T12:30:29Z</time>
      </trkpt>
      <trkpt lat="44.39595" lon="5.0847">
        <ele>409.7</ele>
        <time>2021-02-24T12:30:30Z</time>
      </trkpt>
      <trkpt lat="44.39599" lon="5.08467">
        <ele>409.8</ele>
        <time>2021-02-24T12:30:31Z</time>
      </trkpt>
      <trkpt lat="44.39602" lon="5.08464">
        <ele>409.8</ele>
        <time>2021-02-24T12:30:32Z</time>
      </trkpt>
      <trkpt lat="44.39606" lon="5.0846">
        <ele>409.9</ele>
        <time>2021-02-24T12:30:33Z</time>
      </trkpt>
      <trkpt lat="44.39609" lon="5.08457">
        <ele>410</ele>
        <time>2021-02-24T12:30:34Z</time>
      </trkpt>
      <trkpt lat="44.39613" lon="5.08454">
        <ele>410.1</ele>
        <time>2021-02-24T12:30:35Z</time>
      </trkpt>
      <trkpt lat="44.39617" lon="5.08451">
        <ele>410.1</ele>
        <time>2021-02-24T12:30:36Z</time>
      </trkpt>
      <trkpt lat="44.3962" lon="5.08447">
        <ele>410.2</ele>
        <time>2021-02-24T12:30:37Z</time>
      </trkpt>
      <trkpt lat="44.39624" lon="5.08444">
        <ele>410.2</ele>
        <time>2021-02-24T12:30:38Z</time>
      </trkpt>
      <trkpt lat="44.39628" lon="5.0844">
        <ele>410.3</ele>
        <time>2021-02-24T12:30:39Z</time>
      </trkpt>
      <trkpt lat="44.39632" lon="5.08437">
        <ele>410.3</ele>
        <time>2021-02-24T12:30:40Z</time>
      </trkpt>
      <trkpt lat="44.39636" lon="5.08433">
        <ele>410.4</ele>
        <time>2021-02-24T12:30:41Z</time>
      </trkpt>
      <trkpt lat="44.39639" lon="5.08429">
        <ele>410.4</ele>
        <time>2021-02-24T12:30:42Z</time>
      </trkpt>
      <trkpt lat="44.39639" lon="5.08429">
        <ele>410.4</ele>
        <time>2021-02-24T12:30:43Z</time>
      </trkpt>
      <trkpt lat="44.39643" lon="5.08425">
        <ele>410.5</ele>
        <time>2021-02-24T12:30:44Z</time>
      </trkpt>
      <trkpt lat="44.39651" lon="5.08417">
        <ele>410.6</ele>
        <time>2021-02-24T12:30:45Z</time>
      </trkpt>
      <trkpt lat="44.39654" lon="5.08413">
        <ele>410.7</ele>
        <time>2021-02-24T12:30:46Z</time>
      </trkpt>
      <trkpt lat="44.39657" lon="5.08409">
        <ele>410.8</ele>
        <time>2021-02-24T12:30:47Z</time>
      </trkpt>
      <trkpt lat="44.3966" lon="5.08405">
        <ele>410.9</ele>
        <time>2021-02-24T12:30:48Z</time>
      </trkpt>
      <trkpt lat="44.39664" lon="5.08401">
        <ele>410.9</ele>
        <time>2021-02-24T12:30:49Z</time>
      </trkpt>
      <trkpt lat="44.39667" lon="5.08397">
        <ele>411</ele>
        <time>2021-02-24T12:30:50Z</time>
      </trkpt>
      <trkpt lat="44.39669" lon="5.08393">
        <ele>411.1</ele>
        <time>2021-02-24T12:30:51Z</time>
      </trkpt>
      <trkpt lat="44.39672" lon="5.08388">
        <ele>411.2</ele>
        <time>2021-02-24T12:30:52Z</time>
      </trkpt>
      <trkpt lat="44.39675" lon="5.08384">
        <ele>411.3</ele>
        <time>2021-02-24T12:30:53Z</time>
      </trkpt>
      <trkpt lat="44.39678" lon="5.0838">
        <ele>411.4</ele>
        <time>2021-02-24T12:30:54Z</time>
      </trkpt>
      <trkpt lat="44.39681" lon="5.08376">
        <ele>411.5</ele>
        <time>2021-02-24T12:30:55Z</time>
      </trkpt>
      <trkpt lat="44.39684" lon="5.08372">
        <ele>411.6</ele>
        <time>2021-02-24T12:30:56Z</time>
      </trkpt>
      <trkpt lat="44.39687" lon="5.08367">
        <ele>411.7</ele>
        <time>2021-02-24T12:30:57Z</time>
      </trkpt>
      <trkpt lat="44.3969" lon="5.08363">
        <ele>411.9</ele>
        <time>2021-02-24T12:30:58Z</time>
      </trkpt>
      <trkpt lat="44.39693" lon="5.08359">
        <ele>412</ele>
        <time>2021-02-24T12:30:59Z</time>
      </trkpt>
      <trkpt lat="44.39697" lon="5.08354">
        <ele>412.1</ele>
        <time>2021-02-24T12:31:00Z</time>
      </trkpt>
      <trkpt lat="44.397" lon="5.0835">
        <ele>412.2</ele>
        <time>2021-02-24T12:31:01Z</time>
      </trkpt>
      <trkpt lat="44.39703" lon="5.08346">
        <ele>412.3</ele>
        <time>2021-02-24T12:31:02Z</time>
      </trkpt>
      <trkpt lat="44.39705" lon="5.08341">
        <ele>412.5</ele>
        <time>2021-02-24T12:31:03Z</time>
      </trkpt>
      <trkpt lat="44.39708" lon="5.08337">
        <ele>412.6</ele>
        <time>2021-02-24T12:31:04Z</time>
      </trkpt>
      <trkpt lat="44.39711" lon="5.08333">
        <ele>412.7</ele>
        <time>2021-02-24T12:31:05Z</time>
      </trkpt>
      <trkpt lat="44.39714" lon="5.08329">
        <ele>412.8</ele>
        <time>2021-02-24T12:31:06Z</time>
      </trkpt>
      <trkpt lat="44.39717" lon="5.08325">
        <ele>413</ele>
        <time>2021-02-24T12:31:07Z</time>
      </trkpt>
      <trkpt lat="44.3972" lon="5.08321">
        <ele>413.1</ele>
        <time>2021-02-24T12:31:08Z</time>
      </trkpt>
      <trkpt lat="44.39722" lon="5.08317">
        <ele>413.2</ele>
        <time>2021-02-24T12:31:09Z</time>
      </trkpt>
      <trkpt lat="44.39725" lon="5.08314">
        <ele>413.3</ele>
        <time>2021-02-24T12:31:10Z</time>
      </trkpt>
      <trkpt lat="44.39728" lon="5.0831">
        <ele>413.5</ele>
        <time>2021-02-24T12:31:11Z</time>
      </trkpt>
      <trkpt lat="44.3973" lon="5.08306">
        <ele>413.6</ele>
        <time>2021-02-24T12:31:12Z</time>
      </trkpt>
      <trkpt lat="44.39733" lon="5.08302">
        <ele>413.7</ele>
        <time>2021-02-24T12:31:13Z</time>
      </trkpt>
      <trkpt lat="44.39736" lon="5.08298">
        <ele>413.8</ele>
        <time>2021-02-24T12:31:14Z</time>
      </trkpt>
      <trkpt lat="44.39738" lon="5.08294">
        <ele>413.9</ele>
        <time>2021-02-24T12:31:15Z</time>
      </trkpt>
      <trkpt lat="44.39741" lon="5.0829">
        <ele>414.1</ele>
        <time>2021-02-24T12:31:16Z</time>
      </trkpt>
      <trkpt lat="44.39744" lon="5.08286">
        <ele>414.2</ele>
        <time>2021-02-24T12:31:17Z</time>
      </trkpt>
      <trkpt lat="44.39746" lon="5.08282">
        <ele>414.3</ele>
        <time>2021-02-24T12:31:18Z</time>
      </trkpt>
      <trkpt lat="44.39749" lon="5.08278">
        <ele>414.4</ele>
        <time>2021-02-24T12:31:19Z</time>
      </trkpt>
      <trkpt lat="44.39751" lon="5.08274">
        <ele>414.6</ele>
        <time>2021-02-24T12:31:20Z</time>
      </trkpt>
      <trkpt lat="44.39754" lon="5.0827">
        <ele>414.7</ele>
        <time>2021-02-24T12:31:21Z</time>
      </trkpt>
      <trkpt lat="44.39756" lon="5.08266">
        <ele>414.8</ele>
        <time>2021-02-24T12:31:22Z</time>
      </trkpt>
      <trkpt lat="44.39759" lon="5.08261">
        <ele>415</ele>
        <time>2021-02-24T12:31:23Z</time>
      </trkpt>
      <trkpt lat="44.39761" lon="5.08257">
        <ele>415.1</ele>
        <time>2021-02-24T12:31:24Z</time>
      </trkpt>
      <trkpt lat="44.39763" lon="5.08253">
        <ele>415.2</ele>
        <time>2021-02-24T12:31:25Z</time>
      </trkpt>
      <trkpt lat="44.39766" lon="5.08249">
        <ele>415.4</ele>
        <time>2021-02-24T12:31:26Z</time>
      </trkpt>
      <trkpt lat="44.39768" lon="5.08244">
        <ele>415.5</ele>
        <time>2021-02-24T12:31:27Z</time>
      </trkpt>
      <trkpt lat="44.3977" lon="5.0824">
        <ele>415.6</ele>
        <time>2021-02-24T12:31:28Z</time>
      </trkpt>
      <trkpt lat="44.39773" lon="5.08235">
        <ele>415.8</ele>
        <time>2021-02-24T12:31:29Z</time>
      </trkpt>
      <trkpt lat="44.39775" lon="5.08231">
        <ele>415.9</ele>
        <time>2021-02-24T12:31:30Z</time>
      </trkpt>
      <trkpt lat="44.39777" lon="5.08227">
        <ele>416.1</ele>
        <time>2021-02-24T12:31:31Z</time>
      </trkpt>
      <trkpt lat="44.39779" lon="5.08222">
        <ele>416.2</ele>
        <time>2021-02-24T12:31:32Z</time>
      </trkpt>
      <trkpt lat="44.39781" lon="5.08218">
        <ele>416.4</ele>
        <time>2021-02-24T12:31:33Z</time>
      </trkpt>
      <trkpt lat="44.39782" lon="5.08213">
        <ele>416.5</ele>
        <time>2021-02-24T12:31:34Z</time>
      </trkpt>
      <trkpt lat="44.39784" lon="5.08209">
        <ele>416.6</ele>
        <time>2021-02-24T12:31:35Z</time>
      </trkpt>
      <trkpt lat="44.39786" lon="5.08204">
        <ele>416.8</ele>
        <time>2021-02-24T12:31:36Z</time>
      </trkpt>
      <trkpt lat="44.39788" lon="5.08199">
        <ele>416.9</ele>
        <time>2021-02-24T12:31:37Z</time>
      </trkpt>
      <trkpt lat="44.39789" lon="5.08194">
        <ele>417</ele>
        <time>2021-02-24T12:31:38Z</time>
      </trkpt>
      <trkpt lat="44.39791" lon="5.08189">
        <ele>417.2</ele>
        <time>2021-02-24T12:31:39Z</time>
      </trkpt>
      <trkpt lat="44.39791" lon="5.08189">
        <ele>417.2</ele>
        <time>2021-02-24T12:31:40Z</time>
      </trkpt>
      <trkpt lat="44.39793" lon="5.08183">
        <ele>417.3</ele>
        <time>2021-02-24T12:31:41Z</time>
      </trkpt>
      <trkpt lat="44.39795" lon="5.08178">
        <ele>417.4</ele>
        <time>2021-02-24T12:31:42Z</time>
      </trkpt>
      <trkpt lat="44.39796" lon="5.08173">
        <ele>417.6</ele>
        <time>2021-02-24T12:31:43Z</time>
      </trkpt>
      <trkpt lat="44.39798" lon="5.08168">
        <ele>417.7</ele>
        <time>2021-02-24T12:31:44Z</time>
      </trkpt>
      <trkpt lat="44.398" lon="5.08163">
        <ele>417.8</ele>
        <time>2021-02-24T12:31:45Z</time>
      </trkpt>
      <trkpt lat="44.39801" lon="5.08158">
        <ele>417.9</ele>
        <time>2021-02-24T12:31:46Z</time>
      </trkpt>
      <trkpt lat="44.39802" lon="5.08153">
        <ele>418.1</ele>
        <time>2021-02-24T12:31:47Z</time>
      </trkpt>
      <trkpt lat="44.39804" lon="5.08148">
        <ele>418.2</ele>
        <time>2021-02-24T12:31:48Z</time>
      </trkpt>
      <trkpt lat="44.39806" lon="5.08143">
        <ele>418.3</ele>
        <time>2021-02-24T12:31:49Z</time>
      </trkpt>
      <trkpt lat="44.39807" lon="5.08138">
        <ele>418.4</ele>
        <time>2021-02-24T12:31:50Z</time>
      </trkpt>
      <trkpt lat="44.39809" lon="5.08133">
        <ele>418.5</ele>
        <time>2021-02-24T12:31:51Z</time>
      </trkpt>
      <trkpt lat="44.3981" lon="5.08128">
        <ele>418.7</ele>
        <time>2021-02-24T12:31:52Z</time>
      </trkpt>
      <trkpt lat="44.39812" lon="5.08123">
        <ele>418.8</ele>
        <time>2021-02-24T12:31:53Z</time>
      </trkpt>
      <trkpt lat="44.39814" lon="5.08118">
        <ele>418.9</ele>
        <time>2021-02-24T12:31:54Z</time>
      </trkpt>
      <trkpt lat="44.39816" lon="5.08113">
        <ele>419.1</ele>
        <time>2021-02-24T12:31:55Z</time>
      </trkpt>
      <trkpt lat="44.39819" lon="5.08108">
        <ele>419.2</ele>
        <time>2021-02-24T12:31:56Z</time>
      </trkpt>
      <trkpt lat="44.39821" lon="5.08104">
        <ele>419.3</ele>
        <time>2021-02-24T12:31:57Z</time>
      </trkpt>
      <trkpt lat="44.39826" lon="5.08095">
        <ele>419.6</ele>
        <time>2021-02-24T12:31:58Z</time>
      </trkpt>
      <trkpt lat="44.39826" lon="5.08095">
        <ele>419.6</ele>
        <time>2021-02-24T12:31:59Z</time>
      </trkpt>
      <trkpt lat="44.39828" lon="5.0809">
        <ele>419.7</ele>
        <time>2021-02-24T12:32:00Z</time>
      </trkpt>
      <trkpt lat="44.39831" lon="5.08086">
        <ele>419.8</ele>
        <time>2021-02-24T12:32:01Z</time>
      </trkpt>
      <trkpt lat="44.39833" lon="5.08082">
        <ele>419.9</ele>
        <time>2021-02-24T12:32:02Z</time>
      </trkpt>
      <trkpt lat="44.39836" lon="5.08078">
        <ele>420</ele>
        <time>2021-02-24T12:32:03Z</time>
      </trkpt>
      <trkpt lat="44.39838" lon="5.08073">
        <ele>420.2</ele>
        <time>2021-02-24T12:32:04Z</time>
      </trkpt>
      <trkpt lat="44.39841" lon="5.08069">
        <ele>420.3</ele>
        <time>2021-02-24T12:32:05Z</time>
      </trkpt>
      <trkpt lat="44.39844" lon="5.08064">
        <ele>420.5</ele>
        <time>2021-02-24T12:32:06Z</time>
      </trkpt>
      <trkpt lat="44.39847" lon="5.0806">
        <ele>420.6</ele>
        <time>2021-02-24T12:32:07Z</time>
      </trkpt>
      <trkpt lat="44.3985" lon="5.08056">
        <ele>420.7</ele>
        <time>2021-02-24T12:32:08Z</time>
      </trkpt>
      <trkpt lat="44.39852" lon="5.08052">
        <ele>420.8</ele>
        <time>2021-02-24T12:32:09Z</time>
      </trkpt>
      <trkpt lat="44.39855" lon="5.08048">
        <ele>420.9</ele>
        <time>2021-02-24T12:32:10Z</time>
      </trkpt>
      <trkpt lat="44.39858" lon="5.08045">
        <ele>420.9</ele>
        <time>2021-02-24T12:32:11Z</time>
      </trkpt>
      <trkpt lat="44.3986" lon="5.08041">
        <ele>421</ele>
        <time>2021-02-24T12:32:12Z</time>
      </trkpt>
      <trkpt lat="44.39863" lon="5.08038">
        <ele>421.1</ele>
        <time>2021-02-24T12:32:13Z</time>
      </trkpt>
      <trkpt lat="44.39866" lon="5.08034">
        <ele>421.2</ele>
        <time>2021-02-24T12:32:14Z</time>
      </trkpt>
      <trkpt lat="44.39869" lon="5.08031">
        <ele>421.3</ele>
        <time>2021-02-24T12:32:15Z</time>
      </trkpt>
      <trkpt lat="44.39873" lon="5.08028">
        <ele>421.3</ele>
        <time>2021-02-24T12:32:16Z</time>
      </trkpt>
      <trkpt lat="44.39879" lon="5.08021">
        <ele>421.5</ele>
        <time>2021-02-24T12:32:17Z</time>
      </trkpt>
      <trkpt lat="44.39883" lon="5.08018">
        <ele>421.5</ele>
        <time>2021-02-24T12:32:18Z</time>
      </trkpt>
      <trkpt lat="44.39886" lon="5.08015">
        <ele>421.6</ele>
        <time>2021-02-24T12:32:19Z</time>
      </trkpt>
      <trkpt lat="44.39889" lon="5.08012">
        <ele>421.6</ele>
        <time>2021-02-24T12:32:20Z</time>
      </trkpt>
      <trkpt lat="44.39892" lon="5.08008">
        <ele>421.7</ele>
        <time>2021-02-24T12:32:21Z</time>
      </trkpt>
      <trkpt lat="44.39896" lon="5.08005">
        <ele>421.7</ele>
        <time>2021-02-24T12:32:22Z</time>
      </trkpt>
      <trkpt lat="44.399" lon="5.08002">
        <ele>421.7</ele>
        <time>2021-02-24T12:32:23Z</time>
      </trkpt>
      <trkpt lat="44.39903" lon="5.07999">
        <ele>421.8</ele>
        <time>2021-02-24T12:32:24Z</time>
      </trkpt>
      <trkpt lat="44.39907" lon="5.07996">
        <ele>421.8</ele>
        <time>2021-02-24T12:32:25Z</time>
      </trkpt>
      <trkpt lat="44.3991" lon="5.07993">
        <ele>421.8</ele>
        <time>2021-02-24T12:32:26Z</time>
      </trkpt>
      <trkpt lat="44.39914" lon="5.0799">
        <ele>421.8</ele>
        <time>2021-02-24T12:32:27Z</time>
      </trkpt>
      <trkpt lat="44.39918" lon="5.07987">
        <ele>421.9</ele>
        <time>2021-02-24T12:32:28Z</time>
      </trkpt>
      <trkpt lat="44.39921" lon="5.07984">
        <ele>421.9</ele>
        <time>2021-02-24T12:32:29Z</time>
      </trkpt>
      <trkpt lat="44.39925" lon="5.07981">
        <ele>421.9</ele>
        <time>2021-02-24T12:32:30Z</time>
      </trkpt>
      <trkpt lat="44.39928" lon="5.07978">
        <ele>421.9</ele>
        <time>2021-02-24T12:32:31Z</time>
      </trkpt>
      <trkpt lat="44.39931" lon="5.07976">
        <ele>421.9</ele>
        <time>2021-02-24T12:32:32Z</time>
      </trkpt>
      <trkpt lat="44.39935" lon="5.07973">
        <ele>421.8</ele>
        <time>2021-02-24T12:32:33Z</time>
      </trkpt>
      <trkpt lat="44.39938" lon="5.0797">
        <ele>421.8</ele>
        <time>2021-02-24T12:32:34Z</time>
      </trkpt>
      <trkpt lat="44.39942" lon="5.07966">
        <ele>421.8</ele>
        <time>2021-02-24T12:32:35Z</time>
      </trkpt>
      <trkpt lat="44.39946" lon="5.07963">
        <ele>421.7</ele>
        <time>2021-02-24T12:32:36Z</time>
      </trkpt>
      <trkpt lat="44.3995" lon="5.0796">
        <ele>421.6</ele>
        <time>2021-02-24T12:32:37Z</time>
      </trkpt>
      <trkpt lat="44.39954" lon="5.07956">
        <ele>421.5</ele>
        <time>2021-02-24T12:32:38Z</time>
      </trkpt>
      <trkpt lat="44.39958" lon="5.07952">
        <ele>421.4</ele>
        <time>2021-02-24T12:32:39Z</time>
      </trkpt>
      <trkpt lat="44.39963" lon="5.07949">
        <ele>421.2</ele>
        <time>2021-02-24T12:32:40Z</time>
      </trkpt>
      <trkpt lat="44.39967" lon="5.07945">
        <ele>421</ele>
        <time>2021-02-24T12:32:41Z</time>
      </trkpt>
      <trkpt lat="44.39972" lon="5.0794">
        <ele>420.8</ele>
        <time>2021-02-24T12:32:42Z</time>
      </trkpt>
      <trkpt lat="44.39977" lon="5.07936">
        <ele>420.7</ele>
        <time>2021-02-24T12:32:43Z</time>
      </trkpt>
      <trkpt lat="44.39983" lon="5.07932">
        <ele>420.7</ele>
        <time>2021-02-24T12:32:44Z</time>
      </trkpt>
      <trkpt lat="44.39988" lon="5.07927">
        <ele>420.6</ele>
        <time>2021-02-24T12:32:45Z</time>
      </trkpt>
      <trkpt lat="44.39988" lon="5.07927">
        <ele>420.6</ele>
        <time>2021-02-24T12:32:46Z</time>
      </trkpt>
      <trkpt lat="44.39994" lon="5.07923">
        <ele>420.4</ele>
        <time>2021-02-24T12:32:47Z</time>
      </trkpt>
      <trkpt lat="44.39999" lon="5.07918">
        <ele>420.2</ele>
        <time>2021-02-24T12:32:48Z</time>
      </trkpt>
      <trkpt lat="44.40005" lon="5.07913">
        <ele>420.1</ele>
        <time>2021-02-24T12:32:49Z</time>
      </trkpt>
      <trkpt lat="44.4001" lon="5.07907">
        <ele>420</ele>
        <time>2021-02-24T12:32:50Z</time>
      </trkpt>
      <trkpt lat="44.40016" lon="5.07902">
        <ele>419.9</ele>
        <time>2021-02-24T12:32:51Z</time>
      </trkpt>
      <trkpt lat="44.40021" lon="5.07897">
        <ele>419.8</ele>
        <time>2021-02-24T12:32:52Z</time>
      </trkpt>
      <trkpt lat="44.40026" lon="5.0789">
        <ele>419.8</ele>
        <time>2021-02-24T12:32:53Z</time>
      </trkpt>
      <trkpt lat="44.40031" lon="5.07884">
        <ele>419.7</ele>
        <time>2021-02-24T12:32:54Z</time>
      </trkpt>
      <trkpt lat="44.40041" lon="5.07872">
        <ele>419.7</ele>
        <time>2021-02-24T12:32:55Z</time>
      </trkpt>
      <trkpt lat="44.40041" lon="5.07872">
        <ele>419.7</ele>
        <time>2021-02-24T12:32:56Z</time>
      </trkpt>
      <trkpt lat="44.40046" lon="5.07866">
        <ele>419.7</ele>
        <time>2021-02-24T12:32:57Z</time>
      </trkpt>
      <trkpt lat="44.4005" lon="5.0786">
        <ele>419.7</ele>
        <time>2021-02-24T12:32:58Z</time>
      </trkpt>
      <trkpt lat="44.40054" lon="5.07854">
        <ele>419.7</ele>
        <time>2021-02-24T12:32:59Z</time>
      </trkpt>
      <trkpt lat="44.40058" lon="5.07848">
        <ele>419.7</ele>
        <time>2021-02-24T12:33:00Z</time>
      </trkpt>
      <trkpt lat="44.40066" lon="5.07837">
        <ele>419.8</ele>
        <time>2021-02-24T12:33:01Z</time>
      </trkpt>
      <trkpt lat="44.40069" lon="5.07832">
        <ele>419.8</ele>
        <time>2021-02-24T12:33:02Z</time>
      </trkpt>
      <trkpt lat="44.40073" lon="5.07827">
        <ele>419.8</ele>
        <time>2021-02-24T12:33:03Z</time>
      </trkpt>
      <trkpt lat="44.40076" lon="5.07821">
        <ele>419.9</ele>
        <time>2021-02-24T12:33:04Z</time>
      </trkpt>
      <trkpt lat="44.4008" lon="5.07816">
        <ele>419.9</ele>
        <time>2021-02-24T12:33:05Z</time>
      </trkpt>
      <trkpt lat="44.40084" lon="5.0781">
        <ele>419.9</ele>
        <time>2021-02-24T12:33:06Z</time>
      </trkpt>
      <trkpt lat="44.40087" lon="5.07805">
        <ele>420</ele>
        <time>2021-02-24T12:33:07Z</time>
      </trkpt>
      <trkpt lat="44.40091" lon="5.07799">
        <ele>420</ele>
        <time>2021-02-24T12:33:08Z</time>
      </trkpt>
      <trkpt lat="44.40094" lon="5.07794">
        <ele>420</ele>
        <time>2021-02-24T12:33:09Z</time>
      </trkpt>
      <trkpt lat="44.40098" lon="5.07789">
        <ele>420.1</ele>
        <time>2021-02-24T12:33:10Z</time>
      </trkpt>
      <trkpt lat="44.40098" lon="5.07789">
        <ele>420.1</ele>
        <time>2021-02-24T12:33:11Z</time>
      </trkpt>
      <trkpt lat="44.40101" lon="5.07784">
        <ele>420.1</ele>
        <time>2021-02-24T12:33:12Z</time>
      </trkpt>
      <trkpt lat="44.40104" lon="5.0778">
        <ele>420.2</ele>
        <time>2021-02-24T12:33:13Z</time>
      </trkpt>
      <trkpt lat="44.4011" lon="5.07771">
        <ele>420.3</ele>
        <time>2021-02-24T12:33:14Z</time>
      </trkpt>
      <trkpt lat="44.4011" lon="5.07771">
        <ele>420.3</ele>
        <time>2021-02-24T12:33:15Z</time>
      </trkpt>
      <trkpt lat="44.40113" lon="5.07766">
        <ele>420.4</ele>
        <time>2021-02-24T12:33:16Z</time>
      </trkpt>
      <trkpt lat="44.40119" lon="5.07758">
        <ele>420.5</ele>
        <time>2021-02-24T12:33:17Z</time>
      </trkpt>
      <trkpt lat="44.40119" lon="5.07758">
        <ele>420.5</ele>
        <time>2021-02-24T12:33:18Z</time>
      </trkpt>
      <trkpt lat="44.40125" lon="5.07749">
        <ele>420.6</ele>
        <time>2021-02-24T12:33:19Z</time>
      </trkpt>
      <trkpt lat="44.40128" lon="5.07745">
        <ele>420.7</ele>
        <time>2021-02-24T12:33:20Z</time>
      </trkpt>
      <trkpt lat="44.40131" lon="5.07741">
        <ele>420.8</ele>
        <time>2021-02-24T12:33:21Z</time>
      </trkpt>
      <trkpt lat="44.40135" lon="5.07736">
        <ele>420.9</ele>
        <time>2021-02-24T12:33:22Z</time>
      </trkpt>
      <trkpt lat="44.40138" lon="5.07732">
        <ele>421</ele>
        <time>2021-02-24T12:33:23Z</time>
      </trkpt>
      <trkpt lat="44.40141" lon="5.07727">
        <ele>421.1</ele>
        <time>2021-02-24T12:33:24Z</time>
      </trkpt>
      <trkpt lat="44.40144" lon="5.07722">
        <ele>421.2</ele>
        <time>2021-02-24T12:33:25Z</time>
      </trkpt>
      <trkpt lat="44.40147" lon="5.07718">
        <ele>421.3</ele>
        <time>2021-02-24T12:33:26Z</time>
      </trkpt>
      <trkpt lat="44.4015" lon="5.07713">
        <ele>421.4</ele>
        <time>2021-02-24T12:33:27Z</time>
      </trkpt>
      <trkpt lat="44.40153" lon="5.07708">
        <ele>421.5</ele>
        <time>2021-02-24T12:33:28Z</time>
      </trkpt>
      <trkpt lat="44.40156" lon="5.07703">
        <ele>421.7</ele>
        <time>2021-02-24T12:33:29Z</time>
      </trkpt>
      <trkpt lat="44.40159" lon="5.07698">
        <ele>421.8</ele>
        <time>2021-02-24T12:33:30Z</time>
      </trkpt>
      <trkpt lat="44.40162" lon="5.07693">
        <ele>422</ele>
        <time>2021-02-24T12:33:31Z</time>
      </trkpt>
      <trkpt lat="44.40164" lon="5.07688">
        <ele>422.1</ele>
        <time>2021-02-24T12:33:32Z</time>
      </trkpt>
      <trkpt lat="44.40167" lon="5.07684">
        <ele>422.3</ele>
        <time>2021-02-24T12:33:33Z</time>
      </trkpt>
      <trkpt lat="44.40169" lon="5.07679">
        <ele>422.4</ele>
        <time>2021-02-24T12:33:34Z</time>
      </trkpt>
      <trkpt lat="44.40171" lon="5.07675">
        <ele>422.5</ele>
        <time>2021-02-24T12:33:35Z</time>
      </trkpt>
      <trkpt lat="44.40174" lon="5.07671">
        <ele>422.6</ele>
        <time>2021-02-24T12:33:36Z</time>
      </trkpt>
      <trkpt lat="44.40176" lon="5.07667">
        <ele>422.8</ele>
        <time>2021-02-24T12:33:37Z</time>
      </trkpt>
      <trkpt lat="44.40179" lon="5.07663">
        <ele>422.9</ele>
        <time>2021-02-24T12:33:38Z</time>
      </trkpt>
      <trkpt lat="44.40181" lon="5.07658">
        <ele>423</ele>
        <time>2021-02-24T12:33:39Z</time>
      </trkpt>
      <trkpt lat="44.40183" lon="5.07654">
        <ele>423.2</ele>
        <time>2021-02-24T12:33:40Z</time>
      </trkpt>
      <trkpt lat="44.40186" lon="5.07649">
        <ele>423.3</ele>
        <time>2021-02-24T12:33:41Z</time>
      </trkpt>
      <trkpt lat="44.40188" lon="5.07644">
        <ele>423.4</ele>
        <time>2021-02-24T12:33:42Z</time>
      </trkpt>
      <trkpt lat="44.4019" lon="5.07639">
        <ele>423.5</ele>
        <time>2021-02-24T12:33:43Z</time>
      </trkpt>
      <trkpt lat="44.40193" lon="5.07635">
        <ele>423.6</ele>
        <time>2021-02-24T12:33:44Z</time>
      </trkpt>
      <trkpt lat="44.40195" lon="5.0763">
        <ele>423.7</ele>
        <time>2021-02-24T12:33:45Z</time>
      </trkpt>
      <trkpt lat="44.40195" lon="5.0763">
        <ele>423.7</ele>
        <time>2021-02-24T12:33:46Z</time>
      </trkpt>
      <trkpt lat="44.40198" lon="5.07625">
        <ele>423.8</ele>
        <time>2021-02-24T12:33:47Z</time>
      </trkpt>
      <trkpt lat="44.402" lon="5.07621">
        <ele>423.8</ele>
        <time>2021-02-24T12:33:48Z</time>
      </trkpt>
      <trkpt lat="44.40203" lon="5.07616">
        <ele>423.9</ele>
        <time>2021-02-24T12:33:49Z</time>
      </trkpt>
      <trkpt lat="44.40205" lon="5.07612">
        <ele>424</ele>
        <time>2021-02-24T12:33:50Z</time>
      </trkpt>
      <trkpt lat="44.40207" lon="5.07607">
        <ele>424.1</ele>
        <time>2021-02-24T12:33:51Z</time>
      </trkpt>
      <trkpt lat="44.4021" lon="5.07597">
        <ele>424.2</ele>
        <time>2021-02-24T12:33:52Z</time>
      </trkpt>
      <trkpt lat="44.4021" lon="5.07597">
        <ele>424.2</ele>
        <time>2021-02-24T12:33:53Z</time>
      </trkpt>
      <trkpt lat="44.40212" lon="5.07592">
        <ele>424.3</ele>
        <time>2021-02-24T12:33:54Z</time>
      </trkpt>
      <trkpt lat="44.40214" lon="5.07587">
        <ele>424.3</ele>
        <time>2021-02-24T12:33:55Z</time>
      </trkpt>
      <trkpt lat="44.40215" lon="5.07582">
        <ele>424.3</ele>
        <time>2021-02-24T12:33:56Z</time>
      </trkpt>
      <trkpt lat="44.40217" lon="5.07577">
        <ele>424.4</ele>
        <time>2021-02-24T12:33:57Z</time>
      </trkpt>
      <trkpt lat="44.40219" lon="5.07566">
        <ele>424.4</ele>
        <time>2021-02-24T12:33:58Z</time>
      </trkpt>
      <trkpt lat="44.4022" lon="5.0756">
        <ele>424.4</ele>
        <time>2021-02-24T12:33:59Z</time>
      </trkpt>
      <trkpt lat="44.40221" lon="5.07554">
        <ele>424.4</ele>
        <time>2021-02-24T12:34:00Z</time>
      </trkpt>
      <trkpt lat="44.40222" lon="5.07548">
        <ele>424.3</ele>
        <time>2021-02-24T12:34:01Z</time>
      </trkpt>
      <trkpt lat="44.40223" lon="5.07541">
        <ele>424.3</ele>
        <time>2021-02-24T12:34:02Z</time>
      </trkpt>
      <trkpt lat="44.40223" lon="5.07534">
        <ele>424.2</ele>
        <time>2021-02-24T12:34:03Z</time>
      </trkpt>
      <trkpt lat="44.40224" lon="5.07527">
        <ele>424.2</ele>
        <time>2021-02-24T12:34:04Z</time>
      </trkpt>
      <trkpt lat="44.40224" lon="5.07519">
        <ele>424.1</ele>
        <time>2021-02-24T12:34:05Z</time>
      </trkpt>
      <trkpt lat="44.40225" lon="5.07511">
        <ele>424.1</ele>
        <time>2021-02-24T12:34:06Z</time>
      </trkpt>
      <trkpt lat="44.40225" lon="5.07504">
        <ele>424</ele>
        <time>2021-02-24T12:34:07Z</time>
      </trkpt>
      <trkpt lat="44.40225" lon="5.07495">
        <ele>423.9</ele>
        <time>2021-02-24T12:34:08Z</time>
      </trkpt>
      <trkpt lat="44.40225" lon="5.07495">
        <ele>423.9</ele>
        <time>2021-02-24T12:34:09Z</time>
      </trkpt>
      <trkpt lat="44.40225" lon="5.07487">
        <ele>423.9</ele>
        <time>2021-02-24T12:34:10Z</time>
      </trkpt>
      <trkpt lat="44.40225" lon="5.0747">
        <ele>423.8</ele>
        <time>2021-02-24T12:34:11Z</time>
      </trkpt>
      <trkpt lat="44.40225" lon="5.0747">
        <ele>423.8</ele>
        <time>2021-02-24T12:34:12Z</time>
      </trkpt>
      <trkpt lat="44.40225" lon="5.07461">
        <ele>423.8</ele>
        <time>2021-02-24T12:34:13Z</time>
      </trkpt>
      <trkpt lat="44.40224" lon="5.07453">
        <ele>423.8</ele>
        <time>2021-02-24T12:34:14Z</time>
      </trkpt>
      <trkpt lat="44.40224" lon="5.07445">
        <ele>423.7</ele>
        <time>2021-02-24T12:34:15Z</time>
      </trkpt>
      <trkpt lat="44.40224" lon="5.07437">
        <ele>423.7</ele>
        <time>2021-02-24T12:34:16Z</time>
      </trkpt>
      <trkpt lat="44.40224" lon="5.07421">
        <ele>423.6</ele>
        <time>2021-02-24T12:34:17Z</time>
      </trkpt>
      <trkpt lat="44.40224" lon="5.07414">
        <ele>423.6</ele>
        <time>2021-02-24T12:34:18Z</time>
      </trkpt>
      <trkpt lat="44.40224" lon="5.07408">
        <ele>423.5</ele>
        <time>2021-02-24T12:34:19Z</time>
      </trkpt>
      <trkpt lat="44.40224" lon="5.07401">
        <ele>423.5</ele>
        <time>2021-02-24T12:34:20Z</time>
      </trkpt>
      <trkpt lat="44.40225" lon="5.07395">
        <ele>423.4</ele>
        <time>2021-02-24T12:34:21Z</time>
      </trkpt>
      <trkpt lat="44.40225" lon="5.07389">
        <ele>423.4</ele>
        <time>2021-02-24T12:34:22Z</time>
      </trkpt>
      <trkpt lat="44.40225" lon="5.07383">
        <ele>423.4</ele>
        <time>2021-02-24T12:34:23Z</time>
      </trkpt>
      <trkpt lat="44.40226" lon="5.07377">
        <ele>423.3</ele>
        <time>2021-02-24T12:34:24Z</time>
      </trkpt>
      <trkpt lat="44.40226" lon="5.07371">
        <ele>423.3</ele>
        <time>2021-02-24T12:34:25Z</time>
      </trkpt>
      <trkpt lat="44.40227" lon="5.07366">
        <ele>423.3</ele>
        <time>2021-02-24T12:34:26Z</time>
      </trkpt>
      <trkpt lat="44.40227" lon="5.0736">
        <ele>423.3</ele>
        <time>2021-02-24T12:34:27Z</time>
      </trkpt>
      <trkpt lat="44.40228" lon="5.07355">
        <ele>423.4</ele>
        <time>2021-02-24T12:34:28Z</time>
      </trkpt>
      <trkpt lat="44.40229" lon="5.0735">
        <ele>423.4</ele>
        <time>2021-02-24T12:34:29Z</time>
      </trkpt>
      <trkpt lat="44.4023" lon="5.07344">
        <ele>423.4</ele>
        <time>2021-02-24T12:34:30Z</time>
      </trkpt>
      <trkpt lat="44.40231" lon="5.07339">
        <ele>423.5</ele>
        <time>2021-02-24T12:34:31Z</time>
      </trkpt>
      <trkpt lat="44.40233" lon="5.07334">
        <ele>423.6</ele>
        <time>2021-02-24T12:34:32Z</time>
      </trkpt>
      <trkpt lat="44.40235" lon="5.07328">
        <ele>423.7</ele>
        <time>2021-02-24T12:34:33Z</time>
      </trkpt>
      <trkpt lat="44.40237" lon="5.07323">
        <ele>423.8</ele>
        <time>2021-02-24T12:34:34Z</time>
      </trkpt>
      <trkpt lat="44.40239" lon="5.07318">
        <ele>423.9</ele>
        <time>2021-02-24T12:34:35Z</time>
      </trkpt>
      <trkpt lat="44.40239" lon="5.07312">
        <ele>423.9</ele>
        <time>2021-02-24T12:34:36Z</time>
      </trkpt>
      <trkpt lat="44.4024" lon="5.07307">
        <ele>424</ele>
        <time>2021-02-24T12:34:37Z</time>
      </trkpt>
      <trkpt lat="44.40239" lon="5.07303">
        <ele>424</ele>
        <time>2021-02-24T12:34:38Z</time>
      </trkpt>
      <trkpt lat="44.40239" lon="5.07299">
        <ele>424</ele>
        <time>2021-02-24T12:34:39Z</time>
      </trkpt>
      <trkpt lat="44.40238" lon="5.07296">
        <ele>424</ele>
        <time>2021-02-24T12:34:40Z</time>
      </trkpt>
      <trkpt lat="44.40237" lon="5.07294">
        <ele>424</ele>
        <time>2021-02-24T12:34:41Z</time>
      </trkpt>
      <trkpt lat="44.40237" lon="5.07294">
        <ele>424</ele>
        <time>2021-02-24T12:34:42Z</time>
      </trkpt>
      <trkpt lat="44.40236" lon="5.07289">
        <ele>424</ele>
        <time>2021-02-24T12:34:43Z</time>
      </trkpt>
      <trkpt lat="44.40237" lon="5.07287">
        <ele>424</ele>
        <time>2021-02-24T12:34:44Z</time>
      </trkpt>
      <trkpt lat="44.40237" lon="5.07287">
        <ele>424</ele>
        <time>2021-02-24T12:34:45Z</time>
      </trkpt>
      <trkpt lat="44.40237" lon="5.07287">
        <ele>424</ele>
        <time>2021-02-24T12:34:46Z</time>
      </trkpt>
      <trkpt lat="44.40237" lon="5.07287">
        <ele>424</ele>
        <time>2021-02-24T12:34:47Z</time>
      </trkpt>
      <trkpt lat="44.40237" lon="5.07287">
        <ele>424</ele>
        <time>2021-02-24T12:34:48Z</time>
      </trkpt>
      <trkpt lat="44.40236" lon="5.07285">
        <ele>424.1</ele>
        <time>2021-02-24T12:34:49Z</time>
      </trkpt>
      <trkpt lat="44.40234" lon="5.07284">
        <ele>424</ele>
        <time>2021-02-24T12:50:52Z</time>
      </trkpt>
      <trkpt lat="44.40234" lon="5.07284">
        <ele>424</ele>
        <time>2021-02-24T12:50:53Z</time>
      </trkpt>
      <trkpt lat="44.40232" lon="5.07286">
        <ele>423.8</ele>
        <time>2021-02-24T12:50:54Z</time>
      </trkpt>
      <trkpt lat="44.40232" lon="5.07286">
        <ele>423.8</ele>
        <time>2021-02-24T12:50:55Z</time>
      </trkpt>
      <trkpt lat="44.40229" lon="5.07284">
        <ele>423.5</ele>
        <time>2021-02-24T12:50:56Z</time>
      </trkpt>
      <trkpt lat="44.40228" lon="5.07281">
        <ele>423.3</ele>
        <time>2021-02-24T12:50:57Z</time>
      </trkpt>
      <trkpt lat="44.40227" lon="5.07278">
        <ele>423.1</ele>
        <time>2021-02-24T12:50:58Z</time>
      </trkpt>
      <trkpt lat="44.40225" lon="5.07274">
        <ele>422.8</ele>
        <time>2021-02-24T12:50:59Z</time>
      </trkpt>
      <trkpt lat="44.40223" lon="5.07268">
        <ele>422.4</ele>
        <time>2021-02-24T12:51:00Z</time>
      </trkpt>
      <trkpt lat="44.40222" lon="5.07262">
        <ele>421.9</ele>
        <time>2021-02-24T12:51:01Z</time>
      </trkpt>
      <trkpt lat="44.4022" lon="5.07255">
        <ele>421.4</ele>
        <time>2021-02-24T12:51:02Z</time>
      </trkpt>
      <trkpt lat="44.40218" lon="5.07247">
        <ele>420.8</ele>
        <time>2021-02-24T12:51:03Z</time>
      </trkpt>
      <trkpt lat="44.40217" lon="5.07238">
        <ele>420.1</ele>
        <time>2021-02-24T12:51:04Z</time>
      </trkpt>
      <trkpt lat="44.40216" lon="5.07228">
        <ele>419.4</ele>
        <time>2021-02-24T12:51:05Z</time>
      </trkpt>
      <trkpt lat="44.40216" lon="5.07228">
        <ele>419.4</ele>
        <time>2021-02-24T12:51:06Z</time>
      </trkpt>
      <trkpt lat="44.40215" lon="5.07218">
        <ele>418.8</ele>
        <time>2021-02-24T12:51:07Z</time>
      </trkpt>
      <trkpt lat="44.40214" lon="5.07208">
        <ele>418.4</ele>
        <time>2021-02-24T12:51:08Z</time>
      </trkpt>
      <trkpt lat="44.40213" lon="5.07198">
        <ele>417.9</ele>
        <time>2021-02-24T12:51:09Z</time>
      </trkpt>
      <trkpt lat="44.40212" lon="5.07186">
        <ele>417.5</ele>
        <time>2021-02-24T12:51:10Z</time>
      </trkpt>
      <trkpt lat="44.40212" lon="5.07175">
        <ele>416.9</ele>
        <time>2021-02-24T12:51:11Z</time>
      </trkpt>
      <trkpt lat="44.40213" lon="5.07151">
        <ele>415.8</ele>
        <time>2021-02-24T12:51:12Z</time>
      </trkpt>
      <trkpt lat="44.40214" lon="5.07139">
        <ele>415.3</ele>
        <time>2021-02-24T12:51:13Z</time>
      </trkpt>
      <trkpt lat="44.40214" lon="5.07139">
        <ele>415.3</ele>
        <time>2021-02-24T12:51:14Z</time>
      </trkpt>
      <trkpt lat="44.40214" lon="5.07127">
        <ele>414.8</ele>
        <time>2021-02-24T12:51:15Z</time>
      </trkpt>
      <trkpt lat="44.40214" lon="5.07114">
        <ele>414.3</ele>
        <time>2021-02-24T12:51:16Z</time>
      </trkpt>
      <trkpt lat="44.40215" lon="5.07101">
        <ele>413.8</ele>
        <time>2021-02-24T12:51:17Z</time>
      </trkpt>
      <trkpt lat="44.40216" lon="5.07074">
        <ele>412.6</ele>
        <time>2021-02-24T12:51:18Z</time>
      </trkpt>
      <trkpt lat="44.40217" lon="5.0706">
        <ele>412</ele>
        <time>2021-02-24T12:51:19Z</time>
      </trkpt>
      <trkpt lat="44.40217" lon="5.07046">
        <ele>411.5</ele>
        <time>2021-02-24T12:51:20Z</time>
      </trkpt>
      <trkpt lat="44.40218" lon="5.07032">
        <ele>410.8</ele>
        <time>2021-02-24T12:51:21Z</time>
      </trkpt>
      <trkpt lat="44.40219" lon="5.07017">
        <ele>410.1</ele>
        <time>2021-02-24T12:51:22Z</time>
      </trkpt>
      <trkpt lat="44.40219" lon="5.07017">
        <ele>410.1</ele>
        <time>2021-02-24T12:51:23Z</time>
      </trkpt>
      <trkpt lat="44.40219" lon="5.07002">
        <ele>409.4</ele>
        <time>2021-02-24T12:51:24Z</time>
      </trkpt>
      <trkpt lat="44.4022" lon="5.06987">
        <ele>408.7</ele>
        <time>2021-02-24T12:51:25Z</time>
      </trkpt>
      <trkpt lat="44.40221" lon="5.06972">
        <ele>408</ele>
        <time>2021-02-24T12:51:26Z</time>
      </trkpt>
      <trkpt lat="44.40222" lon="5.06941">
        <ele>406.6</ele>
        <time>2021-02-24T12:51:27Z</time>
      </trkpt>
      <trkpt lat="44.40223" lon="5.06925">
        <ele>405.8</ele>
        <time>2021-02-24T12:51:28Z</time>
      </trkpt>
      <trkpt lat="44.40224" lon="5.06909">
        <ele>405.1</ele>
        <time>2021-02-24T12:51:29Z</time>
      </trkpt>
      <trkpt lat="44.40224" lon="5.06893">
        <ele>404.5</ele>
        <time>2021-02-24T12:51:30Z</time>
      </trkpt>
      <trkpt lat="44.40225" lon="5.06878">
        <ele>403.9</ele>
        <time>2021-02-24T12:51:31Z</time>
      </trkpt>
      <trkpt lat="44.40225" lon="5.06878">
        <ele>403.9</ele>
        <time>2021-02-24T12:51:32Z</time>
      </trkpt>
      <trkpt lat="44.40225" lon="5.06862">
        <ele>403.3</ele>
        <time>2021-02-24T12:51:33Z</time>
      </trkpt>
      <trkpt lat="44.40226" lon="5.06846">
        <ele>402.6</ele>
        <time>2021-02-24T12:51:34Z</time>
      </trkpt>
      <trkpt lat="44.40226" lon="5.06831">
        <ele>402</ele>
        <time>2021-02-24T12:51:35Z</time>
      </trkpt>
      <trkpt lat="44.40224" lon="5.068">
        <ele>400.6</ele>
        <time>2021-02-24T12:51:36Z</time>
      </trkpt>
      <trkpt lat="44.40222" lon="5.06784">
        <ele>399.8</ele>
        <time>2021-02-24T12:51:37Z</time>
      </trkpt>
      <trkpt lat="44.4022" lon="5.06768">
        <ele>398.9</ele>
        <time>2021-02-24T12:51:38Z</time>
      </trkpt>
      <trkpt lat="44.40217" lon="5.06752">
        <ele>398</ele>
        <time>2021-02-24T12:51:39Z</time>
      </trkpt>
      <trkpt lat="44.40213" lon="5.06736">
        <ele>397.1</ele>
        <time>2021-02-24T12:51:40Z</time>
      </trkpt>
      <trkpt lat="44.40213" lon="5.06736">
        <ele>397.1</ele>
        <time>2021-02-24T12:51:41Z</time>
      </trkpt>
      <trkpt lat="44.40208" lon="5.06721">
        <ele>396.1</ele>
        <time>2021-02-24T12:51:42Z</time>
      </trkpt>
      <trkpt lat="44.40203" lon="5.06705">
        <ele>395.1</ele>
        <time>2021-02-24T12:51:43Z</time>
      </trkpt>
      <trkpt lat="44.40198" lon="5.06689">
        <ele>394.1</ele>
        <time>2021-02-24T12:51:44Z</time>
      </trkpt>
      <trkpt lat="44.40187" lon="5.06656">
        <ele>392.3</ele>
        <time>2021-02-24T12:51:45Z</time>
      </trkpt>
      <trkpt lat="44.40182" lon="5.06639">
        <ele>391.4</ele>
        <time>2021-02-24T12:51:46Z</time>
      </trkpt>
      <trkpt lat="44.40177" lon="5.06622">
        <ele>390.4</ele>
        <time>2021-02-24T12:51:47Z</time>
      </trkpt>
      <trkpt lat="44.40171" lon="5.06605">
        <ele>389.5</ele>
        <time>2021-02-24T12:51:48Z</time>
      </trkpt>
      <trkpt lat="44.40171" lon="5.06605">
        <ele>389.5</ele>
        <time>2021-02-24T12:51:49Z</time>
      </trkpt>
      <trkpt lat="44.4016" lon="5.06571">
        <ele>387.5</ele>
        <time>2021-02-24T12:51:50Z</time>
      </trkpt>
      <trkpt lat="44.4016" lon="5.06571">
        <ele>387.5</ele>
        <time>2021-02-24T12:51:51Z</time>
      </trkpt>
      <trkpt lat="44.40149" lon="5.06536">
        <ele>385.4</ele>
        <time>2021-02-24T12:51:52Z</time>
      </trkpt>
      <trkpt lat="44.40143" lon="5.06518">
        <ele>384.3</ele>
        <time>2021-02-24T12:51:53Z</time>
      </trkpt>
      <trkpt lat="44.40138" lon="5.065">
        <ele>383.2</ele>
        <time>2021-02-24T12:51:54Z</time>
      </trkpt>
      <trkpt lat="44.40132" lon="5.06483">
        <ele>382.1</ele>
        <time>2021-02-24T12:51:55Z</time>
      </trkpt>
      <trkpt lat="44.40132" lon="5.06483">
        <ele>382.1</ele>
        <time>2021-02-24T12:51:56Z</time>
      </trkpt>
      <trkpt lat="44.40126" lon="5.06465">
        <ele>381.1</ele>
        <time>2021-02-24T12:51:57Z</time>
      </trkpt>
      <trkpt lat="44.40121" lon="5.06447">
        <ele>380.2</ele>
        <time>2021-02-24T12:51:58Z</time>
      </trkpt>
      <trkpt lat="44.40115" lon="5.0643">
        <ele>379.4</ele>
        <time>2021-02-24T12:51:59Z</time>
      </trkpt>
      <trkpt lat="44.40105" lon="5.06395">
        <ele>377.8</ele>
        <time>2021-02-24T12:52:00Z</time>
      </trkpt>
      <trkpt lat="44.401" lon="5.06378">
        <ele>377.1</ele>
        <time>2021-02-24T12:52:01Z</time>
      </trkpt>
      <trkpt lat="44.40095" lon="5.06361">
        <ele>376.5</ele>
        <time>2021-02-24T12:52:02Z</time>
      </trkpt>
      <trkpt lat="44.40095" lon="5.06361">
        <ele>376.5</ele>
        <time>2021-02-24T12:52:03Z</time>
      </trkpt>
      <trkpt lat="44.4009" lon="5.06344">
        <ele>375.8</ele>
        <time>2021-02-24T12:52:04Z</time>
      </trkpt>
      <trkpt lat="44.40085" lon="5.06328">
        <ele>375.2</ele>
        <time>2021-02-24T12:52:05Z</time>
      </trkpt>
      <trkpt lat="44.4008" lon="5.06311">
        <ele>374.5</ele>
        <time>2021-02-24T12:52:06Z</time>
      </trkpt>
      <trkpt lat="44.40069" lon="5.06278">
        <ele>372.9</ele>
        <time>2021-02-24T12:52:07Z</time>
      </trkpt>
      <trkpt lat="44.40064" lon="5.06261">
        <ele>371.9</ele>
        <time>2021-02-24T12:52:08Z</time>
      </trkpt>
      <trkpt lat="44.40058" lon="5.06244">
        <ele>371</ele>
        <time>2021-02-24T12:52:09Z</time>
      </trkpt>
      <trkpt lat="44.40053" lon="5.06227">
        <ele>370.1</ele>
        <time>2021-02-24T12:52:10Z</time>
      </trkpt>
      <trkpt lat="44.40053" lon="5.06227">
        <ele>370.1</ele>
        <time>2021-02-24T12:52:11Z</time>
      </trkpt>
      <trkpt lat="44.40047" lon="5.0621">
        <ele>369.3</ele>
        <time>2021-02-24T12:52:12Z</time>
      </trkpt>
      <trkpt lat="44.40041" lon="5.06193">
        <ele>368.5</ele>
        <time>2021-02-24T12:52:13Z</time>
      </trkpt>
      <trkpt lat="44.40036" lon="5.06177">
        <ele>367.8</ele>
        <time>2021-02-24T12:52:14Z</time>
      </trkpt>
      <trkpt lat="44.40025" lon="5.06145">
        <ele>366.5</ele>
        <time>2021-02-24T12:52:15Z</time>
      </trkpt>
      <trkpt lat="44.4002" lon="5.06129">
        <ele>365.9</ele>
        <time>2021-02-24T12:52:16Z</time>
      </trkpt>
      <trkpt lat="44.40015" lon="5.06113">
        <ele>365.3</ele>
        <time>2021-02-24T12:52:17Z</time>
      </trkpt>
      <trkpt lat="44.4001" lon="5.06097">
        <ele>364.8</ele>
        <time>2021-02-24T12:52:18Z</time>
      </trkpt>
      <trkpt lat="44.4001" lon="5.06097">
        <ele>364.8</ele>
        <time>2021-02-24T12:52:19Z</time>
      </trkpt>
      <trkpt lat="44.40005" lon="5.06082">
        <ele>364.3</ele>
        <time>2021-02-24T12:52:20Z</time>
      </trkpt>
      <trkpt lat="44.40001" lon="5.06067">
        <ele>363.8</ele>
        <time>2021-02-24T12:52:21Z</time>
      </trkpt>
      <trkpt lat="44.39996" lon="5.06053">
        <ele>363.3</ele>
        <time>2021-02-24T12:52:22Z</time>
      </trkpt>
      <trkpt lat="44.39987" lon="5.06025">
        <ele>362.4</ele>
        <time>2021-02-24T12:52:23Z</time>
      </trkpt>
      <trkpt lat="44.39982" lon="5.06011">
        <ele>361.9</ele>
        <time>2021-02-24T12:52:24Z</time>
      </trkpt>
      <trkpt lat="44.39978" lon="5.05997">
        <ele>361.5</ele>
        <time>2021-02-24T12:52:25Z</time>
      </trkpt>
      <trkpt lat="44.39974" lon="5.05983">
        <ele>361.1</ele>
        <time>2021-02-24T12:52:26Z</time>
      </trkpt>
      <trkpt lat="44.39969" lon="5.05969">
        <ele>360.7</ele>
        <time>2021-02-24T12:52:27Z</time>
      </trkpt>
      <trkpt lat="44.39965" lon="5.05955">
        <ele>360.3</ele>
        <time>2021-02-24T12:52:28Z</time>
      </trkpt>
      <trkpt lat="44.39961" lon="5.05942">
        <ele>360</ele>
        <time>2021-02-24T12:52:29Z</time>
      </trkpt>
      <trkpt lat="44.39956" lon="5.05928">
        <ele>359.6</ele>
        <time>2021-02-24T12:52:30Z</time>
      </trkpt>
      <trkpt lat="44.39952" lon="5.05915">
        <ele>359.2</ele>
        <time>2021-02-24T12:52:31Z</time>
      </trkpt>
      <trkpt lat="44.39952" lon="5.05915">
        <ele>359.2</ele>
        <time>2021-02-24T12:52:32Z</time>
      </trkpt>
      <trkpt lat="44.39948" lon="5.05902">
        <ele>358.9</ele>
        <time>2021-02-24T12:52:33Z</time>
      </trkpt>
      <trkpt lat="44.39944" lon="5.05889">
        <ele>358.5</ele>
        <time>2021-02-24T12:52:34Z</time>
      </trkpt>
      <trkpt lat="44.3994" lon="5.05875">
        <ele>358.2</ele>
        <time>2021-02-24T12:52:35Z</time>
      </trkpt>
      <trkpt lat="44.39936" lon="5.05862">
        <ele>357.8</ele>
        <time>2021-02-24T12:52:36Z</time>
      </trkpt>
      <trkpt lat="44.39928" lon="5.05836">
        <ele>357.1</ele>
        <time>2021-02-24T12:52:37Z</time>
      </trkpt>
      <trkpt lat="44.39924" lon="5.05822">
        <ele>356.8</ele>
        <time>2021-02-24T12:52:38Z</time>
      </trkpt>
      <trkpt lat="44.3992" lon="5.05809">
        <ele>356.4</ele>
        <time>2021-02-24T12:52:39Z</time>
      </trkpt>
      <trkpt lat="44.39917" lon="5.05796">
        <ele>356.1</ele>
        <time>2021-02-24T12:52:40Z</time>
      </trkpt>
      <trkpt lat="44.39914" lon="5.05782">
        <ele>355.8</ele>
        <time>2021-02-24T12:52:41Z</time>
      </trkpt>
      <trkpt lat="44.39914" lon="5.05782">
        <ele>355.8</ele>
        <time>2021-02-24T12:52:42Z</time>
      </trkpt>
      <trkpt lat="44.39911" lon="5.05769">
        <ele>355.5</ele>
        <time>2021-02-24T12:52:43Z</time>
      </trkpt>
      <trkpt lat="44.39908" lon="5.05756">
        <ele>355.1</ele>
        <time>2021-02-24T12:52:44Z</time>
      </trkpt>
      <trkpt lat="44.39905" lon="5.05743">
        <ele>354.7</ele>
        <time>2021-02-24T12:52:45Z</time>
      </trkpt>
      <trkpt lat="44.39901" lon="5.0573">
        <ele>354.4</ele>
        <time>2021-02-24T12:52:46Z</time>
      </trkpt>
      <trkpt lat="44.39895" lon="5.05704">
        <ele>353.7</ele>
        <time>2021-02-24T12:52:47Z</time>
      </trkpt>
      <trkpt lat="44.39895" lon="5.05704">
        <ele>353.7</ele>
        <time>2021-02-24T12:52:48Z</time>
      </trkpt>
      <trkpt lat="44.39892" lon="5.05691">
        <ele>353.6</ele>
        <time>2021-02-24T12:52:49Z</time>
      </trkpt>
      <trkpt lat="44.39889" lon="5.05679">
        <ele>353.5</ele>
        <time>2021-02-24T12:52:50Z</time>
      </trkpt>
      <trkpt lat="44.39886" lon="5.05666">
        <ele>353.3</ele>
        <time>2021-02-24T12:52:51Z</time>
      </trkpt>
      <trkpt lat="44.3988" lon="5.05641">
        <ele>352.6</ele>
        <time>2021-02-24T12:52:52Z</time>
      </trkpt>
      <trkpt lat="44.39877" lon="5.05628">
        <ele>352.3</ele>
        <time>2021-02-24T12:52:53Z</time>
      </trkpt>
      <trkpt lat="44.39874" lon="5.05615">
        <ele>351.9</ele>
        <time>2021-02-24T12:52:54Z</time>
      </trkpt>
      <trkpt lat="44.39871" lon="5.05603">
        <ele>351.6</ele>
        <time>2021-02-24T12:52:55Z</time>
      </trkpt>
      <trkpt lat="44.39868" lon="5.0559">
        <ele>351.3</ele>
        <time>2021-02-24T12:52:56Z</time>
      </trkpt>
      <trkpt lat="44.39865" lon="5.05577">
        <ele>350.9</ele>
        <time>2021-02-24T12:52:57Z</time>
      </trkpt>
      <trkpt lat="44.39865" lon="5.05577">
        <ele>350.9</ele>
        <time>2021-02-24T12:52:58Z</time>
      </trkpt>
      <trkpt lat="44.39862" lon="5.05564">
        <ele>350.6</ele>
        <time>2021-02-24T12:52:59Z</time>
      </trkpt>
      <trkpt lat="44.39859" lon="5.05551">
        <ele>350.2</ele>
        <time>2021-02-24T12:53:00Z</time>
      </trkpt>
      <trkpt lat="44.39857" lon="5.05538">
        <ele>349.9</ele>
        <time>2021-02-24T12:53:01Z</time>
      </trkpt>
      <trkpt lat="44.39854" lon="5.05525">
        <ele>349.5</ele>
        <time>2021-02-24T12:53:02Z</time>
      </trkpt>
      <trkpt lat="44.39849" lon="5.05499">
        <ele>348.9</ele>
        <time>2021-02-24T12:53:03Z</time>
      </trkpt>
      <trkpt lat="44.39847" lon="5.05486">
        <ele>348.6</ele>
        <time>2021-02-24T12:53:04Z</time>
      </trkpt>
      <trkpt lat="44.39845" lon="5.05473">
        <ele>348.3</ele>
        <time>2021-02-24T12:53:05Z</time>
      </trkpt>
      <trkpt lat="44.39844" lon="5.0546">
        <ele>348</ele>
        <time>2021-02-24T12:53:06Z</time>
      </trkpt>
      <trkpt lat="44.39842" lon="5.05448">
        <ele>347.7</ele>
        <time>2021-02-24T12:53:07Z</time>
      </trkpt>
      <trkpt lat="44.39842" lon="5.05448">
        <ele>347.7</ele>
        <time>2021-02-24T12:53:08Z</time>
      </trkpt>
      <trkpt lat="44.3984" lon="5.05435">
        <ele>347.4</ele>
        <time>2021-02-24T12:53:09Z</time>
      </trkpt>
      <trkpt lat="44.39838" lon="5.05422">
        <ele>347.1</ele>
        <time>2021-02-24T12:53:10Z</time>
      </trkpt>
      <trkpt lat="44.39837" lon="5.05409">
        <ele>346.8</ele>
        <time>2021-02-24T12:53:11Z</time>
      </trkpt>
      <trkpt lat="44.39833" lon="5.05382">
        <ele>346.2</ele>
        <time>2021-02-24T12:53:12Z</time>
      </trkpt>
      <trkpt lat="44.39832" lon="5.05369">
        <ele>345.9</ele>
        <time>2021-02-24T12:53:13Z</time>
      </trkpt>
      <trkpt lat="44.3983" lon="5.05355">
        <ele>345.6</ele>
        <time>2021-02-24T12:53:14Z</time>
      </trkpt>
      <trkpt lat="44.39828" lon="5.05342">
        <ele>345.3</ele>
        <time>2021-02-24T12:53:15Z</time>
      </trkpt>
      <trkpt lat="44.39826" lon="5.05329">
        <ele>345</ele>
        <time>2021-02-24T12:53:16Z</time>
      </trkpt>
      <trkpt lat="44.39825" lon="5.05316">
        <ele>344.7</ele>
        <time>2021-02-24T12:53:17Z</time>
      </trkpt>
      <trkpt lat="44.39825" lon="5.05316">
        <ele>344.7</ele>
        <time>2021-02-24T12:53:18Z</time>
      </trkpt>
      <trkpt lat="44.39823" lon="5.05303">
        <ele>344.4</ele>
        <time>2021-02-24T12:53:19Z</time>
      </trkpt>
      <trkpt lat="44.39821" lon="5.0529">
        <ele>344.1</ele>
        <time>2021-02-24T12:53:20Z</time>
      </trkpt>
      <trkpt lat="44.3982" lon="5.05278">
        <ele>343.7</ele>
        <time>2021-02-24T12:53:21Z</time>
      </trkpt>
      <trkpt lat="44.39818" lon="5.05265">
        <ele>343.4</ele>
        <time>2021-02-24T12:53:22Z</time>
      </trkpt>
      <trkpt lat="44.39817" lon="5.05252">
        <ele>343.1</ele>
        <time>2021-02-24T12:53:23Z</time>
      </trkpt>
      <trkpt lat="44.39813" lon="5.05227">
        <ele>342.5</ele>
        <time>2021-02-24T12:53:24Z</time>
      </trkpt>
      <trkpt lat="44.39811" lon="5.05214">
        <ele>342.2</ele>
        <time>2021-02-24T12:53:25Z</time>
      </trkpt>
      <trkpt lat="44.39811" lon="5.05214">
        <ele>342.2</ele>
        <time>2021-02-24T12:53:26Z</time>
      </trkpt>
      <trkpt lat="44.3981" lon="5.05201">
        <ele>341.8</ele>
        <time>2021-02-24T12:53:27Z</time>
      </trkpt>
      <trkpt lat="44.39808" lon="5.05187">
        <ele>341.5</ele>
        <time>2021-02-24T12:53:28Z</time>
      </trkpt>
      <trkpt lat="44.39806" lon="5.05174">
        <ele>341.1</ele>
        <time>2021-02-24T12:53:29Z</time>
      </trkpt>
      <trkpt lat="44.39804" lon="5.05161">
        <ele>340.7</ele>
        <time>2021-02-24T12:53:30Z</time>
      </trkpt>
      <trkpt lat="44.39802" lon="5.05148">
        <ele>340.3</ele>
        <time>2021-02-24T12:53:31Z</time>
      </trkpt>
      <trkpt lat="44.398" lon="5.05134">
        <ele>339.8</ele>
        <time>2021-02-24T12:53:32Z</time>
      </trkpt>
      <trkpt lat="44.39798" lon="5.05121">
        <ele>339.4</ele>
        <time>2021-02-24T12:53:33Z</time>
      </trkpt>
      <trkpt lat="44.39794" lon="5.05093">
        <ele>338.4</ele>
        <time>2021-02-24T12:53:34Z</time>
      </trkpt>
      <trkpt lat="44.39792" lon="5.05078">
        <ele>337.9</ele>
        <time>2021-02-24T12:53:35Z</time>
      </trkpt>
      <trkpt lat="44.3979" lon="5.05064">
        <ele>337.4</ele>
        <time>2021-02-24T12:53:36Z</time>
      </trkpt>
      <trkpt lat="44.39789" lon="5.0505">
        <ele>336.9</ele>
        <time>2021-02-24T12:53:37Z</time>
      </trkpt>
      <trkpt lat="44.39787" lon="5.05036">
        <ele>336.5</ele>
        <time>2021-02-24T12:53:38Z</time>
      </trkpt>
      <trkpt lat="44.39787" lon="5.05036">
        <ele>336.5</ele>
        <time>2021-02-24T12:53:39Z</time>
      </trkpt>
      <trkpt lat="44.39785" lon="5.05022">
        <ele>336</ele>
        <time>2021-02-24T12:53:40Z</time>
      </trkpt>
      <trkpt lat="44.39783" lon="5.05008">
        <ele>335.6</ele>
        <time>2021-02-24T12:53:41Z</time>
      </trkpt>
      <trkpt lat="44.39781" lon="5.04994">
        <ele>335.2</ele>
        <time>2021-02-24T12:53:42Z</time>
      </trkpt>
      <trkpt lat="44.39778" lon="5.0498">
        <ele>334.8</ele>
        <time>2021-02-24T12:53:43Z</time>
      </trkpt>
      <trkpt lat="44.39774" lon="5.04952">
        <ele>333.8</ele>
        <time>2021-02-24T12:53:44Z</time>
      </trkpt>
      <trkpt lat="44.39774" lon="5.04952">
        <ele>333.8</ele>
        <time>2021-02-24T12:53:45Z</time>
      </trkpt>
      <trkpt lat="44.39772" lon="5.04938">
        <ele>333.3</ele>
        <time>2021-02-24T12:53:46Z</time>
      </trkpt>
      <trkpt lat="44.39769" lon="5.04924">
        <ele>332.8</ele>
        <time>2021-02-24T12:53:47Z</time>
      </trkpt>
      <trkpt lat="44.39767" lon="5.04911">
        <ele>332.2</ele>
        <time>2021-02-24T12:53:48Z</time>
      </trkpt>
      <trkpt lat="44.39765" lon="5.04897">
        <ele>331.7</ele>
        <time>2021-02-24T12:53:49Z</time>
      </trkpt>
      <trkpt lat="44.39763" lon="5.04883">
        <ele>331.2</ele>
        <time>2021-02-24T12:53:50Z</time>
      </trkpt>
      <trkpt lat="44.3976" lon="5.04869">
        <ele>330.6</ele>
        <time>2021-02-24T12:53:51Z</time>
      </trkpt>
      <trkpt lat="44.39758" lon="5.04855">
        <ele>330.1</ele>
        <time>2021-02-24T12:53:52Z</time>
      </trkpt>
      <trkpt lat="44.39756" lon="5.04842">
        <ele>329.6</ele>
        <time>2021-02-24T12:53:53Z</time>
      </trkpt>
      <trkpt lat="44.39752" lon="5.04815">
        <ele>328.7</ele>
        <time>2021-02-24T12:53:54Z</time>
      </trkpt>
      <trkpt lat="44.3975" lon="5.04801">
        <ele>328.2</ele>
        <time>2021-02-24T12:53:55Z</time>
      </trkpt>
      <trkpt lat="44.39748" lon="5.04788">
        <ele>327.7</ele>
        <time>2021-02-24T12:53:56Z</time>
      </trkpt>
      <trkpt lat="44.39746" lon="5.04774">
        <ele>327.2</ele>
        <time>2021-02-24T12:53:57Z</time>
      </trkpt>
      <trkpt lat="44.39744" lon="5.0476">
        <ele>326.8</ele>
        <time>2021-02-24T12:53:58Z</time>
      </trkpt>
      <trkpt lat="44.39741" lon="5.04746">
        <ele>326.3</ele>
        <time>2021-02-24T12:53:59Z</time>
      </trkpt>
      <trkpt lat="44.39739" lon="5.04733">
        <ele>325.9</ele>
        <time>2021-02-24T12:54:00Z</time>
      </trkpt>
      <trkpt lat="44.39737" lon="5.04719">
        <ele>325.5</ele>
        <time>2021-02-24T12:54:01Z</time>
      </trkpt>
      <trkpt lat="44.39735" lon="5.04705">
        <ele>325.1</ele>
        <time>2021-02-24T12:54:02Z</time>
      </trkpt>
      <trkpt lat="44.39733" lon="5.04691">
        <ele>324.7</ele>
        <time>2021-02-24T12:54:03Z</time>
      </trkpt>
      <trkpt lat="44.39731" lon="5.04677">
        <ele>324.3</ele>
        <time>2021-02-24T12:54:04Z</time>
      </trkpt>
      <trkpt lat="44.39729" lon="5.04663">
        <ele>323.9</ele>
        <time>2021-02-24T12:54:05Z</time>
      </trkpt>
      <trkpt lat="44.39728" lon="5.0465">
        <ele>323.7</ele>
        <time>2021-02-24T12:54:06Z</time>
      </trkpt>
      <trkpt lat="44.39726" lon="5.04636">
        <ele>323.4</ele>
        <time>2021-02-24T12:54:07Z</time>
      </trkpt>
      <trkpt lat="44.39724" lon="5.04623">
        <ele>323.2</ele>
        <time>2021-02-24T12:54:08Z</time>
      </trkpt>
      <trkpt lat="44.39724" lon="5.04623">
        <ele>323.2</ele>
        <time>2021-02-24T12:54:09Z</time>
      </trkpt>
      <trkpt lat="44.39722" lon="5.0461">
        <ele>323</ele>
        <time>2021-02-24T12:54:10Z</time>
      </trkpt>
      <trkpt lat="44.3972" lon="5.04598">
        <ele>322.8</ele>
        <time>2021-02-24T12:54:11Z</time>
      </trkpt>
      <trkpt lat="44.39718" lon="5.04585">
        <ele>322.6</ele>
        <time>2021-02-24T12:54:12Z</time>
      </trkpt>
      <trkpt lat="44.39716" lon="5.04573">
        <ele>322.4</ele>
        <time>2021-02-24T12:54:13Z</time>
      </trkpt>
      <trkpt lat="44.39713" lon="5.04551">
        <ele>322.1</ele>
        <time>2021-02-24T12:54:14Z</time>
      </trkpt>
      <trkpt lat="44.39712" lon="5.0454">
        <ele>322</ele>
        <time>2021-02-24T12:54:15Z</time>
      </trkpt>
      <trkpt lat="44.3971" lon="5.0453">
        <ele>321.8</ele>
        <time>2021-02-24T12:54:16Z</time>
      </trkpt>
      <trkpt lat="44.39709" lon="5.0452">
        <ele>321.6</ele>
        <time>2021-02-24T12:54:17Z</time>
      </trkpt>
      <trkpt lat="44.39707" lon="5.0451">
        <ele>321.4</ele>
        <time>2021-02-24T12:54:18Z</time>
      </trkpt>
      <trkpt lat="44.39706" lon="5.04501">
        <ele>321.3</ele>
        <time>2021-02-24T12:54:19Z</time>
      </trkpt>
      <trkpt lat="44.39705" lon="5.04492">
        <ele>321.2</ele>
        <time>2021-02-24T12:54:20Z</time>
      </trkpt>
      <trkpt lat="44.39705" lon="5.04492">
        <ele>321.2</ele>
        <time>2021-02-24T12:54:21Z</time>
      </trkpt>
      <trkpt lat="44.39704" lon="5.04476">
        <ele>321</ele>
        <time>2021-02-24T12:54:22Z</time>
      </trkpt>
      <trkpt lat="44.39704" lon="5.04476">
        <ele>321</ele>
        <time>2021-02-24T12:54:23Z</time>
      </trkpt>
      <trkpt lat="44.39707" lon="5.04469">
        <ele>320.9</ele>
        <time>2021-02-24T12:54:24Z</time>
      </trkpt>
      <trkpt lat="44.39711" lon="5.04463">
        <ele>321</ele>
        <time>2021-02-24T12:54:25Z</time>
      </trkpt>
      <trkpt lat="44.39716" lon="5.04458">
        <ele>321</ele>
        <time>2021-02-24T12:54:26Z</time>
      </trkpt>
      <trkpt lat="44.39722" lon="5.04455">
        <ele>321</ele>
        <time>2021-02-24T12:54:27Z</time>
      </trkpt>
      <trkpt lat="44.39729" lon="5.04451">
        <ele>321</ele>
        <time>2021-02-24T12:54:28Z</time>
      </trkpt>
      <trkpt lat="44.39742" lon="5.04444">
        <ele>321</ele>
        <time>2021-02-24T12:54:29Z</time>
      </trkpt>
      <trkpt lat="44.39748" lon="5.0444">
        <ele>321</ele>
        <time>2021-02-24T12:54:30Z</time>
      </trkpt>
      <trkpt lat="44.39754" lon="5.04437">
        <ele>321</ele>
        <time>2021-02-24T12:54:31Z</time>
      </trkpt>
      <trkpt lat="44.3976" lon="5.04434">
        <ele>321.1</ele>
        <time>2021-02-24T12:54:32Z</time>
      </trkpt>
      <trkpt lat="44.39765" lon="5.04431">
        <ele>321.1</ele>
        <time>2021-02-24T12:54:33Z</time>
      </trkpt>
      <trkpt lat="44.3977" lon="5.04428">
        <ele>321.1</ele>
        <time>2021-02-24T12:54:34Z</time>
      </trkpt>
      <trkpt lat="44.39774" lon="5.04425">
        <ele>321.2</ele>
        <time>2021-02-24T12:54:35Z</time>
      </trkpt>
      <trkpt lat="44.39779" lon="5.04422">
        <ele>321.2</ele>
        <time>2021-02-24T12:54:36Z</time>
      </trkpt>
      <trkpt lat="44.39783" lon="5.04419">
        <ele>321.2</ele>
        <time>2021-02-24T12:54:37Z</time>
      </trkpt>
      <trkpt lat="44.39783" lon="5.04419">
        <ele>321.2</ele>
        <time>2021-02-24T12:54:38Z</time>
      </trkpt>
      <trkpt lat="44.39788" lon="5.04417">
        <ele>321.3</ele>
        <time>2021-02-24T12:54:39Z</time>
      </trkpt>
      <trkpt lat="44.39792" lon="5.04414">
        <ele>321.3</ele>
        <time>2021-02-24T12:54:40Z</time>
      </trkpt>
      <trkpt lat="44.39801" lon="5.04409">
        <ele>321.3</ele>
        <time>2021-02-24T12:54:41Z</time>
      </trkpt>
      <trkpt lat="44.39804" lon="5.04406">
        <ele>321.2</ele>
        <time>2021-02-24T12:54:42Z</time>
      </trkpt>
      <trkpt lat="44.39807" lon="5.04402">
        <ele>321.1</ele>
        <time>2021-02-24T12:54:43Z</time>
      </trkpt>
      <trkpt lat="44.39809" lon="5.04397">
        <ele>321</ele>
        <time>2021-02-24T12:54:44Z</time>
      </trkpt>
      <trkpt lat="44.39811" lon="5.04391">
        <ele>320.9</ele>
        <time>2021-02-24T12:54:45Z</time>
      </trkpt>
      <trkpt lat="44.39812" lon="5.04385">
        <ele>320.8</ele>
        <time>2021-02-24T12:54:46Z</time>
      </trkpt>
      <trkpt lat="44.39813" lon="5.04378">
        <ele>320.7</ele>
        <time>2021-02-24T12:54:47Z</time>
      </trkpt>
      <trkpt lat="44.39813" lon="5.04372">
        <ele>320.6</ele>
        <time>2021-02-24T12:54:48Z</time>
      </trkpt>
      <trkpt lat="44.39813" lon="5.04365">
        <ele>320.5</ele>
        <time>2021-02-24T12:54:49Z</time>
      </trkpt>
      <trkpt lat="44.39813" lon="5.04358">
        <ele>320.4</ele>
        <time>2021-02-24T12:54:50Z</time>
      </trkpt>
      <trkpt lat="44.39813" lon="5.04351">
        <ele>320.4</ele>
        <time>2021-02-24T12:54:51Z</time>
      </trkpt>
      <trkpt lat="44.39814" lon="5.04344">
        <ele>320.3</ele>
        <time>2021-02-24T12:54:52Z</time>
      </trkpt>
      <trkpt lat="44.39814" lon="5.04337">
        <ele>320.2</ele>
        <time>2021-02-24T12:54:53Z</time>
      </trkpt>
      <trkpt lat="44.39815" lon="5.04329">
        <ele>320.2</ele>
        <time>2021-02-24T12:54:54Z</time>
      </trkpt>
      <trkpt lat="44.39816" lon="5.04322">
        <ele>320.1</ele>
        <time>2021-02-24T12:54:55Z</time>
      </trkpt>
      <trkpt lat="44.39816" lon="5.04314">
        <ele>320.1</ele>
        <time>2021-02-24T12:54:56Z</time>
      </trkpt>
      <trkpt lat="44.39817" lon="5.04306">
        <ele>320</ele>
        <time>2021-02-24T12:54:57Z</time>
      </trkpt>
      <trkpt lat="44.39817" lon="5.04306">
        <ele>320</ele>
        <time>2021-02-24T12:54:58Z</time>
      </trkpt>
      <trkpt lat="44.39817" lon="5.04299">
        <ele>320</ele>
        <time>2021-02-24T12:54:59Z</time>
      </trkpt>
      <trkpt lat="44.39817" lon="5.04283">
        <ele>319.9</ele>
        <time>2021-02-24T12:55:00Z</time>
      </trkpt>
      <trkpt lat="44.39817" lon="5.04283">
        <ele>319.9</ele>
        <time>2021-02-24T12:55:01Z</time>
      </trkpt>
      <trkpt lat="44.39816" lon="5.04275">
        <ele>319.9</ele>
        <time>2021-02-24T12:55:02Z</time>
      </trkpt>
      <trkpt lat="44.39815" lon="5.04267">
        <ele>319.8</ele>
        <time>2021-02-24T12:55:03Z</time>
      </trkpt>
      <trkpt lat="44.39814" lon="5.04259">
        <ele>319.8</ele>
        <time>2021-02-24T12:55:04Z</time>
      </trkpt>
      <trkpt lat="44.39812" lon="5.04251">
        <ele>319.8</ele>
        <time>2021-02-24T12:55:05Z</time>
      </trkpt>
      <trkpt lat="44.39811" lon="5.04244">
        <ele>319.8</ele>
        <time>2021-02-24T12:55:06Z</time>
      </trkpt>
      <trkpt lat="44.39808" lon="5.04228">
        <ele>319.7</ele>
        <time>2021-02-24T12:55:07Z</time>
      </trkpt>
      <trkpt lat="44.39807" lon="5.0422">
        <ele>319.7</ele>
        <time>2021-02-24T12:55:08Z</time>
      </trkpt>
      <trkpt lat="44.39806" lon="5.04213">
        <ele>319.7</ele>
        <time>2021-02-24T12:55:09Z</time>
      </trkpt>
      <trkpt lat="44.39805" lon="5.04205">
        <ele>319.7</ele>
        <time>2021-02-24T12:55:10Z</time>
      </trkpt>
      <trkpt lat="44.39804" lon="5.04197">
        <ele>319.7</ele>
        <time>2021-02-24T12:55:11Z</time>
      </trkpt>
      <trkpt lat="44.39803" lon="5.04189">
        <ele>319.6</ele>
        <time>2021-02-24T12:55:12Z</time>
      </trkpt>
      <trkpt lat="44.39802" lon="5.04181">
        <ele>319.6</ele>
        <time>2021-02-24T12:55:13Z</time>
      </trkpt>
      <trkpt lat="44.398" lon="5.04173">
        <ele>319.6</ele>
        <time>2021-02-24T12:55:14Z</time>
      </trkpt>
      <trkpt lat="44.39799" lon="5.04165">
        <ele>319.6</ele>
        <time>2021-02-24T12:55:15Z</time>
      </trkpt>
      <trkpt lat="44.39798" lon="5.04157">
        <ele>319.6</ele>
        <time>2021-02-24T12:55:16Z</time>
      </trkpt>
      <trkpt lat="44.39796" lon="5.04149">
        <ele>319.6</ele>
        <time>2021-02-24T12:55:17Z</time>
      </trkpt>
      <trkpt lat="44.39795" lon="5.04141">
        <ele>319.6</ele>
        <time>2021-02-24T12:55:18Z</time>
      </trkpt>
      <trkpt lat="44.39794" lon="5.04133">
        <ele>319.6</ele>
        <time>2021-02-24T12:55:19Z</time>
      </trkpt>
      <trkpt lat="44.39794" lon="5.04133">
        <ele>319.6</ele>
        <time>2021-02-24T12:55:20Z</time>
      </trkpt>
      <trkpt lat="44.39793" lon="5.04125">
        <ele>319.6</ele>
        <time>2021-02-24T12:55:21Z</time>
      </trkpt>
      <trkpt lat="44.39791" lon="5.04117">
        <ele>319.6</ele>
        <time>2021-02-24T12:55:22Z</time>
      </trkpt>
      <trkpt lat="44.3979" lon="5.04109">
        <ele>319.6</ele>
        <time>2021-02-24T12:55:23Z</time>
      </trkpt>
      <trkpt lat="44.39789" lon="5.04101">
        <ele>319.6</ele>
        <time>2021-02-24T12:55:24Z</time>
      </trkpt>
      <trkpt lat="44.39787" lon="5.04093">
        <ele>319.6</ele>
        <time>2021-02-24T12:55:25Z</time>
      </trkpt>
      <trkpt lat="44.39786" lon="5.04086">
        <ele>319.6</ele>
        <time>2021-02-24T12:55:26Z</time>
      </trkpt>
      <trkpt lat="44.39785" lon="5.04078">
        <ele>319.6</ele>
        <time>2021-02-24T12:55:27Z</time>
      </trkpt>
      <trkpt lat="44.39784" lon="5.0407">
        <ele>319.6</ele>
        <time>2021-02-24T12:55:28Z</time>
      </trkpt>
      <trkpt lat="44.39783" lon="5.04063">
        <ele>319.6</ele>
        <time>2021-02-24T12:55:29Z</time>
      </trkpt>
      <trkpt lat="44.39783" lon="5.04055">
        <ele>319.7</ele>
        <time>2021-02-24T12:55:30Z</time>
      </trkpt>
      <trkpt lat="44.39782" lon="5.04047">
        <ele>319.7</ele>
        <time>2021-02-24T12:55:31Z</time>
      </trkpt>
      <trkpt lat="44.39783" lon="5.04039">
        <ele>319.7</ele>
        <time>2021-02-24T12:55:32Z</time>
      </trkpt>
      <trkpt lat="44.39786" lon="5.04024">
        <ele>319.8</ele>
        <time>2021-02-24T12:55:33Z</time>
      </trkpt>
      <trkpt lat="44.39789" lon="5.04017">
        <ele>319.8</ele>
        <time>2021-02-24T12:55:34Z</time>
      </trkpt>
      <trkpt lat="44.39793" lon="5.04011">
        <ele>319.8</ele>
        <time>2021-02-24T12:55:35Z</time>
      </trkpt>
      <trkpt lat="44.39798" lon="5.04005">
        <ele>319.8</ele>
        <time>2021-02-24T12:55:36Z</time>
      </trkpt>
      <trkpt lat="44.39803" lon="5.04">
        <ele>319.9</ele>
        <time>2021-02-24T12:55:37Z</time>
      </trkpt>
      <trkpt lat="44.39809" lon="5.03997">
        <ele>319.9</ele>
        <time>2021-02-24T12:55:38Z</time>
      </trkpt>
      <trkpt lat="44.39814" lon="5.03993">
        <ele>319.9</ele>
        <time>2021-02-24T12:55:39Z</time>
      </trkpt>
      <trkpt lat="44.3982" lon="5.03991">
        <ele>320</ele>
        <time>2021-02-24T12:55:40Z</time>
      </trkpt>
      <trkpt lat="44.39825" lon="5.0399">
        <ele>320.1</ele>
        <time>2021-02-24T12:55:41Z</time>
      </trkpt>
      <trkpt lat="44.39825" lon="5.0399">
        <ele>320.1</ele>
        <time>2021-02-24T12:55:42Z</time>
      </trkpt>
      <trkpt lat="44.39831" lon="5.03989">
        <ele>320.2</ele>
        <time>2021-02-24T12:55:43Z</time>
      </trkpt>
      <trkpt lat="44.39836" lon="5.03989">
        <ele>320.3</ele>
        <time>2021-02-24T12:55:44Z</time>
      </trkpt>
      <trkpt lat="44.39842" lon="5.03989">
        <ele>320.4</ele>
        <time>2021-02-24T12:55:45Z</time>
      </trkpt>
      <trkpt lat="44.39848" lon="5.0399">
        <ele>320.5</ele>
        <time>2021-02-24T12:55:46Z</time>
      </trkpt>
      <trkpt lat="44.39853" lon="5.0399">
        <ele>320.6</ele>
        <time>2021-02-24T12:55:47Z</time>
      </trkpt>
      <trkpt lat="44.39859" lon="5.03991">
        <ele>320.7</ele>
        <time>2021-02-24T12:55:48Z</time>
      </trkpt>
      <trkpt lat="44.39869" lon="5.03992">
        <ele>320.8</ele>
        <time>2021-02-24T12:55:49Z</time>
      </trkpt>
      <trkpt lat="44.39869" lon="5.03992">
        <ele>320.8</ele>
        <time>2021-02-24T12:55:50Z</time>
      </trkpt>
      <trkpt lat="44.3988" lon="5.03993">
        <ele>320.8</ele>
        <time>2021-02-24T12:55:51Z</time>
      </trkpt>
      <trkpt lat="44.39886" lon="5.03994">
        <ele>320.8</ele>
        <time>2021-02-24T12:55:52Z</time>
      </trkpt>
      <trkpt lat="44.39891" lon="5.03994">
        <ele>320.7</ele>
        <time>2021-02-24T12:55:53Z</time>
      </trkpt>
      <trkpt lat="44.39896" lon="5.03994">
        <ele>320.7</ele>
        <time>2021-02-24T12:55:54Z</time>
      </trkpt>
      <trkpt lat="44.39902" lon="5.03994">
        <ele>320.6</ele>
        <time>2021-02-24T12:55:55Z</time>
      </trkpt>
      <trkpt lat="44.39908" lon="5.03993">
        <ele>320.5</ele>
        <time>2021-02-24T12:55:56Z</time>
      </trkpt>
      <trkpt lat="44.39914" lon="5.03992">
        <ele>320.4</ele>
        <time>2021-02-24T12:55:57Z</time>
      </trkpt>
      <trkpt lat="44.3992" lon="5.0399">
        <ele>320.2</ele>
        <time>2021-02-24T12:55:58Z</time>
      </trkpt>
      <trkpt lat="44.3992" lon="5.0399">
        <ele>320.2</ele>
        <time>2021-02-24T12:55:59Z</time>
      </trkpt>
      <trkpt lat="44.39926" lon="5.03988">
        <ele>320.1</ele>
        <time>2021-02-24T12:56:00Z</time>
      </trkpt>
      <trkpt lat="44.39932" lon="5.03985">
        <ele>319.9</ele>
        <time>2021-02-24T12:56:01Z</time>
      </trkpt>
      <trkpt lat="44.39938" lon="5.03981">
        <ele>319.7</ele>
        <time>2021-02-24T12:56:02Z</time>
      </trkpt>
      <trkpt lat="44.39944" lon="5.03978">
        <ele>319.4</ele>
        <time>2021-02-24T12:56:03Z</time>
      </trkpt>
      <trkpt lat="44.3995" lon="5.03974">
        <ele>319.1</ele>
        <time>2021-02-24T12:56:04Z</time>
      </trkpt>
      <trkpt lat="44.39956" lon="5.0397">
        <ele>318.8</ele>
        <time>2021-02-24T12:56:05Z</time>
      </trkpt>
      <trkpt lat="44.39962" lon="5.03966">
        <ele>318.4</ele>
        <time>2021-02-24T12:56:06Z</time>
      </trkpt>
      <trkpt lat="44.39975" lon="5.03957">
        <ele>317.5</ele>
        <time>2021-02-24T12:56:07Z</time>
      </trkpt>
      <trkpt lat="44.39982" lon="5.03952">
        <ele>316.9</ele>
        <time>2021-02-24T12:56:08Z</time>
      </trkpt>
      <trkpt lat="44.39989" lon="5.03947">
        <ele>316.4</ele>
        <time>2021-02-24T12:56:09Z</time>
      </trkpt>
      <trkpt lat="44.39996" lon="5.03941">
        <ele>315.8</ele>
        <time>2021-02-24T12:56:10Z</time>
      </trkpt>
      <trkpt lat="44.40001" lon="5.03933">
        <ele>315.2</ele>
        <time>2021-02-24T12:56:11Z</time>
      </trkpt>
      <trkpt lat="44.40007" lon="5.03923">
        <ele>314.6</ele>
        <time>2021-02-24T12:56:12Z</time>
      </trkpt>
      <trkpt lat="44.40007" lon="5.03923">
        <ele>314.6</ele>
        <time>2021-02-24T12:56:13Z</time>
      </trkpt>
      <trkpt lat="44.40011" lon="5.03912">
        <ele>313.9</ele>
        <time>2021-02-24T12:56:14Z</time>
      </trkpt>
      <trkpt lat="44.40016" lon="5.039">
        <ele>313.2</ele>
        <time>2021-02-24T12:56:15Z</time>
      </trkpt>
      <trkpt lat="44.40026" lon="5.03876">
        <ele>311.8</ele>
        <time>2021-02-24T12:56:16Z</time>
      </trkpt>
      <trkpt lat="44.40026" lon="5.03876">
        <ele>311.8</ele>
        <time>2021-02-24T12:56:17Z</time>
      </trkpt>
      <trkpt lat="44.40037" lon="5.03851">
        <ele>310.3</ele>
        <time>2021-02-24T12:56:18Z</time>
      </trkpt>
      <trkpt lat="44.40042" lon="5.03838">
        <ele>309.7</ele>
        <time>2021-02-24T12:56:19Z</time>
      </trkpt>
      <trkpt lat="44.40048" lon="5.03826">
        <ele>309.2</ele>
        <time>2021-02-24T12:56:20Z</time>
      </trkpt>
      <trkpt lat="44.40055" lon="5.03815">
        <ele>308.4</ele>
        <time>2021-02-24T12:56:21Z</time>
      </trkpt>
      <trkpt lat="44.40064" lon="5.03805">
        <ele>307.8</ele>
        <time>2021-02-24T12:56:22Z</time>
      </trkpt>
      <trkpt lat="44.40064" lon="5.03805">
        <ele>307.8</ele>
        <time>2021-02-24T12:56:23Z</time>
      </trkpt>
      <trkpt lat="44.40073" lon="5.03797">
        <ele>307.2</ele>
        <time>2021-02-24T12:56:24Z</time>
      </trkpt>
      <trkpt lat="44.40083" lon="5.03792">
        <ele>306.7</ele>
        <time>2021-02-24T12:56:25Z</time>
      </trkpt>
      <trkpt lat="44.40094" lon="5.03789">
        <ele>306.2</ele>
        <time>2021-02-24T12:56:26Z</time>
      </trkpt>
      <trkpt lat="44.40105" lon="5.03786">
        <ele>305.8</ele>
        <time>2021-02-24T12:56:27Z</time>
      </trkpt>
      <trkpt lat="44.40126" lon="5.03778">
        <ele>305.2</ele>
        <time>2021-02-24T12:56:28Z</time>
      </trkpt>
      <trkpt lat="44.40136" lon="5.03774">
        <ele>305</ele>
        <time>2021-02-24T12:56:29Z</time>
      </trkpt>
      <trkpt lat="44.40146" lon="5.03769">
        <ele>304.7</ele>
        <time>2021-02-24T12:56:30Z</time>
      </trkpt>
      <trkpt lat="44.40155" lon="5.03765">
        <ele>304.5</ele>
        <time>2021-02-24T12:56:31Z</time>
      </trkpt>
      <trkpt lat="44.40155" lon="5.03765">
        <ele>304.5</ele>
        <time>2021-02-24T12:56:32Z</time>
      </trkpt>
      <trkpt lat="44.40165" lon="5.03759">
        <ele>304.2</ele>
        <time>2021-02-24T12:56:33Z</time>
      </trkpt>
      <trkpt lat="44.40174" lon="5.03753">
        <ele>304</ele>
        <time>2021-02-24T12:56:34Z</time>
      </trkpt>
      <trkpt lat="44.40191" lon="5.03739">
        <ele>303.5</ele>
        <time>2021-02-24T12:56:35Z</time>
      </trkpt>
      <trkpt lat="44.40191" lon="5.03739">
        <ele>303.5</ele>
        <time>2021-02-24T12:56:36Z</time>
      </trkpt>
      <trkpt lat="44.40204" lon="5.03722">
        <ele>303.1</ele>
        <time>2021-02-24T12:56:37Z</time>
      </trkpt>
      <trkpt lat="44.4021" lon="5.03713">
        <ele>302.9</ele>
        <time>2021-02-24T12:56:38Z</time>
      </trkpt>
      <trkpt lat="44.40216" lon="5.03704">
        <ele>302.7</ele>
        <time>2021-02-24T12:56:39Z</time>
      </trkpt>
      <trkpt lat="44.40222" lon="5.03694">
        <ele>302.5</ele>
        <time>2021-02-24T12:56:40Z</time>
      </trkpt>
      <trkpt lat="44.40227" lon="5.03685">
        <ele>302.3</ele>
        <time>2021-02-24T12:56:41Z</time>
      </trkpt>
      <trkpt lat="44.40233" lon="5.03676">
        <ele>302.1</ele>
        <time>2021-02-24T12:56:42Z</time>
      </trkpt>
      <trkpt lat="44.40233" lon="5.03676">
        <ele>302.1</ele>
        <time>2021-02-24T12:56:43Z</time>
      </trkpt>
      <trkpt lat="44.40238" lon="5.03667">
        <ele>301.9</ele>
        <time>2021-02-24T12:56:44Z</time>
      </trkpt>
      <trkpt lat="44.40243" lon="5.03657">
        <ele>301.7</ele>
        <time>2021-02-24T12:56:45Z</time>
      </trkpt>
      <trkpt lat="44.40249" lon="5.03648">
        <ele>301.6</ele>
        <time>2021-02-24T12:56:46Z</time>
      </trkpt>
      <trkpt lat="44.40254" lon="5.0364">
        <ele>301.4</ele>
        <time>2021-02-24T12:56:47Z</time>
      </trkpt>
      <trkpt lat="44.40259" lon="5.03631">
        <ele>301.3</ele>
        <time>2021-02-24T12:56:48Z</time>
      </trkpt>
      <trkpt lat="44.40269" lon="5.03613">
        <ele>300.9</ele>
        <time>2021-02-24T12:56:49Z</time>
      </trkpt>
      <trkpt lat="44.40274" lon="5.03604">
        <ele>300.7</ele>
        <time>2021-02-24T12:56:50Z</time>
      </trkpt>
      <trkpt lat="44.40279" lon="5.03596">
        <ele>300.5</ele>
        <time>2021-02-24T12:56:51Z</time>
      </trkpt>
      <trkpt lat="44.40284" lon="5.03588">
        <ele>300.4</ele>
        <time>2021-02-24T12:56:52Z</time>
      </trkpt>
      <trkpt lat="44.40289" lon="5.0358">
        <ele>300.2</ele>
        <time>2021-02-24T12:56:53Z</time>
      </trkpt>
      <trkpt lat="44.40293" lon="5.03572">
        <ele>300.1</ele>
        <time>2021-02-24T12:56:54Z</time>
      </trkpt>
      <trkpt lat="44.40298" lon="5.03564">
        <ele>300</ele>
        <time>2021-02-24T12:56:55Z</time>
      </trkpt>
      <trkpt lat="44.40298" lon="5.03564">
        <ele>300</ele>
        <time>2021-02-24T12:56:56Z</time>
      </trkpt>
      <trkpt lat="44.40302" lon="5.03556">
        <ele>299.9</ele>
        <time>2021-02-24T12:56:57Z</time>
      </trkpt>
      <trkpt lat="44.40307" lon="5.03549">
        <ele>299.7</ele>
        <time>2021-02-24T12:56:58Z</time>
      </trkpt>
      <trkpt lat="44.40312" lon="5.03541">
        <ele>299.6</ele>
        <time>2021-02-24T12:56:59Z</time>
      </trkpt>
      <trkpt lat="44.40316" lon="5.03533">
        <ele>299.4</ele>
        <time>2021-02-24T12:57:00Z</time>
      </trkpt>
      <trkpt lat="44.40321" lon="5.03525">
        <ele>299.3</ele>
        <time>2021-02-24T12:57:01Z</time>
      </trkpt>
      <trkpt lat="44.40325" lon="5.03517">
        <ele>299.3</ele>
        <time>2021-02-24T12:57:02Z</time>
      </trkpt>
      <trkpt lat="44.40334" lon="5.035">
        <ele>299.2</ele>
        <time>2021-02-24T12:57:03Z</time>
      </trkpt>
      <trkpt lat="44.40338" lon="5.03492">
        <ele>299.2</ele>
        <time>2021-02-24T12:57:04Z</time>
      </trkpt>
      <trkpt lat="44.40343" lon="5.03484">
        <ele>299.2</ele>
        <time>2021-02-24T12:57:05Z</time>
      </trkpt>
      <trkpt lat="44.40347" lon="5.03476">
        <ele>299.3</ele>
        <time>2021-02-24T12:57:06Z</time>
      </trkpt>
      <trkpt lat="44.40352" lon="5.03469">
        <ele>299.3</ele>
        <time>2021-02-24T12:57:07Z</time>
      </trkpt>
      <trkpt lat="44.40356" lon="5.03461">
        <ele>299.4</ele>
        <time>2021-02-24T12:57:08Z</time>
      </trkpt>
      <trkpt lat="44.40361" lon="5.03454">
        <ele>299.5</ele>
        <time>2021-02-24T12:57:09Z</time>
      </trkpt>
      <trkpt lat="44.40361" lon="5.03454">
        <ele>299.5</ele>
        <time>2021-02-24T12:57:10Z</time>
      </trkpt>
      <trkpt lat="44.40365" lon="5.03446">
        <ele>299.5</ele>
        <time>2021-02-24T12:57:11Z</time>
      </trkpt>
      <trkpt lat="44.40369" lon="5.03439">
        <ele>299.6</ele>
        <time>2021-02-24T12:57:12Z</time>
      </trkpt>
      <trkpt lat="44.40378" lon="5.03425">
        <ele>299.7</ele>
        <time>2021-02-24T12:57:13Z</time>
      </trkpt>
      <trkpt lat="44.40378" lon="5.03425">
        <ele>299.7</ele>
        <time>2021-02-24T12:57:14Z</time>
      </trkpt>
      <trkpt lat="44.40381" lon="5.03418">
        <ele>299.8</ele>
        <time>2021-02-24T12:57:15Z</time>
      </trkpt>
      <trkpt lat="44.40385" lon="5.03411">
        <ele>299.9</ele>
        <time>2021-02-24T12:57:16Z</time>
      </trkpt>
      <trkpt lat="44.40393" lon="5.034">
        <ele>300.1</ele>
        <time>2021-02-24T12:57:17Z</time>
      </trkpt>
      <trkpt lat="44.40397" lon="5.03394">
        <ele>300.2</ele>
        <time>2021-02-24T12:57:18Z</time>
      </trkpt>
      <trkpt lat="44.404" lon="5.03388">
        <ele>300.3</ele>
        <time>2021-02-24T12:57:19Z</time>
      </trkpt>
      <trkpt lat="44.40404" lon="5.03382">
        <ele>300.4</ele>
        <time>2021-02-24T12:57:20Z</time>
      </trkpt>
      <trkpt lat="44.40407" lon="5.03377">
        <ele>300.5</ele>
        <time>2021-02-24T12:57:21Z</time>
      </trkpt>
      <trkpt lat="44.40411" lon="5.03371">
        <ele>300.6</ele>
        <time>2021-02-24T12:57:22Z</time>
      </trkpt>
      <trkpt lat="44.40414" lon="5.03365">
        <ele>300.8</ele>
        <time>2021-02-24T12:57:23Z</time>
      </trkpt>
      <trkpt lat="44.40417" lon="5.03359">
        <ele>300.9</ele>
        <time>2021-02-24T12:57:24Z</time>
      </trkpt>
      <trkpt lat="44.40421" lon="5.03354">
        <ele>301.1</ele>
        <time>2021-02-24T12:57:25Z</time>
      </trkpt>
      <trkpt lat="44.40421" lon="5.03354">
        <ele>301.1</ele>
        <time>2021-02-24T12:57:26Z</time>
      </trkpt>
      <trkpt lat="44.40424" lon="5.03348">
        <ele>301.2</ele>
        <time>2021-02-24T12:57:27Z</time>
      </trkpt>
      <trkpt lat="44.40427" lon="5.03342">
        <ele>301.3</ele>
        <time>2021-02-24T12:57:28Z</time>
      </trkpt>
      <trkpt lat="44.4043" lon="5.03336">
        <ele>301.5</ele>
        <time>2021-02-24T12:57:29Z</time>
      </trkpt>
      <trkpt lat="44.40434" lon="5.03331">
        <ele>301.6</ele>
        <time>2021-02-24T12:57:30Z</time>
      </trkpt>
      <trkpt lat="44.40437" lon="5.03325">
        <ele>301.7</ele>
        <time>2021-02-24T12:57:31Z</time>
      </trkpt>
      <trkpt lat="44.40444" lon="5.03313">
        <ele>302</ele>
        <time>2021-02-24T12:57:32Z</time>
      </trkpt>
      <trkpt lat="44.40447" lon="5.03308">
        <ele>302.1</ele>
        <time>2021-02-24T12:57:33Z</time>
      </trkpt>
      <trkpt lat="44.40451" lon="5.03302">
        <ele>302.2</ele>
        <time>2021-02-24T12:57:34Z</time>
      </trkpt>
      <trkpt lat="44.40454" lon="5.03296">
        <ele>302.3</ele>
        <time>2021-02-24T12:57:35Z</time>
      </trkpt>
      <trkpt lat="44.40454" lon="5.03296">
        <ele>302.3</ele>
        <time>2021-02-24T12:57:36Z</time>
      </trkpt>
      <trkpt lat="44.40457" lon="5.03291">
        <ele>302.5</ele>
        <time>2021-02-24T12:57:37Z</time>
      </trkpt>
      <trkpt lat="44.4046" lon="5.03285">
        <ele>302.6</ele>
        <time>2021-02-24T12:57:38Z</time>
      </trkpt>
      <trkpt lat="44.40463" lon="5.0328">
        <ele>302.6</ele>
        <time>2021-02-24T12:57:39Z</time>
      </trkpt>
      <trkpt lat="44.40466" lon="5.03274">
        <ele>302.7</ele>
        <time>2021-02-24T12:57:40Z</time>
      </trkpt>
      <trkpt lat="44.40469" lon="5.03269">
        <ele>302.8</ele>
        <time>2021-02-24T12:57:41Z</time>
      </trkpt>
      <trkpt lat="44.40472" lon="5.03263">
        <ele>302.9</ele>
        <time>2021-02-24T12:57:42Z</time>
      </trkpt>
      <trkpt lat="44.40476" lon="5.03257">
        <ele>303</ele>
        <time>2021-02-24T12:57:43Z</time>
      </trkpt>
      <trkpt lat="44.40478" lon="5.03252">
        <ele>303.1</ele>
        <time>2021-02-24T12:57:44Z</time>
      </trkpt>
      <trkpt lat="44.40481" lon="5.03246">
        <ele>303.2</ele>
        <time>2021-02-24T12:57:45Z</time>
      </trkpt>
      <trkpt lat="44.40487" lon="5.03235">
        <ele>303.3</ele>
        <time>2021-02-24T12:57:46Z</time>
      </trkpt>
      <trkpt lat="44.4049" lon="5.0323">
        <ele>303.4</ele>
        <time>2021-02-24T12:57:47Z</time>
      </trkpt>
      <trkpt lat="44.40492" lon="5.03225">
        <ele>303.4</ele>
        <time>2021-02-24T12:57:48Z</time>
      </trkpt>
      <trkpt lat="44.40495" lon="5.03219">
        <ele>303.4</ele>
        <time>2021-02-24T12:57:49Z</time>
      </trkpt>
      <trkpt lat="44.40498" lon="5.03214">
        <ele>303.3</ele>
        <time>2021-02-24T12:57:50Z</time>
      </trkpt>
      <trkpt lat="44.40502" lon="5.03209">
        <ele>303.3</ele>
        <time>2021-02-24T12:57:51Z</time>
      </trkpt>
      <trkpt lat="44.40502" lon="5.03209">
        <ele>303.3</ele>
        <time>2021-02-24T12:57:52Z</time>
      </trkpt>
      <trkpt lat="44.40505" lon="5.03203">
        <ele>303.2</ele>
        <time>2021-02-24T12:57:53Z</time>
      </trkpt>
      <trkpt lat="44.40509" lon="5.03197">
        <ele>303.1</ele>
        <time>2021-02-24T12:57:54Z</time>
      </trkpt>
      <trkpt lat="44.40513" lon="5.03192">
        <ele>303</ele>
        <time>2021-02-24T12:57:55Z</time>
      </trkpt>
      <trkpt lat="44.40521" lon="5.0318">
        <ele>302.8</ele>
        <time>2021-02-24T12:57:56Z</time>
      </trkpt>
      <trkpt lat="44.40524" lon="5.03173">
        <ele>302.7</ele>
        <time>2021-02-24T12:57:57Z</time>
      </trkpt>
      <trkpt lat="44.40529" lon="5.03167">
        <ele>302.6</ele>
        <time>2021-02-24T12:57:58Z</time>
      </trkpt>
      <trkpt lat="44.40533" lon="5.03161">
        <ele>302.5</ele>
        <time>2021-02-24T12:57:59Z</time>
      </trkpt>
      <trkpt lat="44.40537" lon="5.03154">
        <ele>302.5</ele>
        <time>2021-02-24T12:58:00Z</time>
      </trkpt>
      <trkpt lat="44.4054" lon="5.03147">
        <ele>302.4</ele>
        <time>2021-02-24T12:58:01Z</time>
      </trkpt>
      <trkpt lat="44.40544" lon="5.03141">
        <ele>302.4</ele>
        <time>2021-02-24T12:58:02Z</time>
      </trkpt>
      <trkpt lat="44.40548" lon="5.03134">
        <ele>302.4</ele>
        <time>2021-02-24T12:58:03Z</time>
      </trkpt>
      <trkpt lat="44.40548" lon="5.03134">
        <ele>302.4</ele>
        <time>2021-02-24T12:58:04Z</time>
      </trkpt>
      <trkpt lat="44.40552" lon="5.03127">
        <ele>302.3</ele>
        <time>2021-02-24T12:58:05Z</time>
      </trkpt>
      <trkpt lat="44.40556" lon="5.03119">
        <ele>302.3</ele>
        <time>2021-02-24T12:58:06Z</time>
      </trkpt>
      <trkpt lat="44.40559" lon="5.03112">
        <ele>302.3</ele>
        <time>2021-02-24T12:58:07Z</time>
      </trkpt>
      <trkpt lat="44.40563" lon="5.03104">
        <ele>302.3</ele>
        <time>2021-02-24T12:58:08Z</time>
      </trkpt>
      <trkpt lat="44.40566" lon="5.03097">
        <ele>302.2</ele>
        <time>2021-02-24T12:58:09Z</time>
      </trkpt>
      <trkpt lat="44.40572" lon="5.03082">
        <ele>302.2</ele>
        <time>2021-02-24T12:58:10Z</time>
      </trkpt>
      <trkpt lat="44.40572" lon="5.03082">
        <ele>302.2</ele>
        <time>2021-02-24T12:58:11Z</time>
      </trkpt>
      <trkpt lat="44.40578" lon="5.03066">
        <ele>302.2</ele>
        <time>2021-02-24T12:58:12Z</time>
      </trkpt>
      <trkpt lat="44.4058" lon="5.03058">
        <ele>302.2</ele>
        <time>2021-02-24T12:58:13Z</time>
      </trkpt>
      <trkpt lat="44.40583" lon="5.0305">
        <ele>302.2</ele>
        <time>2021-02-24T12:58:14Z</time>
      </trkpt>
      <trkpt lat="44.40585" lon="5.03043">
        <ele>302.3</ele>
        <time>2021-02-24T12:58:15Z</time>
      </trkpt>
      <trkpt lat="44.40588" lon="5.03035">
        <ele>302.3</ele>
        <time>2021-02-24T12:58:16Z</time>
      </trkpt>
      <trkpt lat="44.40591" lon="5.03027">
        <ele>302.3</ele>
        <time>2021-02-24T12:58:17Z</time>
      </trkpt>
      <trkpt lat="44.40593" lon="5.03019">
        <ele>302.3</ele>
        <time>2021-02-24T12:58:18Z</time>
      </trkpt>
      <trkpt lat="44.40596" lon="5.03011">
        <ele>302.3</ele>
        <time>2021-02-24T12:58:19Z</time>
      </trkpt>
      <trkpt lat="44.40596" lon="5.03011">
        <ele>302.3</ele>
        <time>2021-02-24T12:58:20Z</time>
      </trkpt>
      <trkpt lat="44.40599" lon="5.03003">
        <ele>302.3</ele>
        <time>2021-02-24T12:58:21Z</time>
      </trkpt>
      <trkpt lat="44.40602" lon="5.02996">
        <ele>302.2</ele>
        <time>2021-02-24T12:58:22Z</time>
      </trkpt>
      <trkpt lat="44.40605" lon="5.02988">
        <ele>302.2</ele>
        <time>2021-02-24T12:58:23Z</time>
      </trkpt>
      <trkpt lat="44.40607" lon="5.0298">
        <ele>302.2</ele>
        <time>2021-02-24T12:58:24Z</time>
      </trkpt>
      <trkpt lat="44.4061" lon="5.02972">
        <ele>302.1</ele>
        <time>2021-02-24T12:58:25Z</time>
      </trkpt>
      <trkpt lat="44.40613" lon="5.02964">
        <ele>302.1</ele>
        <time>2021-02-24T12:58:26Z</time>
      </trkpt>
      <trkpt lat="44.40615" lon="5.02956">
        <ele>302</ele>
        <time>2021-02-24T12:58:27Z</time>
      </trkpt>
      <trkpt lat="44.40621" lon="5.02939">
        <ele>302</ele>
        <time>2021-02-24T12:58:28Z</time>
      </trkpt>
      <trkpt lat="44.40624" lon="5.02931">
        <ele>301.9</ele>
        <time>2021-02-24T12:58:29Z</time>
      </trkpt>
      <trkpt lat="44.40626" lon="5.02923">
        <ele>301.9</ele>
        <time>2021-02-24T12:58:30Z</time>
      </trkpt>
      <trkpt lat="44.40629" lon="5.02915">
        <ele>301.8</ele>
        <time>2021-02-24T12:58:31Z</time>
      </trkpt>
      <trkpt lat="44.40632" lon="5.02907">
        <ele>301.7</ele>
        <time>2021-02-24T12:58:32Z</time>
      </trkpt>
      <trkpt lat="44.40635" lon="5.02899">
        <ele>301.7</ele>
        <time>2021-02-24T12:58:33Z</time>
      </trkpt>
      <trkpt lat="44.40638" lon="5.02892">
        <ele>301.6</ele>
        <time>2021-02-24T12:58:34Z</time>
      </trkpt>
      <trkpt lat="44.40641" lon="5.02885">
        <ele>301.6</ele>
        <time>2021-02-24T12:58:35Z</time>
      </trkpt>
      <trkpt lat="44.40641" lon="5.02885">
        <ele>301.6</ele>
        <time>2021-02-24T12:58:36Z</time>
      </trkpt>
      <trkpt lat="44.40644" lon="5.02878">
        <ele>301.5</ele>
        <time>2021-02-24T12:58:37Z</time>
      </trkpt>
      <trkpt lat="44.40646" lon="5.0287">
        <ele>301.5</ele>
        <time>2021-02-24T12:58:38Z</time>
      </trkpt>
      <trkpt lat="44.40649" lon="5.02863">
        <ele>301.5</ele>
        <time>2021-02-24T12:58:39Z</time>
      </trkpt>
      <trkpt lat="44.40652" lon="5.02855">
        <ele>301.4</ele>
        <time>2021-02-24T12:58:40Z</time>
      </trkpt>
      <trkpt lat="44.40655" lon="5.02848">
        <ele>301.4</ele>
        <time>2021-02-24T12:58:41Z</time>
      </trkpt>
      <trkpt lat="44.40658" lon="5.02841">
        <ele>301.4</ele>
        <time>2021-02-24T12:58:42Z</time>
      </trkpt>
      <trkpt lat="44.4066" lon="5.02834">
        <ele>301.4</ele>
        <time>2021-02-24T12:58:43Z</time>
      </trkpt>
      <trkpt lat="44.40666" lon="5.0282">
        <ele>301.5</ele>
        <time>2021-02-24T12:58:44Z</time>
      </trkpt>
      <trkpt lat="44.40669" lon="5.02813">
        <ele>301.5</ele>
        <time>2021-02-24T12:58:45Z</time>
      </trkpt>
      <trkpt lat="44.40671" lon="5.02805">
        <ele>301.5</ele>
        <time>2021-02-24T12:58:46Z</time>
      </trkpt>
      <trkpt lat="44.40673" lon="5.02798">
        <ele>301.4</ele>
        <time>2021-02-24T12:58:47Z</time>
      </trkpt>
      <trkpt lat="44.40676" lon="5.02791">
        <ele>301.4</ele>
        <time>2021-02-24T12:58:48Z</time>
      </trkpt>
      <trkpt lat="44.40678" lon="5.02784">
        <ele>301.4</ele>
        <time>2021-02-24T12:58:49Z</time>
      </trkpt>
      <trkpt lat="44.4068" lon="5.02777">
        <ele>301.4</ele>
        <time>2021-02-24T12:58:50Z</time>
      </trkpt>
      <trkpt lat="44.40683" lon="5.0277">
        <ele>301.4</ele>
        <time>2021-02-24T12:58:51Z</time>
      </trkpt>
      <trkpt lat="44.40685" lon="5.02763">
        <ele>301.4</ele>
        <time>2021-02-24T12:58:52Z</time>
      </trkpt>
      <trkpt lat="44.40685" lon="5.02763">
        <ele>301.4</ele>
        <time>2021-02-24T12:58:53Z</time>
      </trkpt>
      <trkpt lat="44.40688" lon="5.02756">
        <ele>301.4</ele>
        <time>2021-02-24T12:58:54Z</time>
      </trkpt>
      <trkpt lat="44.4069" lon="5.02749">
        <ele>301.4</ele>
        <time>2021-02-24T12:58:55Z</time>
      </trkpt>
      <trkpt lat="44.40692" lon="5.02742">
        <ele>301.4</ele>
        <time>2021-02-24T12:58:56Z</time>
      </trkpt>
      <trkpt lat="44.40695" lon="5.02734">
        <ele>301.4</ele>
        <time>2021-02-24T12:58:57Z</time>
      </trkpt>
      <trkpt lat="44.40697" lon="5.02727">
        <ele>301.4</ele>
        <time>2021-02-24T12:58:58Z</time>
      </trkpt>
      <trkpt lat="44.407" lon="5.02719">
        <ele>301.4</ele>
        <time>2021-02-24T12:58:59Z</time>
      </trkpt>
      <trkpt lat="44.40702" lon="5.02712">
        <ele>301.4</ele>
        <time>2021-02-24T12:59:00Z</time>
      </trkpt>
      <trkpt lat="44.40705" lon="5.02705">
        <ele>301.4</ele>
        <time>2021-02-24T12:59:01Z</time>
      </trkpt>
      <trkpt lat="44.4071" lon="5.0269">
        <ele>301.4</ele>
        <time>2021-02-24T12:59:02Z</time>
      </trkpt>
      <trkpt lat="44.40712" lon="5.02683">
        <ele>301.3</ele>
        <time>2021-02-24T12:59:03Z</time>
      </trkpt>
      <trkpt lat="44.40714" lon="5.02675">
        <ele>301.3</ele>
        <time>2021-02-24T12:59:04Z</time>
      </trkpt>
      <trkpt lat="44.40717" lon="5.02668">
        <ele>301.3</ele>
        <time>2021-02-24T12:59:05Z</time>
      </trkpt>
      <trkpt lat="44.40719" lon="5.02661">
        <ele>301.2</ele>
        <time>2021-02-24T12:59:06Z</time>
      </trkpt>
      <trkpt lat="44.40721" lon="5.02654">
        <ele>301.1</ele>
        <time>2021-02-24T12:59:07Z</time>
      </trkpt>
      <trkpt lat="44.40723" lon="5.02647">
        <ele>301</ele>
        <time>2021-02-24T12:59:08Z</time>
      </trkpt>
      <trkpt lat="44.40725" lon="5.0264">
        <ele>300.9</ele>
        <time>2021-02-24T12:59:09Z</time>
      </trkpt>
      <trkpt lat="44.40727" lon="5.02633">
        <ele>300.8</ele>
        <time>2021-02-24T12:59:10Z</time>
      </trkpt>
      <trkpt lat="44.40729" lon="5.02625">
        <ele>300.6</ele>
        <time>2021-02-24T12:59:11Z</time>
      </trkpt>
      <trkpt lat="44.4073" lon="5.02617">
        <ele>300.4</ele>
        <time>2021-02-24T12:59:12Z</time>
      </trkpt>
      <trkpt lat="44.40731" lon="5.02609">
        <ele>300.2</ele>
        <time>2021-02-24T12:59:13Z</time>
      </trkpt>
      <trkpt lat="44.40731" lon="5.02601">
        <ele>300.1</ele>
        <time>2021-02-24T12:59:14Z</time>
      </trkpt>
      <trkpt lat="44.40732" lon="5.02595">
        <ele>299.9</ele>
        <time>2021-02-24T12:59:15Z</time>
      </trkpt>
      <trkpt lat="44.40732" lon="5.02589">
        <ele>299.8</ele>
        <time>2021-02-24T12:59:16Z</time>
      </trkpt>
      <trkpt lat="44.40732" lon="5.02585">
        <ele>299.7</ele>
        <time>2021-02-24T12:59:17Z</time>
      </trkpt>
      <trkpt lat="44.40732" lon="5.02582">
        <ele>299.7</ele>
        <time>2021-02-24T12:59:18Z</time>
      </trkpt>
      <trkpt lat="44.40732" lon="5.02582">
        <ele>299.7</ele>
        <time>2021-02-24T12:59:19Z</time>
      </trkpt>
      <trkpt lat="44.40733" lon="5.02578">
        <ele>299.6</ele>
        <time>2021-02-24T12:59:20Z</time>
      </trkpt>
      <trkpt lat="44.40733" lon="5.02578">
        <ele>299.6</ele>
        <time>2021-02-24T12:59:21Z</time>
      </trkpt>
      <trkpt lat="44.40733" lon="5.02578">
        <ele>299.6</ele>
        <time>2021-02-24T12:59:22Z</time>
      </trkpt>
      <trkpt lat="44.40733" lon="5.02578">
        <ele>299.6</ele>
        <time>2021-02-24T12:59:23Z</time>
      </trkpt>
      <trkpt lat="44.40733" lon="5.02578">
        <ele>299.6</ele>
        <time>2021-02-24T12:59:24Z</time>
      </trkpt>
      <trkpt lat="44.40733" lon="5.02578">
        <ele>299.6</ele>
        <time>2021-02-24T12:59:25Z</time>
      </trkpt>
      <trkpt lat="44.40733" lon="5.02578">
        <ele>299.6</ele>
        <time>2021-02-24T12:59:26Z</time>
      </trkpt>
      <trkpt lat="44.40732" lon="5.02577">
        <ele>299.6</ele>
        <time>2021-02-24T12:59:27Z</time>
      </trkpt>
      <trkpt lat="44.4073" lon="5.02581">
        <ele>299.5</ele>
        <time>2021-02-24T13:01:18Z</time>
      </trkpt>
      <trkpt lat="44.40733" lon="5.02581">
        <ele>299.4</ele>
        <time>2021-02-24T13:01:19Z</time>
      </trkpt>
      <trkpt lat="44.40733" lon="5.02581">
        <ele>299.4</ele>
        <time>2021-02-24T13:01:20Z</time>
      </trkpt>
      <trkpt lat="44.40735" lon="5.02579">
        <ele>299.4</ele>
        <time>2021-02-24T13:01:21Z</time>
      </trkpt>
      <trkpt lat="44.40735" lon="5.02579">
        <ele>299.4</ele>
        <time>2021-02-24T13:01:22Z</time>
      </trkpt>
      <trkpt lat="44.40735" lon="5.02579">
        <ele>299.4</ele>
        <time>2021-02-24T13:01:23Z</time>
      </trkpt>
      <trkpt lat="44.40735" lon="5.02579">
        <ele>299.4</ele>
        <time>2021-02-24T13:01:24Z</time>
      </trkpt>
      <trkpt lat="44.40735" lon="5.02579">
        <ele>299.4</ele>
        <time>2021-02-24T13:01:25Z</time>
      </trkpt>
      <trkpt lat="44.40736" lon="5.02574">
        <ele>299.3</ele>
        <time>2021-02-24T13:02:34Z</time>
      </trkpt>
      <trkpt lat="44.40739" lon="5.02575">
        <ele>299.2</ele>
        <time>2021-02-24T13:02:35Z</time>
      </trkpt>
      <trkpt lat="44.40739" lon="5.02575">
        <ele>299.2</ele>
        <time>2021-02-24T13:02:36Z</time>
      </trkpt>
      <trkpt lat="44.40741" lon="5.02577">
        <ele>299.2</ele>
        <time>2021-02-24T13:02:37Z</time>
      </trkpt>
      <trkpt lat="44.40743" lon="5.02579">
        <ele>299.3</ele>
        <time>2021-02-24T13:02:38Z</time>
      </trkpt>
      <trkpt lat="44.40745" lon="5.02581">
        <ele>299.3</ele>
        <time>2021-02-24T13:02:39Z</time>
      </trkpt>
      <trkpt lat="44.40747" lon="5.02584">
        <ele>299.3</ele>
        <time>2021-02-24T13:02:40Z</time>
      </trkpt>
      <trkpt lat="44.40749" lon="5.02587">
        <ele>299.4</ele>
        <time>2021-02-24T13:02:41Z</time>
      </trkpt>
      <trkpt lat="44.40752" lon="5.0259">
        <ele>299.4</ele>
        <time>2021-02-24T13:02:42Z</time>
      </trkpt>
      <trkpt lat="44.40754" lon="5.02593">
        <ele>299.5</ele>
        <time>2021-02-24T13:02:43Z</time>
      </trkpt>
      <trkpt lat="44.40758" lon="5.02596">
        <ele>299.6</ele>
        <time>2021-02-24T13:02:44Z</time>
      </trkpt>
      <trkpt lat="44.40761" lon="5.02599">
        <ele>299.6</ele>
        <time>2021-02-24T13:02:45Z</time>
      </trkpt>
      <trkpt lat="44.40765" lon="5.02602">
        <ele>299.7</ele>
        <time>2021-02-24T13:02:46Z</time>
      </trkpt>
      <trkpt lat="44.40769" lon="5.02606">
        <ele>299.8</ele>
        <time>2021-02-24T13:02:47Z</time>
      </trkpt>
      <trkpt lat="44.40773" lon="5.0261">
        <ele>299.9</ele>
        <time>2021-02-24T13:02:48Z</time>
      </trkpt>
      <trkpt lat="44.40776" lon="5.02614">
        <ele>300</ele>
        <time>2021-02-24T13:02:49Z</time>
      </trkpt>
      <trkpt lat="44.40784" lon="5.02621">
        <ele>300.2</ele>
        <time>2021-02-24T13:02:50Z</time>
      </trkpt>
      <trkpt lat="44.40788" lon="5.02625">
        <ele>300.2</ele>
        <time>2021-02-24T13:02:51Z</time>
      </trkpt>
      <trkpt lat="44.40792" lon="5.02629">
        <ele>300.3</ele>
        <time>2021-02-24T13:02:52Z</time>
      </trkpt>
      <trkpt lat="44.40796" lon="5.02632">
        <ele>300.4</ele>
        <time>2021-02-24T13:02:53Z</time>
      </trkpt>
      <trkpt lat="44.408" lon="5.02636">
        <ele>300.5</ele>
        <time>2021-02-24T13:02:54Z</time>
      </trkpt>
      <trkpt lat="44.40804" lon="5.0264">
        <ele>300.6</ele>
        <time>2021-02-24T13:02:55Z</time>
      </trkpt>
      <trkpt lat="44.40808" lon="5.02644">
        <ele>300.7</ele>
        <time>2021-02-24T13:02:56Z</time>
      </trkpt>
      <trkpt lat="44.40812" lon="5.02648">
        <ele>300.8</ele>
        <time>2021-02-24T13:02:57Z</time>
      </trkpt>
      <trkpt lat="44.40815" lon="5.02652">
        <ele>300.9</ele>
        <time>2021-02-24T13:02:58Z</time>
      </trkpt>
      <trkpt lat="44.40819" lon="5.02656">
        <ele>301</ele>
        <time>2021-02-24T13:02:59Z</time>
      </trkpt>
      <trkpt lat="44.40823" lon="5.0266">
        <ele>301.1</ele>
        <time>2021-02-24T13:03:00Z</time>
      </trkpt>
      <trkpt lat="44.40826" lon="5.02664">
        <ele>301.2</ele>
        <time>2021-02-24T13:03:01Z</time>
      </trkpt>
      <trkpt lat="44.40829" lon="5.02668">
        <ele>301.3</ele>
        <time>2021-02-24T13:03:02Z</time>
      </trkpt>
      <trkpt lat="44.40833" lon="5.02672">
        <ele>301.4</ele>
        <time>2021-02-24T13:03:03Z</time>
      </trkpt>
      <trkpt lat="44.40836" lon="5.02677">
        <ele>301.5</ele>
        <time>2021-02-24T13:03:04Z</time>
      </trkpt>
      <trkpt lat="44.40839" lon="5.02681">
        <ele>301.6</ele>
        <time>2021-02-24T13:03:05Z</time>
      </trkpt>
      <trkpt lat="44.40842" lon="5.02686">
        <ele>301.8</ele>
        <time>2021-02-24T13:03:06Z</time>
      </trkpt>
      <trkpt lat="44.40845" lon="5.0269">
        <ele>301.9</ele>
        <time>2021-02-24T13:03:07Z</time>
      </trkpt>
      <trkpt lat="44.40848" lon="5.02695">
        <ele>302</ele>
        <time>2021-02-24T13:03:08Z</time>
      </trkpt>
      <trkpt lat="44.40851" lon="5.027">
        <ele>302.1</ele>
        <time>2021-02-24T13:03:09Z</time>
      </trkpt>
      <trkpt lat="44.40854" lon="5.02705">
        <ele>302.2</ele>
        <time>2021-02-24T13:03:10Z</time>
      </trkpt>
      <trkpt lat="44.40857" lon="5.02709">
        <ele>302.3</ele>
        <time>2021-02-24T13:03:11Z</time>
      </trkpt>
      <trkpt lat="44.4086" lon="5.02714">
        <ele>302.4</ele>
        <time>2021-02-24T13:03:12Z</time>
      </trkpt>
      <trkpt lat="44.40864" lon="5.02719">
        <ele>302.6</ele>
        <time>2021-02-24T13:03:13Z</time>
      </trkpt>
      <trkpt lat="44.40867" lon="5.02724">
        <ele>302.7</ele>
        <time>2021-02-24T13:03:14Z</time>
      </trkpt>
      <trkpt lat="44.4087" lon="5.02729">
        <ele>302.8</ele>
        <time>2021-02-24T13:03:15Z</time>
      </trkpt>
      <trkpt lat="44.40872" lon="5.02734">
        <ele>303</ele>
        <time>2021-02-24T13:03:16Z</time>
      </trkpt>
      <trkpt lat="44.40875" lon="5.02739">
        <ele>303.2</ele>
        <time>2021-02-24T13:03:17Z</time>
      </trkpt>
      <trkpt lat="44.40878" lon="5.02743">
        <ele>303.3</ele>
        <time>2021-02-24T13:03:18Z</time>
      </trkpt>
      <trkpt lat="44.40881" lon="5.02748">
        <ele>303.5</ele>
        <time>2021-02-24T13:03:19Z</time>
      </trkpt>
      <trkpt lat="44.40884" lon="5.02752">
        <ele>303.7</ele>
        <time>2021-02-24T13:03:20Z</time>
      </trkpt>
      <trkpt lat="44.40887" lon="5.02756">
        <ele>303.9</ele>
        <time>2021-02-24T13:03:21Z</time>
      </trkpt>
      <trkpt lat="44.4089" lon="5.0276">
        <ele>304</ele>
        <time>2021-02-24T13:03:22Z</time>
      </trkpt>
      <trkpt lat="44.40893" lon="5.02764">
        <ele>304.2</ele>
        <time>2021-02-24T13:03:23Z</time>
      </trkpt>
      <trkpt lat="44.40896" lon="5.02768">
        <ele>304.4</ele>
        <time>2021-02-24T13:03:24Z</time>
      </trkpt>
      <trkpt lat="44.40899" lon="5.02772">
        <ele>304.6</ele>
        <time>2021-02-24T13:03:25Z</time>
      </trkpt>
      <trkpt lat="44.40901" lon="5.02776">
        <ele>304.7</ele>
        <time>2021-02-24T13:03:26Z</time>
      </trkpt>
      <trkpt lat="44.40904" lon="5.0278">
        <ele>304.8</ele>
        <time>2021-02-24T13:03:27Z</time>
      </trkpt>
      <trkpt lat="44.40906" lon="5.02785">
        <ele>304.9</ele>
        <time>2021-02-24T13:03:28Z</time>
      </trkpt>
      <trkpt lat="44.40909" lon="5.02789">
        <ele>305</ele>
        <time>2021-02-24T13:03:29Z</time>
      </trkpt>
      <trkpt lat="44.40911" lon="5.02793">
        <ele>305.1</ele>
        <time>2021-02-24T13:03:30Z</time>
      </trkpt>
      <trkpt lat="44.40914" lon="5.02797">
        <ele>305.2</ele>
        <time>2021-02-24T13:03:31Z</time>
      </trkpt>
      <trkpt lat="44.40916" lon="5.02802">
        <ele>305.3</ele>
        <time>2021-02-24T13:03:32Z</time>
      </trkpt>
      <trkpt lat="44.40916" lon="5.02802">
        <ele>305.3</ele>
        <time>2021-02-24T13:03:33Z</time>
      </trkpt>
      <trkpt lat="44.40919" lon="5.02806">
        <ele>305.4</ele>
        <time>2021-02-24T13:03:34Z</time>
      </trkpt>
      <trkpt lat="44.40922" lon="5.0281">
        <ele>305.5</ele>
        <time>2021-02-24T13:03:35Z</time>
      </trkpt>
      <trkpt lat="44.40925" lon="5.02815">
        <ele>305.7</ele>
        <time>2021-02-24T13:03:36Z</time>
      </trkpt>
      <trkpt lat="44.40928" lon="5.02819">
        <ele>305.8</ele>
        <time>2021-02-24T13:03:37Z</time>
      </trkpt>
      <trkpt lat="44.40931" lon="5.02824">
        <ele>305.9</ele>
        <time>2021-02-24T13:03:38Z</time>
      </trkpt>
      <trkpt lat="44.40934" lon="5.02828">
        <ele>306.1</ele>
        <time>2021-02-24T13:03:39Z</time>
      </trkpt>
      <trkpt lat="44.40937" lon="5.02832">
        <ele>306.2</ele>
        <time>2021-02-24T13:03:40Z</time>
      </trkpt>
      <trkpt lat="44.4094" lon="5.02835">
        <ele>306.3</ele>
        <time>2021-02-24T13:03:41Z</time>
      </trkpt>
      <trkpt lat="44.40943" lon="5.02839">
        <ele>306.5</ele>
        <time>2021-02-24T13:03:42Z</time>
      </trkpt>
      <trkpt lat="44.40946" lon="5.02843">
        <ele>306.6</ele>
        <time>2021-02-24T13:03:43Z</time>
      </trkpt>
      <trkpt lat="44.4095" lon="5.02847">
        <ele>306.7</ele>
        <time>2021-02-24T13:03:44Z</time>
      </trkpt>
      <trkpt lat="44.40953" lon="5.0285">
        <ele>306.8</ele>
        <time>2021-02-24T13:03:45Z</time>
      </trkpt>
      <trkpt lat="44.40957" lon="5.02854">
        <ele>306.7</ele>
        <time>2021-02-24T13:03:46Z</time>
      </trkpt>
      <trkpt lat="44.40964" lon="5.02861">
        <ele>306.5</ele>
        <time>2021-02-24T13:03:47Z</time>
      </trkpt>
      <trkpt lat="44.40967" lon="5.02864">
        <ele>306.3</ele>
        <time>2021-02-24T13:03:48Z</time>
      </trkpt>
      <trkpt lat="44.40971" lon="5.02867">
        <ele>306.1</ele>
        <time>2021-02-24T13:03:49Z</time>
      </trkpt>
      <trkpt lat="44.40975" lon="5.02869">
        <ele>305.8</ele>
        <time>2021-02-24T13:03:50Z</time>
      </trkpt>
      <trkpt lat="44.40979" lon="5.02869">
        <ele>305.6</ele>
        <time>2021-02-24T13:03:51Z</time>
      </trkpt>
      <trkpt lat="44.40984" lon="5.02868">
        <ele>305.3</ele>
        <time>2021-02-24T13:03:52Z</time>
      </trkpt>
      <trkpt lat="44.40988" lon="5.02865">
        <ele>305</ele>
        <time>2021-02-24T13:03:53Z</time>
      </trkpt>
      <trkpt lat="44.40993" lon="5.0286">
        <ele>304.7</ele>
        <time>2021-02-24T13:03:54Z</time>
      </trkpt>
      <trkpt lat="44.40997" lon="5.02855">
        <ele>304.4</ele>
        <time>2021-02-24T13:03:55Z</time>
      </trkpt>
      <trkpt lat="44.41002" lon="5.02848">
        <ele>304.1</ele>
        <time>2021-02-24T13:03:56Z</time>
      </trkpt>
      <trkpt lat="44.41002" lon="5.02848">
        <ele>304.1</ele>
        <time>2021-02-24T13:03:57Z</time>
      </trkpt>
      <trkpt lat="44.41007" lon="5.02842">
        <ele>303.8</ele>
        <time>2021-02-24T13:03:58Z</time>
      </trkpt>
      <trkpt lat="44.41011" lon="5.02835">
        <ele>303.5</ele>
        <time>2021-02-24T13:03:59Z</time>
      </trkpt>
      <trkpt lat="44.41016" lon="5.02828">
        <ele>303.2</ele>
        <time>2021-02-24T13:04:00Z</time>
      </trkpt>
      <trkpt lat="44.41022" lon="5.02821">
        <ele>302.9</ele>
        <time>2021-02-24T13:04:01Z</time>
      </trkpt>
      <trkpt lat="44.41027" lon="5.02814">
        <ele>302.8</ele>
        <time>2021-02-24T13:04:02Z</time>
      </trkpt>
      <trkpt lat="44.41032" lon="5.02808">
        <ele>302.7</ele>
        <time>2021-02-24T13:04:03Z</time>
      </trkpt>
      <trkpt lat="44.41042" lon="5.02797">
        <ele>302.7</ele>
        <time>2021-02-24T13:04:04Z</time>
      </trkpt>
      <trkpt lat="44.41046" lon="5.02792">
        <ele>302.9</ele>
        <time>2021-02-24T13:04:05Z</time>
      </trkpt>
      <trkpt lat="44.4105" lon="5.02787">
        <ele>303.1</ele>
        <time>2021-02-24T13:04:06Z</time>
      </trkpt>
      <trkpt lat="44.41054" lon="5.02782">
        <ele>303.3</ele>
        <time>2021-02-24T13:04:07Z</time>
      </trkpt>
      <trkpt lat="44.41057" lon="5.02777">
        <ele>303.5</ele>
        <time>2021-02-24T13:04:08Z</time>
      </trkpt>
      <trkpt lat="44.4106" lon="5.02773">
        <ele>303.6</ele>
        <time>2021-02-24T13:04:09Z</time>
      </trkpt>
      <trkpt lat="44.41064" lon="5.02769">
        <ele>303.8</ele>
        <time>2021-02-24T13:04:10Z</time>
      </trkpt>
      <trkpt lat="44.41067" lon="5.02765">
        <ele>303.9</ele>
        <time>2021-02-24T13:04:11Z</time>
      </trkpt>
      <trkpt lat="44.41071" lon="5.0276">
        <ele>304</ele>
        <time>2021-02-24T13:04:12Z</time>
      </trkpt>
      <trkpt lat="44.41074" lon="5.02756">
        <ele>304.1</ele>
        <time>2021-02-24T13:04:13Z</time>
      </trkpt>
      <trkpt lat="44.41074" lon="5.02756">
        <ele>304.1</ele>
        <time>2021-02-24T13:04:14Z</time>
      </trkpt>
      <trkpt lat="44.41078" lon="5.02752">
        <ele>304.1</ele>
        <time>2021-02-24T13:04:15Z</time>
      </trkpt>
      <trkpt lat="44.41081" lon="5.02747">
        <ele>304.2</ele>
        <time>2021-02-24T13:04:16Z</time>
      </trkpt>
      <trkpt lat="44.41085" lon="5.02742">
        <ele>304.2</ele>
        <time>2021-02-24T13:04:17Z</time>
      </trkpt>
      <trkpt lat="44.41088" lon="5.02738">
        <ele>304.2</ele>
        <time>2021-02-24T13:04:18Z</time>
      </trkpt>
      <trkpt lat="44.41092" lon="5.02733">
        <ele>304.2</ele>
        <time>2021-02-24T13:04:19Z</time>
      </trkpt>
      <trkpt lat="44.41096" lon="5.02728">
        <ele>304.2</ele>
        <time>2021-02-24T13:04:20Z</time>
      </trkpt>
      <trkpt lat="44.411" lon="5.02723">
        <ele>304.2</ele>
        <time>2021-02-24T13:04:21Z</time>
      </trkpt>
      <trkpt lat="44.41104" lon="5.02718">
        <ele>304.2</ele>
        <time>2021-02-24T13:04:22Z</time>
      </trkpt>
      <trkpt lat="44.41108" lon="5.02714">
        <ele>304.3</ele>
        <time>2021-02-24T13:04:23Z</time>
      </trkpt>
      <trkpt lat="44.41115" lon="5.02704">
        <ele>304.5</ele>
        <time>2021-02-24T13:04:24Z</time>
      </trkpt>
      <trkpt lat="44.41119" lon="5.02699">
        <ele>304.6</ele>
        <time>2021-02-24T13:04:25Z</time>
      </trkpt>
      <trkpt lat="44.41122" lon="5.02694">
        <ele>304.6</ele>
        <time>2021-02-24T13:04:26Z</time>
      </trkpt>
      <trkpt lat="44.41126" lon="5.02689">
        <ele>304.7</ele>
        <time>2021-02-24T13:04:27Z</time>
      </trkpt>
      <trkpt lat="44.4113" lon="5.02685">
        <ele>304.8</ele>
        <time>2021-02-24T13:04:28Z</time>
      </trkpt>
      <trkpt lat="44.41134" lon="5.02681">
        <ele>304.9</ele>
        <time>2021-02-24T13:04:29Z</time>
      </trkpt>
      <trkpt lat="44.41139" lon="5.02678">
        <ele>304.9</ele>
        <time>2021-02-24T13:04:30Z</time>
      </trkpt>
      <trkpt lat="44.41144" lon="5.02678">
        <ele>305</ele>
        <time>2021-02-24T13:04:31Z</time>
      </trkpt>
      <trkpt lat="44.41149" lon="5.02679">
        <ele>305.1</ele>
        <time>2021-02-24T13:04:32Z</time>
      </trkpt>
      <trkpt lat="44.41153" lon="5.02682">
        <ele>305.2</ele>
        <time>2021-02-24T13:04:33Z</time>
      </trkpt>
      <trkpt lat="44.41157" lon="5.02685">
        <ele>305.3</ele>
        <time>2021-02-24T13:04:34Z</time>
      </trkpt>
      <trkpt lat="44.41161" lon="5.02689">
        <ele>305.4</ele>
        <time>2021-02-24T13:04:35Z</time>
      </trkpt>
      <trkpt lat="44.41165" lon="5.02693">
        <ele>305.5</ele>
        <time>2021-02-24T13:04:36Z</time>
      </trkpt>
      <trkpt lat="44.41169" lon="5.02697">
        <ele>305.6</ele>
        <time>2021-02-24T13:04:37Z</time>
      </trkpt>
      <trkpt lat="44.41172" lon="5.02702">
        <ele>305.7</ele>
        <time>2021-02-24T13:04:38Z</time>
      </trkpt>
      <trkpt lat="44.41176" lon="5.02707">
        <ele>305.8</ele>
        <time>2021-02-24T13:04:39Z</time>
      </trkpt>
      <trkpt lat="44.41179" lon="5.02711">
        <ele>305.9</ele>
        <time>2021-02-24T13:04:40Z</time>
      </trkpt>
      <trkpt lat="44.41182" lon="5.02717">
        <ele>306</ele>
        <time>2021-02-24T13:04:41Z</time>
      </trkpt>
      <trkpt lat="44.41185" lon="5.02722">
        <ele>306.1</ele>
        <time>2021-02-24T13:04:42Z</time>
      </trkpt>
      <trkpt lat="44.41188" lon="5.02727">
        <ele>306.2</ele>
        <time>2021-02-24T13:04:43Z</time>
      </trkpt>
      <trkpt lat="44.41191" lon="5.02733">
        <ele>306.3</ele>
        <time>2021-02-24T13:04:44Z</time>
      </trkpt>
      <trkpt lat="44.41193" lon="5.02738">
        <ele>306.4</ele>
        <time>2021-02-24T13:04:45Z</time>
      </trkpt>
      <trkpt lat="44.41195" lon="5.02744">
        <ele>306.5</ele>
        <time>2021-02-24T13:04:46Z</time>
      </trkpt>
      <trkpt lat="44.41197" lon="5.0275">
        <ele>306.7</ele>
        <time>2021-02-24T13:04:47Z</time>
      </trkpt>
      <trkpt lat="44.41199" lon="5.02756">
        <ele>306.8</ele>
        <time>2021-02-24T13:04:48Z</time>
      </trkpt>
      <trkpt lat="44.41201" lon="5.02762">
        <ele>306.9</ele>
        <time>2021-02-24T13:04:49Z</time>
      </trkpt>
      <trkpt lat="44.41204" lon="5.02766">
        <ele>307.1</ele>
        <time>2021-02-24T13:04:50Z</time>
      </trkpt>
      <trkpt lat="44.41207" lon="5.0277">
        <ele>307.2</ele>
        <time>2021-02-24T13:04:51Z</time>
      </trkpt>
      <trkpt lat="44.4121" lon="5.02774">
        <ele>307.4</ele>
        <time>2021-02-24T13:04:52Z</time>
      </trkpt>
      <trkpt lat="44.41213" lon="5.02777">
        <ele>307.5</ele>
        <time>2021-02-24T13:04:53Z</time>
      </trkpt>
      <trkpt lat="44.41217" lon="5.02779">
        <ele>307.7</ele>
        <time>2021-02-24T13:04:54Z</time>
      </trkpt>
      <trkpt lat="44.41221" lon="5.02781">
        <ele>307.7</ele>
        <time>2021-02-24T13:04:55Z</time>
      </trkpt>
      <trkpt lat="44.41221" lon="5.02781">
        <ele>307.7</ele>
        <time>2021-02-24T13:04:56Z</time>
      </trkpt>
      <trkpt lat="44.41225" lon="5.02781">
        <ele>306.7</ele>
        <time>2021-02-24T13:04:57Z</time>
      </trkpt>
      <trkpt lat="44.4123" lon="5.0278">
        <ele>306.7</ele>
        <time>2021-02-24T13:04:58Z</time>
      </trkpt>
      <trkpt lat="44.41234" lon="5.02777">
        <ele>306.7</ele>
        <time>2021-02-24T13:04:59Z</time>
      </trkpt>
      <trkpt lat="44.41238" lon="5.02772">
        <ele>306.7</ele>
        <time>2021-02-24T13:05:00Z</time>
      </trkpt>
      <trkpt lat="44.41241" lon="5.02766">
        <ele>306.8</ele>
        <time>2021-02-24T13:05:01Z</time>
      </trkpt>
      <trkpt lat="44.41244" lon="5.02761">
        <ele>306.8</ele>
        <time>2021-02-24T13:05:02Z</time>
      </trkpt>
      <trkpt lat="44.41247" lon="5.02755">
        <ele>306.8</ele>
        <time>2021-02-24T13:05:03Z</time>
      </trkpt>
      <trkpt lat="44.4125" lon="5.02749">
        <ele>306.8</ele>
        <time>2021-02-24T13:05:04Z</time>
      </trkpt>
      <trkpt lat="44.41253" lon="5.02744">
        <ele>306.8</ele>
        <time>2021-02-24T13:05:05Z</time>
      </trkpt>
      <trkpt lat="44.41259" lon="5.02736">
        <ele>307.8</ele>
        <time>2021-02-24T13:05:06Z</time>
      </trkpt>
      <trkpt lat="44.41263" lon="5.02732">
        <ele>307.8</ele>
        <time>2021-02-24T13:05:07Z</time>
      </trkpt>
      <trkpt lat="44.41263" lon="5.02732">
        <ele>307.8</ele>
        <time>2021-02-24T13:05:08Z</time>
      </trkpt>
      <trkpt lat="44.41266" lon="5.02729">
        <ele>307.9</ele>
        <time>2021-02-24T13:05:09Z</time>
      </trkpt>
      <trkpt lat="44.4127" lon="5.02725">
        <ele>307.9</ele>
        <time>2021-02-24T13:05:10Z</time>
      </trkpt>
      <trkpt lat="44.41273" lon="5.02722">
        <ele>307.9</ele>
        <time>2021-02-24T13:05:11Z</time>
      </trkpt>
      <trkpt lat="44.41277" lon="5.02718">
        <ele>307.9</ele>
        <time>2021-02-24T13:05:12Z</time>
      </trkpt>
      <trkpt lat="44.4128" lon="5.02714">
        <ele>307.9</ele>
        <time>2021-02-24T13:05:13Z</time>
      </trkpt>
      <trkpt lat="44.41284" lon="5.0271">
        <ele>307.9</ele>
        <time>2021-02-24T13:05:14Z</time>
      </trkpt>
      <trkpt lat="44.41288" lon="5.02707">
        <ele>307.9</ele>
        <time>2021-02-24T13:05:15Z</time>
      </trkpt>
      <trkpt lat="44.41291" lon="5.02703">
        <ele>307.9</ele>
        <time>2021-02-24T13:05:16Z</time>
      </trkpt>
      <trkpt lat="44.41295" lon="5.02699">
        <ele>307.9</ele>
        <time>2021-02-24T13:05:17Z</time>
      </trkpt>
      <trkpt lat="44.41302" lon="5.02692">
        <ele>309</ele>
        <time>2021-02-24T13:05:18Z</time>
      </trkpt>
      <trkpt lat="44.41305" lon="5.02688">
        <ele>309</ele>
        <time>2021-02-24T13:05:19Z</time>
      </trkpt>
      <trkpt lat="44.41309" lon="5.02684">
        <ele>309</ele>
        <time>2021-02-24T13:05:20Z</time>
      </trkpt>
      <trkpt lat="44.41312" lon="5.0268">
        <ele>309</ele>
        <time>2021-02-24T13:05:21Z</time>
      </trkpt>
      <trkpt lat="44.41316" lon="5.02677">
        <ele>309</ele>
        <time>2021-02-24T13:05:22Z</time>
      </trkpt>
      <trkpt lat="44.41319" lon="5.02673">
        <ele>309</ele>
        <time>2021-02-24T13:05:23Z</time>
      </trkpt>
      <trkpt lat="44.41322" lon="5.02669">
        <ele>309</ele>
        <time>2021-02-24T13:05:24Z</time>
      </trkpt>
      <trkpt lat="44.41326" lon="5.02666">
        <ele>309</ele>
        <time>2021-02-24T13:05:25Z</time>
      </trkpt>
      <trkpt lat="44.41329" lon="5.02662">
        <ele>309.1</ele>
        <time>2021-02-24T13:05:26Z</time>
      </trkpt>
      <trkpt lat="44.41332" lon="5.02659">
        <ele>310.1</ele>
        <time>2021-02-24T13:05:27Z</time>
      </trkpt>
      <trkpt lat="44.41335" lon="5.02655">
        <ele>310.1</ele>
        <time>2021-02-24T13:05:28Z</time>
      </trkpt>
      <trkpt lat="44.41338" lon="5.02652">
        <ele>310.1</ele>
        <time>2021-02-24T13:05:29Z</time>
      </trkpt>
      <trkpt lat="44.41338" lon="5.02652">
        <ele>310.1</ele>
        <time>2021-02-24T13:05:30Z</time>
      </trkpt>
      <trkpt lat="44.4134" lon="5.02649">
        <ele>310.1</ele>
        <time>2021-02-24T13:05:31Z</time>
      </trkpt>
      <trkpt lat="44.41343" lon="5.02646">
        <ele>310.1</ele>
        <time>2021-02-24T13:05:32Z</time>
      </trkpt>
      <trkpt lat="44.41345" lon="5.02643">
        <ele>310.1</ele>
        <time>2021-02-24T13:05:33Z</time>
      </trkpt>
      <trkpt lat="44.41347" lon="5.02641">
        <ele>310.1</ele>
        <time>2021-02-24T13:05:34Z</time>
      </trkpt>
      <trkpt lat="44.41349" lon="5.02639">
        <ele>310.2</ele>
        <time>2021-02-24T13:05:35Z</time>
      </trkpt>
      <trkpt lat="44.4135" lon="5.02636">
        <ele>310.2</ele>
        <time>2021-02-24T13:05:36Z</time>
      </trkpt>
      <trkpt lat="44.41351" lon="5.02634">
        <ele>311.2</ele>
        <time>2021-02-24T13:05:37Z</time>
      </trkpt>
      <trkpt lat="44.41352" lon="5.0263">
        <ele>311.2</ele>
        <time>2021-02-24T13:05:38Z</time>
      </trkpt>
      <trkpt lat="44.41351" lon="5.02626">
        <ele>311.2</ele>
        <time>2021-02-24T13:05:39Z</time>
      </trkpt>
      <trkpt lat="44.41349" lon="5.02622">
        <ele>311.1</ele>
        <time>2021-02-24T13:05:40Z</time>
      </trkpt>
      <trkpt lat="44.41347" lon="5.02618">
        <ele>310.9</ele>
        <time>2021-02-24T13:05:41Z</time>
      </trkpt>
      <trkpt lat="44.41344" lon="5.02613">
        <ele>310.7</ele>
        <time>2021-02-24T13:05:42Z</time>
      </trkpt>
      <trkpt lat="44.41342" lon="5.02609">
        <ele>310.5</ele>
        <time>2021-02-24T13:05:43Z</time>
      </trkpt>
      <trkpt lat="44.41339" lon="5.02604">
        <ele>310.3</ele>
        <time>2021-02-24T13:05:44Z</time>
      </trkpt>
      <trkpt lat="44.41336" lon="5.02598">
        <ele>310</ele>
        <time>2021-02-24T13:05:45Z</time>
      </trkpt>
      <trkpt lat="44.41332" lon="5.02593">
        <ele>309.7</ele>
        <time>2021-02-24T13:05:46Z</time>
      </trkpt>
      <trkpt lat="44.41329" lon="5.02587">
        <ele>309.4</ele>
        <time>2021-02-24T13:05:47Z</time>
      </trkpt>
      <trkpt lat="44.41325" lon="5.0258">
        <ele>309.1</ele>
        <time>2021-02-24T13:05:48Z</time>
      </trkpt>
      <trkpt lat="44.41321" lon="5.02574">
        <ele>308.8</ele>
        <time>2021-02-24T13:05:49Z</time>
      </trkpt>
      <trkpt lat="44.41317" lon="5.02566">
        <ele>308.4</ele>
        <time>2021-02-24T13:05:50Z</time>
      </trkpt>
      <trkpt lat="44.41313" lon="5.02559">
        <ele>308.1</ele>
        <time>2021-02-24T13:05:51Z</time>
      </trkpt>
      <trkpt lat="44.41309" lon="5.02552">
        <ele>307.8</ele>
        <time>2021-02-24T13:05:52Z</time>
      </trkpt>
      <trkpt lat="44.41301" lon="5.02537">
        <ele>307.1</ele>
        <time>2021-02-24T13:05:53Z</time>
      </trkpt>
      <trkpt lat="44.41296" lon="5.02529">
        <ele>306.7</ele>
        <time>2021-02-24T13:05:54Z</time>
      </trkpt>
      <trkpt lat="44.41292" lon="5.02521">
        <ele>306.4</ele>
        <time>2021-02-24T13:05:55Z</time>
      </trkpt>
      <trkpt lat="44.41287" lon="5.02512">
        <ele>306</ele>
        <time>2021-02-24T13:05:56Z</time>
      </trkpt>
      <trkpt lat="44.41283" lon="5.02504">
        <ele>305.6</ele>
        <time>2021-02-24T13:05:57Z</time>
      </trkpt>
      <trkpt lat="44.41278" lon="5.02495">
        <ele>305.2</ele>
        <time>2021-02-24T13:05:58Z</time>
      </trkpt>
      <trkpt lat="44.41274" lon="5.02487">
        <ele>304.9</ele>
        <time>2021-02-24T13:05:59Z</time>
      </trkpt>
      <trkpt lat="44.41274" lon="5.02487">
        <ele>304.9</ele>
        <time>2021-02-24T13:06:00Z</time>
      </trkpt>
      <trkpt lat="44.41269" lon="5.02478">
        <ele>304.5</ele>
        <time>2021-02-24T13:06:01Z</time>
      </trkpt>
      <trkpt lat="44.41265" lon="5.0247">
        <ele>304.2</ele>
        <time>2021-02-24T13:06:02Z</time>
      </trkpt>
      <trkpt lat="44.4126" lon="5.02461">
        <ele>303.9</ele>
        <time>2021-02-24T13:06:03Z</time>
      </trkpt>
      <trkpt lat="44.4125" lon="5.02443">
        <ele>303.3</ele>
        <time>2021-02-24T13:06:04Z</time>
      </trkpt>
      <trkpt lat="44.4125" lon="5.02443">
        <ele>303.3</ele>
        <time>2021-02-24T13:06:05Z</time>
      </trkpt>
      <trkpt lat="44.41241" lon="5.02424">
        <ele>302.8</ele>
        <time>2021-02-24T13:06:06Z</time>
      </trkpt>
      <trkpt lat="44.41236" lon="5.02415">
        <ele>302.6</ele>
        <time>2021-02-24T13:06:07Z</time>
      </trkpt>
      <trkpt lat="44.41232" lon="5.02407">
        <ele>302.4</ele>
        <time>2021-02-24T13:06:08Z</time>
      </trkpt>
      <trkpt lat="44.41227" lon="5.02398">
        <ele>302.1</ele>
        <time>2021-02-24T13:06:09Z</time>
      </trkpt>
      <trkpt lat="44.41223" lon="5.02389">
        <ele>301.9</ele>
        <time>2021-02-24T13:06:10Z</time>
      </trkpt>
      <trkpt lat="44.41218" lon="5.02381">
        <ele>301.7</ele>
        <time>2021-02-24T13:06:11Z</time>
      </trkpt>
      <trkpt lat="44.41214" lon="5.02372">
        <ele>301.5</ele>
        <time>2021-02-24T13:06:12Z</time>
      </trkpt>
      <trkpt lat="44.41214" lon="5.02372">
        <ele>301.5</ele>
        <time>2021-02-24T13:06:13Z</time>
      </trkpt>
      <trkpt lat="44.4121" lon="5.02363">
        <ele>301.3</ele>
        <time>2021-02-24T13:06:14Z</time>
      </trkpt>
      <trkpt lat="44.41205" lon="5.02355">
        <ele>301.2</ele>
        <time>2021-02-24T13:06:15Z</time>
      </trkpt>
      <trkpt lat="44.41201" lon="5.02346">
        <ele>301</ele>
        <time>2021-02-24T13:06:16Z</time>
      </trkpt>
      <trkpt lat="44.41196" lon="5.02338">
        <ele>300.8</ele>
        <time>2021-02-24T13:06:17Z</time>
      </trkpt>
      <trkpt lat="44.41192" lon="5.0233">
        <ele>300.6</ele>
        <time>2021-02-24T13:06:18Z</time>
      </trkpt>
      <trkpt lat="44.41184" lon="5.02314">
        <ele>300.3</ele>
        <time>2021-02-24T13:06:19Z</time>
      </trkpt>
      <trkpt lat="44.4118" lon="5.02306">
        <ele>300.2</ele>
        <time>2021-02-24T13:06:20Z</time>
      </trkpt>
      <trkpt lat="44.41176" lon="5.02298">
        <ele>300.1</ele>
        <time>2021-02-24T13:06:21Z</time>
      </trkpt>
      <trkpt lat="44.41171" lon="5.02291">
        <ele>299.9</ele>
        <time>2021-02-24T13:06:22Z</time>
      </trkpt>
      <trkpt lat="44.41167" lon="5.02283">
        <ele>299.8</ele>
        <time>2021-02-24T13:06:23Z</time>
      </trkpt>
      <trkpt lat="44.41163" lon="5.02276">
        <ele>299.6</ele>
        <time>2021-02-24T13:06:24Z</time>
      </trkpt>
      <trkpt lat="44.41159" lon="5.02268">
        <ele>299.5</ele>
        <time>2021-02-24T13:06:25Z</time>
      </trkpt>
      <trkpt lat="44.41155" lon="5.0226">
        <ele>299.3</ele>
        <time>2021-02-24T13:06:26Z</time>
      </trkpt>
      <trkpt lat="44.41155" lon="5.0226">
        <ele>299.3</ele>
        <time>2021-02-24T13:06:27Z</time>
      </trkpt>
      <trkpt lat="44.41151" lon="5.02253">
        <ele>299.2</ele>
        <time>2021-02-24T13:06:28Z</time>
      </trkpt>
      <trkpt lat="44.41147" lon="5.02245">
        <ele>299</ele>
        <time>2021-02-24T13:06:29Z</time>
      </trkpt>
      <trkpt lat="44.41143" lon="5.02238">
        <ele>298.9</ele>
        <time>2021-02-24T13:06:30Z</time>
      </trkpt>
      <trkpt lat="44.41139" lon="5.0223">
        <ele>298.7</ele>
        <time>2021-02-24T13:06:31Z</time>
      </trkpt>
      <trkpt lat="44.41135" lon="5.02223">
        <ele>298.6</ele>
        <time>2021-02-24T13:06:32Z</time>
      </trkpt>
      <trkpt lat="44.41131" lon="5.02215">
        <ele>298.4</ele>
        <time>2021-02-24T13:06:33Z</time>
      </trkpt>
      <trkpt lat="44.41123" lon="5.022">
        <ele>298</ele>
        <time>2021-02-24T13:06:34Z</time>
      </trkpt>
      <trkpt lat="44.41119" lon="5.02192">
        <ele>297.8</ele>
        <time>2021-02-24T13:06:35Z</time>
      </trkpt>
      <trkpt lat="44.41115" lon="5.02185">
        <ele>297.6</ele>
        <time>2021-02-24T13:06:36Z</time>
      </trkpt>
      <trkpt lat="44.41111" lon="5.02178">
        <ele>297.4</ele>
        <time>2021-02-24T13:06:37Z</time>
      </trkpt>
      <trkpt lat="44.41107" lon="5.0217">
        <ele>297.2</ele>
        <time>2021-02-24T13:06:38Z</time>
      </trkpt>
      <trkpt lat="44.41103" lon="5.02162">
        <ele>297</ele>
        <time>2021-02-24T13:06:39Z</time>
      </trkpt>
      <trkpt lat="44.41099" lon="5.02155">
        <ele>296.8</ele>
        <time>2021-02-24T13:06:40Z</time>
      </trkpt>
      <trkpt lat="44.41095" lon="5.02147">
        <ele>296.7</ele>
        <time>2021-02-24T13:06:41Z</time>
      </trkpt>
      <trkpt lat="44.41091" lon="5.0214">
        <ele>296.5</ele>
        <time>2021-02-24T13:06:42Z</time>
      </trkpt>
      <trkpt lat="44.41088" lon="5.02132">
        <ele>296.3</ele>
        <time>2021-02-24T13:06:43Z</time>
      </trkpt>
      <trkpt lat="44.41084" lon="5.02125">
        <ele>296.2</ele>
        <time>2021-02-24T13:06:44Z</time>
      </trkpt>
      <trkpt lat="44.4108" lon="5.02118">
        <ele>296</ele>
        <time>2021-02-24T13:06:45Z</time>
      </trkpt>
      <trkpt lat="44.41076" lon="5.02111">
        <ele>295.9</ele>
        <time>2021-02-24T13:06:46Z</time>
      </trkpt>
      <trkpt lat="44.41072" lon="5.02103">
        <ele>295.7</ele>
        <time>2021-02-24T13:06:47Z</time>
      </trkpt>
      <trkpt lat="44.41068" lon="5.02096">
        <ele>295.5</ele>
        <time>2021-02-24T13:06:48Z</time>
      </trkpt>
      <trkpt lat="44.41064" lon="5.02088">
        <ele>295.4</ele>
        <time>2021-02-24T13:06:49Z</time>
      </trkpt>
      <trkpt lat="44.41059" lon="5.02081">
        <ele>295.2</ele>
        <time>2021-02-24T13:06:50Z</time>
      </trkpt>
      <trkpt lat="44.41055" lon="5.02073">
        <ele>295</ele>
        <time>2021-02-24T13:06:51Z</time>
      </trkpt>
      <trkpt lat="44.41051" lon="5.02066">
        <ele>294.9</ele>
        <time>2021-02-24T13:06:52Z</time>
      </trkpt>
      <trkpt lat="44.41047" lon="5.02059">
        <ele>294.7</ele>
        <time>2021-02-24T13:06:53Z</time>
      </trkpt>
      <trkpt lat="44.41043" lon="5.02052">
        <ele>294.6</ele>
        <time>2021-02-24T13:06:54Z</time>
      </trkpt>
      <trkpt lat="44.41039" lon="5.02045">
        <ele>294.4</ele>
        <time>2021-02-24T13:06:55Z</time>
      </trkpt>
      <trkpt lat="44.41035" lon="5.02038">
        <ele>294.3</ele>
        <time>2021-02-24T13:06:56Z</time>
      </trkpt>
      <trkpt lat="44.41035" lon="5.02038">
        <ele>294.3</ele>
        <time>2021-02-24T13:06:57Z</time>
      </trkpt>
      <trkpt lat="44.41031" lon="5.02031">
        <ele>294.2</ele>
        <time>2021-02-24T13:06:58Z</time>
      </trkpt>
      <trkpt lat="44.41027" lon="5.02024">
        <ele>294.1</ele>
        <time>2021-02-24T13:06:59Z</time>
      </trkpt>
      <trkpt lat="44.41023" lon="5.02017">
        <ele>294</ele>
        <time>2021-02-24T13:07:00Z</time>
      </trkpt>
      <trkpt lat="44.41019" lon="5.02011">
        <ele>293.9</ele>
        <time>2021-02-24T13:07:01Z</time>
      </trkpt>
      <trkpt lat="44.41015" lon="5.02004">
        <ele>293.7</ele>
        <time>2021-02-24T13:07:02Z</time>
      </trkpt>
      <trkpt lat="44.41011" lon="5.01997">
        <ele>293.7</ele>
        <time>2021-02-24T13:07:03Z</time>
      </trkpt>
      <trkpt lat="44.41008" lon="5.01991">
        <ele>293.6</ele>
        <time>2021-02-24T13:07:04Z</time>
      </trkpt>
      <trkpt lat="44.41" lon="5.01977">
        <ele>293.3</ele>
        <time>2021-02-24T13:07:05Z</time>
      </trkpt>
      <trkpt lat="44.40996" lon="5.0197">
        <ele>293.2</ele>
        <time>2021-02-24T13:07:06Z</time>
      </trkpt>
      <trkpt lat="44.40991" lon="5.01964">
        <ele>293.1</ele>
        <time>2021-02-24T13:07:07Z</time>
      </trkpt>
      <trkpt lat="44.40987" lon="5.01957">
        <ele>292.9</ele>
        <time>2021-02-24T13:07:08Z</time>
      </trkpt>
      <trkpt lat="44.40983" lon="5.0195">
        <ele>292.7</ele>
        <time>2021-02-24T13:07:09Z</time>
      </trkpt>
      <trkpt lat="44.40979" lon="5.01944">
        <ele>292.6</ele>
        <time>2021-02-24T13:07:10Z</time>
      </trkpt>
      <trkpt lat="44.40975" lon="5.01937">
        <ele>292.5</ele>
        <time>2021-02-24T13:07:11Z</time>
      </trkpt>
      <trkpt lat="44.4097" lon="5.0193">
        <ele>292.3</ele>
        <time>2021-02-24T13:07:12Z</time>
      </trkpt>
      <trkpt lat="44.4097" lon="5.0193">
        <ele>292.3</ele>
        <time>2021-02-24T13:07:13Z</time>
      </trkpt>
      <trkpt lat="44.40966" lon="5.01923">
        <ele>292.2</ele>
        <time>2021-02-24T13:07:14Z</time>
      </trkpt>
      <trkpt lat="44.40961" lon="5.01915">
        <ele>292</ele>
        <time>2021-02-24T13:07:15Z</time>
      </trkpt>
      <trkpt lat="44.40957" lon="5.01908">
        <ele>291.9</ele>
        <time>2021-02-24T13:07:16Z</time>
      </trkpt>
      <trkpt lat="44.40953" lon="5.019">
        <ele>291.7</ele>
        <time>2021-02-24T13:07:17Z</time>
      </trkpt>
      <trkpt lat="44.40948" lon="5.01893">
        <ele>291.6</ele>
        <time>2021-02-24T13:07:18Z</time>
      </trkpt>
      <trkpt lat="44.40943" lon="5.01886">
        <ele>291.4</ele>
        <time>2021-02-24T13:07:19Z</time>
      </trkpt>
      <trkpt lat="44.40934" lon="5.01872">
        <ele>291.2</ele>
        <time>2021-02-24T13:07:20Z</time>
      </trkpt>
      <trkpt lat="44.40934" lon="5.01872">
        <ele>291.2</ele>
        <time>2021-02-24T13:07:21Z</time>
      </trkpt>
      <trkpt lat="44.40929" lon="5.01865">
        <ele>291</ele>
        <time>2021-02-24T13:07:22Z</time>
      </trkpt>
      <trkpt lat="44.40925" lon="5.01857">
        <ele>290.9</ele>
        <time>2021-02-24T13:07:23Z</time>
      </trkpt>
      <trkpt lat="44.4092" lon="5.0185">
        <ele>290.6</ele>
        <time>2021-02-24T13:07:24Z</time>
      </trkpt>
      <trkpt lat="44.40915" lon="5.01843">
        <ele>290.4</ele>
        <time>2021-02-24T13:07:25Z</time>
      </trkpt>
      <trkpt lat="44.40911" lon="5.01835">
        <ele>290.2</ele>
        <time>2021-02-24T13:07:26Z</time>
      </trkpt>
      <trkpt lat="44.40901" lon="5.01821">
        <ele>289.9</ele>
        <time>2021-02-24T13:07:27Z</time>
      </trkpt>
      <trkpt lat="44.40897" lon="5.01814">
        <ele>289.7</ele>
        <time>2021-02-24T13:07:28Z</time>
      </trkpt>
      <trkpt lat="44.40892" lon="5.01806">
        <ele>289.5</ele>
        <time>2021-02-24T13:07:29Z</time>
      </trkpt>
      <trkpt lat="44.40887" lon="5.01799">
        <ele>289.3</ele>
        <time>2021-02-24T13:07:30Z</time>
      </trkpt>
      <trkpt lat="44.40883" lon="5.01791">
        <ele>289.1</ele>
        <time>2021-02-24T13:07:31Z</time>
      </trkpt>
      <trkpt lat="44.40879" lon="5.01783">
        <ele>288.9</ele>
        <time>2021-02-24T13:07:32Z</time>
      </trkpt>
      <trkpt lat="44.40874" lon="5.01776">
        <ele>288.7</ele>
        <time>2021-02-24T13:07:33Z</time>
      </trkpt>
      <trkpt lat="44.40874" lon="5.01776">
        <ele>288.7</ele>
        <time>2021-02-24T13:07:34Z</time>
      </trkpt>
      <trkpt lat="44.4087" lon="5.01768">
        <ele>288.6</ele>
        <time>2021-02-24T13:07:35Z</time>
      </trkpt>
      <trkpt lat="44.40866" lon="5.01761">
        <ele>288.4</ele>
        <time>2021-02-24T13:07:36Z</time>
      </trkpt>
      <trkpt lat="44.40862" lon="5.01753">
        <ele>288.3</ele>
        <time>2021-02-24T13:07:37Z</time>
      </trkpt>
      <trkpt lat="44.40858" lon="5.01745">
        <ele>288.2</ele>
        <time>2021-02-24T13:07:38Z</time>
      </trkpt>
      <trkpt lat="44.40854" lon="5.01737">
        <ele>288</ele>
        <time>2021-02-24T13:07:39Z</time>
      </trkpt>
      <trkpt lat="44.40851" lon="5.01728">
        <ele>287.9</ele>
        <time>2021-02-24T13:07:40Z</time>
      </trkpt>
      <trkpt lat="44.40843" lon="5.01711">
        <ele>287.5</ele>
        <time>2021-02-24T13:07:41Z</time>
      </trkpt>
      <trkpt lat="44.4084" lon="5.01703">
        <ele>287.3</ele>
        <time>2021-02-24T13:07:42Z</time>
      </trkpt>
      <trkpt lat="44.40836" lon="5.01694">
        <ele>287.1</ele>
        <time>2021-02-24T13:07:43Z</time>
      </trkpt>
      <trkpt lat="44.40833" lon="5.01686">
        <ele>286.9</ele>
        <time>2021-02-24T13:07:44Z</time>
      </trkpt>
      <trkpt lat="44.40829" lon="5.01678">
        <ele>286.7</ele>
        <time>2021-02-24T13:07:45Z</time>
      </trkpt>
      <trkpt lat="44.40826" lon="5.0167">
        <ele>286.5</ele>
        <time>2021-02-24T13:07:46Z</time>
      </trkpt>
      <trkpt lat="44.40822" lon="5.01662">
        <ele>286.3</ele>
        <time>2021-02-24T13:07:47Z</time>
      </trkpt>
      <trkpt lat="44.40819" lon="5.01654">
        <ele>286.1</ele>
        <time>2021-02-24T13:07:48Z</time>
      </trkpt>
      <trkpt lat="44.40819" lon="5.01654">
        <ele>286.1</ele>
        <time>2021-02-24T13:07:49Z</time>
      </trkpt>
      <trkpt lat="44.40816" lon="5.01647">
        <ele>286</ele>
        <time>2021-02-24T13:07:50Z</time>
      </trkpt>
      <trkpt lat="44.40813" lon="5.01639">
        <ele>285.8</ele>
        <time>2021-02-24T13:07:51Z</time>
      </trkpt>
      <trkpt lat="44.40809" lon="5.01631">
        <ele>285.6</ele>
        <time>2021-02-24T13:07:52Z</time>
      </trkpt>
      <trkpt lat="44.40806" lon="5.01624">
        <ele>285.4</ele>
        <time>2021-02-24T13:07:53Z</time>
      </trkpt>
      <trkpt lat="44.40799" lon="5.01608">
        <ele>285.1</ele>
        <time>2021-02-24T13:07:54Z</time>
      </trkpt>
      <trkpt lat="44.40799" lon="5.01608">
        <ele>285.1</ele>
        <time>2021-02-24T13:07:55Z</time>
      </trkpt>
      <trkpt lat="44.40795" lon="5.016">
        <ele>284.9</ele>
        <time>2021-02-24T13:07:56Z</time>
      </trkpt>
      <trkpt lat="44.40788" lon="5.01584">
        <ele>284.5</ele>
        <time>2021-02-24T13:07:57Z</time>
      </trkpt>
      <trkpt lat="44.40788" lon="5.01584">
        <ele>284.5</ele>
        <time>2021-02-24T13:07:58Z</time>
      </trkpt>
      <trkpt lat="44.40785" lon="5.01576">
        <ele>284.3</ele>
        <time>2021-02-24T13:07:59Z</time>
      </trkpt>
      <trkpt lat="44.40781" lon="5.01568">
        <ele>284.2</ele>
        <time>2021-02-24T13:08:00Z</time>
      </trkpt>
      <trkpt lat="44.40778" lon="5.0156">
        <ele>284</ele>
        <time>2021-02-24T13:08:01Z</time>
      </trkpt>
      <trkpt lat="44.40774" lon="5.01552">
        <ele>283.8</ele>
        <time>2021-02-24T13:08:02Z</time>
      </trkpt>
      <trkpt lat="44.40771" lon="5.01544">
        <ele>283.7</ele>
        <time>2021-02-24T13:08:03Z</time>
      </trkpt>
      <trkpt lat="44.40767" lon="5.01536">
        <ele>283.5</ele>
        <time>2021-02-24T13:08:04Z</time>
      </trkpt>
      <trkpt lat="44.40764" lon="5.01528">
        <ele>283.3</ele>
        <time>2021-02-24T13:08:05Z</time>
      </trkpt>
      <trkpt lat="44.4076" lon="5.0152">
        <ele>283.1</ele>
        <time>2021-02-24T13:08:06Z</time>
      </trkpt>
      <trkpt lat="44.40756" lon="5.01512">
        <ele>282.9</ele>
        <time>2021-02-24T13:08:07Z</time>
      </trkpt>
      <trkpt lat="44.40752" lon="5.01504">
        <ele>282.6</ele>
        <time>2021-02-24T13:08:08Z</time>
      </trkpt>
      <trkpt lat="44.40749" lon="5.01495">
        <ele>282.4</ele>
        <time>2021-02-24T13:08:09Z</time>
      </trkpt>
      <trkpt lat="44.40745" lon="5.01487">
        <ele>282.2</ele>
        <time>2021-02-24T13:08:10Z</time>
      </trkpt>
      <trkpt lat="44.40738" lon="5.0147">
        <ele>281.8</ele>
        <time>2021-02-24T13:08:11Z</time>
      </trkpt>
      <trkpt lat="44.40735" lon="5.01462">
        <ele>281.6</ele>
        <time>2021-02-24T13:08:12Z</time>
      </trkpt>
      <trkpt lat="44.40732" lon="5.01454">
        <ele>281.4</ele>
        <time>2021-02-24T13:08:13Z</time>
      </trkpt>
      <trkpt lat="44.40729" lon="5.01445">
        <ele>281.1</ele>
        <time>2021-02-24T13:08:14Z</time>
      </trkpt>
      <trkpt lat="44.40725" lon="5.01436">
        <ele>280.9</ele>
        <time>2021-02-24T13:08:15Z</time>
      </trkpt>
      <trkpt lat="44.40722" lon="5.01428">
        <ele>280.7</ele>
        <time>2021-02-24T13:08:16Z</time>
      </trkpt>
      <trkpt lat="44.40718" lon="5.01419">
        <ele>280.5</ele>
        <time>2021-02-24T13:08:17Z</time>
      </trkpt>
      <trkpt lat="44.40718" lon="5.01419">
        <ele>280.5</ele>
        <time>2021-02-24T13:08:18Z</time>
      </trkpt>
      <trkpt lat="44.40715" lon="5.0141">
        <ele>280.3</ele>
        <time>2021-02-24T13:08:19Z</time>
      </trkpt>
      <trkpt lat="44.40711" lon="5.01401">
        <ele>280</ele>
        <time>2021-02-24T13:08:20Z</time>
      </trkpt>
      <trkpt lat="44.40708" lon="5.01393">
        <ele>279.8</ele>
        <time>2021-02-24T13:08:21Z</time>
      </trkpt>
      <trkpt lat="44.40704" lon="5.01384">
        <ele>279.6</ele>
        <time>2021-02-24T13:08:22Z</time>
      </trkpt>
      <trkpt lat="44.40701" lon="5.01375">
        <ele>279.4</ele>
        <time>2021-02-24T13:08:23Z</time>
      </trkpt>
      <trkpt lat="44.40698" lon="5.01367">
        <ele>279.3</ele>
        <time>2021-02-24T13:08:24Z</time>
      </trkpt>
      <trkpt lat="44.40695" lon="5.01359">
        <ele>279.1</ele>
        <time>2021-02-24T13:08:25Z</time>
      </trkpt>
      <trkpt lat="44.40689" lon="5.01343">
        <ele>278.9</ele>
        <time>2021-02-24T13:08:26Z</time>
      </trkpt>
      <trkpt lat="44.40686" lon="5.01335">
        <ele>278.7</ele>
        <time>2021-02-24T13:08:27Z</time>
      </trkpt>
      <trkpt lat="44.40683" lon="5.01327">
        <ele>278.6</ele>
        <time>2021-02-24T13:08:28Z</time>
      </trkpt>
      <trkpt lat="44.4068" lon="5.01319">
        <ele>278.4</ele>
        <time>2021-02-24T13:08:29Z</time>
      </trkpt>
      <trkpt lat="44.40677" lon="5.01311">
        <ele>278.3</ele>
        <time>2021-02-24T13:08:30Z</time>
      </trkpt>
      <trkpt lat="44.40674" lon="5.01302">
        <ele>278.1</ele>
        <time>2021-02-24T13:08:31Z</time>
      </trkpt>
      <trkpt lat="44.40671" lon="5.01294">
        <ele>277.9</ele>
        <time>2021-02-24T13:08:32Z</time>
      </trkpt>
      <trkpt lat="44.40671" lon="5.01294">
        <ele>277.9</ele>
        <time>2021-02-24T13:08:33Z</time>
      </trkpt>
      <trkpt lat="44.40668" lon="5.01286">
        <ele>277.8</ele>
        <time>2021-02-24T13:08:34Z</time>
      </trkpt>
      <trkpt lat="44.40664" lon="5.01278">
        <ele>277.6</ele>
        <time>2021-02-24T13:08:35Z</time>
      </trkpt>
      <trkpt lat="44.40658" lon="5.01262">
        <ele>277.3</ele>
        <time>2021-02-24T13:08:36Z</time>
      </trkpt>
      <trkpt lat="44.40655" lon="5.01254">
        <ele>277.2</ele>
        <time>2021-02-24T13:08:37Z</time>
      </trkpt>
      <trkpt lat="44.40653" lon="5.01245">
        <ele>277</ele>
        <time>2021-02-24T13:08:38Z</time>
      </trkpt>
      <trkpt lat="44.4065" lon="5.01237">
        <ele>276.9</ele>
        <time>2021-02-24T13:08:39Z</time>
      </trkpt>
      <trkpt lat="44.40647" lon="5.01229">
        <ele>276.7</ele>
        <time>2021-02-24T13:08:40Z</time>
      </trkpt>
      <trkpt lat="44.40644" lon="5.01221">
        <ele>276.6</ele>
        <time>2021-02-24T13:08:41Z</time>
      </trkpt>
      <trkpt lat="44.40641" lon="5.01213">
        <ele>276.4</ele>
        <time>2021-02-24T13:08:42Z</time>
      </trkpt>
      <trkpt lat="44.40638" lon="5.01205">
        <ele>276.3</ele>
        <time>2021-02-24T13:08:43Z</time>
      </trkpt>
      <trkpt lat="44.40634" lon="5.01196">
        <ele>276.2</ele>
        <time>2021-02-24T13:08:44Z</time>
      </trkpt>
      <trkpt lat="44.40631" lon="5.01188">
        <ele>276</ele>
        <time>2021-02-24T13:08:45Z</time>
      </trkpt>
      <trkpt lat="44.40628" lon="5.0118">
        <ele>275.8</ele>
        <time>2021-02-24T13:08:46Z</time>
      </trkpt>
      <trkpt lat="44.40624" lon="5.01171">
        <ele>275.7</ele>
        <time>2021-02-24T13:08:47Z</time>
      </trkpt>
      <trkpt lat="44.40624" lon="5.01171">
        <ele>275.7</ele>
        <time>2021-02-24T13:08:48Z</time>
      </trkpt>
      <trkpt lat="44.40621" lon="5.01162">
        <ele>275.5</ele>
        <time>2021-02-24T13:08:49Z</time>
      </trkpt>
      <trkpt lat="44.40617" lon="5.01154">
        <ele>275.4</ele>
        <time>2021-02-24T13:08:50Z</time>
      </trkpt>
      <trkpt lat="44.40614" lon="5.01145">
        <ele>275.2</ele>
        <time>2021-02-24T13:08:51Z</time>
      </trkpt>
      <trkpt lat="44.40611" lon="5.01136">
        <ele>275.1</ele>
        <time>2021-02-24T13:08:52Z</time>
      </trkpt>
      <trkpt lat="44.40607" lon="5.01127">
        <ele>275</ele>
        <time>2021-02-24T13:08:53Z</time>
      </trkpt>
      <trkpt lat="44.40604" lon="5.01119">
        <ele>274.9</ele>
        <time>2021-02-24T13:08:54Z</time>
      </trkpt>
      <trkpt lat="44.40597" lon="5.01101">
        <ele>274.6</ele>
        <time>2021-02-24T13:08:55Z</time>
      </trkpt>
      <trkpt lat="44.40597" lon="5.01101">
        <ele>274.6</ele>
        <time>2021-02-24T13:08:56Z</time>
      </trkpt>
      <trkpt lat="44.40593" lon="5.01092">
        <ele>274.5</ele>
        <time>2021-02-24T13:08:57Z</time>
      </trkpt>
      <trkpt lat="44.4059" lon="5.01084">
        <ele>274.3</ele>
        <time>2021-02-24T13:08:58Z</time>
      </trkpt>
      <trkpt lat="44.40587" lon="5.01075">
        <ele>274.2</ele>
        <time>2021-02-24T13:08:59Z</time>
      </trkpt>
      <trkpt lat="44.40583" lon="5.01067">
        <ele>274</ele>
        <time>2021-02-24T13:09:00Z</time>
      </trkpt>
      <trkpt lat="44.4058" lon="5.01059">
        <ele>273.9</ele>
        <time>2021-02-24T13:09:01Z</time>
      </trkpt>
      <trkpt lat="44.40573" lon="5.01043">
        <ele>273.6</ele>
        <time>2021-02-24T13:09:02Z</time>
      </trkpt>
      <trkpt lat="44.40569" lon="5.01036">
        <ele>273.4</ele>
        <time>2021-02-24T13:09:03Z</time>
      </trkpt>
      <trkpt lat="44.40566" lon="5.01029">
        <ele>273.3</ele>
        <time>2021-02-24T13:09:04Z</time>
      </trkpt>
      <trkpt lat="44.40563" lon="5.01023">
        <ele>273.2</ele>
        <time>2021-02-24T13:09:05Z</time>
      </trkpt>
      <trkpt lat="44.4056" lon="5.01018">
        <ele>273.2</ele>
        <time>2021-02-24T13:09:06Z</time>
      </trkpt>
      <trkpt lat="44.40559" lon="5.01015">
        <ele>273.1</ele>
        <time>2021-02-24T13:09:07Z</time>
      </trkpt>
      <trkpt lat="44.40557" lon="5.01012">
        <ele>273.1</ele>
        <time>2021-02-24T13:09:08Z</time>
      </trkpt>
      <trkpt lat="44.40556" lon="5.0101">
        <ele>273</ele>
        <time>2021-02-24T13:09:09Z</time>
      </trkpt>
      <trkpt lat="44.40555" lon="5.01008">
        <ele>273</ele>
        <time>2021-02-24T13:09:10Z</time>
      </trkpt>
      <trkpt lat="44.40554" lon="5.01005">
        <ele>272.9</ele>
        <time>2021-02-24T13:09:11Z</time>
      </trkpt>
      <trkpt lat="44.40554" lon="5.01002">
        <ele>272.9</ele>
        <time>2021-02-24T13:09:12Z</time>
      </trkpt>
      <trkpt lat="44.40554" lon="5.01">
        <ele>272.8</ele>
        <time>2021-02-24T13:09:13Z</time>
      </trkpt>
      <trkpt lat="44.40556" lon="5.00998">
        <ele>272.7</ele>
        <time>2021-02-24T13:09:14Z</time>
      </trkpt>
      <trkpt lat="44.40556" lon="5.00998">
        <ele>272.7</ele>
        <time>2021-02-24T13:09:15Z</time>
      </trkpt>
      <trkpt lat="44.40558" lon="5.00996">
        <ele>272.7</ele>
        <time>2021-02-24T13:09:16Z</time>
      </trkpt>
      <trkpt lat="44.40565" lon="5.00995">
        <ele>272.6</ele>
        <time>2021-02-24T13:09:17Z</time>
      </trkpt>
      <trkpt lat="44.40568" lon="5.00994">
        <ele>272.6</ele>
        <time>2021-02-24T13:09:18Z</time>
      </trkpt>
      <trkpt lat="44.40571" lon="5.00993">
        <ele>272.5</ele>
        <time>2021-02-24T13:09:19Z</time>
      </trkpt>
      <trkpt lat="44.40576" lon="5.00993">
        <ele>272.5</ele>
        <time>2021-02-24T13:09:20Z</time>
      </trkpt>
      <trkpt lat="44.4058" lon="5.00991">
        <ele>272.4</ele>
        <time>2021-02-24T13:09:21Z</time>
      </trkpt>
      <trkpt lat="44.40583" lon="5.00991">
        <ele>272.3</ele>
        <time>2021-02-24T13:09:22Z</time>
      </trkpt>
      <trkpt lat="44.40588" lon="5.00991">
        <ele>272.2</ele>
        <time>2021-02-24T13:09:23Z</time>
      </trkpt>
      <trkpt lat="44.40592" lon="5.00992">
        <ele>272.1</ele>
        <time>2021-02-24T13:09:24Z</time>
      </trkpt>
      <trkpt lat="44.40596" lon="5.00993">
        <ele>271.9</ele>
        <time>2021-02-24T13:09:25Z</time>
      </trkpt>
      <trkpt lat="44.40601" lon="5.00995">
        <ele>271.8</ele>
        <time>2021-02-24T13:09:26Z</time>
      </trkpt>
      <trkpt lat="44.40605" lon="5.00997">
        <ele>271.7</ele>
        <time>2021-02-24T13:09:27Z</time>
      </trkpt>
      <trkpt lat="44.4061" lon="5.00999">
        <ele>271.6</ele>
        <time>2021-02-24T13:09:28Z</time>
      </trkpt>
      <trkpt lat="44.4061" lon="5.00999">
        <ele>271.6</ele>
        <time>2021-02-24T13:09:29Z</time>
      </trkpt>
      <trkpt lat="44.40615" lon="5.01001">
        <ele>271.5</ele>
        <time>2021-02-24T13:09:30Z</time>
      </trkpt>
      <trkpt lat="44.40621" lon="5.01003">
        <ele>271.4</ele>
        <time>2021-02-24T13:09:31Z</time>
      </trkpt>
      <trkpt lat="44.40626" lon="5.01004">
        <ele>271.4</ele>
        <time>2021-02-24T13:09:32Z</time>
      </trkpt>
      <trkpt lat="44.40637" lon="5.01007">
        <ele>271.3</ele>
        <time>2021-02-24T13:09:33Z</time>
      </trkpt>
      <trkpt lat="44.40637" lon="5.01007">
        <ele>271.3</ele>
        <time>2021-02-24T13:09:34Z</time>
      </trkpt>
      <trkpt lat="44.40642" lon="5.01009">
        <ele>271.2</ele>
        <time>2021-02-24T13:09:35Z</time>
      </trkpt>
      <trkpt lat="44.40648" lon="5.01011">
        <ele>271.2</ele>
        <time>2021-02-24T13:09:36Z</time>
      </trkpt>
      <trkpt lat="44.40654" lon="5.01012">
        <ele>271.2</ele>
        <time>2021-02-24T13:09:37Z</time>
      </trkpt>
      <trkpt lat="44.40665" lon="5.01014">
        <ele>271.1</ele>
        <time>2021-02-24T13:09:38Z</time>
      </trkpt>
      <trkpt lat="44.4067" lon="5.01015">
        <ele>271</ele>
        <time>2021-02-24T13:09:39Z</time>
      </trkpt>
      <trkpt lat="44.40676" lon="5.01016">
        <ele>271</ele>
        <time>2021-02-24T13:09:40Z</time>
      </trkpt>
      <trkpt lat="44.40682" lon="5.01017">
        <ele>270.9</ele>
        <time>2021-02-24T13:09:41Z</time>
      </trkpt>
      <trkpt lat="44.40687" lon="5.01017">
        <ele>270.8</ele>
        <time>2021-02-24T13:09:42Z</time>
      </trkpt>
      <trkpt lat="44.40693" lon="5.01017">
        <ele>270.7</ele>
        <time>2021-02-24T13:09:43Z</time>
      </trkpt>
      <trkpt lat="44.40699" lon="5.01017">
        <ele>270.7</ele>
        <time>2021-02-24T13:09:44Z</time>
      </trkpt>
      <trkpt lat="44.40705" lon="5.01016">
        <ele>270.7</ele>
        <time>2021-02-24T13:09:45Z</time>
      </trkpt>
      <trkpt lat="44.40711" lon="5.01015">
        <ele>270.6</ele>
        <time>2021-02-24T13:09:46Z</time>
      </trkpt>
      <trkpt lat="44.40711" lon="5.01015">
        <ele>270.6</ele>
        <time>2021-02-24T13:09:47Z</time>
      </trkpt>
      <trkpt lat="44.40717" lon="5.01015">
        <ele>270.6</ele>
        <time>2021-02-24T13:09:48Z</time>
      </trkpt>
      <trkpt lat="44.40722" lon="5.01014">
        <ele>270.6</ele>
        <time>2021-02-24T13:09:49Z</time>
      </trkpt>
      <trkpt lat="44.40728" lon="5.01013">
        <ele>270.6</ele>
        <time>2021-02-24T13:09:50Z</time>
      </trkpt>
      <trkpt lat="44.40734" lon="5.01012">
        <ele>270.6</ele>
        <time>2021-02-24T13:09:51Z</time>
      </trkpt>
      <trkpt lat="44.40746" lon="5.01011">
        <ele>270.5</ele>
        <time>2021-02-24T13:09:52Z</time>
      </trkpt>
      <trkpt lat="44.40751" lon="5.0101">
        <ele>270.4</ele>
        <time>2021-02-24T13:09:53Z</time>
      </trkpt>
      <trkpt lat="44.40757" lon="5.0101">
        <ele>270.4</ele>
        <time>2021-02-24T13:09:54Z</time>
      </trkpt>
      <trkpt lat="44.40763" lon="5.01009">
        <ele>270.4</ele>
        <time>2021-02-24T13:09:55Z</time>
      </trkpt>
      <trkpt lat="44.40769" lon="5.01009">
        <ele>270.4</ele>
        <time>2021-02-24T13:09:56Z</time>
      </trkpt>
      <trkpt lat="44.40775" lon="5.01009">
        <ele>270.4</ele>
        <time>2021-02-24T13:09:57Z</time>
      </trkpt>
      <trkpt lat="44.40781" lon="5.01008">
        <ele>270.3</ele>
        <time>2021-02-24T13:09:58Z</time>
      </trkpt>
      <trkpt lat="44.40786" lon="5.01008">
        <ele>270.3</ele>
        <time>2021-02-24T13:09:59Z</time>
      </trkpt>
      <trkpt lat="44.40792" lon="5.01008">
        <ele>270.3</ele>
        <time>2021-02-24T13:10:00Z</time>
      </trkpt>
      <trkpt lat="44.40798" lon="5.01008">
        <ele>270.2</ele>
        <time>2021-02-24T13:10:01Z</time>
      </trkpt>
      <trkpt lat="44.40804" lon="5.01007">
        <ele>270.2</ele>
        <time>2021-02-24T13:10:02Z</time>
      </trkpt>
      <trkpt lat="44.4081" lon="5.01007">
        <ele>270.3</ele>
        <time>2021-02-24T13:10:03Z</time>
      </trkpt>
      <trkpt lat="44.40816" lon="5.01007">
        <ele>270.3</ele>
        <time>2021-02-24T13:10:04Z</time>
      </trkpt>
      <trkpt lat="44.40822" lon="5.01006">
        <ele>270.4</ele>
        <time>2021-02-24T13:10:05Z</time>
      </trkpt>
      <trkpt lat="44.40828" lon="5.01006">
        <ele>270.4</ele>
        <time>2021-02-24T13:10:06Z</time>
      </trkpt>
      <trkpt lat="44.40834" lon="5.01006">
        <ele>270.5</ele>
        <time>2021-02-24T13:10:07Z</time>
      </trkpt>
      <trkpt lat="44.40841" lon="5.01005">
        <ele>270.6</ele>
        <time>2021-02-24T13:10:08Z</time>
      </trkpt>
      <trkpt lat="44.40847" lon="5.01005">
        <ele>270.7</ele>
        <time>2021-02-24T13:10:09Z</time>
      </trkpt>
      <trkpt lat="44.40853" lon="5.01004">
        <ele>270.8</ele>
        <time>2021-02-24T13:10:10Z</time>
      </trkpt>
      <trkpt lat="44.40858" lon="5.01004">
        <ele>270.9</ele>
        <time>2021-02-24T13:10:11Z</time>
      </trkpt>
      <trkpt lat="44.40858" lon="5.01004">
        <ele>270.9</ele>
        <time>2021-02-24T13:10:12Z</time>
      </trkpt>
      <trkpt lat="44.40864" lon="5.01004">
        <ele>270.9</ele>
        <time>2021-02-24T13:10:13Z</time>
      </trkpt>
      <trkpt lat="44.4087" lon="5.01003">
        <ele>271</ele>
        <time>2021-02-24T13:10:14Z</time>
      </trkpt>
      <trkpt lat="44.40876" lon="5.01003">
        <ele>271.1</ele>
        <time>2021-02-24T13:10:15Z</time>
      </trkpt>
      <trkpt lat="44.40882" lon="5.01002">
        <ele>271.2</ele>
        <time>2021-02-24T13:10:16Z</time>
      </trkpt>
      <trkpt lat="44.40888" lon="5.01002">
        <ele>271.3</ele>
        <time>2021-02-24T13:10:17Z</time>
      </trkpt>
      <trkpt lat="44.40894" lon="5.01001">
        <ele>271.4</ele>
        <time>2021-02-24T13:10:18Z</time>
      </trkpt>
      <trkpt lat="44.409" lon="5.01001">
        <ele>271.5</ele>
        <time>2021-02-24T13:10:19Z</time>
      </trkpt>
      <trkpt lat="44.40906" lon="5.01001">
        <ele>271.6</ele>
        <time>2021-02-24T13:10:20Z</time>
      </trkpt>
      <trkpt lat="44.40912" lon="5.01">
        <ele>271.7</ele>
        <time>2021-02-24T13:10:21Z</time>
      </trkpt>
      <trkpt lat="44.40918" lon="5.01">
        <ele>271.8</ele>
        <time>2021-02-24T13:10:22Z</time>
      </trkpt>
      <trkpt lat="44.40924" lon="5.00999">
        <ele>271.9</ele>
        <time>2021-02-24T13:10:23Z</time>
      </trkpt>
      <trkpt lat="44.4093" lon="5.00999">
        <ele>272</ele>
        <time>2021-02-24T13:10:24Z</time>
      </trkpt>
      <trkpt lat="44.40936" lon="5.00999">
        <ele>272.1</ele>
        <time>2021-02-24T13:10:25Z</time>
      </trkpt>
      <trkpt lat="44.40941" lon="5.00998">
        <ele>272.2</ele>
        <time>2021-02-24T13:10:26Z</time>
      </trkpt>
      <trkpt lat="44.40947" lon="5.00998">
        <ele>272.3</ele>
        <time>2021-02-24T13:10:27Z</time>
      </trkpt>
      <trkpt lat="44.40953" lon="5.00997">
        <ele>272.4</ele>
        <time>2021-02-24T13:10:28Z</time>
      </trkpt>
      <trkpt lat="44.40959" lon="5.00997">
        <ele>272.5</ele>
        <time>2021-02-24T13:10:29Z</time>
      </trkpt>
      <trkpt lat="44.40971" lon="5.00997">
        <ele>272.7</ele>
        <time>2021-02-24T13:10:30Z</time>
      </trkpt>
      <trkpt lat="44.40977" lon="5.00997">
        <ele>272.7</ele>
        <time>2021-02-24T13:10:31Z</time>
      </trkpt>
      <trkpt lat="44.40983" lon="5.00996">
        <ele>272.8</ele>
        <time>2021-02-24T13:10:32Z</time>
      </trkpt>
      <trkpt lat="44.40989" lon="5.00997">
        <ele>272.8</ele>
        <time>2021-02-24T13:10:33Z</time>
      </trkpt>
      <trkpt lat="44.40995" lon="5.00997">
        <ele>272.8</ele>
        <time>2021-02-24T13:10:34Z</time>
      </trkpt>
      <trkpt lat="44.41001" lon="5.00997">
        <ele>272.9</ele>
        <time>2021-02-24T13:10:35Z</time>
      </trkpt>
      <trkpt lat="44.41007" lon="5.00997">
        <ele>272.9</ele>
        <time>2021-02-24T13:10:36Z</time>
      </trkpt>
      <trkpt lat="44.41007" lon="5.00997">
        <ele>272.9</ele>
        <time>2021-02-24T13:10:37Z</time>
      </trkpt>
      <trkpt lat="44.41013" lon="5.00997">
        <ele>272.9</ele>
        <time>2021-02-24T13:10:38Z</time>
      </trkpt>
      <trkpt lat="44.41019" lon="5.00998">
        <ele>273</ele>
        <time>2021-02-24T13:10:39Z</time>
      </trkpt>
      <trkpt lat="44.41024" lon="5.00998">
        <ele>273.1</ele>
        <time>2021-02-24T13:10:40Z</time>
      </trkpt>
      <trkpt lat="44.4103" lon="5.00998">
        <ele>273.2</ele>
        <time>2021-02-24T13:10:41Z</time>
      </trkpt>
      <trkpt lat="44.41036" lon="5.00998">
        <ele>273.3</ele>
        <time>2021-02-24T13:10:42Z</time>
      </trkpt>
      <trkpt lat="44.41042" lon="5.00999">
        <ele>273.4</ele>
        <time>2021-02-24T13:10:43Z</time>
      </trkpt>
      <trkpt lat="44.41047" lon="5.00999">
        <ele>273.5</ele>
        <time>2021-02-24T13:10:44Z</time>
      </trkpt>
      <trkpt lat="44.41053" lon="5.01">
        <ele>273.5</ele>
        <time>2021-02-24T13:10:45Z</time>
      </trkpt>
      <trkpt lat="44.41064" lon="5.01001">
        <ele>273.7</ele>
        <time>2021-02-24T13:10:46Z</time>
      </trkpt>
      <trkpt lat="44.41069" lon="5.01001">
        <ele>273.7</ele>
        <time>2021-02-24T13:10:47Z</time>
      </trkpt>
      <trkpt lat="44.41073" lon="5.01002">
        <ele>273.8</ele>
        <time>2021-02-24T13:10:48Z</time>
      </trkpt>
      <trkpt lat="44.41078" lon="5.01003">
        <ele>273.8</ele>
        <time>2021-02-24T13:10:49Z</time>
      </trkpt>
      <trkpt lat="44.41082" lon="5.01003">
        <ele>273.8</ele>
        <time>2021-02-24T13:10:50Z</time>
      </trkpt>
      <trkpt lat="44.41086" lon="5.01003">
        <ele>273.9</ele>
        <time>2021-02-24T13:10:51Z</time>
      </trkpt>
      <trkpt lat="44.4109" lon="5.01">
        <ele>273.8</ele>
        <time>2021-02-24T13:10:52Z</time>
      </trkpt>
      <trkpt lat="44.41093" lon="5.00996">
        <ele>273.6</ele>
        <time>2021-02-24T13:10:53Z</time>
      </trkpt>
      <trkpt lat="44.41095" lon="5.0099">
        <ele>273.4</ele>
        <time>2021-02-24T13:10:54Z</time>
      </trkpt>
      <trkpt lat="44.41097" lon="5.00984">
        <ele>273.2</ele>
        <time>2021-02-24T13:10:55Z</time>
      </trkpt>
      <trkpt lat="44.41099" lon="5.00977">
        <ele>272.9</ele>
        <time>2021-02-24T13:10:56Z</time>
      </trkpt>
      <trkpt lat="44.41101" lon="5.0097">
        <ele>272.7</ele>
        <time>2021-02-24T13:10:57Z</time>
      </trkpt>
      <trkpt lat="44.41103" lon="5.00962">
        <ele>272.4</ele>
        <time>2021-02-24T13:10:58Z</time>
      </trkpt>
      <trkpt lat="44.41105" lon="5.00954">
        <ele>272.2</ele>
        <time>2021-02-24T13:10:59Z</time>
      </trkpt>
      <trkpt lat="44.41107" lon="5.00946">
        <ele>271.9</ele>
        <time>2021-02-24T13:11:00Z</time>
      </trkpt>
      <trkpt lat="44.41109" lon="5.00938">
        <ele>271.7</ele>
        <time>2021-02-24T13:11:01Z</time>
      </trkpt>
      <trkpt lat="44.41111" lon="5.0093">
        <ele>271.5</ele>
        <time>2021-02-24T13:11:02Z</time>
      </trkpt>
      <trkpt lat="44.41113" lon="5.00922">
        <ele>271.2</ele>
        <time>2021-02-24T13:11:03Z</time>
      </trkpt>
      <trkpt lat="44.41115" lon="5.00913">
        <ele>271.1</ele>
        <time>2021-02-24T13:11:04Z</time>
      </trkpt>
      <trkpt lat="44.41115" lon="5.00913">
        <ele>271.1</ele>
        <time>2021-02-24T13:11:05Z</time>
      </trkpt>
      <trkpt lat="44.41117" lon="5.00905">
        <ele>270.9</ele>
        <time>2021-02-24T13:11:06Z</time>
      </trkpt>
      <trkpt lat="44.41119" lon="5.00896">
        <ele>270.8</ele>
        <time>2021-02-24T13:11:07Z</time>
      </trkpt>
      <trkpt lat="44.41121" lon="5.00887">
        <ele>270.7</ele>
        <time>2021-02-24T13:11:08Z</time>
      </trkpt>
      <trkpt lat="44.41123" lon="5.00878">
        <ele>270.6</ele>
        <time>2021-02-24T13:11:09Z</time>
      </trkpt>
      <trkpt lat="44.41125" lon="5.00869">
        <ele>270.4</ele>
        <time>2021-02-24T13:11:10Z</time>
      </trkpt>
      <trkpt lat="44.41127" lon="5.0086">
        <ele>270.2</ele>
        <time>2021-02-24T13:11:11Z</time>
      </trkpt>
      <trkpt lat="44.4113" lon="5.00851">
        <ele>270.1</ele>
        <time>2021-02-24T13:11:12Z</time>
      </trkpt>
      <trkpt lat="44.41134" lon="5.00833">
        <ele>269.7</ele>
        <time>2021-02-24T13:11:13Z</time>
      </trkpt>
      <trkpt lat="44.41136" lon="5.00824">
        <ele>269.5</ele>
        <time>2021-02-24T13:11:14Z</time>
      </trkpt>
      <trkpt lat="44.41137" lon="5.00815">
        <ele>269.4</ele>
        <time>2021-02-24T13:11:15Z</time>
      </trkpt>
      <trkpt lat="44.41139" lon="5.00805">
        <ele>269.2</ele>
        <time>2021-02-24T13:11:16Z</time>
      </trkpt>
      <trkpt lat="44.41141" lon="5.00796">
        <ele>269.1</ele>
        <time>2021-02-24T13:11:17Z</time>
      </trkpt>
      <trkpt lat="44.41142" lon="5.00787">
        <ele>268.9</ele>
        <time>2021-02-24T13:11:18Z</time>
      </trkpt>
      <trkpt lat="44.41143" lon="5.00778">
        <ele>268.8</ele>
        <time>2021-02-24T13:11:19Z</time>
      </trkpt>
      <trkpt lat="44.41143" lon="5.00778">
        <ele>268.8</ele>
        <time>2021-02-24T13:11:20Z</time>
      </trkpt>
      <trkpt lat="44.41145" lon="5.00769">
        <ele>268.6</ele>
        <time>2021-02-24T13:11:21Z</time>
      </trkpt>
      <trkpt lat="44.41147" lon="5.0076">
        <ele>268.5</ele>
        <time>2021-02-24T13:11:22Z</time>
      </trkpt>
      <trkpt lat="44.41148" lon="5.00751">
        <ele>268.4</ele>
        <time>2021-02-24T13:11:23Z</time>
      </trkpt>
      <trkpt lat="44.4115" lon="5.00743">
        <ele>268.2</ele>
        <time>2021-02-24T13:11:24Z</time>
      </trkpt>
      <trkpt lat="44.41152" lon="5.00734">
        <ele>268.1</ele>
        <time>2021-02-24T13:11:25Z</time>
      </trkpt>
      <trkpt lat="44.41154" lon="5.00725">
        <ele>268</ele>
        <time>2021-02-24T13:11:26Z</time>
      </trkpt>
      <trkpt lat="44.41158" lon="5.00707">
        <ele>267.7</ele>
        <time>2021-02-24T13:11:27Z</time>
      </trkpt>
      <trkpt lat="44.4116" lon="5.00698">
        <ele>267.5</ele>
        <time>2021-02-24T13:11:28Z</time>
      </trkpt>
      <trkpt lat="44.41162" lon="5.00689">
        <ele>267.4</ele>
        <time>2021-02-24T13:11:29Z</time>
      </trkpt>
      <trkpt lat="44.41164" lon="5.0068">
        <ele>267.2</ele>
        <time>2021-02-24T13:11:30Z</time>
      </trkpt>
      <trkpt lat="44.41166" lon="5.00672">
        <ele>267.1</ele>
        <time>2021-02-24T13:11:31Z</time>
      </trkpt>
      <trkpt lat="44.41168" lon="5.00663">
        <ele>267</ele>
        <time>2021-02-24T13:11:32Z</time>
      </trkpt>
      <trkpt lat="44.4117" lon="5.00654">
        <ele>266.9</ele>
        <time>2021-02-24T13:11:33Z</time>
      </trkpt>
      <trkpt lat="44.41172" lon="5.00646">
        <ele>266.8</ele>
        <time>2021-02-24T13:11:34Z</time>
      </trkpt>
      <trkpt lat="44.41174" lon="5.00637">
        <ele>266.7</ele>
        <time>2021-02-24T13:11:35Z</time>
      </trkpt>
      <trkpt lat="44.41176" lon="5.00628">
        <ele>266.7</ele>
        <time>2021-02-24T13:11:36Z</time>
      </trkpt>
      <trkpt lat="44.41178" lon="5.0062">
        <ele>266.6</ele>
        <time>2021-02-24T13:11:37Z</time>
      </trkpt>
      <trkpt lat="44.4118" lon="5.00611">
        <ele>266.5</ele>
        <time>2021-02-24T13:11:38Z</time>
      </trkpt>
      <trkpt lat="44.41182" lon="5.00603">
        <ele>266.4</ele>
        <time>2021-02-24T13:11:39Z</time>
      </trkpt>
      <trkpt lat="44.41184" lon="5.00595">
        <ele>266.3</ele>
        <time>2021-02-24T13:11:40Z</time>
      </trkpt>
      <trkpt lat="44.41186" lon="5.00586">
        <ele>266.3</ele>
        <time>2021-02-24T13:11:41Z</time>
      </trkpt>
      <trkpt lat="44.41188" lon="5.00578">
        <ele>266.1</ele>
        <time>2021-02-24T13:11:42Z</time>
      </trkpt>
      <trkpt lat="44.41188" lon="5.00578">
        <ele>266.1</ele>
        <time>2021-02-24T13:11:43Z</time>
      </trkpt>
      <trkpt lat="44.4119" lon="5.0057">
        <ele>266</ele>
        <time>2021-02-24T13:11:44Z</time>
      </trkpt>
      <trkpt lat="44.41191" lon="5.00562">
        <ele>265.9</ele>
        <time>2021-02-24T13:11:45Z</time>
      </trkpt>
      <trkpt lat="44.41193" lon="5.00555">
        <ele>265.8</ele>
        <time>2021-02-24T13:11:46Z</time>
      </trkpt>
      <trkpt lat="44.41195" lon="5.00548">
        <ele>265.7</ele>
        <time>2021-02-24T13:11:47Z</time>
      </trkpt>
      <trkpt lat="44.41196" lon="5.00541">
        <ele>265.5</ele>
        <time>2021-02-24T13:11:48Z</time>
      </trkpt>
      <trkpt lat="44.41198" lon="5.00535">
        <ele>265.4</ele>
        <time>2021-02-24T13:11:49Z</time>
      </trkpt>
      <trkpt lat="44.41199" lon="5.00529">
        <ele>265.4</ele>
        <time>2021-02-24T13:11:50Z</time>
      </trkpt>
      <trkpt lat="44.41201" lon="5.00521">
        <ele>265.3</ele>
        <time>2021-02-24T13:11:51Z</time>
      </trkpt>
      <trkpt lat="44.41201" lon="5.00521">
        <ele>265.3</ele>
        <time>2021-02-24T13:11:52Z</time>
      </trkpt>
      <trkpt lat="44.41202" lon="5.00518">
        <ele>265.3</ele>
        <time>2021-02-24T13:11:53Z</time>
      </trkpt>
      <trkpt lat="44.41202" lon="5.00518">
        <ele>265.3</ele>
        <time>2021-02-24T13:11:54Z</time>
      </trkpt>
      <trkpt lat="44.41202" lon="5.00515">
        <ele>265.3</ele>
        <time>2021-02-24T13:11:55Z</time>
      </trkpt>
      <trkpt lat="44.41202" lon="5.00515">
        <ele>265.3</ele>
        <time>2021-02-24T13:11:56Z</time>
      </trkpt>
      <trkpt lat="44.41202" lon="5.00515">
        <ele>265.3</ele>
        <time>2021-02-24T13:11:57Z</time>
      </trkpt>
      <trkpt lat="44.41202" lon="5.00515">
        <ele>265.3</ele>
        <time>2021-02-24T13:11:58Z</time>
      </trkpt>
      <trkpt lat="44.41202" lon="5.00515">
        <ele>265.3</ele>
        <time>2021-02-24T13:11:59Z</time>
      </trkpt>
      <trkpt lat="44.412" lon="5.00503">
        <ele>265.2</ele>
        <time>2021-02-24T13:12:04Z</time>
      </trkpt>
      <trkpt lat="44.41198" lon="5.00499">
        <ele>265.2</ele>
        <time>2021-02-24T13:12:05Z</time>
      </trkpt>
      <trkpt lat="44.41195" lon="5.00495">
        <ele>265.1</ele>
        <time>2021-02-24T13:12:06Z</time>
      </trkpt>
      <trkpt lat="44.41192" lon="5.00491">
        <ele>265</ele>
        <time>2021-02-24T13:12:07Z</time>
      </trkpt>
      <trkpt lat="44.41189" lon="5.00486">
        <ele>264.9</ele>
        <time>2021-02-24T13:12:08Z</time>
      </trkpt>
      <trkpt lat="44.41185" lon="5.0048">
        <ele>264.8</ele>
        <time>2021-02-24T13:12:09Z</time>
      </trkpt>
      <trkpt lat="44.41182" lon="5.00474">
        <ele>264.7</ele>
        <time>2021-02-24T13:12:10Z</time>
      </trkpt>
      <trkpt lat="44.41178" lon="5.00468">
        <ele>264.6</ele>
        <time>2021-02-24T13:12:11Z</time>
      </trkpt>
      <trkpt lat="44.41174" lon="5.00462">
        <ele>264.5</ele>
        <time>2021-02-24T13:12:12Z</time>
      </trkpt>
      <trkpt lat="44.41171" lon="5.00455">
        <ele>264.4</ele>
        <time>2021-02-24T13:12:13Z</time>
      </trkpt>
      <trkpt lat="44.41167" lon="5.00448">
        <ele>264.2</ele>
        <time>2021-02-24T13:12:14Z</time>
      </trkpt>
      <trkpt lat="44.41167" lon="5.00448">
        <ele>264.2</ele>
        <time>2021-02-24T13:12:15Z</time>
      </trkpt>
      <trkpt lat="44.41163" lon="5.00441">
        <ele>264.1</ele>
        <time>2021-02-24T13:12:16Z</time>
      </trkpt>
      <trkpt lat="44.41159" lon="5.00433">
        <ele>264</ele>
        <time>2021-02-24T13:12:17Z</time>
      </trkpt>
      <trkpt lat="44.41155" lon="5.00426">
        <ele>263.9</ele>
        <time>2021-02-24T13:12:18Z</time>
      </trkpt>
      <trkpt lat="44.41152" lon="5.00418">
        <ele>263.8</ele>
        <time>2021-02-24T13:12:19Z</time>
      </trkpt>
      <trkpt lat="44.41148" lon="5.0041">
        <ele>263.7</ele>
        <time>2021-02-24T13:12:20Z</time>
      </trkpt>
      <trkpt lat="44.41144" lon="5.00402">
        <ele>263.6</ele>
        <time>2021-02-24T13:12:21Z</time>
      </trkpt>
      <trkpt lat="44.4114" lon="5.00393">
        <ele>263.5</ele>
        <time>2021-02-24T13:12:22Z</time>
      </trkpt>
      <trkpt lat="44.41133" lon="5.00376">
        <ele>263.2</ele>
        <time>2021-02-24T13:12:23Z</time>
      </trkpt>
      <trkpt lat="44.41129" lon="5.00368">
        <ele>263.1</ele>
        <time>2021-02-24T13:12:24Z</time>
      </trkpt>
      <trkpt lat="44.41125" lon="5.00359">
        <ele>262.9</ele>
        <time>2021-02-24T13:12:25Z</time>
      </trkpt>
      <trkpt lat="44.41121" lon="5.0035">
        <ele>262.8</ele>
        <time>2021-02-24T13:12:26Z</time>
      </trkpt>
      <trkpt lat="44.41117" lon="5.00342">
        <ele>262.6</ele>
        <time>2021-02-24T13:12:27Z</time>
      </trkpt>
      <trkpt lat="44.41114" lon="5.00333">
        <ele>262.5</ele>
        <time>2021-02-24T13:12:28Z</time>
      </trkpt>
      <trkpt lat="44.4111" lon="5.00324">
        <ele>262.3</ele>
        <time>2021-02-24T13:12:29Z</time>
      </trkpt>
      <trkpt lat="44.41106" lon="5.00316">
        <ele>262.1</ele>
        <time>2021-02-24T13:12:30Z</time>
      </trkpt>
      <trkpt lat="44.41102" lon="5.00307">
        <ele>262</ele>
        <time>2021-02-24T13:12:31Z</time>
      </trkpt>
      <trkpt lat="44.41098" lon="5.00298">
        <ele>261.8</ele>
        <time>2021-02-24T13:12:32Z</time>
      </trkpt>
      <trkpt lat="44.41094" lon="5.00289">
        <ele>261.6</ele>
        <time>2021-02-24T13:12:33Z</time>
      </trkpt>
      <trkpt lat="44.41091" lon="5.0028">
        <ele>261.5</ele>
        <time>2021-02-24T13:12:34Z</time>
      </trkpt>
      <trkpt lat="44.41087" lon="5.00272">
        <ele>261.3</ele>
        <time>2021-02-24T13:12:35Z</time>
      </trkpt>
      <trkpt lat="44.41087" lon="5.00272">
        <ele>261.3</ele>
        <time>2021-02-24T13:12:36Z</time>
      </trkpt>
      <trkpt lat="44.41083" lon="5.00263">
        <ele>261.2</ele>
        <time>2021-02-24T13:12:37Z</time>
      </trkpt>
      <trkpt lat="44.41079" lon="5.00255">
        <ele>261</ele>
        <time>2021-02-24T13:12:38Z</time>
      </trkpt>
      <trkpt lat="44.41076" lon="5.00247">
        <ele>260.8</ele>
        <time>2021-02-24T13:12:39Z</time>
      </trkpt>
      <trkpt lat="44.41072" lon="5.00239">
        <ele>260.7</ele>
        <time>2021-02-24T13:12:40Z</time>
      </trkpt>
      <trkpt lat="44.41069" lon="5.0023">
        <ele>260.5</ele>
        <time>2021-02-24T13:12:41Z</time>
      </trkpt>
      <trkpt lat="44.41065" lon="5.00222">
        <ele>260.3</ele>
        <time>2021-02-24T13:12:42Z</time>
      </trkpt>
      <trkpt lat="44.41058" lon="5.00205">
        <ele>260</ele>
        <time>2021-02-24T13:12:43Z</time>
      </trkpt>
      <trkpt lat="44.41058" lon="5.00205">
        <ele>260</ele>
        <time>2021-02-24T13:12:44Z</time>
      </trkpt>
      <trkpt lat="44.41054" lon="5.00197">
        <ele>259.9</ele>
        <time>2021-02-24T13:12:45Z</time>
      </trkpt>
      <trkpt lat="44.4105" lon="5.00188">
        <ele>259.8</ele>
        <time>2021-02-24T13:12:46Z</time>
      </trkpt>
      <trkpt lat="44.41047" lon="5.0018">
        <ele>259.7</ele>
        <time>2021-02-24T13:12:47Z</time>
      </trkpt>
      <trkpt lat="44.41043" lon="5.00171">
        <ele>259.6</ele>
        <time>2021-02-24T13:12:48Z</time>
      </trkpt>
      <trkpt lat="44.41039" lon="5.00163">
        <ele>259.5</ele>
        <time>2021-02-24T13:12:49Z</time>
      </trkpt>
      <trkpt lat="44.41036" lon="5.00155">
        <ele>259.4</ele>
        <time>2021-02-24T13:12:50Z</time>
      </trkpt>
      <trkpt lat="44.41029" lon="5.00138">
        <ele>259.2</ele>
        <time>2021-02-24T13:12:51Z</time>
      </trkpt>
      <trkpt lat="44.41025" lon="5.0013">
        <ele>259.2</ele>
        <time>2021-02-24T13:12:52Z</time>
      </trkpt>
      <trkpt lat="44.41022" lon="5.00122">
        <ele>259.1</ele>
        <time>2021-02-24T13:12:53Z</time>
      </trkpt>
      <trkpt lat="44.41019" lon="5.00115">
        <ele>259.1</ele>
        <time>2021-02-24T13:12:54Z</time>
      </trkpt>
      <trkpt lat="44.41015" lon="5.00107">
        <ele>259</ele>
        <time>2021-02-24T13:12:55Z</time>
      </trkpt>
      <trkpt lat="44.41012" lon="5.001">
        <ele>259</ele>
        <time>2021-02-24T13:12:56Z</time>
      </trkpt>
      <trkpt lat="44.41009" lon="5.00093">
        <ele>258.9</ele>
        <time>2021-02-24T13:12:57Z</time>
      </trkpt>
      <trkpt lat="44.41009" lon="5.00093">
        <ele>258.9</ele>
        <time>2021-02-24T13:12:58Z</time>
      </trkpt>
      <trkpt lat="44.41006" lon="5.00085">
        <ele>258.9</ele>
        <time>2021-02-24T13:12:59Z</time>
      </trkpt>
      <trkpt lat="44.41003" lon="5.00078">
        <ele>258.9</ele>
        <time>2021-02-24T13:13:00Z</time>
      </trkpt>
      <trkpt lat="44.40999" lon="5.0007">
        <ele>258.9</ele>
        <time>2021-02-24T13:13:01Z</time>
      </trkpt>
      <trkpt lat="44.40993" lon="5.00055">
        <ele>258.8</ele>
        <time>2021-02-24T13:13:02Z</time>
      </trkpt>
      <trkpt lat="44.4099" lon="5.00048">
        <ele>258.8</ele>
        <time>2021-02-24T13:13:03Z</time>
      </trkpt>
      <trkpt lat="44.40986" lon="5.0004">
        <ele>258.8</ele>
        <time>2021-02-24T13:13:04Z</time>
      </trkpt>
      <trkpt lat="44.40983" lon="5.00033">
        <ele>258.7</ele>
        <time>2021-02-24T13:13:05Z</time>
      </trkpt>
      <trkpt lat="44.40983" lon="5.00033">
        <ele>258.7</ele>
        <time>2021-02-24T13:13:06Z</time>
      </trkpt>
      <trkpt lat="44.4098" lon="5.00026">
        <ele>258.7</ele>
        <time>2021-02-24T13:13:07Z</time>
      </trkpt>
      <trkpt lat="44.40977" lon="5.00018">
        <ele>258.7</ele>
        <time>2021-02-24T13:13:08Z</time>
      </trkpt>
      <trkpt lat="44.40974" lon="5.00011">
        <ele>258.7</ele>
        <time>2021-02-24T13:13:09Z</time>
      </trkpt>
      <trkpt lat="44.40971" lon="5.00004">
        <ele>258.7</ele>
        <time>2021-02-24T13:13:10Z</time>
      </trkpt>
      <trkpt lat="44.40968" lon="4.99996">
        <ele>258.6</ele>
        <time>2021-02-24T13:13:11Z</time>
      </trkpt>
      <trkpt lat="44.40965" lon="4.99989">
        <ele>258.6</ele>
        <time>2021-02-24T13:13:12Z</time>
      </trkpt>
      <trkpt lat="44.40961" lon="4.99981">
        <ele>258.6</ele>
        <time>2021-02-24T13:13:13Z</time>
      </trkpt>
      <trkpt lat="44.40955" lon="4.99966">
        <ele>258.6</ele>
        <time>2021-02-24T13:13:14Z</time>
      </trkpt>
      <trkpt lat="44.40952" lon="4.99958">
        <ele>258.6</ele>
        <time>2021-02-24T13:13:15Z</time>
      </trkpt>
      <trkpt lat="44.40949" lon="4.99951">
        <ele>258.6</ele>
        <time>2021-02-24T13:13:16Z</time>
      </trkpt>
      <trkpt lat="44.40945" lon="4.99943">
        <ele>258.6</ele>
        <time>2021-02-24T13:13:17Z</time>
      </trkpt>
      <trkpt lat="44.40942" lon="4.99936">
        <ele>258.6</ele>
        <time>2021-02-24T13:13:18Z</time>
      </trkpt>
      <trkpt lat="44.40939" lon="4.99928">
        <ele>258.6</ele>
        <time>2021-02-24T13:13:19Z</time>
      </trkpt>
      <trkpt lat="44.40936" lon="4.9992">
        <ele>258.5</ele>
        <time>2021-02-24T13:13:20Z</time>
      </trkpt>
      <trkpt lat="44.40932" lon="4.99912">
        <ele>258.5</ele>
        <time>2021-02-24T13:13:21Z</time>
      </trkpt>
      <trkpt lat="44.40932" lon="4.99912">
        <ele>258.5</ele>
        <time>2021-02-24T13:13:22Z</time>
      </trkpt>
      <trkpt lat="44.40929" lon="4.99904">
        <ele>258.5</ele>
        <time>2021-02-24T13:13:23Z</time>
      </trkpt>
      <trkpt lat="44.40925" lon="4.99896">
        <ele>258.4</ele>
        <time>2021-02-24T13:13:24Z</time>
      </trkpt>
      <trkpt lat="44.40922" lon="4.99888">
        <ele>258.4</ele>
        <time>2021-02-24T13:13:25Z</time>
      </trkpt>
      <trkpt lat="44.40918" lon="4.9988">
        <ele>258.3</ele>
        <time>2021-02-24T13:13:26Z</time>
      </trkpt>
      <trkpt lat="44.40915" lon="4.99872">
        <ele>258.2</ele>
        <time>2021-02-24T13:13:27Z</time>
      </trkpt>
      <trkpt lat="44.40911" lon="4.99864">
        <ele>258.2</ele>
        <time>2021-02-24T13:13:28Z</time>
      </trkpt>
      <trkpt lat="44.40907" lon="4.99855">
        <ele>258.1</ele>
        <time>2021-02-24T13:13:29Z</time>
      </trkpt>
      <trkpt lat="44.409" lon="4.99839">
        <ele>258</ele>
        <time>2021-02-24T13:13:30Z</time>
      </trkpt>
      <trkpt lat="44.40897" lon="4.99831">
        <ele>257.9</ele>
        <time>2021-02-24T13:13:31Z</time>
      </trkpt>
      <trkpt lat="44.40894" lon="4.99823">
        <ele>257.8</ele>
        <time>2021-02-24T13:13:32Z</time>
      </trkpt>
      <trkpt lat="44.4089" lon="4.99815">
        <ele>257.8</ele>
        <time>2021-02-24T13:13:33Z</time>
      </trkpt>
      <trkpt lat="44.40887" lon="4.99806">
        <ele>257.7</ele>
        <time>2021-02-24T13:13:34Z</time>
      </trkpt>
      <trkpt lat="44.40883" lon="4.99798">
        <ele>257.6</ele>
        <time>2021-02-24T13:13:35Z</time>
      </trkpt>
      <trkpt lat="44.4088" lon="4.9979">
        <ele>257.5</ele>
        <time>2021-02-24T13:13:36Z</time>
      </trkpt>
      <trkpt lat="44.4088" lon="4.9979">
        <ele>257.5</ele>
        <time>2021-02-24T13:13:37Z</time>
      </trkpt>
      <trkpt lat="44.40876" lon="4.99782">
        <ele>257.4</ele>
        <time>2021-02-24T13:13:38Z</time>
      </trkpt>
      <trkpt lat="44.40872" lon="4.99773">
        <ele>257.3</ele>
        <time>2021-02-24T13:13:39Z</time>
      </trkpt>
      <trkpt lat="44.40865" lon="4.99757">
        <ele>257.1</ele>
        <time>2021-02-24T13:13:40Z</time>
      </trkpt>
      <trkpt lat="44.40862" lon="4.99749">
        <ele>257</ele>
        <time>2021-02-24T13:13:41Z</time>
      </trkpt>
      <trkpt lat="44.40858" lon="4.99741">
        <ele>256.9</ele>
        <time>2021-02-24T13:13:42Z</time>
      </trkpt>
      <trkpt lat="44.40854" lon="4.99732">
        <ele>256.7</ele>
        <time>2021-02-24T13:13:43Z</time>
      </trkpt>
      <trkpt lat="44.40851" lon="4.99724">
        <ele>256.6</ele>
        <time>2021-02-24T13:13:44Z</time>
      </trkpt>
      <trkpt lat="44.40847" lon="4.99716">
        <ele>256.5</ele>
        <time>2021-02-24T13:13:45Z</time>
      </trkpt>
      <trkpt lat="44.40844" lon="4.99708">
        <ele>256.4</ele>
        <time>2021-02-24T13:13:46Z</time>
      </trkpt>
      <trkpt lat="44.4084" lon="4.997">
        <ele>256.3</ele>
        <time>2021-02-24T13:13:47Z</time>
      </trkpt>
      <trkpt lat="44.40837" lon="4.99692">
        <ele>256.2</ele>
        <time>2021-02-24T13:13:48Z</time>
      </trkpt>
      <trkpt lat="44.40833" lon="4.99684">
        <ele>256.1</ele>
        <time>2021-02-24T13:13:49Z</time>
      </trkpt>
      <trkpt lat="44.4083" lon="4.99676">
        <ele>256</ele>
        <time>2021-02-24T13:13:50Z</time>
      </trkpt>
      <trkpt lat="44.40826" lon="4.99668">
        <ele>255.9</ele>
        <time>2021-02-24T13:13:51Z</time>
      </trkpt>
      <trkpt lat="44.40826" lon="4.99668">
        <ele>255.9</ele>
        <time>2021-02-24T13:13:52Z</time>
      </trkpt>
      <trkpt lat="44.40823" lon="4.9966">
        <ele>255.8</ele>
        <time>2021-02-24T13:13:53Z</time>
      </trkpt>
      <trkpt lat="44.4082" lon="4.99652">
        <ele>255.7</ele>
        <time>2021-02-24T13:13:54Z</time>
      </trkpt>
      <trkpt lat="44.40816" lon="4.99644">
        <ele>255.6</ele>
        <time>2021-02-24T13:13:55Z</time>
      </trkpt>
      <trkpt lat="44.40813" lon="4.99636">
        <ele>255.4</ele>
        <time>2021-02-24T13:13:56Z</time>
      </trkpt>
      <trkpt lat="44.40809" lon="4.99628">
        <ele>255.3</ele>
        <time>2021-02-24T13:13:57Z</time>
      </trkpt>
      <trkpt lat="44.40806" lon="4.9962">
        <ele>255.2</ele>
        <time>2021-02-24T13:13:58Z</time>
      </trkpt>
      <trkpt lat="44.40802" lon="4.99612">
        <ele>255</ele>
        <time>2021-02-24T13:13:59Z</time>
      </trkpt>
      <trkpt lat="44.40799" lon="4.99604">
        <ele>254.9</ele>
        <time>2021-02-24T13:14:00Z</time>
      </trkpt>
      <trkpt lat="44.40795" lon="4.99595">
        <ele>254.7</ele>
        <time>2021-02-24T13:14:01Z</time>
      </trkpt>
      <trkpt lat="44.40791" lon="4.99587">
        <ele>254.6</ele>
        <time>2021-02-24T13:14:02Z</time>
      </trkpt>
      <trkpt lat="44.40788" lon="4.99579">
        <ele>254.4</ele>
        <time>2021-02-24T13:14:03Z</time>
      </trkpt>
      <trkpt lat="44.40784" lon="4.99571">
        <ele>254.3</ele>
        <time>2021-02-24T13:14:04Z</time>
      </trkpt>
      <trkpt lat="44.40781" lon="4.99562">
        <ele>254.1</ele>
        <time>2021-02-24T13:14:05Z</time>
      </trkpt>
      <trkpt lat="44.40773" lon="4.99545">
        <ele>253.8</ele>
        <time>2021-02-24T13:14:06Z</time>
      </trkpt>
      <trkpt lat="44.4077" lon="4.99536">
        <ele>253.7</ele>
        <time>2021-02-24T13:14:07Z</time>
      </trkpt>
      <trkpt lat="44.40766" lon="4.99528">
        <ele>253.5</ele>
        <time>2021-02-24T13:14:08Z</time>
      </trkpt>
      <trkpt lat="44.40762" lon="4.99519">
        <ele>253.3</ele>
        <time>2021-02-24T13:14:09Z</time>
      </trkpt>
      <trkpt lat="44.40759" lon="4.99511">
        <ele>253.1</ele>
        <time>2021-02-24T13:14:10Z</time>
      </trkpt>
      <trkpt lat="44.40755" lon="4.99502">
        <ele>253</ele>
        <time>2021-02-24T13:14:11Z</time>
      </trkpt>
      <trkpt lat="44.40752" lon="4.99494">
        <ele>252.8</ele>
        <time>2021-02-24T13:14:12Z</time>
      </trkpt>
      <trkpt lat="44.40748" lon="4.99485">
        <ele>252.6</ele>
        <time>2021-02-24T13:14:13Z</time>
      </trkpt>
      <trkpt lat="44.40745" lon="4.99477">
        <ele>252.3</ele>
        <time>2021-02-24T13:14:14Z</time>
      </trkpt>
      <trkpt lat="44.40741" lon="4.99468">
        <ele>252.1</ele>
        <time>2021-02-24T13:14:15Z</time>
      </trkpt>
      <trkpt lat="44.40737" lon="4.99459">
        <ele>251.8</ele>
        <time>2021-02-24T13:14:16Z</time>
      </trkpt>
      <trkpt lat="44.40733" lon="4.99451">
        <ele>251.6</ele>
        <time>2021-02-24T13:14:17Z</time>
      </trkpt>
      <trkpt lat="44.40729" lon="4.99442">
        <ele>251.3</ele>
        <time>2021-02-24T13:14:18Z</time>
      </trkpt>
      <trkpt lat="44.40725" lon="4.99433">
        <ele>251.1</ele>
        <time>2021-02-24T13:14:19Z</time>
      </trkpt>
      <trkpt lat="44.40725" lon="4.99433">
        <ele>251.1</ele>
        <time>2021-02-24T13:14:20Z</time>
      </trkpt>
      <trkpt lat="44.40721" lon="4.99424">
        <ele>250.8</ele>
        <time>2021-02-24T13:14:21Z</time>
      </trkpt>
      <trkpt lat="44.40717" lon="4.99414">
        <ele>250.6</ele>
        <time>2021-02-24T13:14:22Z</time>
      </trkpt>
      <trkpt lat="44.40713" lon="4.99405">
        <ele>250.3</ele>
        <time>2021-02-24T13:14:23Z</time>
      </trkpt>
      <trkpt lat="44.40708" lon="4.99396">
        <ele>250.1</ele>
        <time>2021-02-24T13:14:24Z</time>
      </trkpt>
      <trkpt lat="44.40703" lon="4.99388">
        <ele>249.9</ele>
        <time>2021-02-24T13:14:25Z</time>
      </trkpt>
      <trkpt lat="44.40698" lon="4.99379">
        <ele>249.6</ele>
        <time>2021-02-24T13:14:26Z</time>
      </trkpt>
      <trkpt lat="44.40693" lon="4.99371">
        <ele>249.4</ele>
        <time>2021-02-24T13:14:27Z</time>
      </trkpt>
      <trkpt lat="44.40688" lon="4.99363">
        <ele>249.2</ele>
        <time>2021-02-24T13:14:28Z</time>
      </trkpt>
      <trkpt lat="44.40683" lon="4.99355">
        <ele>248.9</ele>
        <time>2021-02-24T13:14:29Z</time>
      </trkpt>
      <trkpt lat="44.40678" lon="4.99347">
        <ele>248.7</ele>
        <time>2021-02-24T13:14:30Z</time>
      </trkpt>
      <trkpt lat="44.40673" lon="4.99339">
        <ele>248.4</ele>
        <time>2021-02-24T13:14:31Z</time>
      </trkpt>
      <trkpt lat="44.40667" lon="4.99331">
        <ele>248.2</ele>
        <time>2021-02-24T13:14:32Z</time>
      </trkpt>
      <trkpt lat="44.40657" lon="4.99316">
        <ele>247.7</ele>
        <time>2021-02-24T13:14:33Z</time>
      </trkpt>
      <trkpt lat="44.40652" lon="4.99308">
        <ele>247.5</ele>
        <time>2021-02-24T13:14:34Z</time>
      </trkpt>
      <trkpt lat="44.40647" lon="4.993">
        <ele>247.2</ele>
        <time>2021-02-24T13:14:35Z</time>
      </trkpt>
      <trkpt lat="44.40641" lon="4.99292">
        <ele>247</ele>
        <time>2021-02-24T13:14:36Z</time>
      </trkpt>
      <trkpt lat="44.40636" lon="4.99284">
        <ele>246.8</ele>
        <time>2021-02-24T13:14:37Z</time>
      </trkpt>
      <trkpt lat="44.40636" lon="4.99284">
        <ele>246.8</ele>
        <time>2021-02-24T13:14:38Z</time>
      </trkpt>
      <trkpt lat="44.40631" lon="4.99276">
        <ele>246.6</ele>
        <time>2021-02-24T13:14:39Z</time>
      </trkpt>
      <trkpt lat="44.40621" lon="4.9926">
        <ele>246.1</ele>
        <time>2021-02-24T13:14:40Z</time>
      </trkpt>
      <trkpt lat="44.40616" lon="4.99253">
        <ele>245.9</ele>
        <time>2021-02-24T13:14:41Z</time>
      </trkpt>
      <trkpt lat="44.40611" lon="4.99245">
        <ele>245.7</ele>
        <time>2021-02-24T13:14:42Z</time>
      </trkpt>
      <trkpt lat="44.40606" lon="4.99237">
        <ele>245.5</ele>
        <time>2021-02-24T13:14:43Z</time>
      </trkpt>
      <trkpt lat="44.40601" lon="4.9923">
        <ele>245.3</ele>
        <time>2021-02-24T13:14:44Z</time>
      </trkpt>
      <trkpt lat="44.40596" lon="4.99222">
        <ele>245.2</ele>
        <time>2021-02-24T13:14:45Z</time>
      </trkpt>
      <trkpt lat="44.40596" lon="4.99222">
        <ele>245.2</ele>
        <time>2021-02-24T13:14:46Z</time>
      </trkpt>
      <trkpt lat="44.40592" lon="4.99215">
        <ele>245</ele>
        <time>2021-02-24T13:14:47Z</time>
      </trkpt>
      <trkpt lat="44.40587" lon="4.99207">
        <ele>244.8</ele>
        <time>2021-02-24T13:14:48Z</time>
      </trkpt>
      <trkpt lat="44.40582" lon="4.992">
        <ele>244.7</ele>
        <time>2021-02-24T13:14:49Z</time>
      </trkpt>
      <trkpt lat="44.40578" lon="4.99192">
        <ele>244.5</ele>
        <time>2021-02-24T13:14:50Z</time>
      </trkpt>
      <trkpt lat="44.40573" lon="4.99184">
        <ele>244.3</ele>
        <time>2021-02-24T13:14:51Z</time>
      </trkpt>
      <trkpt lat="44.40568" lon="4.99176">
        <ele>244.1</ele>
        <time>2021-02-24T13:14:52Z</time>
      </trkpt>
      <trkpt lat="44.40558" lon="4.9916">
        <ele>243.8</ele>
        <time>2021-02-24T13:14:53Z</time>
      </trkpt>
      <trkpt lat="44.40553" lon="4.99152">
        <ele>243.7</ele>
        <time>2021-02-24T13:14:54Z</time>
      </trkpt>
      <trkpt lat="44.40548" lon="4.99145">
        <ele>243.5</ele>
        <time>2021-02-24T13:14:55Z</time>
      </trkpt>
      <trkpt lat="44.40543" lon="4.99137">
        <ele>243.4</ele>
        <time>2021-02-24T13:14:56Z</time>
      </trkpt>
      <trkpt lat="44.40538" lon="4.99129">
        <ele>243.3</ele>
        <time>2021-02-24T13:14:57Z</time>
      </trkpt>
      <trkpt lat="44.40538" lon="4.99129">
        <ele>243.3</ele>
        <time>2021-02-24T13:14:58Z</time>
      </trkpt>
      <trkpt lat="44.40532" lon="4.99121">
        <ele>243.1</ele>
        <time>2021-02-24T13:14:59Z</time>
      </trkpt>
      <trkpt lat="44.40522" lon="4.99106">
        <ele>242.9</ele>
        <time>2021-02-24T13:15:00Z</time>
      </trkpt>
      <trkpt lat="44.40517" lon="4.99098">
        <ele>242.8</ele>
        <time>2021-02-24T13:15:01Z</time>
      </trkpt>
      <trkpt lat="44.40512" lon="4.99091">
        <ele>242.7</ele>
        <time>2021-02-24T13:15:02Z</time>
      </trkpt>
      <trkpt lat="44.40507" lon="4.99083">
        <ele>242.6</ele>
        <time>2021-02-24T13:15:03Z</time>
      </trkpt>
      <trkpt lat="44.40502" lon="4.99076">
        <ele>242.5</ele>
        <time>2021-02-24T13:15:04Z</time>
      </trkpt>
      <trkpt lat="44.40497" lon="4.99069">
        <ele>242.4</ele>
        <time>2021-02-24T13:15:05Z</time>
      </trkpt>
      <trkpt lat="44.40492" lon="4.99061">
        <ele>242.3</ele>
        <time>2021-02-24T13:15:06Z</time>
      </trkpt>
      <trkpt lat="44.40492" lon="4.99061">
        <ele>242.3</ele>
        <time>2021-02-24T13:15:07Z</time>
      </trkpt>
      <trkpt lat="44.40487" lon="4.99054">
        <ele>242.2</ele>
        <time>2021-02-24T13:15:08Z</time>
      </trkpt>
      <trkpt lat="44.40482" lon="4.99047">
        <ele>242.2</ele>
        <time>2021-02-24T13:15:09Z</time>
      </trkpt>
      <trkpt lat="44.40477" lon="4.9904">
        <ele>242.1</ele>
        <time>2021-02-24T13:15:10Z</time>
      </trkpt>
      <trkpt lat="44.40471" lon="4.99033">
        <ele>242</ele>
        <time>2021-02-24T13:15:11Z</time>
      </trkpt>
      <trkpt lat="44.40466" lon="4.99026">
        <ele>241.9</ele>
        <time>2021-02-24T13:15:12Z</time>
      </trkpt>
      <trkpt lat="44.40461" lon="4.9902">
        <ele>241.8</ele>
        <time>2021-02-24T13:15:13Z</time>
      </trkpt>
      <trkpt lat="44.40452" lon="4.99006">
        <ele>241.6</ele>
        <time>2021-02-24T13:15:14Z</time>
      </trkpt>
      <trkpt lat="44.40447" lon="4.98999">
        <ele>241.5</ele>
        <time>2021-02-24T13:15:15Z</time>
      </trkpt>
      <trkpt lat="44.40442" lon="4.98992">
        <ele>241.5</ele>
        <time>2021-02-24T13:15:16Z</time>
      </trkpt>
      <trkpt lat="44.40438" lon="4.98985">
        <ele>241.4</ele>
        <time>2021-02-24T13:15:17Z</time>
      </trkpt>
      <trkpt lat="44.40433" lon="4.98978">
        <ele>241.3</ele>
        <time>2021-02-24T13:15:18Z</time>
      </trkpt>
      <trkpt lat="44.40429" lon="4.98972">
        <ele>241.3</ele>
        <time>2021-02-24T13:15:19Z</time>
      </trkpt>
      <trkpt lat="44.40424" lon="4.98965">
        <ele>241.2</ele>
        <time>2021-02-24T13:15:20Z</time>
      </trkpt>
      <trkpt lat="44.40424" lon="4.98965">
        <ele>241.2</ele>
        <time>2021-02-24T13:15:21Z</time>
      </trkpt>
      <trkpt lat="44.4042" lon="4.98959">
        <ele>241.2</ele>
        <time>2021-02-24T13:15:22Z</time>
      </trkpt>
      <trkpt lat="44.40415" lon="4.98952">
        <ele>241.1</ele>
        <time>2021-02-24T13:15:23Z</time>
      </trkpt>
      <trkpt lat="44.4041" lon="4.98945">
        <ele>241</ele>
        <time>2021-02-24T13:15:24Z</time>
      </trkpt>
      <trkpt lat="44.40406" lon="4.98938">
        <ele>241</ele>
        <time>2021-02-24T13:15:25Z</time>
      </trkpt>
      <trkpt lat="44.40401" lon="4.98931">
        <ele>240.9</ele>
        <time>2021-02-24T13:15:26Z</time>
      </trkpt>
      <trkpt lat="44.40397" lon="4.98924">
        <ele>240.8</ele>
        <time>2021-02-24T13:15:27Z</time>
      </trkpt>
      <trkpt lat="44.40392" lon="4.98917">
        <ele>240.8</ele>
        <time>2021-02-24T13:15:28Z</time>
      </trkpt>
      <trkpt lat="44.40388" lon="4.9891">
        <ele>240.7</ele>
        <time>2021-02-24T13:15:29Z</time>
      </trkpt>
      <trkpt lat="44.40383" lon="4.98904">
        <ele>240.7</ele>
        <time>2021-02-24T13:15:30Z</time>
      </trkpt>
      <trkpt lat="44.40379" lon="4.98897">
        <ele>240.6</ele>
        <time>2021-02-24T13:15:31Z</time>
      </trkpt>
      <trkpt lat="44.40375" lon="4.9889">
        <ele>240.5</ele>
        <time>2021-02-24T13:15:32Z</time>
      </trkpt>
      <trkpt lat="44.4037" lon="4.98884">
        <ele>240.5</ele>
        <time>2021-02-24T13:15:33Z</time>
      </trkpt>
      <trkpt lat="44.40362" lon="4.98871">
        <ele>240.4</ele>
        <time>2021-02-24T13:15:34Z</time>
      </trkpt>
      <trkpt lat="44.40362" lon="4.98871">
        <ele>240.4</ele>
        <time>2021-02-24T13:15:35Z</time>
      </trkpt>
      <trkpt lat="44.40354" lon="4.98859">
        <ele>240.3</ele>
        <time>2021-02-24T13:15:36Z</time>
      </trkpt>
      <trkpt lat="44.4035" lon="4.98853">
        <ele>240.2</ele>
        <time>2021-02-24T13:15:37Z</time>
      </trkpt>
      <trkpt lat="44.40346" lon="4.98846">
        <ele>240.2</ele>
        <time>2021-02-24T13:15:38Z</time>
      </trkpt>
      <trkpt lat="44.40342" lon="4.98841">
        <ele>240.2</ele>
        <time>2021-02-24T13:15:39Z</time>
      </trkpt>
      <trkpt lat="44.40338" lon="4.98835">
        <ele>240.2</ele>
        <time>2021-02-24T13:15:40Z</time>
      </trkpt>
      <trkpt lat="44.40335" lon="4.9883">
        <ele>240.1</ele>
        <time>2021-02-24T13:15:41Z</time>
      </trkpt>
      <trkpt lat="44.4033" lon="4.98825">
        <ele>240.1</ele>
        <time>2021-02-24T13:15:42Z</time>
      </trkpt>
      <trkpt lat="44.40326" lon="4.98821">
        <ele>240</ele>
        <time>2021-02-24T13:15:43Z</time>
      </trkpt>
      <trkpt lat="44.40322" lon="4.98818">
        <ele>240</ele>
        <time>2021-02-24T13:15:44Z</time>
      </trkpt>
      <trkpt lat="44.40322" lon="4.98818">
        <ele>240</ele>
        <time>2021-02-24T13:15:45Z</time>
      </trkpt>
      <trkpt lat="44.40317" lon="4.98814">
        <ele>239.9</ele>
        <time>2021-02-24T13:15:46Z</time>
      </trkpt>
      <trkpt lat="44.40312" lon="4.98811">
        <ele>239.9</ele>
        <time>2021-02-24T13:15:47Z</time>
      </trkpt>
      <trkpt lat="44.40307" lon="4.98808">
        <ele>239.8</ele>
        <time>2021-02-24T13:15:48Z</time>
      </trkpt>
      <trkpt lat="44.40298" lon="4.98802">
        <ele>239.7</ele>
        <time>2021-02-24T13:15:49Z</time>
      </trkpt>
      <trkpt lat="44.40298" lon="4.98802">
        <ele>239.7</ele>
        <time>2021-02-24T13:15:50Z</time>
      </trkpt>
      <trkpt lat="44.40294" lon="4.988">
        <ele>239.6</ele>
        <time>2021-02-24T13:15:51Z</time>
      </trkpt>
      <trkpt lat="44.4029" lon="4.98797">
        <ele>239.6</ele>
        <time>2021-02-24T13:15:52Z</time>
      </trkpt>
      <trkpt lat="44.40282" lon="4.98793">
        <ele>239.5</ele>
        <time>2021-02-24T13:15:53Z</time>
      </trkpt>
      <trkpt lat="44.40278" lon="4.9879">
        <ele>239.4</ele>
        <time>2021-02-24T13:15:54Z</time>
      </trkpt>
      <trkpt lat="44.40274" lon="4.98788">
        <ele>239.4</ele>
        <time>2021-02-24T13:15:55Z</time>
      </trkpt>
      <trkpt lat="44.40274" lon="4.98788">
        <ele>239.4</ele>
        <time>2021-02-24T13:15:56Z</time>
      </trkpt>
      <trkpt lat="44.40271" lon="4.98786">
        <ele>239.3</ele>
        <time>2021-02-24T13:15:57Z</time>
      </trkpt>
      <trkpt lat="44.40267" lon="4.98783">
        <ele>239.3</ele>
        <time>2021-02-24T13:15:58Z</time>
      </trkpt>
      <trkpt lat="44.40262" lon="4.98781">
        <ele>239.2</ele>
        <time>2021-02-24T13:15:59Z</time>
      </trkpt>
      <trkpt lat="44.40258" lon="4.98778">
        <ele>239.1</ele>
        <time>2021-02-24T13:16:00Z</time>
      </trkpt>
      <trkpt lat="44.40252" lon="4.98775">
        <ele>239</ele>
        <time>2021-02-24T13:16:01Z</time>
      </trkpt>
      <trkpt lat="44.40247" lon="4.98772">
        <ele>238.9</ele>
        <time>2021-02-24T13:16:02Z</time>
      </trkpt>
      <trkpt lat="44.40242" lon="4.98768">
        <ele>238.8</ele>
        <time>2021-02-24T13:16:03Z</time>
      </trkpt>
      <trkpt lat="44.40236" lon="4.98765">
        <ele>238.7</ele>
        <time>2021-02-24T13:16:04Z</time>
      </trkpt>
      <trkpt lat="44.40225" lon="4.98758">
        <ele>238.6</ele>
        <time>2021-02-24T13:16:05Z</time>
      </trkpt>
      <trkpt lat="44.40219" lon="4.98755">
        <ele>238.5</ele>
        <time>2021-02-24T13:16:06Z</time>
      </trkpt>
      <trkpt lat="44.40214" lon="4.98751">
        <ele>238.4</ele>
        <time>2021-02-24T13:16:07Z</time>
      </trkpt>
      <trkpt lat="44.40208" lon="4.98748">
        <ele>238.4</ele>
        <time>2021-02-24T13:16:08Z</time>
      </trkpt>
      <trkpt lat="44.40203" lon="4.98745">
        <ele>238.3</ele>
        <time>2021-02-24T13:16:09Z</time>
      </trkpt>
      <trkpt lat="44.40197" lon="4.98741">
        <ele>238.2</ele>
        <time>2021-02-24T13:16:10Z</time>
      </trkpt>
      <trkpt lat="44.40191" lon="4.98737">
        <ele>238.1</ele>
        <time>2021-02-24T13:16:11Z</time>
      </trkpt>
      <trkpt lat="44.40186" lon="4.98734">
        <ele>238</ele>
        <time>2021-02-24T13:16:12Z</time>
      </trkpt>
      <trkpt lat="44.4018" lon="4.9873">
        <ele>237.9</ele>
        <time>2021-02-24T13:16:13Z</time>
      </trkpt>
      <trkpt lat="44.4018" lon="4.9873">
        <ele>237.9</ele>
        <time>2021-02-24T13:16:14Z</time>
      </trkpt>
      <trkpt lat="44.40174" lon="4.98727">
        <ele>237.8</ele>
        <time>2021-02-24T13:16:15Z</time>
      </trkpt>
      <trkpt lat="44.40168" lon="4.98723">
        <ele>237.7</ele>
        <time>2021-02-24T13:16:16Z</time>
      </trkpt>
      <trkpt lat="44.40162" lon="4.9872">
        <ele>237.6</ele>
        <time>2021-02-24T13:16:17Z</time>
      </trkpt>
      <trkpt lat="44.40157" lon="4.98716">
        <ele>237.5</ele>
        <time>2021-02-24T13:16:18Z</time>
      </trkpt>
      <trkpt lat="44.40151" lon="4.98713">
        <ele>237.4</ele>
        <time>2021-02-24T13:16:19Z</time>
      </trkpt>
      <trkpt lat="44.40145" lon="4.98709">
        <ele>237.2</ele>
        <time>2021-02-24T13:16:20Z</time>
      </trkpt>
      <trkpt lat="44.40133" lon="4.98702">
        <ele>237</ele>
        <time>2021-02-24T13:16:21Z</time>
      </trkpt>
      <trkpt lat="44.40127" lon="4.98698">
        <ele>236.9</ele>
        <time>2021-02-24T13:16:22Z</time>
      </trkpt>
      <trkpt lat="44.40122" lon="4.98695">
        <ele>236.9</ele>
        <time>2021-02-24T13:16:23Z</time>
      </trkpt>
      <trkpt lat="44.40116" lon="4.98691">
        <ele>236.8</ele>
        <time>2021-02-24T13:16:24Z</time>
      </trkpt>
      <trkpt lat="44.4011" lon="4.98688">
        <ele>236.7</ele>
        <time>2021-02-24T13:16:25Z</time>
      </trkpt>
      <trkpt lat="44.40105" lon="4.98684">
        <ele>236.6</ele>
        <time>2021-02-24T13:16:26Z</time>
      </trkpt>
      <trkpt lat="44.40099" lon="4.98681">
        <ele>236.6</ele>
        <time>2021-02-24T13:16:27Z</time>
      </trkpt>
      <trkpt lat="44.40093" lon="4.98677">
        <ele>236.5</ele>
        <time>2021-02-24T13:16:28Z</time>
      </trkpt>
      <trkpt lat="44.40087" lon="4.98673">
        <ele>236.4</ele>
        <time>2021-02-24T13:16:29Z</time>
      </trkpt>
      <trkpt lat="44.40087" lon="4.98673">
        <ele>236.4</ele>
        <time>2021-02-24T13:16:30Z</time>
      </trkpt>
      <trkpt lat="44.40076" lon="4.98667">
        <ele>236.2</ele>
        <time>2021-02-24T13:16:31Z</time>
      </trkpt>
      <trkpt lat="44.40076" lon="4.98667">
        <ele>236.2</ele>
        <time>2021-02-24T13:16:32Z</time>
      </trkpt>
      <trkpt lat="44.4007" lon="4.98663">
        <ele>236.1</ele>
        <time>2021-02-24T13:16:33Z</time>
      </trkpt>
      <trkpt lat="44.40064" lon="4.9866">
        <ele>236</ele>
        <time>2021-02-24T13:16:34Z</time>
      </trkpt>
      <trkpt lat="44.40059" lon="4.98656">
        <ele>235.9</ele>
        <time>2021-02-24T13:16:35Z</time>
      </trkpt>
      <trkpt lat="44.40053" lon="4.98653">
        <ele>235.8</ele>
        <time>2021-02-24T13:16:36Z</time>
      </trkpt>
      <trkpt lat="44.40047" lon="4.98649">
        <ele>235.7</ele>
        <time>2021-02-24T13:16:37Z</time>
      </trkpt>
      <trkpt lat="44.40042" lon="4.98645">
        <ele>235.6</ele>
        <time>2021-02-24T13:16:38Z</time>
      </trkpt>
      <trkpt lat="44.40036" lon="4.98641">
        <ele>235.5</ele>
        <time>2021-02-24T13:16:39Z</time>
      </trkpt>
      <trkpt lat="44.4003" lon="4.98638">
        <ele>235.5</ele>
        <time>2021-02-24T13:16:40Z</time>
      </trkpt>
      <trkpt lat="44.40024" lon="4.98634">
        <ele>235.4</ele>
        <time>2021-02-24T13:16:41Z</time>
      </trkpt>
      <trkpt lat="44.40018" lon="4.9863">
        <ele>235.3</ele>
        <time>2021-02-24T13:16:42Z</time>
      </trkpt>
      <trkpt lat="44.40012" lon="4.98627">
        <ele>235.2</ele>
        <time>2021-02-24T13:16:43Z</time>
      </trkpt>
      <trkpt lat="44.40006" lon="4.98623">
        <ele>235.1</ele>
        <time>2021-02-24T13:16:44Z</time>
      </trkpt>
      <trkpt lat="44.39994" lon="4.98616">
        <ele>235</ele>
        <time>2021-02-24T13:16:45Z</time>
      </trkpt>
      <trkpt lat="44.39988" lon="4.98612">
        <ele>234.9</ele>
        <time>2021-02-24T13:16:46Z</time>
      </trkpt>
      <trkpt lat="44.39982" lon="4.98609">
        <ele>234.9</ele>
        <time>2021-02-24T13:16:47Z</time>
      </trkpt>
      <trkpt lat="44.39976" lon="4.98605">
        <ele>234.8</ele>
        <time>2021-02-24T13:16:48Z</time>
      </trkpt>
      <trkpt lat="44.3997" lon="4.98602">
        <ele>234.7</ele>
        <time>2021-02-24T13:16:49Z</time>
      </trkpt>
      <trkpt lat="44.39964" lon="4.98598">
        <ele>234.6</ele>
        <time>2021-02-24T13:16:50Z</time>
      </trkpt>
      <trkpt lat="44.39964" lon="4.98598">
        <ele>234.6</ele>
        <time>2021-02-24T13:16:51Z</time>
      </trkpt>
      <trkpt lat="44.39959" lon="4.98595">
        <ele>234.6</ele>
        <time>2021-02-24T13:16:52Z</time>
      </trkpt>
      <trkpt lat="44.39953" lon="4.98591">
        <ele>234.5</ele>
        <time>2021-02-24T13:16:53Z</time>
      </trkpt>
      <trkpt lat="44.39947" lon="4.98588">
        <ele>234.5</ele>
        <time>2021-02-24T13:16:54Z</time>
      </trkpt>
      <trkpt lat="44.39941" lon="4.98584">
        <ele>234.5</ele>
        <time>2021-02-24T13:16:55Z</time>
      </trkpt>
      <trkpt lat="44.39936" lon="4.98581">
        <ele>234.5</ele>
        <time>2021-02-24T13:16:56Z</time>
      </trkpt>
      <trkpt lat="44.3993" lon="4.98578">
        <ele>234.5</ele>
        <time>2021-02-24T13:16:57Z</time>
      </trkpt>
      <trkpt lat="44.39925" lon="4.98575">
        <ele>234.5</ele>
        <time>2021-02-24T13:16:58Z</time>
      </trkpt>
      <trkpt lat="44.3992" lon="4.98572">
        <ele>234.5</ele>
        <time>2021-02-24T13:16:59Z</time>
      </trkpt>
      <trkpt lat="44.39917" lon="4.98568">
        <ele>234.4</ele>
        <time>2021-02-24T13:17:00Z</time>
      </trkpt>
      <trkpt lat="44.39915" lon="4.98564">
        <ele>234.3</ele>
        <time>2021-02-24T13:17:01Z</time>
      </trkpt>
      <trkpt lat="44.39914" lon="4.9856">
        <ele>234.3</ele>
        <time>2021-02-24T13:17:02Z</time>
      </trkpt>
      <trkpt lat="44.39914" lon="4.98557">
        <ele>234.2</ele>
        <time>2021-02-24T13:17:03Z</time>
      </trkpt>
      <trkpt lat="44.39914" lon="4.98553">
        <ele>234.1</ele>
        <time>2021-02-24T13:17:04Z</time>
      </trkpt>
      <trkpt lat="44.39916" lon="4.9855">
        <ele>234.1</ele>
        <time>2021-02-24T13:17:05Z</time>
      </trkpt>
      <trkpt lat="44.39919" lon="4.98548">
        <ele>234.2</ele>
        <time>2021-02-24T13:17:06Z</time>
      </trkpt>
      <trkpt lat="44.39923" lon="4.98547">
        <ele>234.2</ele>
        <time>2021-02-24T13:17:07Z</time>
      </trkpt>
      <trkpt lat="44.39928" lon="4.98546">
        <ele>234.2</ele>
        <time>2021-02-24T13:17:08Z</time>
      </trkpt>
      <trkpt lat="44.39939" lon="4.98544">
        <ele>234.2</ele>
        <time>2021-02-24T13:17:09Z</time>
      </trkpt>
      <trkpt lat="44.39945" lon="4.98542">
        <ele>234.2</ele>
        <time>2021-02-24T13:17:10Z</time>
      </trkpt>
      <trkpt lat="44.39951" lon="4.98541">
        <ele>234.3</ele>
        <time>2021-02-24T13:17:11Z</time>
      </trkpt>
      <trkpt lat="44.39957" lon="4.98539">
        <ele>234.3</ele>
        <time>2021-02-24T13:17:12Z</time>
      </trkpt>
      <trkpt lat="44.39963" lon="4.98538">
        <ele>234.3</ele>
        <time>2021-02-24T13:17:13Z</time>
      </trkpt>
      <trkpt lat="44.39963" lon="4.98538">
        <ele>234.3</ele>
        <time>2021-02-24T13:17:14Z</time>
      </trkpt>
      <trkpt lat="44.39968" lon="4.98536">
        <ele>234.4</ele>
        <time>2021-02-24T13:17:15Z</time>
      </trkpt>
      <trkpt lat="44.39974" lon="4.98535">
        <ele>234.4</ele>
        <time>2021-02-24T13:17:16Z</time>
      </trkpt>
      <trkpt lat="44.39979" lon="4.98533">
        <ele>234.4</ele>
        <time>2021-02-24T13:17:17Z</time>
      </trkpt>
      <trkpt lat="44.39985" lon="4.98532">
        <ele>234.5</ele>
        <time>2021-02-24T13:17:18Z</time>
      </trkpt>
      <trkpt lat="44.39991" lon="4.9853">
        <ele>234.5</ele>
        <time>2021-02-24T13:17:19Z</time>
      </trkpt>
      <trkpt lat="44.39996" lon="4.98529">
        <ele>234.5</ele>
        <time>2021-02-24T13:17:20Z</time>
      </trkpt>
      <trkpt lat="44.40001" lon="4.98527">
        <ele>234.6</ele>
        <time>2021-02-24T13:17:21Z</time>
      </trkpt>
      <trkpt lat="44.40012" lon="4.98525">
        <ele>234.7</ele>
        <time>2021-02-24T13:17:22Z</time>
      </trkpt>
      <trkpt lat="44.40017" lon="4.98523">
        <ele>234.8</ele>
        <time>2021-02-24T13:17:23Z</time>
      </trkpt>
      <trkpt lat="44.40022" lon="4.98519">
        <ele>234.8</ele>
        <time>2021-02-24T13:17:24Z</time>
      </trkpt>
      <trkpt lat="44.40025" lon="4.98514">
        <ele>234.8</ele>
        <time>2021-02-24T13:17:25Z</time>
      </trkpt>
      <trkpt lat="44.40026" lon="4.98507">
        <ele>234.7</ele>
        <time>2021-02-24T13:17:26Z</time>
      </trkpt>
      <trkpt lat="44.40026" lon="4.98499">
        <ele>234.7</ele>
        <time>2021-02-24T13:17:27Z</time>
      </trkpt>
      <trkpt lat="44.40026" lon="4.98491">
        <ele>234.6</ele>
        <time>2021-02-24T13:17:28Z</time>
      </trkpt>
      <trkpt lat="44.40025" lon="4.98483">
        <ele>234.6</ele>
        <time>2021-02-24T13:17:29Z</time>
      </trkpt>
      <trkpt lat="44.40024" lon="4.98475">
        <ele>234.6</ele>
        <time>2021-02-24T13:17:30Z</time>
      </trkpt>
      <trkpt lat="44.40024" lon="4.98467">
        <ele>234.6</ele>
        <time>2021-02-24T13:17:31Z</time>
      </trkpt>
      <trkpt lat="44.40024" lon="4.98467">
        <ele>234.6</ele>
        <time>2021-02-24T13:17:32Z</time>
      </trkpt>
      <trkpt lat="44.40024" lon="4.98459">
        <ele>234.6</ele>
        <time>2021-02-24T13:17:33Z</time>
      </trkpt>
      <trkpt lat="44.40025" lon="4.98451">
        <ele>234.5</ele>
        <time>2021-02-24T13:17:34Z</time>
      </trkpt>
      <trkpt lat="44.40027" lon="4.98443">
        <ele>234.5</ele>
        <time>2021-02-24T13:17:35Z</time>
      </trkpt>
      <trkpt lat="44.4003" lon="4.98436">
        <ele>234.5</ele>
        <time>2021-02-24T13:17:36Z</time>
      </trkpt>
      <trkpt lat="44.40034" lon="4.98429">
        <ele>234.5</ele>
        <time>2021-02-24T13:17:37Z</time>
      </trkpt>
      <trkpt lat="44.40038" lon="4.98423">
        <ele>234.4</ele>
        <time>2021-02-24T13:17:38Z</time>
      </trkpt>
      <trkpt lat="44.40042" lon="4.98417">
        <ele>234.4</ele>
        <time>2021-02-24T13:17:39Z</time>
      </trkpt>
      <trkpt lat="44.4005" lon="4.98405">
        <ele>234.3</ele>
        <time>2021-02-24T13:17:40Z</time>
      </trkpt>
      <trkpt lat="44.40054" lon="4.98401">
        <ele>234.2</ele>
        <time>2021-02-24T13:17:41Z</time>
      </trkpt>
      <trkpt lat="44.40059" lon="4.98395">
        <ele>234.1</ele>
        <time>2021-02-24T13:17:42Z</time>
      </trkpt>
      <trkpt lat="44.40062" lon="4.98391">
        <ele>234</ele>
        <time>2021-02-24T13:17:43Z</time>
      </trkpt>
      <trkpt lat="44.40066" lon="4.98386">
        <ele>233.9</ele>
        <time>2021-02-24T13:17:44Z</time>
      </trkpt>
      <trkpt lat="44.40068" lon="4.98382">
        <ele>233.9</ele>
        <time>2021-02-24T13:17:45Z</time>
      </trkpt>
      <trkpt lat="44.40069" lon="4.98379">
        <ele>233.9</ele>
        <time>2021-02-24T13:17:46Z</time>
      </trkpt>
      <trkpt lat="44.4007" lon="4.98376">
        <ele>233.8</ele>
        <time>2021-02-24T13:17:47Z</time>
      </trkpt>
      <trkpt lat="44.4007" lon="4.98372">
        <ele>233.8</ele>
        <time>2021-02-24T13:17:48Z</time>
      </trkpt>
      <trkpt lat="44.4007" lon="4.98367">
        <ele>233.7</ele>
        <time>2021-02-24T13:17:49Z</time>
      </trkpt>
      <trkpt lat="44.40069" lon="4.98362">
        <ele>233.7</ele>
        <time>2021-02-24T13:17:50Z</time>
      </trkpt>
      <trkpt lat="44.40067" lon="4.98357">
        <ele>233.6</ele>
        <time>2021-02-24T13:17:51Z</time>
      </trkpt>
      <trkpt lat="44.40064" lon="4.98352">
        <ele>233.6</ele>
        <time>2021-02-24T13:17:52Z</time>
      </trkpt>
      <trkpt lat="44.40061" lon="4.98347">
        <ele>233.5</ele>
        <time>2021-02-24T13:17:53Z</time>
      </trkpt>
      <trkpt lat="44.40058" lon="4.98342">
        <ele>233.4</ele>
        <time>2021-02-24T13:17:54Z</time>
      </trkpt>
      <trkpt lat="44.40054" lon="4.98337">
        <ele>233.4</ele>
        <time>2021-02-24T13:17:55Z</time>
      </trkpt>
      <trkpt lat="44.40051" lon="4.98332">
        <ele>233.3</ele>
        <time>2021-02-24T13:17:56Z</time>
      </trkpt>
      <trkpt lat="44.40048" lon="4.98327">
        <ele>233.2</ele>
        <time>2021-02-24T13:17:57Z</time>
      </trkpt>
      <trkpt lat="44.40045" lon="4.98322">
        <ele>233.2</ele>
        <time>2021-02-24T13:17:58Z</time>
      </trkpt>
      <trkpt lat="44.40041" lon="4.98316">
        <ele>233.1</ele>
        <time>2021-02-24T13:17:59Z</time>
      </trkpt>
      <trkpt lat="44.40038" lon="4.98311">
        <ele>233</ele>
        <time>2021-02-24T13:18:00Z</time>
      </trkpt>
      <trkpt lat="44.40034" lon="4.98305">
        <ele>232.9</ele>
        <time>2021-02-24T13:18:01Z</time>
      </trkpt>
      <trkpt lat="44.40031" lon="4.98299">
        <ele>232.8</ele>
        <time>2021-02-24T13:18:02Z</time>
      </trkpt>
      <trkpt lat="44.40028" lon="4.98294">
        <ele>232.7</ele>
        <time>2021-02-24T13:18:03Z</time>
      </trkpt>
      <trkpt lat="44.40024" lon="4.98288">
        <ele>232.7</ele>
        <time>2021-02-24T13:18:04Z</time>
      </trkpt>
      <trkpt lat="44.4002" lon="4.98284">
        <ele>232.6</ele>
        <time>2021-02-24T13:18:05Z</time>
      </trkpt>
      <trkpt lat="44.40017" lon="4.98279">
        <ele>232.5</ele>
        <time>2021-02-24T13:18:06Z</time>
      </trkpt>
      <trkpt lat="44.40017" lon="4.98279">
        <ele>232.5</ele>
        <time>2021-02-24T13:18:07Z</time>
      </trkpt>
      <trkpt lat="44.40013" lon="4.98274">
        <ele>232.5</ele>
        <time>2021-02-24T13:18:08Z</time>
      </trkpt>
      <trkpt lat="44.40009" lon="4.98268">
        <ele>232.4</ele>
        <time>2021-02-24T13:18:09Z</time>
      </trkpt>
      <trkpt lat="44.40006" lon="4.98263">
        <ele>232.3</ele>
        <time>2021-02-24T13:18:10Z</time>
      </trkpt>
      <trkpt lat="44.40001" lon="4.98257">
        <ele>232.3</ele>
        <time>2021-02-24T13:18:11Z</time>
      </trkpt>
      <trkpt lat="44.39992" lon="4.98245">
        <ele>232.1</ele>
        <time>2021-02-24T13:18:12Z</time>
      </trkpt>
      <trkpt lat="44.39987" lon="4.98238">
        <ele>232</ele>
        <time>2021-02-24T13:18:13Z</time>
      </trkpt>
      <trkpt lat="44.39982" lon="4.98232">
        <ele>231.9</ele>
        <time>2021-02-24T13:18:14Z</time>
      </trkpt>
      <trkpt lat="44.39978" lon="4.98226">
        <ele>231.8</ele>
        <time>2021-02-24T13:18:15Z</time>
      </trkpt>
      <trkpt lat="44.39973" lon="4.9822">
        <ele>231.7</ele>
        <time>2021-02-24T13:18:16Z</time>
      </trkpt>
      <trkpt lat="44.39968" lon="4.98214">
        <ele>231.7</ele>
        <time>2021-02-24T13:18:17Z</time>
      </trkpt>
      <trkpt lat="44.39963" lon="4.98208">
        <ele>231.6</ele>
        <time>2021-02-24T13:18:18Z</time>
      </trkpt>
      <trkpt lat="44.39958" lon="4.98202">
        <ele>231.5</ele>
        <time>2021-02-24T13:18:19Z</time>
      </trkpt>
      <trkpt lat="44.39954" lon="4.98196">
        <ele>231.4</ele>
        <time>2021-02-24T13:18:20Z</time>
      </trkpt>
      <trkpt lat="44.39949" lon="4.9819">
        <ele>231.3</ele>
        <time>2021-02-24T13:18:21Z</time>
      </trkpt>
      <trkpt lat="44.39944" lon="4.98184">
        <ele>231.2</ele>
        <time>2021-02-24T13:18:22Z</time>
      </trkpt>
      <trkpt lat="44.3994" lon="4.98178">
        <ele>231.1</ele>
        <time>2021-02-24T13:18:23Z</time>
      </trkpt>
      <trkpt lat="44.39935" lon="4.98173">
        <ele>231</ele>
        <time>2021-02-24T13:18:24Z</time>
      </trkpt>
      <trkpt lat="44.3993" lon="4.98167">
        <ele>230.9</ele>
        <time>2021-02-24T13:18:25Z</time>
      </trkpt>
      <trkpt lat="44.3993" lon="4.98167">
        <ele>230.9</ele>
        <time>2021-02-24T13:18:26Z</time>
      </trkpt>
      <trkpt lat="44.3992" lon="4.98155">
        <ele>230.7</ele>
        <time>2021-02-24T13:18:27Z</time>
      </trkpt>
      <trkpt lat="44.39915" lon="4.98149">
        <ele>230.5</ele>
        <time>2021-02-24T13:18:28Z</time>
      </trkpt>
      <trkpt lat="44.3991" lon="4.98143">
        <ele>230.4</ele>
        <time>2021-02-24T13:18:29Z</time>
      </trkpt>
      <trkpt lat="44.39905" lon="4.98136">
        <ele>230.3</ele>
        <time>2021-02-24T13:18:30Z</time>
      </trkpt>
      <trkpt lat="44.399" lon="4.9813">
        <ele>230.1</ele>
        <time>2021-02-24T13:18:31Z</time>
      </trkpt>
      <trkpt lat="44.39895" lon="4.98124">
        <ele>230</ele>
        <time>2021-02-24T13:18:32Z</time>
      </trkpt>
      <trkpt lat="44.3989" lon="4.98117">
        <ele>229.9</ele>
        <time>2021-02-24T13:18:33Z</time>
      </trkpt>
      <trkpt lat="44.39885" lon="4.98111">
        <ele>229.8</ele>
        <time>2021-02-24T13:18:34Z</time>
      </trkpt>
      <trkpt lat="44.3988" lon="4.98105">
        <ele>229.7</ele>
        <time>2021-02-24T13:18:35Z</time>
      </trkpt>
      <trkpt lat="44.39875" lon="4.98099">
        <ele>229.6</ele>
        <time>2021-02-24T13:18:36Z</time>
      </trkpt>
      <trkpt lat="44.3987" lon="4.98092">
        <ele>229.5</ele>
        <time>2021-02-24T13:18:37Z</time>
      </trkpt>
      <trkpt lat="44.39865" lon="4.98086">
        <ele>229.4</ele>
        <time>2021-02-24T13:18:38Z</time>
      </trkpt>
      <trkpt lat="44.3986" lon="4.9808">
        <ele>229.2</ele>
        <time>2021-02-24T13:18:39Z</time>
      </trkpt>
      <trkpt lat="44.39855" lon="4.98074">
        <ele>229.1</ele>
        <time>2021-02-24T13:18:40Z</time>
      </trkpt>
      <trkpt lat="44.3985" lon="4.98068">
        <ele>229</ele>
        <time>2021-02-24T13:18:41Z</time>
      </trkpt>
      <trkpt lat="44.3985" lon="4.98068">
        <ele>229</ele>
        <time>2021-02-24T13:18:42Z</time>
      </trkpt>
      <trkpt lat="44.39845" lon="4.98062">
        <ele>228.9</ele>
        <time>2021-02-24T13:18:43Z</time>
      </trkpt>
      <trkpt lat="44.39835" lon="4.9805">
        <ele>228.6</ele>
        <time>2021-02-24T13:18:44Z</time>
      </trkpt>
      <trkpt lat="44.39835" lon="4.9805">
        <ele>228.6</ele>
        <time>2021-02-24T13:18:45Z</time>
      </trkpt>
      <trkpt lat="44.3983" lon="4.98044">
        <ele>228.5</ele>
        <time>2021-02-24T13:18:46Z</time>
      </trkpt>
      <trkpt lat="44.39824" lon="4.98037">
        <ele>228.4</ele>
        <time>2021-02-24T13:18:47Z</time>
      </trkpt>
      <trkpt lat="44.39819" lon="4.98031">
        <ele>228.3</ele>
        <time>2021-02-24T13:18:48Z</time>
      </trkpt>
      <trkpt lat="44.39808" lon="4.98019">
        <ele>228.1</ele>
        <time>2021-02-24T13:18:49Z</time>
      </trkpt>
      <trkpt lat="44.39802" lon="4.98014">
        <ele>228.1</ele>
        <time>2021-02-24T13:18:50Z</time>
      </trkpt>
      <trkpt lat="44.39797" lon="4.98008">
        <ele>228</ele>
        <time>2021-02-24T13:18:51Z</time>
      </trkpt>
      <trkpt lat="44.39791" lon="4.98002">
        <ele>227.9</ele>
        <time>2021-02-24T13:18:52Z</time>
      </trkpt>
      <trkpt lat="44.39786" lon="4.97996">
        <ele>227.8</ele>
        <time>2021-02-24T13:18:53Z</time>
      </trkpt>
      <trkpt lat="44.3978" lon="4.97991">
        <ele>227.8</ele>
        <time>2021-02-24T13:18:54Z</time>
      </trkpt>
      <trkpt lat="44.39775" lon="4.97985">
        <ele>227.7</ele>
        <time>2021-02-24T13:18:55Z</time>
      </trkpt>
      <trkpt lat="44.39769" lon="4.9798">
        <ele>227.7</ele>
        <time>2021-02-24T13:18:56Z</time>
      </trkpt>
      <trkpt lat="44.39764" lon="4.97974">
        <ele>227.7</ele>
        <time>2021-02-24T13:18:57Z</time>
      </trkpt>
      <trkpt lat="44.39758" lon="4.97968">
        <ele>227.7</ele>
        <time>2021-02-24T13:18:58Z</time>
      </trkpt>
      <trkpt lat="44.39752" lon="4.97963">
        <ele>227.6</ele>
        <time>2021-02-24T13:18:59Z</time>
      </trkpt>
      <trkpt lat="44.39747" lon="4.97958">
        <ele>227.6</ele>
        <time>2021-02-24T13:19:00Z</time>
      </trkpt>
      <trkpt lat="44.39741" lon="4.97953">
        <ele>227.6</ele>
        <time>2021-02-24T13:19:01Z</time>
      </trkpt>
      <trkpt lat="44.39735" lon="4.97948">
        <ele>227.6</ele>
        <time>2021-02-24T13:19:02Z</time>
      </trkpt>
      <trkpt lat="44.39729" lon="4.97943">
        <ele>227.5</ele>
        <time>2021-02-24T13:19:03Z</time>
      </trkpt>
      <trkpt lat="44.39723" lon="4.97939">
        <ele>227.5</ele>
        <time>2021-02-24T13:19:04Z</time>
      </trkpt>
      <trkpt lat="44.39717" lon="4.97935">
        <ele>227.5</ele>
        <time>2021-02-24T13:19:05Z</time>
      </trkpt>
      <trkpt lat="44.3971" lon="4.97931">
        <ele>227.5</ele>
        <time>2021-02-24T13:19:06Z</time>
      </trkpt>
      <trkpt lat="44.39704" lon="4.97927">
        <ele>227.5</ele>
        <time>2021-02-24T13:19:07Z</time>
      </trkpt>
      <trkpt lat="44.39698" lon="4.97924">
        <ele>227.5</ele>
        <time>2021-02-24T13:19:08Z</time>
      </trkpt>
      <trkpt lat="44.39692" lon="4.9792">
        <ele>227.5</ele>
        <time>2021-02-24T13:19:09Z</time>
      </trkpt>
      <trkpt lat="44.39686" lon="4.97916">
        <ele>227.4</ele>
        <time>2021-02-24T13:19:10Z</time>
      </trkpt>
      <trkpt lat="44.39681" lon="4.97911">
        <ele>227.4</ele>
        <time>2021-02-24T13:19:11Z</time>
      </trkpt>
      <trkpt lat="44.39681" lon="4.97911">
        <ele>227.4</ele>
        <time>2021-02-24T13:19:12Z</time>
      </trkpt>
      <trkpt lat="44.39675" lon="4.97906">
        <ele>227.4</ele>
        <time>2021-02-24T13:19:13Z</time>
      </trkpt>
      <trkpt lat="44.39669" lon="4.97902">
        <ele>227.3</ele>
        <time>2021-02-24T13:19:14Z</time>
      </trkpt>
      <trkpt lat="44.39664" lon="4.97896">
        <ele>227.2</ele>
        <time>2021-02-24T13:19:15Z</time>
      </trkpt>
      <trkpt lat="44.39659" lon="4.97891">
        <ele>227.2</ele>
        <time>2021-02-24T13:19:16Z</time>
      </trkpt>
      <trkpt lat="44.39653" lon="4.97885">
        <ele>227.1</ele>
        <time>2021-02-24T13:19:17Z</time>
      </trkpt>
      <trkpt lat="44.39648" lon="4.9788">
        <ele>227</ele>
        <time>2021-02-24T13:19:18Z</time>
      </trkpt>
      <trkpt lat="44.39636" lon="4.9787">
        <ele>226.8</ele>
        <time>2021-02-24T13:19:19Z</time>
      </trkpt>
      <trkpt lat="44.3963" lon="4.97866">
        <ele>226.7</ele>
        <time>2021-02-24T13:19:20Z</time>
      </trkpt>
      <trkpt lat="44.39624" lon="4.97861">
        <ele>226.7</ele>
        <time>2021-02-24T13:19:21Z</time>
      </trkpt>
      <trkpt lat="44.39618" lon="4.97857">
        <ele>226.6</ele>
        <time>2021-02-24T13:19:22Z</time>
      </trkpt>
      <trkpt lat="44.39618" lon="4.97857">
        <ele>226.6</ele>
        <time>2021-02-24T13:19:23Z</time>
      </trkpt>
      <trkpt lat="44.39612" lon="4.97852">
        <ele>226.5</ele>
        <time>2021-02-24T13:19:24Z</time>
      </trkpt>
      <trkpt lat="44.39606" lon="4.97847">
        <ele>226.4</ele>
        <time>2021-02-24T13:19:25Z</time>
      </trkpt>
      <trkpt lat="44.39595" lon="4.97836">
        <ele>226.1</ele>
        <time>2021-02-24T13:19:26Z</time>
      </trkpt>
      <trkpt lat="44.39589" lon="4.9783">
        <ele>226</ele>
        <time>2021-02-24T13:19:27Z</time>
      </trkpt>
      <trkpt lat="44.39584" lon="4.97824">
        <ele>225.9</ele>
        <time>2021-02-24T13:19:28Z</time>
      </trkpt>
      <trkpt lat="44.39578" lon="4.97817">
        <ele>225.8</ele>
        <time>2021-02-24T13:19:29Z</time>
      </trkpt>
      <trkpt lat="44.39572" lon="4.97812">
        <ele>225.7</ele>
        <time>2021-02-24T13:19:30Z</time>
      </trkpt>
      <trkpt lat="44.39566" lon="4.97806">
        <ele>225.6</ele>
        <time>2021-02-24T13:19:31Z</time>
      </trkpt>
      <trkpt lat="44.3956" lon="4.97801">
        <ele>225.5</ele>
        <time>2021-02-24T13:19:32Z</time>
      </trkpt>
      <trkpt lat="44.3956" lon="4.97801">
        <ele>225.5</ele>
        <time>2021-02-24T13:19:33Z</time>
      </trkpt>
      <trkpt lat="44.39554" lon="4.97796">
        <ele>225.5</ele>
        <time>2021-02-24T13:19:34Z</time>
      </trkpt>
      <trkpt lat="44.39547" lon="4.97792">
        <ele>225.4</ele>
        <time>2021-02-24T13:19:35Z</time>
      </trkpt>
      <trkpt lat="44.39541" lon="4.97787">
        <ele>225.3</ele>
        <time>2021-02-24T13:19:36Z</time>
      </trkpt>
      <trkpt lat="44.39535" lon="4.97782">
        <ele>225.2</ele>
        <time>2021-02-24T13:19:37Z</time>
      </trkpt>
      <trkpt lat="44.39528" lon="4.97778">
        <ele>225.1</ele>
        <time>2021-02-24T13:19:38Z</time>
      </trkpt>
      <trkpt lat="44.39522" lon="4.97773">
        <ele>225</ele>
        <time>2021-02-24T13:19:39Z</time>
      </trkpt>
      <trkpt lat="44.39509" lon="4.97763">
        <ele>224.8</ele>
        <time>2021-02-24T13:19:40Z</time>
      </trkpt>
      <trkpt lat="44.39503" lon="4.97759">
        <ele>224.7</ele>
        <time>2021-02-24T13:19:41Z</time>
      </trkpt>
      <trkpt lat="44.39496" lon="4.97754">
        <ele>224.6</ele>
        <time>2021-02-24T13:19:42Z</time>
      </trkpt>
      <trkpt lat="44.3949" lon="4.9775">
        <ele>224.5</ele>
        <time>2021-02-24T13:19:43Z</time>
      </trkpt>
      <trkpt lat="44.39483" lon="4.97745">
        <ele>224.4</ele>
        <time>2021-02-24T13:19:44Z</time>
      </trkpt>
      <trkpt lat="44.39477" lon="4.9774">
        <ele>224.3</ele>
        <time>2021-02-24T13:19:45Z</time>
      </trkpt>
      <trkpt lat="44.39471" lon="4.97736">
        <ele>224.2</ele>
        <time>2021-02-24T13:19:46Z</time>
      </trkpt>
      <trkpt lat="44.39464" lon="4.97732">
        <ele>224.1</ele>
        <time>2021-02-24T13:19:47Z</time>
      </trkpt>
      <trkpt lat="44.39458" lon="4.97727">
        <ele>224</ele>
        <time>2021-02-24T13:19:48Z</time>
      </trkpt>
      <trkpt lat="44.39451" lon="4.97723">
        <ele>223.9</ele>
        <time>2021-02-24T13:19:49Z</time>
      </trkpt>
      <trkpt lat="44.39445" lon="4.97718">
        <ele>223.8</ele>
        <time>2021-02-24T13:19:50Z</time>
      </trkpt>
      <trkpt lat="44.39439" lon="4.97713">
        <ele>223.7</ele>
        <time>2021-02-24T13:19:51Z</time>
      </trkpt>
      <trkpt lat="44.39432" lon="4.97708">
        <ele>223.6</ele>
        <time>2021-02-24T13:19:52Z</time>
      </trkpt>
      <trkpt lat="44.39426" lon="4.97703">
        <ele>223.5</ele>
        <time>2021-02-24T13:19:53Z</time>
      </trkpt>
      <trkpt lat="44.39426" lon="4.97703">
        <ele>223.5</ele>
        <time>2021-02-24T13:19:54Z</time>
      </trkpt>
      <trkpt lat="44.3942" lon="4.97699">
        <ele>223.5</ele>
        <time>2021-02-24T13:19:55Z</time>
      </trkpt>
      <trkpt lat="44.39414" lon="4.97695">
        <ele>223.4</ele>
        <time>2021-02-24T13:19:56Z</time>
      </trkpt>
      <trkpt lat="44.39408" lon="4.9769">
        <ele>223.3</ele>
        <time>2021-02-24T13:19:57Z</time>
      </trkpt>
      <trkpt lat="44.39401" lon="4.97685">
        <ele>223.3</ele>
        <time>2021-02-24T13:19:58Z</time>
      </trkpt>
      <trkpt lat="44.39395" lon="4.97681">
        <ele>223.2</ele>
        <time>2021-02-24T13:19:59Z</time>
      </trkpt>
      <trkpt lat="44.39382" lon="4.97671">
        <ele>223.1</ele>
        <time>2021-02-24T13:20:00Z</time>
      </trkpt>
      <trkpt lat="44.39376" lon="4.97667">
        <ele>223</ele>
        <time>2021-02-24T13:20:01Z</time>
      </trkpt>
      <trkpt lat="44.3937" lon="4.97662">
        <ele>222.9</ele>
        <time>2021-02-24T13:20:02Z</time>
      </trkpt>
      <trkpt lat="44.39363" lon="4.97658">
        <ele>222.9</ele>
        <time>2021-02-24T13:20:03Z</time>
      </trkpt>
      <trkpt lat="44.39357" lon="4.97653">
        <ele>222.8</ele>
        <time>2021-02-24T13:20:04Z</time>
      </trkpt>
      <trkpt lat="44.39351" lon="4.97648">
        <ele>222.7</ele>
        <time>2021-02-24T13:20:05Z</time>
      </trkpt>
      <trkpt lat="44.39344" lon="4.97643">
        <ele>222.6</ele>
        <time>2021-02-24T13:20:06Z</time>
      </trkpt>
      <trkpt lat="44.39338" lon="4.97639">
        <ele>222.6</ele>
        <time>2021-02-24T13:20:07Z</time>
      </trkpt>
      <trkpt lat="44.39338" lon="4.97639">
        <ele>222.6</ele>
        <time>2021-02-24T13:20:08Z</time>
      </trkpt>
      <trkpt lat="44.39331" lon="4.97634">
        <ele>222.5</ele>
        <time>2021-02-24T13:20:09Z</time>
      </trkpt>
      <trkpt lat="44.39325" lon="4.97629">
        <ele>222.4</ele>
        <time>2021-02-24T13:20:10Z</time>
      </trkpt>
      <trkpt lat="44.39318" lon="4.97625">
        <ele>222.4</ele>
        <time>2021-02-24T13:20:11Z</time>
      </trkpt>
      <trkpt lat="44.39312" lon="4.9762">
        <ele>222.3</ele>
        <time>2021-02-24T13:20:12Z</time>
      </trkpt>
      <trkpt lat="44.39305" lon="4.97616">
        <ele>222.2</ele>
        <time>2021-02-24T13:20:13Z</time>
      </trkpt>
      <trkpt lat="44.39299" lon="4.97611">
        <ele>222.1</ele>
        <time>2021-02-24T13:20:14Z</time>
      </trkpt>
      <trkpt lat="44.39286" lon="4.976">
        <ele>222</ele>
        <time>2021-02-24T13:20:15Z</time>
      </trkpt>
      <trkpt lat="44.3928" lon="4.97595">
        <ele>221.9</ele>
        <time>2021-02-24T13:20:16Z</time>
      </trkpt>
      <trkpt lat="44.39274" lon="4.9759">
        <ele>221.8</ele>
        <time>2021-02-24T13:20:17Z</time>
      </trkpt>
      <trkpt lat="44.39267" lon="4.97586">
        <ele>221.8</ele>
        <time>2021-02-24T13:20:18Z</time>
      </trkpt>
      <trkpt lat="44.39261" lon="4.97581">
        <ele>221.7</ele>
        <time>2021-02-24T13:20:19Z</time>
      </trkpt>
      <trkpt lat="44.39261" lon="4.97581">
        <ele>221.7</ele>
        <time>2021-02-24T13:20:20Z</time>
      </trkpt>
      <trkpt lat="44.39254" lon="4.97577">
        <ele>221.6</ele>
        <time>2021-02-24T13:20:21Z</time>
      </trkpt>
      <trkpt lat="44.39248" lon="4.97572">
        <ele>221.5</ele>
        <time>2021-02-24T13:20:22Z</time>
      </trkpt>
      <trkpt lat="44.39242" lon="4.97567">
        <ele>221.4</ele>
        <time>2021-02-24T13:20:23Z</time>
      </trkpt>
      <trkpt lat="44.39236" lon="4.97561">
        <ele>221.3</ele>
        <time>2021-02-24T13:20:24Z</time>
      </trkpt>
      <trkpt lat="44.3923" lon="4.97556">
        <ele>221.2</ele>
        <time>2021-02-24T13:20:25Z</time>
      </trkpt>
      <trkpt lat="44.39224" lon="4.9755">
        <ele>221.1</ele>
        <time>2021-02-24T13:20:26Z</time>
      </trkpt>
      <trkpt lat="44.39217" lon="4.97544">
        <ele>221</ele>
        <time>2021-02-24T13:20:27Z</time>
      </trkpt>
      <trkpt lat="44.39211" lon="4.97538">
        <ele>220.9</ele>
        <time>2021-02-24T13:20:28Z</time>
      </trkpt>
      <trkpt lat="44.39199" lon="4.97526">
        <ele>220.7</ele>
        <time>2021-02-24T13:20:29Z</time>
      </trkpt>
      <trkpt lat="44.39193" lon="4.9752">
        <ele>220.6</ele>
        <time>2021-02-24T13:20:30Z</time>
      </trkpt>
      <trkpt lat="44.39187" lon="4.97514">
        <ele>220.6</ele>
        <time>2021-02-24T13:20:31Z</time>
      </trkpt>
      <trkpt lat="44.39182" lon="4.97508">
        <ele>220.5</ele>
        <time>2021-02-24T13:20:32Z</time>
      </trkpt>
      <trkpt lat="44.39176" lon="4.97501">
        <ele>220.4</ele>
        <time>2021-02-24T13:20:33Z</time>
      </trkpt>
      <trkpt lat="44.3917" lon="4.97495">
        <ele>220.3</ele>
        <time>2021-02-24T13:20:34Z</time>
      </trkpt>
      <trkpt lat="44.39165" lon="4.97488">
        <ele>220.2</ele>
        <time>2021-02-24T13:20:35Z</time>
      </trkpt>
      <trkpt lat="44.39165" lon="4.97488">
        <ele>220.2</ele>
        <time>2021-02-24T13:20:36Z</time>
      </trkpt>
      <trkpt lat="44.39159" lon="4.97482">
        <ele>220.1</ele>
        <time>2021-02-24T13:20:37Z</time>
      </trkpt>
      <trkpt lat="44.39148" lon="4.97468">
        <ele>219.9</ele>
        <time>2021-02-24T13:20:38Z</time>
      </trkpt>
      <trkpt lat="44.39148" lon="4.97468">
        <ele>219.9</ele>
        <time>2021-02-24T13:20:39Z</time>
      </trkpt>
      <trkpt lat="44.39142" lon="4.97461">
        <ele>219.8</ele>
        <time>2021-02-24T13:20:40Z</time>
      </trkpt>
      <trkpt lat="44.39136" lon="4.97455">
        <ele>219.7</ele>
        <time>2021-02-24T13:20:41Z</time>
      </trkpt>
      <trkpt lat="44.39131" lon="4.97448">
        <ele>219.6</ele>
        <time>2021-02-24T13:20:42Z</time>
      </trkpt>
      <trkpt lat="44.39125" lon="4.97441">
        <ele>219.6</ele>
        <time>2021-02-24T13:20:43Z</time>
      </trkpt>
      <trkpt lat="44.3912" lon="4.97435">
        <ele>219.5</ele>
        <time>2021-02-24T13:20:44Z</time>
      </trkpt>
      <trkpt lat="44.39114" lon="4.97428">
        <ele>219.4</ele>
        <time>2021-02-24T13:20:45Z</time>
      </trkpt>
      <trkpt lat="44.39108" lon="4.97422">
        <ele>219.4</ele>
        <time>2021-02-24T13:20:46Z</time>
      </trkpt>
      <trkpt lat="44.39103" lon="4.97415">
        <ele>219.3</ele>
        <time>2021-02-24T13:20:47Z</time>
      </trkpt>
      <trkpt lat="44.39097" lon="4.97409">
        <ele>219.3</ele>
        <time>2021-02-24T13:20:48Z</time>
      </trkpt>
      <trkpt lat="44.39086" lon="4.97396">
        <ele>219.2</ele>
        <time>2021-02-24T13:20:49Z</time>
      </trkpt>
      <trkpt lat="44.3908" lon="4.97389">
        <ele>219.1</ele>
        <time>2021-02-24T13:20:50Z</time>
      </trkpt>
      <trkpt lat="44.39075" lon="4.97383">
        <ele>219.1</ele>
        <time>2021-02-24T13:20:51Z</time>
      </trkpt>
      <trkpt lat="44.39069" lon="4.97377">
        <ele>219</ele>
        <time>2021-02-24T13:20:52Z</time>
      </trkpt>
      <trkpt lat="44.39064" lon="4.9737">
        <ele>218.9</ele>
        <time>2021-02-24T13:20:53Z</time>
      </trkpt>
      <trkpt lat="44.39058" lon="4.97364">
        <ele>218.8</ele>
        <time>2021-02-24T13:20:54Z</time>
      </trkpt>
      <trkpt lat="44.39052" lon="4.97358">
        <ele>218.7</ele>
        <time>2021-02-24T13:20:55Z</time>
      </trkpt>
      <trkpt lat="44.39052" lon="4.97358">
        <ele>218.7</ele>
        <time>2021-02-24T13:20:56Z</time>
      </trkpt>
      <trkpt lat="44.3904" lon="4.97345">
        <ele>218.4</ele>
        <time>2021-02-24T13:20:57Z</time>
      </trkpt>
      <trkpt lat="44.3904" lon="4.97345">
        <ele>218.4</ele>
        <time>2021-02-24T13:20:58Z</time>
      </trkpt>
      <trkpt lat="44.39034" lon="4.97339">
        <ele>218.3</ele>
        <time>2021-02-24T13:20:59Z</time>
      </trkpt>
      <trkpt lat="44.39027" lon="4.97333">
        <ele>218.2</ele>
        <time>2021-02-24T13:21:00Z</time>
      </trkpt>
      <trkpt lat="44.39021" lon="4.97326">
        <ele>218.1</ele>
        <time>2021-02-24T13:21:01Z</time>
      </trkpt>
      <trkpt lat="44.39015" lon="4.9732">
        <ele>218</ele>
        <time>2021-02-24T13:21:02Z</time>
      </trkpt>
      <trkpt lat="44.39009" lon="4.97315">
        <ele>218</ele>
        <time>2021-02-24T13:21:03Z</time>
      </trkpt>
      <trkpt lat="44.39003" lon="4.97308">
        <ele>217.9</ele>
        <time>2021-02-24T13:21:04Z</time>
      </trkpt>
      <trkpt lat="44.38998" lon="4.97302">
        <ele>217.8</ele>
        <time>2021-02-24T13:21:05Z</time>
      </trkpt>
      <trkpt lat="44.38992" lon="4.97297">
        <ele>217.7</ele>
        <time>2021-02-24T13:21:06Z</time>
      </trkpt>
      <trkpt lat="44.38986" lon="4.97291">
        <ele>217.6</ele>
        <time>2021-02-24T13:21:07Z</time>
      </trkpt>
      <trkpt lat="44.3898" lon="4.97285">
        <ele>217.5</ele>
        <time>2021-02-24T13:21:08Z</time>
      </trkpt>
      <trkpt lat="44.38975" lon="4.97279">
        <ele>217.4</ele>
        <time>2021-02-24T13:21:09Z</time>
      </trkpt>
      <trkpt lat="44.38964" lon="4.97268">
        <ele>217.3</ele>
        <time>2021-02-24T13:21:10Z</time>
      </trkpt>
      <trkpt lat="44.38959" lon="4.97262">
        <ele>217.2</ele>
        <time>2021-02-24T13:21:11Z</time>
      </trkpt>
      <trkpt lat="44.38954" lon="4.97257">
        <ele>217.1</ele>
        <time>2021-02-24T13:21:12Z</time>
      </trkpt>
      <trkpt lat="44.38949" lon="4.97252">
        <ele>217.1</ele>
        <time>2021-02-24T13:21:13Z</time>
      </trkpt>
      <trkpt lat="44.38944" lon="4.97246">
        <ele>217</ele>
        <time>2021-02-24T13:21:14Z</time>
      </trkpt>
      <trkpt lat="44.3894" lon="4.97241">
        <ele>216.9</ele>
        <time>2021-02-24T13:21:15Z</time>
      </trkpt>
      <trkpt lat="44.38935" lon="4.97235">
        <ele>216.8</ele>
        <time>2021-02-24T13:21:16Z</time>
      </trkpt>
      <trkpt lat="44.38931" lon="4.97229">
        <ele>216.8</ele>
        <time>2021-02-24T13:21:17Z</time>
      </trkpt>
      <trkpt lat="44.38931" lon="4.97229">
        <ele>216.8</ele>
        <time>2021-02-24T13:21:18Z</time>
      </trkpt>
      <trkpt lat="44.38926" lon="4.97223">
        <ele>216.7</ele>
        <time>2021-02-24T13:21:19Z</time>
      </trkpt>
      <trkpt lat="44.38921" lon="4.97218">
        <ele>216.6</ele>
        <time>2021-02-24T13:21:20Z</time>
      </trkpt>
      <trkpt lat="44.38915" lon="4.97214">
        <ele>216.6</ele>
        <time>2021-02-24T13:21:21Z</time>
      </trkpt>
      <trkpt lat="44.3891" lon="4.9721">
        <ele>216.6</ele>
        <time>2021-02-24T13:21:22Z</time>
      </trkpt>
      <trkpt lat="44.38904" lon="4.97206">
        <ele>216.6</ele>
        <time>2021-02-24T13:21:23Z</time>
      </trkpt>
      <trkpt lat="44.389" lon="4.97201">
        <ele>216.6</ele>
        <time>2021-02-24T13:21:24Z</time>
      </trkpt>
      <trkpt lat="44.38896" lon="4.97194">
        <ele>216.6</ele>
        <time>2021-02-24T13:21:25Z</time>
      </trkpt>
      <trkpt lat="44.3889" lon="4.97177">
        <ele>216.6</ele>
        <time>2021-02-24T13:21:26Z</time>
      </trkpt>
      <trkpt lat="44.38887" lon="4.97168">
        <ele>216.5</ele>
        <time>2021-02-24T13:21:27Z</time>
      </trkpt>
      <trkpt lat="44.38882" lon="4.97161">
        <ele>216.5</ele>
        <time>2021-02-24T13:21:28Z</time>
      </trkpt>
      <trkpt lat="44.38876" lon="4.97156">
        <ele>216.3</ele>
        <time>2021-02-24T13:21:29Z</time>
      </trkpt>
      <trkpt lat="44.38869" lon="4.97152">
        <ele>216</ele>
        <time>2021-02-24T13:21:30Z</time>
      </trkpt>
      <trkpt lat="44.38863" lon="4.97151">
        <ele>215.7</ele>
        <time>2021-02-24T13:21:31Z</time>
      </trkpt>
      <trkpt lat="44.38856" lon="4.9715">
        <ele>215.6</ele>
        <time>2021-02-24T13:21:32Z</time>
      </trkpt>
      <trkpt lat="44.38856" lon="4.9715">
        <ele>215.6</ele>
        <time>2021-02-24T13:21:33Z</time>
      </trkpt>
      <trkpt lat="44.38849" lon="4.97148">
        <ele>215.5</ele>
        <time>2021-02-24T13:21:34Z</time>
      </trkpt>
      <trkpt lat="44.3884" lon="4.97138">
        <ele>215.4</ele>
        <time>2021-02-24T13:21:35Z</time>
      </trkpt>
      <trkpt lat="44.3884" lon="4.97138">
        <ele>215.4</ele>
        <time>2021-02-24T13:21:36Z</time>
      </trkpt>
      <trkpt lat="44.38837" lon="4.9713">
        <ele>215.3</ele>
        <time>2021-02-24T13:21:37Z</time>
      </trkpt>
      <trkpt lat="44.38835" lon="4.97122">
        <ele>215.2</ele>
        <time>2021-02-24T13:21:38Z</time>
      </trkpt>
      <trkpt lat="44.38832" lon="4.97114">
        <ele>215.2</ele>
        <time>2021-02-24T13:21:39Z</time>
      </trkpt>
      <trkpt lat="44.38829" lon="4.97107">
        <ele>215.1</ele>
        <time>2021-02-24T13:21:40Z</time>
      </trkpt>
      <trkpt lat="44.38826" lon="4.97099">
        <ele>215.1</ele>
        <time>2021-02-24T13:21:41Z</time>
      </trkpt>
      <trkpt lat="44.38821" lon="4.97092">
        <ele>215</ele>
        <time>2021-02-24T13:21:42Z</time>
      </trkpt>
      <trkpt lat="44.38817" lon="4.97085">
        <ele>214.9</ele>
        <time>2021-02-24T13:21:43Z</time>
      </trkpt>
      <trkpt lat="44.38812" lon="4.9708">
        <ele>214.8</ele>
        <time>2021-02-24T13:21:44Z</time>
      </trkpt>
      <trkpt lat="44.38805" lon="4.97073">
        <ele>214.6</ele>
        <time>2021-02-24T13:21:45Z</time>
      </trkpt>
      <trkpt lat="44.38805" lon="4.97073">
        <ele>214.6</ele>
        <time>2021-02-24T13:21:46Z</time>
      </trkpt>
      <trkpt lat="44.38803" lon="4.9707">
        <ele>214.5</ele>
        <time>2021-02-24T13:21:47Z</time>
      </trkpt>
      <trkpt lat="44.38799" lon="4.97067">
        <ele>214.4</ele>
        <time>2021-02-24T13:21:48Z</time>
      </trkpt>
      <trkpt lat="44.38795" lon="4.97065">
        <ele>214.3</ele>
        <time>2021-02-24T13:21:49Z</time>
      </trkpt>
      <trkpt lat="44.38791" lon="4.97062">
        <ele>214.2</ele>
        <time>2021-02-24T13:21:50Z</time>
      </trkpt>
      <trkpt lat="44.38787" lon="4.97058">
        <ele>214.2</ele>
        <time>2021-02-24T13:21:51Z</time>
      </trkpt>
      <trkpt lat="44.38782" lon="4.97053">
        <ele>214.1</ele>
        <time>2021-02-24T13:21:52Z</time>
      </trkpt>
      <trkpt lat="44.38778" lon="4.97049">
        <ele>214</ele>
        <time>2021-02-24T13:21:53Z</time>
      </trkpt>
      <trkpt lat="44.3877" lon="4.97037">
        <ele>213.8</ele>
        <time>2021-02-24T13:21:54Z</time>
      </trkpt>
      <trkpt lat="44.3877" lon="4.97037">
        <ele>213.8</ele>
        <time>2021-02-24T13:21:55Z</time>
      </trkpt>
      <trkpt lat="44.38766" lon="4.9703">
        <ele>213.7</ele>
        <time>2021-02-24T13:21:56Z</time>
      </trkpt>
      <trkpt lat="44.38762" lon="4.97023">
        <ele>213.6</ele>
        <time>2021-02-24T13:21:57Z</time>
      </trkpt>
      <trkpt lat="44.38758" lon="4.97016">
        <ele>213.5</ele>
        <time>2021-02-24T13:21:58Z</time>
      </trkpt>
      <trkpt lat="44.38751" lon="4.97002">
        <ele>213.3</ele>
        <time>2021-02-24T13:21:59Z</time>
      </trkpt>
      <trkpt lat="44.38748" lon="4.96994">
        <ele>213.3</ele>
        <time>2021-02-24T13:22:00Z</time>
      </trkpt>
      <trkpt lat="44.38744" lon="4.96987">
        <ele>213.2</ele>
        <time>2021-02-24T13:22:01Z</time>
      </trkpt>
      <trkpt lat="44.3874" lon="4.96979">
        <ele>213.1</ele>
        <time>2021-02-24T13:22:02Z</time>
      </trkpt>
      <trkpt lat="44.38737" lon="4.96971">
        <ele>213</ele>
        <time>2021-02-24T13:22:03Z</time>
      </trkpt>
      <trkpt lat="44.38733" lon="4.96964">
        <ele>212.9</ele>
        <time>2021-02-24T13:22:04Z</time>
      </trkpt>
      <trkpt lat="44.38729" lon="4.96956">
        <ele>212.9</ele>
        <time>2021-02-24T13:22:05Z</time>
      </trkpt>
      <trkpt lat="44.38725" lon="4.96948">
        <ele>212.8</ele>
        <time>2021-02-24T13:22:06Z</time>
      </trkpt>
      <trkpt lat="44.38725" lon="4.96948">
        <ele>212.8</ele>
        <time>2021-02-24T13:22:07Z</time>
      </trkpt>
      <trkpt lat="44.38721" lon="4.9694">
        <ele>212.7</ele>
        <time>2021-02-24T13:22:08Z</time>
      </trkpt>
      <trkpt lat="44.38717" lon="4.96932">
        <ele>212.6</ele>
        <time>2021-02-24T13:22:09Z</time>
      </trkpt>
      <trkpt lat="44.38713" lon="4.96925">
        <ele>212.5</ele>
        <time>2021-02-24T13:22:10Z</time>
      </trkpt>
      <trkpt lat="44.38709" lon="4.96917">
        <ele>212.5</ele>
        <time>2021-02-24T13:22:11Z</time>
      </trkpt>
      <trkpt lat="44.38705" lon="4.96909">
        <ele>212.4</ele>
        <time>2021-02-24T13:22:12Z</time>
      </trkpt>
      <trkpt lat="44.38698" lon="4.96893">
        <ele>212.4</ele>
        <time>2021-02-24T13:22:13Z</time>
      </trkpt>
      <trkpt lat="44.38698" lon="4.96893">
        <ele>212.4</ele>
        <time>2021-02-24T13:22:14Z</time>
      </trkpt>
      <trkpt lat="44.38694" lon="4.96885">
        <ele>212.4</ele>
        <time>2021-02-24T13:22:15Z</time>
      </trkpt>
      <trkpt lat="44.3869" lon="4.96877">
        <ele>212.4</ele>
        <time>2021-02-24T13:22:16Z</time>
      </trkpt>
      <trkpt lat="44.38686" lon="4.96869">
        <ele>212.4</ele>
        <time>2021-02-24T13:22:17Z</time>
      </trkpt>
      <trkpt lat="44.38683" lon="4.96861">
        <ele>212.3</ele>
        <time>2021-02-24T13:22:18Z</time>
      </trkpt>
      <trkpt lat="44.3868" lon="4.96853">
        <ele>212.3</ele>
        <time>2021-02-24T13:22:19Z</time>
      </trkpt>
      <trkpt lat="44.38676" lon="4.96845">
        <ele>212.2</ele>
        <time>2021-02-24T13:22:20Z</time>
      </trkpt>
      <trkpt lat="44.38673" lon="4.96837">
        <ele>212.2</ele>
        <time>2021-02-24T13:22:21Z</time>
      </trkpt>
      <trkpt lat="44.38667" lon="4.96821">
        <ele>212.1</ele>
        <time>2021-02-24T13:22:22Z</time>
      </trkpt>
      <trkpt lat="44.38663" lon="4.96813">
        <ele>212.1</ele>
        <time>2021-02-24T13:22:23Z</time>
      </trkpt>
      <trkpt lat="44.3866" lon="4.96805">
        <ele>212.1</ele>
        <time>2021-02-24T13:22:24Z</time>
      </trkpt>
      <trkpt lat="44.38656" lon="4.96797">
        <ele>212.1</ele>
        <time>2021-02-24T13:22:25Z</time>
      </trkpt>
      <trkpt lat="44.38652" lon="4.9679">
        <ele>212</ele>
        <time>2021-02-24T13:22:26Z</time>
      </trkpt>
      <trkpt lat="44.38648" lon="4.96782">
        <ele>211.9</ele>
        <time>2021-02-24T13:22:27Z</time>
      </trkpt>
      <trkpt lat="44.38643" lon="4.96774">
        <ele>211.7</ele>
        <time>2021-02-24T13:22:28Z</time>
      </trkpt>
      <trkpt lat="44.38643" lon="4.96774">
        <ele>211.7</ele>
        <time>2021-02-24T13:22:29Z</time>
      </trkpt>
      <trkpt lat="44.38639" lon="4.96767">
        <ele>211.6</ele>
        <time>2021-02-24T13:22:30Z</time>
      </trkpt>
      <trkpt lat="44.38635" lon="4.96759">
        <ele>211.5</ele>
        <time>2021-02-24T13:22:31Z</time>
      </trkpt>
      <trkpt lat="44.38626" lon="4.96745">
        <ele>211.3</ele>
        <time>2021-02-24T13:22:32Z</time>
      </trkpt>
      <trkpt lat="44.38626" lon="4.96745">
        <ele>211.3</ele>
        <time>2021-02-24T13:22:33Z</time>
      </trkpt>
      <trkpt lat="44.38622" lon="4.96737">
        <ele>211.2</ele>
        <time>2021-02-24T13:22:34Z</time>
      </trkpt>
      <trkpt lat="44.38618" lon="4.9673">
        <ele>211.1</ele>
        <time>2021-02-24T13:22:35Z</time>
      </trkpt>
      <trkpt lat="44.38613" lon="4.96722">
        <ele>211</ele>
        <time>2021-02-24T13:22:36Z</time>
      </trkpt>
      <trkpt lat="44.38609" lon="4.96715">
        <ele>210.9</ele>
        <time>2021-02-24T13:22:37Z</time>
      </trkpt>
      <trkpt lat="44.38605" lon="4.96708">
        <ele>210.8</ele>
        <time>2021-02-24T13:22:38Z</time>
      </trkpt>
      <trkpt lat="44.38601" lon="4.967">
        <ele>210.7</ele>
        <time>2021-02-24T13:22:39Z</time>
      </trkpt>
      <trkpt lat="44.38597" lon="4.96693">
        <ele>210.6</ele>
        <time>2021-02-24T13:22:40Z</time>
      </trkpt>
      <trkpt lat="44.38592" lon="4.96686">
        <ele>210.5</ele>
        <time>2021-02-24T13:22:41Z</time>
      </trkpt>
      <trkpt lat="44.38588" lon="4.96678">
        <ele>210.4</ele>
        <time>2021-02-24T13:22:42Z</time>
      </trkpt>
      <trkpt lat="44.38584" lon="4.96671">
        <ele>210.3</ele>
        <time>2021-02-24T13:22:43Z</time>
      </trkpt>
      <trkpt lat="44.3858" lon="4.96664">
        <ele>210.2</ele>
        <time>2021-02-24T13:22:44Z</time>
      </trkpt>
      <trkpt lat="44.38575" lon="4.96656">
        <ele>210</ele>
        <time>2021-02-24T13:22:45Z</time>
      </trkpt>
      <trkpt lat="44.38571" lon="4.96649">
        <ele>209.9</ele>
        <time>2021-02-24T13:22:46Z</time>
      </trkpt>
      <trkpt lat="44.38567" lon="4.96642">
        <ele>209.8</ele>
        <time>2021-02-24T13:22:47Z</time>
      </trkpt>
      <trkpt lat="44.38562" lon="4.96635">
        <ele>209.7</ele>
        <time>2021-02-24T13:22:48Z</time>
      </trkpt>
      <trkpt lat="44.38558" lon="4.96628">
        <ele>209.6</ele>
        <time>2021-02-24T13:22:49Z</time>
      </trkpt>
      <trkpt lat="44.38553" lon="4.96621">
        <ele>209.6</ele>
        <time>2021-02-24T13:22:50Z</time>
      </trkpt>
      <trkpt lat="44.38549" lon="4.96615">
        <ele>209.5</ele>
        <time>2021-02-24T13:22:51Z</time>
      </trkpt>
      <trkpt lat="44.38545" lon="4.96609">
        <ele>209.4</ele>
        <time>2021-02-24T13:22:52Z</time>
      </trkpt>
      <trkpt lat="44.38541" lon="4.96602">
        <ele>209.3</ele>
        <time>2021-02-24T13:22:53Z</time>
      </trkpt>
      <trkpt lat="44.38536" lon="4.96596">
        <ele>209.2</ele>
        <time>2021-02-24T13:22:54Z</time>
      </trkpt>
      <trkpt lat="44.38532" lon="4.96589">
        <ele>209.1</ele>
        <time>2021-02-24T13:22:55Z</time>
      </trkpt>
      <trkpt lat="44.38528" lon="4.96583">
        <ele>209</ele>
        <time>2021-02-24T13:22:56Z</time>
      </trkpt>
      <trkpt lat="44.38523" lon="4.96577">
        <ele>208.9</ele>
        <time>2021-02-24T13:22:57Z</time>
      </trkpt>
      <trkpt lat="44.38519" lon="4.9657">
        <ele>208.8</ele>
        <time>2021-02-24T13:22:58Z</time>
      </trkpt>
      <trkpt lat="44.3851" lon="4.96558">
        <ele>208.7</ele>
        <time>2021-02-24T13:22:59Z</time>
      </trkpt>
      <trkpt lat="44.38505" lon="4.96551">
        <ele>208.6</ele>
        <time>2021-02-24T13:23:00Z</time>
      </trkpt>
      <trkpt lat="44.38501" lon="4.96545">
        <ele>208.5</ele>
        <time>2021-02-24T13:23:01Z</time>
      </trkpt>
      <trkpt lat="44.38497" lon="4.96538">
        <ele>208.5</ele>
        <time>2021-02-24T13:23:02Z</time>
      </trkpt>
      <trkpt lat="44.38492" lon="4.96532">
        <ele>208.4</ele>
        <time>2021-02-24T13:23:03Z</time>
      </trkpt>
      <trkpt lat="44.38488" lon="4.96525">
        <ele>208.4</ele>
        <time>2021-02-24T13:23:04Z</time>
      </trkpt>
      <trkpt lat="44.38484" lon="4.96519">
        <ele>208.3</ele>
        <time>2021-02-24T13:23:05Z</time>
      </trkpt>
      <trkpt lat="44.3848" lon="4.96513">
        <ele>208.2</ele>
        <time>2021-02-24T13:23:06Z</time>
      </trkpt>
      <trkpt lat="44.38475" lon="4.96506">
        <ele>208.1</ele>
        <time>2021-02-24T13:23:07Z</time>
      </trkpt>
      <trkpt lat="44.38471" lon="4.965">
        <ele>208</ele>
        <time>2021-02-24T13:23:08Z</time>
      </trkpt>
      <trkpt lat="44.38466" lon="4.96493">
        <ele>207.9</ele>
        <time>2021-02-24T13:23:09Z</time>
      </trkpt>
      <trkpt lat="44.38462" lon="4.96487">
        <ele>207.8</ele>
        <time>2021-02-24T13:23:10Z</time>
      </trkpt>
      <trkpt lat="44.38462" lon="4.96487">
        <ele>207.8</ele>
        <time>2021-02-24T13:23:11Z</time>
      </trkpt>
      <trkpt lat="44.38458" lon="4.96481">
        <ele>207.8</ele>
        <time>2021-02-24T13:23:12Z</time>
      </trkpt>
      <trkpt lat="44.38453" lon="4.96474">
        <ele>207.7</ele>
        <time>2021-02-24T13:23:13Z</time>
      </trkpt>
      <trkpt lat="44.38449" lon="4.96468">
        <ele>207.7</ele>
        <time>2021-02-24T13:23:14Z</time>
      </trkpt>
      <trkpt lat="44.38439" lon="4.96455">
        <ele>207.5</ele>
        <time>2021-02-24T13:23:15Z</time>
      </trkpt>
      <trkpt lat="44.38434" lon="4.96449">
        <ele>207.5</ele>
        <time>2021-02-24T13:23:16Z</time>
      </trkpt>
      <trkpt lat="44.38429" lon="4.96442">
        <ele>207.4</ele>
        <time>2021-02-24T13:23:17Z</time>
      </trkpt>
      <trkpt lat="44.38424" lon="4.96436">
        <ele>207.3</ele>
        <time>2021-02-24T13:23:18Z</time>
      </trkpt>
      <trkpt lat="44.3842" lon="4.9643">
        <ele>207.3</ele>
        <time>2021-02-24T13:23:19Z</time>
      </trkpt>
      <trkpt lat="44.38415" lon="4.96424">
        <ele>207.2</ele>
        <time>2021-02-24T13:23:20Z</time>
      </trkpt>
      <trkpt lat="44.3841" lon="4.96418">
        <ele>207.1</ele>
        <time>2021-02-24T13:23:21Z</time>
      </trkpt>
      <trkpt lat="44.38405" lon="4.96411">
        <ele>207.1</ele>
        <time>2021-02-24T13:23:22Z</time>
      </trkpt>
      <trkpt lat="44.38405" lon="4.96411">
        <ele>207.1</ele>
        <time>2021-02-24T13:23:23Z</time>
      </trkpt>
      <trkpt lat="44.384" lon="4.96405">
        <ele>207</ele>
        <time>2021-02-24T13:23:24Z</time>
      </trkpt>
      <trkpt lat="44.38395" lon="4.96399">
        <ele>206.9</ele>
        <time>2021-02-24T13:23:25Z</time>
      </trkpt>
      <trkpt lat="44.3839" lon="4.96392">
        <ele>206.8</ele>
        <time>2021-02-24T13:23:26Z</time>
      </trkpt>
      <trkpt lat="44.38385" lon="4.96386">
        <ele>206.7</ele>
        <time>2021-02-24T13:23:27Z</time>
      </trkpt>
      <trkpt lat="44.38381" lon="4.9638">
        <ele>206.6</ele>
        <time>2021-02-24T13:23:28Z</time>
      </trkpt>
      <trkpt lat="44.38371" lon="4.96368">
        <ele>206.4</ele>
        <time>2021-02-24T13:23:29Z</time>
      </trkpt>
      <trkpt lat="44.38366" lon="4.96362">
        <ele>206.2</ele>
        <time>2021-02-24T13:23:30Z</time>
      </trkpt>
      <trkpt lat="44.38361" lon="4.96356">
        <ele>206.1</ele>
        <time>2021-02-24T13:23:31Z</time>
      </trkpt>
      <trkpt lat="44.38356" lon="4.96351">
        <ele>206</ele>
        <time>2021-02-24T13:23:32Z</time>
      </trkpt>
      <trkpt lat="44.38351" lon="4.96345">
        <ele>205.9</ele>
        <time>2021-02-24T13:23:33Z</time>
      </trkpt>
      <trkpt lat="44.38346" lon="4.9634">
        <ele>205.8</ele>
        <time>2021-02-24T13:23:34Z</time>
      </trkpt>
      <trkpt lat="44.3834" lon="4.96335">
        <ele>205.7</ele>
        <time>2021-02-24T13:23:35Z</time>
      </trkpt>
      <trkpt lat="44.38335" lon="4.96331">
        <ele>205.6</ele>
        <time>2021-02-24T13:23:36Z</time>
      </trkpt>
      <trkpt lat="44.38329" lon="4.96327">
        <ele>205.6</ele>
        <time>2021-02-24T13:23:37Z</time>
      </trkpt>
      <trkpt lat="44.38329" lon="4.96327">
        <ele>205.6</ele>
        <time>2021-02-24T13:23:38Z</time>
      </trkpt>
      <trkpt lat="44.38324" lon="4.96323">
        <ele>205.5</ele>
        <time>2021-02-24T13:23:39Z</time>
      </trkpt>
      <trkpt lat="44.38318" lon="4.9632">
        <ele>205.4</ele>
        <time>2021-02-24T13:23:40Z</time>
      </trkpt>
      <trkpt lat="44.38312" lon="4.96317">
        <ele>205.3</ele>
        <time>2021-02-24T13:23:41Z</time>
      </trkpt>
      <trkpt lat="44.38306" lon="4.96314">
        <ele>205.3</ele>
        <time>2021-02-24T13:23:42Z</time>
      </trkpt>
      <trkpt lat="44.38301" lon="4.96311">
        <ele>205.2</ele>
        <time>2021-02-24T13:23:43Z</time>
      </trkpt>
      <trkpt lat="44.38291" lon="4.96305">
        <ele>205</ele>
        <time>2021-02-24T13:23:44Z</time>
      </trkpt>
      <trkpt lat="44.38291" lon="4.96305">
        <ele>205</ele>
        <time>2021-02-24T13:23:45Z</time>
      </trkpt>
      <trkpt lat="44.38286" lon="4.96303">
        <ele>205</ele>
        <time>2021-02-24T13:23:46Z</time>
      </trkpt>
      <trkpt lat="44.38282" lon="4.96301">
        <ele>204.9</ele>
        <time>2021-02-24T13:23:47Z</time>
      </trkpt>
      <trkpt lat="44.38276" lon="4.96298">
        <ele>204.9</ele>
        <time>2021-02-24T13:23:48Z</time>
      </trkpt>
      <trkpt lat="44.38274" lon="4.96297">
        <ele>204.9</ele>
        <time>2021-02-24T13:23:49Z</time>
      </trkpt>
      <trkpt lat="44.38272" lon="4.96296">
        <ele>204.9</ele>
        <time>2021-02-24T13:23:50Z</time>
      </trkpt>
      <trkpt lat="44.38269" lon="4.96296">
        <ele>204.9</ele>
        <time>2021-02-24T13:23:51Z</time>
      </trkpt>
      <trkpt lat="44.38268" lon="4.96295">
        <ele>204.9</ele>
        <time>2021-02-24T13:23:52Z</time>
      </trkpt>
      <trkpt lat="44.38268" lon="4.96295">
        <ele>204.9</ele>
        <time>2021-02-24T13:23:53Z</time>
      </trkpt>
      <trkpt lat="44.38268" lon="4.96295">
        <ele>204.9</ele>
        <time>2021-02-24T13:23:54Z</time>
      </trkpt>
      <trkpt lat="44.38268" lon="4.96298">
        <ele>205</ele>
        <time>2021-02-24T13:23:55Z</time>
      </trkpt>
      <trkpt lat="44.38268" lon="4.96298">
        <ele>205</ele>
        <time>2021-02-24T13:23:56Z</time>
      </trkpt>
      <trkpt lat="44.38272" lon="4.96299">
        <ele>205</ele>
        <time>2021-02-24T13:23:57Z</time>
      </trkpt>
      <trkpt lat="44.38274" lon="4.96299">
        <ele>205</ele>
        <time>2021-02-24T13:23:58Z</time>
      </trkpt>
      <trkpt lat="44.38276" lon="4.963">
        <ele>205</ele>
        <time>2021-02-24T13:23:59Z</time>
      </trkpt>
      <trkpt lat="44.38276" lon="4.963">
        <ele>205</ele>
        <time>2021-02-24T13:24:00Z</time>
      </trkpt>
      <trkpt lat="44.38281" lon="4.96301">
        <ele>205.1</ele>
        <time>2021-02-24T13:24:01Z</time>
      </trkpt>
      <trkpt lat="44.38284" lon="4.96302">
        <ele>205.1</ele>
        <time>2021-02-24T13:24:02Z</time>
      </trkpt>
      <trkpt lat="44.38287" lon="4.96303">
        <ele>205.1</ele>
        <time>2021-02-24T13:24:03Z</time>
      </trkpt>
      <trkpt lat="44.3829" lon="4.96305">
        <ele>205.1</ele>
        <time>2021-02-24T13:24:04Z</time>
      </trkpt>
      <trkpt lat="44.38293" lon="4.96307">
        <ele>205.2</ele>
        <time>2021-02-24T13:24:05Z</time>
      </trkpt>
      <trkpt lat="44.38297" lon="4.96308">
        <ele>205.2</ele>
        <time>2021-02-24T13:24:06Z</time>
      </trkpt>
      <trkpt lat="44.383" lon="4.96311">
        <ele>205.2</ele>
        <time>2021-02-24T13:24:07Z</time>
      </trkpt>
      <trkpt lat="44.38304" lon="4.96313">
        <ele>205.3</ele>
        <time>2021-02-24T13:24:08Z</time>
      </trkpt>
      <trkpt lat="44.38307" lon="4.96316">
        <ele>205.3</ele>
        <time>2021-02-24T13:24:09Z</time>
      </trkpt>
      <trkpt lat="44.3831" lon="4.96318">
        <ele>205.3</ele>
        <time>2021-02-24T13:24:10Z</time>
      </trkpt>
      <trkpt lat="44.38314" lon="4.96319">
        <ele>205.4</ele>
        <time>2021-02-24T13:24:11Z</time>
      </trkpt>
      <trkpt lat="44.38317" lon="4.96318">
        <ele>205.4</ele>
        <time>2021-02-24T13:24:12Z</time>
      </trkpt>
      <trkpt lat="44.38319" lon="4.96315">
        <ele>205.4</ele>
        <time>2021-02-24T13:24:13Z</time>
      </trkpt>
      <trkpt lat="44.38321" lon="4.96312">
        <ele>205.4</ele>
        <time>2021-02-24T13:24:14Z</time>
      </trkpt>
      <trkpt lat="44.38321" lon="4.96307">
        <ele>205.4</ele>
        <time>2021-02-24T13:24:15Z</time>
      </trkpt>
      <trkpt lat="44.38322" lon="4.96301">
        <ele>205.4</ele>
        <time>2021-02-24T13:24:16Z</time>
      </trkpt>
      <trkpt lat="44.38322" lon="4.96294">
        <ele>205.3</ele>
        <time>2021-02-24T13:24:17Z</time>
      </trkpt>
      <trkpt lat="44.38322" lon="4.96287">
        <ele>205.3</ele>
        <time>2021-02-24T13:24:18Z</time>
      </trkpt>
      <trkpt lat="44.38323" lon="4.96279">
        <ele>205.2</ele>
        <time>2021-02-24T13:24:19Z</time>
      </trkpt>
      <trkpt lat="44.38323" lon="4.96272">
        <ele>205.1</ele>
        <time>2021-02-24T13:24:20Z</time>
      </trkpt>
      <trkpt lat="44.38323" lon="4.96264">
        <ele>205.1</ele>
        <time>2021-02-24T13:24:21Z</time>
      </trkpt>
      <trkpt lat="44.38323" lon="4.96257">
        <ele>205</ele>
        <time>2021-02-24T13:24:22Z</time>
      </trkpt>
      <trkpt lat="44.38323" lon="4.96249">
        <ele>204.9</ele>
        <time>2021-02-24T13:24:23Z</time>
      </trkpt>
      <trkpt lat="44.38322" lon="4.96242">
        <ele>204.8</ele>
        <time>2021-02-24T13:24:24Z</time>
      </trkpt>
      <trkpt lat="44.38322" lon="4.96234">
        <ele>204.8</ele>
        <time>2021-02-24T13:24:25Z</time>
      </trkpt>
      <trkpt lat="44.38322" lon="4.96227">
        <ele>204.7</ele>
        <time>2021-02-24T13:24:26Z</time>
      </trkpt>
      <trkpt lat="44.38322" lon="4.96227">
        <ele>204.7</ele>
        <time>2021-02-24T13:24:27Z</time>
      </trkpt>
      <trkpt lat="44.38321" lon="4.96219">
        <ele>204.6</ele>
        <time>2021-02-24T13:24:28Z</time>
      </trkpt>
      <trkpt lat="44.3832" lon="4.96204">
        <ele>204.3</ele>
        <time>2021-02-24T13:24:29Z</time>
      </trkpt>
      <trkpt lat="44.3832" lon="4.96196">
        <ele>204.2</ele>
        <time>2021-02-24T13:24:30Z</time>
      </trkpt>
      <trkpt lat="44.38319" lon="4.96188">
        <ele>204.1</ele>
        <time>2021-02-24T13:24:31Z</time>
      </trkpt>
      <trkpt lat="44.38319" lon="4.96179">
        <ele>204</ele>
        <time>2021-02-24T13:24:32Z</time>
      </trkpt>
      <trkpt lat="44.38318" lon="4.96171">
        <ele>203.9</ele>
        <time>2021-02-24T13:24:33Z</time>
      </trkpt>
      <trkpt lat="44.38317" lon="4.96163">
        <ele>203.8</ele>
        <time>2021-02-24T13:24:34Z</time>
      </trkpt>
      <trkpt lat="44.38315" lon="4.96155">
        <ele>203.7</ele>
        <time>2021-02-24T13:24:35Z</time>
      </trkpt>
      <trkpt lat="44.38314" lon="4.96147">
        <ele>203.7</ele>
        <time>2021-02-24T13:24:36Z</time>
      </trkpt>
      <trkpt lat="44.38313" lon="4.9614">
        <ele>203.6</ele>
        <time>2021-02-24T13:24:37Z</time>
      </trkpt>
      <trkpt lat="44.38313" lon="4.9614">
        <ele>203.6</ele>
        <time>2021-02-24T13:24:38Z</time>
      </trkpt>
      <trkpt lat="44.38312" lon="4.96132">
        <ele>203.6</ele>
        <time>2021-02-24T13:24:39Z</time>
      </trkpt>
      <trkpt lat="44.3831" lon="4.96125">
        <ele>203.5</ele>
        <time>2021-02-24T13:24:40Z</time>
      </trkpt>
      <trkpt lat="44.38309" lon="4.96117">
        <ele>203.4</ele>
        <time>2021-02-24T13:24:41Z</time>
      </trkpt>
      <trkpt lat="44.38308" lon="4.96109">
        <ele>203.3</ele>
        <time>2021-02-24T13:24:42Z</time>
      </trkpt>
      <trkpt lat="44.38307" lon="4.96101">
        <ele>203.2</ele>
        <time>2021-02-24T13:24:43Z</time>
      </trkpt>
      <trkpt lat="44.38305" lon="4.96092">
        <ele>203.1</ele>
        <time>2021-02-24T13:24:44Z</time>
      </trkpt>
      <trkpt lat="44.38303" lon="4.96076">
        <ele>202.9</ele>
        <time>2021-02-24T13:24:45Z</time>
      </trkpt>
      <trkpt lat="44.38301" lon="4.96067">
        <ele>202.8</ele>
        <time>2021-02-24T13:24:46Z</time>
      </trkpt>
      <trkpt lat="44.38299" lon="4.96059">
        <ele>202.7</ele>
        <time>2021-02-24T13:24:47Z</time>
      </trkpt>
      <trkpt lat="44.38297" lon="4.9605">
        <ele>202.7</ele>
        <time>2021-02-24T13:24:48Z</time>
      </trkpt>
      <trkpt lat="44.38295" lon="4.96042">
        <ele>202.7</ele>
        <time>2021-02-24T13:24:49Z</time>
      </trkpt>
      <trkpt lat="44.38293" lon="4.96034">
        <ele>202.6</ele>
        <time>2021-02-24T13:24:50Z</time>
      </trkpt>
      <trkpt lat="44.38291" lon="4.96026">
        <ele>202.5</ele>
        <time>2021-02-24T13:24:51Z</time>
      </trkpt>
      <trkpt lat="44.38289" lon="4.96018">
        <ele>202.4</ele>
        <time>2021-02-24T13:24:52Z</time>
      </trkpt>
      <trkpt lat="44.38287" lon="4.9601">
        <ele>202.3</ele>
        <time>2021-02-24T13:24:53Z</time>
      </trkpt>
      <trkpt lat="44.38284" lon="4.96002">
        <ele>202.2</ele>
        <time>2021-02-24T13:24:54Z</time>
      </trkpt>
      <trkpt lat="44.38284" lon="4.96002">
        <ele>202.2</ele>
        <time>2021-02-24T13:24:55Z</time>
      </trkpt>
      <trkpt lat="44.38282" lon="4.95993">
        <ele>202.2</ele>
        <time>2021-02-24T13:24:56Z</time>
      </trkpt>
      <trkpt lat="44.3828" lon="4.95985">
        <ele>202.1</ele>
        <time>2021-02-24T13:24:57Z</time>
      </trkpt>
      <trkpt lat="44.38278" lon="4.95977">
        <ele>202</ele>
        <time>2021-02-24T13:24:58Z</time>
      </trkpt>
      <trkpt lat="44.38277" lon="4.95968">
        <ele>201.9</ele>
        <time>2021-02-24T13:24:59Z</time>
      </trkpt>
      <trkpt lat="44.38275" lon="4.9596">
        <ele>201.8</ele>
        <time>2021-02-24T13:25:00Z</time>
      </trkpt>
      <trkpt lat="44.38273" lon="4.95951">
        <ele>201.7</ele>
        <time>2021-02-24T13:25:01Z</time>
      </trkpt>
      <trkpt lat="44.38271" lon="4.95943">
        <ele>201.7</ele>
        <time>2021-02-24T13:25:02Z</time>
      </trkpt>
      <trkpt lat="44.3827" lon="4.95934">
        <ele>201.5</ele>
        <time>2021-02-24T13:25:03Z</time>
      </trkpt>
      <trkpt lat="44.38267" lon="4.95917">
        <ele>201.3</ele>
        <time>2021-02-24T13:25:04Z</time>
      </trkpt>
      <trkpt lat="44.38267" lon="4.95917">
        <ele>201.3</ele>
        <time>2021-02-24T13:25:05Z</time>
      </trkpt>
      <trkpt lat="44.38265" lon="4.95908">
        <ele>201.1</ele>
        <time>2021-02-24T13:25:06Z</time>
      </trkpt>
      <trkpt lat="44.38265" lon="4.959">
        <ele>201</ele>
        <time>2021-02-24T13:25:07Z</time>
      </trkpt>
      <trkpt lat="44.38264" lon="4.95891">
        <ele>201</ele>
        <time>2021-02-24T13:25:08Z</time>
      </trkpt>
      <trkpt lat="44.38264" lon="4.95883">
        <ele>200.9</ele>
        <time>2021-02-24T13:25:09Z</time>
      </trkpt>
      <trkpt lat="44.38263" lon="4.95874">
        <ele>200.8</ele>
        <time>2021-02-24T13:25:10Z</time>
      </trkpt>
      <trkpt lat="44.38262" lon="4.95865">
        <ele>200.7</ele>
        <time>2021-02-24T13:25:11Z</time>
      </trkpt>
      <trkpt lat="44.38262" lon="4.95857">
        <ele>200.6</ele>
        <time>2021-02-24T13:25:12Z</time>
      </trkpt>
      <trkpt lat="44.38261" lon="4.95848">
        <ele>200.5</ele>
        <time>2021-02-24T13:25:13Z</time>
      </trkpt>
      <trkpt lat="44.3826" lon="4.95839">
        <ele>200.3</ele>
        <time>2021-02-24T13:25:14Z</time>
      </trkpt>
      <trkpt lat="44.3826" lon="4.95831">
        <ele>200.2</ele>
        <time>2021-02-24T13:25:15Z</time>
      </trkpt>
      <trkpt lat="44.38259" lon="4.95822">
        <ele>200.1</ele>
        <time>2021-02-24T13:25:16Z</time>
      </trkpt>
      <trkpt lat="44.38258" lon="4.95813">
        <ele>200</ele>
        <time>2021-02-24T13:25:17Z</time>
      </trkpt>
      <trkpt lat="44.38257" lon="4.95804">
        <ele>199.8</ele>
        <time>2021-02-24T13:25:18Z</time>
      </trkpt>
      <trkpt lat="44.38256" lon="4.95796">
        <ele>199.7</ele>
        <time>2021-02-24T13:25:19Z</time>
      </trkpt>
      <trkpt lat="44.38254" lon="4.95787">
        <ele>199.5</ele>
        <time>2021-02-24T13:25:20Z</time>
      </trkpt>
      <trkpt lat="44.38253" lon="4.95779">
        <ele>199.3</ele>
        <time>2021-02-24T13:25:21Z</time>
      </trkpt>
      <trkpt lat="44.38251" lon="4.9577">
        <ele>199.1</ele>
        <time>2021-02-24T13:25:22Z</time>
      </trkpt>
      <trkpt lat="44.38247" lon="4.95753">
        <ele>198.9</ele>
        <time>2021-02-24T13:25:23Z</time>
      </trkpt>
      <trkpt lat="44.38247" lon="4.95753">
        <ele>198.9</ele>
        <time>2021-02-24T13:25:24Z</time>
      </trkpt>
      <trkpt lat="44.38245" lon="4.95744">
        <ele>198.9</ele>
        <time>2021-02-24T13:25:25Z</time>
      </trkpt>
      <trkpt lat="44.3824" lon="4.95729">
        <ele>198.7</ele>
        <time>2021-02-24T13:25:26Z</time>
      </trkpt>
      <trkpt lat="44.38238" lon="4.95721">
        <ele>198.6</ele>
        <time>2021-02-24T13:25:27Z</time>
      </trkpt>
      <trkpt lat="44.38236" lon="4.95713">
        <ele>198.5</ele>
        <time>2021-02-24T13:25:28Z</time>
      </trkpt>
      <trkpt lat="44.38233" lon="4.95705">
        <ele>198.5</ele>
        <time>2021-02-24T13:25:29Z</time>
      </trkpt>
      <trkpt lat="44.38232" lon="4.95697">
        <ele>198.4</ele>
        <time>2021-02-24T13:25:30Z</time>
      </trkpt>
      <trkpt lat="44.3823" lon="4.95689">
        <ele>198.3</ele>
        <time>2021-02-24T13:25:31Z</time>
      </trkpt>
      <trkpt lat="44.38229" lon="4.95681">
        <ele>198.2</ele>
        <time>2021-02-24T13:25:32Z</time>
      </trkpt>
      <trkpt lat="44.38227" lon="4.95672">
        <ele>198.1</ele>
        <time>2021-02-24T13:25:33Z</time>
      </trkpt>
      <trkpt lat="44.38226" lon="4.95664">
        <ele>197.9</ele>
        <time>2021-02-24T13:25:34Z</time>
      </trkpt>
      <trkpt lat="44.38226" lon="4.95664">
        <ele>197.9</ele>
        <time>2021-02-24T13:25:35Z</time>
      </trkpt>
      <trkpt lat="44.38224" lon="4.95656">
        <ele>197.8</ele>
        <time>2021-02-24T13:25:36Z</time>
      </trkpt>
      <trkpt lat="44.38223" lon="4.95647">
        <ele>197.8</ele>
        <time>2021-02-24T13:25:37Z</time>
      </trkpt>
      <trkpt lat="44.38222" lon="4.95639">
        <ele>197.7</ele>
        <time>2021-02-24T13:25:38Z</time>
      </trkpt>
      <trkpt lat="44.38221" lon="4.95631">
        <ele>197.6</ele>
        <time>2021-02-24T13:25:39Z</time>
      </trkpt>
      <trkpt lat="44.3822" lon="4.95623">
        <ele>197.6</ele>
        <time>2021-02-24T13:25:40Z</time>
      </trkpt>
      <trkpt lat="44.3822" lon="4.95614">
        <ele>197.5</ele>
        <time>2021-02-24T13:25:41Z</time>
      </trkpt>
      <trkpt lat="44.38219" lon="4.95598">
        <ele>197.4</ele>
        <time>2021-02-24T13:25:42Z</time>
      </trkpt>
      <trkpt lat="44.38218" lon="4.95591">
        <ele>197.3</ele>
        <time>2021-02-24T13:25:43Z</time>
      </trkpt>
      <trkpt lat="44.38218" lon="4.95585">
        <ele>197.3</ele>
        <time>2021-02-24T13:25:44Z</time>
      </trkpt>
      <trkpt lat="44.38218" lon="4.95581">
        <ele>197.3</ele>
        <time>2021-02-24T13:25:45Z</time>
      </trkpt>
      <trkpt lat="44.38218" lon="4.95581">
        <ele>197.3</ele>
        <time>2021-02-24T13:25:46Z</time>
      </trkpt>
      <trkpt lat="44.38218" lon="4.95581">
        <ele>197.3</ele>
        <time>2021-02-24T13:25:47Z</time>
      </trkpt>
      <trkpt lat="44.38218" lon="4.95581">
        <ele>197.3</ele>
        <time>2021-02-24T13:25:48Z</time>
      </trkpt>
      <trkpt lat="44.38218" lon="4.95581">
        <ele>197.3</ele>
        <time>2021-02-24T13:25:49Z</time>
      </trkpt>
      <trkpt lat="44.38218" lon="4.95581">
        <ele>197.3</ele>
        <time>2021-02-24T13:25:50Z</time>
      </trkpt>
      <trkpt lat="44.38217" lon="4.95585">
        <ele>197.2</ele>
        <time>2021-02-24T13:25:51Z</time>
      </trkpt>
      <trkpt lat="44.38217" lon="4.95585">
        <ele>197.2</ele>
        <time>2021-02-24T13:25:52Z</time>
      </trkpt>
      <trkpt lat="44.38217" lon="4.95589">
        <ele>197.2</ele>
        <time>2021-02-24T13:25:53Z</time>
      </trkpt>
      <trkpt lat="44.38218" lon="4.95592">
        <ele>197.2</ele>
        <time>2021-02-24T13:25:54Z</time>
      </trkpt>
      <trkpt lat="44.38218" lon="4.95595">
        <ele>197.2</ele>
        <time>2021-02-24T13:25:55Z</time>
      </trkpt>
      <trkpt lat="44.38218" lon="4.95598">
        <ele>197.2</ele>
        <time>2021-02-24T13:25:56Z</time>
      </trkpt>
      <trkpt lat="44.38218" lon="4.95602">
        <ele>197.2</ele>
        <time>2021-02-24T13:25:57Z</time>
      </trkpt>
      <trkpt lat="44.38219" lon="4.95606">
        <ele>197.2</ele>
        <time>2021-02-24T13:25:58Z</time>
      </trkpt>
      <trkpt lat="44.38219" lon="4.95611">
        <ele>197.3</ele>
        <time>2021-02-24T13:25:59Z</time>
      </trkpt>
      <trkpt lat="44.38219" lon="4.95615">
        <ele>197.3</ele>
        <time>2021-02-24T13:26:00Z</time>
      </trkpt>
      <trkpt lat="44.3822" lon="4.9562">
        <ele>197.3</ele>
        <time>2021-02-24T13:26:01Z</time>
      </trkpt>
      <trkpt lat="44.3822" lon="4.9562">
        <ele>197.3</ele>
        <time>2021-02-24T13:26:02Z</time>
      </trkpt>
      <trkpt lat="44.3822" lon="4.95625">
        <ele>197.3</ele>
        <time>2021-02-24T13:26:03Z</time>
      </trkpt>
      <trkpt lat="44.3822" lon="4.95629">
        <ele>197.3</ele>
        <time>2021-02-24T13:26:04Z</time>
      </trkpt>
      <trkpt lat="44.38221" lon="4.95632">
        <ele>197.3</ele>
        <time>2021-02-24T13:26:05Z</time>
      </trkpt>
      <trkpt lat="44.38221" lon="4.95635">
        <ele>197.3</ele>
        <time>2021-02-24T13:26:06Z</time>
      </trkpt>
      <trkpt lat="44.38221" lon="4.95635">
        <ele>197.3</ele>
        <time>2021-02-24T13:26:07Z</time>
      </trkpt>
      <trkpt lat="44.38222" lon="4.95638">
        <ele>197.3</ele>
        <time>2021-02-24T13:26:08Z</time>
      </trkpt>
      <trkpt lat="44.38222" lon="4.95638">
        <ele>197.3</ele>
        <time>2021-02-24T13:26:09Z</time>
      </trkpt>
      <trkpt lat="44.38222" lon="4.95638">
        <ele>197.3</ele>
        <time>2021-02-24T13:26:10Z</time>
      </trkpt>
      <trkpt lat="44.38222" lon="4.95638">
        <ele>197.3</ele>
        <time>2021-02-24T13:26:11Z</time>
      </trkpt>
      <trkpt lat="44.38222" lon="4.95635">
        <ele>197.3</ele>
        <time>2021-02-24T13:26:12Z</time>
      </trkpt>
      <trkpt lat="44.38222" lon="4.95633">
        <ele>197.3</ele>
        <time>2021-02-24T13:26:13Z</time>
      </trkpt>
      <trkpt lat="44.38221" lon="4.95629">
        <ele>197.3</ele>
        <time>2021-02-24T13:26:14Z</time>
      </trkpt>
      <trkpt lat="44.3822" lon="4.95626">
        <ele>197.3</ele>
        <time>2021-02-24T13:26:15Z</time>
      </trkpt>
      <trkpt lat="44.38219" lon="4.95623">
        <ele>197.3</ele>
        <time>2021-02-24T13:26:16Z</time>
      </trkpt>
      <trkpt lat="44.38219" lon="4.95619">
        <ele>197.3</ele>
        <time>2021-02-24T13:26:17Z</time>
      </trkpt>
      <trkpt lat="44.38219" lon="4.95615">
        <ele>197.2</ele>
        <time>2021-02-24T13:26:18Z</time>
      </trkpt>
      <trkpt lat="44.38219" lon="4.95611">
        <ele>197.2</ele>
        <time>2021-02-24T13:26:19Z</time>
      </trkpt>
      <trkpt lat="44.38219" lon="4.95601">
        <ele>197.2</ele>
        <time>2021-02-24T13:26:20Z</time>
      </trkpt>
      <trkpt lat="44.38219" lon="4.95596">
        <ele>197.2</ele>
        <time>2021-02-24T13:26:21Z</time>
      </trkpt>
      <trkpt lat="44.38219" lon="4.95591">
        <ele>197.1</ele>
        <time>2021-02-24T13:26:22Z</time>
      </trkpt>
      <trkpt lat="44.38219" lon="4.95585">
        <ele>197.1</ele>
        <time>2021-02-24T13:26:23Z</time>
      </trkpt>
      <trkpt lat="44.38219" lon="4.95579">
        <ele>197.1</ele>
        <time>2021-02-24T13:26:24Z</time>
      </trkpt>
      <trkpt lat="44.38219" lon="4.95574">
        <ele>197.1</ele>
        <time>2021-02-24T13:26:25Z</time>
      </trkpt>
      <trkpt lat="44.38219" lon="4.95568">
        <ele>197.1</ele>
        <time>2021-02-24T13:26:26Z</time>
      </trkpt>
      <trkpt lat="44.38219" lon="4.95562">
        <ele>197</ele>
        <time>2021-02-24T13:26:27Z</time>
      </trkpt>
      <trkpt lat="44.38219" lon="4.95556">
        <ele>197</ele>
        <time>2021-02-24T13:26:28Z</time>
      </trkpt>
      <trkpt lat="44.38219" lon="4.9555">
        <ele>197</ele>
        <time>2021-02-24T13:26:29Z</time>
      </trkpt>
      <trkpt lat="44.38219" lon="4.95544">
        <ele>197</ele>
        <time>2021-02-24T13:26:30Z</time>
      </trkpt>
      <trkpt lat="44.38219" lon="4.95538">
        <ele>197</ele>
        <time>2021-02-24T13:26:31Z</time>
      </trkpt>
      <trkpt lat="44.38219" lon="4.95531">
        <ele>197</ele>
        <time>2021-02-24T13:26:32Z</time>
      </trkpt>
      <trkpt lat="44.38219" lon="4.95525">
        <ele>197</ele>
        <time>2021-02-24T13:26:33Z</time>
      </trkpt>
      <trkpt lat="44.38219" lon="4.95518">
        <ele>197</ele>
        <time>2021-02-24T13:26:34Z</time>
      </trkpt>
      <trkpt lat="44.3822" lon="4.95511">
        <ele>196.9</ele>
        <time>2021-02-24T13:26:35Z</time>
      </trkpt>
      <trkpt lat="44.3822" lon="4.95504">
        <ele>196.9</ele>
        <time>2021-02-24T13:26:36Z</time>
      </trkpt>
      <trkpt lat="44.3822" lon="4.95497">
        <ele>196.9</ele>
        <time>2021-02-24T13:26:37Z</time>
      </trkpt>
      <trkpt lat="44.3822" lon="4.9549">
        <ele>196.9</ele>
        <time>2021-02-24T13:26:38Z</time>
      </trkpt>
      <trkpt lat="44.3822" lon="4.95483">
        <ele>196.9</ele>
        <time>2021-02-24T13:26:39Z</time>
      </trkpt>
      <trkpt lat="44.3822" lon="4.95483">
        <ele>196.9</ele>
        <time>2021-02-24T13:26:40Z</time>
      </trkpt>
      <trkpt lat="44.3822" lon="4.95476">
        <ele>196.8</ele>
        <time>2021-02-24T13:26:41Z</time>
      </trkpt>
      <trkpt lat="44.3822" lon="4.95469">
        <ele>196.8</ele>
        <time>2021-02-24T13:26:42Z</time>
      </trkpt>
      <trkpt lat="44.3822" lon="4.95462">
        <ele>196.8</ele>
        <time>2021-02-24T13:26:43Z</time>
      </trkpt>
      <trkpt lat="44.3822" lon="4.95455">
        <ele>196.8</ele>
        <time>2021-02-24T13:26:44Z</time>
      </trkpt>
      <trkpt lat="44.38219" lon="4.95448">
        <ele>196.8</ele>
        <time>2021-02-24T13:26:45Z</time>
      </trkpt>
      <trkpt lat="44.38218" lon="4.95441">
        <ele>196.8</ele>
        <time>2021-02-24T13:26:46Z</time>
      </trkpt>
      <trkpt lat="44.38216" lon="4.95426">
        <ele>196.7</ele>
        <time>2021-02-24T13:26:47Z</time>
      </trkpt>
      <trkpt lat="44.38215" lon="4.95419">
        <ele>196.7</ele>
        <time>2021-02-24T13:26:48Z</time>
      </trkpt>
      <trkpt lat="44.38214" lon="4.95412">
        <ele>196.6</ele>
        <time>2021-02-24T13:26:49Z</time>
      </trkpt>
      <trkpt lat="44.38213" lon="4.95405">
        <ele>196.5</ele>
        <time>2021-02-24T13:26:50Z</time>
      </trkpt>
      <trkpt lat="44.38212" lon="4.95398">
        <ele>196.4</ele>
        <time>2021-02-24T13:26:51Z</time>
      </trkpt>
      <trkpt lat="44.38211" lon="4.9539">
        <ele>196.4</ele>
        <time>2021-02-24T13:26:52Z</time>
      </trkpt>
      <trkpt lat="44.3821" lon="4.95383">
        <ele>196.3</ele>
        <time>2021-02-24T13:26:53Z</time>
      </trkpt>
      <trkpt lat="44.3821" lon="4.95375">
        <ele>196.3</ele>
        <time>2021-02-24T13:26:54Z</time>
      </trkpt>
      <trkpt lat="44.38209" lon="4.95368">
        <ele>196.2</ele>
        <time>2021-02-24T13:26:55Z</time>
      </trkpt>
      <trkpt lat="44.38209" lon="4.9536">
        <ele>196.2</ele>
        <time>2021-02-24T13:26:56Z</time>
      </trkpt>
      <trkpt lat="44.38208" lon="4.95352">
        <ele>196.1</ele>
        <time>2021-02-24T13:26:57Z</time>
      </trkpt>
      <trkpt lat="44.38208" lon="4.95344">
        <ele>196</ele>
        <time>2021-02-24T13:26:58Z</time>
      </trkpt>
      <trkpt lat="44.38208" lon="4.95336">
        <ele>196</ele>
        <time>2021-02-24T13:26:59Z</time>
      </trkpt>
      <trkpt lat="44.38208" lon="4.95336">
        <ele>196</ele>
        <time>2021-02-24T13:27:00Z</time>
      </trkpt>
      <trkpt lat="44.38207" lon="4.9532">
        <ele>195.8</ele>
        <time>2021-02-24T13:27:01Z</time>
      </trkpt>
      <trkpt lat="44.38206" lon="4.95311">
        <ele>195.6</ele>
        <time>2021-02-24T13:27:02Z</time>
      </trkpt>
      <trkpt lat="44.38206" lon="4.95302">
        <ele>195.5</ele>
        <time>2021-02-24T13:27:03Z</time>
      </trkpt>
      <trkpt lat="44.38205" lon="4.95294">
        <ele>195.3</ele>
        <time>2021-02-24T13:27:04Z</time>
      </trkpt>
      <trkpt lat="44.38205" lon="4.95294">
        <ele>195.3</ele>
        <time>2021-02-24T13:27:05Z</time>
      </trkpt>
      <trkpt lat="44.38205" lon="4.95285">
        <ele>195.2</ele>
        <time>2021-02-24T13:27:06Z</time>
      </trkpt>
      <trkpt lat="44.38205" lon="4.95276">
        <ele>195.1</ele>
        <time>2021-02-24T13:27:07Z</time>
      </trkpt>
      <trkpt lat="44.38204" lon="4.95268">
        <ele>195.1</ele>
        <time>2021-02-24T13:27:08Z</time>
      </trkpt>
      <trkpt lat="44.38204" lon="4.95259">
        <ele>195</ele>
        <time>2021-02-24T13:27:09Z</time>
      </trkpt>
      <trkpt lat="44.38203" lon="4.9525">
        <ele>195</ele>
        <time>2021-02-24T13:27:10Z</time>
      </trkpt>
      <trkpt lat="44.38203" lon="4.9524">
        <ele>194.9</ele>
        <time>2021-02-24T13:27:11Z</time>
      </trkpt>
      <trkpt lat="44.38202" lon="4.95231">
        <ele>194.8</ele>
        <time>2021-02-24T13:27:12Z</time>
      </trkpt>
      <trkpt lat="44.38201" lon="4.95212">
        <ele>194.8</ele>
        <time>2021-02-24T13:27:13Z</time>
      </trkpt>
      <trkpt lat="44.38201" lon="4.95202">
        <ele>194.8</ele>
        <time>2021-02-24T13:27:14Z</time>
      </trkpt>
      <trkpt lat="44.38201" lon="4.95192">
        <ele>194.9</ele>
        <time>2021-02-24T13:27:15Z</time>
      </trkpt>
      <trkpt lat="44.382" lon="4.95183">
        <ele>194.9</ele>
        <time>2021-02-24T13:27:16Z</time>
      </trkpt>
      <trkpt lat="44.382" lon="4.95173">
        <ele>195</ele>
        <time>2021-02-24T13:27:17Z</time>
      </trkpt>
      <trkpt lat="44.382" lon="4.95173">
        <ele>195</ele>
        <time>2021-02-24T13:27:18Z</time>
      </trkpt>
      <trkpt lat="44.382" lon="4.95164">
        <ele>195</ele>
        <time>2021-02-24T13:27:19Z</time>
      </trkpt>
      <trkpt lat="44.38199" lon="4.95147">
        <ele>195.2</ele>
        <time>2021-02-24T13:27:20Z</time>
      </trkpt>
      <trkpt lat="44.38199" lon="4.95139">
        <ele>195.3</ele>
        <time>2021-02-24T13:27:21Z</time>
      </trkpt>
      <trkpt lat="44.38198" lon="4.95132">
        <ele>195.4</ele>
        <time>2021-02-24T13:27:22Z</time>
      </trkpt>
      <trkpt lat="44.38198" lon="4.95124">
        <ele>195.5</ele>
        <time>2021-02-24T13:27:23Z</time>
      </trkpt>
      <trkpt lat="44.38197" lon="4.95116">
        <ele>195.6</ele>
        <time>2021-02-24T13:27:24Z</time>
      </trkpt>
      <trkpt lat="44.38197" lon="4.95108">
        <ele>195.8</ele>
        <time>2021-02-24T13:27:25Z</time>
      </trkpt>
      <trkpt lat="44.38197" lon="4.95099">
        <ele>195.9</ele>
        <time>2021-02-24T13:27:26Z</time>
      </trkpt>
      <trkpt lat="44.38197" lon="4.95091">
        <ele>196</ele>
        <time>2021-02-24T13:27:27Z</time>
      </trkpt>
      <trkpt lat="44.38197" lon="4.95091">
        <ele>196</ele>
        <time>2021-02-24T13:27:28Z</time>
      </trkpt>
      <trkpt lat="44.38196" lon="4.95083">
        <ele>196.1</ele>
        <time>2021-02-24T13:27:29Z</time>
      </trkpt>
      <trkpt lat="44.38196" lon="4.95074">
        <ele>196.2</ele>
        <time>2021-02-24T13:27:30Z</time>
      </trkpt>
      <trkpt lat="44.38196" lon="4.95066">
        <ele>196.3</ele>
        <time>2021-02-24T13:27:31Z</time>
      </trkpt>
      <trkpt lat="44.38194" lon="4.95059">
        <ele>196.3</ele>
        <time>2021-02-24T13:27:32Z</time>
      </trkpt>
      <trkpt lat="44.38192" lon="4.95052">
        <ele>196.3</ele>
        <time>2021-02-24T13:27:33Z</time>
      </trkpt>
      <trkpt lat="44.3819" lon="4.95046">
        <ele>196.3</ele>
        <time>2021-02-24T13:27:34Z</time>
      </trkpt>
      <trkpt lat="44.38187" lon="4.9504">
        <ele>196.3</ele>
        <time>2021-02-24T13:27:35Z</time>
      </trkpt>
      <trkpt lat="44.38182" lon="4.95028">
        <ele>196.4</ele>
        <time>2021-02-24T13:27:36Z</time>
      </trkpt>
      <trkpt lat="44.38182" lon="4.95028">
        <ele>196.4</ele>
        <time>2021-02-24T13:27:37Z</time>
      </trkpt>
      <trkpt lat="44.38177" lon="4.95015">
        <ele>196.4</ele>
        <time>2021-02-24T13:27:38Z</time>
      </trkpt>
      <trkpt lat="44.38175" lon="4.95009">
        <ele>196.3</ele>
        <time>2021-02-24T13:27:39Z</time>
      </trkpt>
      <trkpt lat="44.38173" lon="4.95004">
        <ele>196.2</ele>
        <time>2021-02-24T13:27:40Z</time>
      </trkpt>
      <trkpt lat="44.38172" lon="4.94999">
        <ele>196.1</ele>
        <time>2021-02-24T13:27:41Z</time>
      </trkpt>
      <trkpt lat="44.38171" lon="4.94995">
        <ele>196.1</ele>
        <time>2021-02-24T13:27:42Z</time>
      </trkpt>
      <trkpt lat="44.3817" lon="4.94991">
        <ele>196</ele>
        <time>2021-02-24T13:27:43Z</time>
      </trkpt>
      <trkpt lat="44.38169" lon="4.94989">
        <ele>196</ele>
        <time>2021-02-24T13:27:44Z</time>
      </trkpt>
      <trkpt lat="44.38169" lon="4.94989">
        <ele>196</ele>
        <time>2021-02-24T13:27:45Z</time>
      </trkpt>
      <trkpt lat="44.38168" lon="4.94985">
        <ele>195.9</ele>
        <time>2021-02-24T13:27:46Z</time>
      </trkpt>
      <trkpt lat="44.38168" lon="4.94985">
        <ele>195.9</ele>
        <time>2021-02-24T13:27:47Z</time>
      </trkpt>
      <trkpt lat="44.38166" lon="4.94981">
        <ele>195.8</ele>
        <time>2021-02-24T13:27:48Z</time>
      </trkpt>
      <trkpt lat="44.38166" lon="4.94981">
        <ele>195.8</ele>
        <time>2021-02-24T13:27:49Z</time>
      </trkpt>
      <trkpt lat="44.38164" lon="4.94978">
        <ele>195.8</ele>
        <time>2021-02-24T13:27:50Z</time>
      </trkpt>
      <trkpt lat="44.38164" lon="4.94978">
        <ele>195.8</ele>
        <time>2021-02-24T13:27:51Z</time>
      </trkpt>
      <trkpt lat="44.38162" lon="4.94974">
        <ele>195.7</ele>
        <time>2021-02-24T13:27:52Z</time>
      </trkpt>
      <trkpt lat="44.38161" lon="4.94972">
        <ele>195.7</ele>
        <time>2021-02-24T13:27:53Z</time>
      </trkpt>
      <trkpt lat="44.3816" lon="4.9497">
        <ele>195.7</ele>
        <time>2021-02-24T13:27:54Z</time>
      </trkpt>
      <trkpt lat="44.38158" lon="4.94968">
        <ele>195.6</ele>
        <time>2021-02-24T13:27:55Z</time>
      </trkpt>
      <trkpt lat="44.38158" lon="4.94968">
        <ele>195.6</ele>
        <time>2021-02-24T13:27:56Z</time>
      </trkpt>
      <trkpt lat="44.38157" lon="4.94965">
        <ele>195.6</ele>
        <time>2021-02-24T13:27:57Z</time>
      </trkpt>
      <trkpt lat="44.38156" lon="4.94962">
        <ele>195.5</ele>
        <time>2021-02-24T13:27:58Z</time>
      </trkpt>
      <trkpt lat="44.38155" lon="4.9496">
        <ele>195.5</ele>
        <time>2021-02-24T13:27:59Z</time>
      </trkpt>
      <trkpt lat="44.38154" lon="4.94956">
        <ele>195.4</ele>
        <time>2021-02-24T13:28:00Z</time>
      </trkpt>
      <trkpt lat="44.38152" lon="4.94953">
        <ele>195.3</ele>
        <time>2021-02-24T13:28:01Z</time>
      </trkpt>
      <trkpt lat="44.38151" lon="4.9495">
        <ele>195.3</ele>
        <time>2021-02-24T13:28:02Z</time>
      </trkpt>
      <trkpt lat="44.38149" lon="4.94947">
        <ele>195.2</ele>
        <time>2021-02-24T13:28:03Z</time>
      </trkpt>
      <trkpt lat="44.38148" lon="4.94943">
        <ele>195.1</ele>
        <time>2021-02-24T13:28:04Z</time>
      </trkpt>
      <trkpt lat="44.38146" lon="4.94938">
        <ele>195</ele>
        <time>2021-02-24T13:28:05Z</time>
      </trkpt>
      <trkpt lat="44.38144" lon="4.94934">
        <ele>194.9</ele>
        <time>2021-02-24T13:28:06Z</time>
      </trkpt>
      <trkpt lat="44.38142" lon="4.94929">
        <ele>194.8</ele>
        <time>2021-02-24T13:28:07Z</time>
      </trkpt>
      <trkpt lat="44.38141" lon="4.94925">
        <ele>194.7</ele>
        <time>2021-02-24T13:28:08Z</time>
      </trkpt>
      <trkpt lat="44.38138" lon="4.9492">
        <ele>194.6</ele>
        <time>2021-02-24T13:28:09Z</time>
      </trkpt>
      <trkpt lat="44.38136" lon="4.94914">
        <ele>194.5</ele>
        <time>2021-02-24T13:28:10Z</time>
      </trkpt>
      <trkpt lat="44.38133" lon="4.94909">
        <ele>194.4</ele>
        <time>2021-02-24T13:28:11Z</time>
      </trkpt>
      <trkpt lat="44.38131" lon="4.94903">
        <ele>194.4</ele>
        <time>2021-02-24T13:28:12Z</time>
      </trkpt>
      <trkpt lat="44.38129" lon="4.94898">
        <ele>194.4</ele>
        <time>2021-02-24T13:28:13Z</time>
      </trkpt>
      <trkpt lat="44.38123" lon="4.94885">
        <ele>194.5</ele>
        <time>2021-02-24T13:28:14Z</time>
      </trkpt>
      <trkpt lat="44.38121" lon="4.94878">
        <ele>194.5</ele>
        <time>2021-02-24T13:28:15Z</time>
      </trkpt>
      <trkpt lat="44.38118" lon="4.94871">
        <ele>194.5</ele>
        <time>2021-02-24T13:28:16Z</time>
      </trkpt>
      <trkpt lat="44.38116" lon="4.94864">
        <ele>194.4</ele>
        <time>2021-02-24T13:28:17Z</time>
      </trkpt>
      <trkpt lat="44.38113" lon="4.94857">
        <ele>194.3</ele>
        <time>2021-02-24T13:28:18Z</time>
      </trkpt>
      <trkpt lat="44.3811" lon="4.9485">
        <ele>194.2</ele>
        <time>2021-02-24T13:28:19Z</time>
      </trkpt>
      <trkpt lat="44.38108" lon="4.94842">
        <ele>194.1</ele>
        <time>2021-02-24T13:28:20Z</time>
      </trkpt>
      <trkpt lat="44.38108" lon="4.94842">
        <ele>194.1</ele>
        <time>2021-02-24T13:28:21Z</time>
      </trkpt>
      <trkpt lat="44.38105" lon="4.94835">
        <ele>193.9</ele>
        <time>2021-02-24T13:28:22Z</time>
      </trkpt>
      <trkpt lat="44.38103" lon="4.94827">
        <ele>193.9</ele>
        <time>2021-02-24T13:28:23Z</time>
      </trkpt>
      <trkpt lat="44.38101" lon="4.94819">
        <ele>193.8</ele>
        <time>2021-02-24T13:28:24Z</time>
      </trkpt>
      <trkpt lat="44.38099" lon="4.94811">
        <ele>193.7</ele>
        <time>2021-02-24T13:28:25Z</time>
      </trkpt>
      <trkpt lat="44.38096" lon="4.94803">
        <ele>193.7</ele>
        <time>2021-02-24T13:28:26Z</time>
      </trkpt>
      <trkpt lat="44.38094" lon="4.94794">
        <ele>193.6</ele>
        <time>2021-02-24T13:28:27Z</time>
      </trkpt>
      <trkpt lat="44.38092" lon="4.94785">
        <ele>193.6</ele>
        <time>2021-02-24T13:28:28Z</time>
      </trkpt>
      <trkpt lat="44.38088" lon="4.94767">
        <ele>193.5</ele>
        <time>2021-02-24T13:28:29Z</time>
      </trkpt>
      <trkpt lat="44.38086" lon="4.94758">
        <ele>193.4</ele>
        <time>2021-02-24T13:28:30Z</time>
      </trkpt>
      <trkpt lat="44.38085" lon="4.94749">
        <ele>193.4</ele>
        <time>2021-02-24T13:28:31Z</time>
      </trkpt>
      <trkpt lat="44.38084" lon="4.9474">
        <ele>193.4</ele>
        <time>2021-02-24T13:28:32Z</time>
      </trkpt>
      <trkpt lat="44.38083" lon="4.9473">
        <ele>193.4</ele>
        <time>2021-02-24T13:28:33Z</time>
      </trkpt>
      <trkpt lat="44.38083" lon="4.9473">
        <ele>193.4</ele>
        <time>2021-02-24T13:28:34Z</time>
      </trkpt>
      <trkpt lat="44.38082" lon="4.94721">
        <ele>193.4</ele>
        <time>2021-02-24T13:28:35Z</time>
      </trkpt>
      <trkpt lat="44.38081" lon="4.94712">
        <ele>193.3</ele>
        <time>2021-02-24T13:28:36Z</time>
      </trkpt>
      <trkpt lat="44.38081" lon="4.94694">
        <ele>193.3</ele>
        <time>2021-02-24T13:28:37Z</time>
      </trkpt>
      <trkpt lat="44.38081" lon="4.94685">
        <ele>193.2</ele>
        <time>2021-02-24T13:28:38Z</time>
      </trkpt>
      <trkpt lat="44.38082" lon="4.94676">
        <ele>193.2</ele>
        <time>2021-02-24T13:28:39Z</time>
      </trkpt>
      <trkpt lat="44.38082" lon="4.94667">
        <ele>193.3</ele>
        <time>2021-02-24T13:28:40Z</time>
      </trkpt>
      <trkpt lat="44.38082" lon="4.94658">
        <ele>193.3</ele>
        <time>2021-02-24T13:28:41Z</time>
      </trkpt>
      <trkpt lat="44.38082" lon="4.94649">
        <ele>193.3</ele>
        <time>2021-02-24T13:28:42Z</time>
      </trkpt>
      <trkpt lat="44.38082" lon="4.9464">
        <ele>193.3</ele>
        <time>2021-02-24T13:28:43Z</time>
      </trkpt>
      <trkpt lat="44.38082" lon="4.94632">
        <ele>193.3</ele>
        <time>2021-02-24T13:28:44Z</time>
      </trkpt>
      <trkpt lat="44.38081" lon="4.94623">
        <ele>193.3</ele>
        <time>2021-02-24T13:28:45Z</time>
      </trkpt>
      <trkpt lat="44.38079" lon="4.94615">
        <ele>193.3</ele>
        <time>2021-02-24T13:28:46Z</time>
      </trkpt>
      <trkpt lat="44.38077" lon="4.94608">
        <ele>193.2</ele>
        <time>2021-02-24T13:28:47Z</time>
      </trkpt>
      <trkpt lat="44.38075" lon="4.946">
        <ele>193.2</ele>
        <time>2021-02-24T13:28:48Z</time>
      </trkpt>
      <trkpt lat="44.38073" lon="4.94591">
        <ele>193</ele>
        <time>2021-02-24T13:28:49Z</time>
      </trkpt>
      <trkpt lat="44.38072" lon="4.94583">
        <ele>192.9</ele>
        <time>2021-02-24T13:28:50Z</time>
      </trkpt>
      <trkpt lat="44.38071" lon="4.94574">
        <ele>192.6</ele>
        <time>2021-02-24T13:28:51Z</time>
      </trkpt>
      <trkpt lat="44.3807" lon="4.94565">
        <ele>192.2</ele>
        <time>2021-02-24T13:28:52Z</time>
      </trkpt>
      <trkpt lat="44.3807" lon="4.94565">
        <ele>192.2</ele>
        <time>2021-02-24T13:28:53Z</time>
      </trkpt>
      <trkpt lat="44.38068" lon="4.94555">
        <ele>191.7</ele>
        <time>2021-02-24T13:28:54Z</time>
      </trkpt>
      <trkpt lat="44.38066" lon="4.94546">
        <ele>191.1</ele>
        <time>2021-02-24T13:28:55Z</time>
      </trkpt>
      <trkpt lat="44.38063" lon="4.94536">
        <ele>190.5</ele>
        <time>2021-02-24T13:28:56Z</time>
      </trkpt>
      <trkpt lat="44.3806" lon="4.94528">
        <ele>189.9</ele>
        <time>2021-02-24T13:28:57Z</time>
      </trkpt>
      <trkpt lat="44.38056" lon="4.94519">
        <ele>189.4</ele>
        <time>2021-02-24T13:28:58Z</time>
      </trkpt>
      <trkpt lat="44.38052" lon="4.9451">
        <ele>188.9</ele>
        <time>2021-02-24T13:28:59Z</time>
      </trkpt>
      <trkpt lat="44.38047" lon="4.94488">
        <ele>188.2</ele>
        <time>2021-02-24T13:29:00Z</time>
      </trkpt>
      <trkpt lat="44.38045" lon="4.94476">
        <ele>187.9</ele>
        <time>2021-02-24T13:29:01Z</time>
      </trkpt>
      <trkpt lat="44.38043" lon="4.94465">
        <ele>187.7</ele>
        <time>2021-02-24T13:29:02Z</time>
      </trkpt>
      <trkpt lat="44.38041" lon="4.94453">
        <ele>187.5</ele>
        <time>2021-02-24T13:29:03Z</time>
      </trkpt>
      <trkpt lat="44.3804" lon="4.94442">
        <ele>187.3</ele>
        <time>2021-02-24T13:29:04Z</time>
      </trkpt>
      <trkpt lat="44.38038" lon="4.94431">
        <ele>187.3</ele>
        <time>2021-02-24T13:29:05Z</time>
      </trkpt>
      <trkpt lat="44.38038" lon="4.94431">
        <ele>187.3</ele>
        <time>2021-02-24T13:29:06Z</time>
      </trkpt>
      <trkpt lat="44.38036" lon="4.9442">
        <ele>187.2</ele>
        <time>2021-02-24T13:29:07Z</time>
      </trkpt>
      <trkpt lat="44.38035" lon="4.9441">
        <ele>187.2</ele>
        <time>2021-02-24T13:29:08Z</time>
      </trkpt>
      <trkpt lat="44.38033" lon="4.94399">
        <ele>187.2</ele>
        <time>2021-02-24T13:29:09Z</time>
      </trkpt>
      <trkpt lat="44.38032" lon="4.9439">
        <ele>187.3</ele>
        <time>2021-02-24T13:29:10Z</time>
      </trkpt>
      <trkpt lat="44.3803" lon="4.94371">
        <ele>187.3</ele>
        <time>2021-02-24T13:29:11Z</time>
      </trkpt>
      <trkpt lat="44.38029" lon="4.94363">
        <ele>187.2</ele>
        <time>2021-02-24T13:29:12Z</time>
      </trkpt>
      <trkpt lat="44.38028" lon="4.94355">
        <ele>187.2</ele>
        <time>2021-02-24T13:29:13Z</time>
      </trkpt>
      <trkpt lat="44.38026" lon="4.94349">
        <ele>187.2</ele>
        <time>2021-02-24T13:29:14Z</time>
      </trkpt>
      <trkpt lat="44.38024" lon="4.94343">
        <ele>187.1</ele>
        <time>2021-02-24T13:29:15Z</time>
      </trkpt>
      <trkpt lat="44.3802" lon="4.94338">
        <ele>187.1</ele>
        <time>2021-02-24T13:29:16Z</time>
      </trkpt>
      <trkpt lat="44.38016" lon="4.94334">
        <ele>187</ele>
        <time>2021-02-24T13:29:17Z</time>
      </trkpt>
      <trkpt lat="44.38012" lon="4.94329">
        <ele>186.9</ele>
        <time>2021-02-24T13:29:18Z</time>
      </trkpt>
      <trkpt lat="44.38009" lon="4.94323">
        <ele>186.8</ele>
        <time>2021-02-24T13:29:19Z</time>
      </trkpt>
      <trkpt lat="44.38008" lon="4.94316">
        <ele>186.7</ele>
        <time>2021-02-24T13:29:20Z</time>
      </trkpt>
      <trkpt lat="44.38008" lon="4.94308">
        <ele>186.5</ele>
        <time>2021-02-24T13:29:21Z</time>
      </trkpt>
      <trkpt lat="44.38008" lon="4.94308">
        <ele>186.5</ele>
        <time>2021-02-24T13:29:22Z</time>
      </trkpt>
      <trkpt lat="44.3801" lon="4.94301">
        <ele>186.4</ele>
        <time>2021-02-24T13:29:23Z</time>
      </trkpt>
      <trkpt lat="44.38011" lon="4.94293">
        <ele>186.3</ele>
        <time>2021-02-24T13:29:24Z</time>
      </trkpt>
      <trkpt lat="44.38012" lon="4.94284">
        <ele>186.2</ele>
        <time>2021-02-24T13:29:25Z</time>
      </trkpt>
      <trkpt lat="44.38013" lon="4.94276">
        <ele>186.2</ele>
        <time>2021-02-24T13:29:26Z</time>
      </trkpt>
      <trkpt lat="44.38013" lon="4.94267">
        <ele>186.1</ele>
        <time>2021-02-24T13:29:27Z</time>
      </trkpt>
      <trkpt lat="44.38013" lon="4.94257">
        <ele>186.1</ele>
        <time>2021-02-24T13:29:28Z</time>
      </trkpt>
      <trkpt lat="44.38014" lon="4.94248">
        <ele>186</ele>
        <time>2021-02-24T13:29:29Z</time>
      </trkpt>
      <trkpt lat="44.38013" lon="4.94239">
        <ele>186</ele>
        <time>2021-02-24T13:29:30Z</time>
      </trkpt>
      <trkpt lat="44.38013" lon="4.9423">
        <ele>185.9</ele>
        <time>2021-02-24T13:29:31Z</time>
      </trkpt>
      <trkpt lat="44.38013" lon="4.94221">
        <ele>185.8</ele>
        <time>2021-02-24T13:29:32Z</time>
      </trkpt>
      <trkpt lat="44.38014" lon="4.94211">
        <ele>185.7</ele>
        <time>2021-02-24T13:29:33Z</time>
      </trkpt>
      <trkpt lat="44.38014" lon="4.94202">
        <ele>185.6</ele>
        <time>2021-02-24T13:29:34Z</time>
      </trkpt>
      <trkpt lat="44.38014" lon="4.94192">
        <ele>185.4</ele>
        <time>2021-02-24T13:29:35Z</time>
      </trkpt>
      <trkpt lat="44.38014" lon="4.94183">
        <ele>185.2</ele>
        <time>2021-02-24T13:29:36Z</time>
      </trkpt>
      <trkpt lat="44.38014" lon="4.94164">
        <ele>184.9</ele>
        <time>2021-02-24T13:29:37Z</time>
      </trkpt>
      <trkpt lat="44.38014" lon="4.94154">
        <ele>184.8</ele>
        <time>2021-02-24T13:29:38Z</time>
      </trkpt>
      <trkpt lat="44.38013" lon="4.94144">
        <ele>184.6</ele>
        <time>2021-02-24T13:29:39Z</time>
      </trkpt>
      <trkpt lat="44.38012" lon="4.94135">
        <ele>184.4</ele>
        <time>2021-02-24T13:29:40Z</time>
      </trkpt>
      <trkpt lat="44.38011" lon="4.94125">
        <ele>184.1</ele>
        <time>2021-02-24T13:29:41Z</time>
      </trkpt>
      <trkpt lat="44.3801" lon="4.94114">
        <ele>184</ele>
        <time>2021-02-24T13:29:42Z</time>
      </trkpt>
      <trkpt lat="44.38008" lon="4.94104">
        <ele>183.8</ele>
        <time>2021-02-24T13:29:43Z</time>
      </trkpt>
      <trkpt lat="44.38008" lon="4.94104">
        <ele>183.8</ele>
        <time>2021-02-24T13:29:44Z</time>
      </trkpt>
      <trkpt lat="44.38006" lon="4.94094">
        <ele>183.6</ele>
        <time>2021-02-24T13:29:45Z</time>
      </trkpt>
      <trkpt lat="44.38004" lon="4.94083">
        <ele>183.5</ele>
        <time>2021-02-24T13:29:46Z</time>
      </trkpt>
      <trkpt lat="44.38002" lon="4.94073">
        <ele>183.5</ele>
        <time>2021-02-24T13:29:47Z</time>
      </trkpt>
      <trkpt lat="44.37995" lon="4.94053">
        <ele>183.7</ele>
        <time>2021-02-24T13:29:48Z</time>
      </trkpt>
      <trkpt lat="44.37991" lon="4.94044">
        <ele>183.6</ele>
        <time>2021-02-24T13:29:49Z</time>
      </trkpt>
      <trkpt lat="44.37988" lon="4.94034">
        <ele>183.6</ele>
        <time>2021-02-24T13:29:50Z</time>
      </trkpt>
      <trkpt lat="44.37983" lon="4.94026">
        <ele>183.5</ele>
        <time>2021-02-24T13:29:51Z</time>
      </trkpt>
      <trkpt lat="44.37979" lon="4.94018">
        <ele>183.4</ele>
        <time>2021-02-24T13:29:52Z</time>
      </trkpt>
      <trkpt lat="44.37974" lon="4.9401">
        <ele>183.3</ele>
        <time>2021-02-24T13:29:53Z</time>
      </trkpt>
      <trkpt lat="44.37969" lon="4.94003">
        <ele>183.3</ele>
        <time>2021-02-24T13:29:54Z</time>
      </trkpt>
      <trkpt lat="44.37964" lon="4.93995">
        <ele>183.3</ele>
        <time>2021-02-24T13:29:55Z</time>
      </trkpt>
      <trkpt lat="44.3796" lon="4.93988">
        <ele>183.4</ele>
        <time>2021-02-24T13:29:56Z</time>
      </trkpt>
      <trkpt lat="44.37957" lon="4.93981">
        <ele>183.5</ele>
        <time>2021-02-24T13:29:57Z</time>
      </trkpt>
      <trkpt lat="44.37955" lon="4.93973">
        <ele>183.5</ele>
        <time>2021-02-24T13:29:58Z</time>
      </trkpt>
      <trkpt lat="44.37955" lon="4.93966">
        <ele>183.7</ele>
        <time>2021-02-24T13:29:59Z</time>
      </trkpt>
      <trkpt lat="44.37957" lon="4.93959">
        <ele>183.7</ele>
        <time>2021-02-24T13:30:00Z</time>
      </trkpt>
      <trkpt lat="44.37957" lon="4.93959">
        <ele>183.7</ele>
        <time>2021-02-24T13:30:01Z</time>
      </trkpt>
      <trkpt lat="44.37965" lon="4.93949">
        <ele>183.6</ele>
        <time>2021-02-24T13:30:02Z</time>
      </trkpt>
      <trkpt lat="44.37971" lon="4.93947">
        <ele>183.6</ele>
        <time>2021-02-24T13:30:03Z</time>
      </trkpt>
      <trkpt lat="44.37976" lon="4.93944">
        <ele>183.6</ele>
        <time>2021-02-24T13:30:04Z</time>
      </trkpt>
      <trkpt lat="44.37982" lon="4.93941">
        <ele>183.6</ele>
        <time>2021-02-24T13:30:05Z</time>
      </trkpt>
      <trkpt lat="44.37982" lon="4.93941">
        <ele>183.6</ele>
        <time>2021-02-24T13:30:06Z</time>
      </trkpt>
      <trkpt lat="44.37988" lon="4.93937">
        <ele>183.6</ele>
        <time>2021-02-24T13:30:07Z</time>
      </trkpt>
      <trkpt lat="44.38001" lon="4.93928">
        <ele>183.6</ele>
        <time>2021-02-24T13:30:08Z</time>
      </trkpt>
      <trkpt lat="44.38007" lon="4.93923">
        <ele>183.5</ele>
        <time>2021-02-24T13:30:09Z</time>
      </trkpt>
      <trkpt lat="44.38012" lon="4.93918">
        <ele>183.5</ele>
        <time>2021-02-24T13:30:10Z</time>
      </trkpt>
      <trkpt lat="44.38018" lon="4.93913">
        <ele>183.5</ele>
        <time>2021-02-24T13:30:11Z</time>
      </trkpt>
      <trkpt lat="44.38023" lon="4.93907">
        <ele>183.5</ele>
        <time>2021-02-24T13:30:12Z</time>
      </trkpt>
      <trkpt lat="44.38029" lon="4.93902">
        <ele>183.5</ele>
        <time>2021-02-24T13:30:13Z</time>
      </trkpt>
      <trkpt lat="44.38029" lon="4.93902">
        <ele>183.5</ele>
        <time>2021-02-24T13:30:14Z</time>
      </trkpt>
      <trkpt lat="44.38035" lon="4.93896">
        <ele>183.6</ele>
        <time>2021-02-24T13:30:15Z</time>
      </trkpt>
      <trkpt lat="44.38041" lon="4.93891">
        <ele>183.6</ele>
        <time>2021-02-24T13:30:16Z</time>
      </trkpt>
      <trkpt lat="44.38047" lon="4.93886">
        <ele>183.7</ele>
        <time>2021-02-24T13:30:17Z</time>
      </trkpt>
      <trkpt lat="44.38053" lon="4.93881">
        <ele>183.7</ele>
        <time>2021-02-24T13:30:18Z</time>
      </trkpt>
      <trkpt lat="44.38059" lon="4.93875">
        <ele>183.7</ele>
        <time>2021-02-24T13:30:19Z</time>
      </trkpt>
      <trkpt lat="44.38064" lon="4.93869">
        <ele>183.7</ele>
        <time>2021-02-24T13:30:20Z</time>
      </trkpt>
      <trkpt lat="44.38075" lon="4.93858">
        <ele>183.7</ele>
        <time>2021-02-24T13:30:21Z</time>
      </trkpt>
      <trkpt lat="44.38081" lon="4.93853">
        <ele>183.6</ele>
        <time>2021-02-24T13:30:22Z</time>
      </trkpt>
      <trkpt lat="44.38087" lon="4.93848">
        <ele>183.6</ele>
        <time>2021-02-24T13:30:23Z</time>
      </trkpt>
      <trkpt lat="44.38093" lon="4.93842">
        <ele>183.7</ele>
        <time>2021-02-24T13:30:24Z</time>
      </trkpt>
      <trkpt lat="44.38098" lon="4.93837">
        <ele>183.7</ele>
        <time>2021-02-24T13:30:25Z</time>
      </trkpt>
      <trkpt lat="44.38105" lon="4.93832">
        <ele>183.7</ele>
        <time>2021-02-24T13:30:26Z</time>
      </trkpt>
      <trkpt lat="44.38111" lon="4.93826">
        <ele>183.8</ele>
        <time>2021-02-24T13:30:27Z</time>
      </trkpt>
      <trkpt lat="44.38118" lon="4.93821">
        <ele>183.9</ele>
        <time>2021-02-24T13:30:28Z</time>
      </trkpt>
      <trkpt lat="44.38125" lon="4.93817">
        <ele>184</ele>
        <time>2021-02-24T13:30:29Z</time>
      </trkpt>
      <trkpt lat="44.38132" lon="4.93813">
        <ele>184.1</ele>
        <time>2021-02-24T13:30:30Z</time>
      </trkpt>
      <trkpt lat="44.38139" lon="4.93809">
        <ele>184.2</ele>
        <time>2021-02-24T13:30:31Z</time>
      </trkpt>
      <trkpt lat="44.38146" lon="4.93806">
        <ele>184.4</ele>
        <time>2021-02-24T13:30:32Z</time>
      </trkpt>
      <trkpt lat="44.38153" lon="4.93803">
        <ele>184.5</ele>
        <time>2021-02-24T13:30:33Z</time>
      </trkpt>
      <trkpt lat="44.3816" lon="4.938">
        <ele>184.5</ele>
        <time>2021-02-24T13:30:34Z</time>
      </trkpt>
      <trkpt lat="44.38167" lon="4.93797">
        <ele>184.6</ele>
        <time>2021-02-24T13:30:35Z</time>
      </trkpt>
      <trkpt lat="44.38174" lon="4.93794">
        <ele>184.6</ele>
        <time>2021-02-24T13:30:36Z</time>
      </trkpt>
      <trkpt lat="44.38182" lon="4.93792">
        <ele>184.5</ele>
        <time>2021-02-24T13:30:37Z</time>
      </trkpt>
      <trkpt lat="44.38189" lon="4.9379">
        <ele>184.5</ele>
        <time>2021-02-24T13:30:38Z</time>
      </trkpt>
      <trkpt lat="44.38197" lon="4.93789">
        <ele>184.4</ele>
        <time>2021-02-24T13:30:39Z</time>
      </trkpt>
      <trkpt lat="44.38205" lon="4.93788">
        <ele>184.3</ele>
        <time>2021-02-24T13:30:40Z</time>
      </trkpt>
      <trkpt lat="44.38205" lon="4.93788">
        <ele>184.3</ele>
        <time>2021-02-24T13:30:41Z</time>
      </trkpt>
      <trkpt lat="44.38213" lon="4.93787">
        <ele>184.2</ele>
        <time>2021-02-24T13:30:42Z</time>
      </trkpt>
      <trkpt lat="44.38222" lon="4.93786">
        <ele>184.2</ele>
        <time>2021-02-24T13:30:43Z</time>
      </trkpt>
      <trkpt lat="44.3823" lon="4.93785">
        <ele>184.1</ele>
        <time>2021-02-24T13:30:44Z</time>
      </trkpt>
      <trkpt lat="44.38238" lon="4.93784">
        <ele>184.1</ele>
        <time>2021-02-24T13:30:45Z</time>
      </trkpt>
      <trkpt lat="44.38253" lon="4.93782">
        <ele>184.1</ele>
        <time>2021-02-24T13:30:46Z</time>
      </trkpt>
      <trkpt lat="44.38261" lon="4.93781">
        <ele>184.1</ele>
        <time>2021-02-24T13:30:47Z</time>
      </trkpt>
      <trkpt lat="44.38261" lon="4.93781">
        <ele>184.1</ele>
        <time>2021-02-24T13:30:48Z</time>
      </trkpt>
      <trkpt lat="44.38268" lon="4.93781">
        <ele>184.2</ele>
        <time>2021-02-24T13:30:49Z</time>
      </trkpt>
      <trkpt lat="44.38276" lon="4.93781">
        <ele>184.2</ele>
        <time>2021-02-24T13:30:50Z</time>
      </trkpt>
      <trkpt lat="44.38283" lon="4.93781">
        <ele>184.2</ele>
        <time>2021-02-24T13:30:51Z</time>
      </trkpt>
      <trkpt lat="44.38291" lon="4.93781">
        <ele>184.3</ele>
        <time>2021-02-24T13:30:52Z</time>
      </trkpt>
      <trkpt lat="44.38298" lon="4.93782">
        <ele>184.3</ele>
        <time>2021-02-24T13:30:53Z</time>
      </trkpt>
      <trkpt lat="44.38313" lon="4.93784">
        <ele>184.4</ele>
        <time>2021-02-24T13:30:54Z</time>
      </trkpt>
      <trkpt lat="44.38321" lon="4.93785">
        <ele>184.3</ele>
        <time>2021-02-24T13:30:55Z</time>
      </trkpt>
      <trkpt lat="44.38328" lon="4.93784">
        <ele>184.3</ele>
        <time>2021-02-24T13:30:56Z</time>
      </trkpt>
      <trkpt lat="44.38336" lon="4.93783">
        <ele>184.2</ele>
        <time>2021-02-24T13:30:57Z</time>
      </trkpt>
      <trkpt lat="44.38343" lon="4.93781">
        <ele>184.2</ele>
        <time>2021-02-24T13:30:58Z</time>
      </trkpt>
      <trkpt lat="44.3835" lon="4.93777">
        <ele>184.2</ele>
        <time>2021-02-24T13:30:59Z</time>
      </trkpt>
      <trkpt lat="44.38357" lon="4.93773">
        <ele>184.2</ele>
        <time>2021-02-24T13:31:00Z</time>
      </trkpt>
      <trkpt lat="44.38357" lon="4.93773">
        <ele>184.2</ele>
        <time>2021-02-24T13:31:01Z</time>
      </trkpt>
      <trkpt lat="44.38364" lon="4.93769">
        <ele>184.2</ele>
        <time>2021-02-24T13:31:02Z</time>
      </trkpt>
      <trkpt lat="44.3837" lon="4.93764">
        <ele>184.3</ele>
        <time>2021-02-24T13:31:03Z</time>
      </trkpt>
      <trkpt lat="44.38377" lon="4.9376">
        <ele>184.3</ele>
        <time>2021-02-24T13:31:04Z</time>
      </trkpt>
      <trkpt lat="44.38389" lon="4.9375">
        <ele>184.3</ele>
        <time>2021-02-24T13:31:05Z</time>
      </trkpt>
      <trkpt lat="44.38389" lon="4.9375">
        <ele>184.3</ele>
        <time>2021-02-24T13:31:06Z</time>
      </trkpt>
      <trkpt lat="44.38395" lon="4.93746">
        <ele>184.4</ele>
        <time>2021-02-24T13:31:07Z</time>
      </trkpt>
      <trkpt lat="44.38407" lon="4.93737">
        <ele>184.4</ele>
        <time>2021-02-24T13:31:08Z</time>
      </trkpt>
      <trkpt lat="44.38413" lon="4.93731">
        <ele>184.4</ele>
        <time>2021-02-24T13:31:09Z</time>
      </trkpt>
      <trkpt lat="44.38419" lon="4.93726">
        <ele>184.4</ele>
        <time>2021-02-24T13:31:10Z</time>
      </trkpt>
      <trkpt lat="44.38424" lon="4.9372">
        <ele>184.4</ele>
        <time>2021-02-24T13:31:11Z</time>
      </trkpt>
      <trkpt lat="44.38429" lon="4.93714">
        <ele>184.3</ele>
        <time>2021-02-24T13:31:12Z</time>
      </trkpt>
      <trkpt lat="44.38434" lon="4.93709">
        <ele>184.3</ele>
        <time>2021-02-24T13:31:13Z</time>
      </trkpt>
      <trkpt lat="44.3844" lon="4.93703">
        <ele>184.3</ele>
        <time>2021-02-24T13:31:14Z</time>
      </trkpt>
      <trkpt lat="44.3844" lon="4.93703">
        <ele>184.3</ele>
        <time>2021-02-24T13:31:15Z</time>
      </trkpt>
      <trkpt lat="44.38445" lon="4.93698">
        <ele>184.3</ele>
        <time>2021-02-24T13:31:16Z</time>
      </trkpt>
      <trkpt lat="44.3845" lon="4.93692">
        <ele>184.3</ele>
        <time>2021-02-24T13:31:17Z</time>
      </trkpt>
      <trkpt lat="44.38455" lon="4.93687">
        <ele>184.2</ele>
        <time>2021-02-24T13:31:18Z</time>
      </trkpt>
      <trkpt lat="44.3846" lon="4.93682">
        <ele>184.2</ele>
        <time>2021-02-24T13:31:19Z</time>
      </trkpt>
      <trkpt lat="44.38465" lon="4.93677">
        <ele>184.2</ele>
        <time>2021-02-24T13:31:20Z</time>
      </trkpt>
      <trkpt lat="44.3847" lon="4.93672">
        <ele>184.2</ele>
        <time>2021-02-24T13:31:21Z</time>
      </trkpt>
      <trkpt lat="44.38474" lon="4.93666">
        <ele>184.3</ele>
        <time>2021-02-24T13:31:22Z</time>
      </trkpt>
      <trkpt lat="44.38484" lon="4.93656">
        <ele>184.3</ele>
        <time>2021-02-24T13:31:23Z</time>
      </trkpt>
      <trkpt lat="44.38488" lon="4.93651">
        <ele>184.4</ele>
        <time>2021-02-24T13:31:24Z</time>
      </trkpt>
      <trkpt lat="44.38493" lon="4.93647">
        <ele>184.4</ele>
        <time>2021-02-24T13:31:25Z</time>
      </trkpt>
      <trkpt lat="44.38497" lon="4.93642">
        <ele>184.3</ele>
        <time>2021-02-24T13:31:26Z</time>
      </trkpt>
      <trkpt lat="44.38502" lon="4.93638">
        <ele>184.3</ele>
        <time>2021-02-24T13:31:27Z</time>
      </trkpt>
      <trkpt lat="44.38507" lon="4.93633">
        <ele>184.3</ele>
        <time>2021-02-24T13:31:28Z</time>
      </trkpt>
      <trkpt lat="44.38511" lon="4.93628">
        <ele>184.2</ele>
        <time>2021-02-24T13:31:29Z</time>
      </trkpt>
      <trkpt lat="44.38516" lon="4.93623">
        <ele>184.1</ele>
        <time>2021-02-24T13:31:30Z</time>
      </trkpt>
      <trkpt lat="44.3852" lon="4.93618">
        <ele>184.1</ele>
        <time>2021-02-24T13:31:31Z</time>
      </trkpt>
      <trkpt lat="44.3852" lon="4.93618">
        <ele>184.1</ele>
        <time>2021-02-24T13:31:32Z</time>
      </trkpt>
      <trkpt lat="44.38525" lon="4.93614">
        <ele>184</ele>
        <time>2021-02-24T13:31:33Z</time>
      </trkpt>
      <trkpt lat="44.3853" lon="4.93609">
        <ele>183.9</ele>
        <time>2021-02-24T13:31:34Z</time>
      </trkpt>
      <trkpt lat="44.38534" lon="4.93604">
        <ele>183.9</ele>
        <time>2021-02-24T13:31:35Z</time>
      </trkpt>
      <trkpt lat="44.38538" lon="4.936">
        <ele>183.9</ele>
        <time>2021-02-24T13:31:36Z</time>
      </trkpt>
      <trkpt lat="44.38543" lon="4.93595">
        <ele>183.9</ele>
        <time>2021-02-24T13:31:37Z</time>
      </trkpt>
      <trkpt lat="44.38547" lon="4.9359">
        <ele>183.8</ele>
        <time>2021-02-24T13:31:38Z</time>
      </trkpt>
      <trkpt lat="44.38551" lon="4.93586">
        <ele>183.8</ele>
        <time>2021-02-24T13:31:39Z</time>
      </trkpt>
      <trkpt lat="44.38555" lon="4.93582">
        <ele>183.7</ele>
        <time>2021-02-24T13:31:40Z</time>
      </trkpt>
      <trkpt lat="44.38563" lon="4.93571">
        <ele>183.6</ele>
        <time>2021-02-24T13:31:41Z</time>
      </trkpt>
      <trkpt lat="44.38566" lon="4.93565">
        <ele>183.6</ele>
        <time>2021-02-24T13:31:42Z</time>
      </trkpt>
      <trkpt lat="44.38569" lon="4.93559">
        <ele>183.5</ele>
        <time>2021-02-24T13:31:43Z</time>
      </trkpt>
      <trkpt lat="44.38569" lon="4.93559">
        <ele>183.5</ele>
        <time>2021-02-24T13:31:44Z</time>
      </trkpt>
      <trkpt lat="44.38573" lon="4.93554">
        <ele>183.5</ele>
        <time>2021-02-24T13:31:45Z</time>
      </trkpt>
      <trkpt lat="44.38576" lon="4.93548">
        <ele>183.4</ele>
        <time>2021-02-24T13:31:46Z</time>
      </trkpt>
      <trkpt lat="44.38582" lon="4.93536">
        <ele>183.3</ele>
        <time>2021-02-24T13:31:47Z</time>
      </trkpt>
      <trkpt lat="44.38582" lon="4.93536">
        <ele>183.3</ele>
        <time>2021-02-24T13:31:48Z</time>
      </trkpt>
      <trkpt lat="44.38585" lon="4.9353">
        <ele>183.3</ele>
        <time>2021-02-24T13:31:49Z</time>
      </trkpt>
      <trkpt lat="44.38588" lon="4.93524">
        <ele>183.2</ele>
        <time>2021-02-24T13:31:50Z</time>
      </trkpt>
      <trkpt lat="44.38591" lon="4.93518">
        <ele>183.2</ele>
        <time>2021-02-24T13:31:51Z</time>
      </trkpt>
      <trkpt lat="44.38594" lon="4.93512">
        <ele>183.2</ele>
        <time>2021-02-24T13:31:52Z</time>
      </trkpt>
      <trkpt lat="44.38597" lon="4.93505">
        <ele>183.1</ele>
        <time>2021-02-24T13:31:53Z</time>
      </trkpt>
      <trkpt lat="44.386" lon="4.93499">
        <ele>183.1</ele>
        <time>2021-02-24T13:31:54Z</time>
      </trkpt>
      <trkpt lat="44.38603" lon="4.93492">
        <ele>183</ele>
        <time>2021-02-24T13:31:55Z</time>
      </trkpt>
      <trkpt lat="44.38605" lon="4.93484">
        <ele>183</ele>
        <time>2021-02-24T13:31:56Z</time>
      </trkpt>
      <trkpt lat="44.38606" lon="4.93476">
        <ele>182.9</ele>
        <time>2021-02-24T13:31:57Z</time>
      </trkpt>
      <trkpt lat="44.38607" lon="4.93467">
        <ele>182.9</ele>
        <time>2021-02-24T13:31:58Z</time>
      </trkpt>
      <trkpt lat="44.38607" lon="4.93458">
        <ele>182.8</ele>
        <time>2021-02-24T13:31:59Z</time>
      </trkpt>
      <trkpt lat="44.38607" lon="4.9345">
        <ele>182.8</ele>
        <time>2021-02-24T13:32:00Z</time>
      </trkpt>
      <trkpt lat="44.38606" lon="4.93441">
        <ele>182.7</ele>
        <time>2021-02-24T13:32:01Z</time>
      </trkpt>
      <trkpt lat="44.38606" lon="4.93423">
        <ele>182.5</ele>
        <time>2021-02-24T13:32:02Z</time>
      </trkpt>
      <trkpt lat="44.38606" lon="4.93414">
        <ele>182.4</ele>
        <time>2021-02-24T13:32:03Z</time>
      </trkpt>
      <trkpt lat="44.38605" lon="4.93405">
        <ele>182.4</ele>
        <time>2021-02-24T13:32:04Z</time>
      </trkpt>
      <trkpt lat="44.38605" lon="4.93396">
        <ele>182.3</ele>
        <time>2021-02-24T13:32:05Z</time>
      </trkpt>
      <trkpt lat="44.38605" lon="4.93387">
        <ele>182.2</ele>
        <time>2021-02-24T13:32:06Z</time>
      </trkpt>
      <trkpt lat="44.38605" lon="4.93378">
        <ele>182.2</ele>
        <time>2021-02-24T13:32:07Z</time>
      </trkpt>
      <trkpt lat="44.38604" lon="4.9337">
        <ele>182.1</ele>
        <time>2021-02-24T13:32:08Z</time>
      </trkpt>
      <trkpt lat="44.38604" lon="4.93361">
        <ele>182</ele>
        <time>2021-02-24T13:32:09Z</time>
      </trkpt>
      <trkpt lat="44.38604" lon="4.93352">
        <ele>181.9</ele>
        <time>2021-02-24T13:32:10Z</time>
      </trkpt>
      <trkpt lat="44.38604" lon="4.93344">
        <ele>181.9</ele>
        <time>2021-02-24T13:32:11Z</time>
      </trkpt>
      <trkpt lat="44.38604" lon="4.93336">
        <ele>181.8</ele>
        <time>2021-02-24T13:32:12Z</time>
      </trkpt>
      <trkpt lat="44.38604" lon="4.93328">
        <ele>181.7</ele>
        <time>2021-02-24T13:32:13Z</time>
      </trkpt>
      <trkpt lat="44.38604" lon="4.93319">
        <ele>181.6</ele>
        <time>2021-02-24T13:32:14Z</time>
      </trkpt>
      <trkpt lat="44.38604" lon="4.93319">
        <ele>181.6</ele>
        <time>2021-02-24T13:32:15Z</time>
      </trkpt>
      <trkpt lat="44.38603" lon="4.9331">
        <ele>181.5</ele>
        <time>2021-02-24T13:32:16Z</time>
      </trkpt>
      <trkpt lat="44.38603" lon="4.93301">
        <ele>181.3</ele>
        <time>2021-02-24T13:32:17Z</time>
      </trkpt>
      <trkpt lat="44.38603" lon="4.93292">
        <ele>181.2</ele>
        <time>2021-02-24T13:32:18Z</time>
      </trkpt>
      <trkpt lat="44.38602" lon="4.93283">
        <ele>181.1</ele>
        <time>2021-02-24T13:32:19Z</time>
      </trkpt>
      <trkpt lat="44.38602" lon="4.93274">
        <ele>181</ele>
        <time>2021-02-24T13:32:20Z</time>
      </trkpt>
      <trkpt lat="44.38602" lon="4.93256">
        <ele>180.8</ele>
        <time>2021-02-24T13:32:21Z</time>
      </trkpt>
      <trkpt lat="44.38601" lon="4.93248">
        <ele>180.8</ele>
        <time>2021-02-24T13:32:22Z</time>
      </trkpt>
      <trkpt lat="44.38601" lon="4.93239">
        <ele>180.7</ele>
        <time>2021-02-24T13:32:23Z</time>
      </trkpt>
      <trkpt lat="44.38601" lon="4.93231">
        <ele>180.7</ele>
        <time>2021-02-24T13:32:24Z</time>
      </trkpt>
      <trkpt lat="44.38601" lon="4.93222">
        <ele>180.6</ele>
        <time>2021-02-24T13:32:25Z</time>
      </trkpt>
      <trkpt lat="44.38601" lon="4.93214">
        <ele>180.6</ele>
        <time>2021-02-24T13:32:26Z</time>
      </trkpt>
      <trkpt lat="44.38601" lon="4.93206">
        <ele>180.5</ele>
        <time>2021-02-24T13:32:27Z</time>
      </trkpt>
      <trkpt lat="44.38601" lon="4.93198">
        <ele>180.5</ele>
        <time>2021-02-24T13:32:28Z</time>
      </trkpt>
      <trkpt lat="44.38601" lon="4.9319">
        <ele>180.4</ele>
        <time>2021-02-24T13:32:29Z</time>
      </trkpt>
      <trkpt lat="44.38601" lon="4.93182">
        <ele>180.4</ele>
        <time>2021-02-24T13:32:30Z</time>
      </trkpt>
      <trkpt lat="44.38601" lon="4.93174">
        <ele>180.3</ele>
        <time>2021-02-24T13:32:31Z</time>
      </trkpt>
      <trkpt lat="44.38601" lon="4.93166">
        <ele>180.3</ele>
        <time>2021-02-24T13:32:32Z</time>
      </trkpt>
      <trkpt lat="44.38601" lon="4.93158">
        <ele>180.2</ele>
        <time>2021-02-24T13:32:33Z</time>
      </trkpt>
      <trkpt lat="44.38601" lon="4.9315">
        <ele>180.1</ele>
        <time>2021-02-24T13:32:34Z</time>
      </trkpt>
      <trkpt lat="44.38601" lon="4.93142">
        <ele>180</ele>
        <time>2021-02-24T13:32:35Z</time>
      </trkpt>
      <trkpt lat="44.38601" lon="4.93135">
        <ele>179.8</ele>
        <time>2021-02-24T13:32:36Z</time>
      </trkpt>
      <trkpt lat="44.38601" lon="4.93127">
        <ele>179.7</ele>
        <time>2021-02-24T13:32:37Z</time>
      </trkpt>
      <trkpt lat="44.38601" lon="4.93119">
        <ele>179.6</ele>
        <time>2021-02-24T13:32:38Z</time>
      </trkpt>
      <trkpt lat="44.38601" lon="4.93111">
        <ele>179.5</ele>
        <time>2021-02-24T13:32:39Z</time>
      </trkpt>
      <trkpt lat="44.38601" lon="4.93103">
        <ele>179.4</ele>
        <time>2021-02-24T13:32:40Z</time>
      </trkpt>
      <trkpt lat="44.38601" lon="4.93094">
        <ele>179.3</ele>
        <time>2021-02-24T13:32:41Z</time>
      </trkpt>
      <trkpt lat="44.38601" lon="4.93086">
        <ele>179.2</ele>
        <time>2021-02-24T13:32:42Z</time>
      </trkpt>
      <trkpt lat="44.38602" lon="4.93078">
        <ele>179.1</ele>
        <time>2021-02-24T13:32:43Z</time>
      </trkpt>
      <trkpt lat="44.38602" lon="4.9307">
        <ele>179</ele>
        <time>2021-02-24T13:32:44Z</time>
      </trkpt>
      <trkpt lat="44.38602" lon="4.93062">
        <ele>178.9</ele>
        <time>2021-02-24T13:32:45Z</time>
      </trkpt>
      <trkpt lat="44.38602" lon="4.93055">
        <ele>178.9</ele>
        <time>2021-02-24T13:32:46Z</time>
      </trkpt>
      <trkpt lat="44.38602" lon="4.93047">
        <ele>178.8</ele>
        <time>2021-02-24T13:32:47Z</time>
      </trkpt>
      <trkpt lat="44.38602" lon="4.9304">
        <ele>178.8</ele>
        <time>2021-02-24T13:32:48Z</time>
      </trkpt>
      <trkpt lat="44.38602" lon="4.93034">
        <ele>178.8</ele>
        <time>2021-02-24T13:32:49Z</time>
      </trkpt>
      <trkpt lat="44.38602" lon="4.93027">
        <ele>178.8</ele>
        <time>2021-02-24T13:32:50Z</time>
      </trkpt>
      <trkpt lat="44.38602" lon="4.93022">
        <ele>178.8</ele>
        <time>2021-02-24T13:32:51Z</time>
      </trkpt>
      <trkpt lat="44.38602" lon="4.93018">
        <ele>178.8</ele>
        <time>2021-02-24T13:32:52Z</time>
      </trkpt>
      <trkpt lat="44.38602" lon="4.93015">
        <ele>178.8</ele>
        <time>2021-02-24T13:32:53Z</time>
      </trkpt>
      <trkpt lat="44.38602" lon="4.93012">
        <ele>178.8</ele>
        <time>2021-02-24T13:32:54Z</time>
      </trkpt>
      <trkpt lat="44.38604" lon="4.93009">
        <ele>178.8</ele>
        <time>2021-02-24T13:32:55Z</time>
      </trkpt>
      <trkpt lat="44.38607" lon="4.93007">
        <ele>178.8</ele>
        <time>2021-02-24T13:32:56Z</time>
      </trkpt>
      <trkpt lat="44.3861" lon="4.93006">
        <ele>178.8</ele>
        <time>2021-02-24T13:32:57Z</time>
      </trkpt>
      <trkpt lat="44.38614" lon="4.93006">
        <ele>178.8</ele>
        <time>2021-02-24T13:32:58Z</time>
      </trkpt>
      <trkpt lat="44.38617" lon="4.93006">
        <ele>178.8</ele>
        <time>2021-02-24T13:32:59Z</time>
      </trkpt>
      <trkpt lat="44.38617" lon="4.93006">
        <ele>178.8</ele>
        <time>2021-02-24T13:33:00Z</time>
      </trkpt>
      <trkpt lat="44.38621" lon="4.93006">
        <ele>178.7</ele>
        <time>2021-02-24T13:33:01Z</time>
      </trkpt>
      <trkpt lat="44.38626" lon="4.93005">
        <ele>178.7</ele>
        <time>2021-02-24T13:33:02Z</time>
      </trkpt>
      <trkpt lat="44.3863" lon="4.93005">
        <ele>178.7</ele>
        <time>2021-02-24T13:33:03Z</time>
      </trkpt>
      <trkpt lat="44.38635" lon="4.93005">
        <ele>178.7</ele>
        <time>2021-02-24T13:33:04Z</time>
      </trkpt>
      <trkpt lat="44.3864" lon="4.93005">
        <ele>178.6</ele>
        <time>2021-02-24T13:33:05Z</time>
      </trkpt>
      <trkpt lat="44.38645" lon="4.93005">
        <ele>178.6</ele>
        <time>2021-02-24T13:33:06Z</time>
      </trkpt>
      <trkpt lat="44.38649" lon="4.93006">
        <ele>178.5</ele>
        <time>2021-02-24T13:33:07Z</time>
      </trkpt>
      <trkpt lat="44.38654" lon="4.93006">
        <ele>178.5</ele>
        <time>2021-02-24T13:33:08Z</time>
      </trkpt>
      <trkpt lat="44.38659" lon="4.93006">
        <ele>178.5</ele>
        <time>2021-02-24T13:33:09Z</time>
      </trkpt>
      <trkpt lat="44.38664" lon="4.93005">
        <ele>178.4</ele>
        <time>2021-02-24T13:33:10Z</time>
      </trkpt>
      <trkpt lat="44.38669" lon="4.93004">
        <ele>178.4</ele>
        <time>2021-02-24T13:33:11Z</time>
      </trkpt>
      <trkpt lat="44.38674" lon="4.93004">
        <ele>178.3</ele>
        <time>2021-02-24T13:33:12Z</time>
      </trkpt>
      <trkpt lat="44.38678" lon="4.93003">
        <ele>178.3</ele>
        <time>2021-02-24T13:33:13Z</time>
      </trkpt>
      <trkpt lat="44.38683" lon="4.93002">
        <ele>178.2</ele>
        <time>2021-02-24T13:33:14Z</time>
      </trkpt>
      <trkpt lat="44.38687" lon="4.93001">
        <ele>178.2</ele>
        <time>2021-02-24T13:33:15Z</time>
      </trkpt>
      <trkpt lat="44.38691" lon="4.93">
        <ele>178.2</ele>
        <time>2021-02-24T13:33:16Z</time>
      </trkpt>
      <trkpt lat="44.38695" lon="4.92999">
        <ele>178.1</ele>
        <time>2021-02-24T13:33:17Z</time>
      </trkpt>
      <trkpt lat="44.38704" lon="4.92997">
        <ele>178.1</ele>
        <time>2021-02-24T13:33:18Z</time>
      </trkpt>
      <trkpt lat="44.38708" lon="4.92995">
        <ele>178</ele>
        <time>2021-02-24T13:33:19Z</time>
      </trkpt>
      <trkpt lat="44.38708" lon="4.92995">
        <ele>178</ele>
        <time>2021-02-24T13:33:20Z</time>
      </trkpt>
      <trkpt lat="44.38713" lon="4.92993">
        <ele>178</ele>
        <time>2021-02-24T13:33:21Z</time>
      </trkpt>
      <trkpt lat="44.38717" lon="4.92991">
        <ele>178</ele>
        <time>2021-02-24T13:33:22Z</time>
      </trkpt>
      <trkpt lat="44.38721" lon="4.92989">
        <ele>178</ele>
        <time>2021-02-24T13:33:23Z</time>
      </trkpt>
      <trkpt lat="44.38726" lon="4.92987">
        <ele>177.9</ele>
        <time>2021-02-24T13:33:24Z</time>
      </trkpt>
      <trkpt lat="44.38731" lon="4.92986">
        <ele>177.9</ele>
        <time>2021-02-24T13:33:25Z</time>
      </trkpt>
      <trkpt lat="44.38736" lon="4.92984">
        <ele>177.9</ele>
        <time>2021-02-24T13:33:26Z</time>
      </trkpt>
      <trkpt lat="44.38741" lon="4.92983">
        <ele>177.8</ele>
        <time>2021-02-24T13:33:27Z</time>
      </trkpt>
      <trkpt lat="44.38746" lon="4.92981">
        <ele>177.8</ele>
        <time>2021-02-24T13:33:28Z</time>
      </trkpt>
      <trkpt lat="44.38751" lon="4.92979">
        <ele>177.8</ele>
        <time>2021-02-24T13:33:29Z</time>
      </trkpt>
      <trkpt lat="44.38756" lon="4.92977">
        <ele>177.7</ele>
        <time>2021-02-24T13:33:30Z</time>
      </trkpt>
      <trkpt lat="44.38761" lon="4.92974">
        <ele>177.7</ele>
        <time>2021-02-24T13:33:31Z</time>
      </trkpt>
      <trkpt lat="44.38766" lon="4.92972">
        <ele>177.7</ele>
        <time>2021-02-24T13:33:32Z</time>
      </trkpt>
      <trkpt lat="44.38771" lon="4.9297">
        <ele>177.6</ele>
        <time>2021-02-24T13:33:33Z</time>
      </trkpt>
      <trkpt lat="44.38776" lon="4.92968">
        <ele>177.6</ele>
        <time>2021-02-24T13:33:34Z</time>
      </trkpt>
      <trkpt lat="44.38786" lon="4.92964">
        <ele>177.5</ele>
        <time>2021-02-24T13:33:35Z</time>
      </trkpt>
      <trkpt lat="44.38791" lon="4.92963">
        <ele>177.5</ele>
        <time>2021-02-24T13:33:36Z</time>
      </trkpt>
      <trkpt lat="44.38796" lon="4.92961">
        <ele>177.5</ele>
        <time>2021-02-24T13:33:37Z</time>
      </trkpt>
      <trkpt lat="44.38802" lon="4.92959">
        <ele>177.5</ele>
        <time>2021-02-24T13:33:38Z</time>
      </trkpt>
      <trkpt lat="44.38807" lon="4.92958">
        <ele>177.5</ele>
        <time>2021-02-24T13:33:39Z</time>
      </trkpt>
      <trkpt lat="44.38812" lon="4.92956">
        <ele>177.4</ele>
        <time>2021-02-24T13:33:40Z</time>
      </trkpt>
      <trkpt lat="44.38817" lon="4.92954">
        <ele>177.4</ele>
        <time>2021-02-24T13:33:41Z</time>
      </trkpt>
      <trkpt lat="44.38822" lon="4.92952">
        <ele>177.4</ele>
        <time>2021-02-24T13:33:42Z</time>
      </trkpt>
      <trkpt lat="44.38827" lon="4.9295">
        <ele>177.4</ele>
        <time>2021-02-24T13:33:43Z</time>
      </trkpt>
      <trkpt lat="44.38827" lon="4.9295">
        <ele>177.4</ele>
        <time>2021-02-24T13:33:44Z</time>
      </trkpt>
      <trkpt lat="44.38832" lon="4.92949">
        <ele>177.3</ele>
        <time>2021-02-24T13:33:45Z</time>
      </trkpt>
      <trkpt lat="44.38837" lon="4.92947">
        <ele>177.3</ele>
        <time>2021-02-24T13:33:46Z</time>
      </trkpt>
      <trkpt lat="44.38842" lon="4.92945">
        <ele>177.3</ele>
        <time>2021-02-24T13:33:47Z</time>
      </trkpt>
      <trkpt lat="44.38847" lon="4.92943">
        <ele>177.2</ele>
        <time>2021-02-24T13:33:48Z</time>
      </trkpt>
      <trkpt lat="44.38852" lon="4.92941">
        <ele>177.2</ele>
        <time>2021-02-24T13:33:49Z</time>
      </trkpt>
      <trkpt lat="44.38858" lon="4.92939">
        <ele>177.2</ele>
        <time>2021-02-24T13:33:50Z</time>
      </trkpt>
      <trkpt lat="44.38863" lon="4.92937">
        <ele>177.2</ele>
        <time>2021-02-24T13:33:51Z</time>
      </trkpt>
      <trkpt lat="44.38868" lon="4.92936">
        <ele>177.2</ele>
        <time>2021-02-24T13:33:52Z</time>
      </trkpt>
      <trkpt lat="44.38873" lon="4.92934">
        <ele>177.1</ele>
        <time>2021-02-24T13:33:53Z</time>
      </trkpt>
      <trkpt lat="44.38879" lon="4.92932">
        <ele>177.1</ele>
        <time>2021-02-24T13:33:54Z</time>
      </trkpt>
      <trkpt lat="44.38884" lon="4.92931">
        <ele>177.1</ele>
        <time>2021-02-24T13:33:55Z</time>
      </trkpt>
      <trkpt lat="44.38892" lon="4.92928">
        <ele>177</ele>
        <time>2021-02-24T13:33:56Z</time>
      </trkpt>
      <trkpt lat="44.38892" lon="4.92928">
        <ele>177</ele>
        <time>2021-02-24T13:33:57Z</time>
      </trkpt>
      <trkpt lat="44.38898" lon="4.92926">
        <ele>177</ele>
        <time>2021-02-24T13:33:58Z</time>
      </trkpt>
      <trkpt lat="44.38902" lon="4.92924">
        <ele>176.9</ele>
        <time>2021-02-24T13:33:59Z</time>
      </trkpt>
      <trkpt lat="44.38907" lon="4.92923">
        <ele>176.9</ele>
        <time>2021-02-24T13:34:00Z</time>
      </trkpt>
      <trkpt lat="44.38911" lon="4.92922">
        <ele>176.9</ele>
        <time>2021-02-24T13:34:01Z</time>
      </trkpt>
      <trkpt lat="44.38916" lon="4.92921">
        <ele>176.8</ele>
        <time>2021-02-24T13:34:02Z</time>
      </trkpt>
      <trkpt lat="44.38921" lon="4.92919">
        <ele>176.8</ele>
        <time>2021-02-24T13:34:03Z</time>
      </trkpt>
      <trkpt lat="44.38933" lon="4.92917">
        <ele>176.8</ele>
        <time>2021-02-24T13:34:04Z</time>
      </trkpt>
      <trkpt lat="44.38938" lon="4.92916">
        <ele>176.8</ele>
        <time>2021-02-24T13:34:05Z</time>
      </trkpt>
      <trkpt lat="44.38942" lon="4.92915">
        <ele>176.7</ele>
        <time>2021-02-24T13:34:06Z</time>
      </trkpt>
      <trkpt lat="44.38947" lon="4.92913">
        <ele>176.7</ele>
        <time>2021-02-24T13:34:07Z</time>
      </trkpt>
      <trkpt lat="44.38952" lon="4.92912">
        <ele>176.7</ele>
        <time>2021-02-24T13:34:08Z</time>
      </trkpt>
      <trkpt lat="44.38957" lon="4.92911">
        <ele>176.6</ele>
        <time>2021-02-24T13:34:09Z</time>
      </trkpt>
      <trkpt lat="44.38962" lon="4.9291">
        <ele>176.6</ele>
        <time>2021-02-24T13:34:10Z</time>
      </trkpt>
      <trkpt lat="44.38967" lon="4.92909">
        <ele>176.6</ele>
        <time>2021-02-24T13:34:11Z</time>
      </trkpt>
      <trkpt lat="44.38971" lon="4.92908">
        <ele>176.6</ele>
        <time>2021-02-24T13:34:12Z</time>
      </trkpt>
      <trkpt lat="44.38971" lon="4.92908">
        <ele>176.6</ele>
        <time>2021-02-24T13:34:13Z</time>
      </trkpt>
      <trkpt lat="44.38975" lon="4.92907">
        <ele>176.6</ele>
        <time>2021-02-24T13:34:14Z</time>
      </trkpt>
      <trkpt lat="44.38982" lon="4.92904">
        <ele>176.5</ele>
        <time>2021-02-24T13:34:15Z</time>
      </trkpt>
      <trkpt lat="44.38985" lon="4.92904">
        <ele>176.5</ele>
        <time>2021-02-24T13:34:16Z</time>
      </trkpt>
      <trkpt lat="44.38988" lon="4.92904">
        <ele>176.5</ele>
        <time>2021-02-24T13:34:17Z</time>
      </trkpt>
      <trkpt lat="44.3899" lon="4.92904">
        <ele>176.5</ele>
        <time>2021-02-24T13:34:18Z</time>
      </trkpt>
      <trkpt lat="44.3899" lon="4.92904">
        <ele>176.5</ele>
        <time>2021-02-24T13:34:19Z</time>
      </trkpt>
      <trkpt lat="44.3899" lon="4.92904">
        <ele>176.5</ele>
        <time>2021-02-24T13:34:20Z</time>
      </trkpt>
      <trkpt lat="44.3899" lon="4.92904">
        <ele>176.5</ele>
        <time>2021-02-24T13:34:21Z</time>
      </trkpt>
      <trkpt lat="44.3899" lon="4.92904">
        <ele>176.5</ele>
        <time>2021-02-24T13:34:22Z</time>
      </trkpt>
      <trkpt lat="44.3899" lon="4.92903">
        <ele>176.5</ele>
        <time>2021-02-24T13:34:23Z</time>
      </trkpt>
      <trkpt lat="44.38984" lon="4.92899">
        <ele>176.5</ele>
        <time>2021-02-24T13:35:30Z</time>
      </trkpt>
      <trkpt lat="44.38982" lon="4.92899">
        <ele>176.5</ele>
        <time>2021-02-24T13:35:31Z</time>
      </trkpt>
      <trkpt lat="44.38979" lon="4.929">
        <ele>176.5</ele>
        <time>2021-02-24T13:35:32Z</time>
      </trkpt>
      <trkpt lat="44.38976" lon="4.92901">
        <ele>176.4</ele>
        <time>2021-02-24T13:35:33Z</time>
      </trkpt>
      <trkpt lat="44.38973" lon="4.92903">
        <ele>176.4</ele>
        <time>2021-02-24T13:35:34Z</time>
      </trkpt>
      <trkpt lat="44.3897" lon="4.92904">
        <ele>176.4</ele>
        <time>2021-02-24T13:35:35Z</time>
      </trkpt>
      <trkpt lat="44.38967" lon="4.92905">
        <ele>176.4</ele>
        <time>2021-02-24T13:35:36Z</time>
      </trkpt>
      <trkpt lat="44.38964" lon="4.92906">
        <ele>176.4</ele>
        <time>2021-02-24T13:35:37Z</time>
      </trkpt>
      <trkpt lat="44.38961" lon="4.92906">
        <ele>176.4</ele>
        <time>2021-02-24T13:35:38Z</time>
      </trkpt>
      <trkpt lat="44.38959" lon="4.92907">
        <ele>176.4</ele>
        <time>2021-02-24T13:35:39Z</time>
      </trkpt>
      <trkpt lat="44.38957" lon="4.92908">
        <ele>176.4</ele>
        <time>2021-02-24T13:35:40Z</time>
      </trkpt>
      <trkpt lat="44.38957" lon="4.92908">
        <ele>176.4</ele>
        <time>2021-02-24T13:35:41Z</time>
      </trkpt>
      <trkpt lat="44.38955" lon="4.92911">
        <ele>176.4</ele>
        <time>2021-02-24T13:35:42Z</time>
      </trkpt>
      <trkpt lat="44.38955" lon="4.92911">
        <ele>176.4</ele>
        <time>2021-02-24T13:35:43Z</time>
      </trkpt>
      <trkpt lat="44.38955" lon="4.92911">
        <ele>176.4</ele>
        <time>2021-02-24T13:35:44Z</time>
      </trkpt>
      <trkpt lat="44.38955" lon="4.92911">
        <ele>176.4</ele>
        <time>2021-02-24T13:35:45Z</time>
      </trkpt>
      <trkpt lat="44.38955" lon="4.92911">
        <ele>176.4</ele>
        <time>2021-02-24T13:35:46Z</time>
      </trkpt>
      <trkpt lat="44.38955" lon="4.92911">
        <ele>176.4</ele>
        <time>2021-02-24T13:35:47Z</time>
      </trkpt>
      <trkpt lat="44.38955" lon="4.92914">
        <ele>176.4</ele>
        <time>2021-02-24T13:35:48Z</time>
      </trkpt>
      <trkpt lat="44.38955" lon="4.92914">
        <ele>176.4</ele>
        <time>2021-02-24T13:35:49Z</time>
      </trkpt>
      <trkpt lat="44.38961" lon="4.92911">
        <ele>176.4</ele>
        <time>2021-02-24T13:36:14Z</time>
      </trkpt>
      <trkpt lat="44.38964" lon="4.9291">
        <ele>176.3</ele>
        <time>2021-02-24T13:36:15Z</time>
      </trkpt>
      <trkpt lat="44.38964" lon="4.9291">
        <ele>176.3</ele>
        <time>2021-02-24T13:36:16Z</time>
      </trkpt>
      <trkpt lat="44.38965" lon="4.9291">
        <ele>176.3</ele>
        <time>2021-02-24T13:36:17Z</time>
      </trkpt>
      <trkpt lat="44.38968" lon="4.92909">
        <ele>176.3</ele>
        <time>2021-02-24T13:36:18Z</time>
      </trkpt>
      <trkpt lat="44.38971" lon="4.92909">
        <ele>176.3</ele>
        <time>2021-02-24T13:36:19Z</time>
      </trkpt>
      <trkpt lat="44.38974" lon="4.92908">
        <ele>176.3</ele>
        <time>2021-02-24T13:36:20Z</time>
      </trkpt>
      <trkpt lat="44.38977" lon="4.92908">
        <ele>176.3</ele>
        <time>2021-02-24T13:36:21Z</time>
      </trkpt>
      <trkpt lat="44.3898" lon="4.92907">
        <ele>176.3</ele>
        <time>2021-02-24T13:36:22Z</time>
      </trkpt>
      <trkpt lat="44.38983" lon="4.92906">
        <ele>176.3</ele>
        <time>2021-02-24T13:36:23Z</time>
      </trkpt>
      <trkpt lat="44.38985" lon="4.92905">
        <ele>176.3</ele>
        <time>2021-02-24T13:36:24Z</time>
      </trkpt>
      <trkpt lat="44.38985" lon="4.92905">
        <ele>176.3</ele>
        <time>2021-02-24T13:36:25Z</time>
      </trkpt>
      <trkpt lat="44.38986" lon="4.92904">
        <ele>176.3</ele>
        <time>2021-02-24T13:36:26Z</time>
      </trkpt>
      <trkpt lat="44.38986" lon="4.92904">
        <ele>176.3</ele>
        <time>2021-02-24T13:36:27Z</time>
      </trkpt>
      <trkpt lat="44.38986" lon="4.92904">
        <ele>176.3</ele>
        <time>2021-02-24T13:36:28Z</time>
      </trkpt>
      <trkpt lat="44.38986" lon="4.92904">
        <ele>176.3</ele>
        <time>2021-02-24T13:36:29Z</time>
      </trkpt>
      <trkpt lat="44.38991" lon="4.92901">
        <ele>176.3</ele>
        <time>2021-02-24T13:36:42Z</time>
      </trkpt>
      <trkpt lat="44.38995" lon="4.92899">
        <ele>176.3</ele>
        <time>2021-02-24T13:36:43Z</time>
      </trkpt>
      <trkpt lat="44.38998" lon="4.92899">
        <ele>176.3</ele>
        <time>2021-02-24T13:36:44Z</time>
      </trkpt>
      <trkpt lat="44.39002" lon="4.92898">
        <ele>176.3</ele>
        <time>2021-02-24T13:36:45Z</time>
      </trkpt>
      <trkpt lat="44.39005" lon="4.92897">
        <ele>176.2</ele>
        <time>2021-02-24T13:36:46Z</time>
      </trkpt>
      <trkpt lat="44.39009" lon="4.92897">
        <ele>176.1</ele>
        <time>2021-02-24T13:36:47Z</time>
      </trkpt>
      <trkpt lat="44.39013" lon="4.92896">
        <ele>176.1</ele>
        <time>2021-02-24T13:36:48Z</time>
      </trkpt>
      <trkpt lat="44.39017" lon="4.92896">
        <ele>176</ele>
        <time>2021-02-24T13:36:49Z</time>
      </trkpt>
      <trkpt lat="44.39021" lon="4.92894">
        <ele>176</ele>
        <time>2021-02-24T13:36:50Z</time>
      </trkpt>
      <trkpt lat="44.39025" lon="4.92893">
        <ele>175.9</ele>
        <time>2021-02-24T13:36:51Z</time>
      </trkpt>
      <trkpt lat="44.39028" lon="4.92893">
        <ele>175.9</ele>
        <time>2021-02-24T13:36:52Z</time>
      </trkpt>
      <trkpt lat="44.39032" lon="4.92892">
        <ele>175.8</ele>
        <time>2021-02-24T13:36:53Z</time>
      </trkpt>
      <trkpt lat="44.39035" lon="4.9289">
        <ele>175.8</ele>
        <time>2021-02-24T13:36:54Z</time>
      </trkpt>
      <trkpt lat="44.39038" lon="4.92889">
        <ele>175.7</ele>
        <time>2021-02-24T13:36:55Z</time>
      </trkpt>
      <trkpt lat="44.3904" lon="4.92887">
        <ele>175.7</ele>
        <time>2021-02-24T13:36:56Z</time>
      </trkpt>
      <trkpt lat="44.39042" lon="4.92884">
        <ele>175.6</ele>
        <time>2021-02-24T13:36:57Z</time>
      </trkpt>
      <trkpt lat="44.39042" lon="4.92881">
        <ele>175.6</ele>
        <time>2021-02-24T13:36:58Z</time>
      </trkpt>
      <trkpt lat="44.3904" lon="4.92877">
        <ele>175.6</ele>
        <time>2021-02-24T13:36:59Z</time>
      </trkpt>
      <trkpt lat="44.39037" lon="4.92873">
        <ele>175.6</ele>
        <time>2021-02-24T13:37:00Z</time>
      </trkpt>
      <trkpt lat="44.39033" lon="4.9287">
        <ele>175.6</ele>
        <time>2021-02-24T13:37:01Z</time>
      </trkpt>
      <trkpt lat="44.39029" lon="4.92867">
        <ele>175.5</ele>
        <time>2021-02-24T13:37:02Z</time>
      </trkpt>
      <trkpt lat="44.39029" lon="4.92867">
        <ele>175.5</ele>
        <time>2021-02-24T13:37:03Z</time>
      </trkpt>
      <trkpt lat="44.39026" lon="4.92864">
        <ele>175.5</ele>
        <time>2021-02-24T13:37:04Z</time>
      </trkpt>
      <trkpt lat="44.39022" lon="4.9286">
        <ele>175.5</ele>
        <time>2021-02-24T13:37:05Z</time>
      </trkpt>
      <trkpt lat="44.39018" lon="4.92857">
        <ele>175.5</ele>
        <time>2021-02-24T13:37:06Z</time>
      </trkpt>
      <trkpt lat="44.39014" lon="4.92853">
        <ele>175.5</ele>
        <time>2021-02-24T13:37:07Z</time>
      </trkpt>
      <trkpt lat="44.39009" lon="4.9285">
        <ele>175.4</ele>
        <time>2021-02-24T13:37:08Z</time>
      </trkpt>
      <trkpt lat="44.39005" lon="4.92846">
        <ele>175.4</ele>
        <time>2021-02-24T13:37:09Z</time>
      </trkpt>
      <trkpt lat="44.38996" lon="4.92838">
        <ele>175.4</ele>
        <time>2021-02-24T13:37:10Z</time>
      </trkpt>
      <trkpt lat="44.38996" lon="4.92838">
        <ele>175.4</ele>
        <time>2021-02-24T13:37:11Z</time>
      </trkpt>
      <trkpt lat="44.38992" lon="4.92833">
        <ele>175.4</ele>
        <time>2021-02-24T13:37:12Z</time>
      </trkpt>
      <trkpt lat="44.38988" lon="4.92829">
        <ele>175.4</ele>
        <time>2021-02-24T13:37:13Z</time>
      </trkpt>
      <trkpt lat="44.38984" lon="4.92825">
        <ele>175.4</ele>
        <time>2021-02-24T13:37:14Z</time>
      </trkpt>
      <trkpt lat="44.38981" lon="4.92822">
        <ele>175.4</ele>
        <time>2021-02-24T13:37:15Z</time>
      </trkpt>
      <trkpt lat="44.38978" lon="4.92819">
        <ele>175.4</ele>
        <time>2021-02-24T13:37:16Z</time>
      </trkpt>
      <trkpt lat="44.38975" lon="4.92816">
        <ele>175.4</ele>
        <time>2021-02-24T13:37:17Z</time>
      </trkpt>
      <trkpt lat="44.38973" lon="4.92814">
        <ele>175.3</ele>
        <time>2021-02-24T13:37:18Z</time>
      </trkpt>
      <trkpt lat="44.38971" lon="4.92812">
        <ele>175.3</ele>
        <time>2021-02-24T13:37:19Z</time>
      </trkpt>
      <trkpt lat="44.38969" lon="4.9281">
        <ele>175.3</ele>
        <time>2021-02-24T13:37:20Z</time>
      </trkpt>
      <trkpt lat="44.38967" lon="4.92808">
        <ele>175.3</ele>
        <time>2021-02-24T13:37:21Z</time>
      </trkpt>
      <trkpt lat="44.38967" lon="4.92808">
        <ele>175.3</ele>
        <time>2021-02-24T13:37:22Z</time>
      </trkpt>
      <trkpt lat="44.38967" lon="4.92808">
        <ele>175.3</ele>
        <time>2021-02-24T13:37:23Z</time>
      </trkpt>
      <trkpt lat="44.38967" lon="4.92808">
        <ele>175.3</ele>
        <time>2021-02-24T13:37:24Z</time>
      </trkpt>
      <trkpt lat="44.38965" lon="4.9281">
        <ele>175.3</ele>
        <time>2021-02-24T13:37:25Z</time>
      </trkpt>
      <trkpt lat="44.38965" lon="4.9281">
        <ele>175.3</ele>
        <time>2021-02-24T13:37:26Z</time>
      </trkpt>
      <trkpt lat="44.38966" lon="4.92814">
        <ele>175.3</ele>
        <time>2021-02-24T13:37:27Z</time>
      </trkpt>
      <trkpt lat="44.38968" lon="4.92816">
        <ele>175.3</ele>
        <time>2021-02-24T13:37:28Z</time>
      </trkpt>
      <trkpt lat="44.3897" lon="4.92818">
        <ele>175.3</ele>
        <time>2021-02-24T13:37:29Z</time>
      </trkpt>
      <trkpt lat="44.38973" lon="4.9282">
        <ele>175.3</ele>
        <time>2021-02-24T13:37:30Z</time>
      </trkpt>
      <trkpt lat="44.38976" lon="4.92823">
        <ele>175.3</ele>
        <time>2021-02-24T13:37:31Z</time>
      </trkpt>
      <trkpt lat="44.3898" lon="4.92826">
        <ele>175.3</ele>
        <time>2021-02-24T13:37:32Z</time>
      </trkpt>
      <trkpt lat="44.38984" lon="4.9283">
        <ele>175.4</ele>
        <time>2021-02-24T13:37:33Z</time>
      </trkpt>
      <trkpt lat="44.38987" lon="4.92833">
        <ele>175.4</ele>
        <time>2021-02-24T13:37:34Z</time>
      </trkpt>
      <trkpt lat="44.38991" lon="4.92837">
        <ele>175.4</ele>
        <time>2021-02-24T13:37:35Z</time>
      </trkpt>
      <trkpt lat="44.38995" lon="4.9284">
        <ele>175.4</ele>
        <time>2021-02-24T13:37:36Z</time>
      </trkpt>
      <trkpt lat="44.38999" lon="4.92842">
        <ele>175.4</ele>
        <time>2021-02-24T13:37:37Z</time>
      </trkpt>
      <trkpt lat="44.39002" lon="4.92842">
        <ele>175.4</ele>
        <time>2021-02-24T13:37:38Z</time>
      </trkpt>
      <trkpt lat="44.39006" lon="4.92839">
        <ele>175.4</ele>
        <time>2021-02-24T13:37:39Z</time>
      </trkpt>
      <trkpt lat="44.39008" lon="4.92835">
        <ele>175.3</ele>
        <time>2021-02-24T13:37:40Z</time>
      </trkpt>
      <trkpt lat="44.39008" lon="4.92835">
        <ele>175.3</ele>
        <time>2021-02-24T13:37:41Z</time>
      </trkpt>
      <trkpt lat="44.3901" lon="4.92831">
        <ele>175.3</ele>
        <time>2021-02-24T13:37:42Z</time>
      </trkpt>
      <trkpt lat="44.39011" lon="4.92825">
        <ele>175.2</ele>
        <time>2021-02-24T13:37:43Z</time>
      </trkpt>
      <trkpt lat="44.39012" lon="4.92819">
        <ele>175.2</ele>
        <time>2021-02-24T13:37:44Z</time>
      </trkpt>
      <trkpt lat="44.39013" lon="4.92812">
        <ele>175.1</ele>
        <time>2021-02-24T13:37:45Z</time>
      </trkpt>
      <trkpt lat="44.39014" lon="4.92806">
        <ele>175</ele>
        <time>2021-02-24T13:37:46Z</time>
      </trkpt>
      <trkpt lat="44.39015" lon="4.92798">
        <ele>175</ele>
        <time>2021-02-24T13:37:47Z</time>
      </trkpt>
      <trkpt lat="44.39016" lon="4.92791">
        <ele>175</ele>
        <time>2021-02-24T13:37:48Z</time>
      </trkpt>
      <trkpt lat="44.39017" lon="4.92784">
        <ele>175</ele>
        <time>2021-02-24T13:37:49Z</time>
      </trkpt>
      <trkpt lat="44.39018" lon="4.92776">
        <ele>174.9</ele>
        <time>2021-02-24T13:37:50Z</time>
      </trkpt>
      <trkpt lat="44.39018" lon="4.92769">
        <ele>174.9</ele>
        <time>2021-02-24T13:37:51Z</time>
      </trkpt>
      <trkpt lat="44.39019" lon="4.92762">
        <ele>174.9</ele>
        <time>2021-02-24T13:37:52Z</time>
      </trkpt>
      <trkpt lat="44.3902" lon="4.92755">
        <ele>174.9</ele>
        <time>2021-02-24T13:37:53Z</time>
      </trkpt>
      <trkpt lat="44.39022" lon="4.92748">
        <ele>174.9</ele>
        <time>2021-02-24T13:37:54Z</time>
      </trkpt>
      <trkpt lat="44.39023" lon="4.92742">
        <ele>174.9</ele>
        <time>2021-02-24T13:37:55Z</time>
      </trkpt>
      <trkpt lat="44.39024" lon="4.92735">
        <ele>174.8</ele>
        <time>2021-02-24T13:37:56Z</time>
      </trkpt>
      <trkpt lat="44.39025" lon="4.92729">
        <ele>174.8</ele>
        <time>2021-02-24T13:37:57Z</time>
      </trkpt>
      <trkpt lat="44.39026" lon="4.92722">
        <ele>174.8</ele>
        <time>2021-02-24T13:37:58Z</time>
      </trkpt>
      <trkpt lat="44.39029" lon="4.92709">
        <ele>174.6</ele>
        <time>2021-02-24T13:37:59Z</time>
      </trkpt>
      <trkpt lat="44.3903" lon="4.92702">
        <ele>174.5</ele>
        <time>2021-02-24T13:38:00Z</time>
      </trkpt>
      <trkpt lat="44.39032" lon="4.92695">
        <ele>174.4</ele>
        <time>2021-02-24T13:38:01Z</time>
      </trkpt>
      <trkpt lat="44.39033" lon="4.92687">
        <ele>174.3</ele>
        <time>2021-02-24T13:38:02Z</time>
      </trkpt>
      <trkpt lat="44.39033" lon="4.9268">
        <ele>174.2</ele>
        <time>2021-02-24T13:38:03Z</time>
      </trkpt>
      <trkpt lat="44.39032" lon="4.92672">
        <ele>174.1</ele>
        <time>2021-02-24T13:38:04Z</time>
      </trkpt>
      <trkpt lat="44.39032" lon="4.92663">
        <ele>173.9</ele>
        <time>2021-02-24T13:38:05Z</time>
      </trkpt>
      <trkpt lat="44.39031" lon="4.92656">
        <ele>173.8</ele>
        <time>2021-02-24T13:38:06Z</time>
      </trkpt>
      <trkpt lat="44.39029" lon="4.92648">
        <ele>173.7</ele>
        <time>2021-02-24T13:38:07Z</time>
      </trkpt>
      <trkpt lat="44.39026" lon="4.9264">
        <ele>173.5</ele>
        <time>2021-02-24T13:38:08Z</time>
      </trkpt>
      <trkpt lat="44.39022" lon="4.92632">
        <ele>173.4</ele>
        <time>2021-02-24T13:38:09Z</time>
      </trkpt>
      <trkpt lat="44.39019" lon="4.92624">
        <ele>173.2</ele>
        <time>2021-02-24T13:38:10Z</time>
      </trkpt>
      <trkpt lat="44.39016" lon="4.92616">
        <ele>173.1</ele>
        <time>2021-02-24T13:38:11Z</time>
      </trkpt>
      <trkpt lat="44.39015" lon="4.92607">
        <ele>173</ele>
        <time>2021-02-24T13:38:12Z</time>
      </trkpt>
      <trkpt lat="44.39015" lon="4.92599">
        <ele>173</ele>
        <time>2021-02-24T13:38:13Z</time>
      </trkpt>
      <trkpt lat="44.39015" lon="4.9259">
        <ele>173</ele>
        <time>2021-02-24T13:38:14Z</time>
      </trkpt>
      <trkpt lat="44.39016" lon="4.92581">
        <ele>172.9</ele>
        <time>2021-02-24T13:38:15Z</time>
      </trkpt>
      <trkpt lat="44.39017" lon="4.92572">
        <ele>172.9</ele>
        <time>2021-02-24T13:38:16Z</time>
      </trkpt>
      <trkpt lat="44.39018" lon="4.92563">
        <ele>172.9</ele>
        <time>2021-02-24T13:38:17Z</time>
      </trkpt>
      <trkpt lat="44.39019" lon="4.92555">
        <ele>172.8</ele>
        <time>2021-02-24T13:38:18Z</time>
      </trkpt>
      <trkpt lat="44.39019" lon="4.92555">
        <ele>172.8</ele>
        <time>2021-02-24T13:38:19Z</time>
      </trkpt>
      <trkpt lat="44.3902" lon="4.92546">
        <ele>172.7</ele>
        <time>2021-02-24T13:38:20Z</time>
      </trkpt>
      <trkpt lat="44.39021" lon="4.92538">
        <ele>172.7</ele>
        <time>2021-02-24T13:38:21Z</time>
      </trkpt>
      <trkpt lat="44.39022" lon="4.9253">
        <ele>172.6</ele>
        <time>2021-02-24T13:38:22Z</time>
      </trkpt>
      <trkpt lat="44.39024" lon="4.92522">
        <ele>172.6</ele>
        <time>2021-02-24T13:38:23Z</time>
      </trkpt>
      <trkpt lat="44.39025" lon="4.92514">
        <ele>172.5</ele>
        <time>2021-02-24T13:38:24Z</time>
      </trkpt>
      <trkpt lat="44.39027" lon="4.92507">
        <ele>172.5</ele>
        <time>2021-02-24T13:38:25Z</time>
      </trkpt>
      <trkpt lat="44.39028" lon="4.92499">
        <ele>172.4</ele>
        <time>2021-02-24T13:38:26Z</time>
      </trkpt>
      <trkpt lat="44.3903" lon="4.92491">
        <ele>172.4</ele>
        <time>2021-02-24T13:38:27Z</time>
      </trkpt>
      <trkpt lat="44.39032" lon="4.92483">
        <ele>172.3</ele>
        <time>2021-02-24T13:38:28Z</time>
      </trkpt>
      <trkpt lat="44.39034" lon="4.92474">
        <ele>172.3</ele>
        <time>2021-02-24T13:38:29Z</time>
      </trkpt>
      <trkpt lat="44.39035" lon="4.92466">
        <ele>172.2</ele>
        <time>2021-02-24T13:38:30Z</time>
      </trkpt>
      <trkpt lat="44.39038" lon="4.92448">
        <ele>172</ele>
        <time>2021-02-24T13:38:31Z</time>
      </trkpt>
      <trkpt lat="44.39039" lon="4.92439">
        <ele>171.9</ele>
        <time>2021-02-24T13:38:32Z</time>
      </trkpt>
      <trkpt lat="44.39041" lon="4.9243">
        <ele>171.8</ele>
        <time>2021-02-24T13:38:33Z</time>
      </trkpt>
      <trkpt lat="44.39042" lon="4.92421">
        <ele>171.6</ele>
        <time>2021-02-24T13:38:34Z</time>
      </trkpt>
      <trkpt lat="44.39044" lon="4.92412">
        <ele>171.5</ele>
        <time>2021-02-24T13:38:35Z</time>
      </trkpt>
      <trkpt lat="44.39045" lon="4.92403">
        <ele>171.5</ele>
        <time>2021-02-24T13:38:36Z</time>
      </trkpt>
      <trkpt lat="44.39046" lon="4.92394">
        <ele>171.4</ele>
        <time>2021-02-24T13:38:37Z</time>
      </trkpt>
      <trkpt lat="44.39048" lon="4.92385">
        <ele>171.4</ele>
        <time>2021-02-24T13:38:38Z</time>
      </trkpt>
      <trkpt lat="44.39049" lon="4.92376">
        <ele>171.4</ele>
        <time>2021-02-24T13:38:39Z</time>
      </trkpt>
      <trkpt lat="44.39051" lon="4.92367">
        <ele>171.3</ele>
        <time>2021-02-24T13:38:40Z</time>
      </trkpt>
      <trkpt lat="44.39052" lon="4.92359">
        <ele>171.3</ele>
        <time>2021-02-24T13:38:41Z</time>
      </trkpt>
      <trkpt lat="44.39054" lon="4.9235">
        <ele>171.2</ele>
        <time>2021-02-24T13:38:42Z</time>
      </trkpt>
      <trkpt lat="44.39055" lon="4.92341">
        <ele>171.2</ele>
        <time>2021-02-24T13:38:43Z</time>
      </trkpt>
      <trkpt lat="44.39057" lon="4.92333">
        <ele>171.1</ele>
        <time>2021-02-24T13:38:44Z</time>
      </trkpt>
      <trkpt lat="44.39058" lon="4.92324">
        <ele>171.1</ele>
        <time>2021-02-24T13:38:45Z</time>
      </trkpt>
      <trkpt lat="44.3906" lon="4.92315">
        <ele>171</ele>
        <time>2021-02-24T13:38:46Z</time>
      </trkpt>
      <trkpt lat="44.39061" lon="4.92307">
        <ele>170.8</ele>
        <time>2021-02-24T13:38:47Z</time>
      </trkpt>
      <trkpt lat="44.39062" lon="4.92298">
        <ele>170.5</ele>
        <time>2021-02-24T13:38:48Z</time>
      </trkpt>
      <trkpt lat="44.39063" lon="4.92289">
        <ele>170.4</ele>
        <time>2021-02-24T13:38:49Z</time>
      </trkpt>
      <trkpt lat="44.39065" lon="4.9228">
        <ele>170.2</ele>
        <time>2021-02-24T13:38:50Z</time>
      </trkpt>
      <trkpt lat="44.39066" lon="4.92271">
        <ele>170.2</ele>
        <time>2021-02-24T13:38:51Z</time>
      </trkpt>
      <trkpt lat="44.39067" lon="4.92262">
        <ele>170.2</ele>
        <time>2021-02-24T13:38:52Z</time>
      </trkpt>
      <trkpt lat="44.39068" lon="4.92253">
        <ele>170.2</ele>
        <time>2021-02-24T13:38:53Z</time>
      </trkpt>
      <trkpt lat="44.39068" lon="4.92253">
        <ele>170.2</ele>
        <time>2021-02-24T13:38:54Z</time>
      </trkpt>
      <trkpt lat="44.39069" lon="4.92244">
        <ele>170.2</ele>
        <time>2021-02-24T13:38:55Z</time>
      </trkpt>
      <trkpt lat="44.39071" lon="4.92225">
        <ele>170</ele>
        <time>2021-02-24T13:38:56Z</time>
      </trkpt>
      <trkpt lat="44.39071" lon="4.92225">
        <ele>170</ele>
        <time>2021-02-24T13:38:57Z</time>
      </trkpt>
      <trkpt lat="44.39072" lon="4.92216">
        <ele>169.9</ele>
        <time>2021-02-24T13:38:58Z</time>
      </trkpt>
      <trkpt lat="44.39073" lon="4.92207">
        <ele>169.8</ele>
        <time>2021-02-24T13:38:59Z</time>
      </trkpt>
      <trkpt lat="44.39074" lon="4.92197">
        <ele>169.7</ele>
        <time>2021-02-24T13:39:00Z</time>
      </trkpt>
      <trkpt lat="44.39075" lon="4.92178">
        <ele>169.5</ele>
        <time>2021-02-24T13:39:01Z</time>
      </trkpt>
      <trkpt lat="44.39075" lon="4.92169">
        <ele>169.4</ele>
        <time>2021-02-24T13:39:02Z</time>
      </trkpt>
      <trkpt lat="44.39075" lon="4.92169">
        <ele>169.4</ele>
        <time>2021-02-24T13:39:03Z</time>
      </trkpt>
      <trkpt lat="44.39075" lon="4.9215">
        <ele>169.3</ele>
        <time>2021-02-24T13:39:04Z</time>
      </trkpt>
      <trkpt lat="44.39076" lon="4.9214">
        <ele>169.3</ele>
        <time>2021-02-24T13:39:05Z</time>
      </trkpt>
      <trkpt lat="44.39077" lon="4.92131">
        <ele>169.3</ele>
        <time>2021-02-24T13:39:06Z</time>
      </trkpt>
      <trkpt lat="44.39079" lon="4.92122">
        <ele>169.3</ele>
        <time>2021-02-24T13:39:07Z</time>
      </trkpt>
      <trkpt lat="44.39079" lon="4.92122">
        <ele>169.3</ele>
        <time>2021-02-24T13:39:08Z</time>
      </trkpt>
      <trkpt lat="44.39082" lon="4.92114">
        <ele>169.3</ele>
        <time>2021-02-24T13:39:09Z</time>
      </trkpt>
      <trkpt lat="44.39087" lon="4.92107">
        <ele>169.2</ele>
        <time>2021-02-24T13:39:10Z</time>
      </trkpt>
      <trkpt lat="44.39098" lon="4.92096">
        <ele>169.1</ele>
        <time>2021-02-24T13:39:11Z</time>
      </trkpt>
      <trkpt lat="44.39098" lon="4.92096">
        <ele>169.1</ele>
        <time>2021-02-24T13:39:12Z</time>
      </trkpt>
      <trkpt lat="44.39103" lon="4.9209">
        <ele>169.1</ele>
        <time>2021-02-24T13:39:13Z</time>
      </trkpt>
      <trkpt lat="44.39109" lon="4.92085">
        <ele>169.1</ele>
        <time>2021-02-24T13:39:14Z</time>
      </trkpt>
      <trkpt lat="44.3912" lon="4.92075">
        <ele>169.1</ele>
        <time>2021-02-24T13:39:15Z</time>
      </trkpt>
      <trkpt lat="44.39125" lon="4.9207">
        <ele>169.1</ele>
        <time>2021-02-24T13:39:16Z</time>
      </trkpt>
      <trkpt lat="44.3913" lon="4.92065">
        <ele>169.2</ele>
        <time>2021-02-24T13:39:17Z</time>
      </trkpt>
      <trkpt lat="44.39134" lon="4.92061">
        <ele>169.2</ele>
        <time>2021-02-24T13:39:18Z</time>
      </trkpt>
      <trkpt lat="44.39138" lon="4.92056">
        <ele>169.3</ele>
        <time>2021-02-24T13:39:19Z</time>
      </trkpt>
      <trkpt lat="44.39142" lon="4.92051">
        <ele>169.3</ele>
        <time>2021-02-24T13:39:20Z</time>
      </trkpt>
      <trkpt lat="44.39144" lon="4.92045">
        <ele>169.4</ele>
        <time>2021-02-24T13:39:21Z</time>
      </trkpt>
      <trkpt lat="44.39145" lon="4.92039">
        <ele>169.3</ele>
        <time>2021-02-24T13:39:22Z</time>
      </trkpt>
      <trkpt lat="44.39144" lon="4.92032">
        <ele>169.3</ele>
        <time>2021-02-24T13:39:23Z</time>
      </trkpt>
      <trkpt lat="44.39143" lon="4.92026">
        <ele>169.2</ele>
        <time>2021-02-24T13:39:24Z</time>
      </trkpt>
      <trkpt lat="44.3914" lon="4.92019">
        <ele>169.1</ele>
        <time>2021-02-24T13:39:25Z</time>
      </trkpt>
      <trkpt lat="44.39137" lon="4.92012">
        <ele>169.1</ele>
        <time>2021-02-24T13:39:26Z</time>
      </trkpt>
      <trkpt lat="44.39134" lon="4.92005">
        <ele>169</ele>
        <time>2021-02-24T13:39:27Z</time>
      </trkpt>
      <trkpt lat="44.39131" lon="4.91998">
        <ele>169</ele>
        <time>2021-02-24T13:39:28Z</time>
      </trkpt>
      <trkpt lat="44.39128" lon="4.91991">
        <ele>168.9</ele>
        <time>2021-02-24T13:39:29Z</time>
      </trkpt>
      <trkpt lat="44.39124" lon="4.91984">
        <ele>168.9</ele>
        <time>2021-02-24T13:39:30Z</time>
      </trkpt>
      <trkpt lat="44.39121" lon="4.91977">
        <ele>168.8</ele>
        <time>2021-02-24T13:39:31Z</time>
      </trkpt>
      <trkpt lat="44.39118" lon="4.9197">
        <ele>168.8</ele>
        <time>2021-02-24T13:39:32Z</time>
      </trkpt>
      <trkpt lat="44.39115" lon="4.91963">
        <ele>168.8</ele>
        <time>2021-02-24T13:39:33Z</time>
      </trkpt>
      <trkpt lat="44.39115" lon="4.91963">
        <ele>168.8</ele>
        <time>2021-02-24T13:39:34Z</time>
      </trkpt>
      <trkpt lat="44.39112" lon="4.91957">
        <ele>168.7</ele>
        <time>2021-02-24T13:39:35Z</time>
      </trkpt>
      <trkpt lat="44.39108" lon="4.9195">
        <ele>168.7</ele>
        <time>2021-02-24T13:39:36Z</time>
      </trkpt>
      <trkpt lat="44.39105" lon="4.91943">
        <ele>168.6</ele>
        <time>2021-02-24T13:39:37Z</time>
      </trkpt>
      <trkpt lat="44.39102" lon="4.91935">
        <ele>168.6</ele>
        <time>2021-02-24T13:39:38Z</time>
      </trkpt>
      <trkpt lat="44.39099" lon="4.91928">
        <ele>168.5</ele>
        <time>2021-02-24T13:39:39Z</time>
      </trkpt>
      <trkpt lat="44.39096" lon="4.91921">
        <ele>168.4</ele>
        <time>2021-02-24T13:39:40Z</time>
      </trkpt>
      <trkpt lat="44.39093" lon="4.91915">
        <ele>168.4</ele>
        <time>2021-02-24T13:39:41Z</time>
      </trkpt>
      <trkpt lat="44.3909" lon="4.91908">
        <ele>168.3</ele>
        <time>2021-02-24T13:39:42Z</time>
      </trkpt>
      <trkpt lat="44.39085" lon="4.91894">
        <ele>168.2</ele>
        <time>2021-02-24T13:39:43Z</time>
      </trkpt>
      <trkpt lat="44.39082" lon="4.91887">
        <ele>168.1</ele>
        <time>2021-02-24T13:39:44Z</time>
      </trkpt>
      <trkpt lat="44.3908" lon="4.9188">
        <ele>168.1</ele>
        <time>2021-02-24T13:39:45Z</time>
      </trkpt>
      <trkpt lat="44.39077" lon="4.91873">
        <ele>168.1</ele>
        <time>2021-02-24T13:39:46Z</time>
      </trkpt>
      <trkpt lat="44.39074" lon="4.91866">
        <ele>168.1</ele>
        <time>2021-02-24T13:39:47Z</time>
      </trkpt>
      <trkpt lat="44.39071" lon="4.91859">
        <ele>168</ele>
        <time>2021-02-24T13:39:48Z</time>
      </trkpt>
      <trkpt lat="44.39068" lon="4.91852">
        <ele>168</ele>
        <time>2021-02-24T13:39:49Z</time>
      </trkpt>
      <trkpt lat="44.39066" lon="4.91845">
        <ele>168</ele>
        <time>2021-02-24T13:39:50Z</time>
      </trkpt>
      <trkpt lat="44.39063" lon="4.91839">
        <ele>168</ele>
        <time>2021-02-24T13:39:51Z</time>
      </trkpt>
      <trkpt lat="44.39061" lon="4.91832">
        <ele>168</ele>
        <time>2021-02-24T13:39:52Z</time>
      </trkpt>
      <trkpt lat="44.39058" lon="4.91825">
        <ele>168</ele>
        <time>2021-02-24T13:39:53Z</time>
      </trkpt>
      <trkpt lat="44.39055" lon="4.91818">
        <ele>168</ele>
        <time>2021-02-24T13:39:54Z</time>
      </trkpt>
      <trkpt lat="44.39053" lon="4.91811">
        <ele>168</ele>
        <time>2021-02-24T13:39:55Z</time>
      </trkpt>
      <trkpt lat="44.39051" lon="4.91804">
        <ele>167.9</ele>
        <time>2021-02-24T13:39:56Z</time>
      </trkpt>
      <trkpt lat="44.39049" lon="4.91796">
        <ele>167.9</ele>
        <time>2021-02-24T13:39:57Z</time>
      </trkpt>
      <trkpt lat="44.39048" lon="4.91788">
        <ele>167.9</ele>
        <time>2021-02-24T13:39:58Z</time>
      </trkpt>
      <trkpt lat="44.39048" lon="4.9178">
        <ele>167.8</ele>
        <time>2021-02-24T13:39:59Z</time>
      </trkpt>
      <trkpt lat="44.39048" lon="4.91772">
        <ele>167.7</ele>
        <time>2021-02-24T13:40:00Z</time>
      </trkpt>
      <trkpt lat="44.39049" lon="4.91763">
        <ele>167.7</ele>
        <time>2021-02-24T13:40:01Z</time>
      </trkpt>
      <trkpt lat="44.39051" lon="4.91755">
        <ele>167.6</ele>
        <time>2021-02-24T13:40:02Z</time>
      </trkpt>
      <trkpt lat="44.39053" lon="4.91747">
        <ele>167.5</ele>
        <time>2021-02-24T13:40:03Z</time>
      </trkpt>
      <trkpt lat="44.39054" lon="4.91738">
        <ele>167.4</ele>
        <time>2021-02-24T13:40:04Z</time>
      </trkpt>
      <trkpt lat="44.39056" lon="4.9173">
        <ele>167.4</ele>
        <time>2021-02-24T13:40:05Z</time>
      </trkpt>
      <trkpt lat="44.39057" lon="4.91721">
        <ele>167.2</ele>
        <time>2021-02-24T13:40:06Z</time>
      </trkpt>
      <trkpt lat="44.39059" lon="4.91712">
        <ele>167.1</ele>
        <time>2021-02-24T13:40:07Z</time>
      </trkpt>
      <trkpt lat="44.39059" lon="4.91712">
        <ele>167.1</ele>
        <time>2021-02-24T13:40:08Z</time>
      </trkpt>
      <trkpt lat="44.3906" lon="4.91704">
        <ele>167</ele>
        <time>2021-02-24T13:40:09Z</time>
      </trkpt>
      <trkpt lat="44.39062" lon="4.91695">
        <ele>166.8</ele>
        <time>2021-02-24T13:40:10Z</time>
      </trkpt>
      <trkpt lat="44.39064" lon="4.91686">
        <ele>166.7</ele>
        <time>2021-02-24T13:40:11Z</time>
      </trkpt>
      <trkpt lat="44.39068" lon="4.91668">
        <ele>166.4</ele>
        <time>2021-02-24T13:40:12Z</time>
      </trkpt>
      <trkpt lat="44.39071" lon="4.9166">
        <ele>166.4</ele>
        <time>2021-02-24T13:40:13Z</time>
      </trkpt>
      <trkpt lat="44.39073" lon="4.91651">
        <ele>166.3</ele>
        <time>2021-02-24T13:40:14Z</time>
      </trkpt>
      <trkpt lat="44.39075" lon="4.91643">
        <ele>166.3</ele>
        <time>2021-02-24T13:40:15Z</time>
      </trkpt>
      <trkpt lat="44.39075" lon="4.91643">
        <ele>166.3</ele>
        <time>2021-02-24T13:40:16Z</time>
      </trkpt>
      <trkpt lat="44.39078" lon="4.91635">
        <ele>166.3</ele>
        <time>2021-02-24T13:40:17Z</time>
      </trkpt>
      <trkpt lat="44.3908" lon="4.91627">
        <ele>166.3</ele>
        <time>2021-02-24T13:40:18Z</time>
      </trkpt>
      <trkpt lat="44.39082" lon="4.91619">
        <ele>166.2</ele>
        <time>2021-02-24T13:40:19Z</time>
      </trkpt>
      <trkpt lat="44.39084" lon="4.91611">
        <ele>166.2</ele>
        <time>2021-02-24T13:40:20Z</time>
      </trkpt>
      <trkpt lat="44.39086" lon="4.91602">
        <ele>166.1</ele>
        <time>2021-02-24T13:40:21Z</time>
      </trkpt>
      <trkpt lat="44.39087" lon="4.91594">
        <ele>166.1</ele>
        <time>2021-02-24T13:40:22Z</time>
      </trkpt>
      <trkpt lat="44.39088" lon="4.91585">
        <ele>166.1</ele>
        <time>2021-02-24T13:40:23Z</time>
      </trkpt>
      <trkpt lat="44.3909" lon="4.91567">
        <ele>166.1</ele>
        <time>2021-02-24T13:40:24Z</time>
      </trkpt>
      <trkpt lat="44.39091" lon="4.91559">
        <ele>166.1</ele>
        <time>2021-02-24T13:40:25Z</time>
      </trkpt>
      <trkpt lat="44.39091" lon="4.91551">
        <ele>166.2</ele>
        <time>2021-02-24T13:40:26Z</time>
      </trkpt>
      <trkpt lat="44.39091" lon="4.91544">
        <ele>166.3</ele>
        <time>2021-02-24T13:40:27Z</time>
      </trkpt>
      <trkpt lat="44.39091" lon="4.91536">
        <ele>166.3</ele>
        <time>2021-02-24T13:40:28Z</time>
      </trkpt>
      <trkpt lat="44.39093" lon="4.91529">
        <ele>166.3</ele>
        <time>2021-02-24T13:40:29Z</time>
      </trkpt>
      <trkpt lat="44.39095" lon="4.91522">
        <ele>166.3</ele>
        <time>2021-02-24T13:40:30Z</time>
      </trkpt>
      <trkpt lat="44.39096" lon="4.91515">
        <ele>166.3</ele>
        <time>2021-02-24T13:40:31Z</time>
      </trkpt>
      <trkpt lat="44.39096" lon="4.91515">
        <ele>166.3</ele>
        <time>2021-02-24T13:40:32Z</time>
      </trkpt>
      <trkpt lat="44.39099" lon="4.91499">
        <ele>166.2</ele>
        <time>2021-02-24T13:40:33Z</time>
      </trkpt>
      <trkpt lat="44.39099" lon="4.91491">
        <ele>166.2</ele>
        <time>2021-02-24T13:40:34Z</time>
      </trkpt>
      <trkpt lat="44.39099" lon="4.91483">
        <ele>166.1</ele>
        <time>2021-02-24T13:40:35Z</time>
      </trkpt>
      <trkpt lat="44.39098" lon="4.91475">
        <ele>166.1</ele>
        <time>2021-02-24T13:40:36Z</time>
      </trkpt>
      <trkpt lat="44.39098" lon="4.91467">
        <ele>166.1</ele>
        <time>2021-02-24T13:40:37Z</time>
      </trkpt>
      <trkpt lat="44.39097" lon="4.91458">
        <ele>166.1</ele>
        <time>2021-02-24T13:40:38Z</time>
      </trkpt>
      <trkpt lat="44.39097" lon="4.9145">
        <ele>166.1</ele>
        <time>2021-02-24T13:40:39Z</time>
      </trkpt>
      <trkpt lat="44.39096" lon="4.91442">
        <ele>166</ele>
        <time>2021-02-24T13:40:40Z</time>
      </trkpt>
      <trkpt lat="44.39096" lon="4.91442">
        <ele>166</ele>
        <time>2021-02-24T13:40:41Z</time>
      </trkpt>
      <trkpt lat="44.39095" lon="4.91433">
        <ele>166</ele>
        <time>2021-02-24T13:40:42Z</time>
      </trkpt>
      <trkpt lat="44.39094" lon="4.91425">
        <ele>166</ele>
        <time>2021-02-24T13:40:43Z</time>
      </trkpt>
      <trkpt lat="44.39094" lon="4.91417">
        <ele>166</ele>
        <time>2021-02-24T13:40:44Z</time>
      </trkpt>
      <trkpt lat="44.39093" lon="4.91409">
        <ele>166</ele>
        <time>2021-02-24T13:40:45Z</time>
      </trkpt>
      <trkpt lat="44.39093" lon="4.914">
        <ele>166</ele>
        <time>2021-02-24T13:40:46Z</time>
      </trkpt>
      <trkpt lat="44.39093" lon="4.91392">
        <ele>166</ele>
        <time>2021-02-24T13:40:47Z</time>
      </trkpt>
      <trkpt lat="44.39094" lon="4.91383">
        <ele>166</ele>
        <time>2021-02-24T13:40:48Z</time>
      </trkpt>
      <trkpt lat="44.39096" lon="4.91366">
        <ele>165.9</ele>
        <time>2021-02-24T13:40:49Z</time>
      </trkpt>
      <trkpt lat="44.39097" lon="4.91358">
        <ele>165.9</ele>
        <time>2021-02-24T13:40:50Z</time>
      </trkpt>
      <trkpt lat="44.39099" lon="4.9135">
        <ele>165.9</ele>
        <time>2021-02-24T13:40:51Z</time>
      </trkpt>
      <trkpt lat="44.39101" lon="4.91343">
        <ele>165.9</ele>
        <time>2021-02-24T13:40:52Z</time>
      </trkpt>
      <trkpt lat="44.39103" lon="4.91337">
        <ele>165.9</ele>
        <time>2021-02-24T13:40:53Z</time>
      </trkpt>
      <trkpt lat="44.39105" lon="4.9133">
        <ele>165.9</ele>
        <time>2021-02-24T13:40:54Z</time>
      </trkpt>
      <trkpt lat="44.39108" lon="4.91324">
        <ele>165.8</ele>
        <time>2021-02-24T13:40:55Z</time>
      </trkpt>
      <trkpt lat="44.3911" lon="4.91317">
        <ele>165.8</ele>
        <time>2021-02-24T13:40:56Z</time>
      </trkpt>
      <trkpt lat="44.39111" lon="4.91311">
        <ele>165.8</ele>
        <time>2021-02-24T13:40:57Z</time>
      </trkpt>
      <trkpt lat="44.39112" lon="4.91306">
        <ele>165.8</ele>
        <time>2021-02-24T13:40:58Z</time>
      </trkpt>
      <trkpt lat="44.39112" lon="4.91302">
        <ele>165.7</ele>
        <time>2021-02-24T13:40:59Z</time>
      </trkpt>
      <trkpt lat="44.39111" lon="4.91297">
        <ele>165.7</ele>
        <time>2021-02-24T13:41:00Z</time>
      </trkpt>
      <trkpt lat="44.39108" lon="4.91294">
        <ele>165.6</ele>
        <time>2021-02-24T13:41:01Z</time>
      </trkpt>
      <trkpt lat="44.39106" lon="4.91292">
        <ele>165.6</ele>
        <time>2021-02-24T13:41:02Z</time>
      </trkpt>
      <trkpt lat="44.39103" lon="4.91289">
        <ele>165.5</ele>
        <time>2021-02-24T13:41:03Z</time>
      </trkpt>
      <trkpt lat="44.39101" lon="4.91286">
        <ele>165.5</ele>
        <time>2021-02-24T13:41:04Z</time>
      </trkpt>
      <trkpt lat="44.39099" lon="4.9128">
        <ele>165.4</ele>
        <time>2021-02-24T13:41:05Z</time>
      </trkpt>
      <trkpt lat="44.391" lon="4.91274">
        <ele>165.3</ele>
        <time>2021-02-24T13:41:06Z</time>
      </trkpt>
      <trkpt lat="44.39101" lon="4.91267">
        <ele>165.2</ele>
        <time>2021-02-24T13:41:07Z</time>
      </trkpt>
      <trkpt lat="44.39103" lon="4.9126">
        <ele>165.1</ele>
        <time>2021-02-24T13:41:08Z</time>
      </trkpt>
      <trkpt lat="44.39105" lon="4.91253">
        <ele>165</ele>
        <time>2021-02-24T13:41:09Z</time>
      </trkpt>
      <trkpt lat="44.39108" lon="4.91246">
        <ele>164.9</ele>
        <time>2021-02-24T13:41:10Z</time>
      </trkpt>
      <trkpt lat="44.39108" lon="4.91246">
        <ele>164.9</ele>
        <time>2021-02-24T13:41:11Z</time>
      </trkpt>
      <trkpt lat="44.39112" lon="4.91242">
        <ele>164.8</ele>
        <time>2021-02-24T13:41:12Z</time>
      </trkpt>
      <trkpt lat="44.39117" lon="4.9124">
        <ele>164.7</ele>
        <time>2021-02-24T13:41:13Z</time>
      </trkpt>
      <trkpt lat="44.39122" lon="4.9124">
        <ele>164.6</ele>
        <time>2021-02-24T13:41:14Z</time>
      </trkpt>
      <trkpt lat="44.39128" lon="4.91239">
        <ele>164.5</ele>
        <time>2021-02-24T13:41:15Z</time>
      </trkpt>
      <trkpt lat="44.39134" lon="4.91237">
        <ele>164.4</ele>
        <time>2021-02-24T13:41:16Z</time>
      </trkpt>
      <trkpt lat="44.39138" lon="4.91232">
        <ele>164.2</ele>
        <time>2021-02-24T13:41:17Z</time>
      </trkpt>
      <trkpt lat="44.39141" lon="4.91226">
        <ele>164.1</ele>
        <time>2021-02-24T13:41:18Z</time>
      </trkpt>
      <trkpt lat="44.39144" lon="4.91218">
        <ele>164</ele>
        <time>2021-02-24T13:41:19Z</time>
      </trkpt>
      <trkpt lat="44.39147" lon="4.91202">
        <ele>163.8</ele>
        <time>2021-02-24T13:41:20Z</time>
      </trkpt>
      <trkpt lat="44.39149" lon="4.91193">
        <ele>163.6</ele>
        <time>2021-02-24T13:41:21Z</time>
      </trkpt>
      <trkpt lat="44.3915" lon="4.91184">
        <ele>163.5</ele>
        <time>2021-02-24T13:41:22Z</time>
      </trkpt>
      <trkpt lat="44.3915" lon="4.91184">
        <ele>163.5</ele>
        <time>2021-02-24T13:41:23Z</time>
      </trkpt>
      <trkpt lat="44.3915" lon="4.91166">
        <ele>163.3</ele>
        <time>2021-02-24T13:41:24Z</time>
      </trkpt>
      <trkpt lat="44.39149" lon="4.91157">
        <ele>163.2</ele>
        <time>2021-02-24T13:41:25Z</time>
      </trkpt>
      <trkpt lat="44.39147" lon="4.91148">
        <ele>163.1</ele>
        <time>2021-02-24T13:41:26Z</time>
      </trkpt>
      <trkpt lat="44.39144" lon="4.9114">
        <ele>163.1</ele>
        <time>2021-02-24T13:41:27Z</time>
      </trkpt>
      <trkpt lat="44.39142" lon="4.91132">
        <ele>163</ele>
        <time>2021-02-24T13:41:28Z</time>
      </trkpt>
      <trkpt lat="44.39139" lon="4.91124">
        <ele>162.9</ele>
        <time>2021-02-24T13:41:29Z</time>
      </trkpt>
      <trkpt lat="44.39137" lon="4.91116">
        <ele>162.9</ele>
        <time>2021-02-24T13:41:30Z</time>
      </trkpt>
      <trkpt lat="44.39134" lon="4.91108">
        <ele>162.8</ele>
        <time>2021-02-24T13:41:31Z</time>
      </trkpt>
      <trkpt lat="44.39132" lon="4.911">
        <ele>162.8</ele>
        <time>2021-02-24T13:41:32Z</time>
      </trkpt>
      <trkpt lat="44.3913" lon="4.91092">
        <ele>162.8</ele>
        <time>2021-02-24T13:41:33Z</time>
      </trkpt>
      <trkpt lat="44.39128" lon="4.91084">
        <ele>162.7</ele>
        <time>2021-02-24T13:41:34Z</time>
      </trkpt>
      <trkpt lat="44.39126" lon="4.91076">
        <ele>162.7</ele>
        <time>2021-02-24T13:41:35Z</time>
      </trkpt>
      <trkpt lat="44.39124" lon="4.91068">
        <ele>162.6</ele>
        <time>2021-02-24T13:41:36Z</time>
      </trkpt>
      <trkpt lat="44.39122" lon="4.91061">
        <ele>162.6</ele>
        <time>2021-02-24T13:41:37Z</time>
      </trkpt>
      <trkpt lat="44.39119" lon="4.91054">
        <ele>162.6</ele>
        <time>2021-02-24T13:41:38Z</time>
      </trkpt>
      <trkpt lat="44.39116" lon="4.91048">
        <ele>162.6</ele>
        <time>2021-02-24T13:41:39Z</time>
      </trkpt>
      <trkpt lat="44.39112" lon="4.91043">
        <ele>162.5</ele>
        <time>2021-02-24T13:41:40Z</time>
      </trkpt>
      <trkpt lat="44.39112" lon="4.91043">
        <ele>162.5</ele>
        <time>2021-02-24T13:41:41Z</time>
      </trkpt>
      <trkpt lat="44.39102" lon="4.91027">
        <ele>162.5</ele>
        <time>2021-02-24T13:41:42Z</time>
      </trkpt>
      <trkpt lat="44.39099" lon="4.91023">
        <ele>162.5</ele>
        <time>2021-02-24T13:41:43Z</time>
      </trkpt>
      <trkpt lat="44.39092" lon="4.91013">
        <ele>162.5</ele>
        <time>2021-02-24T13:41:44Z</time>
      </trkpt>
      <trkpt lat="44.3909" lon="4.9101">
        <ele>162.5</ele>
        <time>2021-02-24T13:41:45Z</time>
      </trkpt>
      <trkpt lat="44.39087" lon="4.91005">
        <ele>162.5</ele>
        <time>2021-02-24T13:41:46Z</time>
      </trkpt>
      <trkpt lat="44.39087" lon="4.91005">
        <ele>162.5</ele>
        <time>2021-02-24T13:41:47Z</time>
      </trkpt>
      <trkpt lat="44.39085" lon="4.91002">
        <ele>162.5</ele>
        <time>2021-02-24T13:41:48Z</time>
      </trkpt>
      <trkpt lat="44.39084" lon="4.90999">
        <ele>162.6</ele>
        <time>2021-02-24T13:41:49Z</time>
      </trkpt>
      <trkpt lat="44.39078" lon="4.90988">
        <ele>162.6</ele>
        <time>2021-02-24T13:41:50Z</time>
      </trkpt>
      <trkpt lat="44.39076" lon="4.90983">
        <ele>162.7</ele>
        <time>2021-02-24T13:41:51Z</time>
      </trkpt>
      <trkpt lat="44.39072" lon="4.90974">
        <ele>162.8</ele>
        <time>2021-02-24T13:41:52Z</time>
      </trkpt>
      <trkpt lat="44.39071" lon="4.90967">
        <ele>162.8</ele>
        <time>2021-02-24T13:41:53Z</time>
      </trkpt>
      <trkpt lat="44.39071" lon="4.90962">
        <ele>162.8</ele>
        <time>2021-02-24T13:41:54Z</time>
      </trkpt>
      <trkpt lat="44.39076" lon="4.90959">
        <ele>162.8</ele>
        <time>2021-02-24T13:41:55Z</time>
      </trkpt>
      <trkpt lat="44.3908" lon="4.90956">
        <ele>162.8</ele>
        <time>2021-02-24T13:41:56Z</time>
      </trkpt>
      <trkpt lat="44.39085" lon="4.90956">
        <ele>162.8</ele>
        <time>2021-02-24T13:41:57Z</time>
      </trkpt>
      <trkpt lat="44.39089" lon="4.90956">
        <ele>162.8</ele>
        <time>2021-02-24T13:41:58Z</time>
      </trkpt>
      <trkpt lat="44.39099" lon="4.90956">
        <ele>162.7</ele>
        <time>2021-02-24T13:41:59Z</time>
      </trkpt>
      <trkpt lat="44.39104" lon="4.90957">
        <ele>162.6</ele>
        <time>2021-02-24T13:42:00Z</time>
      </trkpt>
      <trkpt lat="44.3911" lon="4.90957">
        <ele>162.6</ele>
        <time>2021-02-24T13:42:01Z</time>
      </trkpt>
      <trkpt lat="44.39116" lon="4.90957">
        <ele>162.6</ele>
        <time>2021-02-24T13:42:02Z</time>
      </trkpt>
      <trkpt lat="44.39122" lon="4.90956">
        <ele>162.6</ele>
        <time>2021-02-24T13:42:03Z</time>
      </trkpt>
      <trkpt lat="44.39127" lon="4.90956">
        <ele>162.6</ele>
        <time>2021-02-24T13:42:04Z</time>
      </trkpt>
      <trkpt lat="44.39133" lon="4.90956">
        <ele>162.6</ele>
        <time>2021-02-24T13:42:05Z</time>
      </trkpt>
      <trkpt lat="44.39144" lon="4.90957">
        <ele>162.7</ele>
        <time>2021-02-24T13:42:06Z</time>
      </trkpt>
      <trkpt lat="44.3915" lon="4.90957">
        <ele>162.8</ele>
        <time>2021-02-24T13:42:07Z</time>
      </trkpt>
      <trkpt lat="44.39155" lon="4.90958">
        <ele>162.8</ele>
        <time>2021-02-24T13:42:08Z</time>
      </trkpt>
      <trkpt lat="44.39161" lon="4.90959">
        <ele>162.8</ele>
        <time>2021-02-24T13:42:09Z</time>
      </trkpt>
      <trkpt lat="44.39166" lon="4.9096">
        <ele>162.9</ele>
        <time>2021-02-24T13:42:10Z</time>
      </trkpt>
      <trkpt lat="44.39172" lon="4.90961">
        <ele>162.9</ele>
        <time>2021-02-24T13:42:11Z</time>
      </trkpt>
      <trkpt lat="44.39177" lon="4.90962">
        <ele>163</ele>
        <time>2021-02-24T13:42:12Z</time>
      </trkpt>
      <trkpt lat="44.39183" lon="4.90964">
        <ele>163</ele>
        <time>2021-02-24T13:42:13Z</time>
      </trkpt>
      <trkpt lat="44.39188" lon="4.90965">
        <ele>163</ele>
        <time>2021-02-24T13:42:14Z</time>
      </trkpt>
      <trkpt lat="44.39194" lon="4.90967">
        <ele>163.1</ele>
        <time>2021-02-24T13:42:15Z</time>
      </trkpt>
      <trkpt lat="44.39199" lon="4.90969">
        <ele>163.1</ele>
        <time>2021-02-24T13:42:16Z</time>
      </trkpt>
      <trkpt lat="44.39205" lon="4.90971">
        <ele>163.1</ele>
        <time>2021-02-24T13:42:17Z</time>
      </trkpt>
      <trkpt lat="44.3921" lon="4.90972">
        <ele>163.2</ele>
        <time>2021-02-24T13:42:18Z</time>
      </trkpt>
      <trkpt lat="44.39215" lon="4.90972">
        <ele>163.2</ele>
        <time>2021-02-24T13:42:19Z</time>
      </trkpt>
      <trkpt lat="44.39219" lon="4.90972">
        <ele>163.2</ele>
        <time>2021-02-24T13:42:20Z</time>
      </trkpt>
      <trkpt lat="44.39219" lon="4.90972">
        <ele>163.2</ele>
        <time>2021-02-24T13:42:21Z</time>
      </trkpt>
      <trkpt lat="44.39224" lon="4.90969">
        <ele>163.1</ele>
        <time>2021-02-24T13:42:22Z</time>
      </trkpt>
      <trkpt lat="44.39228" lon="4.90966">
        <ele>163.1</ele>
        <time>2021-02-24T13:42:23Z</time>
      </trkpt>
      <trkpt lat="44.39232" lon="4.90961">
        <ele>163</ele>
        <time>2021-02-24T13:42:24Z</time>
      </trkpt>
      <trkpt lat="44.39238" lon="4.90947">
        <ele>162.9</ele>
        <time>2021-02-24T13:42:25Z</time>
      </trkpt>
      <trkpt lat="44.3924" lon="4.90938">
        <ele>162.8</ele>
        <time>2021-02-24T13:42:26Z</time>
      </trkpt>
      <trkpt lat="44.39242" lon="4.9093">
        <ele>162.7</ele>
        <time>2021-02-24T13:42:27Z</time>
      </trkpt>
      <trkpt lat="44.39244" lon="4.90922">
        <ele>162.7</ele>
        <time>2021-02-24T13:42:28Z</time>
      </trkpt>
      <trkpt lat="44.39244" lon="4.90922">
        <ele>162.7</ele>
        <time>2021-02-24T13:42:29Z</time>
      </trkpt>
      <trkpt lat="44.39246" lon="4.90913">
        <ele>162.7</ele>
        <time>2021-02-24T13:42:30Z</time>
      </trkpt>
      <trkpt lat="44.39248" lon="4.90905">
        <ele>162.7</ele>
        <time>2021-02-24T13:42:31Z</time>
      </trkpt>
      <trkpt lat="44.39249" lon="4.90896">
        <ele>162.6</ele>
        <time>2021-02-24T13:42:32Z</time>
      </trkpt>
      <trkpt lat="44.39251" lon="4.90887">
        <ele>162.6</ele>
        <time>2021-02-24T13:42:33Z</time>
      </trkpt>
      <trkpt lat="44.39252" lon="4.90879">
        <ele>162.6</ele>
        <time>2021-02-24T13:42:34Z</time>
      </trkpt>
      <trkpt lat="44.39254" lon="4.9087">
        <ele>162.5</ele>
        <time>2021-02-24T13:42:35Z</time>
      </trkpt>
      <trkpt lat="44.39255" lon="4.90861">
        <ele>162.5</ele>
        <time>2021-02-24T13:42:36Z</time>
      </trkpt>
      <trkpt lat="44.39258" lon="4.90844">
        <ele>162.4</ele>
        <time>2021-02-24T13:42:37Z</time>
      </trkpt>
      <trkpt lat="44.39259" lon="4.90836">
        <ele>162.4</ele>
        <time>2021-02-24T13:42:38Z</time>
      </trkpt>
      <trkpt lat="44.3926" lon="4.90828">
        <ele>162.4</ele>
        <time>2021-02-24T13:42:39Z</time>
      </trkpt>
      <trkpt lat="44.39261" lon="4.90819">
        <ele>162.3</ele>
        <time>2021-02-24T13:42:40Z</time>
      </trkpt>
      <trkpt lat="44.39263" lon="4.90811">
        <ele>162.3</ele>
        <time>2021-02-24T13:42:41Z</time>
      </trkpt>
      <trkpt lat="44.39264" lon="4.90803">
        <ele>162.3</ele>
        <time>2021-02-24T13:42:42Z</time>
      </trkpt>
      <trkpt lat="44.39265" lon="4.90795">
        <ele>162.2</ele>
        <time>2021-02-24T13:42:43Z</time>
      </trkpt>
      <trkpt lat="44.39266" lon="4.90787">
        <ele>162.2</ele>
        <time>2021-02-24T13:42:44Z</time>
      </trkpt>
      <trkpt lat="44.39266" lon="4.90787">
        <ele>162.2</ele>
        <time>2021-02-24T13:42:45Z</time>
      </trkpt>
      <trkpt lat="44.39267" lon="4.90778">
        <ele>162.1</ele>
        <time>2021-02-24T13:42:46Z</time>
      </trkpt>
      <trkpt lat="44.39268" lon="4.9077">
        <ele>162.1</ele>
        <time>2021-02-24T13:42:47Z</time>
      </trkpt>
      <trkpt lat="44.39269" lon="4.90762">
        <ele>162.1</ele>
        <time>2021-02-24T13:42:48Z</time>
      </trkpt>
      <trkpt lat="44.3927" lon="4.90753">
        <ele>162.1</ele>
        <time>2021-02-24T13:42:49Z</time>
      </trkpt>
      <trkpt lat="44.39271" lon="4.90744">
        <ele>162.1</ele>
        <time>2021-02-24T13:42:50Z</time>
      </trkpt>
      <trkpt lat="44.39271" lon="4.90735">
        <ele>162.1</ele>
        <time>2021-02-24T13:42:51Z</time>
      </trkpt>
      <trkpt lat="44.39272" lon="4.90727">
        <ele>162.1</ele>
        <time>2021-02-24T13:42:52Z</time>
      </trkpt>
      <trkpt lat="44.39272" lon="4.90718">
        <ele>162.1</ele>
        <time>2021-02-24T13:42:53Z</time>
      </trkpt>
      <trkpt lat="44.39274" lon="4.90701">
        <ele>162.1</ele>
        <time>2021-02-24T13:42:54Z</time>
      </trkpt>
      <trkpt lat="44.39275" lon="4.90692">
        <ele>162.2</ele>
        <time>2021-02-24T13:42:55Z</time>
      </trkpt>
      <trkpt lat="44.39277" lon="4.90684">
        <ele>162.2</ele>
        <time>2021-02-24T13:42:56Z</time>
      </trkpt>
      <trkpt lat="44.3928" lon="4.90677">
        <ele>162.2</ele>
        <time>2021-02-24T13:42:57Z</time>
      </trkpt>
      <trkpt lat="44.39282" lon="4.90669">
        <ele>162.2</ele>
        <time>2021-02-24T13:42:58Z</time>
      </trkpt>
      <trkpt lat="44.39285" lon="4.90661">
        <ele>162.3</ele>
        <time>2021-02-24T13:42:59Z</time>
      </trkpt>
      <trkpt lat="44.39288" lon="4.90654">
        <ele>162.3</ele>
        <time>2021-02-24T13:43:00Z</time>
      </trkpt>
      <trkpt lat="44.3929" lon="4.90646">
        <ele>162.3</ele>
        <time>2021-02-24T13:43:01Z</time>
      </trkpt>
      <trkpt lat="44.3929" lon="4.90646">
        <ele>162.3</ele>
        <time>2021-02-24T13:43:02Z</time>
      </trkpt>
      <trkpt lat="44.39295" lon="4.90631">
        <ele>162.4</ele>
        <time>2021-02-24T13:43:03Z</time>
      </trkpt>
      <trkpt lat="44.39297" lon="4.90623">
        <ele>162.5</ele>
        <time>2021-02-24T13:43:04Z</time>
      </trkpt>
      <trkpt lat="44.39301" lon="4.90616">
        <ele>162.5</ele>
        <time>2021-02-24T13:43:05Z</time>
      </trkpt>
      <trkpt lat="44.39304" lon="4.90608">
        <ele>162.6</ele>
        <time>2021-02-24T13:43:06Z</time>
      </trkpt>
      <trkpt lat="44.39307" lon="4.90601">
        <ele>162.7</ele>
        <time>2021-02-24T13:43:07Z</time>
      </trkpt>
      <trkpt lat="44.39311" lon="4.90594">
        <ele>162.9</ele>
        <time>2021-02-24T13:43:08Z</time>
      </trkpt>
      <trkpt lat="44.39314" lon="4.90587">
        <ele>163</ele>
        <time>2021-02-24T13:43:09Z</time>
      </trkpt>
      <trkpt lat="44.39316" lon="4.90579">
        <ele>163.1</ele>
        <time>2021-02-24T13:43:10Z</time>
      </trkpt>
      <trkpt lat="44.39318" lon="4.90572">
        <ele>163.2</ele>
        <time>2021-02-24T13:43:11Z</time>
      </trkpt>
      <trkpt lat="44.3932" lon="4.90564">
        <ele>163.3</ele>
        <time>2021-02-24T13:43:12Z</time>
      </trkpt>
      <trkpt lat="44.39322" lon="4.90556">
        <ele>163.4</ele>
        <time>2021-02-24T13:43:13Z</time>
      </trkpt>
      <trkpt lat="44.39322" lon="4.90548">
        <ele>163.6</ele>
        <time>2021-02-24T13:43:14Z</time>
      </trkpt>
      <trkpt lat="44.39323" lon="4.9054">
        <ele>163.7</ele>
        <time>2021-02-24T13:43:15Z</time>
      </trkpt>
      <trkpt lat="44.39323" lon="4.90532">
        <ele>163.9</ele>
        <time>2021-02-24T13:43:16Z</time>
      </trkpt>
      <trkpt lat="44.39324" lon="4.90524">
        <ele>164.1</ele>
        <time>2021-02-24T13:43:17Z</time>
      </trkpt>
      <trkpt lat="44.39324" lon="4.90516">
        <ele>164.2</ele>
        <time>2021-02-24T13:43:18Z</time>
      </trkpt>
      <trkpt lat="44.39324" lon="4.90516">
        <ele>164.2</ele>
        <time>2021-02-24T13:43:19Z</time>
      </trkpt>
      <trkpt lat="44.39324" lon="4.90509">
        <ele>164.4</ele>
        <time>2021-02-24T13:43:20Z</time>
      </trkpt>
      <trkpt lat="44.39325" lon="4.90502">
        <ele>164.6</ele>
        <time>2021-02-24T13:43:21Z</time>
      </trkpt>
      <trkpt lat="44.39326" lon="4.90487">
        <ele>165.1</ele>
        <time>2021-02-24T13:43:22Z</time>
      </trkpt>
      <trkpt lat="44.39326" lon="4.9048">
        <ele>165.4</ele>
        <time>2021-02-24T13:43:23Z</time>
      </trkpt>
      <trkpt lat="44.39327" lon="4.90473">
        <ele>165.6</ele>
        <time>2021-02-24T13:43:24Z</time>
      </trkpt>
      <trkpt lat="44.39328" lon="4.90467">
        <ele>165.9</ele>
        <time>2021-02-24T13:43:25Z</time>
      </trkpt>
      <trkpt lat="44.39328" lon="4.9046">
        <ele>166.2</ele>
        <time>2021-02-24T13:43:26Z</time>
      </trkpt>
      <trkpt lat="44.39329" lon="4.90454">
        <ele>166.5</ele>
        <time>2021-02-24T13:43:27Z</time>
      </trkpt>
      <trkpt lat="44.39329" lon="4.90449">
        <ele>166.8</ele>
        <time>2021-02-24T13:43:28Z</time>
      </trkpt>
      <trkpt lat="44.3933" lon="4.90443">
        <ele>167</ele>
        <time>2021-02-24T13:43:29Z</time>
      </trkpt>
      <trkpt lat="44.3933" lon="4.90437">
        <ele>167.4</ele>
        <time>2021-02-24T13:43:30Z</time>
      </trkpt>
      <trkpt lat="44.39331" lon="4.90431">
        <ele>167.7</ele>
        <time>2021-02-24T13:43:31Z</time>
      </trkpt>
      <trkpt lat="44.39331" lon="4.90425">
        <ele>168</ele>
        <time>2021-02-24T13:43:32Z</time>
      </trkpt>
      <trkpt lat="44.39332" lon="4.9042">
        <ele>168.4</ele>
        <time>2021-02-24T13:43:33Z</time>
      </trkpt>
      <trkpt lat="44.39333" lon="4.90415">
        <ele>168.7</ele>
        <time>2021-02-24T13:43:34Z</time>
      </trkpt>
      <trkpt lat="44.39334" lon="4.90411">
        <ele>169</ele>
        <time>2021-02-24T13:43:35Z</time>
      </trkpt>
      <trkpt lat="44.39335" lon="4.90407">
        <ele>169.2</ele>
        <time>2021-02-24T13:43:36Z</time>
      </trkpt>
      <trkpt lat="44.39335" lon="4.90403">
        <ele>169.4</ele>
        <time>2021-02-24T13:43:37Z</time>
      </trkpt>
      <trkpt lat="44.39336" lon="4.90399">
        <ele>169.7</ele>
        <time>2021-02-24T13:43:38Z</time>
      </trkpt>
      <trkpt lat="44.39336" lon="4.90395">
        <ele>169.7</ele>
        <time>2021-02-24T13:43:39Z</time>
      </trkpt>
      <trkpt lat="44.39336" lon="4.90391">
        <ele>169.8</ele>
        <time>2021-02-24T13:43:40Z</time>
      </trkpt>
      <trkpt lat="44.39336" lon="4.90386">
        <ele>169.8</ele>
        <time>2021-02-24T13:43:41Z</time>
      </trkpt>
      <trkpt lat="44.39336" lon="4.90386">
        <ele>169.8</ele>
        <time>2021-02-24T13:43:42Z</time>
      </trkpt>
      <trkpt lat="44.39335" lon="4.90381">
        <ele>169.9</ele>
        <time>2021-02-24T13:43:43Z</time>
      </trkpt>
      <trkpt lat="44.39334" lon="4.90375">
        <ele>170.1</ele>
        <time>2021-02-24T13:43:44Z</time>
      </trkpt>
      <trkpt lat="44.39334" lon="4.90369">
        <ele>170.2</ele>
        <time>2021-02-24T13:43:45Z</time>
      </trkpt>
      <trkpt lat="44.39333" lon="4.90362">
        <ele>170.3</ele>
        <time>2021-02-24T13:43:46Z</time>
      </trkpt>
      <trkpt lat="44.39333" lon="4.90355">
        <ele>170.5</ele>
        <time>2021-02-24T13:43:47Z</time>
      </trkpt>
      <trkpt lat="44.39332" lon="4.90349">
        <ele>170.6</ele>
        <time>2021-02-24T13:43:48Z</time>
      </trkpt>
      <trkpt lat="44.39331" lon="4.90342">
        <ele>170.8</ele>
        <time>2021-02-24T13:43:49Z</time>
      </trkpt>
      <trkpt lat="44.39331" lon="4.90336">
        <ele>170.9</ele>
        <time>2021-02-24T13:43:50Z</time>
      </trkpt>
      <trkpt lat="44.39331" lon="4.90331">
        <ele>171</ele>
        <time>2021-02-24T13:43:51Z</time>
      </trkpt>
      <trkpt lat="44.39331" lon="4.90326">
        <ele>171.1</ele>
        <time>2021-02-24T13:43:52Z</time>
      </trkpt>
      <trkpt lat="44.39331" lon="4.90321">
        <ele>171.1</ele>
        <time>2021-02-24T13:43:53Z</time>
      </trkpt>
      <trkpt lat="44.39332" lon="4.90314">
        <ele>171.2</ele>
        <time>2021-02-24T13:43:54Z</time>
      </trkpt>
      <trkpt lat="44.39332" lon="4.90307">
        <ele>171.3</ele>
        <time>2021-02-24T13:43:55Z</time>
      </trkpt>
      <trkpt lat="44.39333" lon="4.90301">
        <ele>171.4</ele>
        <time>2021-02-24T13:43:56Z</time>
      </trkpt>
      <trkpt lat="44.39333" lon="4.90294">
        <ele>171.5</ele>
        <time>2021-02-24T13:43:57Z</time>
      </trkpt>
      <trkpt lat="44.39334" lon="4.90287">
        <ele>171.5</ele>
        <time>2021-02-24T13:43:58Z</time>
      </trkpt>
      <trkpt lat="44.39334" lon="4.9028">
        <ele>171.6</ele>
        <time>2021-02-24T13:43:59Z</time>
      </trkpt>
      <trkpt lat="44.39334" lon="4.90267">
        <ele>171.7</ele>
        <time>2021-02-24T13:44:00Z</time>
      </trkpt>
      <trkpt lat="44.39334" lon="4.90261">
        <ele>171.7</ele>
        <time>2021-02-24T13:44:01Z</time>
      </trkpt>
      <trkpt lat="44.39334" lon="4.90255">
        <ele>171.7</ele>
        <time>2021-02-24T13:44:02Z</time>
      </trkpt>
      <trkpt lat="44.39333" lon="4.90249">
        <ele>171.7</ele>
        <time>2021-02-24T13:44:03Z</time>
      </trkpt>
      <trkpt lat="44.39333" lon="4.90243">
        <ele>171.7</ele>
        <time>2021-02-24T13:44:04Z</time>
      </trkpt>
      <trkpt lat="44.39332" lon="4.90237">
        <ele>171.6</ele>
        <time>2021-02-24T13:44:05Z</time>
      </trkpt>
      <trkpt lat="44.39332" lon="4.90231">
        <ele>171.6</ele>
        <time>2021-02-24T13:44:06Z</time>
      </trkpt>
      <trkpt lat="44.39331" lon="4.90225">
        <ele>171.5</ele>
        <time>2021-02-24T13:44:07Z</time>
      </trkpt>
      <trkpt lat="44.3933" lon="4.90219">
        <ele>171.5</ele>
        <time>2021-02-24T13:44:08Z</time>
      </trkpt>
      <trkpt lat="44.39329" lon="4.90213">
        <ele>171.4</ele>
        <time>2021-02-24T13:44:09Z</time>
      </trkpt>
      <trkpt lat="44.39328" lon="4.90206">
        <ele>171.4</ele>
        <time>2021-02-24T13:44:10Z</time>
      </trkpt>
      <trkpt lat="44.39327" lon="4.902">
        <ele>171.3</ele>
        <time>2021-02-24T13:44:11Z</time>
      </trkpt>
      <trkpt lat="44.39325" lon="4.90193">
        <ele>171.2</ele>
        <time>2021-02-24T13:44:12Z</time>
      </trkpt>
      <trkpt lat="44.39324" lon="4.90186">
        <ele>171.1</ele>
        <time>2021-02-24T13:44:13Z</time>
      </trkpt>
      <trkpt lat="44.39322" lon="4.90179">
        <ele>171</ele>
        <time>2021-02-24T13:44:14Z</time>
      </trkpt>
      <trkpt lat="44.3932" lon="4.90172">
        <ele>171</ele>
        <time>2021-02-24T13:44:15Z</time>
      </trkpt>
      <trkpt lat="44.39318" lon="4.90165">
        <ele>170.9</ele>
        <time>2021-02-24T13:44:16Z</time>
      </trkpt>
      <trkpt lat="44.39315" lon="4.90159">
        <ele>170.8</ele>
        <time>2021-02-24T13:44:17Z</time>
      </trkpt>
      <trkpt lat="44.39313" lon="4.90152">
        <ele>170.7</ele>
        <time>2021-02-24T13:44:18Z</time>
      </trkpt>
      <trkpt lat="44.3931" lon="4.90145">
        <ele>170.6</ele>
        <time>2021-02-24T13:44:19Z</time>
      </trkpt>
      <trkpt lat="44.3931" lon="4.90145">
        <ele>170.6</ele>
        <time>2021-02-24T13:44:20Z</time>
      </trkpt>
      <trkpt lat="44.39307" lon="4.90138">
        <ele>170.6</ele>
        <time>2021-02-24T13:44:21Z</time>
      </trkpt>
      <trkpt lat="44.39304" lon="4.90131">
        <ele>170.5</ele>
        <time>2021-02-24T13:44:22Z</time>
      </trkpt>
      <trkpt lat="44.39301" lon="4.90123">
        <ele>170.5</ele>
        <time>2021-02-24T13:44:23Z</time>
      </trkpt>
      <trkpt lat="44.39298" lon="4.90116">
        <ele>170.4</ele>
        <time>2021-02-24T13:44:24Z</time>
      </trkpt>
      <trkpt lat="44.39292" lon="4.90102">
        <ele>170.3</ele>
        <time>2021-02-24T13:44:25Z</time>
      </trkpt>
      <trkpt lat="44.3929" lon="4.90095">
        <ele>170.3</ele>
        <time>2021-02-24T13:44:26Z</time>
      </trkpt>
      <trkpt lat="44.39288" lon="4.90088">
        <ele>170.3</ele>
        <time>2021-02-24T13:44:27Z</time>
      </trkpt>
      <trkpt lat="44.39286" lon="4.90081">
        <ele>170.4</ele>
        <time>2021-02-24T13:44:28Z</time>
      </trkpt>
      <trkpt lat="44.39284" lon="4.90074">
        <ele>170.4</ele>
        <time>2021-02-24T13:44:29Z</time>
      </trkpt>
      <trkpt lat="44.39283" lon="4.90067">
        <ele>170.4</ele>
        <time>2021-02-24T13:44:30Z</time>
      </trkpt>
      <trkpt lat="44.39282" lon="4.90061">
        <ele>170.4</ele>
        <time>2021-02-24T13:44:31Z</time>
      </trkpt>
      <trkpt lat="44.39281" lon="4.90054">
        <ele>170.5</ele>
        <time>2021-02-24T13:44:32Z</time>
      </trkpt>
      <trkpt lat="44.3928" lon="4.90047">
        <ele>170.5</ele>
        <time>2021-02-24T13:44:33Z</time>
      </trkpt>
      <trkpt lat="44.3928" lon="4.90047">
        <ele>170.5</ele>
        <time>2021-02-24T13:44:34Z</time>
      </trkpt>
      <trkpt lat="44.39279" lon="4.9004">
        <ele>170.5</ele>
        <time>2021-02-24T13:44:35Z</time>
      </trkpt>
      <trkpt lat="44.39278" lon="4.90033">
        <ele>170.5</ele>
        <time>2021-02-24T13:44:36Z</time>
      </trkpt>
      <trkpt lat="44.39278" lon="4.90026">
        <ele>170.6</ele>
        <time>2021-02-24T13:44:37Z</time>
      </trkpt>
      <trkpt lat="44.39277" lon="4.90011">
        <ele>170.6</ele>
        <time>2021-02-24T13:44:38Z</time>
      </trkpt>
      <trkpt lat="44.39276" lon="4.90004">
        <ele>170.7</ele>
        <time>2021-02-24T13:44:39Z</time>
      </trkpt>
      <trkpt lat="44.39276" lon="4.89997">
        <ele>170.7</ele>
        <time>2021-02-24T13:44:40Z</time>
      </trkpt>
      <trkpt lat="44.39275" lon="4.89991">
        <ele>170.7</ele>
        <time>2021-02-24T13:44:41Z</time>
      </trkpt>
      <trkpt lat="44.39275" lon="4.89984">
        <ele>170.7</ele>
        <time>2021-02-24T13:44:42Z</time>
      </trkpt>
      <trkpt lat="44.39274" lon="4.89977">
        <ele>170.7</ele>
        <time>2021-02-24T13:44:43Z</time>
      </trkpt>
      <trkpt lat="44.39274" lon="4.89977">
        <ele>170.7</ele>
        <time>2021-02-24T13:44:44Z</time>
      </trkpt>
      <trkpt lat="44.39273" lon="4.89971">
        <ele>170.7</ele>
        <time>2021-02-24T13:44:45Z</time>
      </trkpt>
      <trkpt lat="44.39272" lon="4.89964">
        <ele>170.7</ele>
        <time>2021-02-24T13:44:46Z</time>
      </trkpt>
      <trkpt lat="44.39271" lon="4.89958">
        <ele>170.7</ele>
        <time>2021-02-24T13:44:47Z</time>
      </trkpt>
      <trkpt lat="44.39269" lon="4.89952">
        <ele>170.6</ele>
        <time>2021-02-24T13:44:48Z</time>
      </trkpt>
      <trkpt lat="44.39267" lon="4.89946">
        <ele>170.6</ele>
        <time>2021-02-24T13:44:49Z</time>
      </trkpt>
      <trkpt lat="44.39264" lon="4.8994">
        <ele>170.5</ele>
        <time>2021-02-24T13:44:50Z</time>
      </trkpt>
      <trkpt lat="44.39262" lon="4.89936">
        <ele>170.5</ele>
        <time>2021-02-24T13:44:51Z</time>
      </trkpt>
      <trkpt lat="44.39259" lon="4.89931">
        <ele>170.4</ele>
        <time>2021-02-24T13:44:52Z</time>
      </trkpt>
      <trkpt lat="44.39256" lon="4.89926">
        <ele>170.3</ele>
        <time>2021-02-24T13:44:53Z</time>
      </trkpt>
      <trkpt lat="44.39253" lon="4.89922">
        <ele>170.2</ele>
        <time>2021-02-24T13:44:54Z</time>
      </trkpt>
      <trkpt lat="44.39248" lon="4.89915">
        <ele>170.1</ele>
        <time>2021-02-24T13:44:55Z</time>
      </trkpt>
      <trkpt lat="44.39246" lon="4.89911">
        <ele>170</ele>
        <time>2021-02-24T13:44:56Z</time>
      </trkpt>
      <trkpt lat="44.39243" lon="4.89908">
        <ele>170</ele>
        <time>2021-02-24T13:44:57Z</time>
      </trkpt>
      <trkpt lat="44.3924" lon="4.89905">
        <ele>170</ele>
        <time>2021-02-24T13:44:58Z</time>
      </trkpt>
      <trkpt lat="44.39236" lon="4.89905">
        <ele>170</ele>
        <time>2021-02-24T13:44:59Z</time>
      </trkpt>
      <trkpt lat="44.39233" lon="4.89905">
        <ele>170</ele>
        <time>2021-02-24T13:45:00Z</time>
      </trkpt>
      <trkpt lat="44.39229" lon="4.89906">
        <ele>170</ele>
        <time>2021-02-24T13:45:01Z</time>
      </trkpt>
      <trkpt lat="44.39227" lon="4.89906">
        <ele>170</ele>
        <time>2021-02-24T13:45:02Z</time>
      </trkpt>
      <trkpt lat="44.39224" lon="4.89907">
        <ele>170.1</ele>
        <time>2021-02-24T13:45:03Z</time>
      </trkpt>
      <trkpt lat="44.39222" lon="4.89908">
        <ele>170.1</ele>
        <time>2021-02-24T13:45:04Z</time>
      </trkpt>
      <trkpt lat="44.3922" lon="4.89909">
        <ele>170.1</ele>
        <time>2021-02-24T13:45:05Z</time>
      </trkpt>
      <trkpt lat="44.39219" lon="4.8991">
        <ele>170.1</ele>
        <time>2021-02-24T13:45:06Z</time>
      </trkpt>
      <trkpt lat="44.39217" lon="4.89911">
        <ele>170.1</ele>
        <time>2021-02-24T13:45:07Z</time>
      </trkpt>
      <trkpt lat="44.39217" lon="4.89911">
        <ele>170.1</ele>
        <time>2021-02-24T13:45:08Z</time>
      </trkpt>
      <trkpt lat="44.39213" lon="4.89912">
        <ele>170.1</ele>
        <time>2021-02-24T13:45:09Z</time>
      </trkpt>
      <trkpt lat="44.39213" lon="4.89912">
        <ele>170.1</ele>
        <time>2021-02-24T13:45:10Z</time>
      </trkpt>
      <trkpt lat="44.3921" lon="4.89912">
        <ele>170.1</ele>
        <time>2021-02-24T13:45:11Z</time>
      </trkpt>
      <trkpt lat="44.39208" lon="4.89913">
        <ele>170.1</ele>
        <time>2021-02-24T13:45:12Z</time>
      </trkpt>
      <trkpt lat="44.39206" lon="4.89913">
        <ele>170.1</ele>
        <time>2021-02-24T13:45:13Z</time>
      </trkpt>
      <trkpt lat="44.39204" lon="4.89913">
        <ele>170.1</ele>
        <time>2021-02-24T13:45:14Z</time>
      </trkpt>
      <trkpt lat="44.39202" lon="4.89913">
        <ele>170.2</ele>
        <time>2021-02-24T13:45:15Z</time>
      </trkpt>
      <trkpt lat="44.39199" lon="4.89913">
        <ele>170.2</ele>
        <time>2021-02-24T13:45:16Z</time>
      </trkpt>
      <trkpt lat="44.39199" lon="4.89913">
        <ele>170.2</ele>
        <time>2021-02-24T13:45:17Z</time>
      </trkpt>
      <trkpt lat="44.39197" lon="4.89913">
        <ele>170.2</ele>
        <time>2021-02-24T13:45:18Z</time>
      </trkpt>
      <trkpt lat="44.39195" lon="4.89913">
        <ele>170.2</ele>
        <time>2021-02-24T13:45:19Z</time>
      </trkpt>
      <trkpt lat="44.39193" lon="4.89913">
        <ele>170.2</ele>
        <time>2021-02-24T13:45:20Z</time>
      </trkpt>
      <trkpt lat="44.3919" lon="4.89912">
        <ele>170.2</ele>
        <time>2021-02-24T13:45:21Z</time>
      </trkpt>
      <trkpt lat="44.39188" lon="4.89912">
        <ele>170.2</ele>
        <time>2021-02-24T13:45:22Z</time>
      </trkpt>
      <trkpt lat="44.39186" lon="4.89912">
        <ele>170.2</ele>
        <time>2021-02-24T13:45:23Z</time>
      </trkpt>
      <trkpt lat="44.39183" lon="4.89912">
        <ele>170.2</ele>
        <time>2021-02-24T13:45:24Z</time>
      </trkpt>
      <trkpt lat="44.39181" lon="4.89912">
        <ele>170.2</ele>
        <time>2021-02-24T13:45:25Z</time>
      </trkpt>
      <trkpt lat="44.39179" lon="4.89912">
        <ele>170.2</ele>
        <time>2021-02-24T13:45:26Z</time>
      </trkpt>
      <trkpt lat="44.39177" lon="4.89912">
        <ele>170.2</ele>
        <time>2021-02-24T13:45:27Z</time>
      </trkpt>
      <trkpt lat="44.39174" lon="4.89912">
        <ele>170.2</ele>
        <time>2021-02-24T13:45:28Z</time>
      </trkpt>
      <trkpt lat="44.39172" lon="4.89912">
        <ele>170.2</ele>
        <time>2021-02-24T13:45:29Z</time>
      </trkpt>
      <trkpt lat="44.3917" lon="4.89912">
        <ele>170.2</ele>
        <time>2021-02-24T13:45:30Z</time>
      </trkpt>
      <trkpt lat="44.39167" lon="4.89911">
        <ele>170.3</ele>
        <time>2021-02-24T13:45:31Z</time>
      </trkpt>
      <trkpt lat="44.39165" lon="4.89911">
        <ele>170.3</ele>
        <time>2021-02-24T13:45:32Z</time>
      </trkpt>
      <trkpt lat="44.39163" lon="4.89911">
        <ele>170.3</ele>
        <time>2021-02-24T13:45:33Z</time>
      </trkpt>
      <trkpt lat="44.39161" lon="4.89911">
        <ele>170.3</ele>
        <time>2021-02-24T13:45:34Z</time>
      </trkpt>
      <trkpt lat="44.39157" lon="4.89909">
        <ele>170.4</ele>
        <time>2021-02-24T13:45:35Z</time>
      </trkpt>
      <trkpt lat="44.39157" lon="4.89909">
        <ele>170.4</ele>
        <time>2021-02-24T13:45:36Z</time>
      </trkpt>
      <trkpt lat="44.39155" lon="4.89908">
        <ele>170.4</ele>
        <time>2021-02-24T13:45:37Z</time>
      </trkpt>
      <trkpt lat="44.39153" lon="4.89908">
        <ele>170.4</ele>
        <time>2021-02-24T13:45:38Z</time>
      </trkpt>
      <trkpt lat="44.39151" lon="4.89908">
        <ele>170.4</ele>
        <time>2021-02-24T13:45:39Z</time>
      </trkpt>
      <trkpt lat="44.3915" lon="4.8991">
        <ele>170.4</ele>
        <time>2021-02-24T13:45:40Z</time>
      </trkpt>
      <trkpt lat="44.3915" lon="4.8991">
        <ele>170.4</ele>
        <time>2021-02-24T13:45:41Z</time>
      </trkpt>
      <trkpt lat="44.39151" lon="4.89913">
        <ele>170.4</ele>
        <time>2021-02-24T13:45:42Z</time>
      </trkpt>
      <trkpt lat="44.39153" lon="4.89913">
        <ele>170.4</ele>
        <time>2021-02-24T13:45:43Z</time>
      </trkpt>
      <trkpt lat="44.39155" lon="4.89914">
        <ele>170.4</ele>
        <time>2021-02-24T13:45:44Z</time>
      </trkpt>
      <trkpt lat="44.39158" lon="4.89914">
        <ele>170.3</ele>
        <time>2021-02-24T13:45:45Z</time>
      </trkpt>
      <trkpt lat="44.39161" lon="4.89915">
        <ele>170.3</ele>
        <time>2021-02-24T13:45:46Z</time>
      </trkpt>
      <trkpt lat="44.39164" lon="4.89915">
        <ele>170.3</ele>
        <time>2021-02-24T13:45:47Z</time>
      </trkpt>
      <trkpt lat="44.39167" lon="4.89915">
        <ele>170.3</ele>
        <time>2021-02-24T13:45:48Z</time>
      </trkpt>
      <trkpt lat="44.39171" lon="4.89915">
        <ele>170.2</ele>
        <time>2021-02-24T13:45:49Z</time>
      </trkpt>
      <trkpt lat="44.39174" lon="4.89915">
        <ele>170.2</ele>
        <time>2021-02-24T13:45:50Z</time>
      </trkpt>
      <trkpt lat="44.39177" lon="4.89915">
        <ele>170.2</ele>
        <time>2021-02-24T13:45:51Z</time>
      </trkpt>
      <trkpt lat="44.3918" lon="4.89915">
        <ele>170.2</ele>
        <time>2021-02-24T13:45:52Z</time>
      </trkpt>
      <trkpt lat="44.39183" lon="4.89915">
        <ele>170.2</ele>
        <time>2021-02-24T13:45:53Z</time>
      </trkpt>
      <trkpt lat="44.39186" lon="4.89915">
        <ele>170.2</ele>
        <time>2021-02-24T13:45:54Z</time>
      </trkpt>
      <trkpt lat="44.39189" lon="4.89915">
        <ele>170.2</ele>
        <time>2021-02-24T13:45:55Z</time>
      </trkpt>
      <trkpt lat="44.39192" lon="4.89915">
        <ele>170.2</ele>
        <time>2021-02-24T13:45:56Z</time>
      </trkpt>
      <trkpt lat="44.39196" lon="4.89915">
        <ele>170.2</ele>
        <time>2021-02-24T13:45:57Z</time>
      </trkpt>
      <trkpt lat="44.39199" lon="4.89915">
        <ele>170.2</ele>
        <time>2021-02-24T13:45:58Z</time>
      </trkpt>
      <trkpt lat="44.39203" lon="4.89915">
        <ele>170.2</ele>
        <time>2021-02-24T13:45:59Z</time>
      </trkpt>
      <trkpt lat="44.39206" lon="4.89915">
        <ele>170.1</ele>
        <time>2021-02-24T13:46:00Z</time>
      </trkpt>
      <trkpt lat="44.39209" lon="4.89914">
        <ele>170.1</ele>
        <time>2021-02-24T13:46:01Z</time>
      </trkpt>
      <trkpt lat="44.39213" lon="4.89914">
        <ele>170.1</ele>
        <time>2021-02-24T13:46:02Z</time>
      </trkpt>
      <trkpt lat="44.39216" lon="4.89914">
        <ele>170.1</ele>
        <time>2021-02-24T13:46:03Z</time>
      </trkpt>
      <trkpt lat="44.39219" lon="4.89914">
        <ele>170.1</ele>
        <time>2021-02-24T13:46:04Z</time>
      </trkpt>
      <trkpt lat="44.39222" lon="4.89914">
        <ele>170.1</ele>
        <time>2021-02-24T13:46:05Z</time>
      </trkpt>
      <trkpt lat="44.39225" lon="4.89914">
        <ele>170.1</ele>
        <time>2021-02-24T13:46:06Z</time>
      </trkpt>
      <trkpt lat="44.39228" lon="4.89914">
        <ele>170.1</ele>
        <time>2021-02-24T13:46:07Z</time>
      </trkpt>
      <trkpt lat="44.39231" lon="4.89914">
        <ele>170.1</ele>
        <time>2021-02-24T13:46:08Z</time>
      </trkpt>
      <trkpt lat="44.39234" lon="4.89915">
        <ele>170.1</ele>
        <time>2021-02-24T13:46:09Z</time>
      </trkpt>
      <trkpt lat="44.39237" lon="4.89915">
        <ele>170.1</ele>
        <time>2021-02-24T13:46:10Z</time>
      </trkpt>
      <trkpt lat="44.39239" lon="4.89914">
        <ele>170.1</ele>
        <time>2021-02-24T13:46:11Z</time>
      </trkpt>
      <trkpt lat="44.39239" lon="4.89914">
        <ele>170.1</ele>
        <time>2021-02-24T13:46:12Z</time>
      </trkpt>
      <trkpt lat="44.39238" lon="4.8991">
        <ele>170.1</ele>
        <time>2021-02-24T13:46:13Z</time>
      </trkpt>
      <trkpt lat="44.39235" lon="4.8991">
        <ele>170.1</ele>
        <time>2021-02-24T13:46:14Z</time>
      </trkpt>
      <trkpt lat="44.39233" lon="4.8991">
        <ele>170.1</ele>
        <time>2021-02-24T13:46:15Z</time>
      </trkpt>
      <trkpt lat="44.39231" lon="4.8991">
        <ele>170.1</ele>
        <time>2021-02-24T13:46:16Z</time>
      </trkpt>
      <trkpt lat="44.39231" lon="4.8991">
        <ele>170.1</ele>
        <time>2021-02-24T13:46:17Z</time>
      </trkpt>
      <trkpt lat="44.39231" lon="4.8991">
        <ele>170.1</ele>
        <time>2021-02-24T13:46:18Z</time>
      </trkpt>
      <trkpt lat="44.39231" lon="4.8991">
        <ele>170.1</ele>
        <time>2021-02-24T13:46:19Z</time>
      </trkpt>
      <trkpt lat="44.39231" lon="4.8991">
        <ele>170.1</ele>
        <time>2021-02-24T13:46:20Z</time>
      </trkpt>
      <trkpt lat="44.39229" lon="4.89909">
        <ele>170.1</ele>
        <time>2021-02-24T13:46:21Z</time>
      </trkpt>
      <trkpt lat="44.39222" lon="4.89911">
        <ele>170.1</ele>
        <time>2021-02-24T13:47:30Z</time>
      </trkpt>
      <trkpt lat="44.39219" lon="4.89912">
        <ele>170.2</ele>
        <time>2021-02-24T13:47:31Z</time>
      </trkpt>
      <trkpt lat="44.39216" lon="4.89912">
        <ele>170.2</ele>
        <time>2021-02-24T13:47:32Z</time>
      </trkpt>
      <trkpt lat="44.39213" lon="4.89912">
        <ele>170.2</ele>
        <time>2021-02-24T13:47:33Z</time>
      </trkpt>
      <trkpt lat="44.3921" lon="4.89912">
        <ele>170.2</ele>
        <time>2021-02-24T13:47:34Z</time>
      </trkpt>
      <trkpt lat="44.39206" lon="4.89912">
        <ele>170.2</ele>
        <time>2021-02-24T13:47:35Z</time>
      </trkpt>
      <trkpt lat="44.39202" lon="4.89913">
        <ele>170.2</ele>
        <time>2021-02-24T13:47:36Z</time>
      </trkpt>
      <trkpt lat="44.39199" lon="4.89912">
        <ele>170.2</ele>
        <time>2021-02-24T13:47:37Z</time>
      </trkpt>
      <trkpt lat="44.39195" lon="4.89912">
        <ele>170.2</ele>
        <time>2021-02-24T13:47:38Z</time>
      </trkpt>
      <trkpt lat="44.39191" lon="4.89912">
        <ele>170.2</ele>
        <time>2021-02-24T13:47:39Z</time>
      </trkpt>
      <trkpt lat="44.39188" lon="4.89912">
        <ele>170.2</ele>
        <time>2021-02-24T13:47:40Z</time>
      </trkpt>
      <trkpt lat="44.39185" lon="4.89912">
        <ele>170.2</ele>
        <time>2021-02-24T13:47:41Z</time>
      </trkpt>
      <trkpt lat="44.39181" lon="4.89912">
        <ele>170.2</ele>
        <time>2021-02-24T13:47:42Z</time>
      </trkpt>
      <trkpt lat="44.39181" lon="4.89912">
        <ele>170.2</ele>
        <time>2021-02-24T13:47:43Z</time>
      </trkpt>
      <trkpt lat="44.39177" lon="4.89912">
        <ele>170.2</ele>
        <time>2021-02-24T13:47:44Z</time>
      </trkpt>
      <trkpt lat="44.39174" lon="4.89912">
        <ele>170.2</ele>
        <time>2021-02-24T13:47:45Z</time>
      </trkpt>
      <trkpt lat="44.3917" lon="4.89912">
        <ele>170.2</ele>
        <time>2021-02-24T13:47:46Z</time>
      </trkpt>
      <trkpt lat="44.39166" lon="4.89912">
        <ele>170.3</ele>
        <time>2021-02-24T13:47:47Z</time>
      </trkpt>
      <trkpt lat="44.39162" lon="4.89912">
        <ele>170.3</ele>
        <time>2021-02-24T13:47:48Z</time>
      </trkpt>
      <trkpt lat="44.39158" lon="4.89912">
        <ele>170.4</ele>
        <time>2021-02-24T13:47:49Z</time>
      </trkpt>
      <trkpt lat="44.39154" lon="4.89912">
        <ele>170.4</ele>
        <time>2021-02-24T13:47:50Z</time>
      </trkpt>
      <trkpt lat="44.39151" lon="4.89912">
        <ele>170.5</ele>
        <time>2021-02-24T13:47:51Z</time>
      </trkpt>
      <trkpt lat="44.39147" lon="4.89911">
        <ele>170.6</ele>
        <time>2021-02-24T13:47:52Z</time>
      </trkpt>
      <trkpt lat="44.39143" lon="4.89911">
        <ele>170.7</ele>
        <time>2021-02-24T13:47:53Z</time>
      </trkpt>
      <trkpt lat="44.39139" lon="4.89911">
        <ele>170.8</ele>
        <time>2021-02-24T13:47:54Z</time>
      </trkpt>
      <trkpt lat="44.39136" lon="4.89911">
        <ele>170.9</ele>
        <time>2021-02-24T13:47:55Z</time>
      </trkpt>
      <trkpt lat="44.39132" lon="4.89911">
        <ele>171</ele>
        <time>2021-02-24T13:47:56Z</time>
      </trkpt>
      <trkpt lat="44.39124" lon="4.89911">
        <ele>171.2</ele>
        <time>2021-02-24T13:47:57Z</time>
      </trkpt>
      <trkpt lat="44.3912" lon="4.8991">
        <ele>171.2</ele>
        <time>2021-02-24T13:47:58Z</time>
      </trkpt>
      <trkpt lat="44.39116" lon="4.8991">
        <ele>171.3</ele>
        <time>2021-02-24T13:47:59Z</time>
      </trkpt>
      <trkpt lat="44.39113" lon="4.8991">
        <ele>171.4</ele>
        <time>2021-02-24T13:48:00Z</time>
      </trkpt>
      <trkpt lat="44.39109" lon="4.8991">
        <ele>171.5</ele>
        <time>2021-02-24T13:48:01Z</time>
      </trkpt>
      <trkpt lat="44.39105" lon="4.8991">
        <ele>171.5</ele>
        <time>2021-02-24T13:48:02Z</time>
      </trkpt>
      <trkpt lat="44.39102" lon="4.8991">
        <ele>171.6</ele>
        <time>2021-02-24T13:48:03Z</time>
      </trkpt>
      <trkpt lat="44.39098" lon="4.8991">
        <ele>171.7</ele>
        <time>2021-02-24T13:48:04Z</time>
      </trkpt>
      <trkpt lat="44.39094" lon="4.8991">
        <ele>171.7</ele>
        <time>2021-02-24T13:48:05Z</time>
      </trkpt>
      <trkpt lat="44.3909" lon="4.8991">
        <ele>171.8</ele>
        <time>2021-02-24T13:48:06Z</time>
      </trkpt>
      <trkpt lat="44.39086" lon="4.8991">
        <ele>171.8</ele>
        <time>2021-02-24T13:48:07Z</time>
      </trkpt>
      <trkpt lat="44.39082" lon="4.8991">
        <ele>171.9</ele>
        <time>2021-02-24T13:48:08Z</time>
      </trkpt>
      <trkpt lat="44.39082" lon="4.8991">
        <ele>171.9</ele>
        <time>2021-02-24T13:48:09Z</time>
      </trkpt>
      <trkpt lat="44.39073" lon="4.8991">
        <ele>172</ele>
        <time>2021-02-24T13:48:10Z</time>
      </trkpt>
      <trkpt lat="44.39069" lon="4.89909">
        <ele>172.1</ele>
        <time>2021-02-24T13:48:11Z</time>
      </trkpt>
      <trkpt lat="44.39064" lon="4.89909">
        <ele>172.2</ele>
        <time>2021-02-24T13:48:12Z</time>
      </trkpt>
      <trkpt lat="44.3906" lon="4.89908">
        <ele>172.3</ele>
        <time>2021-02-24T13:48:13Z</time>
      </trkpt>
      <trkpt lat="44.39056" lon="4.89908">
        <ele>172.4</ele>
        <time>2021-02-24T13:48:14Z</time>
      </trkpt>
      <trkpt lat="44.39051" lon="4.89908">
        <ele>172.5</ele>
        <time>2021-02-24T13:48:15Z</time>
      </trkpt>
      <trkpt lat="44.39046" lon="4.89907">
        <ele>172.6</ele>
        <time>2021-02-24T13:48:16Z</time>
      </trkpt>
      <trkpt lat="44.39042" lon="4.89907">
        <ele>172.7</ele>
        <time>2021-02-24T13:48:17Z</time>
      </trkpt>
      <trkpt lat="44.39038" lon="4.89906">
        <ele>172.8</ele>
        <time>2021-02-24T13:48:18Z</time>
      </trkpt>
      <trkpt lat="44.39033" lon="4.89904">
        <ele>172.9</ele>
        <time>2021-02-24T13:48:19Z</time>
      </trkpt>
      <trkpt lat="44.39033" lon="4.89904">
        <ele>172.9</ele>
        <time>2021-02-24T13:48:20Z</time>
      </trkpt>
      <trkpt lat="44.39029" lon="4.89903">
        <ele>173</ele>
        <time>2021-02-24T13:48:21Z</time>
      </trkpt>
      <trkpt lat="44.39025" lon="4.89902">
        <ele>173.2</ele>
        <time>2021-02-24T13:48:22Z</time>
      </trkpt>
      <trkpt lat="44.3902" lon="4.899">
        <ele>173.3</ele>
        <time>2021-02-24T13:48:23Z</time>
      </trkpt>
      <trkpt lat="44.39016" lon="4.89899">
        <ele>173.4</ele>
        <time>2021-02-24T13:48:24Z</time>
      </trkpt>
      <trkpt lat="44.39012" lon="4.89898">
        <ele>173.6</ele>
        <time>2021-02-24T13:48:25Z</time>
      </trkpt>
      <trkpt lat="44.39008" lon="4.89897">
        <ele>173.7</ele>
        <time>2021-02-24T13:48:26Z</time>
      </trkpt>
      <trkpt lat="44.39004" lon="4.89895">
        <ele>173.8</ele>
        <time>2021-02-24T13:48:27Z</time>
      </trkpt>
      <trkpt lat="44.38995" lon="4.89892">
        <ele>174</ele>
        <time>2021-02-24T13:48:28Z</time>
      </trkpt>
      <trkpt lat="44.38991" lon="4.8989">
        <ele>174.1</ele>
        <time>2021-02-24T13:48:29Z</time>
      </trkpt>
      <trkpt lat="44.38987" lon="4.89889">
        <ele>174.2</ele>
        <time>2021-02-24T13:48:30Z</time>
      </trkpt>
      <trkpt lat="44.38983" lon="4.89887">
        <ele>174.3</ele>
        <time>2021-02-24T13:48:31Z</time>
      </trkpt>
      <trkpt lat="44.38979" lon="4.89885">
        <ele>174.3</ele>
        <time>2021-02-24T13:48:32Z</time>
      </trkpt>
      <trkpt lat="44.38975" lon="4.89884">
        <ele>174.4</ele>
        <time>2021-02-24T13:48:33Z</time>
      </trkpt>
      <trkpt lat="44.38971" lon="4.89882">
        <ele>174.5</ele>
        <time>2021-02-24T13:48:34Z</time>
      </trkpt>
      <trkpt lat="44.38967" lon="4.8988">
        <ele>174.6</ele>
        <time>2021-02-24T13:48:35Z</time>
      </trkpt>
      <trkpt lat="44.38962" lon="4.89878">
        <ele>174.6</ele>
        <time>2021-02-24T13:48:36Z</time>
      </trkpt>
      <trkpt lat="44.38958" lon="4.89876">
        <ele>174.7</ele>
        <time>2021-02-24T13:48:37Z</time>
      </trkpt>
      <trkpt lat="44.38954" lon="4.89875">
        <ele>174.8</ele>
        <time>2021-02-24T13:48:38Z</time>
      </trkpt>
      <trkpt lat="44.38949" lon="4.89873">
        <ele>174.8</ele>
        <time>2021-02-24T13:48:39Z</time>
      </trkpt>
      <trkpt lat="44.38945" lon="4.89872">
        <ele>174.9</ele>
        <time>2021-02-24T13:48:40Z</time>
      </trkpt>
      <trkpt lat="44.38941" lon="4.8987">
        <ele>175</ele>
        <time>2021-02-24T13:48:41Z</time>
      </trkpt>
      <trkpt lat="44.38936" lon="4.89868">
        <ele>175</ele>
        <time>2021-02-24T13:48:42Z</time>
      </trkpt>
      <trkpt lat="44.38932" lon="4.89865">
        <ele>175.1</ele>
        <time>2021-02-24T13:48:43Z</time>
      </trkpt>
      <trkpt lat="44.38928" lon="4.89863">
        <ele>175.2</ele>
        <time>2021-02-24T13:48:44Z</time>
      </trkpt>
      <trkpt lat="44.38923" lon="4.89861">
        <ele>175.2</ele>
        <time>2021-02-24T13:48:45Z</time>
      </trkpt>
      <trkpt lat="44.38919" lon="4.89859">
        <ele>175.3</ele>
        <time>2021-02-24T13:48:46Z</time>
      </trkpt>
      <trkpt lat="44.38914" lon="4.89856">
        <ele>175.3</ele>
        <time>2021-02-24T13:48:47Z</time>
      </trkpt>
      <trkpt lat="44.38914" lon="4.89856">
        <ele>175.3</ele>
        <time>2021-02-24T13:48:48Z</time>
      </trkpt>
      <trkpt lat="44.3891" lon="4.89854">
        <ele>175.4</ele>
        <time>2021-02-24T13:48:49Z</time>
      </trkpt>
      <trkpt lat="44.38906" lon="4.89852">
        <ele>175.4</ele>
        <time>2021-02-24T13:48:50Z</time>
      </trkpt>
      <trkpt lat="44.38902" lon="4.89849">
        <ele>175.5</ele>
        <time>2021-02-24T13:48:51Z</time>
      </trkpt>
      <trkpt lat="44.38898" lon="4.89847">
        <ele>175.5</ele>
        <time>2021-02-24T13:48:52Z</time>
      </trkpt>
      <trkpt lat="44.38894" lon="4.89845">
        <ele>175.6</ele>
        <time>2021-02-24T13:48:53Z</time>
      </trkpt>
      <trkpt lat="44.3889" lon="4.89843">
        <ele>175.6</ele>
        <time>2021-02-24T13:48:54Z</time>
      </trkpt>
      <trkpt lat="44.38886" lon="4.89841">
        <ele>175.7</ele>
        <time>2021-02-24T13:48:55Z</time>
      </trkpt>
      <trkpt lat="44.38881" lon="4.89839">
        <ele>175.7</ele>
        <time>2021-02-24T13:48:56Z</time>
      </trkpt>
      <trkpt lat="44.38877" lon="4.89837">
        <ele>175.8</ele>
        <time>2021-02-24T13:48:57Z</time>
      </trkpt>
      <trkpt lat="44.38873" lon="4.89835">
        <ele>175.8</ele>
        <time>2021-02-24T13:48:58Z</time>
      </trkpt>
      <trkpt lat="44.38868" lon="4.89832">
        <ele>175.9</ele>
        <time>2021-02-24T13:48:59Z</time>
      </trkpt>
      <trkpt lat="44.38864" lon="4.8983">
        <ele>176</ele>
        <time>2021-02-24T13:49:00Z</time>
      </trkpt>
      <trkpt lat="44.3886" lon="4.89828">
        <ele>176</ele>
        <time>2021-02-24T13:49:01Z</time>
      </trkpt>
      <trkpt lat="44.38855" lon="4.89826">
        <ele>176.1</ele>
        <time>2021-02-24T13:49:02Z</time>
      </trkpt>
      <trkpt lat="44.38851" lon="4.89824">
        <ele>176.1</ele>
        <time>2021-02-24T13:49:03Z</time>
      </trkpt>
      <trkpt lat="44.38847" lon="4.89822">
        <ele>176.2</ele>
        <time>2021-02-24T13:49:04Z</time>
      </trkpt>
      <trkpt lat="44.38843" lon="4.89819">
        <ele>176.2</ele>
        <time>2021-02-24T13:49:05Z</time>
      </trkpt>
      <trkpt lat="44.38834" lon="4.89815">
        <ele>176.3</ele>
        <time>2021-02-24T13:49:06Z</time>
      </trkpt>
      <trkpt lat="44.38834" lon="4.89815">
        <ele>176.3</ele>
        <time>2021-02-24T13:49:07Z</time>
      </trkpt>
      <trkpt lat="44.3883" lon="4.89813">
        <ele>176.3</ele>
        <time>2021-02-24T13:49:08Z</time>
      </trkpt>
      <trkpt lat="44.38826" lon="4.8981">
        <ele>176.4</ele>
        <time>2021-02-24T13:49:09Z</time>
      </trkpt>
      <trkpt lat="44.38821" lon="4.89808">
        <ele>176.4</ele>
        <time>2021-02-24T13:49:10Z</time>
      </trkpt>
      <trkpt lat="44.38817" lon="4.89806">
        <ele>176.4</ele>
        <time>2021-02-24T13:49:11Z</time>
      </trkpt>
      <trkpt lat="44.38813" lon="4.89803">
        <ele>176.4</ele>
        <time>2021-02-24T13:49:12Z</time>
      </trkpt>
      <trkpt lat="44.38808" lon="4.89801">
        <ele>176.4</ele>
        <time>2021-02-24T13:49:13Z</time>
      </trkpt>
      <trkpt lat="44.38804" lon="4.89798">
        <ele>176.5</ele>
        <time>2021-02-24T13:49:14Z</time>
      </trkpt>
      <trkpt lat="44.38799" lon="4.89796">
        <ele>176.5</ele>
        <time>2021-02-24T13:49:15Z</time>
      </trkpt>
      <trkpt lat="44.38795" lon="4.89794">
        <ele>176.5</ele>
        <time>2021-02-24T13:49:16Z</time>
      </trkpt>
      <trkpt lat="44.38791" lon="4.89791">
        <ele>176.5</ele>
        <time>2021-02-24T13:49:17Z</time>
      </trkpt>
      <trkpt lat="44.38788" lon="4.89789">
        <ele>176.4</ele>
        <time>2021-02-24T13:49:18Z</time>
      </trkpt>
      <trkpt lat="44.38783" lon="4.89787">
        <ele>176.4</ele>
        <time>2021-02-24T13:49:19Z</time>
      </trkpt>
      <trkpt lat="44.38779" lon="4.89785">
        <ele>176.3</ele>
        <time>2021-02-24T13:49:20Z</time>
      </trkpt>
      <trkpt lat="44.38774" lon="4.89784">
        <ele>176.2</ele>
        <time>2021-02-24T13:49:21Z</time>
      </trkpt>
      <trkpt lat="44.3877" lon="4.89782">
        <ele>176.1</ele>
        <time>2021-02-24T13:49:22Z</time>
      </trkpt>
      <trkpt lat="44.38765" lon="4.8978">
        <ele>176</ele>
        <time>2021-02-24T13:49:23Z</time>
      </trkpt>
      <trkpt lat="44.38761" lon="4.89778">
        <ele>175.9</ele>
        <time>2021-02-24T13:49:24Z</time>
      </trkpt>
      <trkpt lat="44.38756" lon="4.89776">
        <ele>175.8</ele>
        <time>2021-02-24T13:49:25Z</time>
      </trkpt>
      <trkpt lat="44.38751" lon="4.89774">
        <ele>175.6</ele>
        <time>2021-02-24T13:49:26Z</time>
      </trkpt>
      <trkpt lat="44.38746" lon="4.89771">
        <ele>175.5</ele>
        <time>2021-02-24T13:49:27Z</time>
      </trkpt>
      <trkpt lat="44.38742" lon="4.89769">
        <ele>175.4</ele>
        <time>2021-02-24T13:49:28Z</time>
      </trkpt>
      <trkpt lat="44.38737" lon="4.89767">
        <ele>175.2</ele>
        <time>2021-02-24T13:49:29Z</time>
      </trkpt>
      <trkpt lat="44.38732" lon="4.89765">
        <ele>175.1</ele>
        <time>2021-02-24T13:49:30Z</time>
      </trkpt>
      <trkpt lat="44.38727" lon="4.89763">
        <ele>174.9</ele>
        <time>2021-02-24T13:49:31Z</time>
      </trkpt>
      <trkpt lat="44.38722" lon="4.8976">
        <ele>174.8</ele>
        <time>2021-02-24T13:49:32Z</time>
      </trkpt>
      <trkpt lat="44.38717" lon="4.89758">
        <ele>174.6</ele>
        <time>2021-02-24T13:49:33Z</time>
      </trkpt>
      <trkpt lat="44.38707" lon="4.89753">
        <ele>174.3</ele>
        <time>2021-02-24T13:49:34Z</time>
      </trkpt>
      <trkpt lat="44.38707" lon="4.89753">
        <ele>174.3</ele>
        <time>2021-02-24T13:49:35Z</time>
      </trkpt>
      <trkpt lat="44.38702" lon="4.8975">
        <ele>174.1</ele>
        <time>2021-02-24T13:49:36Z</time>
      </trkpt>
      <trkpt lat="44.38697" lon="4.89748">
        <ele>173.9</ele>
        <time>2021-02-24T13:49:37Z</time>
      </trkpt>
      <trkpt lat="44.38692" lon="4.89745">
        <ele>173.7</ele>
        <time>2021-02-24T13:49:38Z</time>
      </trkpt>
      <trkpt lat="44.38686" lon="4.89743">
        <ele>173.5</ele>
        <time>2021-02-24T13:49:39Z</time>
      </trkpt>
      <trkpt lat="44.38681" lon="4.8974">
        <ele>173.4</ele>
        <time>2021-02-24T13:49:40Z</time>
      </trkpt>
      <trkpt lat="44.38675" lon="4.89738">
        <ele>173.2</ele>
        <time>2021-02-24T13:49:41Z</time>
      </trkpt>
      <trkpt lat="44.38669" lon="4.89735">
        <ele>173</ele>
        <time>2021-02-24T13:49:42Z</time>
      </trkpt>
      <trkpt lat="44.38664" lon="4.89733">
        <ele>172.9</ele>
        <time>2021-02-24T13:49:43Z</time>
      </trkpt>
      <trkpt lat="44.38658" lon="4.89731">
        <ele>172.7</ele>
        <time>2021-02-24T13:49:44Z</time>
      </trkpt>
      <trkpt lat="44.38651" lon="4.89729">
        <ele>172.5</ele>
        <time>2021-02-24T13:49:45Z</time>
      </trkpt>
      <trkpt lat="44.38645" lon="4.89728">
        <ele>172.3</ele>
        <time>2021-02-24T13:49:46Z</time>
      </trkpt>
      <trkpt lat="44.38639" lon="4.89726">
        <ele>172.1</ele>
        <time>2021-02-24T13:49:47Z</time>
      </trkpt>
      <trkpt lat="44.38633" lon="4.89724">
        <ele>171.8</ele>
        <time>2021-02-24T13:49:48Z</time>
      </trkpt>
      <trkpt lat="44.38626" lon="4.89722">
        <ele>171.6</ele>
        <time>2021-02-24T13:49:49Z</time>
      </trkpt>
      <trkpt lat="44.3862" lon="4.89721">
        <ele>171.3</ele>
        <time>2021-02-24T13:49:50Z</time>
      </trkpt>
      <trkpt lat="44.38613" lon="4.8972">
        <ele>171</ele>
        <time>2021-02-24T13:49:51Z</time>
      </trkpt>
      <trkpt lat="44.38606" lon="4.89719">
        <ele>170.7</ele>
        <time>2021-02-24T13:49:52Z</time>
      </trkpt>
      <trkpt lat="44.38599" lon="4.89718">
        <ele>170.4</ele>
        <time>2021-02-24T13:49:53Z</time>
      </trkpt>
      <trkpt lat="44.38592" lon="4.89716">
        <ele>170.1</ele>
        <time>2021-02-24T13:49:54Z</time>
      </trkpt>
      <trkpt lat="44.38585" lon="4.89715">
        <ele>169.8</ele>
        <time>2021-02-24T13:49:55Z</time>
      </trkpt>
      <trkpt lat="44.38577" lon="4.89713">
        <ele>169.5</ele>
        <time>2021-02-24T13:49:56Z</time>
      </trkpt>
      <trkpt lat="44.3857" lon="4.89712">
        <ele>169.2</ele>
        <time>2021-02-24T13:49:57Z</time>
      </trkpt>
      <trkpt lat="44.38562" lon="4.89711">
        <ele>168.8</ele>
        <time>2021-02-24T13:49:58Z</time>
      </trkpt>
      <trkpt lat="44.38555" lon="4.89709">
        <ele>168.5</ele>
        <time>2021-02-24T13:49:59Z</time>
      </trkpt>
      <trkpt lat="44.38547" lon="4.89708">
        <ele>168.2</ele>
        <time>2021-02-24T13:50:00Z</time>
      </trkpt>
      <trkpt lat="44.38539" lon="4.89706">
        <ele>168.1</ele>
        <time>2021-02-24T13:50:01Z</time>
      </trkpt>
      <trkpt lat="44.38532" lon="4.89705">
        <ele>167.8</ele>
        <time>2021-02-24T13:50:02Z</time>
      </trkpt>
      <trkpt lat="44.38524" lon="4.89703">
        <ele>167.5</ele>
        <time>2021-02-24T13:50:03Z</time>
      </trkpt>
      <trkpt lat="44.38516" lon="4.89702">
        <ele>167.3</ele>
        <time>2021-02-24T13:50:04Z</time>
      </trkpt>
      <trkpt lat="44.38509" lon="4.89701">
        <ele>167</ele>
        <time>2021-02-24T13:50:05Z</time>
      </trkpt>
      <trkpt lat="44.38501" lon="4.89699">
        <ele>166.6</ele>
        <time>2021-02-24T13:50:06Z</time>
      </trkpt>
      <trkpt lat="44.38493" lon="4.89698">
        <ele>166.3</ele>
        <time>2021-02-24T13:50:07Z</time>
      </trkpt>
      <trkpt lat="44.38485" lon="4.89697">
        <ele>166</ele>
        <time>2021-02-24T13:50:08Z</time>
      </trkpt>
      <trkpt lat="44.38477" lon="4.89695">
        <ele>165.7</ele>
        <time>2021-02-24T13:50:09Z</time>
      </trkpt>
      <trkpt lat="44.38469" lon="4.89694">
        <ele>165.4</ele>
        <time>2021-02-24T13:50:10Z</time>
      </trkpt>
      <trkpt lat="44.38461" lon="4.89692">
        <ele>165</ele>
        <time>2021-02-24T13:50:11Z</time>
      </trkpt>
      <trkpt lat="44.38444" lon="4.89689">
        <ele>164.2</ele>
        <time>2021-02-24T13:50:12Z</time>
      </trkpt>
      <trkpt lat="44.38444" lon="4.89689">
        <ele>164.2</ele>
        <time>2021-02-24T13:50:13Z</time>
      </trkpt>
      <trkpt lat="44.38436" lon="4.89688">
        <ele>163.8</ele>
        <time>2021-02-24T13:50:14Z</time>
      </trkpt>
      <trkpt lat="44.38427" lon="4.89686">
        <ele>163.5</ele>
        <time>2021-02-24T13:50:15Z</time>
      </trkpt>
      <trkpt lat="44.38419" lon="4.89685">
        <ele>163.1</ele>
        <time>2021-02-24T13:50:16Z</time>
      </trkpt>
      <trkpt lat="44.3841" lon="4.89683">
        <ele>162.8</ele>
        <time>2021-02-24T13:50:17Z</time>
      </trkpt>
      <trkpt lat="44.38401" lon="4.89682">
        <ele>162.5</ele>
        <time>2021-02-24T13:50:18Z</time>
      </trkpt>
      <trkpt lat="44.38393" lon="4.8968">
        <ele>162.2</ele>
        <time>2021-02-24T13:50:19Z</time>
      </trkpt>
      <trkpt lat="44.38384" lon="4.89679">
        <ele>161.9</ele>
        <time>2021-02-24T13:50:20Z</time>
      </trkpt>
      <trkpt lat="44.38376" lon="4.89677">
        <ele>161.7</ele>
        <time>2021-02-24T13:50:21Z</time>
      </trkpt>
      <trkpt lat="44.38359" lon="4.89673">
        <ele>161.1</ele>
        <time>2021-02-24T13:50:22Z</time>
      </trkpt>
      <trkpt lat="44.38359" lon="4.89673">
        <ele>161.1</ele>
        <time>2021-02-24T13:50:23Z</time>
      </trkpt>
      <trkpt lat="44.38351" lon="4.89671">
        <ele>160.9</ele>
        <time>2021-02-24T13:50:24Z</time>
      </trkpt>
      <trkpt lat="44.38343" lon="4.8967">
        <ele>160.7</ele>
        <time>2021-02-24T13:50:25Z</time>
      </trkpt>
      <trkpt lat="44.38335" lon="4.89668">
        <ele>160.5</ele>
        <time>2021-02-24T13:50:26Z</time>
      </trkpt>
      <trkpt lat="44.38327" lon="4.89666">
        <ele>160.3</ele>
        <time>2021-02-24T13:50:27Z</time>
      </trkpt>
      <trkpt lat="44.38319" lon="4.89665">
        <ele>160</ele>
        <time>2021-02-24T13:50:28Z</time>
      </trkpt>
      <trkpt lat="44.38311" lon="4.89664">
        <ele>159.8</ele>
        <time>2021-02-24T13:50:29Z</time>
      </trkpt>
      <trkpt lat="44.38303" lon="4.89662">
        <ele>159.7</ele>
        <time>2021-02-24T13:50:30Z</time>
      </trkpt>
      <trkpt lat="44.38295" lon="4.89661">
        <ele>159.5</ele>
        <time>2021-02-24T13:50:31Z</time>
      </trkpt>
      <trkpt lat="44.38287" lon="4.89659">
        <ele>159.3</ele>
        <time>2021-02-24T13:50:32Z</time>
      </trkpt>
      <trkpt lat="44.38279" lon="4.89658">
        <ele>159.1</ele>
        <time>2021-02-24T13:50:33Z</time>
      </trkpt>
      <trkpt lat="44.38271" lon="4.89656">
        <ele>159</ele>
        <time>2021-02-24T13:50:34Z</time>
      </trkpt>
      <trkpt lat="44.38264" lon="4.89655">
        <ele>158.8</ele>
        <time>2021-02-24T13:50:35Z</time>
      </trkpt>
      <trkpt lat="44.38256" lon="4.89653">
        <ele>158.6</ele>
        <time>2021-02-24T13:50:36Z</time>
      </trkpt>
      <trkpt lat="44.38248" lon="4.89651">
        <ele>158.5</ele>
        <time>2021-02-24T13:50:37Z</time>
      </trkpt>
      <trkpt lat="44.38241" lon="4.89649">
        <ele>158.3</ele>
        <time>2021-02-24T13:50:38Z</time>
      </trkpt>
      <trkpt lat="44.38234" lon="4.89646">
        <ele>158.2</ele>
        <time>2021-02-24T13:50:39Z</time>
      </trkpt>
      <trkpt lat="44.38227" lon="4.89642">
        <ele>158</ele>
        <time>2021-02-24T13:50:40Z</time>
      </trkpt>
      <trkpt lat="44.38221" lon="4.89638">
        <ele>157.8</ele>
        <time>2021-02-24T13:50:41Z</time>
      </trkpt>
      <trkpt lat="44.38211" lon="4.8963">
        <ele>157.5</ele>
        <time>2021-02-24T13:50:42Z</time>
      </trkpt>
      <trkpt lat="44.38208" lon="4.89627">
        <ele>157.4</ele>
        <time>2021-02-24T13:50:43Z</time>
      </trkpt>
      <trkpt lat="44.38202" lon="4.89621">
        <ele>157.3</ele>
        <time>2021-02-24T13:50:44Z</time>
      </trkpt>
      <trkpt lat="44.38197" lon="4.89614">
        <ele>157.1</ele>
        <time>2021-02-24T13:50:45Z</time>
      </trkpt>
      <trkpt lat="44.38191" lon="4.89608">
        <ele>156.9</ele>
        <time>2021-02-24T13:50:46Z</time>
      </trkpt>
      <trkpt lat="44.38186" lon="4.89601">
        <ele>156.8</ele>
        <time>2021-02-24T13:50:47Z</time>
      </trkpt>
      <trkpt lat="44.3818" lon="4.89595">
        <ele>156.6</ele>
        <time>2021-02-24T13:50:48Z</time>
      </trkpt>
      <trkpt lat="44.38175" lon="4.89589">
        <ele>156.5</ele>
        <time>2021-02-24T13:50:49Z</time>
      </trkpt>
      <trkpt lat="44.38169" lon="4.89583">
        <ele>156.4</ele>
        <time>2021-02-24T13:50:50Z</time>
      </trkpt>
      <trkpt lat="44.38164" lon="4.89577">
        <ele>156.3</ele>
        <time>2021-02-24T13:50:51Z</time>
      </trkpt>
      <trkpt lat="44.38158" lon="4.89572">
        <ele>156.2</ele>
        <time>2021-02-24T13:50:52Z</time>
      </trkpt>
      <trkpt lat="44.38152" lon="4.89567">
        <ele>156.1</ele>
        <time>2021-02-24T13:50:53Z</time>
      </trkpt>
      <trkpt lat="44.38146" lon="4.89564">
        <ele>156</ele>
        <time>2021-02-24T13:50:54Z</time>
      </trkpt>
      <trkpt lat="44.3814" lon="4.8956">
        <ele>155.9</ele>
        <time>2021-02-24T13:50:55Z</time>
      </trkpt>
      <trkpt lat="44.38134" lon="4.89557">
        <ele>155.8</ele>
        <time>2021-02-24T13:50:56Z</time>
      </trkpt>
      <trkpt lat="44.38127" lon="4.89554">
        <ele>155.7</ele>
        <time>2021-02-24T13:50:57Z</time>
      </trkpt>
      <trkpt lat="44.38121" lon="4.89551">
        <ele>155.6</ele>
        <time>2021-02-24T13:50:58Z</time>
      </trkpt>
      <trkpt lat="44.38115" lon="4.89549">
        <ele>155.5</ele>
        <time>2021-02-24T13:50:59Z</time>
      </trkpt>
      <trkpt lat="44.38103" lon="4.89544">
        <ele>155.4</ele>
        <time>2021-02-24T13:51:00Z</time>
      </trkpt>
      <trkpt lat="44.38103" lon="4.89544">
        <ele>155.4</ele>
        <time>2021-02-24T13:51:01Z</time>
      </trkpt>
      <trkpt lat="44.38097" lon="4.89542">
        <ele>155.3</ele>
        <time>2021-02-24T13:51:02Z</time>
      </trkpt>
      <trkpt lat="44.38092" lon="4.8954">
        <ele>155.3</ele>
        <time>2021-02-24T13:51:03Z</time>
      </trkpt>
      <trkpt lat="44.38086" lon="4.89538">
        <ele>155.2</ele>
        <time>2021-02-24T13:51:04Z</time>
      </trkpt>
      <trkpt lat="44.38081" lon="4.89535">
        <ele>155.2</ele>
        <time>2021-02-24T13:51:05Z</time>
      </trkpt>
      <trkpt lat="44.38076" lon="4.89533">
        <ele>155.1</ele>
        <time>2021-02-24T13:51:06Z</time>
      </trkpt>
      <trkpt lat="44.38071" lon="4.89531">
        <ele>155.1</ele>
        <time>2021-02-24T13:51:07Z</time>
      </trkpt>
      <trkpt lat="44.38065" lon="4.89529">
        <ele>155</ele>
        <time>2021-02-24T13:51:08Z</time>
      </trkpt>
      <trkpt lat="44.3806" lon="4.89526">
        <ele>155</ele>
        <time>2021-02-24T13:51:09Z</time>
      </trkpt>
      <trkpt lat="44.38055" lon="4.89524">
        <ele>155</ele>
        <time>2021-02-24T13:51:10Z</time>
      </trkpt>
      <trkpt lat="44.3805" lon="4.89521">
        <ele>154.9</ele>
        <time>2021-02-24T13:51:11Z</time>
      </trkpt>
      <trkpt lat="44.38044" lon="4.89519">
        <ele>154.9</ele>
        <time>2021-02-24T13:51:12Z</time>
      </trkpt>
      <trkpt lat="44.38039" lon="4.89517">
        <ele>154.9</ele>
        <time>2021-02-24T13:51:13Z</time>
      </trkpt>
      <trkpt lat="44.38034" lon="4.89515">
        <ele>154.9</ele>
        <time>2021-02-24T13:51:14Z</time>
      </trkpt>
      <trkpt lat="44.38028" lon="4.89512">
        <ele>154.9</ele>
        <time>2021-02-24T13:51:15Z</time>
      </trkpt>
      <trkpt lat="44.38023" lon="4.89509">
        <ele>154.9</ele>
        <time>2021-02-24T13:51:16Z</time>
      </trkpt>
      <trkpt lat="44.38017" lon="4.89507">
        <ele>154.8</ele>
        <time>2021-02-24T13:51:17Z</time>
      </trkpt>
      <trkpt lat="44.38012" lon="4.89505">
        <ele>154.8</ele>
        <time>2021-02-24T13:51:18Z</time>
      </trkpt>
      <trkpt lat="44.38001" lon="4.895">
        <ele>154.7</ele>
        <time>2021-02-24T13:51:19Z</time>
      </trkpt>
      <trkpt lat="44.38001" lon="4.895">
        <ele>154.7</ele>
        <time>2021-02-24T13:51:20Z</time>
      </trkpt>
      <trkpt lat="44.37995" lon="4.89497">
        <ele>154.6</ele>
        <time>2021-02-24T13:51:21Z</time>
      </trkpt>
      <trkpt lat="44.37987" lon="4.89494">
        <ele>154.6</ele>
        <time>2021-02-24T13:51:22Z</time>
      </trkpt>
      <trkpt lat="44.37984" lon="4.89492">
        <ele>154.6</ele>
        <time>2021-02-24T13:51:23Z</time>
      </trkpt>
      <trkpt lat="44.37978" lon="4.8949">
        <ele>154.6</ele>
        <time>2021-02-24T13:51:24Z</time>
      </trkpt>
      <trkpt lat="44.37973" lon="4.89488">
        <ele>154.6</ele>
        <time>2021-02-24T13:51:25Z</time>
      </trkpt>
      <trkpt lat="44.37967" lon="4.89486">
        <ele>154.7</ele>
        <time>2021-02-24T13:51:26Z</time>
      </trkpt>
      <trkpt lat="44.37962" lon="4.89484">
        <ele>154.7</ele>
        <time>2021-02-24T13:51:27Z</time>
      </trkpt>
      <trkpt lat="44.37957" lon="4.89482">
        <ele>154.7</ele>
        <time>2021-02-24T13:51:28Z</time>
      </trkpt>
      <trkpt lat="44.37952" lon="4.8948">
        <ele>154.8</ele>
        <time>2021-02-24T13:51:29Z</time>
      </trkpt>
      <trkpt lat="44.37946" lon="4.89478">
        <ele>154.8</ele>
        <time>2021-02-24T13:51:30Z</time>
      </trkpt>
      <trkpt lat="44.37941" lon="4.89475">
        <ele>154.9</ele>
        <time>2021-02-24T13:51:31Z</time>
      </trkpt>
      <trkpt lat="44.37933" lon="4.89472">
        <ele>154.9</ele>
        <time>2021-02-24T13:51:32Z</time>
      </trkpt>
      <trkpt lat="44.37931" lon="4.89471">
        <ele>155</ele>
        <time>2021-02-24T13:51:33Z</time>
      </trkpt>
      <trkpt lat="44.37925" lon="4.8947">
        <ele>155</ele>
        <time>2021-02-24T13:51:34Z</time>
      </trkpt>
      <trkpt lat="44.3792" lon="4.89468">
        <ele>155</ele>
        <time>2021-02-24T13:51:35Z</time>
      </trkpt>
      <trkpt lat="44.37915" lon="4.89466">
        <ele>155.1</ele>
        <time>2021-02-24T13:51:36Z</time>
      </trkpt>
      <trkpt lat="44.3791" lon="4.89464">
        <ele>155.2</ele>
        <time>2021-02-24T13:51:37Z</time>
      </trkpt>
      <trkpt lat="44.37904" lon="4.89463">
        <ele>155.2</ele>
        <time>2021-02-24T13:51:38Z</time>
      </trkpt>
      <trkpt lat="44.37899" lon="4.89461">
        <ele>155.3</ele>
        <time>2021-02-24T13:51:39Z</time>
      </trkpt>
      <trkpt lat="44.37894" lon="4.8946">
        <ele>155.4</ele>
        <time>2021-02-24T13:51:40Z</time>
      </trkpt>
      <trkpt lat="44.37888" lon="4.89458">
        <ele>155.4</ele>
        <time>2021-02-24T13:51:41Z</time>
      </trkpt>
      <trkpt lat="44.37883" lon="4.89457">
        <ele>155.5</ele>
        <time>2021-02-24T13:51:42Z</time>
      </trkpt>
      <trkpt lat="44.37878" lon="4.89456">
        <ele>155.6</ele>
        <time>2021-02-24T13:51:43Z</time>
      </trkpt>
      <trkpt lat="44.37873" lon="4.89454">
        <ele>155.7</ele>
        <time>2021-02-24T13:51:44Z</time>
      </trkpt>
      <trkpt lat="44.37867" lon="4.89452">
        <ele>155.8</ele>
        <time>2021-02-24T13:51:45Z</time>
      </trkpt>
      <trkpt lat="44.37862" lon="4.89451">
        <ele>155.9</ele>
        <time>2021-02-24T13:51:46Z</time>
      </trkpt>
      <trkpt lat="44.37857" lon="4.89449">
        <ele>156</ele>
        <time>2021-02-24T13:51:47Z</time>
      </trkpt>
      <trkpt lat="44.37852" lon="4.89448">
        <ele>156.1</ele>
        <time>2021-02-24T13:51:48Z</time>
      </trkpt>
      <trkpt lat="44.37847" lon="4.89446">
        <ele>156.1</ele>
        <time>2021-02-24T13:51:49Z</time>
      </trkpt>
      <trkpt lat="44.37841" lon="4.89444">
        <ele>156.1</ele>
        <time>2021-02-24T13:51:50Z</time>
      </trkpt>
      <trkpt lat="44.37836" lon="4.89442">
        <ele>156.2</ele>
        <time>2021-02-24T13:51:51Z</time>
      </trkpt>
      <trkpt lat="44.37831" lon="4.8944">
        <ele>156.2</ele>
        <time>2021-02-24T13:51:52Z</time>
      </trkpt>
      <trkpt lat="44.37826" lon="4.89438">
        <ele>156.3</ele>
        <time>2021-02-24T13:51:53Z</time>
      </trkpt>
      <trkpt lat="44.37821" lon="4.89436">
        <ele>156.3</ele>
        <time>2021-02-24T13:51:54Z</time>
      </trkpt>
      <trkpt lat="44.37816" lon="4.89433">
        <ele>156.4</ele>
        <time>2021-02-24T13:51:55Z</time>
      </trkpt>
      <trkpt lat="44.37811" lon="4.89431">
        <ele>156.4</ele>
        <time>2021-02-24T13:51:56Z</time>
      </trkpt>
      <trkpt lat="44.378" lon="4.89426">
        <ele>156.5</ele>
        <time>2021-02-24T13:51:57Z</time>
      </trkpt>
      <trkpt lat="44.378" lon="4.89426">
        <ele>156.5</ele>
        <time>2021-02-24T13:51:58Z</time>
      </trkpt>
      <trkpt lat="44.37795" lon="4.89423">
        <ele>156.6</ele>
        <time>2021-02-24T13:51:59Z</time>
      </trkpt>
      <trkpt lat="44.3779" lon="4.89421">
        <ele>156.6</ele>
        <time>2021-02-24T13:52:00Z</time>
      </trkpt>
      <trkpt lat="44.37785" lon="4.89418">
        <ele>156.6</ele>
        <time>2021-02-24T13:52:01Z</time>
      </trkpt>
      <trkpt lat="44.37779" lon="4.89416">
        <ele>156.6</ele>
        <time>2021-02-24T13:52:02Z</time>
      </trkpt>
      <trkpt lat="44.37774" lon="4.89413">
        <ele>156.6</ele>
        <time>2021-02-24T13:52:03Z</time>
      </trkpt>
      <trkpt lat="44.37769" lon="4.8941">
        <ele>156.6</ele>
        <time>2021-02-24T13:52:04Z</time>
      </trkpt>
      <trkpt lat="44.37764" lon="4.89408">
        <ele>156.6</ele>
        <time>2021-02-24T13:52:05Z</time>
      </trkpt>
      <trkpt lat="44.37759" lon="4.89406">
        <ele>156.6</ele>
        <time>2021-02-24T13:52:06Z</time>
      </trkpt>
      <trkpt lat="44.37754" lon="4.89403">
        <ele>156.6</ele>
        <time>2021-02-24T13:52:07Z</time>
      </trkpt>
      <trkpt lat="44.37748" lon="4.89401">
        <ele>156.6</ele>
        <time>2021-02-24T13:52:08Z</time>
      </trkpt>
      <trkpt lat="44.37743" lon="4.89398">
        <ele>156.6</ele>
        <time>2021-02-24T13:52:09Z</time>
      </trkpt>
      <trkpt lat="44.37738" lon="4.89396">
        <ele>156.5</ele>
        <time>2021-02-24T13:52:10Z</time>
      </trkpt>
      <trkpt lat="44.37728" lon="4.89391">
        <ele>156.4</ele>
        <time>2021-02-24T13:52:11Z</time>
      </trkpt>
      <trkpt lat="44.37728" lon="4.89391">
        <ele>156.4</ele>
        <time>2021-02-24T13:52:12Z</time>
      </trkpt>
      <trkpt lat="44.37723" lon="4.89388">
        <ele>156.3</ele>
        <time>2021-02-24T13:52:13Z</time>
      </trkpt>
      <trkpt lat="44.37718" lon="4.89386">
        <ele>156.2</ele>
        <time>2021-02-24T13:52:14Z</time>
      </trkpt>
      <trkpt lat="44.37713" lon="4.89384">
        <ele>156</ele>
        <time>2021-02-24T13:52:15Z</time>
      </trkpt>
      <trkpt lat="44.37702" lon="4.89379">
        <ele>155.7</ele>
        <time>2021-02-24T13:52:16Z</time>
      </trkpt>
      <trkpt lat="44.37702" lon="4.89379">
        <ele>155.7</ele>
        <time>2021-02-24T13:52:17Z</time>
      </trkpt>
      <trkpt lat="44.37697" lon="4.89376">
        <ele>155.5</ele>
        <time>2021-02-24T13:52:18Z</time>
      </trkpt>
      <trkpt lat="44.37692" lon="4.89374">
        <ele>155.3</ele>
        <time>2021-02-24T13:52:19Z</time>
      </trkpt>
      <trkpt lat="44.37686" lon="4.89371">
        <ele>155.1</ele>
        <time>2021-02-24T13:52:20Z</time>
      </trkpt>
      <trkpt lat="44.3768" lon="4.89369">
        <ele>154.8</ele>
        <time>2021-02-24T13:52:21Z</time>
      </trkpt>
      <trkpt lat="44.37674" lon="4.89367">
        <ele>154.6</ele>
        <time>2021-02-24T13:52:22Z</time>
      </trkpt>
      <trkpt lat="44.37668" lon="4.89364">
        <ele>154.4</ele>
        <time>2021-02-24T13:52:23Z</time>
      </trkpt>
      <trkpt lat="44.37662" lon="4.89363">
        <ele>154.1</ele>
        <time>2021-02-24T13:52:24Z</time>
      </trkpt>
      <trkpt lat="44.37655" lon="4.89362">
        <ele>153.9</ele>
        <time>2021-02-24T13:52:25Z</time>
      </trkpt>
      <trkpt lat="44.37649" lon="4.89361">
        <ele>153.7</ele>
        <time>2021-02-24T13:52:26Z</time>
      </trkpt>
      <trkpt lat="44.37642" lon="4.8936">
        <ele>153.5</ele>
        <time>2021-02-24T13:52:27Z</time>
      </trkpt>
      <trkpt lat="44.37636" lon="4.8936">
        <ele>153.2</ele>
        <time>2021-02-24T13:52:28Z</time>
      </trkpt>
      <trkpt lat="44.37629" lon="4.89359">
        <ele>153.1</ele>
        <time>2021-02-24T13:52:29Z</time>
      </trkpt>
      <trkpt lat="44.37622" lon="4.89358">
        <ele>152.9</ele>
        <time>2021-02-24T13:52:30Z</time>
      </trkpt>
      <trkpt lat="44.37616" lon="4.89358">
        <ele>152.7</ele>
        <time>2021-02-24T13:52:31Z</time>
      </trkpt>
      <trkpt lat="44.3761" lon="4.89357">
        <ele>152.6</ele>
        <time>2021-02-24T13:52:32Z</time>
      </trkpt>
      <trkpt lat="44.37603" lon="4.89355">
        <ele>152.5</ele>
        <time>2021-02-24T13:52:33Z</time>
      </trkpt>
      <trkpt lat="44.37597" lon="4.89354">
        <ele>152.4</ele>
        <time>2021-02-24T13:52:34Z</time>
      </trkpt>
      <trkpt lat="44.37585" lon="4.89351">
        <ele>152.3</ele>
        <time>2021-02-24T13:52:35Z</time>
      </trkpt>
      <trkpt lat="44.37585" lon="4.89351">
        <ele>152.3</ele>
        <time>2021-02-24T13:52:36Z</time>
      </trkpt>
      <trkpt lat="44.3758" lon="4.89349">
        <ele>152.2</ele>
        <time>2021-02-24T13:52:37Z</time>
      </trkpt>
      <trkpt lat="44.37574" lon="4.89347">
        <ele>152.2</ele>
        <time>2021-02-24T13:52:38Z</time>
      </trkpt>
      <trkpt lat="44.37568" lon="4.89346">
        <ele>152.2</ele>
        <time>2021-02-24T13:52:39Z</time>
      </trkpt>
      <trkpt lat="44.37563" lon="4.89344">
        <ele>152.2</ele>
        <time>2021-02-24T13:52:40Z</time>
      </trkpt>
      <trkpt lat="44.37558" lon="4.89341">
        <ele>152.3</ele>
        <time>2021-02-24T13:52:41Z</time>
      </trkpt>
      <trkpt lat="44.37553" lon="4.89339">
        <ele>152.3</ele>
        <time>2021-02-24T13:52:42Z</time>
      </trkpt>
      <trkpt lat="44.37548" lon="4.89335">
        <ele>152.4</ele>
        <time>2021-02-24T13:52:43Z</time>
      </trkpt>
      <trkpt lat="44.37543" lon="4.89332">
        <ele>152.5</ele>
        <time>2021-02-24T13:52:44Z</time>
      </trkpt>
      <trkpt lat="44.37539" lon="4.89329">
        <ele>152.6</ele>
        <time>2021-02-24T13:52:45Z</time>
      </trkpt>
      <trkpt lat="44.37534" lon="4.89325">
        <ele>152.7</ele>
        <time>2021-02-24T13:52:46Z</time>
      </trkpt>
      <trkpt lat="44.3753" lon="4.89322">
        <ele>152.8</ele>
        <time>2021-02-24T13:52:47Z</time>
      </trkpt>
      <trkpt lat="44.37526" lon="4.89319">
        <ele>152.9</ele>
        <time>2021-02-24T13:52:48Z</time>
      </trkpt>
      <trkpt lat="44.37521" lon="4.89314">
        <ele>153</ele>
        <time>2021-02-24T13:52:49Z</time>
      </trkpt>
      <trkpt lat="44.37517" lon="4.89309">
        <ele>153.2</ele>
        <time>2021-02-24T13:52:50Z</time>
      </trkpt>
      <trkpt lat="44.37513" lon="4.89304">
        <ele>153.4</ele>
        <time>2021-02-24T13:52:51Z</time>
      </trkpt>
      <trkpt lat="44.37509" lon="4.89299">
        <ele>153.6</ele>
        <time>2021-02-24T13:52:52Z</time>
      </trkpt>
      <trkpt lat="44.37505" lon="4.89294">
        <ele>153.8</ele>
        <time>2021-02-24T13:52:53Z</time>
      </trkpt>
      <trkpt lat="44.37498" lon="4.89284">
        <ele>154.1</ele>
        <time>2021-02-24T13:52:54Z</time>
      </trkpt>
      <trkpt lat="44.37498" lon="4.89284">
        <ele>154.1</ele>
        <time>2021-02-24T13:52:55Z</time>
      </trkpt>
      <trkpt lat="44.37494" lon="4.8928">
        <ele>154.3</ele>
        <time>2021-02-24T13:52:56Z</time>
      </trkpt>
      <trkpt lat="44.3749" lon="4.89276">
        <ele>154.4</ele>
        <time>2021-02-24T13:52:57Z</time>
      </trkpt>
      <trkpt lat="44.37486" lon="4.89273">
        <ele>154.5</ele>
        <time>2021-02-24T13:52:58Z</time>
      </trkpt>
      <trkpt lat="44.37482" lon="4.8927">
        <ele>154.6</ele>
        <time>2021-02-24T13:52:59Z</time>
      </trkpt>
      <trkpt lat="44.37477" lon="4.89267">
        <ele>154.7</ele>
        <time>2021-02-24T13:53:00Z</time>
      </trkpt>
      <trkpt lat="44.37473" lon="4.89265">
        <ele>154.7</ele>
        <time>2021-02-24T13:53:01Z</time>
      </trkpt>
      <trkpt lat="44.37468" lon="4.89262">
        <ele>154.6</ele>
        <time>2021-02-24T13:53:02Z</time>
      </trkpt>
      <trkpt lat="44.37463" lon="4.8926">
        <ele>154.6</ele>
        <time>2021-02-24T13:53:03Z</time>
      </trkpt>
      <trkpt lat="44.37458" lon="4.89257">
        <ele>154.6</ele>
        <time>2021-02-24T13:53:04Z</time>
      </trkpt>
      <trkpt lat="44.37453" lon="4.89255">
        <ele>154.6</ele>
        <time>2021-02-24T13:53:05Z</time>
      </trkpt>
      <trkpt lat="44.37449" lon="4.89253">
        <ele>154.6</ele>
        <time>2021-02-24T13:53:06Z</time>
      </trkpt>
      <trkpt lat="44.37444" lon="4.89251">
        <ele>154.6</ele>
        <time>2021-02-24T13:53:07Z</time>
      </trkpt>
      <trkpt lat="44.37439" lon="4.89249">
        <ele>154.6</ele>
        <time>2021-02-24T13:53:08Z</time>
      </trkpt>
      <trkpt lat="44.37434" lon="4.89247">
        <ele>154.5</ele>
        <time>2021-02-24T13:53:09Z</time>
      </trkpt>
      <trkpt lat="44.37428" lon="4.89245">
        <ele>154.4</ele>
        <time>2021-02-24T13:53:10Z</time>
      </trkpt>
      <trkpt lat="44.37423" lon="4.89244">
        <ele>154.3</ele>
        <time>2021-02-24T13:53:11Z</time>
      </trkpt>
      <trkpt lat="44.37417" lon="4.89242">
        <ele>154.2</ele>
        <time>2021-02-24T13:53:12Z</time>
      </trkpt>
      <trkpt lat="44.37406" lon="4.89239">
        <ele>153.9</ele>
        <time>2021-02-24T13:53:13Z</time>
      </trkpt>
      <trkpt lat="44.37406" lon="4.89239">
        <ele>153.9</ele>
        <time>2021-02-24T13:53:14Z</time>
      </trkpt>
      <trkpt lat="44.374" lon="4.89238">
        <ele>153.7</ele>
        <time>2021-02-24T13:53:15Z</time>
      </trkpt>
      <trkpt lat="44.37395" lon="4.89236">
        <ele>153.5</ele>
        <time>2021-02-24T13:53:16Z</time>
      </trkpt>
      <trkpt lat="44.37389" lon="4.89234">
        <ele>153.2</ele>
        <time>2021-02-24T13:53:17Z</time>
      </trkpt>
      <trkpt lat="44.37383" lon="4.89233">
        <ele>153</ele>
        <time>2021-02-24T13:53:18Z</time>
      </trkpt>
      <trkpt lat="44.37378" lon="4.89231">
        <ele>152.7</ele>
        <time>2021-02-24T13:53:19Z</time>
      </trkpt>
      <trkpt lat="44.37372" lon="4.89229">
        <ele>152.3</ele>
        <time>2021-02-24T13:53:20Z</time>
      </trkpt>
      <trkpt lat="44.37366" lon="4.89228">
        <ele>151.9</ele>
        <time>2021-02-24T13:53:21Z</time>
      </trkpt>
      <trkpt lat="44.3736" lon="4.89226">
        <ele>151.5</ele>
        <time>2021-02-24T13:53:22Z</time>
      </trkpt>
      <trkpt lat="44.37354" lon="4.89223">
        <ele>151</ele>
        <time>2021-02-24T13:53:23Z</time>
      </trkpt>
      <trkpt lat="44.37347" lon="4.89221">
        <ele>150.6</ele>
        <time>2021-02-24T13:53:24Z</time>
      </trkpt>
      <trkpt lat="44.3734" lon="4.89218">
        <ele>150.1</ele>
        <time>2021-02-24T13:53:25Z</time>
      </trkpt>
      <trkpt lat="44.37333" lon="4.89215">
        <ele>149.6</ele>
        <time>2021-02-24T13:53:26Z</time>
      </trkpt>
      <trkpt lat="44.37325" lon="4.89213">
        <ele>149.1</ele>
        <time>2021-02-24T13:53:27Z</time>
      </trkpt>
      <trkpt lat="44.37318" lon="4.89211">
        <ele>148.6</ele>
        <time>2021-02-24T13:53:28Z</time>
      </trkpt>
      <trkpt lat="44.3731" lon="4.89208">
        <ele>148.1</ele>
        <time>2021-02-24T13:53:29Z</time>
      </trkpt>
      <trkpt lat="44.37303" lon="4.89206">
        <ele>147.7</ele>
        <time>2021-02-24T13:53:30Z</time>
      </trkpt>
      <trkpt lat="44.37295" lon="4.89203">
        <ele>147.3</ele>
        <time>2021-02-24T13:53:31Z</time>
      </trkpt>
      <trkpt lat="44.37278" lon="4.89199">
        <ele>146.7</ele>
        <time>2021-02-24T13:53:32Z</time>
      </trkpt>
      <trkpt lat="44.37278" lon="4.89199">
        <ele>146.7</ele>
        <time>2021-02-24T13:53:33Z</time>
      </trkpt>
      <trkpt lat="44.3727" lon="4.89196">
        <ele>146.4</ele>
        <time>2021-02-24T13:53:34Z</time>
      </trkpt>
      <trkpt lat="44.37262" lon="4.89194">
        <ele>146.2</ele>
        <time>2021-02-24T13:53:35Z</time>
      </trkpt>
      <trkpt lat="44.37254" lon="4.89191">
        <ele>146.1</ele>
        <time>2021-02-24T13:53:36Z</time>
      </trkpt>
      <trkpt lat="44.37246" lon="4.89189">
        <ele>146</ele>
        <time>2021-02-24T13:53:37Z</time>
      </trkpt>
      <trkpt lat="44.37238" lon="4.89186">
        <ele>145.9</ele>
        <time>2021-02-24T13:53:38Z</time>
      </trkpt>
      <trkpt lat="44.37231" lon="4.89184">
        <ele>145.9</ele>
        <time>2021-02-24T13:53:39Z</time>
      </trkpt>
      <trkpt lat="44.37224" lon="4.89182">
        <ele>145.9</ele>
        <time>2021-02-24T13:53:40Z</time>
      </trkpt>
      <trkpt lat="44.37216" lon="4.8918">
        <ele>146</ele>
        <time>2021-02-24T13:53:41Z</time>
      </trkpt>
      <trkpt lat="44.37209" lon="4.89178">
        <ele>146.1</ele>
        <time>2021-02-24T13:53:42Z</time>
      </trkpt>
      <trkpt lat="44.37203" lon="4.89176">
        <ele>146.1</ele>
        <time>2021-02-24T13:53:43Z</time>
      </trkpt>
      <trkpt lat="44.37196" lon="4.89174">
        <ele>146.2</ele>
        <time>2021-02-24T13:53:44Z</time>
      </trkpt>
      <trkpt lat="44.37189" lon="4.89172">
        <ele>146.2</ele>
        <time>2021-02-24T13:53:45Z</time>
      </trkpt>
      <trkpt lat="44.37182" lon="4.89171">
        <ele>146.3</ele>
        <time>2021-02-24T13:53:46Z</time>
      </trkpt>
      <trkpt lat="44.37176" lon="4.89169">
        <ele>146.3</ele>
        <time>2021-02-24T13:53:47Z</time>
      </trkpt>
      <trkpt lat="44.37169" lon="4.89168">
        <ele>146.3</ele>
        <time>2021-02-24T13:53:48Z</time>
      </trkpt>
      <trkpt lat="44.37163" lon="4.89166">
        <ele>146.4</ele>
        <time>2021-02-24T13:53:49Z</time>
      </trkpt>
      <trkpt lat="44.37156" lon="4.89165">
        <ele>146.4</ele>
        <time>2021-02-24T13:53:50Z</time>
      </trkpt>
      <trkpt lat="44.37143" lon="4.89161">
        <ele>146.5</ele>
        <time>2021-02-24T13:53:51Z</time>
      </trkpt>
      <trkpt lat="44.37143" lon="4.89161">
        <ele>146.5</ele>
        <time>2021-02-24T13:53:52Z</time>
      </trkpt>
      <trkpt lat="44.37137" lon="4.8916">
        <ele>146.6</ele>
        <time>2021-02-24T13:53:53Z</time>
      </trkpt>
      <trkpt lat="44.3713" lon="4.89158">
        <ele>146.7</ele>
        <time>2021-02-24T13:53:54Z</time>
      </trkpt>
      <trkpt lat="44.37123" lon="4.89156">
        <ele>146.7</ele>
        <time>2021-02-24T13:53:55Z</time>
      </trkpt>
      <trkpt lat="44.37117" lon="4.89155">
        <ele>146.8</ele>
        <time>2021-02-24T13:53:56Z</time>
      </trkpt>
      <trkpt lat="44.37111" lon="4.89153">
        <ele>146.8</ele>
        <time>2021-02-24T13:53:57Z</time>
      </trkpt>
      <trkpt lat="44.37104" lon="4.89151">
        <ele>146.7</ele>
        <time>2021-02-24T13:53:58Z</time>
      </trkpt>
      <trkpt lat="44.37098" lon="4.89148">
        <ele>146.7</ele>
        <time>2021-02-24T13:53:59Z</time>
      </trkpt>
      <trkpt lat="44.37092" lon="4.89146">
        <ele>146.7</ele>
        <time>2021-02-24T13:54:00Z</time>
      </trkpt>
      <trkpt lat="44.37085" lon="4.89144">
        <ele>146.6</ele>
        <time>2021-02-24T13:54:01Z</time>
      </trkpt>
      <trkpt lat="44.37079" lon="4.89141">
        <ele>146.6</ele>
        <time>2021-02-24T13:54:02Z</time>
      </trkpt>
      <trkpt lat="44.37073" lon="4.89138">
        <ele>146.5</ele>
        <time>2021-02-24T13:54:03Z</time>
      </trkpt>
      <trkpt lat="44.37067" lon="4.89135">
        <ele>146.5</ele>
        <time>2021-02-24T13:54:04Z</time>
      </trkpt>
      <trkpt lat="44.3706" lon="4.89131">
        <ele>146.5</ele>
        <time>2021-02-24T13:54:05Z</time>
      </trkpt>
      <trkpt lat="44.37054" lon="4.89128">
        <ele>146.5</ele>
        <time>2021-02-24T13:54:06Z</time>
      </trkpt>
      <trkpt lat="44.37049" lon="4.89125">
        <ele>146.5</ele>
        <time>2021-02-24T13:54:07Z</time>
      </trkpt>
      <trkpt lat="44.37043" lon="4.89122">
        <ele>146.4</ele>
        <time>2021-02-24T13:54:08Z</time>
      </trkpt>
      <trkpt lat="44.37037" lon="4.8912">
        <ele>146.4</ele>
        <time>2021-02-24T13:54:09Z</time>
      </trkpt>
      <trkpt lat="44.37025" lon="4.89115">
        <ele>146.4</ele>
        <time>2021-02-24T13:54:10Z</time>
      </trkpt>
      <trkpt lat="44.37025" lon="4.89115">
        <ele>146.4</ele>
        <time>2021-02-24T13:54:11Z</time>
      </trkpt>
      <trkpt lat="44.37019" lon="4.89113">
        <ele>146.3</ele>
        <time>2021-02-24T13:54:12Z</time>
      </trkpt>
      <trkpt lat="44.37013" lon="4.89111">
        <ele>146.3</ele>
        <time>2021-02-24T13:54:13Z</time>
      </trkpt>
      <trkpt lat="44.37006" lon="4.8911">
        <ele>146.2</ele>
        <time>2021-02-24T13:54:14Z</time>
      </trkpt>
      <trkpt lat="44.37" lon="4.89109">
        <ele>146.2</ele>
        <time>2021-02-24T13:54:15Z</time>
      </trkpt>
      <trkpt lat="44.36994" lon="4.89108">
        <ele>146.2</ele>
        <time>2021-02-24T13:54:16Z</time>
      </trkpt>
      <trkpt lat="44.36987" lon="4.89108">
        <ele>146.1</ele>
        <time>2021-02-24T13:54:17Z</time>
      </trkpt>
      <trkpt lat="44.36981" lon="4.89108">
        <ele>146.1</ele>
        <time>2021-02-24T13:54:18Z</time>
      </trkpt>
      <trkpt lat="44.36975" lon="4.89108">
        <ele>146.1</ele>
        <time>2021-02-24T13:54:19Z</time>
      </trkpt>
      <trkpt lat="44.36969" lon="4.89109">
        <ele>146.2</ele>
        <time>2021-02-24T13:54:20Z</time>
      </trkpt>
      <trkpt lat="44.36963" lon="4.89109">
        <ele>146.2</ele>
        <time>2021-02-24T13:54:21Z</time>
      </trkpt>
      <trkpt lat="44.36956" lon="4.89109">
        <ele>146.2</ele>
        <time>2021-02-24T13:54:22Z</time>
      </trkpt>
      <trkpt lat="44.3695" lon="4.89109">
        <ele>146.2</ele>
        <time>2021-02-24T13:54:23Z</time>
      </trkpt>
      <trkpt lat="44.36944" lon="4.89109">
        <ele>146.2</ele>
        <time>2021-02-24T13:54:24Z</time>
      </trkpt>
      <trkpt lat="44.36938" lon="4.89109">
        <ele>146.2</ele>
        <time>2021-02-24T13:54:25Z</time>
      </trkpt>
      <trkpt lat="44.36932" lon="4.89108">
        <ele>146.2</ele>
        <time>2021-02-24T13:54:26Z</time>
      </trkpt>
      <trkpt lat="44.36926" lon="4.89106">
        <ele>146.1</ele>
        <time>2021-02-24T13:54:27Z</time>
      </trkpt>
      <trkpt lat="44.3692" lon="4.89103">
        <ele>146.1</ele>
        <time>2021-02-24T13:54:28Z</time>
      </trkpt>
      <trkpt lat="44.36909" lon="4.89095">
        <ele>145.9</ele>
        <time>2021-02-24T13:54:29Z</time>
      </trkpt>
      <trkpt lat="44.36909" lon="4.89095">
        <ele>145.9</ele>
        <time>2021-02-24T13:54:30Z</time>
      </trkpt>
      <trkpt lat="44.36904" lon="4.8909">
        <ele>145.8</ele>
        <time>2021-02-24T13:54:31Z</time>
      </trkpt>
      <trkpt lat="44.36899" lon="4.89085">
        <ele>145.7</ele>
        <time>2021-02-24T13:54:32Z</time>
      </trkpt>
      <trkpt lat="44.36894" lon="4.89079">
        <ele>145.6</ele>
        <time>2021-02-24T13:54:33Z</time>
      </trkpt>
      <trkpt lat="44.36889" lon="4.89073">
        <ele>145.5</ele>
        <time>2021-02-24T13:54:34Z</time>
      </trkpt>
      <trkpt lat="44.36884" lon="4.89067">
        <ele>145.4</ele>
        <time>2021-02-24T13:54:35Z</time>
      </trkpt>
      <trkpt lat="44.36879" lon="4.89061">
        <ele>145.3</ele>
        <time>2021-02-24T13:54:36Z</time>
      </trkpt>
      <trkpt lat="44.36874" lon="4.89055">
        <ele>145.3</ele>
        <time>2021-02-24T13:54:37Z</time>
      </trkpt>
      <trkpt lat="44.36869" lon="4.89049">
        <ele>145.2</ele>
        <time>2021-02-24T13:54:38Z</time>
      </trkpt>
      <trkpt lat="44.36864" lon="4.89044">
        <ele>145.1</ele>
        <time>2021-02-24T13:54:39Z</time>
      </trkpt>
      <trkpt lat="44.36858" lon="4.89038">
        <ele>145.1</ele>
        <time>2021-02-24T13:54:40Z</time>
      </trkpt>
      <trkpt lat="44.36853" lon="4.89033">
        <ele>145</ele>
        <time>2021-02-24T13:54:41Z</time>
      </trkpt>
      <trkpt lat="44.36848" lon="4.89028">
        <ele>145</ele>
        <time>2021-02-24T13:54:42Z</time>
      </trkpt>
      <trkpt lat="44.36843" lon="4.89023">
        <ele>145</ele>
        <time>2021-02-24T13:54:43Z</time>
      </trkpt>
      <trkpt lat="44.36838" lon="4.89017">
        <ele>145</ele>
        <time>2021-02-24T13:54:44Z</time>
      </trkpt>
      <trkpt lat="44.36832" lon="4.89012">
        <ele>145</ele>
        <time>2021-02-24T13:54:45Z</time>
      </trkpt>
      <trkpt lat="44.36827" lon="4.89007">
        <ele>145.1</ele>
        <time>2021-02-24T13:54:46Z</time>
      </trkpt>
      <trkpt lat="44.36822" lon="4.89002">
        <ele>145.1</ele>
        <time>2021-02-24T13:54:47Z</time>
      </trkpt>
      <trkpt lat="44.36817" lon="4.88998">
        <ele>145.1</ele>
        <time>2021-02-24T13:54:48Z</time>
      </trkpt>
      <trkpt lat="44.36812" lon="4.88993">
        <ele>145.2</ele>
        <time>2021-02-24T13:54:49Z</time>
      </trkpt>
      <trkpt lat="44.36807" lon="4.88988">
        <ele>145.3</ele>
        <time>2021-02-24T13:54:50Z</time>
      </trkpt>
      <trkpt lat="44.36802" lon="4.88983">
        <ele>145.4</ele>
        <time>2021-02-24T13:54:51Z</time>
      </trkpt>
      <trkpt lat="44.36797" lon="4.88978">
        <ele>145.4</ele>
        <time>2021-02-24T13:54:52Z</time>
      </trkpt>
      <trkpt lat="44.36792" lon="4.88974">
        <ele>145.5</ele>
        <time>2021-02-24T13:54:53Z</time>
      </trkpt>
      <trkpt lat="44.36787" lon="4.88969">
        <ele>145.6</ele>
        <time>2021-02-24T13:54:54Z</time>
      </trkpt>
      <trkpt lat="44.36781" lon="4.88963">
        <ele>145.6</ele>
        <time>2021-02-24T13:54:55Z</time>
      </trkpt>
      <trkpt lat="44.36778" lon="4.88961">
        <ele>145.5</ele>
        <time>2021-02-24T13:54:56Z</time>
      </trkpt>
      <trkpt lat="44.36774" lon="4.88956">
        <ele>145.5</ele>
        <time>2021-02-24T13:54:57Z</time>
      </trkpt>
      <trkpt lat="44.36769" lon="4.88952">
        <ele>145.4</ele>
        <time>2021-02-24T13:54:58Z</time>
      </trkpt>
      <trkpt lat="44.36764" lon="4.88948">
        <ele>145.3</ele>
        <time>2021-02-24T13:54:59Z</time>
      </trkpt>
      <trkpt lat="44.36759" lon="4.88944">
        <ele>145.2</ele>
        <time>2021-02-24T13:55:00Z</time>
      </trkpt>
      <trkpt lat="44.36754" lon="4.8894">
        <ele>145.1</ele>
        <time>2021-02-24T13:55:01Z</time>
      </trkpt>
      <trkpt lat="44.36749" lon="4.88935">
        <ele>145</ele>
        <time>2021-02-24T13:55:02Z</time>
      </trkpt>
      <trkpt lat="44.36744" lon="4.8893">
        <ele>144.9</ele>
        <time>2021-02-24T13:55:03Z</time>
      </trkpt>
      <trkpt lat="44.36739" lon="4.88926">
        <ele>144.8</ele>
        <time>2021-02-24T13:55:04Z</time>
      </trkpt>
      <trkpt lat="44.36734" lon="4.88921">
        <ele>144.6</ele>
        <time>2021-02-24T13:55:05Z</time>
      </trkpt>
      <trkpt lat="44.36729" lon="4.88917">
        <ele>144.5</ele>
        <time>2021-02-24T13:55:06Z</time>
      </trkpt>
      <trkpt lat="44.36718" lon="4.88907">
        <ele>144.3</ele>
        <time>2021-02-24T13:55:07Z</time>
      </trkpt>
      <trkpt lat="44.36718" lon="4.88907">
        <ele>144.3</ele>
        <time>2021-02-24T13:55:08Z</time>
      </trkpt>
      <trkpt lat="44.36713" lon="4.88903">
        <ele>144.2</ele>
        <time>2021-02-24T13:55:09Z</time>
      </trkpt>
      <trkpt lat="44.36708" lon="4.88898">
        <ele>144.1</ele>
        <time>2021-02-24T13:55:10Z</time>
      </trkpt>
      <trkpt lat="44.36703" lon="4.88893">
        <ele>144</ele>
        <time>2021-02-24T13:55:11Z</time>
      </trkpt>
      <trkpt lat="44.36698" lon="4.88889">
        <ele>143.9</ele>
        <time>2021-02-24T13:55:12Z</time>
      </trkpt>
      <trkpt lat="44.36692" lon="4.88886">
        <ele>143.8</ele>
        <time>2021-02-24T13:55:13Z</time>
      </trkpt>
      <trkpt lat="44.36686" lon="4.88883">
        <ele>143.7</ele>
        <time>2021-02-24T13:55:14Z</time>
      </trkpt>
      <trkpt lat="44.3668" lon="4.88881">
        <ele>143.7</ele>
        <time>2021-02-24T13:55:15Z</time>
      </trkpt>
      <trkpt lat="44.36674" lon="4.8888">
        <ele>143.6</ele>
        <time>2021-02-24T13:55:16Z</time>
      </trkpt>
      <trkpt lat="44.36667" lon="4.88879">
        <ele>143.5</ele>
        <time>2021-02-24T13:55:17Z</time>
      </trkpt>
      <trkpt lat="44.36661" lon="4.88879">
        <ele>143.4</ele>
        <time>2021-02-24T13:55:18Z</time>
      </trkpt>
      <trkpt lat="44.36655" lon="4.88879">
        <ele>143.3</ele>
        <time>2021-02-24T13:55:19Z</time>
      </trkpt>
      <trkpt lat="44.36649" lon="4.8888">
        <ele>143.3</ele>
        <time>2021-02-24T13:55:20Z</time>
      </trkpt>
      <trkpt lat="44.36643" lon="4.8888">
        <ele>143.2</ele>
        <time>2021-02-24T13:55:21Z</time>
      </trkpt>
      <trkpt lat="44.36636" lon="4.88881">
        <ele>143.2</ele>
        <time>2021-02-24T13:55:22Z</time>
      </trkpt>
      <trkpt lat="44.3663" lon="4.88881">
        <ele>143.2</ele>
        <time>2021-02-24T13:55:23Z</time>
      </trkpt>
      <trkpt lat="44.36624" lon="4.88882">
        <ele>143.1</ele>
        <time>2021-02-24T13:55:24Z</time>
      </trkpt>
      <trkpt lat="44.36618" lon="4.88883">
        <ele>143.1</ele>
        <time>2021-02-24T13:55:25Z</time>
      </trkpt>
      <trkpt lat="44.36612" lon="4.88883">
        <ele>143.1</ele>
        <time>2021-02-24T13:55:26Z</time>
      </trkpt>
      <trkpt lat="44.36606" lon="4.88884">
        <ele>143.1</ele>
        <time>2021-02-24T13:55:27Z</time>
      </trkpt>
      <trkpt lat="44.366" lon="4.88884">
        <ele>143</ele>
        <time>2021-02-24T13:55:28Z</time>
      </trkpt>
      <trkpt lat="44.36594" lon="4.88884">
        <ele>143</ele>
        <time>2021-02-24T13:55:29Z</time>
      </trkpt>
      <trkpt lat="44.36588" lon="4.88884">
        <ele>142.9</ele>
        <time>2021-02-24T13:55:30Z</time>
      </trkpt>
      <trkpt lat="44.36582" lon="4.88884">
        <ele>142.8</ele>
        <time>2021-02-24T13:55:31Z</time>
      </trkpt>
      <trkpt lat="44.36576" lon="4.88883">
        <ele>142.8</ele>
        <time>2021-02-24T13:55:32Z</time>
      </trkpt>
      <trkpt lat="44.3657" lon="4.88881">
        <ele>142.7</ele>
        <time>2021-02-24T13:55:33Z</time>
      </trkpt>
      <trkpt lat="44.36564" lon="4.88879">
        <ele>142.6</ele>
        <time>2021-02-24T13:55:34Z</time>
      </trkpt>
      <trkpt lat="44.36559" lon="4.88875">
        <ele>142.5</ele>
        <time>2021-02-24T13:55:35Z</time>
      </trkpt>
      <trkpt lat="44.36553" lon="4.88871">
        <ele>142.5</ele>
        <time>2021-02-24T13:55:36Z</time>
      </trkpt>
      <trkpt lat="44.36548" lon="4.88866">
        <ele>142.4</ele>
        <time>2021-02-24T13:55:37Z</time>
      </trkpt>
      <trkpt lat="44.36543" lon="4.88861">
        <ele>142.3</ele>
        <time>2021-02-24T13:55:38Z</time>
      </trkpt>
      <trkpt lat="44.36539" lon="4.88854">
        <ele>142.2</ele>
        <time>2021-02-24T13:55:39Z</time>
      </trkpt>
      <trkpt lat="44.36536" lon="4.88847">
        <ele>142</ele>
        <time>2021-02-24T13:55:40Z</time>
      </trkpt>
      <trkpt lat="44.36533" lon="4.88839">
        <ele>141.9</ele>
        <time>2021-02-24T13:55:41Z</time>
      </trkpt>
      <trkpt lat="44.36531" lon="4.88831">
        <ele>141.8</ele>
        <time>2021-02-24T13:55:42Z</time>
      </trkpt>
      <trkpt lat="44.36529" lon="4.88823">
        <ele>141.7</ele>
        <time>2021-02-24T13:55:43Z</time>
      </trkpt>
      <trkpt lat="44.36527" lon="4.88815">
        <ele>141.6</ele>
        <time>2021-02-24T13:55:44Z</time>
      </trkpt>
      <trkpt lat="44.36524" lon="4.88797">
        <ele>141.4</ele>
        <time>2021-02-24T13:55:45Z</time>
      </trkpt>
      <trkpt lat="44.36523" lon="4.88795">
        <ele>141.4</ele>
        <time>2021-02-24T13:55:46Z</time>
      </trkpt>
      <trkpt lat="44.36523" lon="4.88791">
        <ele>141.3</ele>
        <time>2021-02-24T13:55:47Z</time>
      </trkpt>
      <trkpt lat="44.36521" lon="4.88784">
        <ele>141.2</ele>
        <time>2021-02-24T13:55:48Z</time>
      </trkpt>
      <trkpt lat="44.36518" lon="4.88769">
        <ele>141</ele>
        <time>2021-02-24T13:55:49Z</time>
      </trkpt>
      <trkpt lat="44.36518" lon="4.88769">
        <ele>141</ele>
        <time>2021-02-24T13:55:50Z</time>
      </trkpt>
      <trkpt lat="44.36517" lon="4.88763">
        <ele>140.9</ele>
        <time>2021-02-24T13:55:51Z</time>
      </trkpt>
      <trkpt lat="44.36515" lon="4.88756">
        <ele>140.8</ele>
        <time>2021-02-24T13:55:52Z</time>
      </trkpt>
      <trkpt lat="44.36514" lon="4.88749">
        <ele>140.7</ele>
        <time>2021-02-24T13:55:53Z</time>
      </trkpt>
      <trkpt lat="44.36512" lon="4.88742">
        <ele>140.6</ele>
        <time>2021-02-24T13:55:54Z</time>
      </trkpt>
      <trkpt lat="44.36511" lon="4.88735">
        <ele>140.5</ele>
        <time>2021-02-24T13:55:55Z</time>
      </trkpt>
      <trkpt lat="44.3651" lon="4.88728">
        <ele>140.3</ele>
        <time>2021-02-24T13:55:56Z</time>
      </trkpt>
      <trkpt lat="44.36509" lon="4.88721">
        <ele>140.2</ele>
        <time>2021-02-24T13:55:57Z</time>
      </trkpt>
      <trkpt lat="44.36507" lon="4.88715">
        <ele>140.1</ele>
        <time>2021-02-24T13:55:58Z</time>
      </trkpt>
      <trkpt lat="44.36505" lon="4.88708">
        <ele>140</ele>
        <time>2021-02-24T13:55:59Z</time>
      </trkpt>
      <trkpt lat="44.36504" lon="4.88702">
        <ele>140</ele>
        <time>2021-02-24T13:56:00Z</time>
      </trkpt>
      <trkpt lat="44.36503" lon="4.88696">
        <ele>139.9</ele>
        <time>2021-02-24T13:56:01Z</time>
      </trkpt>
      <trkpt lat="44.36501" lon="4.8869">
        <ele>139.8</ele>
        <time>2021-02-24T13:56:02Z</time>
      </trkpt>
      <trkpt lat="44.365" lon="4.88684">
        <ele>139.7</ele>
        <time>2021-02-24T13:56:03Z</time>
      </trkpt>
      <trkpt lat="44.36496" lon="4.88676">
        <ele>139.6</ele>
        <time>2021-02-24T13:56:04Z</time>
      </trkpt>
      <trkpt lat="44.36496" lon="4.88676">
        <ele>139.6</ele>
        <time>2021-02-24T13:56:05Z</time>
      </trkpt>
      <trkpt lat="44.36494" lon="4.88674">
        <ele>139.5</ele>
        <time>2021-02-24T13:56:06Z</time>
      </trkpt>
      <trkpt lat="44.3649" lon="4.88673">
        <ele>139.5</ele>
        <time>2021-02-24T13:56:07Z</time>
      </trkpt>
      <trkpt lat="44.36482" lon="4.88676">
        <ele>139.6</ele>
        <time>2021-02-24T13:56:08Z</time>
      </trkpt>
      <trkpt lat="44.36482" lon="4.88676">
        <ele>139.6</ele>
        <time>2021-02-24T13:56:09Z</time>
      </trkpt>
      <trkpt lat="44.36477" lon="4.88678">
        <ele>139.6</ele>
        <time>2021-02-24T13:56:10Z</time>
      </trkpt>
      <trkpt lat="44.36473" lon="4.88681">
        <ele>139.6</ele>
        <time>2021-02-24T13:56:11Z</time>
      </trkpt>
      <trkpt lat="44.36468" lon="4.88683">
        <ele>139.7</ele>
        <time>2021-02-24T13:56:12Z</time>
      </trkpt>
      <trkpt lat="44.36463" lon="4.88686">
        <ele>139.7</ele>
        <time>2021-02-24T13:56:13Z</time>
      </trkpt>
      <trkpt lat="44.36458" lon="4.88688">
        <ele>139.8</ele>
        <time>2021-02-24T13:56:14Z</time>
      </trkpt>
      <trkpt lat="44.36453" lon="4.8869">
        <ele>139.8</ele>
        <time>2021-02-24T13:56:15Z</time>
      </trkpt>
      <trkpt lat="44.36448" lon="4.88693">
        <ele>139.8</ele>
        <time>2021-02-24T13:56:16Z</time>
      </trkpt>
      <trkpt lat="44.36443" lon="4.88695">
        <ele>139.8</ele>
        <time>2021-02-24T13:56:17Z</time>
      </trkpt>
      <trkpt lat="44.36438" lon="4.88697">
        <ele>139.8</ele>
        <time>2021-02-24T13:56:18Z</time>
      </trkpt>
      <trkpt lat="44.36433" lon="4.887">
        <ele>139.7</ele>
        <time>2021-02-24T13:56:19Z</time>
      </trkpt>
      <trkpt lat="44.36427" lon="4.88702">
        <ele>139.6</ele>
        <time>2021-02-24T13:56:20Z</time>
      </trkpt>
      <trkpt lat="44.36422" lon="4.88705">
        <ele>139.5</ele>
        <time>2021-02-24T13:56:21Z</time>
      </trkpt>
      <trkpt lat="44.36417" lon="4.88708">
        <ele>139.3</ele>
        <time>2021-02-24T13:56:22Z</time>
      </trkpt>
      <trkpt lat="44.36412" lon="4.88712">
        <ele>139.2</ele>
        <time>2021-02-24T13:56:23Z</time>
      </trkpt>
      <trkpt lat="44.36407" lon="4.88717">
        <ele>139</ele>
        <time>2021-02-24T13:56:24Z</time>
      </trkpt>
      <trkpt lat="44.36403" lon="4.88723">
        <ele>138.8</ele>
        <time>2021-02-24T13:56:25Z</time>
      </trkpt>
      <trkpt lat="44.36399" lon="4.8873">
        <ele>138.6</ele>
        <time>2021-02-24T13:56:26Z</time>
      </trkpt>
      <trkpt lat="44.36397" lon="4.88739">
        <ele>138.4</ele>
        <time>2021-02-24T13:56:27Z</time>
      </trkpt>
      <trkpt lat="44.36395" lon="4.88748">
        <ele>138.2</ele>
        <time>2021-02-24T13:56:28Z</time>
      </trkpt>
      <trkpt lat="44.36394" lon="4.88757">
        <ele>137.9</ele>
        <time>2021-02-24T13:56:29Z</time>
      </trkpt>
      <trkpt lat="44.36392" lon="4.88766">
        <ele>137.7</ele>
        <time>2021-02-24T13:56:30Z</time>
      </trkpt>
      <trkpt lat="44.36391" lon="4.88776">
        <ele>137.6</ele>
        <time>2021-02-24T13:56:31Z</time>
      </trkpt>
      <trkpt lat="44.3639" lon="4.88785">
        <ele>137.4</ele>
        <time>2021-02-24T13:56:32Z</time>
      </trkpt>
      <trkpt lat="44.36389" lon="4.88795">
        <ele>137.3</ele>
        <time>2021-02-24T13:56:33Z</time>
      </trkpt>
      <trkpt lat="44.36388" lon="4.88804">
        <ele>137.1</ele>
        <time>2021-02-24T13:56:34Z</time>
      </trkpt>
      <trkpt lat="44.36387" lon="4.88814">
        <ele>137</ele>
        <time>2021-02-24T13:56:35Z</time>
      </trkpt>
      <trkpt lat="44.36386" lon="4.88828">
        <ele>136.9</ele>
        <time>2021-02-24T13:56:36Z</time>
      </trkpt>
      <trkpt lat="44.36385" lon="4.88833">
        <ele>136.9</ele>
        <time>2021-02-24T13:56:37Z</time>
      </trkpt>
      <trkpt lat="44.36385" lon="4.88842">
        <ele>136.9</ele>
        <time>2021-02-24T13:56:38Z</time>
      </trkpt>
      <trkpt lat="44.36384" lon="4.88851">
        <ele>136.8</ele>
        <time>2021-02-24T13:56:39Z</time>
      </trkpt>
      <trkpt lat="44.36383" lon="4.88861">
        <ele>136.8</ele>
        <time>2021-02-24T13:56:40Z</time>
      </trkpt>
      <trkpt lat="44.36382" lon="4.8887">
        <ele>136.8</ele>
        <time>2021-02-24T13:56:41Z</time>
      </trkpt>
      <trkpt lat="44.36381" lon="4.88879">
        <ele>136.8</ele>
        <time>2021-02-24T13:56:42Z</time>
      </trkpt>
      <trkpt lat="44.3638" lon="4.88888">
        <ele>136.8</ele>
        <time>2021-02-24T13:56:43Z</time>
      </trkpt>
      <trkpt lat="44.36379" lon="4.88897">
        <ele>136.8</ele>
        <time>2021-02-24T13:56:44Z</time>
      </trkpt>
      <trkpt lat="44.36378" lon="4.88906">
        <ele>136.8</ele>
        <time>2021-02-24T13:56:45Z</time>
      </trkpt>
      <trkpt lat="44.36377" lon="4.88915">
        <ele>136.8</ele>
        <time>2021-02-24T13:56:46Z</time>
      </trkpt>
      <trkpt lat="44.36375" lon="4.88924">
        <ele>136.8</ele>
        <time>2021-02-24T13:56:47Z</time>
      </trkpt>
      <trkpt lat="44.36374" lon="4.88932">
        <ele>136.8</ele>
        <time>2021-02-24T13:56:48Z</time>
      </trkpt>
      <trkpt lat="44.36373" lon="4.8894">
        <ele>136.8</ele>
        <time>2021-02-24T13:56:49Z</time>
      </trkpt>
      <trkpt lat="44.36372" lon="4.88948">
        <ele>136.8</ele>
        <time>2021-02-24T13:56:50Z</time>
      </trkpt>
      <trkpt lat="44.36371" lon="4.88955">
        <ele>136.9</ele>
        <time>2021-02-24T13:56:51Z</time>
      </trkpt>
      <trkpt lat="44.3637" lon="4.88963">
        <ele>136.9</ele>
        <time>2021-02-24T13:56:52Z</time>
      </trkpt>
      <trkpt lat="44.36369" lon="4.88971">
        <ele>136.9</ele>
        <time>2021-02-24T13:56:53Z</time>
      </trkpt>
      <trkpt lat="44.36368" lon="4.88978">
        <ele>136.9</ele>
        <time>2021-02-24T13:56:54Z</time>
      </trkpt>
      <trkpt lat="44.36367" lon="4.88986">
        <ele>136.9</ele>
        <time>2021-02-24T13:56:55Z</time>
      </trkpt>
      <trkpt lat="44.36367" lon="4.88993">
        <ele>136.9</ele>
        <time>2021-02-24T13:56:56Z</time>
      </trkpt>
      <trkpt lat="44.36366" lon="4.89001">
        <ele>136.9</ele>
        <time>2021-02-24T13:56:57Z</time>
      </trkpt>
      <trkpt lat="44.36365" lon="4.89008">
        <ele>136.9</ele>
        <time>2021-02-24T13:56:58Z</time>
      </trkpt>
      <trkpt lat="44.36364" lon="4.89016">
        <ele>136.9</ele>
        <time>2021-02-24T13:56:59Z</time>
      </trkpt>
      <trkpt lat="44.36363" lon="4.89023">
        <ele>136.9</ele>
        <time>2021-02-24T13:57:00Z</time>
      </trkpt>
      <trkpt lat="44.36361" lon="4.89039">
        <ele>136.9</ele>
        <time>2021-02-24T13:57:01Z</time>
      </trkpt>
      <trkpt lat="44.36361" lon="4.89039">
        <ele>136.9</ele>
        <time>2021-02-24T13:57:02Z</time>
      </trkpt>
      <trkpt lat="44.3636" lon="4.89047">
        <ele>136.9</ele>
        <time>2021-02-24T13:57:03Z</time>
      </trkpt>
      <trkpt lat="44.36359" lon="4.89055">
        <ele>136.9</ele>
        <time>2021-02-24T13:57:04Z</time>
      </trkpt>
      <trkpt lat="44.36358" lon="4.89063">
        <ele>136.9</ele>
        <time>2021-02-24T13:57:05Z</time>
      </trkpt>
      <trkpt lat="44.36357" lon="4.89071">
        <ele>136.9</ele>
        <time>2021-02-24T13:57:06Z</time>
      </trkpt>
      <trkpt lat="44.36356" lon="4.89079">
        <ele>136.9</ele>
        <time>2021-02-24T13:57:07Z</time>
      </trkpt>
      <trkpt lat="44.36355" lon="4.89087">
        <ele>136.9</ele>
        <time>2021-02-24T13:57:08Z</time>
      </trkpt>
      <trkpt lat="44.36354" lon="4.89095">
        <ele>137</ele>
        <time>2021-02-24T13:57:09Z</time>
      </trkpt>
      <trkpt lat="44.36353" lon="4.89103">
        <ele>137</ele>
        <time>2021-02-24T13:57:10Z</time>
      </trkpt>
      <trkpt lat="44.36352" lon="4.89111">
        <ele>137</ele>
        <time>2021-02-24T13:57:11Z</time>
      </trkpt>
      <trkpt lat="44.36351" lon="4.89119">
        <ele>137</ele>
        <time>2021-02-24T13:57:12Z</time>
      </trkpt>
      <trkpt lat="44.3635" lon="4.89127">
        <ele>137.1</ele>
        <time>2021-02-24T13:57:13Z</time>
      </trkpt>
      <trkpt lat="44.36349" lon="4.89134">
        <ele>137.1</ele>
        <time>2021-02-24T13:57:14Z</time>
      </trkpt>
      <trkpt lat="44.36348" lon="4.89142">
        <ele>137.1</ele>
        <time>2021-02-24T13:57:15Z</time>
      </trkpt>
      <trkpt lat="44.36347" lon="4.8915">
        <ele>137.2</ele>
        <time>2021-02-24T13:57:16Z</time>
      </trkpt>
      <trkpt lat="44.36345" lon="4.89163">
        <ele>137.2</ele>
        <time>2021-02-24T13:57:17Z</time>
      </trkpt>
      <trkpt lat="44.36345" lon="4.89167">
        <ele>137.2</ele>
        <time>2021-02-24T13:57:18Z</time>
      </trkpt>
      <trkpt lat="44.36344" lon="4.89175">
        <ele>137.3</ele>
        <time>2021-02-24T13:57:19Z</time>
      </trkpt>
      <trkpt lat="44.36342" lon="4.89192">
        <ele>137.3</ele>
        <time>2021-02-24T13:57:20Z</time>
      </trkpt>
      <trkpt lat="44.36342" lon="4.89192">
        <ele>137.3</ele>
        <time>2021-02-24T13:57:21Z</time>
      </trkpt>
      <trkpt lat="44.36341" lon="4.892">
        <ele>137.3</ele>
        <time>2021-02-24T13:57:22Z</time>
      </trkpt>
      <trkpt lat="44.36341" lon="4.89208">
        <ele>137.3</ele>
        <time>2021-02-24T13:57:23Z</time>
      </trkpt>
      <trkpt lat="44.3634" lon="4.89217">
        <ele>137.4</ele>
        <time>2021-02-24T13:57:24Z</time>
      </trkpt>
      <trkpt lat="44.36339" lon="4.89225">
        <ele>137.4</ele>
        <time>2021-02-24T13:57:25Z</time>
      </trkpt>
      <trkpt lat="44.36339" lon="4.89234">
        <ele>137.4</ele>
        <time>2021-02-24T13:57:26Z</time>
      </trkpt>
      <trkpt lat="44.36337" lon="4.89246">
        <ele>137.5</ele>
        <time>2021-02-24T13:57:27Z</time>
      </trkpt>
      <trkpt lat="44.36337" lon="4.89251">
        <ele>137.6</ele>
        <time>2021-02-24T13:57:28Z</time>
      </trkpt>
      <trkpt lat="44.36335" lon="4.89259">
        <ele>137.7</ele>
        <time>2021-02-24T13:57:29Z</time>
      </trkpt>
      <trkpt lat="44.36334" lon="4.89267">
        <ele>137.8</ele>
        <time>2021-02-24T13:57:30Z</time>
      </trkpt>
      <trkpt lat="44.36332" lon="4.89274">
        <ele>137.9</ele>
        <time>2021-02-24T13:57:31Z</time>
      </trkpt>
      <trkpt lat="44.3633" lon="4.89282">
        <ele>138</ele>
        <time>2021-02-24T13:57:32Z</time>
      </trkpt>
      <trkpt lat="44.36328" lon="4.89289">
        <ele>138.1</ele>
        <time>2021-02-24T13:57:33Z</time>
      </trkpt>
      <trkpt lat="44.36326" lon="4.89296">
        <ele>138.1</ele>
        <time>2021-02-24T13:57:34Z</time>
      </trkpt>
      <trkpt lat="44.36324" lon="4.89303">
        <ele>138.1</ele>
        <time>2021-02-24T13:57:35Z</time>
      </trkpt>
      <trkpt lat="44.36322" lon="4.8931">
        <ele>138.1</ele>
        <time>2021-02-24T13:57:36Z</time>
      </trkpt>
      <trkpt lat="44.3632" lon="4.89318">
        <ele>138.1</ele>
        <time>2021-02-24T13:57:37Z</time>
      </trkpt>
      <trkpt lat="44.36319" lon="4.89326">
        <ele>138.1</ele>
        <time>2021-02-24T13:57:38Z</time>
      </trkpt>
      <trkpt lat="44.36317" lon="4.89343">
        <ele>138.1</ele>
        <time>2021-02-24T13:57:39Z</time>
      </trkpt>
      <trkpt lat="44.36317" lon="4.89343">
        <ele>138.1</ele>
        <time>2021-02-24T13:57:40Z</time>
      </trkpt>
      <trkpt lat="44.36317" lon="4.89356">
        <ele>138.1</ele>
        <time>2021-02-24T13:57:41Z</time>
      </trkpt>
      <trkpt lat="44.36317" lon="4.89361">
        <ele>138.1</ele>
        <time>2021-02-24T13:57:42Z</time>
      </trkpt>
      <trkpt lat="44.36318" lon="4.89369">
        <ele>138.1</ele>
        <time>2021-02-24T13:57:43Z</time>
      </trkpt>
      <trkpt lat="44.36319" lon="4.89378">
        <ele>138.1</ele>
        <time>2021-02-24T13:57:44Z</time>
      </trkpt>
      <trkpt lat="44.36321" lon="4.89386">
        <ele>138.1</ele>
        <time>2021-02-24T13:57:45Z</time>
      </trkpt>
      <trkpt lat="44.36323" lon="4.89394">
        <ele>138.1</ele>
        <time>2021-02-24T13:57:46Z</time>
      </trkpt>
      <trkpt lat="44.36325" lon="4.89402">
        <ele>138.1</ele>
        <time>2021-02-24T13:57:47Z</time>
      </trkpt>
      <trkpt lat="44.36327" lon="4.8941">
        <ele>138.1</ele>
        <time>2021-02-24T13:57:48Z</time>
      </trkpt>
      <trkpt lat="44.36329" lon="4.89418">
        <ele>138.1</ele>
        <time>2021-02-24T13:57:49Z</time>
      </trkpt>
      <trkpt lat="44.3633" lon="4.89426">
        <ele>138.1</ele>
        <time>2021-02-24T13:57:50Z</time>
      </trkpt>
      <trkpt lat="44.36332" lon="4.89434">
        <ele>138.2</ele>
        <time>2021-02-24T13:57:51Z</time>
      </trkpt>
      <trkpt lat="44.36332" lon="4.89443">
        <ele>138.2</ele>
        <time>2021-02-24T13:57:52Z</time>
      </trkpt>
      <trkpt lat="44.36333" lon="4.89451">
        <ele>138.3</ele>
        <time>2021-02-24T13:57:53Z</time>
      </trkpt>
      <trkpt lat="44.36332" lon="4.89459">
        <ele>138.4</ele>
        <time>2021-02-24T13:57:54Z</time>
      </trkpt>
      <trkpt lat="44.36332" lon="4.89467">
        <ele>138.5</ele>
        <time>2021-02-24T13:57:55Z</time>
      </trkpt>
      <trkpt lat="44.3633" lon="4.89475">
        <ele>138.7</ele>
        <time>2021-02-24T13:57:56Z</time>
      </trkpt>
      <trkpt lat="44.36329" lon="4.89483">
        <ele>138.8</ele>
        <time>2021-02-24T13:57:57Z</time>
      </trkpt>
      <trkpt lat="44.36326" lon="4.89497">
        <ele>139.2</ele>
        <time>2021-02-24T13:57:58Z</time>
      </trkpt>
      <trkpt lat="44.36326" lon="4.89497">
        <ele>139.2</ele>
        <time>2021-02-24T13:57:59Z</time>
      </trkpt>
      <trkpt lat="44.36324" lon="4.89504">
        <ele>139.3</ele>
        <time>2021-02-24T13:58:00Z</time>
      </trkpt>
      <trkpt lat="44.36323" lon="4.89511">
        <ele>139.5</ele>
        <time>2021-02-24T13:58:01Z</time>
      </trkpt>
      <trkpt lat="44.36321" lon="4.89517">
        <ele>139.6</ele>
        <time>2021-02-24T13:58:02Z</time>
      </trkpt>
      <trkpt lat="44.3632" lon="4.89524">
        <ele>139.8</ele>
        <time>2021-02-24T13:58:03Z</time>
      </trkpt>
      <trkpt lat="44.36319" lon="4.89531">
        <ele>139.9</ele>
        <time>2021-02-24T13:58:04Z</time>
      </trkpt>
      <trkpt lat="44.36318" lon="4.89538">
        <ele>140</ele>
        <time>2021-02-24T13:58:05Z</time>
      </trkpt>
      <trkpt lat="44.36317" lon="4.89545">
        <ele>140.1</ele>
        <time>2021-02-24T13:58:06Z</time>
      </trkpt>
      <trkpt lat="44.36316" lon="4.8956">
        <ele>140.3</ele>
        <time>2021-02-24T13:58:07Z</time>
      </trkpt>
      <trkpt lat="44.36316" lon="4.8956">
        <ele>140.3</ele>
        <time>2021-02-24T13:58:08Z</time>
      </trkpt>
      <trkpt lat="44.36316" lon="4.89567">
        <ele>140.3</ele>
        <time>2021-02-24T13:58:09Z</time>
      </trkpt>
      <trkpt lat="44.36316" lon="4.89574">
        <ele>140.3</ele>
        <time>2021-02-24T13:58:10Z</time>
      </trkpt>
      <trkpt lat="44.36315" lon="4.89582">
        <ele>140.3</ele>
        <time>2021-02-24T13:58:11Z</time>
      </trkpt>
      <trkpt lat="44.36315" lon="4.8959">
        <ele>140.3</ele>
        <time>2021-02-24T13:58:12Z</time>
      </trkpt>
      <trkpt lat="44.36315" lon="4.89597">
        <ele>140.3</ele>
        <time>2021-02-24T13:58:13Z</time>
      </trkpt>
      <trkpt lat="44.36315" lon="4.89605">
        <ele>140.3</ele>
        <time>2021-02-24T13:58:14Z</time>
      </trkpt>
      <trkpt lat="44.36314" lon="4.89612">
        <ele>140.2</ele>
        <time>2021-02-24T13:58:15Z</time>
      </trkpt>
      <trkpt lat="44.36314" lon="4.8962">
        <ele>140.2</ele>
        <time>2021-02-24T13:58:16Z</time>
      </trkpt>
      <trkpt lat="44.36313" lon="4.89636">
        <ele>140.1</ele>
        <time>2021-02-24T13:58:17Z</time>
      </trkpt>
      <trkpt lat="44.36313" lon="4.89636">
        <ele>140.1</ele>
        <time>2021-02-24T13:58:18Z</time>
      </trkpt>
      <trkpt lat="44.36313" lon="4.89644">
        <ele>140.1</ele>
        <time>2021-02-24T13:58:19Z</time>
      </trkpt>
      <trkpt lat="44.36313" lon="4.89652">
        <ele>140</ele>
        <time>2021-02-24T13:58:20Z</time>
      </trkpt>
      <trkpt lat="44.36313" lon="4.8966">
        <ele>140</ele>
        <time>2021-02-24T13:58:21Z</time>
      </trkpt>
      <trkpt lat="44.36313" lon="4.89668">
        <ele>140</ele>
        <time>2021-02-24T13:58:22Z</time>
      </trkpt>
      <trkpt lat="44.36312" lon="4.89676">
        <ele>140</ele>
        <time>2021-02-24T13:58:23Z</time>
      </trkpt>
      <trkpt lat="44.36312" lon="4.89684">
        <ele>140</ele>
        <time>2021-02-24T13:58:24Z</time>
      </trkpt>
      <trkpt lat="44.36312" lon="4.89691">
        <ele>140</ele>
        <time>2021-02-24T13:58:25Z</time>
      </trkpt>
      <trkpt lat="44.36312" lon="4.89699">
        <ele>140</ele>
        <time>2021-02-24T13:58:26Z</time>
      </trkpt>
      <trkpt lat="44.36311" lon="4.89707">
        <ele>140</ele>
        <time>2021-02-24T13:58:27Z</time>
      </trkpt>
      <trkpt lat="44.36311" lon="4.89715">
        <ele>140</ele>
        <time>2021-02-24T13:58:28Z</time>
      </trkpt>
      <trkpt lat="44.36311" lon="4.89723">
        <ele>140.1</ele>
        <time>2021-02-24T13:58:29Z</time>
      </trkpt>
      <trkpt lat="44.36311" lon="4.89731">
        <ele>140.1</ele>
        <time>2021-02-24T13:58:30Z</time>
      </trkpt>
      <trkpt lat="44.3631" lon="4.89739">
        <ele>140.1</ele>
        <time>2021-02-24T13:58:31Z</time>
      </trkpt>
      <trkpt lat="44.3631" lon="4.89747">
        <ele>140.2</ele>
        <time>2021-02-24T13:58:32Z</time>
      </trkpt>
      <trkpt lat="44.3631" lon="4.89754">
        <ele>140.2</ele>
        <time>2021-02-24T13:58:33Z</time>
      </trkpt>
      <trkpt lat="44.3631" lon="4.89762">
        <ele>140.3</ele>
        <time>2021-02-24T13:58:34Z</time>
      </trkpt>
      <trkpt lat="44.36309" lon="4.8977">
        <ele>140.4</ele>
        <time>2021-02-24T13:58:35Z</time>
      </trkpt>
      <trkpt lat="44.36309" lon="4.89777">
        <ele>140.5</ele>
        <time>2021-02-24T13:58:36Z</time>
      </trkpt>
      <trkpt lat="44.36309" lon="4.89785">
        <ele>140.6</ele>
        <time>2021-02-24T13:58:37Z</time>
      </trkpt>
      <trkpt lat="44.36309" lon="4.89792">
        <ele>140.7</ele>
        <time>2021-02-24T13:58:38Z</time>
      </trkpt>
      <trkpt lat="44.36309" lon="4.898">
        <ele>140.8</ele>
        <time>2021-02-24T13:58:39Z</time>
      </trkpt>
      <trkpt lat="44.36308" lon="4.89807">
        <ele>140.9</ele>
        <time>2021-02-24T13:58:40Z</time>
      </trkpt>
      <trkpt lat="44.36308" lon="4.89819">
        <ele>141.1</ele>
        <time>2021-02-24T13:58:41Z</time>
      </trkpt>
      <trkpt lat="44.36308" lon="4.89822">
        <ele>141.1</ele>
        <time>2021-02-24T13:58:42Z</time>
      </trkpt>
      <trkpt lat="44.36308" lon="4.8983">
        <ele>141.2</ele>
        <time>2021-02-24T13:58:43Z</time>
      </trkpt>
      <trkpt lat="44.36307" lon="4.89837">
        <ele>141.4</ele>
        <time>2021-02-24T13:58:44Z</time>
      </trkpt>
      <trkpt lat="44.36307" lon="4.89845">
        <ele>141.6</ele>
        <time>2021-02-24T13:58:45Z</time>
      </trkpt>
      <trkpt lat="44.36307" lon="4.89852">
        <ele>141.7</ele>
        <time>2021-02-24T13:58:46Z</time>
      </trkpt>
      <trkpt lat="44.36307" lon="4.89859">
        <ele>141.9</ele>
        <time>2021-02-24T13:58:47Z</time>
      </trkpt>
      <trkpt lat="44.36307" lon="4.89866">
        <ele>142</ele>
        <time>2021-02-24T13:58:48Z</time>
      </trkpt>
      <trkpt lat="44.36306" lon="4.89874">
        <ele>142.2</ele>
        <time>2021-02-24T13:58:49Z</time>
      </trkpt>
      <trkpt lat="44.36306" lon="4.89881">
        <ele>142.3</ele>
        <time>2021-02-24T13:58:50Z</time>
      </trkpt>
      <trkpt lat="44.36306" lon="4.89888">
        <ele>142.5</ele>
        <time>2021-02-24T13:58:51Z</time>
      </trkpt>
      <trkpt lat="44.36306" lon="4.89894">
        <ele>142.6</ele>
        <time>2021-02-24T13:58:52Z</time>
      </trkpt>
      <trkpt lat="44.36305" lon="4.89901">
        <ele>142.8</ele>
        <time>2021-02-24T13:58:53Z</time>
      </trkpt>
      <trkpt lat="44.36305" lon="4.89908">
        <ele>142.9</ele>
        <time>2021-02-24T13:58:54Z</time>
      </trkpt>
      <trkpt lat="44.36305" lon="4.89914">
        <ele>143.1</ele>
        <time>2021-02-24T13:58:55Z</time>
      </trkpt>
      <trkpt lat="44.36305" lon="4.89921">
        <ele>143.3</ele>
        <time>2021-02-24T13:58:56Z</time>
      </trkpt>
      <trkpt lat="44.36304" lon="4.89927">
        <ele>143.5</ele>
        <time>2021-02-24T13:58:57Z</time>
      </trkpt>
      <trkpt lat="44.36304" lon="4.89933">
        <ele>143.7</ele>
        <time>2021-02-24T13:58:58Z</time>
      </trkpt>
      <trkpt lat="44.36304" lon="4.89939">
        <ele>143.9</ele>
        <time>2021-02-24T13:58:59Z</time>
      </trkpt>
      <trkpt lat="44.36303" lon="4.89946">
        <ele>144.2</ele>
        <time>2021-02-24T13:59:00Z</time>
      </trkpt>
      <trkpt lat="44.36303" lon="4.89952">
        <ele>144.4</ele>
        <time>2021-02-24T13:59:01Z</time>
      </trkpt>
      <trkpt lat="44.36302" lon="4.89958">
        <ele>144.6</ele>
        <time>2021-02-24T13:59:02Z</time>
      </trkpt>
      <trkpt lat="44.36302" lon="4.89963">
        <ele>144.8</ele>
        <time>2021-02-24T13:59:03Z</time>
      </trkpt>
      <trkpt lat="44.36302" lon="4.89969">
        <ele>145</ele>
        <time>2021-02-24T13:59:04Z</time>
      </trkpt>
      <trkpt lat="44.36302" lon="4.89975">
        <ele>145.2</ele>
        <time>2021-02-24T13:59:05Z</time>
      </trkpt>
      <trkpt lat="44.36301" lon="4.89981">
        <ele>145.4</ele>
        <time>2021-02-24T13:59:06Z</time>
      </trkpt>
      <trkpt lat="44.36301" lon="4.89987">
        <ele>145.6</ele>
        <time>2021-02-24T13:59:07Z</time>
      </trkpt>
      <trkpt lat="44.36301" lon="4.89996">
        <ele>145.9</ele>
        <time>2021-02-24T13:59:08Z</time>
      </trkpt>
      <trkpt lat="44.36301" lon="4.89999">
        <ele>146</ele>
        <time>2021-02-24T13:59:09Z</time>
      </trkpt>
      <trkpt lat="44.363" lon="4.90005">
        <ele>146.1</ele>
        <time>2021-02-24T13:59:10Z</time>
      </trkpt>
      <trkpt lat="44.363" lon="4.90015">
        <ele>146.4</ele>
        <time>2021-02-24T13:59:11Z</time>
      </trkpt>
      <trkpt lat="44.36299" lon="4.90018">
        <ele>146.5</ele>
        <time>2021-02-24T13:59:12Z</time>
      </trkpt>
      <trkpt lat="44.36299" lon="4.90024">
        <ele>146.7</ele>
        <time>2021-02-24T13:59:13Z</time>
      </trkpt>
      <trkpt lat="44.36299" lon="4.90035">
        <ele>147</ele>
        <time>2021-02-24T13:59:14Z</time>
      </trkpt>
      <trkpt lat="44.36299" lon="4.90035">
        <ele>147</ele>
        <time>2021-02-24T13:59:15Z</time>
      </trkpt>
      <trkpt lat="44.36298" lon="4.90041">
        <ele>147.2</ele>
        <time>2021-02-24T13:59:16Z</time>
      </trkpt>
      <trkpt lat="44.36298" lon="4.90047">
        <ele>147.4</ele>
        <time>2021-02-24T13:59:17Z</time>
      </trkpt>
      <trkpt lat="44.36298" lon="4.90052">
        <ele>147.6</ele>
        <time>2021-02-24T13:59:18Z</time>
      </trkpt>
      <trkpt lat="44.36297" lon="4.90058">
        <ele>147.7</ele>
        <time>2021-02-24T13:59:19Z</time>
      </trkpt>
      <trkpt lat="44.36297" lon="4.90064">
        <ele>147.9</ele>
        <time>2021-02-24T13:59:20Z</time>
      </trkpt>
      <trkpt lat="44.36297" lon="4.9007">
        <ele>148.1</ele>
        <time>2021-02-24T13:59:21Z</time>
      </trkpt>
      <trkpt lat="44.36296" lon="4.90076">
        <ele>148.2</ele>
        <time>2021-02-24T13:59:22Z</time>
      </trkpt>
      <trkpt lat="44.36294" lon="4.90085">
        <ele>148.5</ele>
        <time>2021-02-24T13:59:23Z</time>
      </trkpt>
      <trkpt lat="44.36294" lon="4.90088">
        <ele>148.6</ele>
        <time>2021-02-24T13:59:24Z</time>
      </trkpt>
      <trkpt lat="44.36293" lon="4.90094">
        <ele>148.7</ele>
        <time>2021-02-24T13:59:25Z</time>
      </trkpt>
      <trkpt lat="44.36292" lon="4.90099">
        <ele>148.9</ele>
        <time>2021-02-24T13:59:26Z</time>
      </trkpt>
      <trkpt lat="44.36291" lon="4.90105">
        <ele>149.1</ele>
        <time>2021-02-24T13:59:27Z</time>
      </trkpt>
      <trkpt lat="44.3629" lon="4.90111">
        <ele>149.2</ele>
        <time>2021-02-24T13:59:28Z</time>
      </trkpt>
      <trkpt lat="44.36288" lon="4.90117">
        <ele>149.4</ele>
        <time>2021-02-24T13:59:29Z</time>
      </trkpt>
      <trkpt lat="44.36287" lon="4.90122">
        <ele>149.6</ele>
        <time>2021-02-24T13:59:30Z</time>
      </trkpt>
      <trkpt lat="44.36286" lon="4.90129">
        <ele>149.7</ele>
        <time>2021-02-24T13:59:31Z</time>
      </trkpt>
      <trkpt lat="44.36285" lon="4.90135">
        <ele>149.9</ele>
        <time>2021-02-24T13:59:32Z</time>
      </trkpt>
      <trkpt lat="44.36283" lon="4.90141">
        <ele>150.1</ele>
        <time>2021-02-24T13:59:33Z</time>
      </trkpt>
      <trkpt lat="44.36282" lon="4.90148">
        <ele>150.2</ele>
        <time>2021-02-24T13:59:34Z</time>
      </trkpt>
      <trkpt lat="44.36281" lon="4.90154">
        <ele>150.4</ele>
        <time>2021-02-24T13:59:35Z</time>
      </trkpt>
      <trkpt lat="44.36279" lon="4.9016">
        <ele>150.5</ele>
        <time>2021-02-24T13:59:36Z</time>
      </trkpt>
      <trkpt lat="44.36278" lon="4.90166">
        <ele>150.6</ele>
        <time>2021-02-24T13:59:37Z</time>
      </trkpt>
      <trkpt lat="44.36277" lon="4.90172">
        <ele>150.8</ele>
        <time>2021-02-24T13:59:38Z</time>
      </trkpt>
      <trkpt lat="44.36276" lon="4.90179">
        <ele>150.9</ele>
        <time>2021-02-24T13:59:39Z</time>
      </trkpt>
      <trkpt lat="44.36274" lon="4.90185">
        <ele>151.1</ele>
        <time>2021-02-24T13:59:40Z</time>
      </trkpt>
      <trkpt lat="44.36272" lon="4.90195">
        <ele>151.3</ele>
        <time>2021-02-24T13:59:41Z</time>
      </trkpt>
      <trkpt lat="44.36272" lon="4.90198">
        <ele>151.4</ele>
        <time>2021-02-24T13:59:42Z</time>
      </trkpt>
      <trkpt lat="44.3627" lon="4.90204">
        <ele>151.6</ele>
        <time>2021-02-24T13:59:43Z</time>
      </trkpt>
      <trkpt lat="44.36269" lon="4.9021">
        <ele>151.7</ele>
        <time>2021-02-24T13:59:44Z</time>
      </trkpt>
      <trkpt lat="44.36267" lon="4.90217">
        <ele>151.9</ele>
        <time>2021-02-24T13:59:45Z</time>
      </trkpt>
      <trkpt lat="44.36266" lon="4.90223">
        <ele>152</ele>
        <time>2021-02-24T13:59:46Z</time>
      </trkpt>
      <trkpt lat="44.36264" lon="4.90229">
        <ele>152.1</ele>
        <time>2021-02-24T13:59:47Z</time>
      </trkpt>
      <trkpt lat="44.36263" lon="4.90235">
        <ele>152.2</ele>
        <time>2021-02-24T13:59:48Z</time>
      </trkpt>
      <trkpt lat="44.36262" lon="4.90241">
        <ele>152.3</ele>
        <time>2021-02-24T13:59:49Z</time>
      </trkpt>
      <trkpt lat="44.3626" lon="4.90247">
        <ele>152.3</ele>
        <time>2021-02-24T13:59:50Z</time>
      </trkpt>
      <trkpt lat="44.36258" lon="4.90253">
        <ele>152.3</ele>
        <time>2021-02-24T13:59:51Z</time>
      </trkpt>
      <trkpt lat="44.36252" lon="4.90264">
        <ele>152.3</ele>
        <time>2021-02-24T13:59:52Z</time>
      </trkpt>
      <trkpt lat="44.36252" lon="4.90264">
        <ele>152.3</ele>
        <time>2021-02-24T13:59:53Z</time>
      </trkpt>
      <trkpt lat="44.36248" lon="4.90269">
        <ele>152.2</ele>
        <time>2021-02-24T13:59:54Z</time>
      </trkpt>
      <trkpt lat="44.36243" lon="4.90272">
        <ele>152.2</ele>
        <time>2021-02-24T13:59:55Z</time>
      </trkpt>
      <trkpt lat="44.36238" lon="4.90274">
        <ele>152.2</ele>
        <time>2021-02-24T13:59:56Z</time>
      </trkpt>
      <trkpt lat="44.3623" lon="4.90276">
        <ele>152.1</ele>
        <time>2021-02-24T13:59:57Z</time>
      </trkpt>
      <trkpt lat="44.36228" lon="4.90276">
        <ele>152.1</ele>
        <time>2021-02-24T13:59:58Z</time>
      </trkpt>
      <trkpt lat="44.36222" lon="4.90276">
        <ele>152.1</ele>
        <time>2021-02-24T13:59:59Z</time>
      </trkpt>
      <trkpt lat="44.36217" lon="4.90277">
        <ele>152</ele>
        <time>2021-02-24T14:00:00Z</time>
      </trkpt>
      <trkpt lat="44.36211" lon="4.90277">
        <ele>151.9</ele>
        <time>2021-02-24T14:00:01Z</time>
      </trkpt>
      <trkpt lat="44.36206" lon="4.90278">
        <ele>151.9</ele>
        <time>2021-02-24T14:00:02Z</time>
      </trkpt>
      <trkpt lat="44.36197" lon="4.90279">
        <ele>151.7</ele>
        <time>2021-02-24T14:00:03Z</time>
      </trkpt>
      <trkpt lat="44.36195" lon="4.9028">
        <ele>151.7</ele>
        <time>2021-02-24T14:00:04Z</time>
      </trkpt>
      <trkpt lat="44.36186" lon="4.90281">
        <ele>151.6</ele>
        <time>2021-02-24T14:00:05Z</time>
      </trkpt>
      <trkpt lat="44.36183" lon="4.90281">
        <ele>151.6</ele>
        <time>2021-02-24T14:00:06Z</time>
      </trkpt>
      <trkpt lat="44.36175" lon="4.90282">
        <ele>151.4</ele>
        <time>2021-02-24T14:00:07Z</time>
      </trkpt>
      <trkpt lat="44.36172" lon="4.90282">
        <ele>151.4</ele>
        <time>2021-02-24T14:00:08Z</time>
      </trkpt>
      <trkpt lat="44.36164" lon="4.90283">
        <ele>151.3</ele>
        <time>2021-02-24T14:00:09Z</time>
      </trkpt>
      <trkpt lat="44.36161" lon="4.90284">
        <ele>151.3</ele>
        <time>2021-02-24T14:00:10Z</time>
      </trkpt>
      <trkpt lat="44.36156" lon="4.90285">
        <ele>151.2</ele>
        <time>2021-02-24T14:00:11Z</time>
      </trkpt>
      <trkpt lat="44.3615" lon="4.90285">
        <ele>151.1</ele>
        <time>2021-02-24T14:00:12Z</time>
      </trkpt>
      <trkpt lat="44.36145" lon="4.90286">
        <ele>151.1</ele>
        <time>2021-02-24T14:00:13Z</time>
      </trkpt>
      <trkpt lat="44.36139" lon="4.90287">
        <ele>151</ele>
        <time>2021-02-24T14:00:14Z</time>
      </trkpt>
      <trkpt lat="44.36134" lon="4.90288">
        <ele>150.9</ele>
        <time>2021-02-24T14:00:15Z</time>
      </trkpt>
      <trkpt lat="44.36128" lon="4.90288">
        <ele>150.9</ele>
        <time>2021-02-24T14:00:16Z</time>
      </trkpt>
      <trkpt lat="44.36123" lon="4.90289">
        <ele>150.8</ele>
        <time>2021-02-24T14:00:17Z</time>
      </trkpt>
      <trkpt lat="44.36117" lon="4.9029">
        <ele>150.7</ele>
        <time>2021-02-24T14:00:18Z</time>
      </trkpt>
      <trkpt lat="44.36111" lon="4.90291">
        <ele>150.5</ele>
        <time>2021-02-24T14:00:19Z</time>
      </trkpt>
      <trkpt lat="44.36105" lon="4.90292">
        <ele>150.4</ele>
        <time>2021-02-24T14:00:20Z</time>
      </trkpt>
      <trkpt lat="44.36099" lon="4.90293">
        <ele>150.2</ele>
        <time>2021-02-24T14:00:21Z</time>
      </trkpt>
      <trkpt lat="44.36093" lon="4.90295">
        <ele>150.1</ele>
        <time>2021-02-24T14:00:22Z</time>
      </trkpt>
      <trkpt lat="44.36087" lon="4.90297">
        <ele>149.9</ele>
        <time>2021-02-24T14:00:23Z</time>
      </trkpt>
      <trkpt lat="44.36081" lon="4.903">
        <ele>149.7</ele>
        <time>2021-02-24T14:00:24Z</time>
      </trkpt>
      <trkpt lat="44.36075" lon="4.90303">
        <ele>149.5</ele>
        <time>2021-02-24T14:00:25Z</time>
      </trkpt>
      <trkpt lat="44.36069" lon="4.90306">
        <ele>149.2</ele>
        <time>2021-02-24T14:00:26Z</time>
      </trkpt>
      <trkpt lat="44.36063" lon="4.90309">
        <ele>149</ele>
        <time>2021-02-24T14:00:27Z</time>
      </trkpt>
      <trkpt lat="44.36056" lon="4.90312">
        <ele>148.8</ele>
        <time>2021-02-24T14:00:28Z</time>
      </trkpt>
      <trkpt lat="44.3605" lon="4.90315">
        <ele>148.6</ele>
        <time>2021-02-24T14:00:29Z</time>
      </trkpt>
      <trkpt lat="44.36044" lon="4.90319">
        <ele>148.4</ele>
        <time>2021-02-24T14:00:30Z</time>
      </trkpt>
      <trkpt lat="44.36038" lon="4.90322">
        <ele>148.3</ele>
        <time>2021-02-24T14:00:31Z</time>
      </trkpt>
      <trkpt lat="44.36032" lon="4.90325">
        <ele>148.2</ele>
        <time>2021-02-24T14:00:32Z</time>
      </trkpt>
      <trkpt lat="44.36026" lon="4.90329">
        <ele>148.2</ele>
        <time>2021-02-24T14:00:33Z</time>
      </trkpt>
      <trkpt lat="44.3602" lon="4.90333">
        <ele>148.1</ele>
        <time>2021-02-24T14:00:34Z</time>
      </trkpt>
      <trkpt lat="44.36014" lon="4.90337">
        <ele>148.1</ele>
        <time>2021-02-24T14:00:35Z</time>
      </trkpt>
      <trkpt lat="44.3601" lon="4.90344">
        <ele>148.1</ele>
        <time>2021-02-24T14:00:36Z</time>
      </trkpt>
      <trkpt lat="44.36009" lon="4.90353">
        <ele>148.1</ele>
        <time>2021-02-24T14:00:37Z</time>
      </trkpt>
      <trkpt lat="44.36009" lon="4.90361">
        <ele>148</ele>
        <time>2021-02-24T14:00:38Z</time>
      </trkpt>
      <trkpt lat="44.3601" lon="4.9037">
        <ele>148</ele>
        <time>2021-02-24T14:00:39Z</time>
      </trkpt>
      <trkpt lat="44.36012" lon="4.90378">
        <ele>148</ele>
        <time>2021-02-24T14:00:40Z</time>
      </trkpt>
      <trkpt lat="44.36014" lon="4.90387">
        <ele>147.9</ele>
        <time>2021-02-24T14:00:41Z</time>
      </trkpt>
      <trkpt lat="44.36017" lon="4.90395">
        <ele>147.9</ele>
        <time>2021-02-24T14:00:42Z</time>
      </trkpt>
      <trkpt lat="44.36019" lon="4.90403">
        <ele>147.9</ele>
        <time>2021-02-24T14:00:43Z</time>
      </trkpt>
      <trkpt lat="44.36021" lon="4.9041">
        <ele>147.9</ele>
        <time>2021-02-24T14:00:44Z</time>
      </trkpt>
      <trkpt lat="44.36023" lon="4.90418">
        <ele>148</ele>
        <time>2021-02-24T14:00:45Z</time>
      </trkpt>
      <trkpt lat="44.36025" lon="4.90426">
        <ele>148</ele>
        <time>2021-02-24T14:00:46Z</time>
      </trkpt>
      <trkpt lat="44.36027" lon="4.90433">
        <ele>148</ele>
        <time>2021-02-24T14:00:47Z</time>
      </trkpt>
      <trkpt lat="44.3603" lon="4.90441">
        <ele>148.1</ele>
        <time>2021-02-24T14:00:48Z</time>
      </trkpt>
      <trkpt lat="44.36032" lon="4.90448">
        <ele>148.1</ele>
        <time>2021-02-24T14:00:49Z</time>
      </trkpt>
      <trkpt lat="44.36035" lon="4.9046">
        <ele>148.2</ele>
        <time>2021-02-24T14:00:50Z</time>
      </trkpt>
      <trkpt lat="44.36036" lon="4.90464">
        <ele>148.2</ele>
        <time>2021-02-24T14:00:51Z</time>
      </trkpt>
      <trkpt lat="44.36037" lon="4.90471">
        <ele>148.2</ele>
        <time>2021-02-24T14:00:52Z</time>
      </trkpt>
      <trkpt lat="44.3604" lon="4.90483">
        <ele>148.3</ele>
        <time>2021-02-24T14:00:53Z</time>
      </trkpt>
      <trkpt lat="44.36041" lon="4.90487">
        <ele>148.3</ele>
        <time>2021-02-24T14:00:54Z</time>
      </trkpt>
      <trkpt lat="44.36043" lon="4.90494">
        <ele>148.4</ele>
        <time>2021-02-24T14:00:55Z</time>
      </trkpt>
      <trkpt lat="44.36045" lon="4.90506">
        <ele>148.4</ele>
        <time>2021-02-24T14:00:56Z</time>
      </trkpt>
      <trkpt lat="44.36046" lon="4.9051">
        <ele>148.4</ele>
        <time>2021-02-24T14:00:57Z</time>
      </trkpt>
      <trkpt lat="44.36048" lon="4.90518">
        <ele>148.4</ele>
        <time>2021-02-24T14:00:58Z</time>
      </trkpt>
      <trkpt lat="44.3605" lon="4.90529">
        <ele>148.5</ele>
        <time>2021-02-24T14:00:59Z</time>
      </trkpt>
      <trkpt lat="44.36051" lon="4.90533">
        <ele>148.5</ele>
        <time>2021-02-24T14:01:00Z</time>
      </trkpt>
      <trkpt lat="44.36052" lon="4.90541">
        <ele>148.5</ele>
        <time>2021-02-24T14:01:01Z</time>
      </trkpt>
      <trkpt lat="44.36054" lon="4.90549">
        <ele>148.5</ele>
        <time>2021-02-24T14:01:02Z</time>
      </trkpt>
      <trkpt lat="44.36056" lon="4.90557">
        <ele>148.5</ele>
        <time>2021-02-24T14:01:03Z</time>
      </trkpt>
      <trkpt lat="44.36058" lon="4.90568">
        <ele>148.5</ele>
        <time>2021-02-24T14:01:04Z</time>
      </trkpt>
      <trkpt lat="44.36059" lon="4.90572">
        <ele>148.5</ele>
        <time>2021-02-24T14:01:05Z</time>
      </trkpt>
      <trkpt lat="44.3606" lon="4.9058">
        <ele>148.6</ele>
        <time>2021-02-24T14:01:06Z</time>
      </trkpt>
      <trkpt lat="44.36062" lon="4.90588">
        <ele>148.6</ele>
        <time>2021-02-24T14:01:07Z</time>
      </trkpt>
      <trkpt lat="44.36064" lon="4.90605">
        <ele>148.8</ele>
        <time>2021-02-24T14:01:08Z</time>
      </trkpt>
      <trkpt lat="44.36065" lon="4.90607">
        <ele>148.8</ele>
        <time>2021-02-24T14:01:09Z</time>
      </trkpt>
      <trkpt lat="44.36065" lon="4.90611">
        <ele>148.8</ele>
        <time>2021-02-24T14:01:10Z</time>
      </trkpt>
      <trkpt lat="44.36067" lon="4.90623">
        <ele>148.9</ele>
        <time>2021-02-24T14:01:11Z</time>
      </trkpt>
      <trkpt lat="44.36067" lon="4.90627">
        <ele>149</ele>
        <time>2021-02-24T14:01:12Z</time>
      </trkpt>
      <trkpt lat="44.36069" lon="4.90639">
        <ele>149</ele>
        <time>2021-02-24T14:01:13Z</time>
      </trkpt>
      <trkpt lat="44.3607" lon="4.90643">
        <ele>149</ele>
        <time>2021-02-24T14:01:14Z</time>
      </trkpt>
      <trkpt lat="44.36071" lon="4.90651">
        <ele>149</ele>
        <time>2021-02-24T14:01:15Z</time>
      </trkpt>
      <trkpt lat="44.36072" lon="4.90659">
        <ele>149</ele>
        <time>2021-02-24T14:01:16Z</time>
      </trkpt>
      <trkpt lat="44.36073" lon="4.90667">
        <ele>149</ele>
        <time>2021-02-24T14:01:17Z</time>
      </trkpt>
      <trkpt lat="44.36074" lon="4.90675">
        <ele>149.1</ele>
        <time>2021-02-24T14:01:18Z</time>
      </trkpt>
      <trkpt lat="44.36075" lon="4.90683">
        <ele>149.1</ele>
        <time>2021-02-24T14:01:19Z</time>
      </trkpt>
      <trkpt lat="44.36076" lon="4.90691">
        <ele>149.1</ele>
        <time>2021-02-24T14:01:20Z</time>
      </trkpt>
      <trkpt lat="44.36077" lon="4.90699">
        <ele>149.2</ele>
        <time>2021-02-24T14:01:21Z</time>
      </trkpt>
      <trkpt lat="44.36078" lon="4.90707">
        <ele>149.2</ele>
        <time>2021-02-24T14:01:22Z</time>
      </trkpt>
      <trkpt lat="44.3608" lon="4.90719">
        <ele>149.3</ele>
        <time>2021-02-24T14:01:23Z</time>
      </trkpt>
      <trkpt lat="44.36081" lon="4.90723">
        <ele>149.3</ele>
        <time>2021-02-24T14:01:24Z</time>
      </trkpt>
      <trkpt lat="44.36082" lon="4.90731">
        <ele>149.4</ele>
        <time>2021-02-24T14:01:25Z</time>
      </trkpt>
      <trkpt lat="44.36084" lon="4.90738">
        <ele>149.5</ele>
        <time>2021-02-24T14:01:26Z</time>
      </trkpt>
      <trkpt lat="44.36088" lon="4.90755">
        <ele>149.7</ele>
        <time>2021-02-24T14:01:27Z</time>
      </trkpt>
      <trkpt lat="44.36089" lon="4.90757">
        <ele>149.7</ele>
        <time>2021-02-24T14:01:28Z</time>
      </trkpt>
      <trkpt lat="44.3609" lon="4.90761">
        <ele>149.8</ele>
        <time>2021-02-24T14:01:29Z</time>
      </trkpt>
      <trkpt lat="44.36091" lon="4.90768">
        <ele>149.9</ele>
        <time>2021-02-24T14:01:30Z</time>
      </trkpt>
      <trkpt lat="44.36093" lon="4.90776">
        <ele>150</ele>
        <time>2021-02-24T14:01:31Z</time>
      </trkpt>
      <trkpt lat="44.36095" lon="4.90783">
        <ele>150.2</ele>
        <time>2021-02-24T14:01:32Z</time>
      </trkpt>
      <trkpt lat="44.36097" lon="4.9079">
        <ele>150.4</ele>
        <time>2021-02-24T14:01:33Z</time>
      </trkpt>
      <trkpt lat="44.36099" lon="4.90797">
        <ele>150.6</ele>
        <time>2021-02-24T14:01:34Z</time>
      </trkpt>
      <trkpt lat="44.36102" lon="4.90807">
        <ele>150.9</ele>
        <time>2021-02-24T14:01:35Z</time>
      </trkpt>
      <trkpt lat="44.36103" lon="4.9081">
        <ele>151</ele>
        <time>2021-02-24T14:01:36Z</time>
      </trkpt>
      <trkpt lat="44.36106" lon="4.90817">
        <ele>151.2</ele>
        <time>2021-02-24T14:01:37Z</time>
      </trkpt>
      <trkpt lat="44.3611" lon="4.90827">
        <ele>151.6</ele>
        <time>2021-02-24T14:01:38Z</time>
      </trkpt>
      <trkpt lat="44.36111" lon="4.9083">
        <ele>151.7</ele>
        <time>2021-02-24T14:01:39Z</time>
      </trkpt>
      <trkpt lat="44.36114" lon="4.90836">
        <ele>152</ele>
        <time>2021-02-24T14:01:40Z</time>
      </trkpt>
      <trkpt lat="44.36117" lon="4.90841">
        <ele>152.3</ele>
        <time>2021-02-24T14:01:41Z</time>
      </trkpt>
      <trkpt lat="44.3612" lon="4.90847">
        <ele>152.6</ele>
        <time>2021-02-24T14:01:42Z</time>
      </trkpt>
      <trkpt lat="44.36125" lon="4.90854">
        <ele>153.1</ele>
        <time>2021-02-24T14:01:43Z</time>
      </trkpt>
      <trkpt lat="44.36127" lon="4.90857">
        <ele>153.2</ele>
        <time>2021-02-24T14:01:44Z</time>
      </trkpt>
      <trkpt lat="44.3613" lon="4.90862">
        <ele>153.5</ele>
        <time>2021-02-24T14:01:45Z</time>
      </trkpt>
      <trkpt lat="44.36134" lon="4.90867">
        <ele>153.8</ele>
        <time>2021-02-24T14:01:46Z</time>
      </trkpt>
      <trkpt lat="44.36137" lon="4.90872">
        <ele>154.1</ele>
        <time>2021-02-24T14:01:47Z</time>
      </trkpt>
      <trkpt lat="44.3614" lon="4.90877">
        <ele>154.4</ele>
        <time>2021-02-24T14:01:48Z</time>
      </trkpt>
      <trkpt lat="44.36143" lon="4.90882">
        <ele>154.7</ele>
        <time>2021-02-24T14:01:49Z</time>
      </trkpt>
      <trkpt lat="44.36147" lon="4.90887">
        <ele>155</ele>
        <time>2021-02-24T14:01:50Z</time>
      </trkpt>
      <trkpt lat="44.3615" lon="4.90892">
        <ele>155.2</ele>
        <time>2021-02-24T14:01:51Z</time>
      </trkpt>
      <trkpt lat="44.36153" lon="4.90898">
        <ele>155.5</ele>
        <time>2021-02-24T14:01:52Z</time>
      </trkpt>
      <trkpt lat="44.36156" lon="4.90904">
        <ele>155.7</ele>
        <time>2021-02-24T14:01:53Z</time>
      </trkpt>
      <trkpt lat="44.36159" lon="4.9091">
        <ele>155.9</ele>
        <time>2021-02-24T14:01:54Z</time>
      </trkpt>
      <trkpt lat="44.36162" lon="4.90919">
        <ele>156.2</ele>
        <time>2021-02-24T14:01:55Z</time>
      </trkpt>
      <trkpt lat="44.36163" lon="4.90922">
        <ele>156.3</ele>
        <time>2021-02-24T14:01:56Z</time>
      </trkpt>
      <trkpt lat="44.36165" lon="4.90928">
        <ele>156.4</ele>
        <time>2021-02-24T14:01:57Z</time>
      </trkpt>
      <trkpt lat="44.36167" lon="4.90934">
        <ele>156.6</ele>
        <time>2021-02-24T14:01:58Z</time>
      </trkpt>
      <trkpt lat="44.36169" lon="4.90941">
        <ele>156.7</ele>
        <time>2021-02-24T14:01:59Z</time>
      </trkpt>
      <trkpt lat="44.36171" lon="4.90947">
        <ele>156.8</ele>
        <time>2021-02-24T14:02:00Z</time>
      </trkpt>
      <trkpt lat="44.36173" lon="4.90954">
        <ele>156.8</ele>
        <time>2021-02-24T14:02:01Z</time>
      </trkpt>
      <trkpt lat="44.36175" lon="4.9096">
        <ele>156.9</ele>
        <time>2021-02-24T14:02:02Z</time>
      </trkpt>
      <trkpt lat="44.36177" lon="4.90967">
        <ele>156.9</ele>
        <time>2021-02-24T14:02:03Z</time>
      </trkpt>
      <trkpt lat="44.36179" lon="4.90974">
        <ele>156.9</ele>
        <time>2021-02-24T14:02:04Z</time>
      </trkpt>
      <trkpt lat="44.36181" lon="4.9098">
        <ele>156.9</ele>
        <time>2021-02-24T14:02:05Z</time>
      </trkpt>
      <trkpt lat="44.36182" lon="4.90987">
        <ele>156.9</ele>
        <time>2021-02-24T14:02:06Z</time>
      </trkpt>
      <trkpt lat="44.36184" lon="4.90994">
        <ele>156.9</ele>
        <time>2021-02-24T14:02:07Z</time>
      </trkpt>
      <trkpt lat="44.36185" lon="4.91">
        <ele>156.9</ele>
        <time>2021-02-24T14:02:08Z</time>
      </trkpt>
      <trkpt lat="44.36187" lon="4.91006">
        <ele>157</ele>
        <time>2021-02-24T14:02:09Z</time>
      </trkpt>
      <trkpt lat="44.36188" lon="4.91012">
        <ele>157</ele>
        <time>2021-02-24T14:02:10Z</time>
      </trkpt>
      <trkpt lat="44.3619" lon="4.91018">
        <ele>157</ele>
        <time>2021-02-24T14:02:11Z</time>
      </trkpt>
      <trkpt lat="44.36191" lon="4.91024">
        <ele>157</ele>
        <time>2021-02-24T14:02:12Z</time>
      </trkpt>
      <trkpt lat="44.36193" lon="4.9103">
        <ele>157</ele>
        <time>2021-02-24T14:02:13Z</time>
      </trkpt>
      <trkpt lat="44.36194" lon="4.91035">
        <ele>157</ele>
        <time>2021-02-24T14:02:14Z</time>
      </trkpt>
      <trkpt lat="44.36195" lon="4.91041">
        <ele>157.1</ele>
        <time>2021-02-24T14:02:15Z</time>
      </trkpt>
      <trkpt lat="44.36197" lon="4.91046">
        <ele>157.1</ele>
        <time>2021-02-24T14:02:16Z</time>
      </trkpt>
      <trkpt lat="44.36198" lon="4.91051">
        <ele>157.2</ele>
        <time>2021-02-24T14:02:17Z</time>
      </trkpt>
      <trkpt lat="44.36199" lon="4.91056">
        <ele>157.2</ele>
        <time>2021-02-24T14:02:18Z</time>
      </trkpt>
      <trkpt lat="44.362" lon="4.91061">
        <ele>157.3</ele>
        <time>2021-02-24T14:02:19Z</time>
      </trkpt>
      <trkpt lat="44.36201" lon="4.91066">
        <ele>157.3</ele>
        <time>2021-02-24T14:02:20Z</time>
      </trkpt>
      <trkpt lat="44.36203" lon="4.9107">
        <ele>157.3</ele>
        <time>2021-02-24T14:02:21Z</time>
      </trkpt>
      <trkpt lat="44.36204" lon="4.91074">
        <ele>157.4</ele>
        <time>2021-02-24T14:02:22Z</time>
      </trkpt>
      <trkpt lat="44.36205" lon="4.91078">
        <ele>157.4</ele>
        <time>2021-02-24T14:02:23Z</time>
      </trkpt>
      <trkpt lat="44.36206" lon="4.91083">
        <ele>157.5</ele>
        <time>2021-02-24T14:02:24Z</time>
      </trkpt>
      <trkpt lat="44.36206" lon="4.91087">
        <ele>157.5</ele>
        <time>2021-02-24T14:02:25Z</time>
      </trkpt>
      <trkpt lat="44.36206" lon="4.9109">
        <ele>157.5</ele>
        <time>2021-02-24T14:02:26Z</time>
      </trkpt>
      <trkpt lat="44.36206" lon="4.91093">
        <ele>157.6</ele>
        <time>2021-02-24T14:02:27Z</time>
      </trkpt>
      <trkpt lat="44.36206" lon="4.91096">
        <ele>157.6</ele>
        <time>2021-02-24T14:02:28Z</time>
      </trkpt>
      <trkpt lat="44.36206" lon="4.91096">
        <ele>157.6</ele>
        <time>2021-02-24T14:02:29Z</time>
      </trkpt>
      <trkpt lat="44.36206" lon="4.91099">
        <ele>157.3</ele>
        <time>2021-02-24T14:02:30Z</time>
      </trkpt>
      <trkpt lat="44.36206" lon="4.91099">
        <ele>157.3</ele>
        <time>2021-02-24T14:02:31Z</time>
      </trkpt>
      <trkpt lat="44.36206" lon="4.91099">
        <ele>157.3</ele>
        <time>2021-02-24T14:02:32Z</time>
      </trkpt>
      <trkpt lat="44.36206" lon="4.91099">
        <ele>157.3</ele>
        <time>2021-02-24T14:02:33Z</time>
      </trkpt>
      <trkpt lat="44.36206" lon="4.91099">
        <ele>157.3</ele>
        <time>2021-02-24T14:02:34Z</time>
      </trkpt>
      <trkpt lat="44.36207" lon="4.911">
        <ele>157.3</ele>
        <time>2021-02-24T14:02:35Z</time>
      </trkpt>
      <trkpt lat="44.36199" lon="4.91108">
        <ele>156.9</ele>
        <time>2021-02-24T14:03:14Z</time>
      </trkpt>
      <trkpt lat="44.36196" lon="4.91109">
        <ele>156.8</ele>
        <time>2021-02-24T14:03:15Z</time>
      </trkpt>
      <trkpt lat="44.36192" lon="4.9111">
        <ele>156.6</ele>
        <time>2021-02-24T14:03:16Z</time>
      </trkpt>
      <trkpt lat="44.36189" lon="4.91111">
        <ele>156.5</ele>
        <time>2021-02-24T14:03:17Z</time>
      </trkpt>
      <trkpt lat="44.36186" lon="4.91112">
        <ele>156.4</ele>
        <time>2021-02-24T14:03:18Z</time>
      </trkpt>
      <trkpt lat="44.36183" lon="4.91113">
        <ele>156.3</ele>
        <time>2021-02-24T14:03:19Z</time>
      </trkpt>
      <trkpt lat="44.36181" lon="4.91113">
        <ele>156.2</ele>
        <time>2021-02-24T14:03:20Z</time>
      </trkpt>
      <trkpt lat="44.36181" lon="4.91113">
        <ele>156.2</ele>
        <time>2021-02-24T14:03:21Z</time>
      </trkpt>
      <trkpt lat="44.36181" lon="4.91113">
        <ele>156.2</ele>
        <time>2021-02-24T14:03:22Z</time>
      </trkpt>
      <trkpt lat="44.36181" lon="4.91113">
        <ele>156.2</ele>
        <time>2021-02-24T14:03:23Z</time>
      </trkpt>
      <trkpt lat="44.36181" lon="4.91113">
        <ele>156.2</ele>
        <time>2021-02-24T14:03:24Z</time>
      </trkpt>
      <trkpt lat="44.36181" lon="4.91113">
        <ele>156.2</ele>
        <time>2021-02-24T14:03:25Z</time>
      </trkpt>
      <trkpt lat="44.36181" lon="4.91113">
        <ele>156.2</ele>
        <time>2021-02-24T14:03:26Z</time>
      </trkpt>
      <trkpt lat="44.36181" lon="4.91113">
        <ele>156.2</ele>
        <time>2021-02-24T14:03:27Z</time>
      </trkpt>
      <trkpt lat="44.36174" lon="4.91112">
        <ele>156</ele>
        <time>2021-02-24T14:05:08Z</time>
      </trkpt>
      <trkpt lat="44.36172" lon="4.91112">
        <ele>155.9</ele>
        <time>2021-02-24T14:05:09Z</time>
      </trkpt>
      <trkpt lat="44.36172" lon="4.91112">
        <ele>155.9</ele>
        <time>2021-02-24T14:05:10Z</time>
      </trkpt>
      <trkpt lat="44.36168" lon="4.91113">
        <ele>155.8</ele>
        <time>2021-02-24T14:05:11Z</time>
      </trkpt>
      <trkpt lat="44.36167" lon="4.91114">
        <ele>155.8</ele>
        <time>2021-02-24T14:05:12Z</time>
      </trkpt>
      <trkpt lat="44.36167" lon="4.91114">
        <ele>155.8</ele>
        <time>2021-02-24T14:05:13Z</time>
      </trkpt>
      <trkpt lat="44.36164" lon="4.91115">
        <ele>155.7</ele>
        <time>2021-02-24T14:05:14Z</time>
      </trkpt>
      <trkpt lat="44.36164" lon="4.91115">
        <ele>155.7</ele>
        <time>2021-02-24T14:05:15Z</time>
      </trkpt>
      <trkpt lat="44.36159" lon="4.91117">
        <ele>155.5</ele>
        <time>2021-02-24T14:05:16Z</time>
      </trkpt>
      <trkpt lat="44.36158" lon="4.91118">
        <ele>155.5</ele>
        <time>2021-02-24T14:05:17Z</time>
      </trkpt>
      <trkpt lat="44.36155" lon="4.91119">
        <ele>155.4</ele>
        <time>2021-02-24T14:05:18Z</time>
      </trkpt>
      <trkpt lat="44.36152" lon="4.9112">
        <ele>155.4</ele>
        <time>2021-02-24T14:05:19Z</time>
      </trkpt>
      <trkpt lat="44.36149" lon="4.91122">
        <ele>155.3</ele>
        <time>2021-02-24T14:05:20Z</time>
      </trkpt>
      <trkpt lat="44.36145" lon="4.91123">
        <ele>155.2</ele>
        <time>2021-02-24T14:05:21Z</time>
      </trkpt>
      <trkpt lat="44.36142" lon="4.91124">
        <ele>155.1</ele>
        <time>2021-02-24T14:05:22Z</time>
      </trkpt>
      <trkpt lat="44.36139" lon="4.91126">
        <ele>155.1</ele>
        <time>2021-02-24T14:05:23Z</time>
      </trkpt>
      <trkpt lat="44.36135" lon="4.91127">
        <ele>155</ele>
        <time>2021-02-24T14:05:24Z</time>
      </trkpt>
      <trkpt lat="44.36131" lon="4.91128">
        <ele>154.9</ele>
        <time>2021-02-24T14:05:25Z</time>
      </trkpt>
      <trkpt lat="44.36127" lon="4.91129">
        <ele>154.9</ele>
        <time>2021-02-24T14:05:26Z</time>
      </trkpt>
      <trkpt lat="44.36124" lon="4.91131">
        <ele>154.8</ele>
        <time>2021-02-24T14:05:27Z</time>
      </trkpt>
      <trkpt lat="44.3612" lon="4.91132">
        <ele>154.7</ele>
        <time>2021-02-24T14:05:28Z</time>
      </trkpt>
      <trkpt lat="44.36114" lon="4.91134">
        <ele>154.6</ele>
        <time>2021-02-24T14:05:29Z</time>
      </trkpt>
      <trkpt lat="44.36112" lon="4.91134">
        <ele>154.6</ele>
        <time>2021-02-24T14:05:30Z</time>
      </trkpt>
      <trkpt lat="44.36108" lon="4.91136">
        <ele>154.5</ele>
        <time>2021-02-24T14:05:31Z</time>
      </trkpt>
      <trkpt lat="44.36105" lon="4.91138">
        <ele>154.4</ele>
        <time>2021-02-24T14:05:32Z</time>
      </trkpt>
      <trkpt lat="44.36101" lon="4.91139">
        <ele>154.3</ele>
        <time>2021-02-24T14:05:33Z</time>
      </trkpt>
      <trkpt lat="44.36097" lon="4.9114">
        <ele>154.2</ele>
        <time>2021-02-24T14:05:34Z</time>
      </trkpt>
      <trkpt lat="44.36093" lon="4.91142">
        <ele>154.1</ele>
        <time>2021-02-24T14:05:35Z</time>
      </trkpt>
      <trkpt lat="44.3609" lon="4.91143">
        <ele>154</ele>
        <time>2021-02-24T14:05:36Z</time>
      </trkpt>
      <trkpt lat="44.36086" lon="4.91145">
        <ele>153.9</ele>
        <time>2021-02-24T14:05:37Z</time>
      </trkpt>
      <trkpt lat="44.36082" lon="4.91146">
        <ele>153.8</ele>
        <time>2021-02-24T14:05:38Z</time>
      </trkpt>
      <trkpt lat="44.36077" lon="4.91148">
        <ele>153.7</ele>
        <time>2021-02-24T14:05:39Z</time>
      </trkpt>
      <trkpt lat="44.36073" lon="4.91149">
        <ele>153.7</ele>
        <time>2021-02-24T14:05:40Z</time>
      </trkpt>
      <trkpt lat="44.36069" lon="4.91151">
        <ele>153.6</ele>
        <time>2021-02-24T14:05:41Z</time>
      </trkpt>
      <trkpt lat="44.36065" lon="4.91152">
        <ele>153.5</ele>
        <time>2021-02-24T14:05:42Z</time>
      </trkpt>
      <trkpt lat="44.36061" lon="4.91154">
        <ele>153.5</ele>
        <time>2021-02-24T14:05:43Z</time>
      </trkpt>
      <trkpt lat="44.36056" lon="4.91155">
        <ele>153.4</ele>
        <time>2021-02-24T14:05:44Z</time>
      </trkpt>
      <trkpt lat="44.36052" lon="4.91156">
        <ele>153.3</ele>
        <time>2021-02-24T14:05:45Z</time>
      </trkpt>
      <trkpt lat="44.36048" lon="4.91158">
        <ele>153.3</ele>
        <time>2021-02-24T14:05:46Z</time>
      </trkpt>
      <trkpt lat="44.36044" lon="4.9116">
        <ele>153.2</ele>
        <time>2021-02-24T14:05:47Z</time>
      </trkpt>
      <trkpt lat="44.3604" lon="4.91162">
        <ele>153.2</ele>
        <time>2021-02-24T14:05:48Z</time>
      </trkpt>
      <trkpt lat="44.36036" lon="4.91163">
        <ele>153.1</ele>
        <time>2021-02-24T14:05:49Z</time>
      </trkpt>
      <trkpt lat="44.36032" lon="4.91165">
        <ele>153.1</ele>
        <time>2021-02-24T14:05:50Z</time>
      </trkpt>
      <trkpt lat="44.36028" lon="4.91166">
        <ele>153.1</ele>
        <time>2021-02-24T14:05:51Z</time>
      </trkpt>
      <trkpt lat="44.36024" lon="4.91167">
        <ele>153</ele>
        <time>2021-02-24T14:05:52Z</time>
      </trkpt>
      <trkpt lat="44.3602" lon="4.91169">
        <ele>153</ele>
        <time>2021-02-24T14:05:53Z</time>
      </trkpt>
      <trkpt lat="44.36016" lon="4.9117">
        <ele>153</ele>
        <time>2021-02-24T14:05:54Z</time>
      </trkpt>
      <trkpt lat="44.36012" lon="4.91171">
        <ele>152.9</ele>
        <time>2021-02-24T14:05:55Z</time>
      </trkpt>
      <trkpt lat="44.36008" lon="4.91173">
        <ele>152.9</ele>
        <time>2021-02-24T14:05:56Z</time>
      </trkpt>
      <trkpt lat="44.36005" lon="4.91174">
        <ele>152.9</ele>
        <time>2021-02-24T14:05:57Z</time>
      </trkpt>
      <trkpt lat="44.35998" lon="4.91177">
        <ele>152.9</ele>
        <time>2021-02-24T14:05:58Z</time>
      </trkpt>
      <trkpt lat="44.35996" lon="4.91178">
        <ele>152.9</ele>
        <time>2021-02-24T14:05:59Z</time>
      </trkpt>
      <trkpt lat="44.35993" lon="4.9118">
        <ele>152.9</ele>
        <time>2021-02-24T14:06:00Z</time>
      </trkpt>
      <trkpt lat="44.3599" lon="4.91183">
        <ele>153</ele>
        <time>2021-02-24T14:06:01Z</time>
      </trkpt>
      <trkpt lat="44.35988" lon="4.91185">
        <ele>153</ele>
        <time>2021-02-24T14:06:02Z</time>
      </trkpt>
      <trkpt lat="44.35986" lon="4.91187">
        <ele>153</ele>
        <time>2021-02-24T14:06:03Z</time>
      </trkpt>
      <trkpt lat="44.35986" lon="4.91187">
        <ele>153</ele>
        <time>2021-02-24T14:06:04Z</time>
      </trkpt>
      <trkpt lat="44.35986" lon="4.91187">
        <ele>153</ele>
        <time>2021-02-24T14:06:05Z</time>
      </trkpt>
      <trkpt lat="44.35986" lon="4.91187">
        <ele>153</ele>
        <time>2021-02-24T14:06:06Z</time>
      </trkpt>
      <trkpt lat="44.35986" lon="4.91187">
        <ele>153</ele>
        <time>2021-02-24T14:06:07Z</time>
      </trkpt>
      <trkpt lat="44.35985" lon="4.9119">
        <ele>153</ele>
        <time>2021-02-24T14:06:08Z</time>
      </trkpt>
      <trkpt lat="44.35985" lon="4.9119">
        <ele>153</ele>
        <time>2021-02-24T14:06:09Z</time>
      </trkpt>
      <trkpt lat="44.35985" lon="4.9119">
        <ele>153</ele>
        <time>2021-02-24T14:06:10Z</time>
      </trkpt>
      <trkpt lat="44.35984" lon="4.91193">
        <ele>153</ele>
        <time>2021-02-24T14:06:11Z</time>
      </trkpt>
      <trkpt lat="44.35984" lon="4.91193">
        <ele>153</ele>
        <time>2021-02-24T14:06:12Z</time>
      </trkpt>
      <trkpt lat="44.35983" lon="4.91192">
        <ele>153</ele>
        <time>2021-02-24T14:06:13Z</time>
      </trkpt>
      <trkpt lat="44.35981" lon="4.91191">
        <ele>152.9</ele>
        <time>2021-02-24T14:06:14Z</time>
      </trkpt>
      <trkpt lat="44.3598" lon="4.9119">
        <ele>152.9</ele>
        <time>2021-02-24T14:06:15Z</time>
      </trkpt>
      <trkpt lat="44.35978" lon="4.91189">
        <ele>152.9</ele>
        <time>2021-02-24T14:06:16Z</time>
      </trkpt>
      <trkpt lat="44.35977" lon="4.91188">
        <ele>152.8</ele>
        <time>2021-02-24T14:06:17Z</time>
      </trkpt>
      <trkpt lat="44.35975" lon="4.91187">
        <ele>152.8</ele>
        <time>2021-02-24T14:08:30Z</time>
      </trkpt>
      <trkpt lat="44.35974" lon="4.91186">
        <ele>152.7</ele>
        <time>2021-02-24T14:08:31Z</time>
      </trkpt>
      <trkpt lat="44.35972" lon="4.91185">
        <ele>152.7</ele>
        <time>2021-02-24T14:08:32Z</time>
      </trkpt>
      <trkpt lat="44.35969" lon="4.91185">
        <ele>152.6</ele>
        <time>2021-02-24T14:08:33Z</time>
      </trkpt>
      <trkpt lat="44.35966" lon="4.91185">
        <ele>152.6</ele>
        <time>2021-02-24T14:08:34Z</time>
      </trkpt>
      <trkpt lat="44.35962" lon="4.91185">
        <ele>152.5</ele>
        <time>2021-02-24T14:08:35Z</time>
      </trkpt>
      <trkpt lat="44.35959" lon="4.91185">
        <ele>152.4</ele>
        <time>2021-02-24T14:08:36Z</time>
      </trkpt>
      <trkpt lat="44.35955" lon="4.91185">
        <ele>152.3</ele>
        <time>2021-02-24T14:08:37Z</time>
      </trkpt>
      <trkpt lat="44.3595" lon="4.91187">
        <ele>152.2</ele>
        <time>2021-02-24T14:08:38Z</time>
      </trkpt>
      <trkpt lat="44.35945" lon="4.91188">
        <ele>152.1</ele>
        <time>2021-02-24T14:08:39Z</time>
      </trkpt>
      <trkpt lat="44.3594" lon="4.91188">
        <ele>152</ele>
        <time>2021-02-24T14:08:40Z</time>
      </trkpt>
      <trkpt lat="44.35935" lon="4.91189">
        <ele>151.9</ele>
        <time>2021-02-24T14:08:41Z</time>
      </trkpt>
      <trkpt lat="44.35929" lon="4.9119">
        <ele>151.8</ele>
        <time>2021-02-24T14:08:42Z</time>
      </trkpt>
      <trkpt lat="44.35924" lon="4.91191">
        <ele>151.8</ele>
        <time>2021-02-24T14:08:43Z</time>
      </trkpt>
      <trkpt lat="44.35919" lon="4.91193">
        <ele>151.7</ele>
        <time>2021-02-24T14:08:44Z</time>
      </trkpt>
      <trkpt lat="44.35914" lon="4.91194">
        <ele>151.6</ele>
        <time>2021-02-24T14:08:45Z</time>
      </trkpt>
      <trkpt lat="44.35909" lon="4.91195">
        <ele>151.6</ele>
        <time>2021-02-24T14:08:46Z</time>
      </trkpt>
      <trkpt lat="44.35905" lon="4.91197">
        <ele>151.6</ele>
        <time>2021-02-24T14:08:47Z</time>
      </trkpt>
      <trkpt lat="44.35901" lon="4.91199">
        <ele>151.6</ele>
        <time>2021-02-24T14:08:48Z</time>
      </trkpt>
      <trkpt lat="44.35897" lon="4.91202">
        <ele>151.5</ele>
        <time>2021-02-24T14:08:49Z</time>
      </trkpt>
      <trkpt lat="44.35893" lon="4.91205">
        <ele>151.5</ele>
        <time>2021-02-24T14:08:50Z</time>
      </trkpt>
      <trkpt lat="44.35889" lon="4.91207">
        <ele>151.5</ele>
        <time>2021-02-24T14:08:51Z</time>
      </trkpt>
      <trkpt lat="44.35885" lon="4.91209">
        <ele>151.4</ele>
        <time>2021-02-24T14:08:52Z</time>
      </trkpt>
      <trkpt lat="44.35881" lon="4.91209">
        <ele>151.4</ele>
        <time>2021-02-24T14:08:53Z</time>
      </trkpt>
      <trkpt lat="44.35876" lon="4.91207">
        <ele>151.4</ele>
        <time>2021-02-24T14:08:54Z</time>
      </trkpt>
      <trkpt lat="44.35871" lon="4.91206">
        <ele>151.4</ele>
        <time>2021-02-24T14:08:55Z</time>
      </trkpt>
      <trkpt lat="44.35866" lon="4.91205">
        <ele>151.4</ele>
        <time>2021-02-24T14:08:56Z</time>
      </trkpt>
      <trkpt lat="44.3586" lon="4.91203">
        <ele>151.4</ele>
        <time>2021-02-24T14:08:57Z</time>
      </trkpt>
      <trkpt lat="44.35855" lon="4.91201">
        <ele>151.5</ele>
        <time>2021-02-24T14:08:58Z</time>
      </trkpt>
      <trkpt lat="44.3585" lon="4.912">
        <ele>151.7</ele>
        <time>2021-02-24T14:08:59Z</time>
      </trkpt>
      <trkpt lat="44.35846" lon="4.91199">
        <ele>151.8</ele>
        <time>2021-02-24T14:09:00Z</time>
      </trkpt>
      <trkpt lat="44.35844" lon="4.91199">
        <ele>151.8</ele>
        <time>2021-02-24T14:09:01Z</time>
      </trkpt>
      <trkpt lat="44.35841" lon="4.91198">
        <ele>151.9</ele>
        <time>2021-02-24T14:09:02Z</time>
      </trkpt>
      <trkpt lat="44.35838" lon="4.91197">
        <ele>152</ele>
        <time>2021-02-24T14:09:03Z</time>
      </trkpt>
      <trkpt lat="44.35838" lon="4.91197">
        <ele>152</ele>
        <time>2021-02-24T14:09:04Z</time>
      </trkpt>
      <trkpt lat="44.35828" lon="4.91196">
        <ele>152.2</ele>
        <time>2021-02-24T14:09:05Z</time>
      </trkpt>
      <trkpt lat="44.35828" lon="4.91196">
        <ele>152.2</ele>
        <time>2021-02-24T14:09:06Z</time>
      </trkpt>
      <trkpt lat="44.35812" lon="4.91193">
        <ele>152.6</ele>
        <time>2021-02-24T14:09:07Z</time>
      </trkpt>
      <trkpt lat="44.35808" lon="4.91191">
        <ele>152.7</ele>
        <time>2021-02-24T14:09:08Z</time>
      </trkpt>
      <trkpt lat="44.35799" lon="4.91188">
        <ele>152.8</ele>
        <time>2021-02-24T14:09:09Z</time>
      </trkpt>
      <trkpt lat="44.35799" lon="4.91188">
        <ele>152.8</ele>
        <time>2021-02-24T14:09:10Z</time>
      </trkpt>
      <trkpt lat="44.35794" lon="4.91186">
        <ele>152.9</ele>
        <time>2021-02-24T14:09:11Z</time>
      </trkpt>
      <trkpt lat="44.35789" lon="4.91185">
        <ele>152.9</ele>
        <time>2021-02-24T14:09:12Z</time>
      </trkpt>
      <trkpt lat="44.35784" lon="4.91183">
        <ele>153</ele>
        <time>2021-02-24T14:09:13Z</time>
      </trkpt>
      <trkpt lat="44.35779" lon="4.91182">
        <ele>153</ele>
        <time>2021-02-24T14:09:14Z</time>
      </trkpt>
      <trkpt lat="44.35774" lon="4.9118">
        <ele>153.1</ele>
        <time>2021-02-24T14:09:15Z</time>
      </trkpt>
      <trkpt lat="44.35769" lon="4.91178">
        <ele>153.2</ele>
        <time>2021-02-24T14:09:16Z</time>
      </trkpt>
      <trkpt lat="44.35765" lon="4.91176">
        <ele>153.2</ele>
        <time>2021-02-24T14:09:17Z</time>
      </trkpt>
      <trkpt lat="44.3576" lon="4.91174">
        <ele>153.3</ele>
        <time>2021-02-24T14:09:18Z</time>
      </trkpt>
      <trkpt lat="44.35755" lon="4.91172">
        <ele>153.4</ele>
        <time>2021-02-24T14:09:19Z</time>
      </trkpt>
      <trkpt lat="44.3575" lon="4.91171">
        <ele>153.5</ele>
        <time>2021-02-24T14:09:20Z</time>
      </trkpt>
      <trkpt lat="44.35745" lon="4.9117">
        <ele>153.5</ele>
        <time>2021-02-24T14:09:21Z</time>
      </trkpt>
      <trkpt lat="44.3574" lon="4.91168">
        <ele>153.6</ele>
        <time>2021-02-24T14:09:22Z</time>
      </trkpt>
      <trkpt lat="44.35735" lon="4.91167">
        <ele>153.6</ele>
        <time>2021-02-24T14:09:23Z</time>
      </trkpt>
      <trkpt lat="44.3573" lon="4.91165">
        <ele>153.7</ele>
        <time>2021-02-24T14:09:24Z</time>
      </trkpt>
      <trkpt lat="44.35725" lon="4.91163">
        <ele>153.8</ele>
        <time>2021-02-24T14:09:25Z</time>
      </trkpt>
      <trkpt lat="44.3572" lon="4.91161">
        <ele>153.8</ele>
        <time>2021-02-24T14:09:26Z</time>
      </trkpt>
      <trkpt lat="44.35715" lon="4.9116">
        <ele>153.9</ele>
        <time>2021-02-24T14:09:27Z</time>
      </trkpt>
      <trkpt lat="44.3571" lon="4.91158">
        <ele>154</ele>
        <time>2021-02-24T14:09:28Z</time>
      </trkpt>
      <trkpt lat="44.35702" lon="4.91157">
        <ele>154.1</ele>
        <time>2021-02-24T14:09:29Z</time>
      </trkpt>
      <trkpt lat="44.357" lon="4.91157">
        <ele>154.1</ele>
        <time>2021-02-24T14:09:30Z</time>
      </trkpt>
      <trkpt lat="44.35692" lon="4.91155">
        <ele>154.2</ele>
        <time>2021-02-24T14:09:31Z</time>
      </trkpt>
      <trkpt lat="44.3569" lon="4.91154">
        <ele>154.2</ele>
        <time>2021-02-24T14:09:32Z</time>
      </trkpt>
      <trkpt lat="44.35685" lon="4.91153">
        <ele>154.3</ele>
        <time>2021-02-24T14:09:33Z</time>
      </trkpt>
      <trkpt lat="44.3568" lon="4.91152">
        <ele>154.4</ele>
        <time>2021-02-24T14:09:34Z</time>
      </trkpt>
      <trkpt lat="44.35675" lon="4.91151">
        <ele>154.4</ele>
        <time>2021-02-24T14:09:35Z</time>
      </trkpt>
      <trkpt lat="44.35671" lon="4.9115">
        <ele>154.5</ele>
        <time>2021-02-24T14:09:36Z</time>
      </trkpt>
      <trkpt lat="44.35666" lon="4.91149">
        <ele>154.5</ele>
        <time>2021-02-24T14:09:37Z</time>
      </trkpt>
      <trkpt lat="44.35661" lon="4.91148">
        <ele>154.6</ele>
        <time>2021-02-24T14:09:38Z</time>
      </trkpt>
      <trkpt lat="44.35656" lon="4.91148">
        <ele>154.7</ele>
        <time>2021-02-24T14:09:39Z</time>
      </trkpt>
      <trkpt lat="44.35652" lon="4.91148">
        <ele>154.7</ele>
        <time>2021-02-24T14:09:40Z</time>
      </trkpt>
      <trkpt lat="44.35647" lon="4.91148">
        <ele>154.8</ele>
        <time>2021-02-24T14:09:41Z</time>
      </trkpt>
      <trkpt lat="44.35642" lon="4.91149">
        <ele>154.8</ele>
        <time>2021-02-24T14:09:42Z</time>
      </trkpt>
      <trkpt lat="44.35638" lon="4.9115">
        <ele>154.9</ele>
        <time>2021-02-24T14:09:43Z</time>
      </trkpt>
      <trkpt lat="44.35633" lon="4.91152">
        <ele>154.9</ele>
        <time>2021-02-24T14:09:44Z</time>
      </trkpt>
      <trkpt lat="44.35628" lon="4.91154">
        <ele>155</ele>
        <time>2021-02-24T14:09:45Z</time>
      </trkpt>
      <trkpt lat="44.35624" lon="4.91157">
        <ele>155.1</ele>
        <time>2021-02-24T14:09:46Z</time>
      </trkpt>
      <trkpt lat="44.35615" lon="4.91163">
        <ele>155.2</ele>
        <time>2021-02-24T14:09:47Z</time>
      </trkpt>
      <trkpt lat="44.35615" lon="4.91163">
        <ele>155.2</ele>
        <time>2021-02-24T14:09:48Z</time>
      </trkpt>
      <trkpt lat="44.35611" lon="4.91166">
        <ele>155.2</ele>
        <time>2021-02-24T14:09:49Z</time>
      </trkpt>
      <trkpt lat="44.35607" lon="4.9117">
        <ele>155.3</ele>
        <time>2021-02-24T14:09:50Z</time>
      </trkpt>
      <trkpt lat="44.35604" lon="4.91175">
        <ele>155.3</ele>
        <time>2021-02-24T14:09:51Z</time>
      </trkpt>
      <trkpt lat="44.356" lon="4.9118">
        <ele>155.4</ele>
        <time>2021-02-24T14:09:52Z</time>
      </trkpt>
      <trkpt lat="44.35597" lon="4.91185">
        <ele>155.4</ele>
        <time>2021-02-24T14:09:53Z</time>
      </trkpt>
      <trkpt lat="44.35594" lon="4.9119">
        <ele>155.5</ele>
        <time>2021-02-24T14:09:54Z</time>
      </trkpt>
      <trkpt lat="44.35591" lon="4.91194">
        <ele>155.5</ele>
        <time>2021-02-24T14:09:55Z</time>
      </trkpt>
      <trkpt lat="44.35589" lon="4.91198">
        <ele>155.5</ele>
        <time>2021-02-24T14:09:56Z</time>
      </trkpt>
      <trkpt lat="44.35586" lon="4.91202">
        <ele>155.5</ele>
        <time>2021-02-24T14:09:57Z</time>
      </trkpt>
      <trkpt lat="44.35582" lon="4.91205">
        <ele>155.6</ele>
        <time>2021-02-24T14:09:58Z</time>
      </trkpt>
      <trkpt lat="44.35578" lon="4.91205">
        <ele>155.6</ele>
        <time>2021-02-24T14:09:59Z</time>
      </trkpt>
      <trkpt lat="44.35573" lon="4.91205">
        <ele>155.6</ele>
        <time>2021-02-24T14:10:00Z</time>
      </trkpt>
      <trkpt lat="44.35568" lon="4.91206">
        <ele>155.5</ele>
        <time>2021-02-24T14:10:01Z</time>
      </trkpt>
      <trkpt lat="44.35564" lon="4.91206">
        <ele>155.5</ele>
        <time>2021-02-24T14:10:02Z</time>
      </trkpt>
      <trkpt lat="44.35559" lon="4.91209">
        <ele>155.5</ele>
        <time>2021-02-24T14:10:03Z</time>
      </trkpt>
      <trkpt lat="44.35556" lon="4.91213">
        <ele>155.6</ele>
        <time>2021-02-24T14:10:04Z</time>
      </trkpt>
      <trkpt lat="44.35553" lon="4.91219">
        <ele>155.6</ele>
        <time>2021-02-24T14:10:05Z</time>
      </trkpt>
      <trkpt lat="44.3555" lon="4.91225">
        <ele>155.6</ele>
        <time>2021-02-24T14:10:06Z</time>
      </trkpt>
      <trkpt lat="44.35547" lon="4.91234">
        <ele>155.7</ele>
        <time>2021-02-24T14:10:07Z</time>
      </trkpt>
      <trkpt lat="44.35546" lon="4.91236">
        <ele>155.7</ele>
        <time>2021-02-24T14:10:08Z</time>
      </trkpt>
      <trkpt lat="44.35543" lon="4.91242">
        <ele>155.7</ele>
        <time>2021-02-24T14:10:09Z</time>
      </trkpt>
      <trkpt lat="44.35541" lon="4.91248">
        <ele>155.7</ele>
        <time>2021-02-24T14:10:10Z</time>
      </trkpt>
      <trkpt lat="44.35539" lon="4.91254">
        <ele>155.7</ele>
        <time>2021-02-24T14:10:11Z</time>
      </trkpt>
      <trkpt lat="44.35537" lon="4.9126">
        <ele>155.7</ele>
        <time>2021-02-24T14:10:12Z</time>
      </trkpt>
      <trkpt lat="44.35535" lon="4.91266">
        <ele>155.7</ele>
        <time>2021-02-24T14:10:13Z</time>
      </trkpt>
      <trkpt lat="44.35532" lon="4.91273">
        <ele>155.7</ele>
        <time>2021-02-24T14:10:14Z</time>
      </trkpt>
      <trkpt lat="44.3553" lon="4.91279">
        <ele>155.7</ele>
        <time>2021-02-24T14:10:15Z</time>
      </trkpt>
      <trkpt lat="44.35527" lon="4.91285">
        <ele>155.7</ele>
        <time>2021-02-24T14:10:16Z</time>
      </trkpt>
      <trkpt lat="44.35525" lon="4.91291">
        <ele>155.7</ele>
        <time>2021-02-24T14:10:17Z</time>
      </trkpt>
      <trkpt lat="44.35522" lon="4.91297">
        <ele>155.7</ele>
        <time>2021-02-24T14:10:18Z</time>
      </trkpt>
      <trkpt lat="44.3552" lon="4.91303">
        <ele>155.7</ele>
        <time>2021-02-24T14:10:19Z</time>
      </trkpt>
      <trkpt lat="44.35517" lon="4.91309">
        <ele>155.7</ele>
        <time>2021-02-24T14:10:20Z</time>
      </trkpt>
      <trkpt lat="44.35513" lon="4.91315">
        <ele>155.7</ele>
        <time>2021-02-24T14:10:21Z</time>
      </trkpt>
      <trkpt lat="44.3551" lon="4.91321">
        <ele>155.8</ele>
        <time>2021-02-24T14:10:22Z</time>
      </trkpt>
      <trkpt lat="44.35506" lon="4.91326">
        <ele>155.8</ele>
        <time>2021-02-24T14:10:23Z</time>
      </trkpt>
      <trkpt lat="44.35503" lon="4.91332">
        <ele>155.8</ele>
        <time>2021-02-24T14:10:24Z</time>
      </trkpt>
      <trkpt lat="44.35495" lon="4.91344">
        <ele>155.9</ele>
        <time>2021-02-24T14:10:25Z</time>
      </trkpt>
      <trkpt lat="44.35494" lon="4.91346">
        <ele>155.9</ele>
        <time>2021-02-24T14:10:26Z</time>
      </trkpt>
      <trkpt lat="44.35492" lon="4.91348">
        <ele>155.9</ele>
        <time>2021-02-24T14:10:27Z</time>
      </trkpt>
      <trkpt lat="44.35489" lon="4.91354">
        <ele>155.9</ele>
        <time>2021-02-24T14:10:28Z</time>
      </trkpt>
      <trkpt lat="44.35485" lon="4.91359">
        <ele>156</ele>
        <time>2021-02-24T14:10:29Z</time>
      </trkpt>
      <trkpt lat="44.35481" lon="4.91365">
        <ele>156</ele>
        <time>2021-02-24T14:10:30Z</time>
      </trkpt>
      <trkpt lat="44.35478" lon="4.91371">
        <ele>156</ele>
        <time>2021-02-24T14:10:31Z</time>
      </trkpt>
      <trkpt lat="44.35472" lon="4.91381">
        <ele>156</ele>
        <time>2021-02-24T14:10:32Z</time>
      </trkpt>
      <trkpt lat="44.3547" lon="4.91384">
        <ele>156</ele>
        <time>2021-02-24T14:10:33Z</time>
      </trkpt>
      <trkpt lat="44.35466" lon="4.9139">
        <ele>156.1</ele>
        <time>2021-02-24T14:10:34Z</time>
      </trkpt>
      <trkpt lat="44.35462" lon="4.91397">
        <ele>156.1</ele>
        <time>2021-02-24T14:10:35Z</time>
      </trkpt>
      <trkpt lat="44.35459" lon="4.91403">
        <ele>156.1</ele>
        <time>2021-02-24T14:10:36Z</time>
      </trkpt>
      <trkpt lat="44.35455" lon="4.91408">
        <ele>156.1</ele>
        <time>2021-02-24T14:10:37Z</time>
      </trkpt>
      <trkpt lat="44.35451" lon="4.91414">
        <ele>156.2</ele>
        <time>2021-02-24T14:10:38Z</time>
      </trkpt>
      <trkpt lat="44.35447" lon="4.9142">
        <ele>156.2</ele>
        <time>2021-02-24T14:10:39Z</time>
      </trkpt>
      <trkpt lat="44.35441" lon="4.91429">
        <ele>156.2</ele>
        <time>2021-02-24T14:10:40Z</time>
      </trkpt>
      <trkpt lat="44.3544" lon="4.91432">
        <ele>156.2</ele>
        <time>2021-02-24T14:10:41Z</time>
      </trkpt>
      <trkpt lat="44.35436" lon="4.91438">
        <ele>156.3</ele>
        <time>2021-02-24T14:10:42Z</time>
      </trkpt>
      <trkpt lat="44.35432" lon="4.91444">
        <ele>156.3</ele>
        <time>2021-02-24T14:10:43Z</time>
      </trkpt>
      <trkpt lat="44.35424" lon="4.91456">
        <ele>156.3</ele>
        <time>2021-02-24T14:10:44Z</time>
      </trkpt>
      <trkpt lat="44.35424" lon="4.91456">
        <ele>156.3</ele>
        <time>2021-02-24T14:10:45Z</time>
      </trkpt>
      <trkpt lat="44.3542" lon="4.91463">
        <ele>156.3</ele>
        <time>2021-02-24T14:10:46Z</time>
      </trkpt>
      <trkpt lat="44.35416" lon="4.91469">
        <ele>156.4</ele>
        <time>2021-02-24T14:10:47Z</time>
      </trkpt>
      <trkpt lat="44.35411" lon="4.91476">
        <ele>156.4</ele>
        <time>2021-02-24T14:10:48Z</time>
      </trkpt>
      <trkpt lat="44.35407" lon="4.91482">
        <ele>156.4</ele>
        <time>2021-02-24T14:10:49Z</time>
      </trkpt>
      <trkpt lat="44.35401" lon="4.91493">
        <ele>156.4</ele>
        <time>2021-02-24T14:10:50Z</time>
      </trkpt>
      <trkpt lat="44.35399" lon="4.91496">
        <ele>156.4</ele>
        <time>2021-02-24T14:10:51Z</time>
      </trkpt>
      <trkpt lat="44.35395" lon="4.91503">
        <ele>156.5</ele>
        <time>2021-02-24T14:10:52Z</time>
      </trkpt>
      <trkpt lat="44.35391" lon="4.9151">
        <ele>156.5</ele>
        <time>2021-02-24T14:10:53Z</time>
      </trkpt>
      <trkpt lat="44.35387" lon="4.91516">
        <ele>156.5</ele>
        <time>2021-02-24T14:10:54Z</time>
      </trkpt>
      <trkpt lat="44.35383" lon="4.91523">
        <ele>156.5</ele>
        <time>2021-02-24T14:10:55Z</time>
      </trkpt>
      <trkpt lat="44.35378" lon="4.9153">
        <ele>156.6</ele>
        <time>2021-02-24T14:10:56Z</time>
      </trkpt>
      <trkpt lat="44.35372" lon="4.9154">
        <ele>156.6</ele>
        <time>2021-02-24T14:10:57Z</time>
      </trkpt>
      <trkpt lat="44.3537" lon="4.91543">
        <ele>156.6</ele>
        <time>2021-02-24T14:10:58Z</time>
      </trkpt>
      <trkpt lat="44.35366" lon="4.9155">
        <ele>156.6</ele>
        <time>2021-02-24T14:10:59Z</time>
      </trkpt>
      <trkpt lat="44.35362" lon="4.91557">
        <ele>156.7</ele>
        <time>2021-02-24T14:11:00Z</time>
      </trkpt>
      <trkpt lat="44.35358" lon="4.91564">
        <ele>156.7</ele>
        <time>2021-02-24T14:11:01Z</time>
      </trkpt>
      <trkpt lat="44.35353" lon="4.91571">
        <ele>156.7</ele>
        <time>2021-02-24T14:11:02Z</time>
      </trkpt>
      <trkpt lat="44.35345" lon="4.91585">
        <ele>156.8</ele>
        <time>2021-02-24T14:11:03Z</time>
      </trkpt>
      <trkpt lat="44.35345" lon="4.91585">
        <ele>156.8</ele>
        <time>2021-02-24T14:11:04Z</time>
      </trkpt>
      <trkpt lat="44.3534" lon="4.91592">
        <ele>156.8</ele>
        <time>2021-02-24T14:11:05Z</time>
      </trkpt>
      <trkpt lat="44.35336" lon="4.91598">
        <ele>156.8</ele>
        <time>2021-02-24T14:11:06Z</time>
      </trkpt>
      <trkpt lat="44.35332" lon="4.91605">
        <ele>156.8</ele>
        <time>2021-02-24T14:11:07Z</time>
      </trkpt>
      <trkpt lat="44.35328" lon="4.91612">
        <ele>156.8</ele>
        <time>2021-02-24T14:11:08Z</time>
      </trkpt>
      <trkpt lat="44.35323" lon="4.91619">
        <ele>156.8</ele>
        <time>2021-02-24T14:11:09Z</time>
      </trkpt>
      <trkpt lat="44.35319" lon="4.91625">
        <ele>156.8</ele>
        <time>2021-02-24T14:11:10Z</time>
      </trkpt>
      <trkpt lat="44.35315" lon="4.91632">
        <ele>156.8</ele>
        <time>2021-02-24T14:11:11Z</time>
      </trkpt>
      <trkpt lat="44.3531" lon="4.91638">
        <ele>156.8</ele>
        <time>2021-02-24T14:11:12Z</time>
      </trkpt>
      <trkpt lat="44.35305" lon="4.91643">
        <ele>156.8</ele>
        <time>2021-02-24T14:11:13Z</time>
      </trkpt>
      <trkpt lat="44.353" lon="4.91649">
        <ele>156.8</ele>
        <time>2021-02-24T14:11:14Z</time>
      </trkpt>
      <trkpt lat="44.35296" lon="4.91655">
        <ele>156.8</ele>
        <time>2021-02-24T14:11:15Z</time>
      </trkpt>
      <trkpt lat="44.35291" lon="4.91661">
        <ele>156.8</ele>
        <time>2021-02-24T14:11:16Z</time>
      </trkpt>
      <trkpt lat="44.35286" lon="4.91666">
        <ele>156.9</ele>
        <time>2021-02-24T14:11:17Z</time>
      </trkpt>
      <trkpt lat="44.35282" lon="4.91672">
        <ele>156.9</ele>
        <time>2021-02-24T14:11:18Z</time>
      </trkpt>
      <trkpt lat="44.35277" lon="4.91677">
        <ele>156.9</ele>
        <time>2021-02-24T14:11:19Z</time>
      </trkpt>
      <trkpt lat="44.35272" lon="4.91683">
        <ele>156.9</ele>
        <time>2021-02-24T14:11:20Z</time>
      </trkpt>
      <trkpt lat="44.35263" lon="4.91693">
        <ele>156.9</ele>
        <time>2021-02-24T14:11:21Z</time>
      </trkpt>
      <trkpt lat="44.35258" lon="4.91699">
        <ele>156.9</ele>
        <time>2021-02-24T14:11:22Z</time>
      </trkpt>
      <trkpt lat="44.35258" lon="4.91699">
        <ele>156.9</ele>
        <time>2021-02-24T14:11:23Z</time>
      </trkpt>
      <trkpt lat="44.35254" lon="4.91704">
        <ele>157</ele>
        <time>2021-02-24T14:11:24Z</time>
      </trkpt>
      <trkpt lat="44.35249" lon="4.9171">
        <ele>157</ele>
        <time>2021-02-24T14:11:25Z</time>
      </trkpt>
      <trkpt lat="44.35244" lon="4.91715">
        <ele>157</ele>
        <time>2021-02-24T14:11:26Z</time>
      </trkpt>
      <trkpt lat="44.3524" lon="4.9172">
        <ele>157</ele>
        <time>2021-02-24T14:11:27Z</time>
      </trkpt>
      <trkpt lat="44.35235" lon="4.91726">
        <ele>157.1</ele>
        <time>2021-02-24T14:11:28Z</time>
      </trkpt>
      <trkpt lat="44.35228" lon="4.91734">
        <ele>157.1</ele>
        <time>2021-02-24T14:11:29Z</time>
      </trkpt>
      <trkpt lat="44.35226" lon="4.91737">
        <ele>157.1</ele>
        <time>2021-02-24T14:11:30Z</time>
      </trkpt>
      <trkpt lat="44.35221" lon="4.91742">
        <ele>157.1</ele>
        <time>2021-02-24T14:11:31Z</time>
      </trkpt>
      <trkpt lat="44.35216" lon="4.91748">
        <ele>157.1</ele>
        <time>2021-02-24T14:11:32Z</time>
      </trkpt>
      <trkpt lat="44.35212" lon="4.91754">
        <ele>157</ele>
        <time>2021-02-24T14:11:33Z</time>
      </trkpt>
      <trkpt lat="44.35207" lon="4.91759">
        <ele>157</ele>
        <time>2021-02-24T14:11:34Z</time>
      </trkpt>
      <trkpt lat="44.35202" lon="4.91764">
        <ele>157</ele>
        <time>2021-02-24T14:11:35Z</time>
      </trkpt>
      <trkpt lat="44.35197" lon="4.9177">
        <ele>157</ele>
        <time>2021-02-24T14:11:36Z</time>
      </trkpt>
      <trkpt lat="44.35192" lon="4.91775">
        <ele>156.9</ele>
        <time>2021-02-24T14:11:37Z</time>
      </trkpt>
      <trkpt lat="44.35187" lon="4.9178">
        <ele>156.9</ele>
        <time>2021-02-24T14:11:38Z</time>
      </trkpt>
      <trkpt lat="44.35182" lon="4.91784">
        <ele>156.9</ele>
        <time>2021-02-24T14:11:39Z</time>
      </trkpt>
      <trkpt lat="44.35176" lon="4.91788">
        <ele>156.8</ele>
        <time>2021-02-24T14:11:40Z</time>
      </trkpt>
      <trkpt lat="44.35164" lon="4.91794">
        <ele>156.8</ele>
        <time>2021-02-24T14:11:41Z</time>
      </trkpt>
      <trkpt lat="44.35164" lon="4.91794">
        <ele>156.8</ele>
        <time>2021-02-24T14:11:42Z</time>
      </trkpt>
      <trkpt lat="44.35158" lon="4.91797">
        <ele>156.7</ele>
        <time>2021-02-24T14:11:43Z</time>
      </trkpt>
      <trkpt lat="44.35152" lon="4.91799">
        <ele>156.7</ele>
        <time>2021-02-24T14:11:44Z</time>
      </trkpt>
      <trkpt lat="44.35146" lon="4.918">
        <ele>156.7</ele>
        <time>2021-02-24T14:11:45Z</time>
      </trkpt>
      <trkpt lat="44.3514" lon="4.91801">
        <ele>156.6</ele>
        <time>2021-02-24T14:11:46Z</time>
      </trkpt>
      <trkpt lat="44.35134" lon="4.91802">
        <ele>156.6</ele>
        <time>2021-02-24T14:11:47Z</time>
      </trkpt>
      <trkpt lat="44.35128" lon="4.91802">
        <ele>156.6</ele>
        <time>2021-02-24T14:11:48Z</time>
      </trkpt>
      <trkpt lat="44.35122" lon="4.91803">
        <ele>156.5</ele>
        <time>2021-02-24T14:11:49Z</time>
      </trkpt>
      <trkpt lat="44.35116" lon="4.91803">
        <ele>156.5</ele>
        <time>2021-02-24T14:11:50Z</time>
      </trkpt>
      <trkpt lat="44.3511" lon="4.91804">
        <ele>156.5</ele>
        <time>2021-02-24T14:11:51Z</time>
      </trkpt>
      <trkpt lat="44.35104" lon="4.91804">
        <ele>156.4</ele>
        <time>2021-02-24T14:11:52Z</time>
      </trkpt>
      <trkpt lat="44.35098" lon="4.91804">
        <ele>156.4</ele>
        <time>2021-02-24T14:11:53Z</time>
      </trkpt>
      <trkpt lat="44.35092" lon="4.91805">
        <ele>156.4</ele>
        <time>2021-02-24T14:11:54Z</time>
      </trkpt>
      <trkpt lat="44.35086" lon="4.91805">
        <ele>156.4</ele>
        <time>2021-02-24T14:11:55Z</time>
      </trkpt>
      <trkpt lat="44.3508" lon="4.91805">
        <ele>156.4</ele>
        <time>2021-02-24T14:11:56Z</time>
      </trkpt>
      <trkpt lat="44.35074" lon="4.91806">
        <ele>156.3</ele>
        <time>2021-02-24T14:11:57Z</time>
      </trkpt>
      <trkpt lat="44.35068" lon="4.91806">
        <ele>156.3</ele>
        <time>2021-02-24T14:11:58Z</time>
      </trkpt>
      <trkpt lat="44.35062" lon="4.91807">
        <ele>156.3</ele>
        <time>2021-02-24T14:11:59Z</time>
      </trkpt>
      <trkpt lat="44.35056" lon="4.91807">
        <ele>156.3</ele>
        <time>2021-02-24T14:12:00Z</time>
      </trkpt>
      <trkpt lat="44.35046" lon="4.91808">
        <ele>156.3</ele>
        <time>2021-02-24T14:12:01Z</time>
      </trkpt>
      <trkpt lat="44.35043" lon="4.91809">
        <ele>156.2</ele>
        <time>2021-02-24T14:12:02Z</time>
      </trkpt>
      <trkpt lat="44.35037" lon="4.9181">
        <ele>156.2</ele>
        <time>2021-02-24T14:12:03Z</time>
      </trkpt>
      <trkpt lat="44.35031" lon="4.91811">
        <ele>156.2</ele>
        <time>2021-02-24T14:12:04Z</time>
      </trkpt>
      <trkpt lat="44.35025" lon="4.91812">
        <ele>156.2</ele>
        <time>2021-02-24T14:12:05Z</time>
      </trkpt>
      <trkpt lat="44.35019" lon="4.91814">
        <ele>156.1</ele>
        <time>2021-02-24T14:12:06Z</time>
      </trkpt>
      <trkpt lat="44.35013" lon="4.91816">
        <ele>156.1</ele>
        <time>2021-02-24T14:12:07Z</time>
      </trkpt>
      <trkpt lat="44.35007" lon="4.91818">
        <ele>156.1</ele>
        <time>2021-02-24T14:12:08Z</time>
      </trkpt>
      <trkpt lat="44.35002" lon="4.9182">
        <ele>156.1</ele>
        <time>2021-02-24T14:12:09Z</time>
      </trkpt>
      <trkpt lat="44.34996" lon="4.91823">
        <ele>156.1</ele>
        <time>2021-02-24T14:12:10Z</time>
      </trkpt>
      <trkpt lat="44.3499" lon="4.91827">
        <ele>156.1</ele>
        <time>2021-02-24T14:12:11Z</time>
      </trkpt>
      <trkpt lat="44.34985" lon="4.9183">
        <ele>156.1</ele>
        <time>2021-02-24T14:12:12Z</time>
      </trkpt>
      <trkpt lat="44.34979" lon="4.91834">
        <ele>156.1</ele>
        <time>2021-02-24T14:12:13Z</time>
      </trkpt>
      <trkpt lat="44.34974" lon="4.91838">
        <ele>156.1</ele>
        <time>2021-02-24T14:12:14Z</time>
      </trkpt>
      <trkpt lat="44.34968" lon="4.91842">
        <ele>156.1</ele>
        <time>2021-02-24T14:12:15Z</time>
      </trkpt>
      <trkpt lat="44.34963" lon="4.91846">
        <ele>156.1</ele>
        <time>2021-02-24T14:12:16Z</time>
      </trkpt>
      <trkpt lat="44.34958" lon="4.9185">
        <ele>156.1</ele>
        <time>2021-02-24T14:12:17Z</time>
      </trkpt>
      <trkpt lat="44.34953" lon="4.91855">
        <ele>156.1</ele>
        <time>2021-02-24T14:12:18Z</time>
      </trkpt>
      <trkpt lat="44.34942" lon="4.91864">
        <ele>156</ele>
        <time>2021-02-24T14:12:19Z</time>
      </trkpt>
      <trkpt lat="44.34942" lon="4.91864">
        <ele>156</ele>
        <time>2021-02-24T14:12:20Z</time>
      </trkpt>
      <trkpt lat="44.34937" lon="4.91868">
        <ele>156</ele>
        <time>2021-02-24T14:12:21Z</time>
      </trkpt>
      <trkpt lat="44.34925" lon="4.91877">
        <ele>155.9</ele>
        <time>2021-02-24T14:12:22Z</time>
      </trkpt>
      <trkpt lat="44.34925" lon="4.91877">
        <ele>155.9</ele>
        <time>2021-02-24T14:12:23Z</time>
      </trkpt>
      <trkpt lat="44.34919" lon="4.91882">
        <ele>155.8</ele>
        <time>2021-02-24T14:12:24Z</time>
      </trkpt>
      <trkpt lat="44.34913" lon="4.91886">
        <ele>155.8</ele>
        <time>2021-02-24T14:12:25Z</time>
      </trkpt>
      <trkpt lat="44.34907" lon="4.9189">
        <ele>155.8</ele>
        <time>2021-02-24T14:12:26Z</time>
      </trkpt>
      <trkpt lat="44.34901" lon="4.91895">
        <ele>155.7</ele>
        <time>2021-02-24T14:12:27Z</time>
      </trkpt>
      <trkpt lat="44.34896" lon="4.91899">
        <ele>155.7</ele>
        <time>2021-02-24T14:12:28Z</time>
      </trkpt>
      <trkpt lat="44.3489" lon="4.91903">
        <ele>155.7</ele>
        <time>2021-02-24T14:12:29Z</time>
      </trkpt>
      <trkpt lat="44.34885" lon="4.91907">
        <ele>155.7</ele>
        <time>2021-02-24T14:12:30Z</time>
      </trkpt>
      <trkpt lat="44.34879" lon="4.91912">
        <ele>155.7</ele>
        <time>2021-02-24T14:12:31Z</time>
      </trkpt>
      <trkpt lat="44.34873" lon="4.91916">
        <ele>155.7</ele>
        <time>2021-02-24T14:12:32Z</time>
      </trkpt>
      <trkpt lat="44.34868" lon="4.9192">
        <ele>155.7</ele>
        <time>2021-02-24T14:12:33Z</time>
      </trkpt>
      <trkpt lat="44.34862" lon="4.91925">
        <ele>155.7</ele>
        <time>2021-02-24T14:12:34Z</time>
      </trkpt>
      <trkpt lat="44.34856" lon="4.91929">
        <ele>155.7</ele>
        <time>2021-02-24T14:12:35Z</time>
      </trkpt>
      <trkpt lat="44.34851" lon="4.91933">
        <ele>155.7</ele>
        <time>2021-02-24T14:12:36Z</time>
      </trkpt>
      <trkpt lat="44.34845" lon="4.91938">
        <ele>155.7</ele>
        <time>2021-02-24T14:12:37Z</time>
      </trkpt>
      <trkpt lat="44.3484" lon="4.91943">
        <ele>155.7</ele>
        <time>2021-02-24T14:12:38Z</time>
      </trkpt>
      <trkpt lat="44.34832" lon="4.9195">
        <ele>155.7</ele>
        <time>2021-02-24T14:12:39Z</time>
      </trkpt>
      <trkpt lat="44.3483" lon="4.91953">
        <ele>155.7</ele>
        <time>2021-02-24T14:12:40Z</time>
      </trkpt>
      <trkpt lat="44.34822" lon="4.91961">
        <ele>155.7</ele>
        <time>2021-02-24T14:12:41Z</time>
      </trkpt>
      <trkpt lat="44.3482" lon="4.91963">
        <ele>155.7</ele>
        <time>2021-02-24T14:12:42Z</time>
      </trkpt>
      <trkpt lat="44.34815" lon="4.91969">
        <ele>155.7</ele>
        <time>2021-02-24T14:12:43Z</time>
      </trkpt>
      <trkpt lat="44.34811" lon="4.91975">
        <ele>155.8</ele>
        <time>2021-02-24T14:12:44Z</time>
      </trkpt>
      <trkpt lat="44.34806" lon="4.9198">
        <ele>155.8</ele>
        <time>2021-02-24T14:12:45Z</time>
      </trkpt>
      <trkpt lat="44.34802" lon="4.91986">
        <ele>155.8</ele>
        <time>2021-02-24T14:12:46Z</time>
      </trkpt>
      <trkpt lat="44.34797" lon="4.91991">
        <ele>155.9</ele>
        <time>2021-02-24T14:12:47Z</time>
      </trkpt>
      <trkpt lat="44.34792" lon="4.91996">
        <ele>155.9</ele>
        <time>2021-02-24T14:12:48Z</time>
      </trkpt>
      <trkpt lat="44.34787" lon="4.92001">
        <ele>156</ele>
        <time>2021-02-24T14:12:49Z</time>
      </trkpt>
      <trkpt lat="44.34782" lon="4.92006">
        <ele>156</ele>
        <time>2021-02-24T14:12:50Z</time>
      </trkpt>
      <trkpt lat="44.34777" lon="4.92011">
        <ele>156</ele>
        <time>2021-02-24T14:12:51Z</time>
      </trkpt>
      <trkpt lat="44.34771" lon="4.92015">
        <ele>156.1</ele>
        <time>2021-02-24T14:12:52Z</time>
      </trkpt>
      <trkpt lat="44.34766" lon="4.92019">
        <ele>156.1</ele>
        <time>2021-02-24T14:12:53Z</time>
      </trkpt>
      <trkpt lat="44.34761" lon="4.92022">
        <ele>156.1</ele>
        <time>2021-02-24T14:12:54Z</time>
      </trkpt>
      <trkpt lat="44.34755" lon="4.92025">
        <ele>156.1</ele>
        <time>2021-02-24T14:12:55Z</time>
      </trkpt>
      <trkpt lat="44.34749" lon="4.92028">
        <ele>156</ele>
        <time>2021-02-24T14:12:56Z</time>
      </trkpt>
      <trkpt lat="44.34737" lon="4.92034">
        <ele>155.9</ele>
        <time>2021-02-24T14:12:57Z</time>
      </trkpt>
      <trkpt lat="44.34737" lon="4.92034">
        <ele>155.9</ele>
        <time>2021-02-24T14:12:58Z</time>
      </trkpt>
      <trkpt lat="44.34728" lon="4.92039">
        <ele>155.8</ele>
        <time>2021-02-24T14:12:59Z</time>
      </trkpt>
      <trkpt lat="44.34725" lon="4.9204">
        <ele>155.8</ele>
        <time>2021-02-24T14:13:00Z</time>
      </trkpt>
      <trkpt lat="44.34719" lon="4.92043">
        <ele>155.7</ele>
        <time>2021-02-24T14:13:01Z</time>
      </trkpt>
      <trkpt lat="44.34713" lon="4.92047">
        <ele>155.7</ele>
        <time>2021-02-24T14:13:02Z</time>
      </trkpt>
      <trkpt lat="44.34707" lon="4.9205">
        <ele>155.6</ele>
        <time>2021-02-24T14:13:03Z</time>
      </trkpt>
      <trkpt lat="44.34701" lon="4.92053">
        <ele>155.6</ele>
        <time>2021-02-24T14:13:04Z</time>
      </trkpt>
      <trkpt lat="44.34695" lon="4.92056">
        <ele>155.6</ele>
        <time>2021-02-24T14:13:05Z</time>
      </trkpt>
      <trkpt lat="44.34689" lon="4.92059">
        <ele>155.5</ele>
        <time>2021-02-24T14:13:06Z</time>
      </trkpt>
      <trkpt lat="44.34683" lon="4.92062">
        <ele>155.5</ele>
        <time>2021-02-24T14:13:07Z</time>
      </trkpt>
      <trkpt lat="44.34677" lon="4.92066">
        <ele>155.4</ele>
        <time>2021-02-24T14:13:08Z</time>
      </trkpt>
      <trkpt lat="44.34671" lon="4.92069">
        <ele>155.4</ele>
        <time>2021-02-24T14:13:09Z</time>
      </trkpt>
      <trkpt lat="44.34665" lon="4.92073">
        <ele>155.4</ele>
        <time>2021-02-24T14:13:10Z</time>
      </trkpt>
      <trkpt lat="44.34659" lon="4.92076">
        <ele>155.3</ele>
        <time>2021-02-24T14:13:11Z</time>
      </trkpt>
      <trkpt lat="44.34653" lon="4.92079">
        <ele>155.3</ele>
        <time>2021-02-24T14:13:12Z</time>
      </trkpt>
      <trkpt lat="44.34647" lon="4.92082">
        <ele>155.3</ele>
        <time>2021-02-24T14:13:13Z</time>
      </trkpt>
      <trkpt lat="44.34641" lon="4.92085">
        <ele>155.2</ele>
        <time>2021-02-24T14:13:14Z</time>
      </trkpt>
      <trkpt lat="44.34635" lon="4.92089">
        <ele>155.2</ele>
        <time>2021-02-24T14:13:15Z</time>
      </trkpt>
      <trkpt lat="44.34629" lon="4.92092">
        <ele>155.2</ele>
        <time>2021-02-24T14:13:16Z</time>
      </trkpt>
      <trkpt lat="44.34621" lon="4.92096">
        <ele>155.2</ele>
        <time>2021-02-24T14:13:17Z</time>
      </trkpt>
      <trkpt lat="44.34618" lon="4.92098">
        <ele>155.2</ele>
        <time>2021-02-24T14:13:18Z</time>
      </trkpt>
      <trkpt lat="44.34612" lon="4.92101">
        <ele>155.2</ele>
        <time>2021-02-24T14:13:19Z</time>
      </trkpt>
      <trkpt lat="44.34606" lon="4.92104">
        <ele>155.2</ele>
        <time>2021-02-24T14:13:20Z</time>
      </trkpt>
      <trkpt lat="44.346" lon="4.92107">
        <ele>155.2</ele>
        <time>2021-02-24T14:13:21Z</time>
      </trkpt>
      <trkpt lat="44.34595" lon="4.9211">
        <ele>155.1</ele>
        <time>2021-02-24T14:13:22Z</time>
      </trkpt>
      <trkpt lat="44.34589" lon="4.92113">
        <ele>155.1</ele>
        <time>2021-02-24T14:13:23Z</time>
      </trkpt>
      <trkpt lat="44.34583" lon="4.92116">
        <ele>155.1</ele>
        <time>2021-02-24T14:13:24Z</time>
      </trkpt>
      <trkpt lat="44.34577" lon="4.9212">
        <ele>155.1</ele>
        <time>2021-02-24T14:13:25Z</time>
      </trkpt>
      <trkpt lat="44.34571" lon="4.92123">
        <ele>155.1</ele>
        <time>2021-02-24T14:13:26Z</time>
      </trkpt>
      <trkpt lat="44.34565" lon="4.92126">
        <ele>155</ele>
        <time>2021-02-24T14:13:27Z</time>
      </trkpt>
      <trkpt lat="44.34559" lon="4.92129">
        <ele>155</ele>
        <time>2021-02-24T14:13:28Z</time>
      </trkpt>
      <trkpt lat="44.34553" lon="4.92132">
        <ele>155</ele>
        <time>2021-02-24T14:13:29Z</time>
      </trkpt>
      <trkpt lat="44.34547" lon="4.92136">
        <ele>155</ele>
        <time>2021-02-24T14:13:30Z</time>
      </trkpt>
      <trkpt lat="44.34541" lon="4.92139">
        <ele>155</ele>
        <time>2021-02-24T14:13:31Z</time>
      </trkpt>
      <trkpt lat="44.34535" lon="4.92142">
        <ele>155</ele>
        <time>2021-02-24T14:13:32Z</time>
      </trkpt>
      <trkpt lat="44.3453" lon="4.92145">
        <ele>155</ele>
        <time>2021-02-24T14:13:33Z</time>
      </trkpt>
      <trkpt lat="44.34524" lon="4.92148">
        <ele>155</ele>
        <time>2021-02-24T14:13:34Z</time>
      </trkpt>
      <trkpt lat="44.34512" lon="4.92154">
        <ele>155</ele>
        <time>2021-02-24T14:13:35Z</time>
      </trkpt>
      <trkpt lat="44.34512" lon="4.92154">
        <ele>155</ele>
        <time>2021-02-24T14:13:36Z</time>
      </trkpt>
      <trkpt lat="44.34507" lon="4.92157">
        <ele>155</ele>
        <time>2021-02-24T14:13:37Z</time>
      </trkpt>
      <trkpt lat="44.34501" lon="4.9216">
        <ele>155</ele>
        <time>2021-02-24T14:13:38Z</time>
      </trkpt>
      <trkpt lat="44.34495" lon="4.92163">
        <ele>155</ele>
        <time>2021-02-24T14:13:39Z</time>
      </trkpt>
      <trkpt lat="44.3449" lon="4.92166">
        <ele>155</ele>
        <time>2021-02-24T14:13:40Z</time>
      </trkpt>
      <trkpt lat="44.34484" lon="4.9217">
        <ele>155</ele>
        <time>2021-02-24T14:13:41Z</time>
      </trkpt>
      <trkpt lat="44.34478" lon="4.92173">
        <ele>155</ele>
        <time>2021-02-24T14:13:42Z</time>
      </trkpt>
      <trkpt lat="44.34472" lon="4.92177">
        <ele>155</ele>
        <time>2021-02-24T14:13:43Z</time>
      </trkpt>
      <trkpt lat="44.34467" lon="4.92181">
        <ele>155</ele>
        <time>2021-02-24T14:13:44Z</time>
      </trkpt>
      <trkpt lat="44.34461" lon="4.92185">
        <ele>155</ele>
        <time>2021-02-24T14:13:45Z</time>
      </trkpt>
      <trkpt lat="44.34455" lon="4.92189">
        <ele>155</ele>
        <time>2021-02-24T14:13:46Z</time>
      </trkpt>
      <trkpt lat="44.34449" lon="4.92193">
        <ele>155</ele>
        <time>2021-02-24T14:13:47Z</time>
      </trkpt>
      <trkpt lat="44.34443" lon="4.92197">
        <ele>155</ele>
        <time>2021-02-24T14:13:48Z</time>
      </trkpt>
      <trkpt lat="44.34437" lon="4.922">
        <ele>155</ele>
        <time>2021-02-24T14:13:49Z</time>
      </trkpt>
      <trkpt lat="44.34431" lon="4.92204">
        <ele>155</ele>
        <time>2021-02-24T14:13:50Z</time>
      </trkpt>
      <trkpt lat="44.34425" lon="4.92208">
        <ele>155</ele>
        <time>2021-02-24T14:13:51Z</time>
      </trkpt>
      <trkpt lat="44.34419" lon="4.92211">
        <ele>155</ele>
        <time>2021-02-24T14:13:52Z</time>
      </trkpt>
      <trkpt lat="44.34413" lon="4.92214">
        <ele>155</ele>
        <time>2021-02-24T14:13:53Z</time>
      </trkpt>
      <trkpt lat="44.34407" lon="4.92217">
        <ele>155</ele>
        <time>2021-02-24T14:13:54Z</time>
      </trkpt>
      <trkpt lat="44.34398" lon="4.9222">
        <ele>155</ele>
        <time>2021-02-24T14:13:55Z</time>
      </trkpt>
      <trkpt lat="44.34395" lon="4.92221">
        <ele>155</ele>
        <time>2021-02-24T14:13:56Z</time>
      </trkpt>
      <trkpt lat="44.34389" lon="4.92223">
        <ele>154.9</ele>
        <time>2021-02-24T14:13:57Z</time>
      </trkpt>
      <trkpt lat="44.34383" lon="4.92226">
        <ele>154.9</ele>
        <time>2021-02-24T14:13:58Z</time>
      </trkpt>
      <trkpt lat="44.34377" lon="4.92228">
        <ele>154.9</ele>
        <time>2021-02-24T14:13:59Z</time>
      </trkpt>
      <trkpt lat="44.34371" lon="4.92229">
        <ele>154.9</ele>
        <time>2021-02-24T14:14:00Z</time>
      </trkpt>
      <trkpt lat="44.34365" lon="4.92232">
        <ele>154.9</ele>
        <time>2021-02-24T14:14:01Z</time>
      </trkpt>
      <trkpt lat="44.34358" lon="4.92234">
        <ele>154.9</ele>
        <time>2021-02-24T14:14:02Z</time>
      </trkpt>
      <trkpt lat="44.34352" lon="4.92236">
        <ele>154.9</ele>
        <time>2021-02-24T14:14:03Z</time>
      </trkpt>
      <trkpt lat="44.34346" lon="4.92239">
        <ele>154.9</ele>
        <time>2021-02-24T14:14:04Z</time>
      </trkpt>
      <trkpt lat="44.3434" lon="4.92242">
        <ele>154.9</ele>
        <time>2021-02-24T14:14:05Z</time>
      </trkpt>
      <trkpt lat="44.34334" lon="4.92245">
        <ele>154.9</ele>
        <time>2021-02-24T14:14:06Z</time>
      </trkpt>
      <trkpt lat="44.34328" lon="4.92249">
        <ele>154.9</ele>
        <time>2021-02-24T14:14:07Z</time>
      </trkpt>
      <trkpt lat="44.34322" lon="4.92252">
        <ele>154.9</ele>
        <time>2021-02-24T14:14:08Z</time>
      </trkpt>
      <trkpt lat="44.34316" lon="4.92256">
        <ele>154.9</ele>
        <time>2021-02-24T14:14:09Z</time>
      </trkpt>
      <trkpt lat="44.3431" lon="4.9226">
        <ele>154.9</ele>
        <time>2021-02-24T14:14:10Z</time>
      </trkpt>
      <trkpt lat="44.34305" lon="4.92264">
        <ele>154.9</ele>
        <time>2021-02-24T14:14:11Z</time>
      </trkpt>
      <trkpt lat="44.34299" lon="4.92268">
        <ele>154.9</ele>
        <time>2021-02-24T14:14:12Z</time>
      </trkpt>
      <trkpt lat="44.34288" lon="4.92276">
        <ele>154.9</ele>
        <time>2021-02-24T14:14:13Z</time>
      </trkpt>
      <trkpt lat="44.34288" lon="4.92276">
        <ele>154.9</ele>
        <time>2021-02-24T14:14:14Z</time>
      </trkpt>
      <trkpt lat="44.34282" lon="4.92281">
        <ele>154.8</ele>
        <time>2021-02-24T14:14:15Z</time>
      </trkpt>
      <trkpt lat="44.34276" lon="4.92285">
        <ele>154.8</ele>
        <time>2021-02-24T14:14:16Z</time>
      </trkpt>
      <trkpt lat="44.34271" lon="4.92289">
        <ele>154.8</ele>
        <time>2021-02-24T14:14:17Z</time>
      </trkpt>
      <trkpt lat="44.34265" lon="4.92293">
        <ele>154.7</ele>
        <time>2021-02-24T14:14:18Z</time>
      </trkpt>
      <trkpt lat="44.34259" lon="4.92298">
        <ele>154.7</ele>
        <time>2021-02-24T14:14:19Z</time>
      </trkpt>
      <trkpt lat="44.34254" lon="4.92302">
        <ele>154.7</ele>
        <time>2021-02-24T14:14:20Z</time>
      </trkpt>
      <trkpt lat="44.34248" lon="4.92306">
        <ele>154.7</ele>
        <time>2021-02-24T14:14:21Z</time>
      </trkpt>
      <trkpt lat="44.34242" lon="4.9231">
        <ele>154.6</ele>
        <time>2021-02-24T14:14:22Z</time>
      </trkpt>
      <trkpt lat="44.34237" lon="4.92314">
        <ele>154.6</ele>
        <time>2021-02-24T14:14:23Z</time>
      </trkpt>
      <trkpt lat="44.34231" lon="4.92318">
        <ele>154.6</ele>
        <time>2021-02-24T14:14:24Z</time>
      </trkpt>
      <trkpt lat="44.34225" lon="4.92321">
        <ele>154.5</ele>
        <time>2021-02-24T14:14:25Z</time>
      </trkpt>
      <trkpt lat="44.34219" lon="4.92324">
        <ele>154.5</ele>
        <time>2021-02-24T14:14:26Z</time>
      </trkpt>
      <trkpt lat="44.34212" lon="4.92326">
        <ele>154.4</ele>
        <time>2021-02-24T14:14:27Z</time>
      </trkpt>
      <trkpt lat="44.34206" lon="4.92326">
        <ele>154.4</ele>
        <time>2021-02-24T14:14:28Z</time>
      </trkpt>
      <trkpt lat="44.34199" lon="4.92326">
        <ele>154.3</ele>
        <time>2021-02-24T14:14:29Z</time>
      </trkpt>
      <trkpt lat="44.34193" lon="4.92326">
        <ele>154.3</ele>
        <time>2021-02-24T14:14:30Z</time>
      </trkpt>
      <trkpt lat="44.34187" lon="4.92324">
        <ele>154.3</ele>
        <time>2021-02-24T14:14:31Z</time>
      </trkpt>
      <trkpt lat="44.34181" lon="4.92322">
        <ele>154.2</ele>
        <time>2021-02-24T14:14:32Z</time>
      </trkpt>
      <trkpt lat="44.34171" lon="4.92319">
        <ele>154.1</ele>
        <time>2021-02-24T14:14:33Z</time>
      </trkpt>
      <trkpt lat="44.34168" lon="4.92317">
        <ele>154.1</ele>
        <time>2021-02-24T14:14:34Z</time>
      </trkpt>
      <trkpt lat="44.34162" lon="4.92315">
        <ele>154</ele>
        <time>2021-02-24T14:14:35Z</time>
      </trkpt>
      <trkpt lat="44.34156" lon="4.92312">
        <ele>153.9</ele>
        <time>2021-02-24T14:14:36Z</time>
      </trkpt>
      <trkpt lat="44.3415" lon="4.9231">
        <ele>153.9</ele>
        <time>2021-02-24T14:14:37Z</time>
      </trkpt>
      <trkpt lat="44.34144" lon="4.92307">
        <ele>153.9</ele>
        <time>2021-02-24T14:14:38Z</time>
      </trkpt>
      <trkpt lat="44.34138" lon="4.92305">
        <ele>153.8</ele>
        <time>2021-02-24T14:14:39Z</time>
      </trkpt>
      <trkpt lat="44.34132" lon="4.92303">
        <ele>153.8</ele>
        <time>2021-02-24T14:14:40Z</time>
      </trkpt>
      <trkpt lat="44.34126" lon="4.92301">
        <ele>153.8</ele>
        <time>2021-02-24T14:14:41Z</time>
      </trkpt>
      <trkpt lat="44.34119" lon="4.92301">
        <ele>153.8</ele>
        <time>2021-02-24T14:14:42Z</time>
      </trkpt>
      <trkpt lat="44.34113" lon="4.92302">
        <ele>153.8</ele>
        <time>2021-02-24T14:14:43Z</time>
      </trkpt>
      <trkpt lat="44.34107" lon="4.92304">
        <ele>153.8</ele>
        <time>2021-02-24T14:14:44Z</time>
      </trkpt>
      <trkpt lat="44.34101" lon="4.92307">
        <ele>153.8</ele>
        <time>2021-02-24T14:14:45Z</time>
      </trkpt>
      <trkpt lat="44.34095" lon="4.92311">
        <ele>153.8</ele>
        <time>2021-02-24T14:14:46Z</time>
      </trkpt>
      <trkpt lat="44.3409" lon="4.92317">
        <ele>153.8</ele>
        <time>2021-02-24T14:14:47Z</time>
      </trkpt>
      <trkpt lat="44.34085" lon="4.92322">
        <ele>153.7</ele>
        <time>2021-02-24T14:14:48Z</time>
      </trkpt>
      <trkpt lat="44.3408" lon="4.92327">
        <ele>153.7</ele>
        <time>2021-02-24T14:14:49Z</time>
      </trkpt>
      <trkpt lat="44.34075" lon="4.92333">
        <ele>153.7</ele>
        <time>2021-02-24T14:14:50Z</time>
      </trkpt>
      <trkpt lat="44.34065" lon="4.92344">
        <ele>153.7</ele>
        <time>2021-02-24T14:14:51Z</time>
      </trkpt>
      <trkpt lat="44.34065" lon="4.92344">
        <ele>153.7</ele>
        <time>2021-02-24T14:14:52Z</time>
      </trkpt>
      <trkpt lat="44.3406" lon="4.9235">
        <ele>153.7</ele>
        <time>2021-02-24T14:14:53Z</time>
      </trkpt>
      <trkpt lat="44.34055" lon="4.92356">
        <ele>153.7</ele>
        <time>2021-02-24T14:14:54Z</time>
      </trkpt>
      <trkpt lat="44.3405" lon="4.92362">
        <ele>153.7</ele>
        <time>2021-02-24T14:14:55Z</time>
      </trkpt>
      <trkpt lat="44.34045" lon="4.92367">
        <ele>153.7</ele>
        <time>2021-02-24T14:14:56Z</time>
      </trkpt>
      <trkpt lat="44.3404" lon="4.92373">
        <ele>153.7</ele>
        <time>2021-02-24T14:14:57Z</time>
      </trkpt>
      <trkpt lat="44.34035" lon="4.92378">
        <ele>153.7</ele>
        <time>2021-02-24T14:14:58Z</time>
      </trkpt>
      <trkpt lat="44.3403" lon="4.92384">
        <ele>153.7</ele>
        <time>2021-02-24T14:14:59Z</time>
      </trkpt>
      <trkpt lat="44.34025" lon="4.92389">
        <ele>153.8</ele>
        <time>2021-02-24T14:15:00Z</time>
      </trkpt>
      <trkpt lat="44.3402" lon="4.92395">
        <ele>153.8</ele>
        <time>2021-02-24T14:15:01Z</time>
      </trkpt>
      <trkpt lat="44.34015" lon="4.924">
        <ele>153.8</ele>
        <time>2021-02-24T14:15:02Z</time>
      </trkpt>
      <trkpt lat="44.3401" lon="4.92406">
        <ele>153.8</ele>
        <time>2021-02-24T14:15:03Z</time>
      </trkpt>
      <trkpt lat="44.34005" lon="4.92411">
        <ele>153.8</ele>
        <time>2021-02-24T14:15:04Z</time>
      </trkpt>
      <trkpt lat="44.34" lon="4.92416">
        <ele>153.9</ele>
        <time>2021-02-24T14:15:05Z</time>
      </trkpt>
      <trkpt lat="44.33994" lon="4.92421">
        <ele>153.9</ele>
        <time>2021-02-24T14:15:06Z</time>
      </trkpt>
      <trkpt lat="44.33988" lon="4.92424">
        <ele>153.9</ele>
        <time>2021-02-24T14:15:07Z</time>
      </trkpt>
      <trkpt lat="44.33982" lon="4.92428">
        <ele>153.9</ele>
        <time>2021-02-24T14:15:08Z</time>
      </trkpt>
      <trkpt lat="44.33976" lon="4.9243">
        <ele>154</ele>
        <time>2021-02-24T14:15:09Z</time>
      </trkpt>
      <trkpt lat="44.3397" lon="4.92433">
        <ele>154</ele>
        <time>2021-02-24T14:15:10Z</time>
      </trkpt>
      <trkpt lat="44.33962" lon="4.92436">
        <ele>154</ele>
        <time>2021-02-24T14:15:11Z</time>
      </trkpt>
      <trkpt lat="44.33959" lon="4.92438">
        <ele>154.1</ele>
        <time>2021-02-24T14:15:12Z</time>
      </trkpt>
      <trkpt lat="44.33953" lon="4.92441">
        <ele>154.1</ele>
        <time>2021-02-24T14:15:13Z</time>
      </trkpt>
      <trkpt lat="44.33947" lon="4.92444">
        <ele>154.1</ele>
        <time>2021-02-24T14:15:14Z</time>
      </trkpt>
      <trkpt lat="44.33942" lon="4.92448">
        <ele>154.1</ele>
        <time>2021-02-24T14:15:15Z</time>
      </trkpt>
      <trkpt lat="44.33937" lon="4.92453">
        <ele>154.2</ele>
        <time>2021-02-24T14:15:16Z</time>
      </trkpt>
      <trkpt lat="44.33932" lon="4.92458">
        <ele>154.2</ele>
        <time>2021-02-24T14:15:17Z</time>
      </trkpt>
      <trkpt lat="44.33927" lon="4.92463">
        <ele>154.2</ele>
        <time>2021-02-24T14:15:18Z</time>
      </trkpt>
      <trkpt lat="44.33922" lon="4.92469">
        <ele>154.3</ele>
        <time>2021-02-24T14:15:19Z</time>
      </trkpt>
      <trkpt lat="44.33918" lon="4.92474">
        <ele>154.3</ele>
        <time>2021-02-24T14:15:20Z</time>
      </trkpt>
      <trkpt lat="44.33913" lon="4.9248">
        <ele>154.3</ele>
        <time>2021-02-24T14:15:21Z</time>
      </trkpt>
      <trkpt lat="44.33909" lon="4.92485">
        <ele>154.4</ele>
        <time>2021-02-24T14:15:22Z</time>
      </trkpt>
      <trkpt lat="44.33904" lon="4.92491">
        <ele>154.4</ele>
        <time>2021-02-24T14:15:23Z</time>
      </trkpt>
      <trkpt lat="44.339" lon="4.92497">
        <ele>154.5</ele>
        <time>2021-02-24T14:15:24Z</time>
      </trkpt>
      <trkpt lat="44.33895" lon="4.92502">
        <ele>154.6</ele>
        <time>2021-02-24T14:15:25Z</time>
      </trkpt>
      <trkpt lat="44.33891" lon="4.92508">
        <ele>154.6</ele>
        <time>2021-02-24T14:15:26Z</time>
      </trkpt>
      <trkpt lat="44.33887" lon="4.92514">
        <ele>154.7</ele>
        <time>2021-02-24T14:15:27Z</time>
      </trkpt>
      <trkpt lat="44.33882" lon="4.92519">
        <ele>154.8</ele>
        <time>2021-02-24T14:15:28Z</time>
      </trkpt>
      <trkpt lat="44.33878" lon="4.92525">
        <ele>154.9</ele>
        <time>2021-02-24T14:15:29Z</time>
      </trkpt>
      <trkpt lat="44.33874" lon="4.9253">
        <ele>155</ele>
        <time>2021-02-24T14:15:30Z</time>
      </trkpt>
      <trkpt lat="44.33869" lon="4.92535">
        <ele>155.1</ele>
        <time>2021-02-24T14:15:31Z</time>
      </trkpt>
      <trkpt lat="44.33865" lon="4.9254">
        <ele>155.2</ele>
        <time>2021-02-24T14:15:32Z</time>
      </trkpt>
      <trkpt lat="44.33861" lon="4.92546">
        <ele>155.3</ele>
        <time>2021-02-24T14:15:33Z</time>
      </trkpt>
      <trkpt lat="44.33857" lon="4.92551">
        <ele>155.4</ele>
        <time>2021-02-24T14:15:34Z</time>
      </trkpt>
      <trkpt lat="44.33853" lon="4.92556">
        <ele>155.5</ele>
        <time>2021-02-24T14:15:35Z</time>
      </trkpt>
      <trkpt lat="44.33849" lon="4.92561">
        <ele>155.6</ele>
        <time>2021-02-24T14:15:36Z</time>
      </trkpt>
      <trkpt lat="44.33845" lon="4.92566">
        <ele>155.7</ele>
        <time>2021-02-24T14:15:37Z</time>
      </trkpt>
      <trkpt lat="44.33841" lon="4.92572">
        <ele>155.8</ele>
        <time>2021-02-24T14:15:38Z</time>
      </trkpt>
      <trkpt lat="44.33837" lon="4.92577">
        <ele>155.9</ele>
        <time>2021-02-24T14:15:39Z</time>
      </trkpt>
      <trkpt lat="44.33833" lon="4.92582">
        <ele>156</ele>
        <time>2021-02-24T14:15:40Z</time>
      </trkpt>
      <trkpt lat="44.33829" lon="4.92587">
        <ele>156.1</ele>
        <time>2021-02-24T14:15:41Z</time>
      </trkpt>
      <trkpt lat="44.33825" lon="4.92592">
        <ele>156.2</ele>
        <time>2021-02-24T14:15:42Z</time>
      </trkpt>
      <trkpt lat="44.33821" lon="4.92597">
        <ele>156.3</ele>
        <time>2021-02-24T14:15:43Z</time>
      </trkpt>
      <trkpt lat="44.33817" lon="4.92602">
        <ele>156.4</ele>
        <time>2021-02-24T14:15:44Z</time>
      </trkpt>
      <trkpt lat="44.33811" lon="4.9261">
        <ele>156.6</ele>
        <time>2021-02-24T14:15:45Z</time>
      </trkpt>
      <trkpt lat="44.33808" lon="4.92612">
        <ele>156.6</ele>
        <time>2021-02-24T14:15:46Z</time>
      </trkpt>
      <trkpt lat="44.33804" lon="4.92617">
        <ele>156.7</ele>
        <time>2021-02-24T14:15:47Z</time>
      </trkpt>
      <trkpt lat="44.338" lon="4.92622">
        <ele>156.8</ele>
        <time>2021-02-24T14:15:48Z</time>
      </trkpt>
      <trkpt lat="44.33796" lon="4.92627">
        <ele>156.9</ele>
        <time>2021-02-24T14:15:49Z</time>
      </trkpt>
      <trkpt lat="44.33791" lon="4.92631">
        <ele>157</ele>
        <time>2021-02-24T14:15:50Z</time>
      </trkpt>
      <trkpt lat="44.33787" lon="4.92636">
        <ele>157.2</ele>
        <time>2021-02-24T14:15:51Z</time>
      </trkpt>
      <trkpt lat="44.33782" lon="4.9264">
        <ele>157.3</ele>
        <time>2021-02-24T14:15:52Z</time>
      </trkpt>
      <trkpt lat="44.33778" lon="4.92645">
        <ele>157.4</ele>
        <time>2021-02-24T14:15:53Z</time>
      </trkpt>
      <trkpt lat="44.33773" lon="4.92649">
        <ele>157.5</ele>
        <time>2021-02-24T14:15:54Z</time>
      </trkpt>
      <trkpt lat="44.33768" lon="4.92654">
        <ele>157.6</ele>
        <time>2021-02-24T14:15:55Z</time>
      </trkpt>
      <trkpt lat="44.33764" lon="4.92659">
        <ele>157.7</ele>
        <time>2021-02-24T14:15:56Z</time>
      </trkpt>
      <trkpt lat="44.33759" lon="4.92664">
        <ele>157.9</ele>
        <time>2021-02-24T14:15:57Z</time>
      </trkpt>
      <trkpt lat="44.33752" lon="4.9267">
        <ele>158.1</ele>
        <time>2021-02-24T14:15:58Z</time>
      </trkpt>
      <trkpt lat="44.3375" lon="4.92673">
        <ele>158.2</ele>
        <time>2021-02-24T14:15:59Z</time>
      </trkpt>
      <trkpt lat="44.33746" lon="4.92677">
        <ele>158.3</ele>
        <time>2021-02-24T14:16:00Z</time>
      </trkpt>
      <trkpt lat="44.33741" lon="4.92681">
        <ele>158.4</ele>
        <time>2021-02-24T14:16:01Z</time>
      </trkpt>
      <trkpt lat="44.33737" lon="4.92686">
        <ele>158.5</ele>
        <time>2021-02-24T14:16:02Z</time>
      </trkpt>
      <trkpt lat="44.33732" lon="4.9269">
        <ele>158.6</ele>
        <time>2021-02-24T14:16:03Z</time>
      </trkpt>
      <trkpt lat="44.33728" lon="4.92694">
        <ele>158.7</ele>
        <time>2021-02-24T14:16:04Z</time>
      </trkpt>
      <trkpt lat="44.33724" lon="4.92698">
        <ele>158.8</ele>
        <time>2021-02-24T14:16:05Z</time>
      </trkpt>
      <trkpt lat="44.33719" lon="4.92702">
        <ele>158.9</ele>
        <time>2021-02-24T14:16:06Z</time>
      </trkpt>
      <trkpt lat="44.33715" lon="4.92707">
        <ele>159.1</ele>
        <time>2021-02-24T14:16:07Z</time>
      </trkpt>
      <trkpt lat="44.33709" lon="4.92714">
        <ele>159.2</ele>
        <time>2021-02-24T14:16:08Z</time>
      </trkpt>
      <trkpt lat="44.33706" lon="4.92716">
        <ele>159.3</ele>
        <time>2021-02-24T14:16:09Z</time>
      </trkpt>
      <trkpt lat="44.33702" lon="4.92721">
        <ele>159.4</ele>
        <time>2021-02-24T14:16:10Z</time>
      </trkpt>
      <trkpt lat="44.33698" lon="4.92725">
        <ele>159.5</ele>
        <time>2021-02-24T14:16:11Z</time>
      </trkpt>
      <trkpt lat="44.33694" lon="4.9273">
        <ele>159.7</ele>
        <time>2021-02-24T14:16:12Z</time>
      </trkpt>
      <trkpt lat="44.3369" lon="4.92734">
        <ele>159.8</ele>
        <time>2021-02-24T14:16:13Z</time>
      </trkpt>
      <trkpt lat="44.33686" lon="4.92739">
        <ele>159.9</ele>
        <time>2021-02-24T14:16:14Z</time>
      </trkpt>
      <trkpt lat="44.33682" lon="4.92744">
        <ele>160</ele>
        <time>2021-02-24T14:16:15Z</time>
      </trkpt>
      <trkpt lat="44.33677" lon="4.92749">
        <ele>160.1</ele>
        <time>2021-02-24T14:16:16Z</time>
      </trkpt>
      <trkpt lat="44.33674" lon="4.92753">
        <ele>160.3</ele>
        <time>2021-02-24T14:16:17Z</time>
      </trkpt>
      <trkpt lat="44.3367" lon="4.92759">
        <ele>160.4</ele>
        <time>2021-02-24T14:16:18Z</time>
      </trkpt>
      <trkpt lat="44.33666" lon="4.92764">
        <ele>160.4</ele>
        <time>2021-02-24T14:16:19Z</time>
      </trkpt>
      <trkpt lat="44.33659" lon="4.92774">
        <ele>160.6</ele>
        <time>2021-02-24T14:16:20Z</time>
      </trkpt>
      <trkpt lat="44.33659" lon="4.92774">
        <ele>160.6</ele>
        <time>2021-02-24T14:16:21Z</time>
      </trkpt>
      <trkpt lat="44.33655" lon="4.92779">
        <ele>160.7</ele>
        <time>2021-02-24T14:16:22Z</time>
      </trkpt>
      <trkpt lat="44.33651" lon="4.92784">
        <ele>160.9</ele>
        <time>2021-02-24T14:16:23Z</time>
      </trkpt>
      <trkpt lat="44.33647" lon="4.92789">
        <ele>161</ele>
        <time>2021-02-24T14:16:24Z</time>
      </trkpt>
      <trkpt lat="44.33643" lon="4.92795">
        <ele>161.1</ele>
        <time>2021-02-24T14:16:25Z</time>
      </trkpt>
      <trkpt lat="44.33639" lon="4.928">
        <ele>161.2</ele>
        <time>2021-02-24T14:16:26Z</time>
      </trkpt>
      <trkpt lat="44.33634" lon="4.92808">
        <ele>161.3</ele>
        <time>2021-02-24T14:16:27Z</time>
      </trkpt>
      <trkpt lat="44.33632" lon="4.9281">
        <ele>161.4</ele>
        <time>2021-02-24T14:16:28Z</time>
      </trkpt>
      <trkpt lat="44.33626" lon="4.92818">
        <ele>161.6</ele>
        <time>2021-02-24T14:16:29Z</time>
      </trkpt>
      <trkpt lat="44.33624" lon="4.92821">
        <ele>161.6</ele>
        <time>2021-02-24T14:16:30Z</time>
      </trkpt>
      <trkpt lat="44.33621" lon="4.92826">
        <ele>161.8</ele>
        <time>2021-02-24T14:16:31Z</time>
      </trkpt>
      <trkpt lat="44.33617" lon="4.92832">
        <ele>161.9</ele>
        <time>2021-02-24T14:16:32Z</time>
      </trkpt>
      <trkpt lat="44.33613" lon="4.92837">
        <ele>162</ele>
        <time>2021-02-24T14:16:33Z</time>
      </trkpt>
      <trkpt lat="44.3361" lon="4.92842">
        <ele>162.1</ele>
        <time>2021-02-24T14:16:34Z</time>
      </trkpt>
      <trkpt lat="44.33606" lon="4.92847">
        <ele>162.2</ele>
        <time>2021-02-24T14:16:35Z</time>
      </trkpt>
      <trkpt lat="44.33603" lon="4.92852">
        <ele>162.3</ele>
        <time>2021-02-24T14:16:36Z</time>
      </trkpt>
      <trkpt lat="44.33599" lon="4.92858">
        <ele>162.4</ele>
        <time>2021-02-24T14:16:37Z</time>
      </trkpt>
      <trkpt lat="44.33595" lon="4.92863">
        <ele>162.5</ele>
        <time>2021-02-24T14:16:38Z</time>
      </trkpt>
      <trkpt lat="44.33592" lon="4.92868">
        <ele>162.6</ele>
        <time>2021-02-24T14:16:39Z</time>
      </trkpt>
      <trkpt lat="44.33588" lon="4.92874">
        <ele>162.7</ele>
        <time>2021-02-24T14:16:40Z</time>
      </trkpt>
      <trkpt lat="44.33584" lon="4.92879">
        <ele>162.8</ele>
        <time>2021-02-24T14:16:41Z</time>
      </trkpt>
      <trkpt lat="44.33581" lon="4.92884">
        <ele>162.9</ele>
        <time>2021-02-24T14:16:42Z</time>
      </trkpt>
      <trkpt lat="44.33577" lon="4.92889">
        <ele>163</ele>
        <time>2021-02-24T14:16:43Z</time>
      </trkpt>
      <trkpt lat="44.33574" lon="4.92894">
        <ele>163.1</ele>
        <time>2021-02-24T14:16:44Z</time>
      </trkpt>
      <trkpt lat="44.3357" lon="4.929">
        <ele>163.2</ele>
        <time>2021-02-24T14:16:45Z</time>
      </trkpt>
      <trkpt lat="44.33567" lon="4.92905">
        <ele>163.3</ele>
        <time>2021-02-24T14:16:46Z</time>
      </trkpt>
      <trkpt lat="44.33563" lon="4.9291">
        <ele>163.3</ele>
        <time>2021-02-24T14:16:47Z</time>
      </trkpt>
      <trkpt lat="44.3356" lon="4.92915">
        <ele>163.4</ele>
        <time>2021-02-24T14:16:48Z</time>
      </trkpt>
      <trkpt lat="44.33556" lon="4.9292">
        <ele>163.5</ele>
        <time>2021-02-24T14:16:49Z</time>
      </trkpt>
      <trkpt lat="44.33553" lon="4.92925">
        <ele>163.6</ele>
        <time>2021-02-24T14:16:50Z</time>
      </trkpt>
      <trkpt lat="44.33549" lon="4.9293">
        <ele>163.7</ele>
        <time>2021-02-24T14:16:51Z</time>
      </trkpt>
      <trkpt lat="44.33546" lon="4.92935">
        <ele>163.8</ele>
        <time>2021-02-24T14:16:52Z</time>
      </trkpt>
      <trkpt lat="44.33543" lon="4.92939">
        <ele>163.9</ele>
        <time>2021-02-24T14:16:53Z</time>
      </trkpt>
      <trkpt lat="44.33539" lon="4.92944">
        <ele>164</ele>
        <time>2021-02-24T14:16:54Z</time>
      </trkpt>
      <trkpt lat="44.33534" lon="4.92952">
        <ele>164.1</ele>
        <time>2021-02-24T14:16:55Z</time>
      </trkpt>
      <trkpt lat="44.33533" lon="4.92954">
        <ele>164.1</ele>
        <time>2021-02-24T14:16:56Z</time>
      </trkpt>
      <trkpt lat="44.33529" lon="4.92959">
        <ele>164.1</ele>
        <time>2021-02-24T14:16:57Z</time>
      </trkpt>
      <trkpt lat="44.33526" lon="4.92964">
        <ele>164.2</ele>
        <time>2021-02-24T14:16:58Z</time>
      </trkpt>
      <trkpt lat="44.33523" lon="4.92968">
        <ele>164.2</ele>
        <time>2021-02-24T14:16:59Z</time>
      </trkpt>
      <trkpt lat="44.3352" lon="4.92973">
        <ele>164.3</ele>
        <time>2021-02-24T14:17:00Z</time>
      </trkpt>
      <trkpt lat="44.33517" lon="4.92977">
        <ele>164.3</ele>
        <time>2021-02-24T14:17:01Z</time>
      </trkpt>
      <trkpt lat="44.33513" lon="4.92982">
        <ele>164.4</ele>
        <time>2021-02-24T14:17:02Z</time>
      </trkpt>
      <trkpt lat="44.3351" lon="4.92986">
        <ele>164.4</ele>
        <time>2021-02-24T14:17:03Z</time>
      </trkpt>
      <trkpt lat="44.33507" lon="4.9299">
        <ele>164.4</ele>
        <time>2021-02-24T14:17:04Z</time>
      </trkpt>
      <trkpt lat="44.33503" lon="4.92995">
        <ele>164.4</ele>
        <time>2021-02-24T14:17:05Z</time>
      </trkpt>
      <trkpt lat="44.33499" lon="4.93">
        <ele>164.4</ele>
        <time>2021-02-24T14:17:06Z</time>
      </trkpt>
      <trkpt lat="44.33496" lon="4.93005">
        <ele>164.4</ele>
        <time>2021-02-24T14:17:07Z</time>
      </trkpt>
      <trkpt lat="44.33492" lon="4.93009">
        <ele>164.4</ele>
        <time>2021-02-24T14:17:08Z</time>
      </trkpt>
      <trkpt lat="44.33488" lon="4.93014">
        <ele>164.5</ele>
        <time>2021-02-24T14:17:09Z</time>
      </trkpt>
      <trkpt lat="44.33484" lon="4.93019">
        <ele>164.5</ele>
        <time>2021-02-24T14:17:10Z</time>
      </trkpt>
      <trkpt lat="44.3348" lon="4.93023">
        <ele>164.5</ele>
        <time>2021-02-24T14:17:11Z</time>
      </trkpt>
      <trkpt lat="44.33476" lon="4.93028">
        <ele>164.5</ele>
        <time>2021-02-24T14:17:12Z</time>
      </trkpt>
      <trkpt lat="44.33472" lon="4.93033">
        <ele>164.6</ele>
        <time>2021-02-24T14:17:13Z</time>
      </trkpt>
      <trkpt lat="44.33468" lon="4.93037">
        <ele>164.6</ele>
        <time>2021-02-24T14:17:14Z</time>
      </trkpt>
      <trkpt lat="44.33463" lon="4.93042">
        <ele>164.6</ele>
        <time>2021-02-24T14:17:15Z</time>
      </trkpt>
      <trkpt lat="44.33459" lon="4.93047">
        <ele>164.6</ele>
        <time>2021-02-24T14:17:16Z</time>
      </trkpt>
      <trkpt lat="44.33455" lon="4.93051">
        <ele>164.6</ele>
        <time>2021-02-24T14:17:17Z</time>
      </trkpt>
      <trkpt lat="44.3345" lon="4.93056">
        <ele>164.6</ele>
        <time>2021-02-24T14:17:18Z</time>
      </trkpt>
      <trkpt lat="44.33446" lon="4.93061">
        <ele>164.6</ele>
        <time>2021-02-24T14:17:19Z</time>
      </trkpt>
      <trkpt lat="44.33441" lon="4.93066">
        <ele>164.6</ele>
        <time>2021-02-24T14:17:20Z</time>
      </trkpt>
      <trkpt lat="44.33437" lon="4.93071">
        <ele>164.6</ele>
        <time>2021-02-24T14:17:21Z</time>
      </trkpt>
      <trkpt lat="44.33432" lon="4.93076">
        <ele>164.6</ele>
        <time>2021-02-24T14:17:22Z</time>
      </trkpt>
      <trkpt lat="44.33423" lon="4.93086">
        <ele>164.6</ele>
        <time>2021-02-24T14:17:23Z</time>
      </trkpt>
      <trkpt lat="44.33423" lon="4.93086">
        <ele>164.6</ele>
        <time>2021-02-24T14:17:24Z</time>
      </trkpt>
      <trkpt lat="44.33418" lon="4.93091">
        <ele>164.6</ele>
        <time>2021-02-24T14:17:25Z</time>
      </trkpt>
      <trkpt lat="44.33413" lon="4.93096">
        <ele>164.6</ele>
        <time>2021-02-24T14:17:26Z</time>
      </trkpt>
      <trkpt lat="44.33408" lon="4.93101">
        <ele>164.6</ele>
        <time>2021-02-24T14:17:27Z</time>
      </trkpt>
      <trkpt lat="44.33404" lon="4.93105">
        <ele>164.6</ele>
        <time>2021-02-24T14:17:28Z</time>
      </trkpt>
      <trkpt lat="44.33399" lon="4.9311">
        <ele>164.6</ele>
        <time>2021-02-24T14:17:29Z</time>
      </trkpt>
      <trkpt lat="44.33395" lon="4.93115">
        <ele>164.6</ele>
        <time>2021-02-24T14:17:30Z</time>
      </trkpt>
      <trkpt lat="44.3339" lon="4.93119">
        <ele>164.6</ele>
        <time>2021-02-24T14:17:31Z</time>
      </trkpt>
      <trkpt lat="44.33386" lon="4.93123">
        <ele>164.6</ele>
        <time>2021-02-24T14:17:32Z</time>
      </trkpt>
      <trkpt lat="44.33381" lon="4.93128">
        <ele>164.6</ele>
        <time>2021-02-24T14:17:33Z</time>
      </trkpt>
      <trkpt lat="44.33376" lon="4.93132">
        <ele>164.6</ele>
        <time>2021-02-24T14:17:34Z</time>
      </trkpt>
      <trkpt lat="44.33372" lon="4.93136">
        <ele>164.6</ele>
        <time>2021-02-24T14:17:35Z</time>
      </trkpt>
      <trkpt lat="44.33367" lon="4.93141">
        <ele>164.6</ele>
        <time>2021-02-24T14:17:36Z</time>
      </trkpt>
      <trkpt lat="44.33362" lon="4.93145">
        <ele>164.5</ele>
        <time>2021-02-24T14:17:37Z</time>
      </trkpt>
      <trkpt lat="44.33358" lon="4.93149">
        <ele>164.5</ele>
        <time>2021-02-24T14:17:38Z</time>
      </trkpt>
      <trkpt lat="44.33353" lon="4.93153">
        <ele>164.5</ele>
        <time>2021-02-24T14:17:39Z</time>
      </trkpt>
      <trkpt lat="44.33347" lon="4.93157">
        <ele>164.5</ele>
        <time>2021-02-24T14:17:40Z</time>
      </trkpt>
      <trkpt lat="44.33342" lon="4.93162">
        <ele>164.5</ele>
        <time>2021-02-24T14:17:41Z</time>
      </trkpt>
      <trkpt lat="44.33337" lon="4.93166">
        <ele>164.4</ele>
        <time>2021-02-24T14:17:42Z</time>
      </trkpt>
      <trkpt lat="44.33329" lon="4.93173">
        <ele>164.4</ele>
        <time>2021-02-24T14:17:43Z</time>
      </trkpt>
      <trkpt lat="44.33326" lon="4.93175">
        <ele>164.4</ele>
        <time>2021-02-24T14:17:44Z</time>
      </trkpt>
      <trkpt lat="44.33321" lon="4.93179">
        <ele>164.4</ele>
        <time>2021-02-24T14:17:45Z</time>
      </trkpt>
      <trkpt lat="44.33316" lon="4.93183">
        <ele>164.4</ele>
        <time>2021-02-24T14:17:46Z</time>
      </trkpt>
      <trkpt lat="44.3331" lon="4.93187">
        <ele>164.4</ele>
        <time>2021-02-24T14:17:47Z</time>
      </trkpt>
      <trkpt lat="44.33305" lon="4.93191">
        <ele>164.4</ele>
        <time>2021-02-24T14:17:48Z</time>
      </trkpt>
      <trkpt lat="44.333" lon="4.93195">
        <ele>164.4</ele>
        <time>2021-02-24T14:17:49Z</time>
      </trkpt>
      <trkpt lat="44.33294" lon="4.93198">
        <ele>164.4</ele>
        <time>2021-02-24T14:17:50Z</time>
      </trkpt>
      <trkpt lat="44.33288" lon="4.93202">
        <ele>164.5</ele>
        <time>2021-02-24T14:17:51Z</time>
      </trkpt>
      <trkpt lat="44.33283" lon="4.93206">
        <ele>164.5</ele>
        <time>2021-02-24T14:17:52Z</time>
      </trkpt>
      <trkpt lat="44.33278" lon="4.93209">
        <ele>164.5</ele>
        <time>2021-02-24T14:17:53Z</time>
      </trkpt>
      <trkpt lat="44.33272" lon="4.93213">
        <ele>164.5</ele>
        <time>2021-02-24T14:17:54Z</time>
      </trkpt>
      <trkpt lat="44.33267" lon="4.93216">
        <ele>164.5</ele>
        <time>2021-02-24T14:17:55Z</time>
      </trkpt>
      <trkpt lat="44.33262" lon="4.9322">
        <ele>164.5</ele>
        <time>2021-02-24T14:17:56Z</time>
      </trkpt>
      <trkpt lat="44.33257" lon="4.93223">
        <ele>164.5</ele>
        <time>2021-02-24T14:17:57Z</time>
      </trkpt>
      <trkpt lat="44.33252" lon="4.93227">
        <ele>164.6</ele>
        <time>2021-02-24T14:17:58Z</time>
      </trkpt>
      <trkpt lat="44.33247" lon="4.93231">
        <ele>164.6</ele>
        <time>2021-02-24T14:17:59Z</time>
      </trkpt>
      <trkpt lat="44.33242" lon="4.93235">
        <ele>164.6</ele>
        <time>2021-02-24T14:18:00Z</time>
      </trkpt>
      <trkpt lat="44.33232" lon="4.93244">
        <ele>164.6</ele>
        <time>2021-02-24T14:18:01Z</time>
      </trkpt>
      <trkpt lat="44.33232" lon="4.93244">
        <ele>164.6</ele>
        <time>2021-02-24T14:18:02Z</time>
      </trkpt>
      <trkpt lat="44.33227" lon="4.93249">
        <ele>164.6</ele>
        <time>2021-02-24T14:18:03Z</time>
      </trkpt>
      <trkpt lat="44.33222" lon="4.93255">
        <ele>164.6</ele>
        <time>2021-02-24T14:18:04Z</time>
      </trkpt>
      <trkpt lat="44.33217" lon="4.9326">
        <ele>164.6</ele>
        <time>2021-02-24T14:18:05Z</time>
      </trkpt>
      <trkpt lat="44.33213" lon="4.93265">
        <ele>164.7</ele>
        <time>2021-02-24T14:18:06Z</time>
      </trkpt>
      <trkpt lat="44.33208" lon="4.93271">
        <ele>164.7</ele>
        <time>2021-02-24T14:18:07Z</time>
      </trkpt>
      <trkpt lat="44.33204" lon="4.93276">
        <ele>164.7</ele>
        <time>2021-02-24T14:18:08Z</time>
      </trkpt>
      <trkpt lat="44.332" lon="4.93282">
        <ele>164.7</ele>
        <time>2021-02-24T14:18:09Z</time>
      </trkpt>
      <trkpt lat="44.33196" lon="4.93288">
        <ele>164.7</ele>
        <time>2021-02-24T14:18:10Z</time>
      </trkpt>
      <trkpt lat="44.33193" lon="4.93294">
        <ele>164.7</ele>
        <time>2021-02-24T14:18:11Z</time>
      </trkpt>
      <trkpt lat="44.33188" lon="4.93303">
        <ele>164.8</ele>
        <time>2021-02-24T14:18:12Z</time>
      </trkpt>
      <trkpt lat="44.33186" lon="4.93306">
        <ele>164.8</ele>
        <time>2021-02-24T14:18:13Z</time>
      </trkpt>
      <trkpt lat="44.33182" lon="4.93313">
        <ele>164.8</ele>
        <time>2021-02-24T14:18:14Z</time>
      </trkpt>
      <trkpt lat="44.33179" lon="4.93319">
        <ele>164.8</ele>
        <time>2021-02-24T14:18:15Z</time>
      </trkpt>
      <trkpt lat="44.33175" lon="4.93326">
        <ele>164.9</ele>
        <time>2021-02-24T14:18:16Z</time>
      </trkpt>
      <trkpt lat="44.33172" lon="4.93332">
        <ele>164.9</ele>
        <time>2021-02-24T14:18:17Z</time>
      </trkpt>
      <trkpt lat="44.33169" lon="4.93339">
        <ele>164.9</ele>
        <time>2021-02-24T14:18:18Z</time>
      </trkpt>
      <trkpt lat="44.33165" lon="4.93345">
        <ele>164.9</ele>
        <time>2021-02-24T14:18:19Z</time>
      </trkpt>
      <trkpt lat="44.33157" lon="4.93359">
        <ele>164.9</ele>
        <time>2021-02-24T14:18:20Z</time>
      </trkpt>
      <trkpt lat="44.33156" lon="4.93361">
        <ele>164.9</ele>
        <time>2021-02-24T14:18:21Z</time>
      </trkpt>
      <trkpt lat="44.33154" lon="4.93364">
        <ele>164.9</ele>
        <time>2021-02-24T14:18:22Z</time>
      </trkpt>
      <trkpt lat="44.3315" lon="4.9337">
        <ele>164.9</ele>
        <time>2021-02-24T14:18:23Z</time>
      </trkpt>
      <trkpt lat="44.33146" lon="4.93377">
        <ele>164.9</ele>
        <time>2021-02-24T14:18:24Z</time>
      </trkpt>
      <trkpt lat="44.33141" lon="4.93383">
        <ele>164.8</ele>
        <time>2021-02-24T14:18:25Z</time>
      </trkpt>
      <trkpt lat="44.33137" lon="4.93389">
        <ele>164.8</ele>
        <time>2021-02-24T14:18:26Z</time>
      </trkpt>
      <trkpt lat="44.33133" lon="4.93396">
        <ele>164.8</ele>
        <time>2021-02-24T14:18:27Z</time>
      </trkpt>
      <trkpt lat="44.33128" lon="4.93402">
        <ele>164.8</ele>
        <time>2021-02-24T14:18:28Z</time>
      </trkpt>
      <trkpt lat="44.33123" lon="4.93408">
        <ele>164.8</ele>
        <time>2021-02-24T14:18:29Z</time>
      </trkpt>
      <trkpt lat="44.33119" lon="4.93414">
        <ele>164.8</ele>
        <time>2021-02-24T14:18:30Z</time>
      </trkpt>
      <trkpt lat="44.33114" lon="4.9342">
        <ele>164.8</ele>
        <time>2021-02-24T14:18:31Z</time>
      </trkpt>
      <trkpt lat="44.33109" lon="4.93426">
        <ele>164.9</ele>
        <time>2021-02-24T14:18:32Z</time>
      </trkpt>
      <trkpt lat="44.33104" lon="4.93432">
        <ele>164.9</ele>
        <time>2021-02-24T14:18:33Z</time>
      </trkpt>
      <trkpt lat="44.331" lon="4.93439">
        <ele>164.9</ele>
        <time>2021-02-24T14:18:34Z</time>
      </trkpt>
      <trkpt lat="44.33095" lon="4.93445">
        <ele>164.9</ele>
        <time>2021-02-24T14:18:35Z</time>
      </trkpt>
      <trkpt lat="44.3309" lon="4.93451">
        <ele>165</ele>
        <time>2021-02-24T14:18:36Z</time>
      </trkpt>
      <trkpt lat="44.33086" lon="4.93457">
        <ele>165</ele>
        <time>2021-02-24T14:18:37Z</time>
      </trkpt>
      <trkpt lat="44.33081" lon="4.93463">
        <ele>165</ele>
        <time>2021-02-24T14:18:38Z</time>
      </trkpt>
      <trkpt lat="44.33077" lon="4.9347">
        <ele>165</ele>
        <time>2021-02-24T14:18:39Z</time>
      </trkpt>
      <trkpt lat="44.33072" lon="4.93476">
        <ele>165.1</ele>
        <time>2021-02-24T14:18:40Z</time>
      </trkpt>
      <trkpt lat="44.33067" lon="4.93482">
        <ele>165.1</ele>
        <time>2021-02-24T14:18:41Z</time>
      </trkpt>
      <trkpt lat="44.33063" lon="4.93488">
        <ele>165.1</ele>
        <time>2021-02-24T14:18:42Z</time>
      </trkpt>
      <trkpt lat="44.33058" lon="4.93495">
        <ele>165.1</ele>
        <time>2021-02-24T14:18:43Z</time>
      </trkpt>
      <trkpt lat="44.33053" lon="4.93501">
        <ele>165.1</ele>
        <time>2021-02-24T14:18:44Z</time>
      </trkpt>
      <trkpt lat="44.33049" lon="4.93508">
        <ele>165.1</ele>
        <time>2021-02-24T14:18:45Z</time>
      </trkpt>
      <trkpt lat="44.33044" lon="4.93514">
        <ele>165.1</ele>
        <time>2021-02-24T14:18:46Z</time>
      </trkpt>
      <trkpt lat="44.33039" lon="4.9352">
        <ele>165.1</ele>
        <time>2021-02-24T14:18:47Z</time>
      </trkpt>
      <trkpt lat="44.33035" lon="4.93526">
        <ele>165.1</ele>
        <time>2021-02-24T14:18:48Z</time>
      </trkpt>
      <trkpt lat="44.3303" lon="4.93532">
        <ele>165.1</ele>
        <time>2021-02-24T14:18:49Z</time>
      </trkpt>
      <trkpt lat="44.33025" lon="4.93538">
        <ele>165.1</ele>
        <time>2021-02-24T14:18:50Z</time>
      </trkpt>
      <trkpt lat="44.3302" lon="4.93543">
        <ele>165.1</ele>
        <time>2021-02-24T14:18:51Z</time>
      </trkpt>
      <trkpt lat="44.33015" lon="4.93548">
        <ele>165.1</ele>
        <time>2021-02-24T14:18:52Z</time>
      </trkpt>
      <trkpt lat="44.3301" lon="4.93553">
        <ele>165</ele>
        <time>2021-02-24T14:18:53Z</time>
      </trkpt>
      <trkpt lat="44.33005" lon="4.93558">
        <ele>165</ele>
        <time>2021-02-24T14:18:54Z</time>
      </trkpt>
      <trkpt lat="44.32999" lon="4.93562">
        <ele>165</ele>
        <time>2021-02-24T14:18:55Z</time>
      </trkpt>
      <trkpt lat="44.32994" lon="4.93567">
        <ele>164.9</ele>
        <time>2021-02-24T14:18:56Z</time>
      </trkpt>
      <trkpt lat="44.32989" lon="4.93571">
        <ele>164.9</ele>
        <time>2021-02-24T14:18:57Z</time>
      </trkpt>
      <trkpt lat="44.32983" lon="4.93576">
        <ele>164.9</ele>
        <time>2021-02-24T14:18:58Z</time>
      </trkpt>
      <trkpt lat="44.32975" lon="4.93582">
        <ele>164.8</ele>
        <time>2021-02-24T14:18:59Z</time>
      </trkpt>
      <trkpt lat="44.32973" lon="4.93585">
        <ele>164.8</ele>
        <time>2021-02-24T14:19:00Z</time>
      </trkpt>
      <trkpt lat="44.32967" lon="4.93589">
        <ele>164.8</ele>
        <time>2021-02-24T14:19:01Z</time>
      </trkpt>
      <trkpt lat="44.32962" lon="4.93594">
        <ele>164.8</ele>
        <time>2021-02-24T14:19:02Z</time>
      </trkpt>
      <trkpt lat="44.32957" lon="4.93599">
        <ele>164.8</ele>
        <time>2021-02-24T14:19:03Z</time>
      </trkpt>
      <trkpt lat="44.32952" lon="4.93605">
        <ele>164.9</ele>
        <time>2021-02-24T14:19:04Z</time>
      </trkpt>
      <trkpt lat="44.32947" lon="4.93611">
        <ele>164.9</ele>
        <time>2021-02-24T14:19:05Z</time>
      </trkpt>
      <trkpt lat="44.32941" lon="4.93617">
        <ele>164.9</ele>
        <time>2021-02-24T14:19:06Z</time>
      </trkpt>
      <trkpt lat="44.32936" lon="4.93622">
        <ele>164.9</ele>
        <time>2021-02-24T14:19:07Z</time>
      </trkpt>
      <trkpt lat="44.32931" lon="4.93628">
        <ele>164.9</ele>
        <time>2021-02-24T14:19:08Z</time>
      </trkpt>
      <trkpt lat="44.32927" lon="4.93634">
        <ele>165</ele>
        <time>2021-02-24T14:19:09Z</time>
      </trkpt>
      <trkpt lat="44.32922" lon="4.9364">
        <ele>165</ele>
        <time>2021-02-24T14:19:10Z</time>
      </trkpt>
      <trkpt lat="44.32917" lon="4.93646">
        <ele>165</ele>
        <time>2021-02-24T14:19:11Z</time>
      </trkpt>
      <trkpt lat="44.32912" lon="4.93651">
        <ele>165</ele>
        <time>2021-02-24T14:19:12Z</time>
      </trkpt>
      <trkpt lat="44.32907" lon="4.93656">
        <ele>165</ele>
        <time>2021-02-24T14:19:13Z</time>
      </trkpt>
      <trkpt lat="44.32903" lon="4.93662">
        <ele>165</ele>
        <time>2021-02-24T14:19:14Z</time>
      </trkpt>
      <trkpt lat="44.32898" lon="4.93667">
        <ele>165</ele>
        <time>2021-02-24T14:19:15Z</time>
      </trkpt>
      <trkpt lat="44.32893" lon="4.93672">
        <ele>165</ele>
        <time>2021-02-24T14:19:16Z</time>
      </trkpt>
      <trkpt lat="44.32888" lon="4.93678">
        <ele>165.1</ele>
        <time>2021-02-24T14:19:17Z</time>
      </trkpt>
      <trkpt lat="44.32881" lon="4.93685">
        <ele>165.1</ele>
        <time>2021-02-24T14:19:18Z</time>
      </trkpt>
      <trkpt lat="44.32878" lon="4.93687">
        <ele>165.1</ele>
        <time>2021-02-24T14:19:19Z</time>
      </trkpt>
      <trkpt lat="44.32874" lon="4.93693">
        <ele>165.1</ele>
        <time>2021-02-24T14:19:20Z</time>
      </trkpt>
      <trkpt lat="44.32869" lon="4.93698">
        <ele>165.1</ele>
        <time>2021-02-24T14:19:21Z</time>
      </trkpt>
      <trkpt lat="44.32864" lon="4.93703">
        <ele>165.1</ele>
        <time>2021-02-24T14:19:22Z</time>
      </trkpt>
      <trkpt lat="44.32859" lon="4.93708">
        <ele>165.2</ele>
        <time>2021-02-24T14:19:23Z</time>
      </trkpt>
      <trkpt lat="44.32855" lon="4.93713">
        <ele>165.2</ele>
        <time>2021-02-24T14:19:24Z</time>
      </trkpt>
      <trkpt lat="44.3285" lon="4.93718">
        <ele>165.2</ele>
        <time>2021-02-24T14:19:25Z</time>
      </trkpt>
      <trkpt lat="44.32845" lon="4.93722">
        <ele>165.2</ele>
        <time>2021-02-24T14:19:26Z</time>
      </trkpt>
      <trkpt lat="44.3284" lon="4.93727">
        <ele>165.3</ele>
        <time>2021-02-24T14:19:27Z</time>
      </trkpt>
      <trkpt lat="44.32835" lon="4.93732">
        <ele>165.3</ele>
        <time>2021-02-24T14:19:28Z</time>
      </trkpt>
      <trkpt lat="44.3283" lon="4.93737">
        <ele>165.3</ele>
        <time>2021-02-24T14:19:29Z</time>
      </trkpt>
      <trkpt lat="44.32826" lon="4.93742">
        <ele>165.3</ele>
        <time>2021-02-24T14:19:30Z</time>
      </trkpt>
      <trkpt lat="44.32821" lon="4.93747">
        <ele>165.3</ele>
        <time>2021-02-24T14:19:31Z</time>
      </trkpt>
      <trkpt lat="44.32816" lon="4.93751">
        <ele>165.3</ele>
        <time>2021-02-24T14:19:32Z</time>
      </trkpt>
      <trkpt lat="44.32811" lon="4.93755">
        <ele>165.3</ele>
        <time>2021-02-24T14:19:33Z</time>
      </trkpt>
      <trkpt lat="44.32805" lon="4.93759">
        <ele>165.3</ele>
        <time>2021-02-24T14:19:34Z</time>
      </trkpt>
      <trkpt lat="44.328" lon="4.93763">
        <ele>165.4</ele>
        <time>2021-02-24T14:19:35Z</time>
      </trkpt>
      <trkpt lat="44.32795" lon="4.93767">
        <ele>165.4</ele>
        <time>2021-02-24T14:19:36Z</time>
      </trkpt>
      <trkpt lat="44.32787" lon="4.93773">
        <ele>165.4</ele>
        <time>2021-02-24T14:19:37Z</time>
      </trkpt>
      <trkpt lat="44.32784" lon="4.93774">
        <ele>165.4</ele>
        <time>2021-02-24T14:19:38Z</time>
      </trkpt>
      <trkpt lat="44.32779" lon="4.93778">
        <ele>165.4</ele>
        <time>2021-02-24T14:19:39Z</time>
      </trkpt>
      <trkpt lat="44.32773" lon="4.93781">
        <ele>165.4</ele>
        <time>2021-02-24T14:19:40Z</time>
      </trkpt>
      <trkpt lat="44.32768" lon="4.93785">
        <ele>165.4</ele>
        <time>2021-02-24T14:19:41Z</time>
      </trkpt>
      <trkpt lat="44.32762" lon="4.93789">
        <ele>165.5</ele>
        <time>2021-02-24T14:19:42Z</time>
      </trkpt>
      <trkpt lat="44.32757" lon="4.93792">
        <ele>165.5</ele>
        <time>2021-02-24T14:19:43Z</time>
      </trkpt>
      <trkpt lat="44.32751" lon="4.93796">
        <ele>165.5</ele>
        <time>2021-02-24T14:19:44Z</time>
      </trkpt>
      <trkpt lat="44.32746" lon="4.93799">
        <ele>165.5</ele>
        <time>2021-02-24T14:19:45Z</time>
      </trkpt>
      <trkpt lat="44.3274" lon="4.93803">
        <ele>165.5</ele>
        <time>2021-02-24T14:19:46Z</time>
      </trkpt>
      <trkpt lat="44.32735" lon="4.93807">
        <ele>165.6</ele>
        <time>2021-02-24T14:19:47Z</time>
      </trkpt>
      <trkpt lat="44.32729" lon="4.9381">
        <ele>165.6</ele>
        <time>2021-02-24T14:19:48Z</time>
      </trkpt>
      <trkpt lat="44.32723" lon="4.93814">
        <ele>165.7</ele>
        <time>2021-02-24T14:19:49Z</time>
      </trkpt>
      <trkpt lat="44.32718" lon="4.93817">
        <ele>165.8</ele>
        <time>2021-02-24T14:19:50Z</time>
      </trkpt>
      <trkpt lat="44.32712" lon="4.93821">
        <ele>165.8</ele>
        <time>2021-02-24T14:19:51Z</time>
      </trkpt>
      <trkpt lat="44.32706" lon="4.93825">
        <ele>165.9</ele>
        <time>2021-02-24T14:19:52Z</time>
      </trkpt>
      <trkpt lat="44.32701" lon="4.93828">
        <ele>166</ele>
        <time>2021-02-24T14:19:53Z</time>
      </trkpt>
      <trkpt lat="44.32695" lon="4.93831">
        <ele>166</ele>
        <time>2021-02-24T14:19:54Z</time>
      </trkpt>
      <trkpt lat="44.32689" lon="4.93834">
        <ele>166</ele>
        <time>2021-02-24T14:19:55Z</time>
      </trkpt>
      <trkpt lat="44.3268" lon="4.93838">
        <ele>166.1</ele>
        <time>2021-02-24T14:19:56Z</time>
      </trkpt>
      <trkpt lat="44.32676" lon="4.93839">
        <ele>166.1</ele>
        <time>2021-02-24T14:19:57Z</time>
      </trkpt>
      <trkpt lat="44.3267" lon="4.93842">
        <ele>166.2</ele>
        <time>2021-02-24T14:19:58Z</time>
      </trkpt>
      <trkpt lat="44.32664" lon="4.93844">
        <ele>166.3</ele>
        <time>2021-02-24T14:19:59Z</time>
      </trkpt>
      <trkpt lat="44.32658" lon="4.93845">
        <ele>166.3</ele>
        <time>2021-02-24T14:20:00Z</time>
      </trkpt>
      <trkpt lat="44.32652" lon="4.93847">
        <ele>166.4</ele>
        <time>2021-02-24T14:20:01Z</time>
      </trkpt>
      <trkpt lat="44.32646" lon="4.93848">
        <ele>166.4</ele>
        <time>2021-02-24T14:20:02Z</time>
      </trkpt>
      <trkpt lat="44.3264" lon="4.9385">
        <ele>166.4</ele>
        <time>2021-02-24T14:20:03Z</time>
      </trkpt>
      <trkpt lat="44.32634" lon="4.93852">
        <ele>166.5</ele>
        <time>2021-02-24T14:20:04Z</time>
      </trkpt>
      <trkpt lat="44.32625" lon="4.93854">
        <ele>166.6</ele>
        <time>2021-02-24T14:20:05Z</time>
      </trkpt>
      <trkpt lat="44.32622" lon="4.93855">
        <ele>166.6</ele>
        <time>2021-02-24T14:20:06Z</time>
      </trkpt>
      <trkpt lat="44.32616" lon="4.93856">
        <ele>166.7</ele>
        <time>2021-02-24T14:20:07Z</time>
      </trkpt>
      <trkpt lat="44.32611" lon="4.93858">
        <ele>166.9</ele>
        <time>2021-02-24T14:20:08Z</time>
      </trkpt>
      <trkpt lat="44.32605" lon="4.9386">
        <ele>167</ele>
        <time>2021-02-24T14:20:09Z</time>
      </trkpt>
      <trkpt lat="44.32599" lon="4.93862">
        <ele>167.1</ele>
        <time>2021-02-24T14:20:10Z</time>
      </trkpt>
      <trkpt lat="44.32593" lon="4.93863">
        <ele>167.2</ele>
        <time>2021-02-24T14:20:11Z</time>
      </trkpt>
      <trkpt lat="44.32588" lon="4.93865">
        <ele>167.4</ele>
        <time>2021-02-24T14:20:12Z</time>
      </trkpt>
      <trkpt lat="44.32582" lon="4.93866">
        <ele>167.4</ele>
        <time>2021-02-24T14:20:13Z</time>
      </trkpt>
      <trkpt lat="44.32577" lon="4.93867">
        <ele>167.5</ele>
        <time>2021-02-24T14:20:14Z</time>
      </trkpt>
      <trkpt lat="44.32571" lon="4.93868">
        <ele>167.5</ele>
        <time>2021-02-24T14:20:15Z</time>
      </trkpt>
      <trkpt lat="44.32566" lon="4.93869">
        <ele>167.5</ele>
        <time>2021-02-24T14:20:16Z</time>
      </trkpt>
      <trkpt lat="44.3256" lon="4.93871">
        <ele>167.4</ele>
        <time>2021-02-24T14:20:17Z</time>
      </trkpt>
      <trkpt lat="44.32554" lon="4.93872">
        <ele>167.3</ele>
        <time>2021-02-24T14:20:18Z</time>
      </trkpt>
      <trkpt lat="44.32548" lon="4.93874">
        <ele>167.1</ele>
        <time>2021-02-24T14:20:19Z</time>
      </trkpt>
      <trkpt lat="44.32542" lon="4.93876">
        <ele>167</ele>
        <time>2021-02-24T14:20:20Z</time>
      </trkpt>
      <trkpt lat="44.32536" lon="4.93879">
        <ele>166.8</ele>
        <time>2021-02-24T14:20:21Z</time>
      </trkpt>
      <trkpt lat="44.3253" lon="4.93881">
        <ele>166.6</ele>
        <time>2021-02-24T14:20:22Z</time>
      </trkpt>
      <trkpt lat="44.32524" lon="4.93882">
        <ele>166.5</ele>
        <time>2021-02-24T14:20:23Z</time>
      </trkpt>
      <trkpt lat="44.32518" lon="4.93884">
        <ele>166.4</ele>
        <time>2021-02-24T14:20:24Z</time>
      </trkpt>
      <trkpt lat="44.32512" lon="4.93885">
        <ele>166.2</ele>
        <time>2021-02-24T14:20:25Z</time>
      </trkpt>
      <trkpt lat="44.32505" lon="4.93885">
        <ele>166.1</ele>
        <time>2021-02-24T14:20:26Z</time>
      </trkpt>
      <trkpt lat="44.32498" lon="4.93885">
        <ele>165.9</ele>
        <time>2021-02-24T14:20:27Z</time>
      </trkpt>
      <trkpt lat="44.32491" lon="4.93885">
        <ele>165.7</ele>
        <time>2021-02-24T14:20:28Z</time>
      </trkpt>
      <trkpt lat="44.32485" lon="4.93883">
        <ele>165.5</ele>
        <time>2021-02-24T14:20:29Z</time>
      </trkpt>
      <trkpt lat="44.32479" lon="4.93881">
        <ele>165.3</ele>
        <time>2021-02-24T14:20:30Z</time>
      </trkpt>
      <trkpt lat="44.32473" lon="4.93879">
        <ele>165.1</ele>
        <time>2021-02-24T14:20:31Z</time>
      </trkpt>
      <trkpt lat="44.32467" lon="4.93878">
        <ele>164.9</ele>
        <time>2021-02-24T14:20:32Z</time>
      </trkpt>
      <trkpt lat="44.3246" lon="4.93877">
        <ele>164.6</ele>
        <time>2021-02-24T14:20:33Z</time>
      </trkpt>
      <trkpt lat="44.32453" lon="4.93875">
        <ele>164.4</ele>
        <time>2021-02-24T14:20:34Z</time>
      </trkpt>
      <trkpt lat="44.32445" lon="4.93873">
        <ele>164.1</ele>
        <time>2021-02-24T14:20:35Z</time>
      </trkpt>
      <trkpt lat="44.32438" lon="4.93872">
        <ele>163.8</ele>
        <time>2021-02-24T14:20:36Z</time>
      </trkpt>
      <trkpt lat="44.3243" lon="4.93869">
        <ele>163.5</ele>
        <time>2021-02-24T14:20:37Z</time>
      </trkpt>
      <trkpt lat="44.32422" lon="4.93867">
        <ele>163.2</ele>
        <time>2021-02-24T14:20:38Z</time>
      </trkpt>
      <trkpt lat="44.32415" lon="4.93865">
        <ele>163</ele>
        <time>2021-02-24T14:20:39Z</time>
      </trkpt>
      <trkpt lat="44.32407" lon="4.93864">
        <ele>162.8</ele>
        <time>2021-02-24T14:20:40Z</time>
      </trkpt>
      <trkpt lat="44.32399" lon="4.93862">
        <ele>162.6</ele>
        <time>2021-02-24T14:20:41Z</time>
      </trkpt>
      <trkpt lat="44.32391" lon="4.93861">
        <ele>162.5</ele>
        <time>2021-02-24T14:20:42Z</time>
      </trkpt>
      <trkpt lat="44.32384" lon="4.9386">
        <ele>162.4</ele>
        <time>2021-02-24T14:20:43Z</time>
      </trkpt>
      <trkpt lat="44.32376" lon="4.93861">
        <ele>162.3</ele>
        <time>2021-02-24T14:20:44Z</time>
      </trkpt>
      <trkpt lat="44.32369" lon="4.93862">
        <ele>162.2</ele>
        <time>2021-02-24T14:20:45Z</time>
      </trkpt>
      <trkpt lat="44.32362" lon="4.93864">
        <ele>162.2</ele>
        <time>2021-02-24T14:20:46Z</time>
      </trkpt>
      <trkpt lat="44.32355" lon="4.93867">
        <ele>162.1</ele>
        <time>2021-02-24T14:20:47Z</time>
      </trkpt>
      <trkpt lat="44.32349" lon="4.93871">
        <ele>162.1</ele>
        <time>2021-02-24T14:20:48Z</time>
      </trkpt>
      <trkpt lat="44.32343" lon="4.93876">
        <ele>162</ele>
        <time>2021-02-24T14:20:49Z</time>
      </trkpt>
      <trkpt lat="44.32337" lon="4.93881">
        <ele>162</ele>
        <time>2021-02-24T14:20:50Z</time>
      </trkpt>
      <trkpt lat="44.32331" lon="4.93888">
        <ele>162</ele>
        <time>2021-02-24T14:20:51Z</time>
      </trkpt>
      <trkpt lat="44.32326" lon="4.93894">
        <ele>162</ele>
        <time>2021-02-24T14:20:52Z</time>
      </trkpt>
      <trkpt lat="44.3232" lon="4.93901">
        <ele>162</ele>
        <time>2021-02-24T14:20:53Z</time>
      </trkpt>
      <trkpt lat="44.32315" lon="4.93907">
        <ele>162</ele>
        <time>2021-02-24T14:20:54Z</time>
      </trkpt>
      <trkpt lat="44.32309" lon="4.93914">
        <ele>162</ele>
        <time>2021-02-24T14:20:55Z</time>
      </trkpt>
      <trkpt lat="44.32304" lon="4.9392">
        <ele>162</ele>
        <time>2021-02-24T14:20:56Z</time>
      </trkpt>
      <trkpt lat="44.32298" lon="4.93926">
        <ele>162</ele>
        <time>2021-02-24T14:20:57Z</time>
      </trkpt>
      <trkpt lat="44.32292" lon="4.93933">
        <ele>161.9</ele>
        <time>2021-02-24T14:20:58Z</time>
      </trkpt>
      <trkpt lat="44.32286" lon="4.93939">
        <ele>161.9</ele>
        <time>2021-02-24T14:20:59Z</time>
      </trkpt>
      <trkpt lat="44.3228" lon="4.93945">
        <ele>161.9</ele>
        <time>2021-02-24T14:21:00Z</time>
      </trkpt>
      <trkpt lat="44.32275" lon="4.93951">
        <ele>161.9</ele>
        <time>2021-02-24T14:21:01Z</time>
      </trkpt>
      <trkpt lat="44.32269" lon="4.93957">
        <ele>161.9</ele>
        <time>2021-02-24T14:21:02Z</time>
      </trkpt>
      <trkpt lat="44.32263" lon="4.93963">
        <ele>161.8</ele>
        <time>2021-02-24T14:21:03Z</time>
      </trkpt>
      <trkpt lat="44.32258" lon="4.93969">
        <ele>161.8</ele>
        <time>2021-02-24T14:21:04Z</time>
      </trkpt>
      <trkpt lat="44.32253" lon="4.93975">
        <ele>161.8</ele>
        <time>2021-02-24T14:21:05Z</time>
      </trkpt>
      <trkpt lat="44.32247" lon="4.93981">
        <ele>161.8</ele>
        <time>2021-02-24T14:21:06Z</time>
      </trkpt>
      <trkpt lat="44.32242" lon="4.93987">
        <ele>161.8</ele>
        <time>2021-02-24T14:21:07Z</time>
      </trkpt>
      <trkpt lat="44.32237" lon="4.93992">
        <ele>161.8</ele>
        <time>2021-02-24T14:21:08Z</time>
      </trkpt>
      <trkpt lat="44.32232" lon="4.93998">
        <ele>161.8</ele>
        <time>2021-02-24T14:21:09Z</time>
      </trkpt>
      <trkpt lat="44.32227" lon="4.94003">
        <ele>161.8</ele>
        <time>2021-02-24T14:21:10Z</time>
      </trkpt>
      <trkpt lat="44.32222" lon="4.94009">
        <ele>161.8</ele>
        <time>2021-02-24T14:21:11Z</time>
      </trkpt>
      <trkpt lat="44.32215" lon="4.94017">
        <ele>161.8</ele>
        <time>2021-02-24T14:21:12Z</time>
      </trkpt>
      <trkpt lat="44.32212" lon="4.9402">
        <ele>161.8</ele>
        <time>2021-02-24T14:21:13Z</time>
      </trkpt>
      <trkpt lat="44.32207" lon="4.94025">
        <ele>161.8</ele>
        <time>2021-02-24T14:21:14Z</time>
      </trkpt>
      <trkpt lat="44.32202" lon="4.94031">
        <ele>161.8</ele>
        <time>2021-02-24T14:21:15Z</time>
      </trkpt>
      <trkpt lat="44.32197" lon="4.94036">
        <ele>161.8</ele>
        <time>2021-02-24T14:21:16Z</time>
      </trkpt>
      <trkpt lat="44.32192" lon="4.94042">
        <ele>161.8</ele>
        <time>2021-02-24T14:21:17Z</time>
      </trkpt>
      <trkpt lat="44.32187" lon="4.94047">
        <ele>161.9</ele>
        <time>2021-02-24T14:21:18Z</time>
      </trkpt>
      <trkpt lat="44.32182" lon="4.94053">
        <ele>161.9</ele>
        <time>2021-02-24T14:21:19Z</time>
      </trkpt>
      <trkpt lat="44.32174" lon="4.94062">
        <ele>161.9</ele>
        <time>2021-02-24T14:21:20Z</time>
      </trkpt>
      <trkpt lat="44.32172" lon="4.94064">
        <ele>161.9</ele>
        <time>2021-02-24T14:21:21Z</time>
      </trkpt>
      <trkpt lat="44.32166" lon="4.9407">
        <ele>162</ele>
        <time>2021-02-24T14:21:22Z</time>
      </trkpt>
      <trkpt lat="44.32161" lon="4.94076">
        <ele>162</ele>
        <time>2021-02-24T14:21:23Z</time>
      </trkpt>
      <trkpt lat="44.32156" lon="4.94081">
        <ele>162</ele>
        <time>2021-02-24T14:21:24Z</time>
      </trkpt>
      <trkpt lat="44.32151" lon="4.94087">
        <ele>162.1</ele>
        <time>2021-02-24T14:21:25Z</time>
      </trkpt>
      <trkpt lat="44.32146" lon="4.94092">
        <ele>162.2</ele>
        <time>2021-02-24T14:21:26Z</time>
      </trkpt>
      <trkpt lat="44.32141" lon="4.94097">
        <ele>162.2</ele>
        <time>2021-02-24T14:21:27Z</time>
      </trkpt>
      <trkpt lat="44.32135" lon="4.94103">
        <ele>162.3</ele>
        <time>2021-02-24T14:21:28Z</time>
      </trkpt>
      <trkpt lat="44.3213" lon="4.94108">
        <ele>162.3</ele>
        <time>2021-02-24T14:21:29Z</time>
      </trkpt>
      <trkpt lat="44.32121" lon="4.94119">
        <ele>162.5</ele>
        <time>2021-02-24T14:21:30Z</time>
      </trkpt>
      <trkpt lat="44.32121" lon="4.94119">
        <ele>162.5</ele>
        <time>2021-02-24T14:21:31Z</time>
      </trkpt>
      <trkpt lat="44.32116" lon="4.94124">
        <ele>162.5</ele>
        <time>2021-02-24T14:21:32Z</time>
      </trkpt>
      <trkpt lat="44.32111" lon="4.94129">
        <ele>162.6</ele>
        <time>2021-02-24T14:21:33Z</time>
      </trkpt>
      <trkpt lat="44.32106" lon="4.94135">
        <ele>162.7</ele>
        <time>2021-02-24T14:21:34Z</time>
      </trkpt>
      <trkpt lat="44.32101" lon="4.9414">
        <ele>162.7</ele>
        <time>2021-02-24T14:21:35Z</time>
      </trkpt>
      <trkpt lat="44.32096" lon="4.94145">
        <ele>162.8</ele>
        <time>2021-02-24T14:21:36Z</time>
      </trkpt>
      <trkpt lat="44.32091" lon="4.94151">
        <ele>162.9</ele>
        <time>2021-02-24T14:21:37Z</time>
      </trkpt>
      <trkpt lat="44.32087" lon="4.94156">
        <ele>163</ele>
        <time>2021-02-24T14:21:38Z</time>
      </trkpt>
      <trkpt lat="44.32082" lon="4.94161">
        <ele>163.2</ele>
        <time>2021-02-24T14:21:39Z</time>
      </trkpt>
      <trkpt lat="44.32077" lon="4.94166">
        <ele>163.3</ele>
        <time>2021-02-24T14:21:40Z</time>
      </trkpt>
      <trkpt lat="44.32073" lon="4.94171">
        <ele>163.4</ele>
        <time>2021-02-24T14:21:41Z</time>
      </trkpt>
      <trkpt lat="44.32068" lon="4.94175">
        <ele>163.6</ele>
        <time>2021-02-24T14:21:42Z</time>
      </trkpt>
      <trkpt lat="44.32064" lon="4.9418">
        <ele>163.7</ele>
        <time>2021-02-24T14:21:43Z</time>
      </trkpt>
      <trkpt lat="44.3206" lon="4.94185">
        <ele>163.9</ele>
        <time>2021-02-24T14:21:44Z</time>
      </trkpt>
      <trkpt lat="44.32056" lon="4.94189">
        <ele>164.1</ele>
        <time>2021-02-24T14:21:45Z</time>
      </trkpt>
      <trkpt lat="44.32052" lon="4.94194">
        <ele>164.2</ele>
        <time>2021-02-24T14:21:46Z</time>
      </trkpt>
      <trkpt lat="44.32048" lon="4.94198">
        <ele>164.4</ele>
        <time>2021-02-24T14:21:47Z</time>
      </trkpt>
      <trkpt lat="44.32044" lon="4.94202">
        <ele>164.6</ele>
        <time>2021-02-24T14:21:48Z</time>
      </trkpt>
      <trkpt lat="44.3204" lon="4.94206">
        <ele>164.7</ele>
        <time>2021-02-24T14:21:49Z</time>
      </trkpt>
      <trkpt lat="44.32035" lon="4.94212">
        <ele>164.9</ele>
        <time>2021-02-24T14:21:50Z</time>
      </trkpt>
      <trkpt lat="44.32034" lon="4.94214">
        <ele>165</ele>
        <time>2021-02-24T14:21:51Z</time>
      </trkpt>
      <trkpt lat="44.3203" lon="4.94217">
        <ele>165.2</ele>
        <time>2021-02-24T14:21:52Z</time>
      </trkpt>
      <trkpt lat="44.32027" lon="4.94221">
        <ele>165.3</ele>
        <time>2021-02-24T14:21:53Z</time>
      </trkpt>
      <trkpt lat="44.32024" lon="4.94224">
        <ele>165.4</ele>
        <time>2021-02-24T14:21:54Z</time>
      </trkpt>
      <trkpt lat="44.3202" lon="4.94228">
        <ele>165.6</ele>
        <time>2021-02-24T14:21:55Z</time>
      </trkpt>
      <trkpt lat="44.32017" lon="4.94231">
        <ele>165.7</ele>
        <time>2021-02-24T14:21:56Z</time>
      </trkpt>
      <trkpt lat="44.32014" lon="4.94235">
        <ele>165.8</ele>
        <time>2021-02-24T14:21:57Z</time>
      </trkpt>
      <trkpt lat="44.3201" lon="4.94239">
        <ele>166</ele>
        <time>2021-02-24T14:21:58Z</time>
      </trkpt>
      <trkpt lat="44.32007" lon="4.94242">
        <ele>166.1</ele>
        <time>2021-02-24T14:21:59Z</time>
      </trkpt>
      <trkpt lat="44.32004" lon="4.94245">
        <ele>166.2</ele>
        <time>2021-02-24T14:22:00Z</time>
      </trkpt>
      <trkpt lat="44.32001" lon="4.94249">
        <ele>166.3</ele>
        <time>2021-02-24T14:22:01Z</time>
      </trkpt>
      <trkpt lat="44.31998" lon="4.94252">
        <ele>166.4</ele>
        <time>2021-02-24T14:22:02Z</time>
      </trkpt>
      <trkpt lat="44.31994" lon="4.94255">
        <ele>166.6</ele>
        <time>2021-02-24T14:22:03Z</time>
      </trkpt>
      <trkpt lat="44.31991" lon="4.94258">
        <ele>166.7</ele>
        <time>2021-02-24T14:22:04Z</time>
      </trkpt>
      <trkpt lat="44.31988" lon="4.94261">
        <ele>166.8</ele>
        <time>2021-02-24T14:22:05Z</time>
      </trkpt>
      <trkpt lat="44.31986" lon="4.94264">
        <ele>166.9</ele>
        <time>2021-02-24T14:22:06Z</time>
      </trkpt>
      <trkpt lat="44.31983" lon="4.94267">
        <ele>167</ele>
        <time>2021-02-24T14:22:07Z</time>
      </trkpt>
      <trkpt lat="44.31978" lon="4.9427">
        <ele>167.1</ele>
        <time>2021-02-24T14:22:08Z</time>
      </trkpt>
      <trkpt lat="44.31978" lon="4.9427">
        <ele>167.1</ele>
        <time>2021-02-24T14:22:09Z</time>
      </trkpt>
      <trkpt lat="44.31976" lon="4.9427">
        <ele>167.2</ele>
        <time>2021-02-24T14:22:10Z</time>
      </trkpt>
      <trkpt lat="44.31974" lon="4.94268">
        <ele>167.1</ele>
        <time>2021-02-24T14:22:11Z</time>
      </trkpt>
      <trkpt lat="44.31973" lon="4.94265">
        <ele>167</ele>
        <time>2021-02-24T14:22:12Z</time>
      </trkpt>
      <trkpt lat="44.31973" lon="4.94262">
        <ele>167</ele>
        <time>2021-02-24T14:22:13Z</time>
      </trkpt>
      <trkpt lat="44.31973" lon="4.94259">
        <ele>166.9</ele>
        <time>2021-02-24T14:22:14Z</time>
      </trkpt>
      <trkpt lat="44.31975" lon="4.94252">
        <ele>166.7</ele>
        <time>2021-02-24T14:22:15Z</time>
      </trkpt>
      <trkpt lat="44.31975" lon="4.94252">
        <ele>166.7</ele>
        <time>2021-02-24T14:22:16Z</time>
      </trkpt>
      <trkpt lat="44.31976" lon="4.94248">
        <ele>166.6</ele>
        <time>2021-02-24T14:22:17Z</time>
      </trkpt>
      <trkpt lat="44.31976" lon="4.94244">
        <ele>166.4</ele>
        <time>2021-02-24T14:22:18Z</time>
      </trkpt>
      <trkpt lat="44.31977" lon="4.94239">
        <ele>166.3</ele>
        <time>2021-02-24T14:22:19Z</time>
      </trkpt>
      <trkpt lat="44.31978" lon="4.94235">
        <ele>166.1</ele>
        <time>2021-02-24T14:22:20Z</time>
      </trkpt>
      <trkpt lat="44.31979" lon="4.9423">
        <ele>166</ele>
        <time>2021-02-24T14:22:21Z</time>
      </trkpt>
      <trkpt lat="44.3198" lon="4.94224">
        <ele>165.9</ele>
        <time>2021-02-24T14:22:22Z</time>
      </trkpt>
      <trkpt lat="44.31982" lon="4.94219">
        <ele>165.7</ele>
        <time>2021-02-24T14:22:23Z</time>
      </trkpt>
      <trkpt lat="44.31983" lon="4.94212">
        <ele>165.5</ele>
        <time>2021-02-24T14:22:24Z</time>
      </trkpt>
      <trkpt lat="44.31984" lon="4.94205">
        <ele>165.4</ele>
        <time>2021-02-24T14:22:25Z</time>
      </trkpt>
      <trkpt lat="44.31986" lon="4.94198">
        <ele>165.2</ele>
        <time>2021-02-24T14:22:26Z</time>
      </trkpt>
      <trkpt lat="44.31987" lon="4.94191">
        <ele>165</ele>
        <time>2021-02-24T14:22:27Z</time>
      </trkpt>
      <trkpt lat="44.31989" lon="4.9418">
        <ele>164.8</ele>
        <time>2021-02-24T14:22:28Z</time>
      </trkpt>
      <trkpt lat="44.3199" lon="4.94176">
        <ele>164.7</ele>
        <time>2021-02-24T14:22:29Z</time>
      </trkpt>
      <trkpt lat="44.31992" lon="4.94169">
        <ele>164.5</ele>
        <time>2021-02-24T14:22:30Z</time>
      </trkpt>
      <trkpt lat="44.31993" lon="4.94161">
        <ele>164.3</ele>
        <time>2021-02-24T14:22:31Z</time>
      </trkpt>
      <trkpt lat="44.31995" lon="4.94153">
        <ele>164.1</ele>
        <time>2021-02-24T14:22:32Z</time>
      </trkpt>
      <trkpt lat="44.31997" lon="4.94145">
        <ele>163.9</ele>
        <time>2021-02-24T14:22:33Z</time>
      </trkpt>
      <trkpt lat="44.31999" lon="4.94136">
        <ele>163.7</ele>
        <time>2021-02-24T14:22:34Z</time>
      </trkpt>
      <trkpt lat="44.32" lon="4.94128">
        <ele>163.5</ele>
        <time>2021-02-24T14:22:35Z</time>
      </trkpt>
      <trkpt lat="44.32002" lon="4.9412">
        <ele>163.4</ele>
        <time>2021-02-24T14:22:36Z</time>
      </trkpt>
      <trkpt lat="44.32005" lon="4.94107">
        <ele>163.1</ele>
        <time>2021-02-24T14:22:37Z</time>
      </trkpt>
      <trkpt lat="44.32006" lon="4.94103">
        <ele>163.1</ele>
        <time>2021-02-24T14:22:38Z</time>
      </trkpt>
      <trkpt lat="44.32008" lon="4.94094">
        <ele>163</ele>
        <time>2021-02-24T14:22:39Z</time>
      </trkpt>
      <trkpt lat="44.32009" lon="4.94086">
        <ele>162.9</ele>
        <time>2021-02-24T14:22:40Z</time>
      </trkpt>
      <trkpt lat="44.32009" lon="4.94078">
        <ele>162.8</ele>
        <time>2021-02-24T14:22:41Z</time>
      </trkpt>
      <trkpt lat="44.32007" lon="4.94071">
        <ele>162.7</ele>
        <time>2021-02-24T14:22:42Z</time>
      </trkpt>
      <trkpt lat="44.32002" lon="4.94066">
        <ele>162.5</ele>
        <time>2021-02-24T14:22:43Z</time>
      </trkpt>
      <trkpt lat="44.31996" lon="4.94064">
        <ele>162.3</ele>
        <time>2021-02-24T14:22:44Z</time>
      </trkpt>
      <trkpt lat="44.31989" lon="4.94063">
        <ele>162.2</ele>
        <time>2021-02-24T14:22:45Z</time>
      </trkpt>
      <trkpt lat="44.31976" lon="4.94062">
        <ele>161.9</ele>
        <time>2021-02-24T14:22:46Z</time>
      </trkpt>
      <trkpt lat="44.31976" lon="4.94062">
        <ele>161.9</ele>
        <time>2021-02-24T14:22:47Z</time>
      </trkpt>
      <trkpt lat="44.3197" lon="4.94062">
        <ele>161.8</ele>
        <time>2021-02-24T14:22:48Z</time>
      </trkpt>
      <trkpt lat="44.31964" lon="4.94062">
        <ele>161.7</ele>
        <time>2021-02-24T14:22:49Z</time>
      </trkpt>
      <trkpt lat="44.31958" lon="4.94061">
        <ele>161.6</ele>
        <time>2021-02-24T14:22:50Z</time>
      </trkpt>
      <trkpt lat="44.31952" lon="4.94061">
        <ele>161.5</ele>
        <time>2021-02-24T14:22:51Z</time>
      </trkpt>
      <trkpt lat="44.31946" lon="4.9406">
        <ele>161.4</ele>
        <time>2021-02-24T14:22:52Z</time>
      </trkpt>
      <trkpt lat="44.3194" lon="4.9406">
        <ele>161.4</ele>
        <time>2021-02-24T14:22:53Z</time>
      </trkpt>
      <trkpt lat="44.31934" lon="4.94058">
        <ele>161.3</ele>
        <time>2021-02-24T14:22:54Z</time>
      </trkpt>
      <trkpt lat="44.31928" lon="4.94057">
        <ele>161.2</ele>
        <time>2021-02-24T14:22:55Z</time>
      </trkpt>
      <trkpt lat="44.31922" lon="4.94055">
        <ele>161.1</ele>
        <time>2021-02-24T14:22:56Z</time>
      </trkpt>
      <trkpt lat="44.31916" lon="4.94054">
        <ele>161</ele>
        <time>2021-02-24T14:22:57Z</time>
      </trkpt>
      <trkpt lat="44.31907" lon="4.94053">
        <ele>160.8</ele>
        <time>2021-02-24T14:22:58Z</time>
      </trkpt>
      <trkpt lat="44.31904" lon="4.94052">
        <ele>160.7</ele>
        <time>2021-02-24T14:22:59Z</time>
      </trkpt>
      <trkpt lat="44.31897" lon="4.94053">
        <ele>160.6</ele>
        <time>2021-02-24T14:23:00Z</time>
      </trkpt>
      <trkpt lat="44.3189" lon="4.94053">
        <ele>160.4</ele>
        <time>2021-02-24T14:23:01Z</time>
      </trkpt>
      <trkpt lat="44.31884" lon="4.94054">
        <ele>160.3</ele>
        <time>2021-02-24T14:23:02Z</time>
      </trkpt>
      <trkpt lat="44.31877" lon="4.94054">
        <ele>160.2</ele>
        <time>2021-02-24T14:23:03Z</time>
      </trkpt>
      <trkpt lat="44.31871" lon="4.94055">
        <ele>160.1</ele>
        <time>2021-02-24T14:23:04Z</time>
      </trkpt>
      <trkpt lat="44.31865" lon="4.94055">
        <ele>160</ele>
        <time>2021-02-24T14:23:05Z</time>
      </trkpt>
      <trkpt lat="44.31858" lon="4.94055">
        <ele>159.9</ele>
        <time>2021-02-24T14:23:06Z</time>
      </trkpt>
      <trkpt lat="44.31852" lon="4.94056">
        <ele>159.7</ele>
        <time>2021-02-24T14:23:07Z</time>
      </trkpt>
      <trkpt lat="44.31846" lon="4.94055">
        <ele>159.6</ele>
        <time>2021-02-24T14:23:08Z</time>
      </trkpt>
      <trkpt lat="44.3184" lon="4.94055">
        <ele>159.6</ele>
        <time>2021-02-24T14:23:09Z</time>
      </trkpt>
      <trkpt lat="44.31833" lon="4.94054">
        <ele>159.5</ele>
        <time>2021-02-24T14:23:10Z</time>
      </trkpt>
      <trkpt lat="44.31827" lon="4.94053">
        <ele>159.4</ele>
        <time>2021-02-24T14:23:11Z</time>
      </trkpt>
      <trkpt lat="44.31821" lon="4.94053">
        <ele>159.3</ele>
        <time>2021-02-24T14:23:12Z</time>
      </trkpt>
      <trkpt lat="44.31815" lon="4.94052">
        <ele>159.2</ele>
        <time>2021-02-24T14:23:13Z</time>
      </trkpt>
      <trkpt lat="44.31809" lon="4.94051">
        <ele>159.2</ele>
        <time>2021-02-24T14:23:14Z</time>
      </trkpt>
      <trkpt lat="44.31802" lon="4.94051">
        <ele>159.1</ele>
        <time>2021-02-24T14:23:15Z</time>
      </trkpt>
      <trkpt lat="44.31796" lon="4.9405">
        <ele>159</ele>
        <time>2021-02-24T14:23:16Z</time>
      </trkpt>
      <trkpt lat="44.3179" lon="4.9405">
        <ele>159</ele>
        <time>2021-02-24T14:23:17Z</time>
      </trkpt>
      <trkpt lat="44.31784" lon="4.9405">
        <ele>159</ele>
        <time>2021-02-24T14:23:18Z</time>
      </trkpt>
      <trkpt lat="44.31778" lon="4.9405">
        <ele>158.9</ele>
        <time>2021-02-24T14:23:19Z</time>
      </trkpt>
      <trkpt lat="44.31772" lon="4.94051">
        <ele>158.9</ele>
        <time>2021-02-24T14:23:20Z</time>
      </trkpt>
      <trkpt lat="44.31763" lon="4.94052">
        <ele>158.9</ele>
        <time>2021-02-24T14:23:21Z</time>
      </trkpt>
      <trkpt lat="44.3176" lon="4.94053">
        <ele>158.9</ele>
        <time>2021-02-24T14:23:22Z</time>
      </trkpt>
      <trkpt lat="44.31754" lon="4.94054">
        <ele>159</ele>
        <time>2021-02-24T14:23:23Z</time>
      </trkpt>
      <trkpt lat="44.31743" lon="4.94057">
        <ele>158.9</ele>
        <time>2021-02-24T14:23:24Z</time>
      </trkpt>
      <trkpt lat="44.31743" lon="4.94057">
        <ele>158.9</ele>
        <time>2021-02-24T14:23:25Z</time>
      </trkpt>
      <trkpt lat="44.31738" lon="4.94058">
        <ele>158.9</ele>
        <time>2021-02-24T14:23:26Z</time>
      </trkpt>
      <trkpt lat="44.31732" lon="4.94058">
        <ele>158.9</ele>
        <time>2021-02-24T14:23:27Z</time>
      </trkpt>
      <trkpt lat="44.31727" lon="4.94058">
        <ele>158.9</ele>
        <time>2021-02-24T14:23:28Z</time>
      </trkpt>
      <trkpt lat="44.31721" lon="4.94057">
        <ele>158.9</ele>
        <time>2021-02-24T14:23:29Z</time>
      </trkpt>
      <trkpt lat="44.31713" lon="4.94056">
        <ele>158.8</ele>
        <time>2021-02-24T14:23:30Z</time>
      </trkpt>
      <trkpt lat="44.3171" lon="4.94055">
        <ele>158.8</ele>
        <time>2021-02-24T14:23:31Z</time>
      </trkpt>
      <trkpt lat="44.31705" lon="4.94053">
        <ele>158.7</ele>
        <time>2021-02-24T14:23:32Z</time>
      </trkpt>
      <trkpt lat="44.317" lon="4.94051">
        <ele>158.7</ele>
        <time>2021-02-24T14:23:33Z</time>
      </trkpt>
      <trkpt lat="44.31695" lon="4.94048">
        <ele>158.6</ele>
        <time>2021-02-24T14:23:34Z</time>
      </trkpt>
      <trkpt lat="44.31691" lon="4.94046">
        <ele>158.6</ele>
        <time>2021-02-24T14:23:35Z</time>
      </trkpt>
      <trkpt lat="44.31687" lon="4.94043">
        <ele>158.5</ele>
        <time>2021-02-24T14:23:36Z</time>
      </trkpt>
      <trkpt lat="44.31683" lon="4.94041">
        <ele>158.5</ele>
        <time>2021-02-24T14:23:37Z</time>
      </trkpt>
      <trkpt lat="44.3168" lon="4.94038">
        <ele>158.4</ele>
        <time>2021-02-24T14:23:38Z</time>
      </trkpt>
      <trkpt lat="44.31676" lon="4.94035">
        <ele>158.4</ele>
        <time>2021-02-24T14:23:39Z</time>
      </trkpt>
      <trkpt lat="44.31672" lon="4.94033">
        <ele>158.3</ele>
        <time>2021-02-24T14:23:40Z</time>
      </trkpt>
      <trkpt lat="44.31669" lon="4.94031">
        <ele>158.2</ele>
        <time>2021-02-24T14:23:41Z</time>
      </trkpt>
      <trkpt lat="44.31665" lon="4.9403">
        <ele>158.2</ele>
        <time>2021-02-24T14:23:42Z</time>
      </trkpt>
      <trkpt lat="44.31658" lon="4.94027">
        <ele>158</ele>
        <time>2021-02-24T14:23:43Z</time>
      </trkpt>
      <trkpt lat="44.31658" lon="4.94027">
        <ele>158</ele>
        <time>2021-02-24T14:23:44Z</time>
      </trkpt>
      <trkpt lat="44.31654" lon="4.94026">
        <ele>158</ele>
        <time>2021-02-24T14:23:45Z</time>
      </trkpt>
      <trkpt lat="44.31651" lon="4.94024">
        <ele>157.9</ele>
        <time>2021-02-24T14:23:46Z</time>
      </trkpt>
      <trkpt lat="44.31648" lon="4.94023">
        <ele>157.9</ele>
        <time>2021-02-24T14:23:47Z</time>
      </trkpt>
      <trkpt lat="44.31645" lon="4.94023">
        <ele>157.8</ele>
        <time>2021-02-24T14:23:48Z</time>
      </trkpt>
      <trkpt lat="44.31641" lon="4.94022">
        <ele>157.8</ele>
        <time>2021-02-24T14:23:49Z</time>
      </trkpt>
      <trkpt lat="44.31638" lon="4.94021">
        <ele>157.7</ele>
        <time>2021-02-24T14:23:50Z</time>
      </trkpt>
      <trkpt lat="44.31634" lon="4.94021">
        <ele>157.7</ele>
        <time>2021-02-24T14:23:51Z</time>
      </trkpt>
      <trkpt lat="44.3163" lon="4.9402">
        <ele>157.6</ele>
        <time>2021-02-24T14:23:52Z</time>
      </trkpt>
      <trkpt lat="44.31625" lon="4.94019">
        <ele>157.6</ele>
        <time>2021-02-24T14:23:53Z</time>
      </trkpt>
      <trkpt lat="44.31621" lon="4.94019">
        <ele>157.5</ele>
        <time>2021-02-24T14:23:54Z</time>
      </trkpt>
      <trkpt lat="44.31616" lon="4.94018">
        <ele>157.4</ele>
        <time>2021-02-24T14:23:55Z</time>
      </trkpt>
      <trkpt lat="44.31612" lon="4.94018">
        <ele>157.4</ele>
        <time>2021-02-24T14:23:56Z</time>
      </trkpt>
      <trkpt lat="44.31607" lon="4.94017">
        <ele>157.3</ele>
        <time>2021-02-24T14:23:57Z</time>
      </trkpt>
      <trkpt lat="44.31603" lon="4.94016">
        <ele>157.3</ele>
        <time>2021-02-24T14:23:58Z</time>
      </trkpt>
      <trkpt lat="44.31598" lon="4.94016">
        <ele>157.2</ele>
        <time>2021-02-24T14:23:59Z</time>
      </trkpt>
      <trkpt lat="44.31594" lon="4.94015">
        <ele>157.2</ele>
        <time>2021-02-24T14:24:00Z</time>
      </trkpt>
      <trkpt lat="44.31589" lon="4.94014">
        <ele>157.1</ele>
        <time>2021-02-24T14:24:01Z</time>
      </trkpt>
      <trkpt lat="44.31585" lon="4.94013">
        <ele>157.1</ele>
        <time>2021-02-24T14:24:02Z</time>
      </trkpt>
      <trkpt lat="44.31582" lon="4.94012">
        <ele>157</ele>
        <time>2021-02-24T14:24:03Z</time>
      </trkpt>
      <trkpt lat="44.31579" lon="4.94011">
        <ele>157</ele>
        <time>2021-02-24T14:24:04Z</time>
      </trkpt>
      <trkpt lat="44.31577" lon="4.9401">
        <ele>156.9</ele>
        <time>2021-02-24T14:24:05Z</time>
      </trkpt>
      <trkpt lat="44.31574" lon="4.94009">
        <ele>156.9</ele>
        <time>2021-02-24T14:24:06Z</time>
      </trkpt>
      <trkpt lat="44.31571" lon="4.94007">
        <ele>156.8</ele>
        <time>2021-02-24T14:24:07Z</time>
      </trkpt>
      <trkpt lat="44.31568" lon="4.94006">
        <ele>156.8</ele>
        <time>2021-02-24T14:24:08Z</time>
      </trkpt>
      <trkpt lat="44.31565" lon="4.94004">
        <ele>156.7</ele>
        <time>2021-02-24T14:24:09Z</time>
      </trkpt>
      <trkpt lat="44.31561" lon="4.94002">
        <ele>156.6</ele>
        <time>2021-02-24T14:24:10Z</time>
      </trkpt>
      <trkpt lat="44.31557" lon="4.93999">
        <ele>156.5</ele>
        <time>2021-02-24T14:24:11Z</time>
      </trkpt>
      <trkpt lat="44.31553" lon="4.93997">
        <ele>156.3</ele>
        <time>2021-02-24T14:24:12Z</time>
      </trkpt>
      <trkpt lat="44.31549" lon="4.93994">
        <ele>156.2</ele>
        <time>2021-02-24T14:24:13Z</time>
      </trkpt>
      <trkpt lat="44.3154" lon="4.93989">
        <ele>156</ele>
        <time>2021-02-24T14:24:14Z</time>
      </trkpt>
      <trkpt lat="44.3154" lon="4.93989">
        <ele>156</ele>
        <time>2021-02-24T14:24:15Z</time>
      </trkpt>
      <trkpt lat="44.31535" lon="4.93986">
        <ele>155.8</ele>
        <time>2021-02-24T14:24:16Z</time>
      </trkpt>
      <trkpt lat="44.3153" lon="4.93983">
        <ele>155.7</ele>
        <time>2021-02-24T14:24:17Z</time>
      </trkpt>
      <trkpt lat="44.31526" lon="4.93981">
        <ele>155.5</ele>
        <time>2021-02-24T14:24:18Z</time>
      </trkpt>
      <trkpt lat="44.31521" lon="4.93978">
        <ele>155.3</ele>
        <time>2021-02-24T14:24:19Z</time>
      </trkpt>
      <trkpt lat="44.31516" lon="4.93975">
        <ele>155.1</ele>
        <time>2021-02-24T14:24:20Z</time>
      </trkpt>
      <trkpt lat="44.31511" lon="4.93972">
        <ele>154.9</ele>
        <time>2021-02-24T14:24:21Z</time>
      </trkpt>
      <trkpt lat="44.31503" lon="4.93967">
        <ele>154.6</ele>
        <time>2021-02-24T14:24:22Z</time>
      </trkpt>
      <trkpt lat="44.315" lon="4.93965">
        <ele>154.5</ele>
        <time>2021-02-24T14:24:23Z</time>
      </trkpt>
      <trkpt lat="44.31495" lon="4.93961">
        <ele>154.3</ele>
        <time>2021-02-24T14:24:24Z</time>
      </trkpt>
      <trkpt lat="44.31489" lon="4.93958">
        <ele>154.1</ele>
        <time>2021-02-24T14:24:25Z</time>
      </trkpt>
      <trkpt lat="44.31484" lon="4.93955">
        <ele>153.9</ele>
        <time>2021-02-24T14:24:26Z</time>
      </trkpt>
      <trkpt lat="44.31479" lon="4.93951">
        <ele>153.7</ele>
        <time>2021-02-24T14:24:27Z</time>
      </trkpt>
      <trkpt lat="44.31473" lon="4.93948">
        <ele>153.6</ele>
        <time>2021-02-24T14:24:28Z</time>
      </trkpt>
      <trkpt lat="44.31468" lon="4.93944">
        <ele>153.4</ele>
        <time>2021-02-24T14:24:29Z</time>
      </trkpt>
      <trkpt lat="44.31462" lon="4.9394">
        <ele>153.1</ele>
        <time>2021-02-24T14:24:30Z</time>
      </trkpt>
      <trkpt lat="44.31456" lon="4.93937">
        <ele>152.9</ele>
        <time>2021-02-24T14:24:31Z</time>
      </trkpt>
      <trkpt lat="44.31449" lon="4.93933">
        <ele>152.7</ele>
        <time>2021-02-24T14:24:32Z</time>
      </trkpt>
      <trkpt lat="44.31443" lon="4.9393">
        <ele>152.6</ele>
        <time>2021-02-24T14:24:33Z</time>
      </trkpt>
      <trkpt lat="44.31437" lon="4.93926">
        <ele>152.4</ele>
        <time>2021-02-24T14:24:34Z</time>
      </trkpt>
      <trkpt lat="44.31431" lon="4.93923">
        <ele>152.2</ele>
        <time>2021-02-24T14:24:35Z</time>
      </trkpt>
      <trkpt lat="44.31425" lon="4.9392">
        <ele>152.1</ele>
        <time>2021-02-24T14:24:36Z</time>
      </trkpt>
      <trkpt lat="44.31419" lon="4.93917">
        <ele>152</ele>
        <time>2021-02-24T14:24:37Z</time>
      </trkpt>
      <trkpt lat="44.31413" lon="4.93914">
        <ele>151.9</ele>
        <time>2021-02-24T14:24:38Z</time>
      </trkpt>
      <trkpt lat="44.31407" lon="4.93911">
        <ele>151.9</ele>
        <time>2021-02-24T14:24:39Z</time>
      </trkpt>
      <trkpt lat="44.31402" lon="4.93909">
        <ele>151.8</ele>
        <time>2021-02-24T14:24:40Z</time>
      </trkpt>
      <trkpt lat="44.31393" lon="4.93905">
        <ele>151.8</ele>
        <time>2021-02-24T14:24:41Z</time>
      </trkpt>
      <trkpt lat="44.3139" lon="4.93904">
        <ele>151.7</ele>
        <time>2021-02-24T14:24:42Z</time>
      </trkpt>
      <trkpt lat="44.31385" lon="4.93902">
        <ele>151.7</ele>
        <time>2021-02-24T14:24:43Z</time>
      </trkpt>
      <trkpt lat="44.3138" lon="4.93901">
        <ele>151.7</ele>
        <time>2021-02-24T14:24:44Z</time>
      </trkpt>
      <trkpt lat="44.31374" lon="4.93899">
        <ele>151.7</ele>
        <time>2021-02-24T14:24:45Z</time>
      </trkpt>
      <trkpt lat="44.31369" lon="4.93898">
        <ele>151.7</ele>
        <time>2021-02-24T14:24:46Z</time>
      </trkpt>
      <trkpt lat="44.31362" lon="4.93896">
        <ele>151.8</ele>
        <time>2021-02-24T14:24:47Z</time>
      </trkpt>
      <trkpt lat="44.31359" lon="4.93895">
        <ele>151.9</ele>
        <time>2021-02-24T14:24:48Z</time>
      </trkpt>
      <trkpt lat="44.31355" lon="4.93895">
        <ele>152</ele>
        <time>2021-02-24T14:24:49Z</time>
      </trkpt>
      <trkpt lat="44.31351" lon="4.93894">
        <ele>152.1</ele>
        <time>2021-02-24T14:24:50Z</time>
      </trkpt>
      <trkpt lat="44.31347" lon="4.93893">
        <ele>152.2</ele>
        <time>2021-02-24T14:24:51Z</time>
      </trkpt>
      <trkpt lat="44.31343" lon="4.93892">
        <ele>152.3</ele>
        <time>2021-02-24T14:24:52Z</time>
      </trkpt>
      <trkpt lat="44.3134" lon="4.93892">
        <ele>152.4</ele>
        <time>2021-02-24T14:24:53Z</time>
      </trkpt>
      <trkpt lat="44.31338" lon="4.93891">
        <ele>152.5</ele>
        <time>2021-02-24T14:24:54Z</time>
      </trkpt>
      <trkpt lat="44.31336" lon="4.9389">
        <ele>152.5</ele>
        <time>2021-02-24T14:24:55Z</time>
      </trkpt>
      <trkpt lat="44.31334" lon="4.93889">
        <ele>152.6</ele>
        <time>2021-02-24T14:24:56Z</time>
      </trkpt>
      <trkpt lat="44.31331" lon="4.93888">
        <ele>152.6</ele>
        <time>2021-02-24T14:24:57Z</time>
      </trkpt>
      <trkpt lat="44.31329" lon="4.93888">
        <ele>152.6</ele>
        <time>2021-02-24T14:24:58Z</time>
      </trkpt>
      <trkpt lat="44.31323" lon="4.93887">
        <ele>152.6</ele>
        <time>2021-02-24T14:24:59Z</time>
      </trkpt>
      <trkpt lat="44.31323" lon="4.93887">
        <ele>152.6</ele>
        <time>2021-02-24T14:25:00Z</time>
      </trkpt>
      <trkpt lat="44.31319" lon="4.93884">
        <ele>152.5</ele>
        <time>2021-02-24T14:25:01Z</time>
      </trkpt>
      <trkpt lat="44.31315" lon="4.93882">
        <ele>152.5</ele>
        <time>2021-02-24T14:25:02Z</time>
      </trkpt>
      <trkpt lat="44.3131" lon="4.93879">
        <ele>152.5</ele>
        <time>2021-02-24T14:25:03Z</time>
      </trkpt>
      <trkpt lat="44.31306" lon="4.93877">
        <ele>152.5</ele>
        <time>2021-02-24T14:25:04Z</time>
      </trkpt>
      <trkpt lat="44.31302" lon="4.93874">
        <ele>152.5</ele>
        <time>2021-02-24T14:25:05Z</time>
      </trkpt>
      <trkpt lat="44.31298" lon="4.93873">
        <ele>152.6</ele>
        <time>2021-02-24T14:25:06Z</time>
      </trkpt>
      <trkpt lat="44.31294" lon="4.93871">
        <ele>152.6</ele>
        <time>2021-02-24T14:25:07Z</time>
      </trkpt>
      <trkpt lat="44.3129" lon="4.93871">
        <ele>152.7</ele>
        <time>2021-02-24T14:25:08Z</time>
      </trkpt>
      <trkpt lat="44.31287" lon="4.9387">
        <ele>152.7</ele>
        <time>2021-02-24T14:25:09Z</time>
      </trkpt>
      <trkpt lat="44.31283" lon="4.9387">
        <ele>152.8</ele>
        <time>2021-02-24T14:25:10Z</time>
      </trkpt>
      <trkpt lat="44.3128" lon="4.9387">
        <ele>152.8</ele>
        <time>2021-02-24T14:25:11Z</time>
      </trkpt>
      <trkpt lat="44.31276" lon="4.9387">
        <ele>152.9</ele>
        <time>2021-02-24T14:25:12Z</time>
      </trkpt>
      <trkpt lat="44.31273" lon="4.9387">
        <ele>152.9</ele>
        <time>2021-02-24T14:25:13Z</time>
      </trkpt>
      <trkpt lat="44.31269" lon="4.9387">
        <ele>152.9</ele>
        <time>2021-02-24T14:25:14Z</time>
      </trkpt>
      <trkpt lat="44.31265" lon="4.93871">
        <ele>152.9</ele>
        <time>2021-02-24T14:25:15Z</time>
      </trkpt>
      <trkpt lat="44.31261" lon="4.93871">
        <ele>153</ele>
        <time>2021-02-24T14:25:16Z</time>
      </trkpt>
      <trkpt lat="44.31256" lon="4.93872">
        <ele>153</ele>
        <time>2021-02-24T14:25:17Z</time>
      </trkpt>
      <trkpt lat="44.31252" lon="4.93872">
        <ele>153</ele>
        <time>2021-02-24T14:25:18Z</time>
      </trkpt>
      <trkpt lat="44.31248" lon="4.93873">
        <ele>153</ele>
        <time>2021-02-24T14:25:19Z</time>
      </trkpt>
      <trkpt lat="44.31244" lon="4.93873">
        <ele>153</ele>
        <time>2021-02-24T14:25:20Z</time>
      </trkpt>
      <trkpt lat="44.31239" lon="4.93873">
        <ele>153</ele>
        <time>2021-02-24T14:25:21Z</time>
      </trkpt>
      <trkpt lat="44.31235" lon="4.93873">
        <ele>153</ele>
        <time>2021-02-24T14:25:22Z</time>
      </trkpt>
      <trkpt lat="44.31231" lon="4.93873">
        <ele>153</ele>
        <time>2021-02-24T14:25:23Z</time>
      </trkpt>
      <trkpt lat="44.31226" lon="4.93873">
        <ele>153</ele>
        <time>2021-02-24T14:25:24Z</time>
      </trkpt>
      <trkpt lat="44.31221" lon="4.93873">
        <ele>152.9</ele>
        <time>2021-02-24T14:25:25Z</time>
      </trkpt>
      <trkpt lat="44.31217" lon="4.93873">
        <ele>152.9</ele>
        <time>2021-02-24T14:25:26Z</time>
      </trkpt>
      <trkpt lat="44.31212" lon="4.93872">
        <ele>152.8</ele>
        <time>2021-02-24T14:25:27Z</time>
      </trkpt>
      <trkpt lat="44.31208" lon="4.93872">
        <ele>152.8</ele>
        <time>2021-02-24T14:25:28Z</time>
      </trkpt>
      <trkpt lat="44.31203" lon="4.93872">
        <ele>152.7</ele>
        <time>2021-02-24T14:25:29Z</time>
      </trkpt>
      <trkpt lat="44.31199" lon="4.93871">
        <ele>152.6</ele>
        <time>2021-02-24T14:25:30Z</time>
      </trkpt>
      <trkpt lat="44.31194" lon="4.93871">
        <ele>152.5</ele>
        <time>2021-02-24T14:25:31Z</time>
      </trkpt>
      <trkpt lat="44.3119" lon="4.9387">
        <ele>152.4</ele>
        <time>2021-02-24T14:25:32Z</time>
      </trkpt>
      <trkpt lat="44.31186" lon="4.9387">
        <ele>152.3</ele>
        <time>2021-02-24T14:25:33Z</time>
      </trkpt>
      <trkpt lat="44.31181" lon="4.93869">
        <ele>152.2</ele>
        <time>2021-02-24T14:25:34Z</time>
      </trkpt>
      <trkpt lat="44.31177" lon="4.93869">
        <ele>152</ele>
        <time>2021-02-24T14:25:35Z</time>
      </trkpt>
      <trkpt lat="44.31172" lon="4.93869">
        <ele>151.8</ele>
        <time>2021-02-24T14:25:36Z</time>
      </trkpt>
      <trkpt lat="44.31163" lon="4.93868">
        <ele>151.4</ele>
        <time>2021-02-24T14:25:37Z</time>
      </trkpt>
      <trkpt lat="44.31163" lon="4.93868">
        <ele>151.4</ele>
        <time>2021-02-24T14:25:38Z</time>
      </trkpt>
      <trkpt lat="44.31159" lon="4.93867">
        <ele>151.1</ele>
        <time>2021-02-24T14:25:39Z</time>
      </trkpt>
      <trkpt lat="44.31153" lon="4.93867">
        <ele>150.9</ele>
        <time>2021-02-24T14:25:40Z</time>
      </trkpt>
      <trkpt lat="44.31148" lon="4.93867">
        <ele>150.5</ele>
        <time>2021-02-24T14:25:41Z</time>
      </trkpt>
      <trkpt lat="44.31142" lon="4.93867">
        <ele>150.2</ele>
        <time>2021-02-24T14:25:42Z</time>
      </trkpt>
      <trkpt lat="44.31134" lon="4.93867">
        <ele>149.5</ele>
        <time>2021-02-24T14:25:43Z</time>
      </trkpt>
      <trkpt lat="44.31131" lon="4.93867">
        <ele>149.3</ele>
        <time>2021-02-24T14:25:44Z</time>
      </trkpt>
      <trkpt lat="44.31125" lon="4.93868">
        <ele>148.9</ele>
        <time>2021-02-24T14:25:45Z</time>
      </trkpt>
      <trkpt lat="44.31119" lon="4.93868">
        <ele>148.4</ele>
        <time>2021-02-24T14:25:46Z</time>
      </trkpt>
      <trkpt lat="44.31112" lon="4.93868">
        <ele>147.9</ele>
        <time>2021-02-24T14:25:47Z</time>
      </trkpt>
      <trkpt lat="44.31105" lon="4.93868">
        <ele>147.4</ele>
        <time>2021-02-24T14:25:48Z</time>
      </trkpt>
      <trkpt lat="44.31089" lon="4.9387">
        <ele>146.6</ele>
        <time>2021-02-24T14:25:49Z</time>
      </trkpt>
      <trkpt lat="44.31089" lon="4.9387">
        <ele>146.6</ele>
        <time>2021-02-24T14:25:50Z</time>
      </trkpt>
      <trkpt lat="44.31078" lon="4.93871">
        <ele>146.1</ele>
        <time>2021-02-24T14:25:51Z</time>
      </trkpt>
      <trkpt lat="44.31074" lon="4.93872">
        <ele>146</ele>
        <time>2021-02-24T14:25:52Z</time>
      </trkpt>
      <trkpt lat="44.31066" lon="4.93873">
        <ele>145.8</ele>
        <time>2021-02-24T14:25:53Z</time>
      </trkpt>
      <trkpt lat="44.31059" lon="4.93874">
        <ele>145.6</ele>
        <time>2021-02-24T14:25:54Z</time>
      </trkpt>
      <trkpt lat="44.31052" lon="4.93875">
        <ele>145.5</ele>
        <time>2021-02-24T14:25:55Z</time>
      </trkpt>
      <trkpt lat="44.31038" lon="4.93875">
        <ele>145.3</ele>
        <time>2021-02-24T14:25:56Z</time>
      </trkpt>
      <trkpt lat="44.31038" lon="4.93875">
        <ele>145.3</ele>
        <time>2021-02-24T14:25:57Z</time>
      </trkpt>
      <trkpt lat="44.31028" lon="4.93874">
        <ele>145.2</ele>
        <time>2021-02-24T14:25:58Z</time>
      </trkpt>
      <trkpt lat="44.31025" lon="4.93873">
        <ele>145.2</ele>
        <time>2021-02-24T14:25:59Z</time>
      </trkpt>
      <trkpt lat="44.31019" lon="4.93871">
        <ele>145.3</ele>
        <time>2021-02-24T14:26:00Z</time>
      </trkpt>
      <trkpt lat="44.31013" lon="4.93869">
        <ele>145.3</ele>
        <time>2021-02-24T14:26:01Z</time>
      </trkpt>
      <trkpt lat="44.31008" lon="4.93867">
        <ele>145.4</ele>
        <time>2021-02-24T14:26:02Z</time>
      </trkpt>
      <trkpt lat="44.31003" lon="4.93866">
        <ele>145.4</ele>
        <time>2021-02-24T14:26:03Z</time>
      </trkpt>
      <trkpt lat="44.30997" lon="4.93865">
        <ele>145.5</ele>
        <time>2021-02-24T14:26:04Z</time>
      </trkpt>
      <trkpt lat="44.30992" lon="4.93864">
        <ele>145.6</ele>
        <time>2021-02-24T14:26:05Z</time>
      </trkpt>
      <trkpt lat="44.30988" lon="4.93863">
        <ele>145.6</ele>
        <time>2021-02-24T14:26:06Z</time>
      </trkpt>
      <trkpt lat="44.30983" lon="4.93863">
        <ele>145.5</ele>
        <time>2021-02-24T14:26:07Z</time>
      </trkpt>
      <trkpt lat="44.30979" lon="4.93862">
        <ele>145.5</ele>
        <time>2021-02-24T14:26:08Z</time>
      </trkpt>
      <trkpt lat="44.30974" lon="4.93862">
        <ele>145.4</ele>
        <time>2021-02-24T14:26:09Z</time>
      </trkpt>
      <trkpt lat="44.30969" lon="4.93861">
        <ele>145.3</ele>
        <time>2021-02-24T14:26:10Z</time>
      </trkpt>
      <trkpt lat="44.30964" lon="4.9386">
        <ele>145.2</ele>
        <time>2021-02-24T14:26:11Z</time>
      </trkpt>
      <trkpt lat="44.30958" lon="4.93858">
        <ele>145.1</ele>
        <time>2021-02-24T14:26:12Z</time>
      </trkpt>
      <trkpt lat="44.30952" lon="4.93857">
        <ele>145</ele>
        <time>2021-02-24T14:26:13Z</time>
      </trkpt>
      <trkpt lat="44.30947" lon="4.93854">
        <ele>144.9</ele>
        <time>2021-02-24T14:26:14Z</time>
      </trkpt>
      <trkpt lat="44.30941" lon="4.93852">
        <ele>144.7</ele>
        <time>2021-02-24T14:26:15Z</time>
      </trkpt>
      <trkpt lat="44.30933" lon="4.93847">
        <ele>144.6</ele>
        <time>2021-02-24T14:26:16Z</time>
      </trkpt>
      <trkpt lat="44.30931" lon="4.93846">
        <ele>144.5</ele>
        <time>2021-02-24T14:26:17Z</time>
      </trkpt>
      <trkpt lat="44.30926" lon="4.93842">
        <ele>144.4</ele>
        <time>2021-02-24T14:26:18Z</time>
      </trkpt>
      <trkpt lat="44.30921" lon="4.93838">
        <ele>144.3</ele>
        <time>2021-02-24T14:26:19Z</time>
      </trkpt>
      <trkpt lat="44.30916" lon="4.93834">
        <ele>144.1</ele>
        <time>2021-02-24T14:26:20Z</time>
      </trkpt>
      <trkpt lat="44.30911" lon="4.93829">
        <ele>144</ele>
        <time>2021-02-24T14:26:21Z</time>
      </trkpt>
      <trkpt lat="44.30905" lon="4.93824">
        <ele>143.8</ele>
        <time>2021-02-24T14:26:22Z</time>
      </trkpt>
      <trkpt lat="44.309" lon="4.93819">
        <ele>143.7</ele>
        <time>2021-02-24T14:26:23Z</time>
      </trkpt>
      <trkpt lat="44.30895" lon="4.93814">
        <ele>143.5</ele>
        <time>2021-02-24T14:26:24Z</time>
      </trkpt>
      <trkpt lat="44.30889" lon="4.93809">
        <ele>143.4</ele>
        <time>2021-02-24T14:26:25Z</time>
      </trkpt>
      <trkpt lat="44.30884" lon="4.93804">
        <ele>143.3</ele>
        <time>2021-02-24T14:26:26Z</time>
      </trkpt>
      <trkpt lat="44.30878" lon="4.93799">
        <ele>143.2</ele>
        <time>2021-02-24T14:26:27Z</time>
      </trkpt>
      <trkpt lat="44.30873" lon="4.93794">
        <ele>143.1</ele>
        <time>2021-02-24T14:26:28Z</time>
      </trkpt>
      <trkpt lat="44.30868" lon="4.93789">
        <ele>143</ele>
        <time>2021-02-24T14:26:29Z</time>
      </trkpt>
      <trkpt lat="44.30863" lon="4.93784">
        <ele>142.9</ele>
        <time>2021-02-24T14:26:30Z</time>
      </trkpt>
      <trkpt lat="44.30858" lon="4.93778">
        <ele>142.8</ele>
        <time>2021-02-24T14:26:31Z</time>
      </trkpt>
      <trkpt lat="44.30853" lon="4.93772">
        <ele>142.7</ele>
        <time>2021-02-24T14:26:32Z</time>
      </trkpt>
      <trkpt lat="44.30848" lon="4.93766">
        <ele>142.5</ele>
        <time>2021-02-24T14:26:33Z</time>
      </trkpt>
      <trkpt lat="44.30844" lon="4.9376">
        <ele>142.4</ele>
        <time>2021-02-24T14:26:34Z</time>
      </trkpt>
      <trkpt lat="44.30839" lon="4.93754">
        <ele>142.2</ele>
        <time>2021-02-24T14:26:35Z</time>
      </trkpt>
      <trkpt lat="44.30834" lon="4.93747">
        <ele>142.1</ele>
        <time>2021-02-24T14:26:36Z</time>
      </trkpt>
      <trkpt lat="44.30829" lon="4.9374">
        <ele>141.9</ele>
        <time>2021-02-24T14:26:37Z</time>
      </trkpt>
      <trkpt lat="44.30825" lon="4.93734">
        <ele>141.8</ele>
        <time>2021-02-24T14:26:38Z</time>
      </trkpt>
      <trkpt lat="44.3082" lon="4.93727">
        <ele>141.6</ele>
        <time>2021-02-24T14:26:39Z</time>
      </trkpt>
      <trkpt lat="44.30816" lon="4.9372">
        <ele>141.5</ele>
        <time>2021-02-24T14:26:40Z</time>
      </trkpt>
      <trkpt lat="44.30811" lon="4.93714">
        <ele>141.3</ele>
        <time>2021-02-24T14:26:41Z</time>
      </trkpt>
      <trkpt lat="44.30806" lon="4.93707">
        <ele>141.2</ele>
        <time>2021-02-24T14:26:42Z</time>
      </trkpt>
      <trkpt lat="44.30801" lon="4.937">
        <ele>141.1</ele>
        <time>2021-02-24T14:26:43Z</time>
      </trkpt>
      <trkpt lat="44.30796" lon="4.93694">
        <ele>141</ele>
        <time>2021-02-24T14:26:44Z</time>
      </trkpt>
      <trkpt lat="44.30792" lon="4.93688">
        <ele>140.9</ele>
        <time>2021-02-24T14:26:45Z</time>
      </trkpt>
      <trkpt lat="44.30784" lon="4.93678">
        <ele>140.8</ele>
        <time>2021-02-24T14:26:46Z</time>
      </trkpt>
      <trkpt lat="44.30782" lon="4.93675">
        <ele>140.8</ele>
        <time>2021-02-24T14:26:47Z</time>
      </trkpt>
      <trkpt lat="44.30777" lon="4.9367">
        <ele>140.7</ele>
        <time>2021-02-24T14:26:48Z</time>
      </trkpt>
      <trkpt lat="44.30772" lon="4.93664">
        <ele>140.6</ele>
        <time>2021-02-24T14:26:49Z</time>
      </trkpt>
      <trkpt lat="44.30766" lon="4.93659">
        <ele>140.6</ele>
        <time>2021-02-24T14:26:50Z</time>
      </trkpt>
      <trkpt lat="44.30761" lon="4.93654">
        <ele>140.5</ele>
        <time>2021-02-24T14:26:51Z</time>
      </trkpt>
      <trkpt lat="44.30756" lon="4.93649">
        <ele>140.4</ele>
        <time>2021-02-24T14:26:52Z</time>
      </trkpt>
      <trkpt lat="44.3075" lon="4.93644">
        <ele>140.4</ele>
        <time>2021-02-24T14:26:53Z</time>
      </trkpt>
      <trkpt lat="44.30745" lon="4.93639">
        <ele>140.3</ele>
        <time>2021-02-24T14:26:54Z</time>
      </trkpt>
      <trkpt lat="44.30739" lon="4.93634">
        <ele>140.3</ele>
        <time>2021-02-24T14:26:55Z</time>
      </trkpt>
      <trkpt lat="44.30734" lon="4.93629">
        <ele>140.2</ele>
        <time>2021-02-24T14:26:56Z</time>
      </trkpt>
      <trkpt lat="44.30728" lon="4.93624">
        <ele>140.2</ele>
        <time>2021-02-24T14:26:57Z</time>
      </trkpt>
      <trkpt lat="44.30723" lon="4.93619">
        <ele>140.2</ele>
        <time>2021-02-24T14:26:58Z</time>
      </trkpt>
      <trkpt lat="44.30718" lon="4.93614">
        <ele>140.2</ele>
        <time>2021-02-24T14:26:59Z</time>
      </trkpt>
      <trkpt lat="44.30712" lon="4.93609">
        <ele>140.1</ele>
        <time>2021-02-24T14:27:00Z</time>
      </trkpt>
      <trkpt lat="44.30707" lon="4.93604">
        <ele>140.1</ele>
        <time>2021-02-24T14:27:01Z</time>
      </trkpt>
      <trkpt lat="44.30701" lon="4.93598">
        <ele>140.1</ele>
        <time>2021-02-24T14:27:02Z</time>
      </trkpt>
      <trkpt lat="44.30696" lon="4.93592">
        <ele>140.1</ele>
        <time>2021-02-24T14:27:03Z</time>
      </trkpt>
      <trkpt lat="44.3069" lon="4.93587">
        <ele>140</ele>
        <time>2021-02-24T14:27:04Z</time>
      </trkpt>
      <trkpt lat="44.30685" lon="4.93581">
        <ele>140</ele>
        <time>2021-02-24T14:27:05Z</time>
      </trkpt>
      <trkpt lat="44.30679" lon="4.93576">
        <ele>140</ele>
        <time>2021-02-24T14:27:06Z</time>
      </trkpt>
      <trkpt lat="44.30674" lon="4.93571">
        <ele>140.1</ele>
        <time>2021-02-24T14:27:07Z</time>
      </trkpt>
      <trkpt lat="44.30669" lon="4.93566">
        <ele>140.1</ele>
        <time>2021-02-24T14:27:08Z</time>
      </trkpt>
      <trkpt lat="44.30661" lon="4.93559">
        <ele>140.1</ele>
        <time>2021-02-24T14:27:09Z</time>
      </trkpt>
      <trkpt lat="44.30659" lon="4.93557">
        <ele>140.1</ele>
        <time>2021-02-24T14:27:10Z</time>
      </trkpt>
      <trkpt lat="44.30654" lon="4.93553">
        <ele>140.1</ele>
        <time>2021-02-24T14:27:11Z</time>
      </trkpt>
      <trkpt lat="44.30644" lon="4.93546">
        <ele>140.1</ele>
        <time>2021-02-24T14:27:12Z</time>
      </trkpt>
      <trkpt lat="44.30644" lon="4.93546">
        <ele>140.1</ele>
        <time>2021-02-24T14:27:13Z</time>
      </trkpt>
      <trkpt lat="44.30639" lon="4.93542">
        <ele>140</ele>
        <time>2021-02-24T14:27:14Z</time>
      </trkpt>
      <trkpt lat="44.30633" lon="4.93538">
        <ele>139.9</ele>
        <time>2021-02-24T14:27:15Z</time>
      </trkpt>
      <trkpt lat="44.30628" lon="4.93535">
        <ele>139.8</ele>
        <time>2021-02-24T14:27:16Z</time>
      </trkpt>
      <trkpt lat="44.30623" lon="4.93531">
        <ele>139.8</ele>
        <time>2021-02-24T14:27:17Z</time>
      </trkpt>
      <trkpt lat="44.30617" lon="4.93527">
        <ele>139.7</ele>
        <time>2021-02-24T14:27:18Z</time>
      </trkpt>
      <trkpt lat="44.30612" lon="4.93523">
        <ele>139.6</ele>
        <time>2021-02-24T14:27:19Z</time>
      </trkpt>
      <trkpt lat="44.30607" lon="4.93519">
        <ele>139.5</ele>
        <time>2021-02-24T14:27:20Z</time>
      </trkpt>
      <trkpt lat="44.30601" lon="4.93515">
        <ele>139.5</ele>
        <time>2021-02-24T14:27:21Z</time>
      </trkpt>
      <trkpt lat="44.30596" lon="4.9351">
        <ele>139.4</ele>
        <time>2021-02-24T14:27:22Z</time>
      </trkpt>
      <trkpt lat="44.30591" lon="4.93506">
        <ele>139.3</ele>
        <time>2021-02-24T14:27:23Z</time>
      </trkpt>
      <trkpt lat="44.30586" lon="4.93501">
        <ele>139.2</ele>
        <time>2021-02-24T14:27:24Z</time>
      </trkpt>
      <trkpt lat="44.3058" lon="4.93497">
        <ele>139.1</ele>
        <time>2021-02-24T14:27:25Z</time>
      </trkpt>
      <trkpt lat="44.30575" lon="4.93493">
        <ele>139</ele>
        <time>2021-02-24T14:27:26Z</time>
      </trkpt>
      <trkpt lat="44.30569" lon="4.93488">
        <ele>138.9</ele>
        <time>2021-02-24T14:27:27Z</time>
      </trkpt>
      <trkpt lat="44.30563" lon="4.93484">
        <ele>138.8</ele>
        <time>2021-02-24T14:27:28Z</time>
      </trkpt>
      <trkpt lat="44.30558" lon="4.9348">
        <ele>138.6</ele>
        <time>2021-02-24T14:27:29Z</time>
      </trkpt>
      <trkpt lat="44.30552" lon="4.93477">
        <ele>138.5</ele>
        <time>2021-02-24T14:27:30Z</time>
      </trkpt>
      <trkpt lat="44.30546" lon="4.93473">
        <ele>138.4</ele>
        <time>2021-02-24T14:27:31Z</time>
      </trkpt>
      <trkpt lat="44.30538" lon="4.93467">
        <ele>138.2</ele>
        <time>2021-02-24T14:27:32Z</time>
      </trkpt>
      <trkpt lat="44.30535" lon="4.93465">
        <ele>138.1</ele>
        <time>2021-02-24T14:27:33Z</time>
      </trkpt>
      <trkpt lat="44.30529" lon="4.93461">
        <ele>138</ele>
        <time>2021-02-24T14:27:34Z</time>
      </trkpt>
      <trkpt lat="44.30523" lon="4.93457">
        <ele>137.8</ele>
        <time>2021-02-24T14:27:35Z</time>
      </trkpt>
      <trkpt lat="44.30517" lon="4.93453">
        <ele>137.7</ele>
        <time>2021-02-24T14:27:36Z</time>
      </trkpt>
      <trkpt lat="44.30511" lon="4.93449">
        <ele>137.6</ele>
        <time>2021-02-24T14:27:37Z</time>
      </trkpt>
      <trkpt lat="44.30504" lon="4.93445">
        <ele>137.4</ele>
        <time>2021-02-24T14:27:38Z</time>
      </trkpt>
      <trkpt lat="44.30498" lon="4.93441">
        <ele>137.3</ele>
        <time>2021-02-24T14:27:39Z</time>
      </trkpt>
      <trkpt lat="44.30492" lon="4.93437">
        <ele>137.1</ele>
        <time>2021-02-24T14:27:40Z</time>
      </trkpt>
      <trkpt lat="44.30486" lon="4.93434">
        <ele>137</ele>
        <time>2021-02-24T14:27:41Z</time>
      </trkpt>
      <trkpt lat="44.3048" lon="4.9343">
        <ele>136.8</ele>
        <time>2021-02-24T14:27:42Z</time>
      </trkpt>
      <trkpt lat="44.30475" lon="4.93426">
        <ele>136.6</ele>
        <time>2021-02-24T14:27:43Z</time>
      </trkpt>
      <trkpt lat="44.30468" lon="4.93422">
        <ele>136.4</ele>
        <time>2021-02-24T14:27:44Z</time>
      </trkpt>
      <trkpt lat="44.30462" lon="4.93418">
        <ele>136.2</ele>
        <time>2021-02-24T14:27:45Z</time>
      </trkpt>
      <trkpt lat="44.30456" lon="4.93413">
        <ele>136</ele>
        <time>2021-02-24T14:27:46Z</time>
      </trkpt>
      <trkpt lat="44.3045" lon="4.93409">
        <ele>135.8</ele>
        <time>2021-02-24T14:27:47Z</time>
      </trkpt>
      <trkpt lat="44.30443" lon="4.93405">
        <ele>135.6</ele>
        <time>2021-02-24T14:27:48Z</time>
      </trkpt>
      <trkpt lat="44.3043" lon="4.93396">
        <ele>135.3</ele>
        <time>2021-02-24T14:27:49Z</time>
      </trkpt>
      <trkpt lat="44.30424" lon="4.93392">
        <ele>135.1</ele>
        <time>2021-02-24T14:27:50Z</time>
      </trkpt>
      <trkpt lat="44.30424" lon="4.93392">
        <ele>135.1</ele>
        <time>2021-02-24T14:27:51Z</time>
      </trkpt>
      <trkpt lat="44.30418" lon="4.93388">
        <ele>134.9</ele>
        <time>2021-02-24T14:27:52Z</time>
      </trkpt>
      <trkpt lat="44.30411" lon="4.93383">
        <ele>134.8</ele>
        <time>2021-02-24T14:27:53Z</time>
      </trkpt>
      <trkpt lat="44.30405" lon="4.93379">
        <ele>134.6</ele>
        <time>2021-02-24T14:27:54Z</time>
      </trkpt>
      <trkpt lat="44.30399" lon="4.93375">
        <ele>134.4</ele>
        <time>2021-02-24T14:27:55Z</time>
      </trkpt>
      <trkpt lat="44.3039" lon="4.93369">
        <ele>134.2</ele>
        <time>2021-02-24T14:27:56Z</time>
      </trkpt>
      <trkpt lat="44.30387" lon="4.93366">
        <ele>134.1</ele>
        <time>2021-02-24T14:27:57Z</time>
      </trkpt>
      <trkpt lat="44.30381" lon="4.93362">
        <ele>134</ele>
        <time>2021-02-24T14:27:58Z</time>
      </trkpt>
      <trkpt lat="44.30374" lon="4.93358">
        <ele>133.8</ele>
        <time>2021-02-24T14:27:59Z</time>
      </trkpt>
      <trkpt lat="44.30368" lon="4.93353">
        <ele>133.7</ele>
        <time>2021-02-24T14:28:00Z</time>
      </trkpt>
      <trkpt lat="44.30362" lon="4.93349">
        <ele>133.5</ele>
        <time>2021-02-24T14:28:01Z</time>
      </trkpt>
      <trkpt lat="44.30355" lon="4.93344">
        <ele>133.4</ele>
        <time>2021-02-24T14:28:02Z</time>
      </trkpt>
      <trkpt lat="44.30349" lon="4.93339">
        <ele>133.3</ele>
        <time>2021-02-24T14:28:03Z</time>
      </trkpt>
      <trkpt lat="44.30343" lon="4.93335">
        <ele>133.2</ele>
        <time>2021-02-24T14:28:04Z</time>
      </trkpt>
      <trkpt lat="44.30337" lon="4.9333">
        <ele>133.1</ele>
        <time>2021-02-24T14:28:05Z</time>
      </trkpt>
      <trkpt lat="44.30331" lon="4.93326">
        <ele>133</ele>
        <time>2021-02-24T14:28:06Z</time>
      </trkpt>
      <trkpt lat="44.30325" lon="4.93322">
        <ele>132.9</ele>
        <time>2021-02-24T14:28:07Z</time>
      </trkpt>
      <trkpt lat="44.30318" lon="4.93318">
        <ele>132.8</ele>
        <time>2021-02-24T14:28:08Z</time>
      </trkpt>
      <trkpt lat="44.30312" lon="4.93313">
        <ele>132.8</ele>
        <time>2021-02-24T14:28:09Z</time>
      </trkpt>
      <trkpt lat="44.30306" lon="4.9331">
        <ele>132.7</ele>
        <time>2021-02-24T14:28:10Z</time>
      </trkpt>
      <trkpt lat="44.30293" lon="4.93302">
        <ele>132.5</ele>
        <time>2021-02-24T14:28:11Z</time>
      </trkpt>
      <trkpt lat="44.30293" lon="4.93302">
        <ele>132.5</ele>
        <time>2021-02-24T14:28:12Z</time>
      </trkpt>
      <trkpt lat="44.30286" lon="4.93299">
        <ele>132.4</ele>
        <time>2021-02-24T14:28:13Z</time>
      </trkpt>
      <trkpt lat="44.3028" lon="4.93295">
        <ele>132.3</ele>
        <time>2021-02-24T14:28:14Z</time>
      </trkpt>
      <trkpt lat="44.30273" lon="4.93292">
        <ele>132.2</ele>
        <time>2021-02-24T14:28:15Z</time>
      </trkpt>
      <trkpt lat="44.30266" lon="4.93288">
        <ele>132.1</ele>
        <time>2021-02-24T14:28:16Z</time>
      </trkpt>
      <trkpt lat="44.30259" lon="4.93285">
        <ele>132</ele>
        <time>2021-02-24T14:28:17Z</time>
      </trkpt>
      <trkpt lat="44.30252" lon="4.93281">
        <ele>131.9</ele>
        <time>2021-02-24T14:28:18Z</time>
      </trkpt>
      <trkpt lat="44.30245" lon="4.93278">
        <ele>131.8</ele>
        <time>2021-02-24T14:28:19Z</time>
      </trkpt>
      <trkpt lat="44.30239" lon="4.93275">
        <ele>131.8</ele>
        <time>2021-02-24T14:28:20Z</time>
      </trkpt>
      <trkpt lat="44.30232" lon="4.93271">
        <ele>131.7</ele>
        <time>2021-02-24T14:28:21Z</time>
      </trkpt>
      <trkpt lat="44.30225" lon="4.93268">
        <ele>131.6</ele>
        <time>2021-02-24T14:28:22Z</time>
      </trkpt>
      <trkpt lat="44.30219" lon="4.93264">
        <ele>131.5</ele>
        <time>2021-02-24T14:28:23Z</time>
      </trkpt>
      <trkpt lat="44.30212" lon="4.93261">
        <ele>131.4</ele>
        <time>2021-02-24T14:28:24Z</time>
      </trkpt>
      <trkpt lat="44.30205" lon="4.93258">
        <ele>131.4</ele>
        <time>2021-02-24T14:28:25Z</time>
      </trkpt>
      <trkpt lat="44.30198" lon="4.93255">
        <ele>131.3</ele>
        <time>2021-02-24T14:28:26Z</time>
      </trkpt>
      <trkpt lat="44.30191" lon="4.93252">
        <ele>131.2</ele>
        <time>2021-02-24T14:28:27Z</time>
      </trkpt>
      <trkpt lat="44.30184" lon="4.93248">
        <ele>131.1</ele>
        <time>2021-02-24T14:28:28Z</time>
      </trkpt>
      <trkpt lat="44.30174" lon="4.93243">
        <ele>131</ele>
        <time>2021-02-24T14:28:29Z</time>
      </trkpt>
      <trkpt lat="44.30171" lon="4.93241">
        <ele>130.9</ele>
        <time>2021-02-24T14:28:30Z</time>
      </trkpt>
      <trkpt lat="44.30164" lon="4.93238">
        <ele>130.8</ele>
        <time>2021-02-24T14:28:31Z</time>
      </trkpt>
      <trkpt lat="44.30156" lon="4.93234">
        <ele>130.7</ele>
        <time>2021-02-24T14:28:32Z</time>
      </trkpt>
      <trkpt lat="44.30149" lon="4.93231">
        <ele>130.6</ele>
        <time>2021-02-24T14:28:33Z</time>
      </trkpt>
      <trkpt lat="44.30143" lon="4.93227">
        <ele>130.5</ele>
        <time>2021-02-24T14:28:34Z</time>
      </trkpt>
      <trkpt lat="44.30136" lon="4.93224">
        <ele>130.3</ele>
        <time>2021-02-24T14:28:35Z</time>
      </trkpt>
      <trkpt lat="44.30129" lon="4.9322">
        <ele>130.2</ele>
        <time>2021-02-24T14:28:36Z</time>
      </trkpt>
      <trkpt lat="44.30122" lon="4.93217">
        <ele>130.1</ele>
        <time>2021-02-24T14:28:37Z</time>
      </trkpt>
      <trkpt lat="44.30115" lon="4.93214">
        <ele>130</ele>
        <time>2021-02-24T14:28:38Z</time>
      </trkpt>
      <trkpt lat="44.30108" lon="4.9321">
        <ele>129.8</ele>
        <time>2021-02-24T14:28:39Z</time>
      </trkpt>
      <trkpt lat="44.30101" lon="4.93207">
        <ele>129.7</ele>
        <time>2021-02-24T14:28:40Z</time>
      </trkpt>
      <trkpt lat="44.30094" lon="4.93204">
        <ele>129.6</ele>
        <time>2021-02-24T14:28:41Z</time>
      </trkpt>
      <trkpt lat="44.30087" lon="4.932">
        <ele>129.5</ele>
        <time>2021-02-24T14:28:42Z</time>
      </trkpt>
      <trkpt lat="44.3008" lon="4.93197">
        <ele>129.3</ele>
        <time>2021-02-24T14:28:43Z</time>
      </trkpt>
      <trkpt lat="44.30073" lon="4.93193">
        <ele>129.2</ele>
        <time>2021-02-24T14:28:44Z</time>
      </trkpt>
      <trkpt lat="44.30067" lon="4.9319">
        <ele>129.1</ele>
        <time>2021-02-24T14:28:45Z</time>
      </trkpt>
      <trkpt lat="44.3006" lon="4.93186">
        <ele>128.9</ele>
        <time>2021-02-24T14:28:46Z</time>
      </trkpt>
      <trkpt lat="44.30046" lon="4.93179">
        <ele>128.7</ele>
        <time>2021-02-24T14:28:47Z</time>
      </trkpt>
      <trkpt lat="44.30046" lon="4.93179">
        <ele>128.7</ele>
        <time>2021-02-24T14:28:48Z</time>
      </trkpt>
      <trkpt lat="44.30039" lon="4.93176">
        <ele>128.6</ele>
        <time>2021-02-24T14:28:49Z</time>
      </trkpt>
      <trkpt lat="44.30033" lon="4.93173">
        <ele>128.4</ele>
        <time>2021-02-24T14:28:50Z</time>
      </trkpt>
      <trkpt lat="44.30026" lon="4.9317">
        <ele>128.3</ele>
        <time>2021-02-24T14:28:51Z</time>
      </trkpt>
      <trkpt lat="44.30019" lon="4.93166">
        <ele>128.2</ele>
        <time>2021-02-24T14:28:52Z</time>
      </trkpt>
      <trkpt lat="44.30012" lon="4.93163">
        <ele>128.1</ele>
        <time>2021-02-24T14:28:53Z</time>
      </trkpt>
      <trkpt lat="44.30006" lon="4.93159">
        <ele>128</ele>
        <time>2021-02-24T14:28:54Z</time>
      </trkpt>
      <trkpt lat="44.29999" lon="4.93156">
        <ele>127.8</ele>
        <time>2021-02-24T14:28:55Z</time>
      </trkpt>
      <trkpt lat="44.29992" lon="4.93153">
        <ele>127.7</ele>
        <time>2021-02-24T14:28:56Z</time>
      </trkpt>
      <trkpt lat="44.29985" lon="4.93149">
        <ele>127.7</ele>
        <time>2021-02-24T14:28:57Z</time>
      </trkpt>
      <trkpt lat="44.29979" lon="4.93146">
        <ele>127.6</ele>
        <time>2021-02-24T14:28:58Z</time>
      </trkpt>
      <trkpt lat="44.29969" lon="4.93141">
        <ele>127.5</ele>
        <time>2021-02-24T14:28:59Z</time>
      </trkpt>
      <trkpt lat="44.29966" lon="4.93139">
        <ele>127.4</ele>
        <time>2021-02-24T14:29:00Z</time>
      </trkpt>
      <trkpt lat="44.29959" lon="4.93136">
        <ele>127.4</ele>
        <time>2021-02-24T14:29:01Z</time>
      </trkpt>
      <trkpt lat="44.29953" lon="4.93133">
        <ele>127.3</ele>
        <time>2021-02-24T14:29:02Z</time>
      </trkpt>
      <trkpt lat="44.29946" lon="4.9313">
        <ele>127.2</ele>
        <time>2021-02-24T14:29:03Z</time>
      </trkpt>
      <trkpt lat="44.2994" lon="4.93127">
        <ele>127.2</ele>
        <time>2021-02-24T14:29:04Z</time>
      </trkpt>
      <trkpt lat="44.29933" lon="4.93123">
        <ele>127.1</ele>
        <time>2021-02-24T14:29:05Z</time>
      </trkpt>
      <trkpt lat="44.29927" lon="4.9312">
        <ele>127.1</ele>
        <time>2021-02-24T14:29:06Z</time>
      </trkpt>
      <trkpt lat="44.2992" lon="4.93117">
        <ele>127.1</ele>
        <time>2021-02-24T14:29:07Z</time>
      </trkpt>
      <trkpt lat="44.29914" lon="4.93114">
        <ele>127.1</ele>
        <time>2021-02-24T14:29:08Z</time>
      </trkpt>
      <trkpt lat="44.29908" lon="4.93111">
        <ele>127.1</ele>
        <time>2021-02-24T14:29:09Z</time>
      </trkpt>
      <trkpt lat="44.29902" lon="4.93108">
        <ele>127.1</ele>
        <time>2021-02-24T14:29:10Z</time>
      </trkpt>
      <trkpt lat="44.29895" lon="4.93105">
        <ele>127.1</ele>
        <time>2021-02-24T14:29:11Z</time>
      </trkpt>
      <trkpt lat="44.29889" lon="4.93102">
        <ele>127.2</ele>
        <time>2021-02-24T14:29:12Z</time>
      </trkpt>
      <trkpt lat="44.29883" lon="4.93099">
        <ele>127.2</ele>
        <time>2021-02-24T14:29:13Z</time>
      </trkpt>
      <trkpt lat="44.29877" lon="4.93096">
        <ele>127.2</ele>
        <time>2021-02-24T14:29:14Z</time>
      </trkpt>
      <trkpt lat="44.29871" lon="4.93093">
        <ele>127.3</ele>
        <time>2021-02-24T14:29:15Z</time>
      </trkpt>
      <trkpt lat="44.29866" lon="4.9309">
        <ele>127.3</ele>
        <time>2021-02-24T14:29:16Z</time>
      </trkpt>
      <trkpt lat="44.2986" lon="4.93087">
        <ele>127.3</ele>
        <time>2021-02-24T14:29:17Z</time>
      </trkpt>
      <trkpt lat="44.29854" lon="4.93084">
        <ele>127.3</ele>
        <time>2021-02-24T14:29:18Z</time>
      </trkpt>
      <trkpt lat="44.29848" lon="4.9308">
        <ele>127.2</ele>
        <time>2021-02-24T14:29:19Z</time>
      </trkpt>
      <trkpt lat="44.29842" lon="4.93076">
        <ele>127.1</ele>
        <time>2021-02-24T14:29:20Z</time>
      </trkpt>
      <trkpt lat="44.29837" lon="4.93072">
        <ele>127.1</ele>
        <time>2021-02-24T14:29:21Z</time>
      </trkpt>
      <trkpt lat="44.29831" lon="4.93067">
        <ele>127</ele>
        <time>2021-02-24T14:29:22Z</time>
      </trkpt>
      <trkpt lat="44.29825" lon="4.93062">
        <ele>126.9</ele>
        <time>2021-02-24T14:29:23Z</time>
      </trkpt>
      <trkpt lat="44.29819" lon="4.93057">
        <ele>126.8</ele>
        <time>2021-02-24T14:29:24Z</time>
      </trkpt>
      <trkpt lat="44.29808" lon="4.93047">
        <ele>126.7</ele>
        <time>2021-02-24T14:29:25Z</time>
      </trkpt>
      <trkpt lat="44.29808" lon="4.93047">
        <ele>126.7</ele>
        <time>2021-02-24T14:29:26Z</time>
      </trkpt>
      <trkpt lat="44.29802" lon="4.93041">
        <ele>126.7</ele>
        <time>2021-02-24T14:29:27Z</time>
      </trkpt>
      <trkpt lat="44.29797" lon="4.93036">
        <ele>126.6</ele>
        <time>2021-02-24T14:29:28Z</time>
      </trkpt>
      <trkpt lat="44.29791" lon="4.93031">
        <ele>126.6</ele>
        <time>2021-02-24T14:29:29Z</time>
      </trkpt>
      <trkpt lat="44.29786" lon="4.93025">
        <ele>126.6</ele>
        <time>2021-02-24T14:29:30Z</time>
      </trkpt>
      <trkpt lat="44.2978" lon="4.9302">
        <ele>126.6</ele>
        <time>2021-02-24T14:29:31Z</time>
      </trkpt>
      <trkpt lat="44.29775" lon="4.93015">
        <ele>126.6</ele>
        <time>2021-02-24T14:29:32Z</time>
      </trkpt>
      <trkpt lat="44.2977" lon="4.93009">
        <ele>126.5</ele>
        <time>2021-02-24T14:29:33Z</time>
      </trkpt>
      <trkpt lat="44.29765" lon="4.93003">
        <ele>126.5</ele>
        <time>2021-02-24T14:29:34Z</time>
      </trkpt>
      <trkpt lat="44.2976" lon="4.92996">
        <ele>126.5</ele>
        <time>2021-02-24T14:29:35Z</time>
      </trkpt>
      <trkpt lat="44.29753" lon="4.92987">
        <ele>126.5</ele>
        <time>2021-02-24T14:29:36Z</time>
      </trkpt>
      <trkpt lat="44.29751" lon="4.92984">
        <ele>126.5</ele>
        <time>2021-02-24T14:29:37Z</time>
      </trkpt>
      <trkpt lat="44.29746" lon="4.92977">
        <ele>126.5</ele>
        <time>2021-02-24T14:29:38Z</time>
      </trkpt>
      <trkpt lat="44.29742" lon="4.92971">
        <ele>126.5</ele>
        <time>2021-02-24T14:29:39Z</time>
      </trkpt>
      <trkpt lat="44.29737" lon="4.92965">
        <ele>126.5</ele>
        <time>2021-02-24T14:29:40Z</time>
      </trkpt>
      <trkpt lat="44.29732" lon="4.92959">
        <ele>126.5</ele>
        <time>2021-02-24T14:29:41Z</time>
      </trkpt>
      <trkpt lat="44.29726" lon="4.92954">
        <ele>126.5</ele>
        <time>2021-02-24T14:29:42Z</time>
      </trkpt>
      <trkpt lat="44.29721" lon="4.92949">
        <ele>126.5</ele>
        <time>2021-02-24T14:29:43Z</time>
      </trkpt>
      <trkpt lat="44.29715" lon="4.92945">
        <ele>126.5</ele>
        <time>2021-02-24T14:29:44Z</time>
      </trkpt>
      <trkpt lat="44.29709" lon="4.92942">
        <ele>126.5</ele>
        <time>2021-02-24T14:29:45Z</time>
      </trkpt>
      <trkpt lat="44.29703" lon="4.92939">
        <ele>126.6</ele>
        <time>2021-02-24T14:29:46Z</time>
      </trkpt>
      <trkpt lat="44.29697" lon="4.92936">
        <ele>126.6</ele>
        <time>2021-02-24T14:29:47Z</time>
      </trkpt>
      <trkpt lat="44.2969" lon="4.92934">
        <ele>126.6</ele>
        <time>2021-02-24T14:29:48Z</time>
      </trkpt>
      <trkpt lat="44.29684" lon="4.92933">
        <ele>126.6</ele>
        <time>2021-02-24T14:29:49Z</time>
      </trkpt>
      <trkpt lat="44.29678" lon="4.92931">
        <ele>126.6</ele>
        <time>2021-02-24T14:29:50Z</time>
      </trkpt>
      <trkpt lat="44.29671" lon="4.9293">
        <ele>126.7</ele>
        <time>2021-02-24T14:29:51Z</time>
      </trkpt>
      <trkpt lat="44.29665" lon="4.92929">
        <ele>126.7</ele>
        <time>2021-02-24T14:29:52Z</time>
      </trkpt>
      <trkpt lat="44.29659" lon="4.92928">
        <ele>126.8</ele>
        <time>2021-02-24T14:29:53Z</time>
      </trkpt>
      <trkpt lat="44.29653" lon="4.92927">
        <ele>126.8</ele>
        <time>2021-02-24T14:29:54Z</time>
      </trkpt>
      <trkpt lat="44.29647" lon="4.92926">
        <ele>126.9</ele>
        <time>2021-02-24T14:29:55Z</time>
      </trkpt>
      <trkpt lat="44.2964" lon="4.92926">
        <ele>127</ele>
        <time>2021-02-24T14:29:56Z</time>
      </trkpt>
      <trkpt lat="44.29634" lon="4.92925">
        <ele>127</ele>
        <time>2021-02-24T14:29:57Z</time>
      </trkpt>
      <trkpt lat="44.29628" lon="4.92924">
        <ele>127.1</ele>
        <time>2021-02-24T14:29:58Z</time>
      </trkpt>
      <trkpt lat="44.29622" lon="4.92924">
        <ele>127.1</ele>
        <time>2021-02-24T14:29:59Z</time>
      </trkpt>
      <trkpt lat="44.29613" lon="4.92922">
        <ele>127.3</ele>
        <time>2021-02-24T14:30:00Z</time>
      </trkpt>
      <trkpt lat="44.2961" lon="4.92922">
        <ele>127.3</ele>
        <time>2021-02-24T14:30:01Z</time>
      </trkpt>
      <trkpt lat="44.29604" lon="4.92921">
        <ele>127.4</ele>
        <time>2021-02-24T14:30:02Z</time>
      </trkpt>
      <trkpt lat="44.29591" lon="4.92919">
        <ele>127.6</ele>
        <time>2021-02-24T14:30:03Z</time>
      </trkpt>
      <trkpt lat="44.29591" lon="4.92919">
        <ele>127.6</ele>
        <time>2021-02-24T14:30:04Z</time>
      </trkpt>
      <trkpt lat="44.29585" lon="4.92917">
        <ele>127.7</ele>
        <time>2021-02-24T14:30:05Z</time>
      </trkpt>
      <trkpt lat="44.2958" lon="4.92916">
        <ele>127.8</ele>
        <time>2021-02-24T14:30:06Z</time>
      </trkpt>
      <trkpt lat="44.29574" lon="4.92915">
        <ele>127.9</ele>
        <time>2021-02-24T14:30:07Z</time>
      </trkpt>
      <trkpt lat="44.29565" lon="4.92913">
        <ele>128.1</ele>
        <time>2021-02-24T14:30:08Z</time>
      </trkpt>
      <trkpt lat="44.29562" lon="4.92912">
        <ele>128.2</ele>
        <time>2021-02-24T14:30:09Z</time>
      </trkpt>
      <trkpt lat="44.29556" lon="4.92911">
        <ele>128.3</ele>
        <time>2021-02-24T14:30:10Z</time>
      </trkpt>
      <trkpt lat="44.2955" lon="4.9291">
        <ele>128.4</ele>
        <time>2021-02-24T14:30:11Z</time>
      </trkpt>
      <trkpt lat="44.29544" lon="4.9291">
        <ele>128.5</ele>
        <time>2021-02-24T14:30:12Z</time>
      </trkpt>
      <trkpt lat="44.29538" lon="4.9291">
        <ele>128.6</ele>
        <time>2021-02-24T14:30:13Z</time>
      </trkpt>
      <trkpt lat="44.29532" lon="4.92909">
        <ele>128.7</ele>
        <time>2021-02-24T14:30:14Z</time>
      </trkpt>
      <trkpt lat="44.29526" lon="4.92909">
        <ele>128.8</ele>
        <time>2021-02-24T14:30:15Z</time>
      </trkpt>
      <trkpt lat="44.29521" lon="4.92909">
        <ele>128.8</ele>
        <time>2021-02-24T14:30:16Z</time>
      </trkpt>
      <trkpt lat="44.29515" lon="4.92908">
        <ele>128.9</ele>
        <time>2021-02-24T14:30:17Z</time>
      </trkpt>
      <trkpt lat="44.29509" lon="4.92908">
        <ele>128.9</ele>
        <time>2021-02-24T14:30:18Z</time>
      </trkpt>
      <trkpt lat="44.29503" lon="4.92907">
        <ele>129</ele>
        <time>2021-02-24T14:30:19Z</time>
      </trkpt>
      <trkpt lat="44.29498" lon="4.92907">
        <ele>129.1</ele>
        <time>2021-02-24T14:30:20Z</time>
      </trkpt>
      <trkpt lat="44.29492" lon="4.92907">
        <ele>129.1</ele>
        <time>2021-02-24T14:30:21Z</time>
      </trkpt>
      <trkpt lat="44.29481" lon="4.92905">
        <ele>129.2</ele>
        <time>2021-02-24T14:30:22Z</time>
      </trkpt>
      <trkpt lat="44.29481" lon="4.92905">
        <ele>129.2</ele>
        <time>2021-02-24T14:30:23Z</time>
      </trkpt>
      <trkpt lat="44.29475" lon="4.92905">
        <ele>129.3</ele>
        <time>2021-02-24T14:30:24Z</time>
      </trkpt>
      <trkpt lat="44.29469" lon="4.92904">
        <ele>129.3</ele>
        <time>2021-02-24T14:30:25Z</time>
      </trkpt>
      <trkpt lat="44.29463" lon="4.92902">
        <ele>129.4</ele>
        <time>2021-02-24T14:30:26Z</time>
      </trkpt>
      <trkpt lat="44.29458" lon="4.92901">
        <ele>129.4</ele>
        <time>2021-02-24T14:30:27Z</time>
      </trkpt>
      <trkpt lat="44.29452" lon="4.929">
        <ele>129.5</ele>
        <time>2021-02-24T14:30:28Z</time>
      </trkpt>
      <trkpt lat="44.29447" lon="4.92898">
        <ele>129.5</ele>
        <time>2021-02-24T14:30:29Z</time>
      </trkpt>
      <trkpt lat="44.29441" lon="4.92896">
        <ele>129.6</ele>
        <time>2021-02-24T14:30:30Z</time>
      </trkpt>
      <trkpt lat="44.29436" lon="4.92893">
        <ele>129.6</ele>
        <time>2021-02-24T14:30:31Z</time>
      </trkpt>
      <trkpt lat="44.29431" lon="4.92891">
        <ele>129.7</ele>
        <time>2021-02-24T14:30:32Z</time>
      </trkpt>
      <trkpt lat="44.29425" lon="4.92888">
        <ele>129.8</ele>
        <time>2021-02-24T14:30:33Z</time>
      </trkpt>
      <trkpt lat="44.2942" lon="4.92886">
        <ele>129.9</ele>
        <time>2021-02-24T14:30:34Z</time>
      </trkpt>
      <trkpt lat="44.29415" lon="4.92884">
        <ele>130.1</ele>
        <time>2021-02-24T14:30:35Z</time>
      </trkpt>
      <trkpt lat="44.29409" lon="4.92881">
        <ele>130.2</ele>
        <time>2021-02-24T14:30:36Z</time>
      </trkpt>
      <trkpt lat="44.29404" lon="4.92879">
        <ele>130.4</ele>
        <time>2021-02-24T14:30:37Z</time>
      </trkpt>
      <trkpt lat="44.29399" lon="4.92878">
        <ele>130.5</ele>
        <time>2021-02-24T14:30:38Z</time>
      </trkpt>
      <trkpt lat="44.29394" lon="4.92876">
        <ele>130.7</ele>
        <time>2021-02-24T14:30:39Z</time>
      </trkpt>
      <trkpt lat="44.29389" lon="4.92874">
        <ele>130.8</ele>
        <time>2021-02-24T14:30:40Z</time>
      </trkpt>
      <trkpt lat="44.29384" lon="4.92872">
        <ele>130.9</ele>
        <time>2021-02-24T14:30:41Z</time>
      </trkpt>
      <trkpt lat="44.29377" lon="4.9287">
        <ele>131.2</ele>
        <time>2021-02-24T14:30:42Z</time>
      </trkpt>
      <trkpt lat="44.29374" lon="4.92869">
        <ele>131.2</ele>
        <time>2021-02-24T14:30:43Z</time>
      </trkpt>
      <trkpt lat="44.2937" lon="4.92867">
        <ele>131.4</ele>
        <time>2021-02-24T14:30:44Z</time>
      </trkpt>
      <trkpt lat="44.29365" lon="4.92866">
        <ele>131.6</ele>
        <time>2021-02-24T14:30:45Z</time>
      </trkpt>
      <trkpt lat="44.2936" lon="4.92865">
        <ele>131.8</ele>
        <time>2021-02-24T14:30:46Z</time>
      </trkpt>
      <trkpt lat="44.29356" lon="4.92864">
        <ele>132</ele>
        <time>2021-02-24T14:30:47Z</time>
      </trkpt>
      <trkpt lat="44.29351" lon="4.92864">
        <ele>132.2</ele>
        <time>2021-02-24T14:30:48Z</time>
      </trkpt>
      <trkpt lat="44.29346" lon="4.92863">
        <ele>132.4</ele>
        <time>2021-02-24T14:30:49Z</time>
      </trkpt>
      <trkpt lat="44.29342" lon="4.92863">
        <ele>132.6</ele>
        <time>2021-02-24T14:30:50Z</time>
      </trkpt>
      <trkpt lat="44.29337" lon="4.92863">
        <ele>132.9</ele>
        <time>2021-02-24T14:30:51Z</time>
      </trkpt>
      <trkpt lat="44.29332" lon="4.92863">
        <ele>133.1</ele>
        <time>2021-02-24T14:30:52Z</time>
      </trkpt>
      <trkpt lat="44.29328" lon="4.92863">
        <ele>133.3</ele>
        <time>2021-02-24T14:30:53Z</time>
      </trkpt>
      <trkpt lat="44.29324" lon="4.92863">
        <ele>133.6</ele>
        <time>2021-02-24T14:30:54Z</time>
      </trkpt>
      <trkpt lat="44.29319" lon="4.92863">
        <ele>133.8</ele>
        <time>2021-02-24T14:30:55Z</time>
      </trkpt>
      <trkpt lat="44.29315" lon="4.92863">
        <ele>134</ele>
        <time>2021-02-24T14:30:56Z</time>
      </trkpt>
      <trkpt lat="44.29311" lon="4.92863">
        <ele>134.3</ele>
        <time>2021-02-24T14:30:57Z</time>
      </trkpt>
      <trkpt lat="44.29306" lon="4.92862">
        <ele>134.5</ele>
        <time>2021-02-24T14:30:58Z</time>
      </trkpt>
      <trkpt lat="44.29302" lon="4.92862">
        <ele>134.8</ele>
        <time>2021-02-24T14:30:59Z</time>
      </trkpt>
      <trkpt lat="44.29294" lon="4.92861">
        <ele>135.2</ele>
        <time>2021-02-24T14:31:00Z</time>
      </trkpt>
      <trkpt lat="44.29294" lon="4.92861">
        <ele>135.2</ele>
        <time>2021-02-24T14:31:01Z</time>
      </trkpt>
      <trkpt lat="44.2929" lon="4.9286">
        <ele>135.4</ele>
        <time>2021-02-24T14:31:02Z</time>
      </trkpt>
      <trkpt lat="44.29286" lon="4.9286">
        <ele>135.6</ele>
        <time>2021-02-24T14:31:03Z</time>
      </trkpt>
      <trkpt lat="44.29282" lon="4.92859">
        <ele>135.8</ele>
        <time>2021-02-24T14:31:04Z</time>
      </trkpt>
      <trkpt lat="44.29278" lon="4.92859">
        <ele>136</ele>
        <time>2021-02-24T14:31:05Z</time>
      </trkpt>
      <trkpt lat="44.29273" lon="4.92858">
        <ele>136.2</ele>
        <time>2021-02-24T14:31:06Z</time>
      </trkpt>
      <trkpt lat="44.29269" lon="4.92858">
        <ele>136.3</ele>
        <time>2021-02-24T14:31:07Z</time>
      </trkpt>
      <trkpt lat="44.29265" lon="4.92857">
        <ele>136.5</ele>
        <time>2021-02-24T14:31:08Z</time>
      </trkpt>
      <trkpt lat="44.2926" lon="4.92857">
        <ele>136.6</ele>
        <time>2021-02-24T14:31:09Z</time>
      </trkpt>
      <trkpt lat="44.29256" lon="4.92857">
        <ele>136.7</ele>
        <time>2021-02-24T14:31:10Z</time>
      </trkpt>
      <trkpt lat="44.29251" lon="4.92857">
        <ele>136.8</ele>
        <time>2021-02-24T14:31:11Z</time>
      </trkpt>
      <trkpt lat="44.29247" lon="4.92857">
        <ele>136.9</ele>
        <time>2021-02-24T14:31:12Z</time>
      </trkpt>
      <trkpt lat="44.29242" lon="4.92858">
        <ele>137</ele>
        <time>2021-02-24T14:31:13Z</time>
      </trkpt>
      <trkpt lat="44.29237" lon="4.92858">
        <ele>137.2</ele>
        <time>2021-02-24T14:31:14Z</time>
      </trkpt>
      <trkpt lat="44.29233" lon="4.92859">
        <ele>137.2</ele>
        <time>2021-02-24T14:31:15Z</time>
      </trkpt>
      <trkpt lat="44.29228" lon="4.92859">
        <ele>137.3</ele>
        <time>2021-02-24T14:31:16Z</time>
      </trkpt>
      <trkpt lat="44.29223" lon="4.9286">
        <ele>137.4</ele>
        <time>2021-02-24T14:31:17Z</time>
      </trkpt>
      <trkpt lat="44.29218" lon="4.9286">
        <ele>137.4</ele>
        <time>2021-02-24T14:31:18Z</time>
      </trkpt>
      <trkpt lat="44.29213" lon="4.9286">
        <ele>137.5</ele>
        <time>2021-02-24T14:31:19Z</time>
      </trkpt>
      <trkpt lat="44.29206" lon="4.92861">
        <ele>137.6</ele>
        <time>2021-02-24T14:31:20Z</time>
      </trkpt>
      <trkpt lat="44.29203" lon="4.92861">
        <ele>137.6</ele>
        <time>2021-02-24T14:31:21Z</time>
      </trkpt>
      <trkpt lat="44.29198" lon="4.92861">
        <ele>137.7</ele>
        <time>2021-02-24T14:31:22Z</time>
      </trkpt>
      <trkpt lat="44.29193" lon="4.92861">
        <ele>137.7</ele>
        <time>2021-02-24T14:31:23Z</time>
      </trkpt>
      <trkpt lat="44.29189" lon="4.92862">
        <ele>137.8</ele>
        <time>2021-02-24T14:31:24Z</time>
      </trkpt>
      <trkpt lat="44.29184" lon="4.92862">
        <ele>137.9</ele>
        <time>2021-02-24T14:31:25Z</time>
      </trkpt>
      <trkpt lat="44.29179" lon="4.92862">
        <ele>137.9</ele>
        <time>2021-02-24T14:31:26Z</time>
      </trkpt>
      <trkpt lat="44.29174" lon="4.92862">
        <ele>138</ele>
        <time>2021-02-24T14:31:27Z</time>
      </trkpt>
      <trkpt lat="44.29169" lon="4.92863">
        <ele>138.1</ele>
        <time>2021-02-24T14:31:28Z</time>
      </trkpt>
      <trkpt lat="44.29164" lon="4.92863">
        <ele>138.2</ele>
        <time>2021-02-24T14:31:29Z</time>
      </trkpt>
      <trkpt lat="44.29159" lon="4.92863">
        <ele>138.2</ele>
        <time>2021-02-24T14:31:30Z</time>
      </trkpt>
      <trkpt lat="44.29154" lon="4.92864">
        <ele>138.3</ele>
        <time>2021-02-24T14:31:31Z</time>
      </trkpt>
      <trkpt lat="44.29149" lon="4.92864">
        <ele>138.4</ele>
        <time>2021-02-24T14:31:32Z</time>
      </trkpt>
      <trkpt lat="44.29144" lon="4.92864">
        <ele>138.4</ele>
        <time>2021-02-24T14:31:33Z</time>
      </trkpt>
      <trkpt lat="44.29139" lon="4.92865">
        <ele>138.5</ele>
        <time>2021-02-24T14:31:34Z</time>
      </trkpt>
      <trkpt lat="44.29134" lon="4.92865">
        <ele>138.6</ele>
        <time>2021-02-24T14:31:35Z</time>
      </trkpt>
      <trkpt lat="44.29129" lon="4.92865">
        <ele>138.6</ele>
        <time>2021-02-24T14:31:36Z</time>
      </trkpt>
      <trkpt lat="44.29124" lon="4.92865">
        <ele>138.7</ele>
        <time>2021-02-24T14:31:37Z</time>
      </trkpt>
      <trkpt lat="44.29119" lon="4.92865">
        <ele>138.8</ele>
        <time>2021-02-24T14:31:38Z</time>
      </trkpt>
      <trkpt lat="44.29114" lon="4.92865">
        <ele>138.9</ele>
        <time>2021-02-24T14:31:39Z</time>
      </trkpt>
      <trkpt lat="44.29109" lon="4.92865">
        <ele>138.9</ele>
        <time>2021-02-24T14:31:40Z</time>
      </trkpt>
      <trkpt lat="44.29105" lon="4.92865">
        <ele>139</ele>
        <time>2021-02-24T14:31:41Z</time>
      </trkpt>
      <trkpt lat="44.291" lon="4.92865">
        <ele>139</ele>
        <time>2021-02-24T14:31:42Z</time>
      </trkpt>
      <trkpt lat="44.29095" lon="4.92864">
        <ele>139.1</ele>
        <time>2021-02-24T14:31:43Z</time>
      </trkpt>
      <trkpt lat="44.2909" lon="4.92864">
        <ele>139.1</ele>
        <time>2021-02-24T14:31:44Z</time>
      </trkpt>
      <trkpt lat="44.29084" lon="4.92864">
        <ele>139.2</ele>
        <time>2021-02-24T14:31:45Z</time>
      </trkpt>
      <trkpt lat="44.29079" lon="4.92865">
        <ele>139.2</ele>
        <time>2021-02-24T14:31:46Z</time>
      </trkpt>
      <trkpt lat="44.29074" lon="4.92865">
        <ele>139.3</ele>
        <time>2021-02-24T14:31:47Z</time>
      </trkpt>
      <trkpt lat="44.29069" lon="4.92865">
        <ele>139.3</ele>
        <time>2021-02-24T14:31:48Z</time>
      </trkpt>
      <trkpt lat="44.29063" lon="4.92866">
        <ele>139.4</ele>
        <time>2021-02-24T14:31:49Z</time>
      </trkpt>
      <trkpt lat="44.29059" lon="4.92867">
        <ele>139.5</ele>
        <time>2021-02-24T14:31:50Z</time>
      </trkpt>
      <trkpt lat="44.29054" lon="4.92869">
        <ele>139.5</ele>
        <time>2021-02-24T14:31:51Z</time>
      </trkpt>
      <trkpt lat="44.29049" lon="4.92871">
        <ele>139.6</ele>
        <time>2021-02-24T14:31:52Z</time>
      </trkpt>
      <trkpt lat="44.29044" lon="4.92872">
        <ele>139.7</ele>
        <time>2021-02-24T14:31:53Z</time>
      </trkpt>
      <trkpt lat="44.29039" lon="4.92872">
        <ele>139.7</ele>
        <time>2021-02-24T14:31:54Z</time>
      </trkpt>
      <trkpt lat="44.29034" lon="4.92872">
        <ele>139.8</ele>
        <time>2021-02-24T14:31:55Z</time>
      </trkpt>
      <trkpt lat="44.29029" lon="4.92871">
        <ele>139.8</ele>
        <time>2021-02-24T14:31:56Z</time>
      </trkpt>
      <trkpt lat="44.29023" lon="4.9287">
        <ele>139.8</ele>
        <time>2021-02-24T14:31:57Z</time>
      </trkpt>
      <trkpt lat="44.29015" lon="4.92869">
        <ele>139.8</ele>
        <time>2021-02-24T14:31:58Z</time>
      </trkpt>
      <trkpt lat="44.29012" lon="4.92869">
        <ele>139.8</ele>
        <time>2021-02-24T14:31:59Z</time>
      </trkpt>
      <trkpt lat="44.29006" lon="4.92868">
        <ele>139.8</ele>
        <time>2021-02-24T14:32:00Z</time>
      </trkpt>
      <trkpt lat="44.29001" lon="4.92867">
        <ele>139.8</ele>
        <time>2021-02-24T14:32:01Z</time>
      </trkpt>
      <trkpt lat="44.28995" lon="4.92866">
        <ele>139.8</ele>
        <time>2021-02-24T14:32:02Z</time>
      </trkpt>
      <trkpt lat="44.2899" lon="4.92864">
        <ele>139.8</ele>
        <time>2021-02-24T14:32:03Z</time>
      </trkpt>
      <trkpt lat="44.28985" lon="4.92863">
        <ele>139.7</ele>
        <time>2021-02-24T14:32:04Z</time>
      </trkpt>
      <trkpt lat="44.28979" lon="4.92861">
        <ele>139.7</ele>
        <time>2021-02-24T14:32:05Z</time>
      </trkpt>
      <trkpt lat="44.28973" lon="4.92859">
        <ele>139.7</ele>
        <time>2021-02-24T14:32:06Z</time>
      </trkpt>
      <trkpt lat="44.28968" lon="4.92857">
        <ele>139.6</ele>
        <time>2021-02-24T14:32:07Z</time>
      </trkpt>
      <trkpt lat="44.28962" lon="4.92854">
        <ele>139.6</ele>
        <time>2021-02-24T14:32:08Z</time>
      </trkpt>
      <trkpt lat="44.28957" lon="4.92852">
        <ele>139.6</ele>
        <time>2021-02-24T14:32:09Z</time>
      </trkpt>
      <trkpt lat="44.28952" lon="4.9285">
        <ele>139.6</ele>
        <time>2021-02-24T14:32:10Z</time>
      </trkpt>
      <trkpt lat="44.28947" lon="4.92848">
        <ele>139.6</ele>
        <time>2021-02-24T14:32:11Z</time>
      </trkpt>
      <trkpt lat="44.28941" lon="4.92846">
        <ele>139.5</ele>
        <time>2021-02-24T14:32:12Z</time>
      </trkpt>
      <trkpt lat="44.28935" lon="4.92845">
        <ele>139.5</ele>
        <time>2021-02-24T14:32:13Z</time>
      </trkpt>
      <trkpt lat="44.28927" lon="4.92843">
        <ele>139.5</ele>
        <time>2021-02-24T14:32:14Z</time>
      </trkpt>
      <trkpt lat="44.28924" lon="4.92842">
        <ele>139.5</ele>
        <time>2021-02-24T14:32:15Z</time>
      </trkpt>
      <trkpt lat="44.28914" lon="4.9284">
        <ele>139.5</ele>
        <time>2021-02-24T14:32:16Z</time>
      </trkpt>
      <trkpt lat="44.28914" lon="4.9284">
        <ele>139.5</ele>
        <time>2021-02-24T14:32:17Z</time>
      </trkpt>
      <trkpt lat="44.2891" lon="4.9284">
        <ele>139.5</ele>
        <time>2021-02-24T14:32:18Z</time>
      </trkpt>
      <trkpt lat="44.28904" lon="4.92839">
        <ele>139.5</ele>
        <time>2021-02-24T14:32:19Z</time>
      </trkpt>
      <trkpt lat="44.28899" lon="4.92839">
        <ele>139.5</ele>
        <time>2021-02-24T14:32:20Z</time>
      </trkpt>
      <trkpt lat="44.28894" lon="4.92839">
        <ele>139.5</ele>
        <time>2021-02-24T14:32:21Z</time>
      </trkpt>
      <trkpt lat="44.28889" lon="4.92839">
        <ele>139.5</ele>
        <time>2021-02-24T14:32:22Z</time>
      </trkpt>
      <trkpt lat="44.28884" lon="4.92839">
        <ele>139.6</ele>
        <time>2021-02-24T14:32:23Z</time>
      </trkpt>
      <trkpt lat="44.28879" lon="4.92839">
        <ele>139.6</ele>
        <time>2021-02-24T14:32:24Z</time>
      </trkpt>
      <trkpt lat="44.28874" lon="4.92839">
        <ele>139.7</ele>
        <time>2021-02-24T14:32:25Z</time>
      </trkpt>
      <trkpt lat="44.28869" lon="4.92838">
        <ele>139.7</ele>
        <time>2021-02-24T14:32:26Z</time>
      </trkpt>
      <trkpt lat="44.28864" lon="4.92838">
        <ele>139.8</ele>
        <time>2021-02-24T14:32:27Z</time>
      </trkpt>
      <trkpt lat="44.28859" lon="4.92838">
        <ele>139.9</ele>
        <time>2021-02-24T14:32:28Z</time>
      </trkpt>
      <trkpt lat="44.28855" lon="4.92838">
        <ele>140</ele>
        <time>2021-02-24T14:32:29Z</time>
      </trkpt>
      <trkpt lat="44.2885" lon="4.92838">
        <ele>140.1</ele>
        <time>2021-02-24T14:32:30Z</time>
      </trkpt>
      <trkpt lat="44.28845" lon="4.92839">
        <ele>140.2</ele>
        <time>2021-02-24T14:32:31Z</time>
      </trkpt>
      <trkpt lat="44.2884" lon="4.92839">
        <ele>140.4</ele>
        <time>2021-02-24T14:32:32Z</time>
      </trkpt>
      <trkpt lat="44.28836" lon="4.9284">
        <ele>140.5</ele>
        <time>2021-02-24T14:32:33Z</time>
      </trkpt>
      <trkpt lat="44.28831" lon="4.9284">
        <ele>140.6</ele>
        <time>2021-02-24T14:32:34Z</time>
      </trkpt>
      <trkpt lat="44.28826" lon="4.9284">
        <ele>140.8</ele>
        <time>2021-02-24T14:32:35Z</time>
      </trkpt>
      <trkpt lat="44.28822" lon="4.92841">
        <ele>141</ele>
        <time>2021-02-24T14:32:36Z</time>
      </trkpt>
      <trkpt lat="44.28818" lon="4.92841">
        <ele>141.1</ele>
        <time>2021-02-24T14:32:37Z</time>
      </trkpt>
      <trkpt lat="44.28813" lon="4.92841">
        <ele>141.3</ele>
        <time>2021-02-24T14:32:38Z</time>
      </trkpt>
      <trkpt lat="44.28809" lon="4.92842">
        <ele>141.5</ele>
        <time>2021-02-24T14:32:39Z</time>
      </trkpt>
      <trkpt lat="44.28805" lon="4.92843">
        <ele>141.8</ele>
        <time>2021-02-24T14:32:40Z</time>
      </trkpt>
      <trkpt lat="44.28801" lon="4.92843">
        <ele>142</ele>
        <time>2021-02-24T14:32:41Z</time>
      </trkpt>
      <trkpt lat="44.28797" lon="4.92843">
        <ele>142.2</ele>
        <time>2021-02-24T14:32:42Z</time>
      </trkpt>
      <trkpt lat="44.28793" lon="4.92844">
        <ele>142.5</ele>
        <time>2021-02-24T14:32:43Z</time>
      </trkpt>
      <trkpt lat="44.28789" lon="4.92844">
        <ele>142.8</ele>
        <time>2021-02-24T14:32:44Z</time>
      </trkpt>
      <trkpt lat="44.28785" lon="4.92845">
        <ele>143.1</ele>
        <time>2021-02-24T14:32:45Z</time>
      </trkpt>
      <trkpt lat="44.28781" lon="4.92845">
        <ele>143.4</ele>
        <time>2021-02-24T14:32:46Z</time>
      </trkpt>
      <trkpt lat="44.28776" lon="4.92845">
        <ele>143.7</ele>
        <time>2021-02-24T14:32:47Z</time>
      </trkpt>
      <trkpt lat="44.28772" lon="4.92844">
        <ele>144.1</ele>
        <time>2021-02-24T14:32:48Z</time>
      </trkpt>
      <trkpt lat="44.28768" lon="4.92844">
        <ele>144.4</ele>
        <time>2021-02-24T14:32:49Z</time>
      </trkpt>
      <trkpt lat="44.28764" lon="4.92844">
        <ele>144.7</ele>
        <time>2021-02-24T14:32:50Z</time>
      </trkpt>
      <trkpt lat="44.28759" lon="4.92844">
        <ele>145.1</ele>
        <time>2021-02-24T14:32:51Z</time>
      </trkpt>
      <trkpt lat="44.28755" lon="4.92844">
        <ele>145.4</ele>
        <time>2021-02-24T14:32:52Z</time>
      </trkpt>
      <trkpt lat="44.28751" lon="4.92844">
        <ele>145.8</ele>
        <time>2021-02-24T14:32:53Z</time>
      </trkpt>
      <trkpt lat="44.28746" lon="4.92844">
        <ele>146.1</ele>
        <time>2021-02-24T14:32:54Z</time>
      </trkpt>
      <trkpt lat="44.28739" lon="4.92845">
        <ele>146.7</ele>
        <time>2021-02-24T14:32:55Z</time>
      </trkpt>
      <trkpt lat="44.28737" lon="4.92845">
        <ele>146.9</ele>
        <time>2021-02-24T14:32:56Z</time>
      </trkpt>
      <trkpt lat="44.28732" lon="4.92846">
        <ele>147.3</ele>
        <time>2021-02-24T14:32:57Z</time>
      </trkpt>
      <trkpt lat="44.28727" lon="4.92846">
        <ele>147.6</ele>
        <time>2021-02-24T14:32:58Z</time>
      </trkpt>
      <trkpt lat="44.28723" lon="4.92847">
        <ele>148</ele>
        <time>2021-02-24T14:32:59Z</time>
      </trkpt>
      <trkpt lat="44.28719" lon="4.92847">
        <ele>148.3</ele>
        <time>2021-02-24T14:33:00Z</time>
      </trkpt>
      <trkpt lat="44.28715" lon="4.92847">
        <ele>148.6</ele>
        <time>2021-02-24T14:33:01Z</time>
      </trkpt>
      <trkpt lat="44.28711" lon="4.92847">
        <ele>148.9</ele>
        <time>2021-02-24T14:33:02Z</time>
      </trkpt>
      <trkpt lat="44.28707" lon="4.92847">
        <ele>149.1</ele>
        <time>2021-02-24T14:33:03Z</time>
      </trkpt>
      <trkpt lat="44.28703" lon="4.92848">
        <ele>149.4</ele>
        <time>2021-02-24T14:33:04Z</time>
      </trkpt>
      <trkpt lat="44.28699" lon="4.92848">
        <ele>149.6</ele>
        <time>2021-02-24T14:33:05Z</time>
      </trkpt>
      <trkpt lat="44.28695" lon="4.92848">
        <ele>149.8</ele>
        <time>2021-02-24T14:33:06Z</time>
      </trkpt>
      <trkpt lat="44.28692" lon="4.92848">
        <ele>149.9</ele>
        <time>2021-02-24T14:33:07Z</time>
      </trkpt>
      <trkpt lat="44.28689" lon="4.92848">
        <ele>150.1</ele>
        <time>2021-02-24T14:33:08Z</time>
      </trkpt>
      <trkpt lat="44.28686" lon="4.92849">
        <ele>150.2</ele>
        <time>2021-02-24T14:33:09Z</time>
      </trkpt>
      <trkpt lat="44.28684" lon="4.92851">
        <ele>150.3</ele>
        <time>2021-02-24T14:33:10Z</time>
      </trkpt>
      <trkpt lat="44.28682" lon="4.92854">
        <ele>150.4</ele>
        <time>2021-02-24T14:33:11Z</time>
      </trkpt>
      <trkpt lat="44.28681" lon="4.92857">
        <ele>150.4</ele>
        <time>2021-02-24T14:33:12Z</time>
      </trkpt>
      <trkpt lat="44.28679" lon="4.92861">
        <ele>150.5</ele>
        <time>2021-02-24T14:33:13Z</time>
      </trkpt>
      <trkpt lat="44.28678" lon="4.92864">
        <ele>150.5</ele>
        <time>2021-02-24T14:33:14Z</time>
      </trkpt>
      <trkpt lat="44.28677" lon="4.92868">
        <ele>150.5</ele>
        <time>2021-02-24T14:33:15Z</time>
      </trkpt>
      <trkpt lat="44.28676" lon="4.92871">
        <ele>150.5</ele>
        <time>2021-02-24T14:33:16Z</time>
      </trkpt>
      <trkpt lat="44.28674" lon="4.92874">
        <ele>150.5</ele>
        <time>2021-02-24T14:33:17Z</time>
      </trkpt>
      <trkpt lat="44.28672" lon="4.92876">
        <ele>150.5</ele>
        <time>2021-02-24T14:33:18Z</time>
      </trkpt>
      <trkpt lat="44.28667" lon="4.92881">
        <ele>150.2</ele>
        <time>2021-02-24T14:33:19Z</time>
      </trkpt>
      <trkpt lat="44.28667" lon="4.92881">
        <ele>150.2</ele>
        <time>2021-02-24T14:33:20Z</time>
      </trkpt>
      <trkpt lat="44.28664" lon="4.92882">
        <ele>150</ele>
        <time>2021-02-24T14:33:21Z</time>
      </trkpt>
      <trkpt lat="44.2866" lon="4.92882">
        <ele>149.8</ele>
        <time>2021-02-24T14:33:22Z</time>
      </trkpt>
      <trkpt lat="44.28656" lon="4.92882">
        <ele>149.5</ele>
        <time>2021-02-24T14:33:23Z</time>
      </trkpt>
      <trkpt lat="44.28651" lon="4.92882">
        <ele>149.2</ele>
        <time>2021-02-24T14:33:24Z</time>
      </trkpt>
      <trkpt lat="44.28647" lon="4.92882">
        <ele>148.9</ele>
        <time>2021-02-24T14:33:25Z</time>
      </trkpt>
      <trkpt lat="44.2864" lon="4.92882">
        <ele>148.2</ele>
        <time>2021-02-24T14:33:26Z</time>
      </trkpt>
      <trkpt lat="44.28638" lon="4.92882">
        <ele>148</ele>
        <time>2021-02-24T14:33:27Z</time>
      </trkpt>
      <trkpt lat="44.28633" lon="4.92882">
        <ele>147.4</ele>
        <time>2021-02-24T14:33:28Z</time>
      </trkpt>
      <trkpt lat="44.28629" lon="4.92882">
        <ele>146.9</ele>
        <time>2021-02-24T14:33:29Z</time>
      </trkpt>
      <trkpt lat="44.28624" lon="4.92883">
        <ele>146.4</ele>
        <time>2021-02-24T14:33:30Z</time>
      </trkpt>
      <trkpt lat="44.2862" lon="4.92885">
        <ele>145.9</ele>
        <time>2021-02-24T14:33:31Z</time>
      </trkpt>
      <trkpt lat="44.28611" lon="4.92889">
        <ele>145.2</ele>
        <time>2021-02-24T14:33:32Z</time>
      </trkpt>
      <trkpt lat="44.28611" lon="4.92889">
        <ele>145.2</ele>
        <time>2021-02-24T14:33:33Z</time>
      </trkpt>
      <trkpt lat="44.28607" lon="4.9289">
        <ele>145</ele>
        <time>2021-02-24T14:33:34Z</time>
      </trkpt>
      <trkpt lat="44.28603" lon="4.92889">
        <ele>144.8</ele>
        <time>2021-02-24T14:33:35Z</time>
      </trkpt>
      <trkpt lat="44.28599" lon="4.92888">
        <ele>144.5</ele>
        <time>2021-02-24T14:33:36Z</time>
      </trkpt>
      <trkpt lat="44.28596" lon="4.92887">
        <ele>144.3</ele>
        <time>2021-02-24T14:33:37Z</time>
      </trkpt>
      <trkpt lat="44.28593" lon="4.92888">
        <ele>144</ele>
        <time>2021-02-24T14:33:38Z</time>
      </trkpt>
      <trkpt lat="44.2859" lon="4.9289">
        <ele>143.6</ele>
        <time>2021-02-24T14:33:39Z</time>
      </trkpt>
      <trkpt lat="44.28588" lon="4.92893">
        <ele>143.6</ele>
        <time>2021-02-24T14:33:40Z</time>
      </trkpt>
      <trkpt lat="44.28588" lon="4.92898">
        <ele>143.6</ele>
        <time>2021-02-24T14:33:41Z</time>
      </trkpt>
      <trkpt lat="44.28588" lon="4.92903">
        <ele>143.6</ele>
        <time>2021-02-24T14:33:42Z</time>
      </trkpt>
      <trkpt lat="44.28588" lon="4.92909">
        <ele>143.7</ele>
        <time>2021-02-24T14:33:43Z</time>
      </trkpt>
      <trkpt lat="44.28589" lon="4.92914">
        <ele>143.7</ele>
        <time>2021-02-24T14:33:44Z</time>
      </trkpt>
      <trkpt lat="44.28589" lon="4.9292">
        <ele>143.7</ele>
        <time>2021-02-24T14:33:45Z</time>
      </trkpt>
      <trkpt lat="44.28589" lon="4.92925">
        <ele>143.7</ele>
        <time>2021-02-24T14:33:46Z</time>
      </trkpt>
      <trkpt lat="44.2859" lon="4.9293">
        <ele>143.7</ele>
        <time>2021-02-24T14:33:47Z</time>
      </trkpt>
      <trkpt lat="44.2859" lon="4.92935">
        <ele>143.7</ele>
        <time>2021-02-24T14:33:48Z</time>
      </trkpt>
      <trkpt lat="44.28591" lon="4.9294">
        <ele>143.8</ele>
        <time>2021-02-24T14:33:49Z</time>
      </trkpt>
      <trkpt lat="44.28591" lon="4.92944">
        <ele>143.8</ele>
        <time>2021-02-24T14:33:50Z</time>
      </trkpt>
      <trkpt lat="44.28591" lon="4.92954">
        <ele>143.8</ele>
        <time>2021-02-24T14:33:51Z</time>
      </trkpt>
      <trkpt lat="44.28591" lon="4.92954">
        <ele>143.8</ele>
        <time>2021-02-24T14:33:52Z</time>
      </trkpt>
      <trkpt lat="44.28591" lon="4.92959">
        <ele>143.8</ele>
        <time>2021-02-24T14:33:53Z</time>
      </trkpt>
      <trkpt lat="44.28591" lon="4.92965">
        <ele>143.9</ele>
        <time>2021-02-24T14:33:54Z</time>
      </trkpt>
      <trkpt lat="44.28591" lon="4.9297">
        <ele>143.9</ele>
        <time>2021-02-24T14:33:55Z</time>
      </trkpt>
      <trkpt lat="44.28591" lon="4.92975">
        <ele>143.9</ele>
        <time>2021-02-24T14:33:56Z</time>
      </trkpt>
      <trkpt lat="44.28592" lon="4.92979">
        <ele>143.9</ele>
        <time>2021-02-24T14:33:57Z</time>
      </trkpt>
      <trkpt lat="44.28592" lon="4.92984">
        <ele>144</ele>
        <time>2021-02-24T14:33:58Z</time>
      </trkpt>
      <trkpt lat="44.28593" lon="4.92988">
        <ele>144</ele>
        <time>2021-02-24T14:33:59Z</time>
      </trkpt>
      <trkpt lat="44.28593" lon="4.92992">
        <ele>144</ele>
        <time>2021-02-24T14:34:00Z</time>
      </trkpt>
      <trkpt lat="44.28594" lon="4.92996">
        <ele>144</ele>
        <time>2021-02-24T14:34:01Z</time>
      </trkpt>
      <trkpt lat="44.28594" lon="4.93">
        <ele>144.1</ele>
        <time>2021-02-24T14:34:02Z</time>
      </trkpt>
      <trkpt lat="44.28594" lon="4.93003">
        <ele>144.1</ele>
        <time>2021-02-24T14:34:03Z</time>
      </trkpt>
      <trkpt lat="44.28594" lon="4.93006">
        <ele>144.1</ele>
        <time>2021-02-24T14:34:04Z</time>
      </trkpt>
      <trkpt lat="44.28594" lon="4.93009">
        <ele>144.1</ele>
        <time>2021-02-24T14:34:05Z</time>
      </trkpt>
      <trkpt lat="44.28594" lon="4.93012">
        <ele>144.1</ele>
        <time>2021-02-24T14:34:06Z</time>
      </trkpt>
      <trkpt lat="44.28594" lon="4.93015">
        <ele>144.1</ele>
        <time>2021-02-24T14:34:07Z</time>
      </trkpt>
      <trkpt lat="44.28593" lon="4.9302">
        <ele>144.1</ele>
        <time>2021-02-24T14:34:08Z</time>
      </trkpt>
      <trkpt lat="44.28593" lon="4.9302">
        <ele>144.1</ele>
        <time>2021-02-24T14:34:09Z</time>
      </trkpt>
      <trkpt lat="44.28594" lon="4.93023">
        <ele>144.1</ele>
        <time>2021-02-24T14:34:10Z</time>
      </trkpt>
      <trkpt lat="44.28594" lon="4.93026">
        <ele>144.2</ele>
        <time>2021-02-24T14:34:11Z</time>
      </trkpt>
      <trkpt lat="44.28594" lon="4.93029">
        <ele>144.2</ele>
        <time>2021-02-24T14:34:12Z</time>
      </trkpt>
      <trkpt lat="44.28594" lon="4.93032">
        <ele>144.2</ele>
        <time>2021-02-24T14:34:13Z</time>
      </trkpt>
      <trkpt lat="44.28594" lon="4.93032">
        <ele>144.2</ele>
        <time>2021-02-24T14:34:14Z</time>
      </trkpt>
      <trkpt lat="44.28595" lon="4.93036">
        <ele>144.2</ele>
        <time>2021-02-24T14:34:15Z</time>
      </trkpt>
      <trkpt lat="44.28595" lon="4.93036">
        <ele>144.2</ele>
        <time>2021-02-24T14:34:16Z</time>
      </trkpt>
      <trkpt lat="44.28596" lon="4.9304">
        <ele>144.2</ele>
        <time>2021-02-24T14:34:17Z</time>
      </trkpt>
      <trkpt lat="44.28596" lon="4.9304">
        <ele>144.2</ele>
        <time>2021-02-24T14:34:18Z</time>
      </trkpt>
      <trkpt lat="44.28596" lon="4.9304">
        <ele>144.2</ele>
        <time>2021-02-24T14:34:19Z</time>
      </trkpt>
      <trkpt lat="44.28596" lon="4.9304">
        <ele>144.2</ele>
        <time>2021-02-24T14:34:20Z</time>
      </trkpt>
      <trkpt lat="44.28596" lon="4.9304">
        <ele>144.2</ele>
        <time>2021-02-24T14:34:21Z</time>
      </trkpt>
      <trkpt lat="44.28596" lon="4.9304">
        <ele>144.2</ele>
        <time>2021-02-24T14:34:22Z</time>
      </trkpt>
      <trkpt lat="44.28596" lon="4.9304">
        <ele>144.2</ele>
        <time>2021-02-24T14:34:23Z</time>
      </trkpt>
      <trkpt lat="44.28598" lon="4.93041">
        <ele>144.2</ele>
        <time>2021-02-24T14:34:24Z</time>
      </trkpt>
      <trkpt lat="44.28598" lon="4.93034">
        <ele>144.2</ele>
        <time>2021-02-24T14:35:53Z</time>
      </trkpt>
      <trkpt lat="44.28598" lon="4.93034">
        <ele>144.2</ele>
        <time>2021-02-24T14:35:54Z</time>
      </trkpt>
      <trkpt lat="44.28598" lon="4.93034">
        <ele>144.2</ele>
        <time>2021-02-24T14:35:55Z</time>
      </trkpt>
      <trkpt lat="44.28598" lon="4.93034">
        <ele>144.2</ele>
        <time>2021-02-24T14:35:56Z</time>
      </trkpt>
      <trkpt lat="44.286" lon="4.93047">
        <ele>144.6</ele>
        <time>2021-02-24T14:40:21Z</time>
      </trkpt>
      <trkpt lat="44.28604" lon="4.9305">
        <ele>144.8</ele>
        <time>2021-02-24T14:40:22Z</time>
      </trkpt>
      <trkpt lat="44.28604" lon="4.9305">
        <ele>144.8</ele>
        <time>2021-02-24T14:40:23Z</time>
      </trkpt>
      <trkpt lat="44.28606" lon="4.93052">
        <ele>144.9</ele>
        <time>2021-02-24T14:40:24Z</time>
      </trkpt>
      <trkpt lat="44.28609" lon="4.93055">
        <ele>145</ele>
        <time>2021-02-24T14:40:25Z</time>
      </trkpt>
      <trkpt lat="44.28612" lon="4.93059">
        <ele>145.1</ele>
        <time>2021-02-24T14:40:26Z</time>
      </trkpt>
      <trkpt lat="44.28613" lon="4.93063">
        <ele>145.1</ele>
        <time>2021-02-24T14:40:27Z</time>
      </trkpt>
      <trkpt lat="44.28615" lon="4.93067">
        <ele>145.2</ele>
        <time>2021-02-24T14:40:28Z</time>
      </trkpt>
      <trkpt lat="44.28616" lon="4.93071">
        <ele>145.3</ele>
        <time>2021-02-24T14:40:29Z</time>
      </trkpt>
      <trkpt lat="44.28617" lon="4.93075">
        <ele>145.3</ele>
        <time>2021-02-24T14:40:30Z</time>
      </trkpt>
      <trkpt lat="44.28618" lon="4.93079">
        <ele>145.4</ele>
        <time>2021-02-24T14:40:31Z</time>
      </trkpt>
      <trkpt lat="44.2862" lon="4.93082">
        <ele>145.5</ele>
        <time>2021-02-24T14:40:32Z</time>
      </trkpt>
      <trkpt lat="44.28621" lon="4.93085">
        <ele>145.5</ele>
        <time>2021-02-24T14:40:33Z</time>
      </trkpt>
      <trkpt lat="44.28622" lon="4.93088">
        <ele>145.6</ele>
        <time>2021-02-24T14:40:34Z</time>
      </trkpt>
      <trkpt lat="44.28624" lon="4.93092">
        <ele>145.7</ele>
        <time>2021-02-24T14:40:35Z</time>
      </trkpt>
      <trkpt lat="44.28625" lon="4.93095">
        <ele>145.8</ele>
        <time>2021-02-24T14:40:36Z</time>
      </trkpt>
      <trkpt lat="44.28627" lon="4.93097">
        <ele>146</ele>
        <time>2021-02-24T14:40:37Z</time>
      </trkpt>
      <trkpt lat="44.28629" lon="4.931">
        <ele>146.1</ele>
        <time>2021-02-24T14:40:38Z</time>
      </trkpt>
      <trkpt lat="44.28631" lon="4.93103">
        <ele>146.3</ele>
        <time>2021-02-24T14:40:39Z</time>
      </trkpt>
      <trkpt lat="44.28633" lon="4.93106">
        <ele>146.4</ele>
        <time>2021-02-24T14:40:40Z</time>
      </trkpt>
      <trkpt lat="44.28637" lon="4.93111">
        <ele>146.8</ele>
        <time>2021-02-24T14:40:41Z</time>
      </trkpt>
      <trkpt lat="44.28637" lon="4.93111">
        <ele>146.8</ele>
        <time>2021-02-24T14:40:42Z</time>
      </trkpt>
      <trkpt lat="44.2864" lon="4.93114">
        <ele>146.9</ele>
        <time>2021-02-24T14:40:43Z</time>
      </trkpt>
      <trkpt lat="44.28642" lon="4.93117">
        <ele>147.1</ele>
        <time>2021-02-24T14:40:44Z</time>
      </trkpt>
      <trkpt lat="44.28645" lon="4.9312">
        <ele>147.4</ele>
        <time>2021-02-24T14:40:45Z</time>
      </trkpt>
      <trkpt lat="44.28647" lon="4.93123">
        <ele>147.6</ele>
        <time>2021-02-24T14:40:46Z</time>
      </trkpt>
      <trkpt lat="44.28649" lon="4.93127">
        <ele>147.7</ele>
        <time>2021-02-24T14:40:47Z</time>
      </trkpt>
      <trkpt lat="44.2865" lon="4.9313">
        <ele>147.8</ele>
        <time>2021-02-24T14:40:48Z</time>
      </trkpt>
      <trkpt lat="44.28651" lon="4.93134">
        <ele>147.9</ele>
        <time>2021-02-24T14:40:49Z</time>
      </trkpt>
      <trkpt lat="44.28652" lon="4.93138">
        <ele>148</ele>
        <time>2021-02-24T14:40:50Z</time>
      </trkpt>
      <trkpt lat="44.28653" lon="4.93142">
        <ele>148.1</ele>
        <time>2021-02-24T14:40:51Z</time>
      </trkpt>
      <trkpt lat="44.28653" lon="4.93146">
        <ele>148.2</ele>
        <time>2021-02-24T14:40:52Z</time>
      </trkpt>
      <trkpt lat="44.28653" lon="4.93151">
        <ele>148.3</ele>
        <time>2021-02-24T14:40:53Z</time>
      </trkpt>
      <trkpt lat="44.28652" lon="4.93156">
        <ele>148.4</ele>
        <time>2021-02-24T14:40:54Z</time>
      </trkpt>
      <trkpt lat="44.28652" lon="4.93161">
        <ele>148.5</ele>
        <time>2021-02-24T14:40:55Z</time>
      </trkpt>
      <trkpt lat="44.28651" lon="4.93165">
        <ele>148.6</ele>
        <time>2021-02-24T14:40:56Z</time>
      </trkpt>
      <trkpt lat="44.28651" lon="4.93171">
        <ele>148.7</ele>
        <time>2021-02-24T14:40:57Z</time>
      </trkpt>
      <trkpt lat="44.28651" lon="4.93176">
        <ele>148.9</ele>
        <time>2021-02-24T14:40:58Z</time>
      </trkpt>
      <trkpt lat="44.2865" lon="4.93181">
        <ele>149</ele>
        <time>2021-02-24T14:40:59Z</time>
      </trkpt>
      <trkpt lat="44.28647" lon="4.93192">
        <ele>149.3</ele>
        <time>2021-02-24T14:41:00Z</time>
      </trkpt>
      <trkpt lat="44.28647" lon="4.93192">
        <ele>149.3</ele>
        <time>2021-02-24T14:41:01Z</time>
      </trkpt>
      <trkpt lat="44.28645" lon="4.93197">
        <ele>149.5</ele>
        <time>2021-02-24T14:41:02Z</time>
      </trkpt>
      <trkpt lat="44.28644" lon="4.93203">
        <ele>149.6</ele>
        <time>2021-02-24T14:41:03Z</time>
      </trkpt>
      <trkpt lat="44.28642" lon="4.93207">
        <ele>149.8</ele>
        <time>2021-02-24T14:41:04Z</time>
      </trkpt>
      <trkpt lat="44.28641" lon="4.93212">
        <ele>149.9</ele>
        <time>2021-02-24T14:41:05Z</time>
      </trkpt>
      <trkpt lat="44.2864" lon="4.93217">
        <ele>150.1</ele>
        <time>2021-02-24T14:41:06Z</time>
      </trkpt>
      <trkpt lat="44.28639" lon="4.93222">
        <ele>150.2</ele>
        <time>2021-02-24T14:41:07Z</time>
      </trkpt>
      <trkpt lat="44.28637" lon="4.93226">
        <ele>150.3</ele>
        <time>2021-02-24T14:41:08Z</time>
      </trkpt>
      <trkpt lat="44.28636" lon="4.93231">
        <ele>150.5</ele>
        <time>2021-02-24T14:41:09Z</time>
      </trkpt>
      <trkpt lat="44.28634" lon="4.93236">
        <ele>150.6</ele>
        <time>2021-02-24T14:41:10Z</time>
      </trkpt>
      <trkpt lat="44.28633" lon="4.93241">
        <ele>150.8</ele>
        <time>2021-02-24T14:41:11Z</time>
      </trkpt>
      <trkpt lat="44.28633" lon="4.93245">
        <ele>150.9</ele>
        <time>2021-02-24T14:41:12Z</time>
      </trkpt>
      <trkpt lat="44.28632" lon="4.9325">
        <ele>151</ele>
        <time>2021-02-24T14:41:13Z</time>
      </trkpt>
      <trkpt lat="44.28631" lon="4.93255">
        <ele>151.2</ele>
        <time>2021-02-24T14:41:14Z</time>
      </trkpt>
      <trkpt lat="44.28629" lon="4.9326">
        <ele>151.3</ele>
        <time>2021-02-24T14:41:15Z</time>
      </trkpt>
      <trkpt lat="44.28629" lon="4.93265">
        <ele>151.4</ele>
        <time>2021-02-24T14:41:16Z</time>
      </trkpt>
      <trkpt lat="44.28628" lon="4.93269">
        <ele>151.5</ele>
        <time>2021-02-24T14:41:17Z</time>
      </trkpt>
      <trkpt lat="44.28628" lon="4.93274">
        <ele>151.7</ele>
        <time>2021-02-24T14:41:18Z</time>
      </trkpt>
      <trkpt lat="44.28627" lon="4.93279">
        <ele>151.8</ele>
        <time>2021-02-24T14:41:19Z</time>
      </trkpt>
      <trkpt lat="44.28626" lon="4.93284">
        <ele>151.9</ele>
        <time>2021-02-24T14:41:20Z</time>
      </trkpt>
      <trkpt lat="44.28626" lon="4.93284">
        <ele>151.9</ele>
        <time>2021-02-24T14:41:21Z</time>
      </trkpt>
      <trkpt lat="44.28626" lon="4.93289">
        <ele>152</ele>
        <time>2021-02-24T14:41:22Z</time>
      </trkpt>
      <trkpt lat="44.28626" lon="4.93294">
        <ele>152.1</ele>
        <time>2021-02-24T14:41:23Z</time>
      </trkpt>
      <trkpt lat="44.28625" lon="4.933">
        <ele>152.2</ele>
        <time>2021-02-24T14:41:24Z</time>
      </trkpt>
      <trkpt lat="44.28626" lon="4.93305">
        <ele>152.3</ele>
        <time>2021-02-24T14:41:25Z</time>
      </trkpt>
      <trkpt lat="44.28626" lon="4.9331">
        <ele>152.4</ele>
        <time>2021-02-24T14:41:26Z</time>
      </trkpt>
      <trkpt lat="44.28627" lon="4.93316">
        <ele>152.5</ele>
        <time>2021-02-24T14:41:27Z</time>
      </trkpt>
      <trkpt lat="44.28627" lon="4.93322">
        <ele>152.7</ele>
        <time>2021-02-24T14:41:28Z</time>
      </trkpt>
      <trkpt lat="44.28627" lon="4.93329">
        <ele>152.9</ele>
        <time>2021-02-24T14:41:29Z</time>
      </trkpt>
      <trkpt lat="44.28627" lon="4.93336">
        <ele>153.1</ele>
        <time>2021-02-24T14:41:30Z</time>
      </trkpt>
      <trkpt lat="44.28626" lon="4.93341">
        <ele>153.2</ele>
        <time>2021-02-24T14:41:31Z</time>
      </trkpt>
      <trkpt lat="44.28625" lon="4.93346">
        <ele>153.3</ele>
        <time>2021-02-24T14:41:32Z</time>
      </trkpt>
      <trkpt lat="44.28625" lon="4.93351">
        <ele>153.4</ele>
        <time>2021-02-24T14:41:33Z</time>
      </trkpt>
      <trkpt lat="44.28624" lon="4.93355">
        <ele>153.6</ele>
        <time>2021-02-24T14:41:34Z</time>
      </trkpt>
      <trkpt lat="44.28623" lon="4.9336">
        <ele>153.6</ele>
        <time>2021-02-24T14:41:35Z</time>
      </trkpt>
      <trkpt lat="44.28623" lon="4.93364">
        <ele>153.7</ele>
        <time>2021-02-24T14:41:36Z</time>
      </trkpt>
      <trkpt lat="44.28622" lon="4.93369">
        <ele>153.8</ele>
        <time>2021-02-24T14:41:37Z</time>
      </trkpt>
      <trkpt lat="44.2862" lon="4.93373">
        <ele>153.9</ele>
        <time>2021-02-24T14:41:38Z</time>
      </trkpt>
      <trkpt lat="44.28618" lon="4.93377">
        <ele>153.9</ele>
        <time>2021-02-24T14:41:39Z</time>
      </trkpt>
      <trkpt lat="44.28615" lon="4.9338">
        <ele>153.9</ele>
        <time>2021-02-24T14:41:40Z</time>
      </trkpt>
      <trkpt lat="44.28612" lon="4.93384">
        <ele>153.9</ele>
        <time>2021-02-24T14:41:41Z</time>
      </trkpt>
      <trkpt lat="44.28609" lon="4.93387">
        <ele>153.9</ele>
        <time>2021-02-24T14:41:42Z</time>
      </trkpt>
      <trkpt lat="44.28606" lon="4.9339">
        <ele>153.9</ele>
        <time>2021-02-24T14:41:43Z</time>
      </trkpt>
      <trkpt lat="44.28603" lon="4.93393">
        <ele>153.9</ele>
        <time>2021-02-24T14:41:44Z</time>
      </trkpt>
      <trkpt lat="44.286" lon="4.93397">
        <ele>153.8</ele>
        <time>2021-02-24T14:41:45Z</time>
      </trkpt>
      <trkpt lat="44.28596" lon="4.934">
        <ele>153.8</ele>
        <time>2021-02-24T14:41:46Z</time>
      </trkpt>
      <trkpt lat="44.28593" lon="4.93404">
        <ele>153.8</ele>
        <time>2021-02-24T14:41:47Z</time>
      </trkpt>
      <trkpt lat="44.2859" lon="4.93407">
        <ele>153.8</ele>
        <time>2021-02-24T14:41:48Z</time>
      </trkpt>
      <trkpt lat="44.28587" lon="4.93411">
        <ele>153.8</ele>
        <time>2021-02-24T14:41:49Z</time>
      </trkpt>
      <trkpt lat="44.28584" lon="4.93415">
        <ele>153.7</ele>
        <time>2021-02-24T14:41:50Z</time>
      </trkpt>
      <trkpt lat="44.2858" lon="4.93419">
        <ele>153.7</ele>
        <time>2021-02-24T14:41:51Z</time>
      </trkpt>
      <trkpt lat="44.28577" lon="4.93423">
        <ele>153.7</ele>
        <time>2021-02-24T14:41:52Z</time>
      </trkpt>
      <trkpt lat="44.28574" lon="4.93426">
        <ele>153.6</ele>
        <time>2021-02-24T14:41:53Z</time>
      </trkpt>
      <trkpt lat="44.28571" lon="4.9343">
        <ele>153.6</ele>
        <time>2021-02-24T14:41:54Z</time>
      </trkpt>
      <trkpt lat="44.28567" lon="4.93434">
        <ele>153.6</ele>
        <time>2021-02-24T14:41:55Z</time>
      </trkpt>
      <trkpt lat="44.28564" lon="4.93438">
        <ele>153.6</ele>
        <time>2021-02-24T14:41:56Z</time>
      </trkpt>
      <trkpt lat="44.2856" lon="4.93441">
        <ele>153.6</ele>
        <time>2021-02-24T14:41:57Z</time>
      </trkpt>
      <trkpt lat="44.28557" lon="4.93445">
        <ele>153.6</ele>
        <time>2021-02-24T14:41:58Z</time>
      </trkpt>
      <trkpt lat="44.28554" lon="4.93448">
        <ele>153.6</ele>
        <time>2021-02-24T14:41:59Z</time>
      </trkpt>
      <trkpt lat="44.28551" lon="4.93452">
        <ele>153.6</ele>
        <time>2021-02-24T14:42:00Z</time>
      </trkpt>
      <trkpt lat="44.28547" lon="4.93455">
        <ele>153.6</ele>
        <time>2021-02-24T14:42:01Z</time>
      </trkpt>
      <trkpt lat="44.28544" lon="4.93459">
        <ele>153.6</ele>
        <time>2021-02-24T14:42:02Z</time>
      </trkpt>
      <trkpt lat="44.28541" lon="4.93463">
        <ele>153.6</ele>
        <time>2021-02-24T14:42:03Z</time>
      </trkpt>
      <trkpt lat="44.28538" lon="4.93467">
        <ele>153.6</ele>
        <time>2021-02-24T14:42:04Z</time>
      </trkpt>
      <trkpt lat="44.28535" lon="4.93472">
        <ele>153.7</ele>
        <time>2021-02-24T14:42:05Z</time>
      </trkpt>
      <trkpt lat="44.28531" lon="4.93476">
        <ele>153.7</ele>
        <time>2021-02-24T14:42:06Z</time>
      </trkpt>
      <trkpt lat="44.28527" lon="4.9348">
        <ele>153.7</ele>
        <time>2021-02-24T14:42:07Z</time>
      </trkpt>
      <trkpt lat="44.28524" lon="4.93484">
        <ele>153.7</ele>
        <time>2021-02-24T14:42:08Z</time>
      </trkpt>
      <trkpt lat="44.28519" lon="4.93491">
        <ele>153.8</ele>
        <time>2021-02-24T14:42:09Z</time>
      </trkpt>
      <trkpt lat="44.28517" lon="4.93493">
        <ele>153.8</ele>
        <time>2021-02-24T14:42:10Z</time>
      </trkpt>
      <trkpt lat="44.28514" lon="4.93497">
        <ele>153.8</ele>
        <time>2021-02-24T14:42:11Z</time>
      </trkpt>
      <trkpt lat="44.28511" lon="4.93501">
        <ele>153.9</ele>
        <time>2021-02-24T14:42:12Z</time>
      </trkpt>
      <trkpt lat="44.28509" lon="4.93504">
        <ele>153.9</ele>
        <time>2021-02-24T14:42:13Z</time>
      </trkpt>
      <trkpt lat="44.28506" lon="4.93509">
        <ele>154</ele>
        <time>2021-02-24T14:42:14Z</time>
      </trkpt>
      <trkpt lat="44.28503" lon="4.93513">
        <ele>154</ele>
        <time>2021-02-24T14:42:15Z</time>
      </trkpt>
      <trkpt lat="44.285" lon="4.93517">
        <ele>154.1</ele>
        <time>2021-02-24T14:42:16Z</time>
      </trkpt>
      <trkpt lat="44.28498" lon="4.93522">
        <ele>154.1</ele>
        <time>2021-02-24T14:42:17Z</time>
      </trkpt>
      <trkpt lat="44.28495" lon="4.93527">
        <ele>154.2</ele>
        <time>2021-02-24T14:42:18Z</time>
      </trkpt>
      <trkpt lat="44.28493" lon="4.93532">
        <ele>154.2</ele>
        <time>2021-02-24T14:42:19Z</time>
      </trkpt>
      <trkpt lat="44.28491" lon="4.93537">
        <ele>154.3</ele>
        <time>2021-02-24T14:42:20Z</time>
      </trkpt>
      <trkpt lat="44.28489" lon="4.93542">
        <ele>154.3</ele>
        <time>2021-02-24T14:42:21Z</time>
      </trkpt>
      <trkpt lat="44.28487" lon="4.93548">
        <ele>154.4</ele>
        <time>2021-02-24T14:42:22Z</time>
      </trkpt>
      <trkpt lat="44.28485" lon="4.93553">
        <ele>154.4</ele>
        <time>2021-02-24T14:42:23Z</time>
      </trkpt>
      <trkpt lat="44.28483" lon="4.93558">
        <ele>154.5</ele>
        <time>2021-02-24T14:42:24Z</time>
      </trkpt>
      <trkpt lat="44.28481" lon="4.93563">
        <ele>154.5</ele>
        <time>2021-02-24T14:42:25Z</time>
      </trkpt>
      <trkpt lat="44.2848" lon="4.93568">
        <ele>154.6</ele>
        <time>2021-02-24T14:42:26Z</time>
      </trkpt>
      <trkpt lat="44.28478" lon="4.93573">
        <ele>154.7</ele>
        <time>2021-02-24T14:42:27Z</time>
      </trkpt>
      <trkpt lat="44.28476" lon="4.93579">
        <ele>154.7</ele>
        <time>2021-02-24T14:42:28Z</time>
      </trkpt>
      <trkpt lat="44.28473" lon="4.93585">
        <ele>154.8</ele>
        <time>2021-02-24T14:42:29Z</time>
      </trkpt>
      <trkpt lat="44.28471" lon="4.9359">
        <ele>154.9</ele>
        <time>2021-02-24T14:42:30Z</time>
      </trkpt>
      <trkpt lat="44.28469" lon="4.93595">
        <ele>154.9</ele>
        <time>2021-02-24T14:42:31Z</time>
      </trkpt>
      <trkpt lat="44.28466" lon="4.936">
        <ele>155</ele>
        <time>2021-02-24T14:42:32Z</time>
      </trkpt>
      <trkpt lat="44.28464" lon="4.93604">
        <ele>155.1</ele>
        <time>2021-02-24T14:42:33Z</time>
      </trkpt>
      <trkpt lat="44.28461" lon="4.93609">
        <ele>155.2</ele>
        <time>2021-02-24T14:42:34Z</time>
      </trkpt>
      <trkpt lat="44.28455" lon="4.93617">
        <ele>155.3</ele>
        <time>2021-02-24T14:42:35Z</time>
      </trkpt>
      <trkpt lat="44.28455" lon="4.93617">
        <ele>155.3</ele>
        <time>2021-02-24T14:42:36Z</time>
      </trkpt>
      <trkpt lat="44.28453" lon="4.93622">
        <ele>155.4</ele>
        <time>2021-02-24T14:42:37Z</time>
      </trkpt>
      <trkpt lat="44.28451" lon="4.93627">
        <ele>155.4</ele>
        <time>2021-02-24T14:42:38Z</time>
      </trkpt>
      <trkpt lat="44.28448" lon="4.93632">
        <ele>155.5</ele>
        <time>2021-02-24T14:42:39Z</time>
      </trkpt>
      <trkpt lat="44.28446" lon="4.93637">
        <ele>155.5</ele>
        <time>2021-02-24T14:42:40Z</time>
      </trkpt>
      <trkpt lat="44.28444" lon="4.93642">
        <ele>155.6</ele>
        <time>2021-02-24T14:42:41Z</time>
      </trkpt>
      <trkpt lat="44.28442" lon="4.93648">
        <ele>155.7</ele>
        <time>2021-02-24T14:42:42Z</time>
      </trkpt>
      <trkpt lat="44.2844" lon="4.93653">
        <ele>155.7</ele>
        <time>2021-02-24T14:42:43Z</time>
      </trkpt>
      <trkpt lat="44.28439" lon="4.93659">
        <ele>155.8</ele>
        <time>2021-02-24T14:42:44Z</time>
      </trkpt>
      <trkpt lat="44.28438" lon="4.93665">
        <ele>155.8</ele>
        <time>2021-02-24T14:42:45Z</time>
      </trkpt>
      <trkpt lat="44.28437" lon="4.93671">
        <ele>155.9</ele>
        <time>2021-02-24T14:42:46Z</time>
      </trkpt>
      <trkpt lat="44.28437" lon="4.93677">
        <ele>155.9</ele>
        <time>2021-02-24T14:42:47Z</time>
      </trkpt>
      <trkpt lat="44.28436" lon="4.93684">
        <ele>155.9</ele>
        <time>2021-02-24T14:42:48Z</time>
      </trkpt>
      <trkpt lat="44.28435" lon="4.9369">
        <ele>156</ele>
        <time>2021-02-24T14:42:49Z</time>
      </trkpt>
      <trkpt lat="44.28434" lon="4.93696">
        <ele>156</ele>
        <time>2021-02-24T14:42:50Z</time>
      </trkpt>
      <trkpt lat="44.28432" lon="4.93702">
        <ele>156.1</ele>
        <time>2021-02-24T14:42:51Z</time>
      </trkpt>
      <trkpt lat="44.28431" lon="4.93708">
        <ele>156.1</ele>
        <time>2021-02-24T14:42:52Z</time>
      </trkpt>
      <trkpt lat="44.2843" lon="4.93714">
        <ele>156.1</ele>
        <time>2021-02-24T14:42:53Z</time>
      </trkpt>
      <trkpt lat="44.28428" lon="4.93721">
        <ele>156.2</ele>
        <time>2021-02-24T14:42:54Z</time>
      </trkpt>
      <trkpt lat="44.28427" lon="4.93727">
        <ele>156.2</ele>
        <time>2021-02-24T14:42:55Z</time>
      </trkpt>
      <trkpt lat="44.28425" lon="4.93733">
        <ele>156.3</ele>
        <time>2021-02-24T14:42:56Z</time>
      </trkpt>
      <trkpt lat="44.28423" lon="4.93739">
        <ele>156.3</ele>
        <time>2021-02-24T14:42:57Z</time>
      </trkpt>
      <trkpt lat="44.28422" lon="4.93744">
        <ele>156.3</ele>
        <time>2021-02-24T14:42:58Z</time>
      </trkpt>
      <trkpt lat="44.2842" lon="4.93751">
        <ele>156.3</ele>
        <time>2021-02-24T14:42:59Z</time>
      </trkpt>
      <trkpt lat="44.28418" lon="4.93757">
        <ele>156.3</ele>
        <time>2021-02-24T14:43:00Z</time>
      </trkpt>
      <trkpt lat="44.28415" lon="4.93762">
        <ele>156.3</ele>
        <time>2021-02-24T14:43:01Z</time>
      </trkpt>
      <trkpt lat="44.28413" lon="4.93768">
        <ele>156.4</ele>
        <time>2021-02-24T14:43:02Z</time>
      </trkpt>
      <trkpt lat="44.28411" lon="4.93774">
        <ele>156.4</ele>
        <time>2021-02-24T14:43:03Z</time>
      </trkpt>
      <trkpt lat="44.28408" lon="4.9378">
        <ele>156.4</ele>
        <time>2021-02-24T14:43:04Z</time>
      </trkpt>
      <trkpt lat="44.28406" lon="4.93786">
        <ele>156.4</ele>
        <time>2021-02-24T14:43:05Z</time>
      </trkpt>
      <trkpt lat="44.28402" lon="4.93796">
        <ele>156.4</ele>
        <time>2021-02-24T14:43:06Z</time>
      </trkpt>
      <trkpt lat="44.28401" lon="4.93799">
        <ele>156.4</ele>
        <time>2021-02-24T14:43:07Z</time>
      </trkpt>
      <trkpt lat="44.28399" lon="4.93805">
        <ele>156.4</ele>
        <time>2021-02-24T14:43:08Z</time>
      </trkpt>
      <trkpt lat="44.28397" lon="4.93811">
        <ele>156.3</ele>
        <time>2021-02-24T14:43:09Z</time>
      </trkpt>
      <trkpt lat="44.28395" lon="4.93817">
        <ele>156.3</ele>
        <time>2021-02-24T14:43:10Z</time>
      </trkpt>
      <trkpt lat="44.28392" lon="4.93823">
        <ele>156.3</ele>
        <time>2021-02-24T14:43:11Z</time>
      </trkpt>
      <trkpt lat="44.2839" lon="4.93829">
        <ele>156.3</ele>
        <time>2021-02-24T14:43:12Z</time>
      </trkpt>
      <trkpt lat="44.28388" lon="4.93836">
        <ele>156.3</ele>
        <time>2021-02-24T14:43:13Z</time>
      </trkpt>
      <trkpt lat="44.28385" lon="4.93843">
        <ele>156.3</ele>
        <time>2021-02-24T14:43:14Z</time>
      </trkpt>
      <trkpt lat="44.28383" lon="4.93849">
        <ele>156.3</ele>
        <time>2021-02-24T14:43:15Z</time>
      </trkpt>
      <trkpt lat="44.28381" lon="4.93855">
        <ele>156.3</ele>
        <time>2021-02-24T14:43:16Z</time>
      </trkpt>
      <trkpt lat="44.28378" lon="4.93861">
        <ele>156.3</ele>
        <time>2021-02-24T14:43:17Z</time>
      </trkpt>
      <trkpt lat="44.28377" lon="4.93866">
        <ele>156.4</ele>
        <time>2021-02-24T14:43:18Z</time>
      </trkpt>
      <trkpt lat="44.28374" lon="4.93872">
        <ele>156.4</ele>
        <time>2021-02-24T14:43:19Z</time>
      </trkpt>
      <trkpt lat="44.28372" lon="4.93879">
        <ele>156.4</ele>
        <time>2021-02-24T14:43:20Z</time>
      </trkpt>
      <trkpt lat="44.2837" lon="4.93885">
        <ele>156.5</ele>
        <time>2021-02-24T14:43:21Z</time>
      </trkpt>
      <trkpt lat="44.28368" lon="4.93891">
        <ele>156.5</ele>
        <time>2021-02-24T14:43:22Z</time>
      </trkpt>
      <trkpt lat="44.28366" lon="4.93897">
        <ele>156.6</ele>
        <time>2021-02-24T14:43:23Z</time>
      </trkpt>
      <trkpt lat="44.28364" lon="4.93903">
        <ele>156.6</ele>
        <time>2021-02-24T14:43:24Z</time>
      </trkpt>
      <trkpt lat="44.28362" lon="4.9391">
        <ele>156.6</ele>
        <time>2021-02-24T14:43:25Z</time>
      </trkpt>
      <trkpt lat="44.2836" lon="4.93916">
        <ele>156.6</ele>
        <time>2021-02-24T14:43:26Z</time>
      </trkpt>
      <trkpt lat="44.28358" lon="4.93922">
        <ele>156.6</ele>
        <time>2021-02-24T14:43:27Z</time>
      </trkpt>
      <trkpt lat="44.28355" lon="4.93928">
        <ele>156.6</ele>
        <time>2021-02-24T14:43:28Z</time>
      </trkpt>
      <trkpt lat="44.28353" lon="4.93935">
        <ele>156.7</ele>
        <time>2021-02-24T14:43:29Z</time>
      </trkpt>
      <trkpt lat="44.28351" lon="4.93942">
        <ele>156.7</ele>
        <time>2021-02-24T14:43:30Z</time>
      </trkpt>
      <trkpt lat="44.28348" lon="4.93949">
        <ele>156.7</ele>
        <time>2021-02-24T14:43:31Z</time>
      </trkpt>
      <trkpt lat="44.28343" lon="4.93963">
        <ele>156.7</ele>
        <time>2021-02-24T14:43:32Z</time>
      </trkpt>
      <trkpt lat="44.28343" lon="4.93963">
        <ele>156.7</ele>
        <time>2021-02-24T14:43:33Z</time>
      </trkpt>
      <trkpt lat="44.28341" lon="4.9397">
        <ele>156.7</ele>
        <time>2021-02-24T14:43:34Z</time>
      </trkpt>
      <trkpt lat="44.28339" lon="4.93977">
        <ele>156.7</ele>
        <time>2021-02-24T14:43:35Z</time>
      </trkpt>
      <trkpt lat="44.28335" lon="4.93988">
        <ele>156.7</ele>
        <time>2021-02-24T14:43:36Z</time>
      </trkpt>
      <trkpt lat="44.28334" lon="4.93992">
        <ele>156.7</ele>
        <time>2021-02-24T14:43:37Z</time>
      </trkpt>
      <trkpt lat="44.28332" lon="4.93999">
        <ele>156.7</ele>
        <time>2021-02-24T14:43:38Z</time>
      </trkpt>
      <trkpt lat="44.28329" lon="4.94006">
        <ele>156.7</ele>
        <time>2021-02-24T14:43:39Z</time>
      </trkpt>
      <trkpt lat="44.28327" lon="4.94014">
        <ele>156.7</ele>
        <time>2021-02-24T14:43:40Z</time>
      </trkpt>
      <trkpt lat="44.28325" lon="4.94021">
        <ele>156.7</ele>
        <time>2021-02-24T14:43:41Z</time>
      </trkpt>
      <trkpt lat="44.28323" lon="4.94029">
        <ele>156.7</ele>
        <time>2021-02-24T14:43:42Z</time>
      </trkpt>
      <trkpt lat="44.28321" lon="4.94037">
        <ele>156.7</ele>
        <time>2021-02-24T14:43:43Z</time>
      </trkpt>
      <trkpt lat="44.28319" lon="4.94044">
        <ele>156.7</ele>
        <time>2021-02-24T14:43:44Z</time>
      </trkpt>
      <trkpt lat="44.28317" lon="4.94052">
        <ele>156.7</ele>
        <time>2021-02-24T14:43:45Z</time>
      </trkpt>
      <trkpt lat="44.28316" lon="4.94059">
        <ele>156.7</ele>
        <time>2021-02-24T14:43:46Z</time>
      </trkpt>
      <trkpt lat="44.28314" lon="4.94066">
        <ele>156.7</ele>
        <time>2021-02-24T14:43:47Z</time>
      </trkpt>
      <trkpt lat="44.28312" lon="4.94074">
        <ele>156.7</ele>
        <time>2021-02-24T14:43:48Z</time>
      </trkpt>
      <trkpt lat="44.2831" lon="4.94081">
        <ele>156.7</ele>
        <time>2021-02-24T14:43:49Z</time>
      </trkpt>
      <trkpt lat="44.28308" lon="4.94089">
        <ele>156.7</ele>
        <time>2021-02-24T14:43:50Z</time>
      </trkpt>
      <trkpt lat="44.28305" lon="4.94104">
        <ele>156.7</ele>
        <time>2021-02-24T14:43:51Z</time>
      </trkpt>
      <trkpt lat="44.28305" lon="4.94104">
        <ele>156.7</ele>
        <time>2021-02-24T14:43:52Z</time>
      </trkpt>
      <trkpt lat="44.28303" lon="4.94111">
        <ele>156.7</ele>
        <time>2021-02-24T14:43:53Z</time>
      </trkpt>
      <trkpt lat="44.28301" lon="4.94119">
        <ele>156.7</ele>
        <time>2021-02-24T14:43:54Z</time>
      </trkpt>
      <trkpt lat="44.28299" lon="4.94127">
        <ele>156.7</ele>
        <time>2021-02-24T14:43:55Z</time>
      </trkpt>
      <trkpt lat="44.28297" lon="4.94135">
        <ele>156.7</ele>
        <time>2021-02-24T14:43:56Z</time>
      </trkpt>
      <trkpt lat="44.28295" lon="4.94142">
        <ele>156.7</ele>
        <time>2021-02-24T14:43:57Z</time>
      </trkpt>
      <trkpt lat="44.28293" lon="4.9415">
        <ele>156.7</ele>
        <time>2021-02-24T14:43:58Z</time>
      </trkpt>
      <trkpt lat="44.28291" lon="4.94158">
        <ele>156.7</ele>
        <time>2021-02-24T14:43:59Z</time>
      </trkpt>
      <trkpt lat="44.28289" lon="4.94166">
        <ele>156.7</ele>
        <time>2021-02-24T14:44:00Z</time>
      </trkpt>
      <trkpt lat="44.28287" lon="4.94174">
        <ele>156.7</ele>
        <time>2021-02-24T14:44:01Z</time>
      </trkpt>
      <trkpt lat="44.28284" lon="4.94185">
        <ele>156.7</ele>
        <time>2021-02-24T14:44:02Z</time>
      </trkpt>
      <trkpt lat="44.28283" lon="4.94189">
        <ele>156.7</ele>
        <time>2021-02-24T14:44:03Z</time>
      </trkpt>
      <trkpt lat="44.28281" lon="4.94197">
        <ele>156.7</ele>
        <time>2021-02-24T14:44:04Z</time>
      </trkpt>
      <trkpt lat="44.28279" lon="4.94205">
        <ele>156.7</ele>
        <time>2021-02-24T14:44:05Z</time>
      </trkpt>
      <trkpt lat="44.28277" lon="4.94213">
        <ele>156.7</ele>
        <time>2021-02-24T14:44:06Z</time>
      </trkpt>
      <trkpt lat="44.28275" lon="4.94221">
        <ele>156.7</ele>
        <time>2021-02-24T14:44:07Z</time>
      </trkpt>
      <trkpt lat="44.28273" lon="4.94229">
        <ele>156.7</ele>
        <time>2021-02-24T14:44:08Z</time>
      </trkpt>
      <trkpt lat="44.28271" lon="4.94237">
        <ele>156.6</ele>
        <time>2021-02-24T14:44:09Z</time>
      </trkpt>
      <trkpt lat="44.28269" lon="4.94245">
        <ele>156.6</ele>
        <time>2021-02-24T14:44:10Z</time>
      </trkpt>
      <trkpt lat="44.28267" lon="4.94253">
        <ele>156.6</ele>
        <time>2021-02-24T14:44:11Z</time>
      </trkpt>
      <trkpt lat="44.28265" lon="4.94261">
        <ele>156.6</ele>
        <time>2021-02-24T14:44:12Z</time>
      </trkpt>
      <trkpt lat="44.28263" lon="4.94269">
        <ele>156.6</ele>
        <time>2021-02-24T14:44:13Z</time>
      </trkpt>
      <trkpt lat="44.28261" lon="4.94277">
        <ele>156.5</ele>
        <time>2021-02-24T14:44:14Z</time>
      </trkpt>
      <trkpt lat="44.28259" lon="4.94285">
        <ele>156.5</ele>
        <time>2021-02-24T14:44:15Z</time>
      </trkpt>
      <trkpt lat="44.28257" lon="4.94293">
        <ele>156.4</ele>
        <time>2021-02-24T14:44:16Z</time>
      </trkpt>
      <trkpt lat="44.28256" lon="4.94302">
        <ele>156.4</ele>
        <time>2021-02-24T14:44:17Z</time>
      </trkpt>
      <trkpt lat="44.28254" lon="4.9431">
        <ele>156.4</ele>
        <time>2021-02-24T14:44:18Z</time>
      </trkpt>
      <trkpt lat="44.28252" lon="4.94318">
        <ele>156.4</ele>
        <time>2021-02-24T14:44:19Z</time>
      </trkpt>
      <trkpt lat="44.2825" lon="4.94327">
        <ele>156.4</ele>
        <time>2021-02-24T14:44:20Z</time>
      </trkpt>
      <trkpt lat="44.28248" lon="4.94335">
        <ele>156.4</ele>
        <time>2021-02-24T14:44:21Z</time>
      </trkpt>
      <trkpt lat="44.28246" lon="4.94344">
        <ele>156.4</ele>
        <time>2021-02-24T14:44:22Z</time>
      </trkpt>
      <trkpt lat="44.28244" lon="4.94352">
        <ele>156.3</ele>
        <time>2021-02-24T14:44:23Z</time>
      </trkpt>
      <trkpt lat="44.28241" lon="4.9436">
        <ele>156.3</ele>
        <time>2021-02-24T14:44:24Z</time>
      </trkpt>
      <trkpt lat="44.28239" lon="4.94369">
        <ele>156.3</ele>
        <time>2021-02-24T14:44:25Z</time>
      </trkpt>
      <trkpt lat="44.28236" lon="4.94381">
        <ele>156.3</ele>
        <time>2021-02-24T14:44:26Z</time>
      </trkpt>
      <trkpt lat="44.28234" lon="4.94385">
        <ele>156.2</ele>
        <time>2021-02-24T14:44:27Z</time>
      </trkpt>
      <trkpt lat="44.28232" lon="4.94393">
        <ele>156.2</ele>
        <time>2021-02-24T14:44:28Z</time>
      </trkpt>
      <trkpt lat="44.28225" lon="4.94408">
        <ele>156.2</ele>
        <time>2021-02-24T14:44:29Z</time>
      </trkpt>
      <trkpt lat="44.28225" lon="4.94408">
        <ele>156.2</ele>
        <time>2021-02-24T14:44:30Z</time>
      </trkpt>
      <trkpt lat="44.28221" lon="4.94415">
        <ele>156.1</ele>
        <time>2021-02-24T14:44:31Z</time>
      </trkpt>
      <trkpt lat="44.28217" lon="4.94421">
        <ele>156.1</ele>
        <time>2021-02-24T14:44:32Z</time>
      </trkpt>
      <trkpt lat="44.28213" lon="4.94428">
        <ele>156.1</ele>
        <time>2021-02-24T14:44:33Z</time>
      </trkpt>
      <trkpt lat="44.28209" lon="4.94434">
        <ele>156.1</ele>
        <time>2021-02-24T14:44:34Z</time>
      </trkpt>
      <trkpt lat="44.28204" lon="4.9444">
        <ele>156.1</ele>
        <time>2021-02-24T14:44:35Z</time>
      </trkpt>
      <trkpt lat="44.282" lon="4.94447">
        <ele>156.1</ele>
        <time>2021-02-24T14:44:36Z</time>
      </trkpt>
      <trkpt lat="44.28195" lon="4.94453">
        <ele>156.1</ele>
        <time>2021-02-24T14:44:37Z</time>
      </trkpt>
      <trkpt lat="44.28191" lon="4.94459">
        <ele>156.1</ele>
        <time>2021-02-24T14:44:38Z</time>
      </trkpt>
      <trkpt lat="44.28187" lon="4.94466">
        <ele>156.1</ele>
        <time>2021-02-24T14:44:39Z</time>
      </trkpt>
      <trkpt lat="44.28183" lon="4.94473">
        <ele>156.1</ele>
        <time>2021-02-24T14:44:40Z</time>
      </trkpt>
      <trkpt lat="44.28179" lon="4.94479">
        <ele>156.1</ele>
        <time>2021-02-24T14:44:41Z</time>
      </trkpt>
      <trkpt lat="44.28176" lon="4.94486">
        <ele>156.1</ele>
        <time>2021-02-24T14:44:42Z</time>
      </trkpt>
      <trkpt lat="44.28172" lon="4.94494">
        <ele>156.1</ele>
        <time>2021-02-24T14:44:43Z</time>
      </trkpt>
      <trkpt lat="44.28169" lon="4.94501">
        <ele>156</ele>
        <time>2021-02-24T14:44:44Z</time>
      </trkpt>
      <trkpt lat="44.28166" lon="4.94508">
        <ele>156</ele>
        <time>2021-02-24T14:44:45Z</time>
      </trkpt>
      <trkpt lat="44.28163" lon="4.94516">
        <ele>156</ele>
        <time>2021-02-24T14:44:46Z</time>
      </trkpt>
      <trkpt lat="44.2816" lon="4.94524">
        <ele>156</ele>
        <time>2021-02-24T14:44:47Z</time>
      </trkpt>
      <trkpt lat="44.28158" lon="4.94532">
        <ele>156</ele>
        <time>2021-02-24T14:44:48Z</time>
      </trkpt>
      <trkpt lat="44.28155" lon="4.9454">
        <ele>156</ele>
        <time>2021-02-24T14:44:49Z</time>
      </trkpt>
      <trkpt lat="44.28153" lon="4.94548">
        <ele>156</ele>
        <time>2021-02-24T14:44:50Z</time>
      </trkpt>
      <trkpt lat="44.2815" lon="4.94556">
        <ele>156</ele>
        <time>2021-02-24T14:44:51Z</time>
      </trkpt>
      <trkpt lat="44.28148" lon="4.94564">
        <ele>156</ele>
        <time>2021-02-24T14:44:52Z</time>
      </trkpt>
      <trkpt lat="44.28145" lon="4.94572">
        <ele>156</ele>
        <time>2021-02-24T14:44:53Z</time>
      </trkpt>
      <trkpt lat="44.28143" lon="4.9458">
        <ele>155.9</ele>
        <time>2021-02-24T14:44:54Z</time>
      </trkpt>
      <trkpt lat="44.2814" lon="4.94588">
        <ele>155.9</ele>
        <time>2021-02-24T14:44:55Z</time>
      </trkpt>
      <trkpt lat="44.28138" lon="4.94596">
        <ele>155.9</ele>
        <time>2021-02-24T14:44:56Z</time>
      </trkpt>
      <trkpt lat="44.28135" lon="4.94605">
        <ele>155.9</ele>
        <time>2021-02-24T14:44:57Z</time>
      </trkpt>
      <trkpt lat="44.28133" lon="4.94613">
        <ele>155.8</ele>
        <time>2021-02-24T14:44:58Z</time>
      </trkpt>
      <trkpt lat="44.2813" lon="4.94621">
        <ele>155.8</ele>
        <time>2021-02-24T14:44:59Z</time>
      </trkpt>
      <trkpt lat="44.28128" lon="4.94629">
        <ele>155.8</ele>
        <time>2021-02-24T14:45:00Z</time>
      </trkpt>
      <trkpt lat="44.28125" lon="4.94637">
        <ele>155.8</ele>
        <time>2021-02-24T14:45:01Z</time>
      </trkpt>
      <trkpt lat="44.28123" lon="4.94645">
        <ele>155.8</ele>
        <time>2021-02-24T14:45:02Z</time>
      </trkpt>
      <trkpt lat="44.28121" lon="4.94653">
        <ele>155.8</ele>
        <time>2021-02-24T14:45:03Z</time>
      </trkpt>
      <trkpt lat="44.28118" lon="4.94661">
        <ele>155.8</ele>
        <time>2021-02-24T14:45:04Z</time>
      </trkpt>
      <trkpt lat="44.28116" lon="4.94669">
        <ele>155.8</ele>
        <time>2021-02-24T14:45:05Z</time>
      </trkpt>
      <trkpt lat="44.28113" lon="4.94677">
        <ele>155.8</ele>
        <time>2021-02-24T14:45:06Z</time>
      </trkpt>
      <trkpt lat="44.28111" lon="4.94685">
        <ele>155.8</ele>
        <time>2021-02-24T14:45:07Z</time>
      </trkpt>
      <trkpt lat="44.28107" lon="4.94697">
        <ele>155.9</ele>
        <time>2021-02-24T14:45:08Z</time>
      </trkpt>
      <trkpt lat="44.28106" lon="4.94701">
        <ele>155.9</ele>
        <time>2021-02-24T14:45:09Z</time>
      </trkpt>
      <trkpt lat="44.28104" lon="4.94709">
        <ele>155.9</ele>
        <time>2021-02-24T14:45:10Z</time>
      </trkpt>
      <trkpt lat="44.28101" lon="4.94717">
        <ele>155.9</ele>
        <time>2021-02-24T14:45:11Z</time>
      </trkpt>
      <trkpt lat="44.28099" lon="4.94725">
        <ele>155.9</ele>
        <time>2021-02-24T14:45:12Z</time>
      </trkpt>
      <trkpt lat="44.28097" lon="4.94732">
        <ele>156</ele>
        <time>2021-02-24T14:45:13Z</time>
      </trkpt>
      <trkpt lat="44.28094" lon="4.9474">
        <ele>156</ele>
        <time>2021-02-24T14:45:14Z</time>
      </trkpt>
      <trkpt lat="44.28092" lon="4.94748">
        <ele>156</ele>
        <time>2021-02-24T14:45:15Z</time>
      </trkpt>
      <trkpt lat="44.2809" lon="4.94756">
        <ele>156</ele>
        <time>2021-02-24T14:45:16Z</time>
      </trkpt>
      <trkpt lat="44.28089" lon="4.94764">
        <ele>155.9</ele>
        <time>2021-02-24T14:45:17Z</time>
      </trkpt>
      <trkpt lat="44.28088" lon="4.94773">
        <ele>155.9</ele>
        <time>2021-02-24T14:45:18Z</time>
      </trkpt>
      <trkpt lat="44.28087" lon="4.94781">
        <ele>155.8</ele>
        <time>2021-02-24T14:45:19Z</time>
      </trkpt>
      <trkpt lat="44.28087" lon="4.9479">
        <ele>155.6</ele>
        <time>2021-02-24T14:45:20Z</time>
      </trkpt>
      <trkpt lat="44.28087" lon="4.94799">
        <ele>155.5</ele>
        <time>2021-02-24T14:45:21Z</time>
      </trkpt>
      <trkpt lat="44.28089" lon="4.94813">
        <ele>155.3</ele>
        <time>2021-02-24T14:45:22Z</time>
      </trkpt>
      <trkpt lat="44.2809" lon="4.94818">
        <ele>155.2</ele>
        <time>2021-02-24T14:45:23Z</time>
      </trkpt>
      <trkpt lat="44.28091" lon="4.94827">
        <ele>155</ele>
        <time>2021-02-24T14:45:24Z</time>
      </trkpt>
      <trkpt lat="44.28093" lon="4.94836">
        <ele>154.8</ele>
        <time>2021-02-24T14:45:25Z</time>
      </trkpt>
      <trkpt lat="44.28095" lon="4.94855">
        <ele>154.3</ele>
        <time>2021-02-24T14:45:26Z</time>
      </trkpt>
      <trkpt lat="44.28095" lon="4.94855">
        <ele>154.3</ele>
        <time>2021-02-24T14:45:27Z</time>
      </trkpt>
      <trkpt lat="44.28094" lon="4.94865">
        <ele>154</ele>
        <time>2021-02-24T14:45:28Z</time>
      </trkpt>
      <trkpt lat="44.2809" lon="4.94879">
        <ele>153.6</ele>
        <time>2021-02-24T14:45:29Z</time>
      </trkpt>
      <trkpt lat="44.28088" lon="4.94884">
        <ele>153.4</ele>
        <time>2021-02-24T14:45:30Z</time>
      </trkpt>
      <trkpt lat="44.28084" lon="4.94892">
        <ele>153.1</ele>
        <time>2021-02-24T14:45:31Z</time>
      </trkpt>
      <trkpt lat="44.28078" lon="4.94899">
        <ele>152.8</ele>
        <time>2021-02-24T14:45:32Z</time>
      </trkpt>
      <trkpt lat="44.28072" lon="4.94905">
        <ele>152.5</ele>
        <time>2021-02-24T14:45:33Z</time>
      </trkpt>
      <trkpt lat="44.28065" lon="4.94911">
        <ele>152.1</ele>
        <time>2021-02-24T14:45:34Z</time>
      </trkpt>
      <trkpt lat="44.28058" lon="4.94916">
        <ele>151.9</ele>
        <time>2021-02-24T14:45:35Z</time>
      </trkpt>
      <trkpt lat="44.28051" lon="4.94921">
        <ele>151.6</ele>
        <time>2021-02-24T14:45:36Z</time>
      </trkpt>
      <trkpt lat="44.28044" lon="4.94926">
        <ele>151.4</ele>
        <time>2021-02-24T14:45:37Z</time>
      </trkpt>
      <trkpt lat="44.28037" lon="4.94931">
        <ele>151.2</ele>
        <time>2021-02-24T14:45:38Z</time>
      </trkpt>
      <trkpt lat="44.2803" lon="4.94936">
        <ele>151</ele>
        <time>2021-02-24T14:45:39Z</time>
      </trkpt>
      <trkpt lat="44.28024" lon="4.94941">
        <ele>150.9</ele>
        <time>2021-02-24T14:45:40Z</time>
      </trkpt>
      <trkpt lat="44.28017" lon="4.94946">
        <ele>150.8</ele>
        <time>2021-02-24T14:45:41Z</time>
      </trkpt>
      <trkpt lat="44.28007" lon="4.94953">
        <ele>150.7</ele>
        <time>2021-02-24T14:45:42Z</time>
      </trkpt>
      <trkpt lat="44.28004" lon="4.94956">
        <ele>150.6</ele>
        <time>2021-02-24T14:45:43Z</time>
      </trkpt>
      <trkpt lat="44.27998" lon="4.94961">
        <ele>150.6</ele>
        <time>2021-02-24T14:45:44Z</time>
      </trkpt>
      <trkpt lat="44.27986" lon="4.9497">
        <ele>150.4</ele>
        <time>2021-02-24T14:45:45Z</time>
      </trkpt>
      <trkpt lat="44.27986" lon="4.9497">
        <ele>150.4</ele>
        <time>2021-02-24T14:45:46Z</time>
      </trkpt>
      <trkpt lat="44.2798" lon="4.94974">
        <ele>150.4</ele>
        <time>2021-02-24T14:45:47Z</time>
      </trkpt>
      <trkpt lat="44.27974" lon="4.94977">
        <ele>150.3</ele>
        <time>2021-02-24T14:45:48Z</time>
      </trkpt>
      <trkpt lat="44.27968" lon="4.94981">
        <ele>150.2</ele>
        <time>2021-02-24T14:45:49Z</time>
      </trkpt>
      <trkpt lat="44.27959" lon="4.94987">
        <ele>150</ele>
        <time>2021-02-24T14:45:50Z</time>
      </trkpt>
      <trkpt lat="44.27956" lon="4.94989">
        <ele>150</ele>
        <time>2021-02-24T14:45:51Z</time>
      </trkpt>
      <trkpt lat="44.2795" lon="4.94993">
        <ele>149.8</ele>
        <time>2021-02-24T14:45:52Z</time>
      </trkpt>
      <trkpt lat="44.27944" lon="4.94998">
        <ele>149.7</ele>
        <time>2021-02-24T14:45:53Z</time>
      </trkpt>
      <trkpt lat="44.27938" lon="4.95002">
        <ele>149.5</ele>
        <time>2021-02-24T14:45:54Z</time>
      </trkpt>
      <trkpt lat="44.27932" lon="4.95007">
        <ele>149.4</ele>
        <time>2021-02-24T14:45:55Z</time>
      </trkpt>
      <trkpt lat="44.27926" lon="4.95012">
        <ele>149.2</ele>
        <time>2021-02-24T14:45:56Z</time>
      </trkpt>
      <trkpt lat="44.27919" lon="4.95017">
        <ele>149</ele>
        <time>2021-02-24T14:45:57Z</time>
      </trkpt>
      <trkpt lat="44.27913" lon="4.95023">
        <ele>148.9</ele>
        <time>2021-02-24T14:45:58Z</time>
      </trkpt>
      <trkpt lat="44.27905" lon="4.95028">
        <ele>148.7</ele>
        <time>2021-02-24T14:45:59Z</time>
      </trkpt>
      <trkpt lat="44.27899" lon="4.95032">
        <ele>148.6</ele>
        <time>2021-02-24T14:46:00Z</time>
      </trkpt>
      <trkpt lat="44.27892" lon="4.95037">
        <ele>148.4</ele>
        <time>2021-02-24T14:46:01Z</time>
      </trkpt>
      <trkpt lat="44.27885" lon="4.95042">
        <ele>148.3</ele>
        <time>2021-02-24T14:46:02Z</time>
      </trkpt>
      <trkpt lat="44.27879" lon="4.95048">
        <ele>148.3</ele>
        <time>2021-02-24T14:46:03Z</time>
      </trkpt>
      <trkpt lat="44.27864" lon="4.95059">
        <ele>148.1</ele>
        <time>2021-02-24T14:46:04Z</time>
      </trkpt>
      <trkpt lat="44.27862" lon="4.9506">
        <ele>148.1</ele>
        <time>2021-02-24T14:46:05Z</time>
      </trkpt>
      <trkpt lat="44.27859" lon="4.95062">
        <ele>148.1</ele>
        <time>2021-02-24T14:46:06Z</time>
      </trkpt>
      <trkpt lat="44.27853" lon="4.95067">
        <ele>148.1</ele>
        <time>2021-02-24T14:46:07Z</time>
      </trkpt>
      <trkpt lat="44.27847" lon="4.95072">
        <ele>148</ele>
        <time>2021-02-24T14:46:08Z</time>
      </trkpt>
      <trkpt lat="44.27841" lon="4.95077">
        <ele>148</ele>
        <time>2021-02-24T14:46:09Z</time>
      </trkpt>
      <trkpt lat="44.27834" lon="4.95081">
        <ele>147.9</ele>
        <time>2021-02-24T14:46:10Z</time>
      </trkpt>
      <trkpt lat="44.27825" lon="4.95089">
        <ele>147.9</ele>
        <time>2021-02-24T14:46:11Z</time>
      </trkpt>
      <trkpt lat="44.27822" lon="4.95091">
        <ele>147.9</ele>
        <time>2021-02-24T14:46:12Z</time>
      </trkpt>
      <trkpt lat="44.27816" lon="4.95096">
        <ele>147.9</ele>
        <time>2021-02-24T14:46:13Z</time>
      </trkpt>
      <trkpt lat="44.2781" lon="4.95101">
        <ele>147.9</ele>
        <time>2021-02-24T14:46:14Z</time>
      </trkpt>
      <trkpt lat="44.27804" lon="4.95105">
        <ele>147.9</ele>
        <time>2021-02-24T14:46:15Z</time>
      </trkpt>
      <trkpt lat="44.27797" lon="4.9511">
        <ele>147.8</ele>
        <time>2021-02-24T14:46:16Z</time>
      </trkpt>
      <trkpt lat="44.27791" lon="4.95115">
        <ele>147.8</ele>
        <time>2021-02-24T14:46:17Z</time>
      </trkpt>
      <trkpt lat="44.27785" lon="4.95119">
        <ele>147.8</ele>
        <time>2021-02-24T14:46:18Z</time>
      </trkpt>
      <trkpt lat="44.27779" lon="4.95124">
        <ele>147.8</ele>
        <time>2021-02-24T14:46:19Z</time>
      </trkpt>
      <trkpt lat="44.27773" lon="4.95129">
        <ele>147.8</ele>
        <time>2021-02-24T14:46:20Z</time>
      </trkpt>
      <trkpt lat="44.27767" lon="4.95133">
        <ele>147.8</ele>
        <time>2021-02-24T14:46:21Z</time>
      </trkpt>
      <trkpt lat="44.27761" lon="4.95138">
        <ele>147.8</ele>
        <time>2021-02-24T14:46:22Z</time>
      </trkpt>
      <trkpt lat="44.27755" lon="4.95143">
        <ele>147.8</ele>
        <time>2021-02-24T14:46:23Z</time>
      </trkpt>
      <trkpt lat="44.27745" lon="4.9515">
        <ele>147.8</ele>
        <time>2021-02-24T14:46:24Z</time>
      </trkpt>
      <trkpt lat="44.27742" lon="4.95152">
        <ele>147.8</ele>
        <time>2021-02-24T14:46:25Z</time>
      </trkpt>
      <trkpt lat="44.27736" lon="4.95157">
        <ele>147.8</ele>
        <time>2021-02-24T14:46:26Z</time>
      </trkpt>
      <trkpt lat="44.2773" lon="4.95161">
        <ele>147.8</ele>
        <time>2021-02-24T14:46:27Z</time>
      </trkpt>
      <trkpt lat="44.27724" lon="4.95166">
        <ele>147.8</ele>
        <time>2021-02-24T14:46:28Z</time>
      </trkpt>
      <trkpt lat="44.27718" lon="4.95171">
        <ele>147.8</ele>
        <time>2021-02-24T14:46:29Z</time>
      </trkpt>
      <trkpt lat="44.27712" lon="4.95176">
        <ele>147.8</ele>
        <time>2021-02-24T14:46:30Z</time>
      </trkpt>
      <trkpt lat="44.27706" lon="4.9518">
        <ele>147.8</ele>
        <time>2021-02-24T14:46:31Z</time>
      </trkpt>
      <trkpt lat="44.27699" lon="4.95185">
        <ele>147.8</ele>
        <time>2021-02-24T14:46:32Z</time>
      </trkpt>
      <trkpt lat="44.27693" lon="4.9519">
        <ele>147.8</ele>
        <time>2021-02-24T14:46:33Z</time>
      </trkpt>
      <trkpt lat="44.27687" lon="4.95195">
        <ele>147.8</ele>
        <time>2021-02-24T14:46:34Z</time>
      </trkpt>
      <trkpt lat="44.27681" lon="4.95199">
        <ele>147.8</ele>
        <time>2021-02-24T14:46:35Z</time>
      </trkpt>
      <trkpt lat="44.27676" lon="4.95204">
        <ele>147.8</ele>
        <time>2021-02-24T14:46:36Z</time>
      </trkpt>
      <trkpt lat="44.2767" lon="4.95208">
        <ele>147.8</ele>
        <time>2021-02-24T14:46:37Z</time>
      </trkpt>
      <trkpt lat="44.27664" lon="4.95213">
        <ele>147.8</ele>
        <time>2021-02-24T14:46:38Z</time>
      </trkpt>
      <trkpt lat="44.27655" lon="4.95219">
        <ele>147.8</ele>
        <time>2021-02-24T14:46:39Z</time>
      </trkpt>
      <trkpt lat="44.27652" lon="4.95222">
        <ele>147.8</ele>
        <time>2021-02-24T14:46:40Z</time>
      </trkpt>
      <trkpt lat="44.27647" lon="4.95226">
        <ele>147.8</ele>
        <time>2021-02-24T14:46:41Z</time>
      </trkpt>
      <trkpt lat="44.27641" lon="4.9523">
        <ele>147.8</ele>
        <time>2021-02-24T14:46:42Z</time>
      </trkpt>
      <trkpt lat="44.27635" lon="4.95235">
        <ele>147.8</ele>
        <time>2021-02-24T14:46:43Z</time>
      </trkpt>
      <trkpt lat="44.27629" lon="4.95239">
        <ele>147.7</ele>
        <time>2021-02-24T14:46:44Z</time>
      </trkpt>
      <trkpt lat="44.27623" lon="4.95244">
        <ele>147.7</ele>
        <time>2021-02-24T14:46:45Z</time>
      </trkpt>
      <trkpt lat="44.27617" lon="4.95248">
        <ele>147.7</ele>
        <time>2021-02-24T14:46:46Z</time>
      </trkpt>
      <trkpt lat="44.27609" lon="4.95255">
        <ele>147.7</ele>
        <time>2021-02-24T14:46:47Z</time>
      </trkpt>
      <trkpt lat="44.27606" lon="4.95257">
        <ele>147.7</ele>
        <time>2021-02-24T14:46:48Z</time>
      </trkpt>
      <trkpt lat="44.276" lon="4.95261">
        <ele>147.8</ele>
        <time>2021-02-24T14:46:49Z</time>
      </trkpt>
      <trkpt lat="44.27594" lon="4.95266">
        <ele>147.8</ele>
        <time>2021-02-24T14:46:50Z</time>
      </trkpt>
      <trkpt lat="44.27589" lon="4.9527">
        <ele>147.8</ele>
        <time>2021-02-24T14:46:51Z</time>
      </trkpt>
      <trkpt lat="44.27583" lon="4.95275">
        <ele>147.8</ele>
        <time>2021-02-24T14:46:52Z</time>
      </trkpt>
      <trkpt lat="44.27577" lon="4.95279">
        <ele>147.9</ele>
        <time>2021-02-24T14:46:53Z</time>
      </trkpt>
      <trkpt lat="44.27572" lon="4.95283">
        <ele>147.9</ele>
        <time>2021-02-24T14:46:54Z</time>
      </trkpt>
      <trkpt lat="44.27566" lon="4.95288">
        <ele>148</ele>
        <time>2021-02-24T14:46:55Z</time>
      </trkpt>
      <trkpt lat="44.2756" lon="4.95292">
        <ele>148</ele>
        <time>2021-02-24T14:46:56Z</time>
      </trkpt>
      <trkpt lat="44.27555" lon="4.95297">
        <ele>148</ele>
        <time>2021-02-24T14:46:57Z</time>
      </trkpt>
      <trkpt lat="44.27549" lon="4.95301">
        <ele>148</ele>
        <time>2021-02-24T14:46:58Z</time>
      </trkpt>
      <trkpt lat="44.27543" lon="4.95306">
        <ele>148</ele>
        <time>2021-02-24T14:46:59Z</time>
      </trkpt>
      <trkpt lat="44.27537" lon="4.9531">
        <ele>148</ele>
        <time>2021-02-24T14:47:00Z</time>
      </trkpt>
      <trkpt lat="44.27531" lon="4.95314">
        <ele>148</ele>
        <time>2021-02-24T14:47:01Z</time>
      </trkpt>
      <trkpt lat="44.27523" lon="4.95321">
        <ele>148</ele>
        <time>2021-02-24T14:47:02Z</time>
      </trkpt>
      <trkpt lat="44.2752" lon="4.95323">
        <ele>148</ele>
        <time>2021-02-24T14:47:03Z</time>
      </trkpt>
      <trkpt lat="44.27514" lon="4.95327">
        <ele>148</ele>
        <time>2021-02-24T14:47:04Z</time>
      </trkpt>
      <trkpt lat="44.27508" lon="4.95332">
        <ele>148.1</ele>
        <time>2021-02-24T14:47:05Z</time>
      </trkpt>
      <trkpt lat="44.27502" lon="4.95336">
        <ele>148.1</ele>
        <time>2021-02-24T14:47:06Z</time>
      </trkpt>
      <trkpt lat="44.27497" lon="4.9534">
        <ele>148.1</ele>
        <time>2021-02-24T14:47:07Z</time>
      </trkpt>
      <trkpt lat="44.27491" lon="4.95345">
        <ele>148.1</ele>
        <time>2021-02-24T14:47:08Z</time>
      </trkpt>
      <trkpt lat="44.27485" lon="4.95349">
        <ele>148.2</ele>
        <time>2021-02-24T14:47:09Z</time>
      </trkpt>
      <trkpt lat="44.2748" lon="4.95354">
        <ele>148.2</ele>
        <time>2021-02-24T14:47:10Z</time>
      </trkpt>
      <trkpt lat="44.27474" lon="4.95358">
        <ele>148.2</ele>
        <time>2021-02-24T14:47:11Z</time>
      </trkpt>
      <trkpt lat="44.27468" lon="4.95362">
        <ele>148.2</ele>
        <time>2021-02-24T14:47:12Z</time>
      </trkpt>
      <trkpt lat="44.27463" lon="4.95366">
        <ele>148.3</ele>
        <time>2021-02-24T14:47:13Z</time>
      </trkpt>
      <trkpt lat="44.27457" lon="4.95371">
        <ele>148.3</ele>
        <time>2021-02-24T14:47:14Z</time>
      </trkpt>
      <trkpt lat="44.27451" lon="4.95375">
        <ele>148.3</ele>
        <time>2021-02-24T14:47:15Z</time>
      </trkpt>
      <trkpt lat="44.27446" lon="4.9538">
        <ele>148.3</ele>
        <time>2021-02-24T14:47:16Z</time>
      </trkpt>
      <trkpt lat="44.2744" lon="4.95384">
        <ele>148.3</ele>
        <time>2021-02-24T14:47:17Z</time>
      </trkpt>
      <trkpt lat="44.27434" lon="4.95389">
        <ele>148.4</ele>
        <time>2021-02-24T14:47:18Z</time>
      </trkpt>
      <trkpt lat="44.27429" lon="4.95393">
        <ele>148.4</ele>
        <time>2021-02-24T14:47:19Z</time>
      </trkpt>
      <trkpt lat="44.27423" lon="4.95398">
        <ele>148.5</ele>
        <time>2021-02-24T14:47:20Z</time>
      </trkpt>
      <trkpt lat="44.27417" lon="4.95402">
        <ele>148.5</ele>
        <time>2021-02-24T14:47:21Z</time>
      </trkpt>
      <trkpt lat="44.27411" lon="4.95406">
        <ele>148.5</ele>
        <time>2021-02-24T14:47:22Z</time>
      </trkpt>
      <trkpt lat="44.27406" lon="4.95411">
        <ele>148.6</ele>
        <time>2021-02-24T14:47:23Z</time>
      </trkpt>
      <trkpt lat="44.274" lon="4.95415">
        <ele>148.6</ele>
        <time>2021-02-24T14:47:24Z</time>
      </trkpt>
      <trkpt lat="44.27394" lon="4.95419">
        <ele>148.6</ele>
        <time>2021-02-24T14:47:25Z</time>
      </trkpt>
      <trkpt lat="44.27389" lon="4.95424">
        <ele>148.6</ele>
        <time>2021-02-24T14:47:26Z</time>
      </trkpt>
      <trkpt lat="44.27383" lon="4.95428">
        <ele>148.6</ele>
        <time>2021-02-24T14:47:27Z</time>
      </trkpt>
      <trkpt lat="44.27377" lon="4.95432">
        <ele>148.7</ele>
        <time>2021-02-24T14:47:28Z</time>
      </trkpt>
      <trkpt lat="44.27372" lon="4.95437">
        <ele>148.7</ele>
        <time>2021-02-24T14:47:29Z</time>
      </trkpt>
      <trkpt lat="44.27366" lon="4.95441">
        <ele>148.8</ele>
        <time>2021-02-24T14:47:30Z</time>
      </trkpt>
      <trkpt lat="44.27361" lon="4.95445">
        <ele>148.9</ele>
        <time>2021-02-24T14:47:31Z</time>
      </trkpt>
      <trkpt lat="44.27355" lon="4.95449">
        <ele>149</ele>
        <time>2021-02-24T14:47:32Z</time>
      </trkpt>
      <trkpt lat="44.27347" lon="4.95456">
        <ele>149.2</ele>
        <time>2021-02-24T14:47:33Z</time>
      </trkpt>
      <trkpt lat="44.27344" lon="4.95457">
        <ele>149.2</ele>
        <time>2021-02-24T14:47:34Z</time>
      </trkpt>
      <trkpt lat="44.27339" lon="4.95461">
        <ele>149.3</ele>
        <time>2021-02-24T14:47:35Z</time>
      </trkpt>
      <trkpt lat="44.27334" lon="4.95464">
        <ele>149.4</ele>
        <time>2021-02-24T14:47:36Z</time>
      </trkpt>
      <trkpt lat="44.27329" lon="4.95468">
        <ele>149.5</ele>
        <time>2021-02-24T14:47:37Z</time>
      </trkpt>
      <trkpt lat="44.27325" lon="4.95471">
        <ele>149.6</ele>
        <time>2021-02-24T14:47:38Z</time>
      </trkpt>
      <trkpt lat="44.27321" lon="4.95474">
        <ele>149.6</ele>
        <time>2021-02-24T14:47:39Z</time>
      </trkpt>
      <trkpt lat="44.27318" lon="4.95477">
        <ele>149.7</ele>
        <time>2021-02-24T14:47:40Z</time>
      </trkpt>
      <trkpt lat="44.27315" lon="4.95479">
        <ele>149.7</ele>
        <time>2021-02-24T14:47:41Z</time>
      </trkpt>
      <trkpt lat="44.27313" lon="4.95481">
        <ele>149.7</ele>
        <time>2021-02-24T14:47:42Z</time>
      </trkpt>
      <trkpt lat="44.27311" lon="4.95482">
        <ele>149.7</ele>
        <time>2021-02-24T14:47:43Z</time>
      </trkpt>
      <trkpt lat="44.27309" lon="4.95483">
        <ele>149.7</ele>
        <time>2021-02-24T14:47:44Z</time>
      </trkpt>
      <trkpt lat="44.27309" lon="4.95483">
        <ele>149.7</ele>
        <time>2021-02-24T14:47:45Z</time>
      </trkpt>
      <trkpt lat="44.27307" lon="4.95485">
        <ele>149.7</ele>
        <time>2021-02-24T14:47:46Z</time>
      </trkpt>
      <trkpt lat="44.27307" lon="4.95485">
        <ele>149.7</ele>
        <time>2021-02-24T14:47:47Z</time>
      </trkpt>
      <trkpt lat="44.27305" lon="4.95487">
        <ele>149.8</ele>
        <time>2021-02-24T14:47:48Z</time>
      </trkpt>
      <trkpt lat="44.27305" lon="4.95487">
        <ele>149.8</ele>
        <time>2021-02-24T14:47:49Z</time>
      </trkpt>
      <trkpt lat="44.27299" lon="4.95492">
        <ele>149.8</ele>
        <time>2021-02-24T14:47:50Z</time>
      </trkpt>
      <trkpt lat="44.27299" lon="4.95492">
        <ele>149.8</ele>
        <time>2021-02-24T14:47:51Z</time>
      </trkpt>
      <trkpt lat="44.27297" lon="4.95494">
        <ele>149.8</ele>
        <time>2021-02-24T14:47:52Z</time>
      </trkpt>
      <trkpt lat="44.27293" lon="4.95497">
        <ele>149.8</ele>
        <time>2021-02-24T14:47:53Z</time>
      </trkpt>
      <trkpt lat="44.2729" lon="4.95499">
        <ele>149.8</ele>
        <time>2021-02-24T14:47:54Z</time>
      </trkpt>
      <trkpt lat="44.27286" lon="4.95502">
        <ele>149.9</ele>
        <time>2021-02-24T14:47:55Z</time>
      </trkpt>
      <trkpt lat="44.27282" lon="4.95505">
        <ele>149.9</ele>
        <time>2021-02-24T14:47:56Z</time>
      </trkpt>
      <trkpt lat="44.27279" lon="4.95508">
        <ele>149.9</ele>
        <time>2021-02-24T14:47:57Z</time>
      </trkpt>
      <trkpt lat="44.27271" lon="4.95515">
        <ele>149.9</ele>
        <time>2021-02-24T14:47:58Z</time>
      </trkpt>
      <trkpt lat="44.27271" lon="4.95515">
        <ele>149.9</ele>
        <time>2021-02-24T14:47:59Z</time>
      </trkpt>
      <trkpt lat="44.27266" lon="4.95518">
        <ele>149.9</ele>
        <time>2021-02-24T14:48:00Z</time>
      </trkpt>
      <trkpt lat="44.27262" lon="4.95521">
        <ele>150</ele>
        <time>2021-02-24T14:48:01Z</time>
      </trkpt>
      <trkpt lat="44.27258" lon="4.95525">
        <ele>150</ele>
        <time>2021-02-24T14:48:02Z</time>
      </trkpt>
      <trkpt lat="44.27253" lon="4.95528">
        <ele>150</ele>
        <time>2021-02-24T14:48:03Z</time>
      </trkpt>
      <trkpt lat="44.27249" lon="4.95532">
        <ele>150</ele>
        <time>2021-02-24T14:48:04Z</time>
      </trkpt>
      <trkpt lat="44.27244" lon="4.95535">
        <ele>150</ele>
        <time>2021-02-24T14:48:05Z</time>
      </trkpt>
      <trkpt lat="44.27239" lon="4.95539">
        <ele>149.9</ele>
        <time>2021-02-24T14:48:06Z</time>
      </trkpt>
      <trkpt lat="44.27235" lon="4.95542">
        <ele>149.9</ele>
        <time>2021-02-24T14:48:07Z</time>
      </trkpt>
      <trkpt lat="44.2723" lon="4.95546">
        <ele>149.9</ele>
        <time>2021-02-24T14:48:08Z</time>
      </trkpt>
      <trkpt lat="44.27225" lon="4.9555">
        <ele>149.8</ele>
        <time>2021-02-24T14:48:09Z</time>
      </trkpt>
      <trkpt lat="44.27217" lon="4.95556">
        <ele>149.6</ele>
        <time>2021-02-24T14:48:10Z</time>
      </trkpt>
      <trkpt lat="44.27214" lon="4.95558">
        <ele>149.6</ele>
        <time>2021-02-24T14:48:11Z</time>
      </trkpt>
      <trkpt lat="44.27209" lon="4.95562">
        <ele>149.4</ele>
        <time>2021-02-24T14:48:12Z</time>
      </trkpt>
      <trkpt lat="44.27203" lon="4.95566">
        <ele>149.3</ele>
        <time>2021-02-24T14:48:13Z</time>
      </trkpt>
      <trkpt lat="44.27197" lon="4.9557">
        <ele>149.1</ele>
        <time>2021-02-24T14:48:14Z</time>
      </trkpt>
      <trkpt lat="44.27192" lon="4.95574">
        <ele>148.9</ele>
        <time>2021-02-24T14:48:15Z</time>
      </trkpt>
      <trkpt lat="44.27186" lon="4.95579">
        <ele>148.8</ele>
        <time>2021-02-24T14:48:16Z</time>
      </trkpt>
      <trkpt lat="44.2718" lon="4.95583">
        <ele>148.6</ele>
        <time>2021-02-24T14:48:17Z</time>
      </trkpt>
      <trkpt lat="44.27175" lon="4.95587">
        <ele>148.4</ele>
        <time>2021-02-24T14:48:18Z</time>
      </trkpt>
      <trkpt lat="44.27169" lon="4.95592">
        <ele>148.3</ele>
        <time>2021-02-24T14:48:19Z</time>
      </trkpt>
      <trkpt lat="44.27164" lon="4.95596">
        <ele>148.1</ele>
        <time>2021-02-24T14:48:20Z</time>
      </trkpt>
      <trkpt lat="44.27158" lon="4.95601">
        <ele>147.9</ele>
        <time>2021-02-24T14:48:21Z</time>
      </trkpt>
      <trkpt lat="44.27153" lon="4.95605">
        <ele>147.7</ele>
        <time>2021-02-24T14:48:22Z</time>
      </trkpt>
      <trkpt lat="44.27147" lon="4.95609">
        <ele>147.6</ele>
        <time>2021-02-24T14:48:23Z</time>
      </trkpt>
      <trkpt lat="44.27141" lon="4.95613">
        <ele>147.5</ele>
        <time>2021-02-24T14:48:24Z</time>
      </trkpt>
      <trkpt lat="44.27136" lon="4.95617">
        <ele>147.4</ele>
        <time>2021-02-24T14:48:25Z</time>
      </trkpt>
      <trkpt lat="44.27128" lon="4.95624">
        <ele>147.2</ele>
        <time>2021-02-24T14:48:26Z</time>
      </trkpt>
      <trkpt lat="44.27126" lon="4.95626">
        <ele>147.2</ele>
        <time>2021-02-24T14:48:27Z</time>
      </trkpt>
      <trkpt lat="44.27121" lon="4.9563">
        <ele>147.1</ele>
        <time>2021-02-24T14:48:28Z</time>
      </trkpt>
      <trkpt lat="44.27116" lon="4.95634">
        <ele>147.1</ele>
        <time>2021-02-24T14:48:29Z</time>
      </trkpt>
      <trkpt lat="44.27111" lon="4.95637">
        <ele>147</ele>
        <time>2021-02-24T14:48:30Z</time>
      </trkpt>
      <trkpt lat="44.27106" lon="4.95641">
        <ele>147</ele>
        <time>2021-02-24T14:48:31Z</time>
      </trkpt>
      <trkpt lat="44.27101" lon="4.95644">
        <ele>147</ele>
        <time>2021-02-24T14:48:32Z</time>
      </trkpt>
      <trkpt lat="44.27095" lon="4.95648">
        <ele>146.9</ele>
        <time>2021-02-24T14:48:33Z</time>
      </trkpt>
      <trkpt lat="44.2709" lon="4.95652">
        <ele>146.9</ele>
        <time>2021-02-24T14:48:34Z</time>
      </trkpt>
      <trkpt lat="44.27085" lon="4.95656">
        <ele>146.9</ele>
        <time>2021-02-24T14:48:35Z</time>
      </trkpt>
      <trkpt lat="44.27075" lon="4.95664">
        <ele>146.9</ele>
        <time>2021-02-24T14:48:36Z</time>
      </trkpt>
      <trkpt lat="44.27075" lon="4.95664">
        <ele>146.9</ele>
        <time>2021-02-24T14:48:37Z</time>
      </trkpt>
      <trkpt lat="44.27069" lon="4.95668">
        <ele>146.9</ele>
        <time>2021-02-24T14:48:38Z</time>
      </trkpt>
      <trkpt lat="44.27064" lon="4.95672">
        <ele>146.9</ele>
        <time>2021-02-24T14:48:39Z</time>
      </trkpt>
      <trkpt lat="44.27059" lon="4.95677">
        <ele>146.9</ele>
        <time>2021-02-24T14:48:40Z</time>
      </trkpt>
      <trkpt lat="44.27054" lon="4.95681">
        <ele>146.9</ele>
        <time>2021-02-24T14:48:41Z</time>
      </trkpt>
      <trkpt lat="44.27048" lon="4.95684">
        <ele>147</ele>
        <time>2021-02-24T14:48:42Z</time>
      </trkpt>
      <trkpt lat="44.2704" lon="4.95691">
        <ele>147.1</ele>
        <time>2021-02-24T14:48:43Z</time>
      </trkpt>
      <trkpt lat="44.27038" lon="4.95693">
        <ele>147.1</ele>
        <time>2021-02-24T14:48:44Z</time>
      </trkpt>
      <trkpt lat="44.27032" lon="4.95697">
        <ele>147.2</ele>
        <time>2021-02-24T14:48:45Z</time>
      </trkpt>
      <trkpt lat="44.27027" lon="4.95701">
        <ele>147.3</ele>
        <time>2021-02-24T14:48:46Z</time>
      </trkpt>
      <trkpt lat="44.27022" lon="4.95705">
        <ele>147.4</ele>
        <time>2021-02-24T14:48:47Z</time>
      </trkpt>
      <trkpt lat="44.27017" lon="4.95708">
        <ele>147.6</ele>
        <time>2021-02-24T14:48:48Z</time>
      </trkpt>
      <trkpt lat="44.27012" lon="4.95712">
        <ele>147.7</ele>
        <time>2021-02-24T14:48:49Z</time>
      </trkpt>
      <trkpt lat="44.27007" lon="4.95716">
        <ele>147.9</ele>
        <time>2021-02-24T14:48:50Z</time>
      </trkpt>
      <trkpt lat="44.27002" lon="4.9572">
        <ele>148.2</ele>
        <time>2021-02-24T14:48:51Z</time>
      </trkpt>
      <trkpt lat="44.26998" lon="4.95724">
        <ele>148.4</ele>
        <time>2021-02-24T14:48:52Z</time>
      </trkpt>
      <trkpt lat="44.26993" lon="4.95727">
        <ele>148.6</ele>
        <time>2021-02-24T14:48:53Z</time>
      </trkpt>
      <trkpt lat="44.26988" lon="4.9573">
        <ele>148.9</ele>
        <time>2021-02-24T14:48:54Z</time>
      </trkpt>
      <trkpt lat="44.26984" lon="4.95734">
        <ele>149.1</ele>
        <time>2021-02-24T14:48:55Z</time>
      </trkpt>
      <trkpt lat="44.26977" lon="4.95739">
        <ele>149.5</ele>
        <time>2021-02-24T14:48:56Z</time>
      </trkpt>
      <trkpt lat="44.26975" lon="4.9574">
        <ele>149.7</ele>
        <time>2021-02-24T14:48:57Z</time>
      </trkpt>
      <trkpt lat="44.26971" lon="4.95744">
        <ele>149.9</ele>
        <time>2021-02-24T14:48:58Z</time>
      </trkpt>
      <trkpt lat="44.26967" lon="4.95747">
        <ele>150.2</ele>
        <time>2021-02-24T14:48:59Z</time>
      </trkpt>
      <trkpt lat="44.26963" lon="4.9575">
        <ele>150.5</ele>
        <time>2021-02-24T14:49:00Z</time>
      </trkpt>
      <trkpt lat="44.26959" lon="4.95753">
        <ele>150.8</ele>
        <time>2021-02-24T14:49:01Z</time>
      </trkpt>
      <trkpt lat="44.26955" lon="4.95756">
        <ele>151.1</ele>
        <time>2021-02-24T14:49:02Z</time>
      </trkpt>
      <trkpt lat="44.26951" lon="4.95759">
        <ele>151.3</ele>
        <time>2021-02-24T14:49:03Z</time>
      </trkpt>
      <trkpt lat="44.26947" lon="4.95762">
        <ele>151.5</ele>
        <time>2021-02-24T14:49:04Z</time>
      </trkpt>
      <trkpt lat="44.26943" lon="4.95765">
        <ele>151.8</ele>
        <time>2021-02-24T14:49:05Z</time>
      </trkpt>
      <trkpt lat="44.26939" lon="4.95768">
        <ele>152</ele>
        <time>2021-02-24T14:49:06Z</time>
      </trkpt>
      <trkpt lat="44.26935" lon="4.95771">
        <ele>152.2</ele>
        <time>2021-02-24T14:49:07Z</time>
      </trkpt>
      <trkpt lat="44.26932" lon="4.95774">
        <ele>152.4</ele>
        <time>2021-02-24T14:49:08Z</time>
      </trkpt>
      <trkpt lat="44.26928" lon="4.95776">
        <ele>152.6</ele>
        <time>2021-02-24T14:49:09Z</time>
      </trkpt>
      <trkpt lat="44.26924" lon="4.95779">
        <ele>152.8</ele>
        <time>2021-02-24T14:49:10Z</time>
      </trkpt>
      <trkpt lat="44.2692" lon="4.95782">
        <ele>153.1</ele>
        <time>2021-02-24T14:49:11Z</time>
      </trkpt>
      <trkpt lat="44.26916" lon="4.95785">
        <ele>153.3</ele>
        <time>2021-02-24T14:49:12Z</time>
      </trkpt>
      <trkpt lat="44.26912" lon="4.95788">
        <ele>153.5</ele>
        <time>2021-02-24T14:49:13Z</time>
      </trkpt>
      <trkpt lat="44.26909" lon="4.95791">
        <ele>153.7</ele>
        <time>2021-02-24T14:49:14Z</time>
      </trkpt>
      <trkpt lat="44.26905" lon="4.95794">
        <ele>153.9</ele>
        <time>2021-02-24T14:49:15Z</time>
      </trkpt>
      <trkpt lat="44.26901" lon="4.95797">
        <ele>154.2</ele>
        <time>2021-02-24T14:49:16Z</time>
      </trkpt>
      <trkpt lat="44.26897" lon="4.958">
        <ele>154.4</ele>
        <time>2021-02-24T14:49:17Z</time>
      </trkpt>
      <trkpt lat="44.26893" lon="4.95802">
        <ele>154.6</ele>
        <time>2021-02-24T14:49:18Z</time>
      </trkpt>
      <trkpt lat="44.26889" lon="4.95805">
        <ele>154.9</ele>
        <time>2021-02-24T14:49:19Z</time>
      </trkpt>
      <trkpt lat="44.26886" lon="4.95808">
        <ele>155.1</ele>
        <time>2021-02-24T14:49:20Z</time>
      </trkpt>
      <trkpt lat="44.26882" lon="4.95811">
        <ele>155.3</ele>
        <time>2021-02-24T14:49:21Z</time>
      </trkpt>
      <trkpt lat="44.26878" lon="4.95814">
        <ele>155.5</ele>
        <time>2021-02-24T14:49:22Z</time>
      </trkpt>
      <trkpt lat="44.26874" lon="4.95817">
        <ele>155.8</ele>
        <time>2021-02-24T14:49:23Z</time>
      </trkpt>
      <trkpt lat="44.26871" lon="4.9582">
        <ele>156</ele>
        <time>2021-02-24T14:49:24Z</time>
      </trkpt>
      <trkpt lat="44.26867" lon="4.95823">
        <ele>156.2</ele>
        <time>2021-02-24T14:49:25Z</time>
      </trkpt>
      <trkpt lat="44.26864" lon="4.95825">
        <ele>156.4</ele>
        <time>2021-02-24T14:49:26Z</time>
      </trkpt>
      <trkpt lat="44.2686" lon="4.95828">
        <ele>156.6</ele>
        <time>2021-02-24T14:49:27Z</time>
      </trkpt>
      <trkpt lat="44.26857" lon="4.9583">
        <ele>156.8</ele>
        <time>2021-02-24T14:49:28Z</time>
      </trkpt>
      <trkpt lat="44.26853" lon="4.95832">
        <ele>157</ele>
        <time>2021-02-24T14:49:29Z</time>
      </trkpt>
      <trkpt lat="44.2685" lon="4.95835">
        <ele>157.3</ele>
        <time>2021-02-24T14:49:30Z</time>
      </trkpt>
      <trkpt lat="44.26847" lon="4.95837">
        <ele>157.5</ele>
        <time>2021-02-24T14:49:31Z</time>
      </trkpt>
      <trkpt lat="44.26843" lon="4.95838">
        <ele>157.7</ele>
        <time>2021-02-24T14:49:32Z</time>
      </trkpt>
      <trkpt lat="44.2684" lon="4.9584">
        <ele>157.9</ele>
        <time>2021-02-24T14:49:33Z</time>
      </trkpt>
      <trkpt lat="44.26838" lon="4.95842">
        <ele>158.1</ele>
        <time>2021-02-24T14:49:34Z</time>
      </trkpt>
      <trkpt lat="44.26836" lon="4.95844">
        <ele>158.2</ele>
        <time>2021-02-24T14:49:35Z</time>
      </trkpt>
      <trkpt lat="44.26834" lon="4.95846">
        <ele>158.3</ele>
        <time>2021-02-24T14:49:36Z</time>
      </trkpt>
      <trkpt lat="44.26832" lon="4.95847">
        <ele>158.4</ele>
        <time>2021-02-24T14:49:37Z</time>
      </trkpt>
      <trkpt lat="44.2683" lon="4.95849">
        <ele>158.6</ele>
        <time>2021-02-24T14:49:38Z</time>
      </trkpt>
      <trkpt lat="44.26828" lon="4.95851">
        <ele>158.7</ele>
        <time>2021-02-24T14:49:39Z</time>
      </trkpt>
      <trkpt lat="44.26827" lon="4.95853">
        <ele>158.8</ele>
        <time>2021-02-24T14:49:40Z</time>
      </trkpt>
      <trkpt lat="44.26826" lon="4.95856">
        <ele>158.9</ele>
        <time>2021-02-24T14:49:41Z</time>
      </trkpt>
      <trkpt lat="44.26826" lon="4.95859">
        <ele>159.1</ele>
        <time>2021-02-24T14:49:42Z</time>
      </trkpt>
      <trkpt lat="44.26827" lon="4.95862">
        <ele>159</ele>
        <time>2021-02-24T14:49:43Z</time>
      </trkpt>
      <trkpt lat="44.26828" lon="4.95864">
        <ele>159</ele>
        <time>2021-02-24T14:49:44Z</time>
      </trkpt>
      <trkpt lat="44.2683" lon="4.95867">
        <ele>158.9</ele>
        <time>2021-02-24T14:49:45Z</time>
      </trkpt>
      <trkpt lat="44.26832" lon="4.9587">
        <ele>158.9</ele>
        <time>2021-02-24T14:49:46Z</time>
      </trkpt>
      <trkpt lat="44.26834" lon="4.95874">
        <ele>158.8</ele>
        <time>2021-02-24T14:49:47Z</time>
      </trkpt>
      <trkpt lat="44.26835" lon="4.95877">
        <ele>158.7</ele>
        <time>2021-02-24T14:49:48Z</time>
      </trkpt>
      <trkpt lat="44.26837" lon="4.9588">
        <ele>158.7</ele>
        <time>2021-02-24T14:49:49Z</time>
      </trkpt>
      <trkpt lat="44.26839" lon="4.95883">
        <ele>158.6</ele>
        <time>2021-02-24T14:49:50Z</time>
      </trkpt>
      <trkpt lat="44.2684" lon="4.95886">
        <ele>158.5</ele>
        <time>2021-02-24T14:49:51Z</time>
      </trkpt>
      <trkpt lat="44.26841" lon="4.95889">
        <ele>158.5</ele>
        <time>2021-02-24T14:49:52Z</time>
      </trkpt>
      <trkpt lat="44.26843" lon="4.95893">
        <ele>158.4</ele>
        <time>2021-02-24T14:49:53Z</time>
      </trkpt>
      <trkpt lat="44.26845" lon="4.95897">
        <ele>158.3</ele>
        <time>2021-02-24T14:49:54Z</time>
      </trkpt>
      <trkpt lat="44.26847" lon="4.95901">
        <ele>158.2</ele>
        <time>2021-02-24T14:49:55Z</time>
      </trkpt>
      <trkpt lat="44.26849" lon="4.95905">
        <ele>158</ele>
        <time>2021-02-24T14:49:56Z</time>
      </trkpt>
      <trkpt lat="44.26851" lon="4.9591">
        <ele>157.9</ele>
        <time>2021-02-24T14:49:57Z</time>
      </trkpt>
      <trkpt lat="44.26853" lon="4.95916">
        <ele>157.7</ele>
        <time>2021-02-24T14:49:58Z</time>
      </trkpt>
      <trkpt lat="44.26855" lon="4.95922">
        <ele>157.5</ele>
        <time>2021-02-24T14:49:59Z</time>
      </trkpt>
      <trkpt lat="44.26857" lon="4.95928">
        <ele>157.3</ele>
        <time>2021-02-24T14:50:00Z</time>
      </trkpt>
      <trkpt lat="44.26859" lon="4.95935">
        <ele>157.1</ele>
        <time>2021-02-24T14:50:01Z</time>
      </trkpt>
      <trkpt lat="44.26861" lon="4.95942">
        <ele>156.9</ele>
        <time>2021-02-24T14:50:02Z</time>
      </trkpt>
      <trkpt lat="44.26864" lon="4.95949">
        <ele>156.7</ele>
        <time>2021-02-24T14:50:03Z</time>
      </trkpt>
      <trkpt lat="44.26866" lon="4.95957">
        <ele>156.5</ele>
        <time>2021-02-24T14:50:04Z</time>
      </trkpt>
      <trkpt lat="44.26869" lon="4.95964">
        <ele>156.3</ele>
        <time>2021-02-24T14:50:05Z</time>
      </trkpt>
      <trkpt lat="44.26872" lon="4.95972">
        <ele>156.1</ele>
        <time>2021-02-24T14:50:06Z</time>
      </trkpt>
      <trkpt lat="44.26875" lon="4.9598">
        <ele>155.9</ele>
        <time>2021-02-24T14:50:07Z</time>
      </trkpt>
      <trkpt lat="44.26878" lon="4.95989">
        <ele>155.8</ele>
        <time>2021-02-24T14:50:08Z</time>
      </trkpt>
      <trkpt lat="44.2688" lon="4.95997">
        <ele>155.6</ele>
        <time>2021-02-24T14:50:09Z</time>
      </trkpt>
      <trkpt lat="44.26884" lon="4.96006">
        <ele>155.5</ele>
        <time>2021-02-24T14:50:10Z</time>
      </trkpt>
      <trkpt lat="44.26887" lon="4.96015">
        <ele>155.4</ele>
        <time>2021-02-24T14:50:11Z</time>
      </trkpt>
      <trkpt lat="44.26892" lon="4.96027">
        <ele>155.4</ele>
        <time>2021-02-24T14:50:12Z</time>
      </trkpt>
      <trkpt lat="44.26894" lon="4.96032">
        <ele>155.4</ele>
        <time>2021-02-24T14:50:13Z</time>
      </trkpt>
      <trkpt lat="44.26898" lon="4.9604">
        <ele>155.4</ele>
        <time>2021-02-24T14:50:14Z</time>
      </trkpt>
      <trkpt lat="44.26901" lon="4.96048">
        <ele>155.5</ele>
        <time>2021-02-24T14:50:15Z</time>
      </trkpt>
      <trkpt lat="44.26904" lon="4.96056">
        <ele>155.6</ele>
        <time>2021-02-24T14:50:16Z</time>
      </trkpt>
      <trkpt lat="44.26908" lon="4.96064">
        <ele>155.6</ele>
        <time>2021-02-24T14:50:17Z</time>
      </trkpt>
      <trkpt lat="44.26911" lon="4.96072">
        <ele>155.7</ele>
        <time>2021-02-24T14:50:18Z</time>
      </trkpt>
      <trkpt lat="44.26915" lon="4.9608">
        <ele>155.8</ele>
        <time>2021-02-24T14:50:19Z</time>
      </trkpt>
      <trkpt lat="44.26918" lon="4.96088">
        <ele>155.8</ele>
        <time>2021-02-24T14:50:20Z</time>
      </trkpt>
      <trkpt lat="44.26922" lon="4.96096">
        <ele>155.8</ele>
        <time>2021-02-24T14:50:21Z</time>
      </trkpt>
      <trkpt lat="44.26925" lon="4.96103">
        <ele>155.8</ele>
        <time>2021-02-24T14:50:22Z</time>
      </trkpt>
      <trkpt lat="44.26929" lon="4.96111">
        <ele>155.8</ele>
        <time>2021-02-24T14:50:23Z</time>
      </trkpt>
      <trkpt lat="44.26931" lon="4.96115">
        <ele>155.8</ele>
        <time>2021-02-24T14:50:24Z</time>
      </trkpt>
      <trkpt lat="44.26933" lon="4.96119">
        <ele>155.8</ele>
        <time>2021-02-24T14:50:25Z</time>
      </trkpt>
      <trkpt lat="44.26939" lon="4.96131">
        <ele>155.9</ele>
        <time>2021-02-24T14:50:26Z</time>
      </trkpt>
      <trkpt lat="44.26941" lon="4.96135">
        <ele>156</ele>
        <time>2021-02-24T14:50:27Z</time>
      </trkpt>
      <trkpt lat="44.2695" lon="4.96149">
        <ele>156.3</ele>
        <time>2021-02-24T14:50:28Z</time>
      </trkpt>
      <trkpt lat="44.26954" lon="4.96156">
        <ele>156.5</ele>
        <time>2021-02-24T14:50:29Z</time>
      </trkpt>
      <trkpt lat="44.26962" lon="4.9617">
        <ele>156.9</ele>
        <time>2021-02-24T14:50:30Z</time>
      </trkpt>
      <trkpt lat="44.26962" lon="4.9617">
        <ele>156.9</ele>
        <time>2021-02-24T14:50:31Z</time>
      </trkpt>
      <trkpt lat="44.26964" lon="4.96173">
        <ele>157.1</ele>
        <time>2021-02-24T14:50:32Z</time>
      </trkpt>
      <trkpt lat="44.26965" lon="4.96176">
        <ele>157.2</ele>
        <time>2021-02-24T14:50:33Z</time>
      </trkpt>
      <trkpt lat="44.26971" lon="4.96188">
        <ele>157.4</ele>
        <time>2021-02-24T14:50:34Z</time>
      </trkpt>
      <trkpt lat="44.26973" lon="4.96194">
        <ele>157.5</ele>
        <time>2021-02-24T14:50:35Z</time>
      </trkpt>
      <trkpt lat="44.26977" lon="4.96204">
        <ele>157.7</ele>
        <time>2021-02-24T14:50:36Z</time>
      </trkpt>
      <trkpt lat="44.26981" lon="4.9621">
        <ele>157.9</ele>
        <time>2021-02-24T14:50:37Z</time>
      </trkpt>
      <trkpt lat="44.26981" lon="4.9621">
        <ele>157.9</ele>
        <time>2021-02-24T14:50:38Z</time>
      </trkpt>
      <trkpt lat="44.26989" lon="4.96224">
        <ele>158.2</ele>
        <time>2021-02-24T14:50:39Z</time>
      </trkpt>
      <trkpt lat="44.2699" lon="4.96226">
        <ele>158.3</ele>
        <time>2021-02-24T14:50:40Z</time>
      </trkpt>
      <trkpt lat="44.26992" lon="4.96229">
        <ele>158.3</ele>
        <time>2021-02-24T14:50:41Z</time>
      </trkpt>
      <trkpt lat="44.27001" lon="4.96245">
        <ele>158.7</ele>
        <time>2021-02-24T14:50:42Z</time>
      </trkpt>
      <trkpt lat="44.27002" lon="4.96248">
        <ele>158.8</ele>
        <time>2021-02-24T14:50:43Z</time>
      </trkpt>
      <trkpt lat="44.27006" lon="4.96254">
        <ele>159</ele>
        <time>2021-02-24T14:50:44Z</time>
      </trkpt>
      <trkpt lat="44.27009" lon="4.9626">
        <ele>159.1</ele>
        <time>2021-02-24T14:50:45Z</time>
      </trkpt>
      <trkpt lat="44.27013" lon="4.96266">
        <ele>159.2</ele>
        <time>2021-02-24T14:50:46Z</time>
      </trkpt>
      <trkpt lat="44.27017" lon="4.96272">
        <ele>159.4</ele>
        <time>2021-02-24T14:50:47Z</time>
      </trkpt>
      <trkpt lat="44.2702" lon="4.96278">
        <ele>159.6</ele>
        <time>2021-02-24T14:50:48Z</time>
      </trkpt>
      <trkpt lat="44.27024" lon="4.96283">
        <ele>159.7</ele>
        <time>2021-02-24T14:50:49Z</time>
      </trkpt>
      <trkpt lat="44.27028" lon="4.96292">
        <ele>160</ele>
        <time>2021-02-24T14:50:50Z</time>
      </trkpt>
      <trkpt lat="44.2703" lon="4.96295">
        <ele>160.1</ele>
        <time>2021-02-24T14:50:51Z</time>
      </trkpt>
      <trkpt lat="44.27033" lon="4.963">
        <ele>160.3</ele>
        <time>2021-02-24T14:50:52Z</time>
      </trkpt>
      <trkpt lat="44.27036" lon="4.96305">
        <ele>160.5</ele>
        <time>2021-02-24T14:50:53Z</time>
      </trkpt>
      <trkpt lat="44.27036" lon="4.96305">
        <ele>160.5</ele>
        <time>2021-02-24T14:50:54Z</time>
      </trkpt>
      <trkpt lat="44.27041" lon="4.9632">
        <ele>161</ele>
        <time>2021-02-24T14:50:55Z</time>
      </trkpt>
      <trkpt lat="44.27042" lon="4.96322">
        <ele>161.1</ele>
        <time>2021-02-24T14:50:56Z</time>
      </trkpt>
      <trkpt lat="44.27044" lon="4.96329">
        <ele>161.4</ele>
        <time>2021-02-24T14:50:57Z</time>
      </trkpt>
      <trkpt lat="44.27045" lon="4.96335">
        <ele>161.6</ele>
        <time>2021-02-24T14:50:58Z</time>
      </trkpt>
      <trkpt lat="44.27046" lon="4.96342">
        <ele>161.9</ele>
        <time>2021-02-24T14:50:59Z</time>
      </trkpt>
      <trkpt lat="44.27047" lon="4.96349">
        <ele>162</ele>
        <time>2021-02-24T14:51:00Z</time>
      </trkpt>
      <trkpt lat="44.27048" lon="4.96357">
        <ele>162.2</ele>
        <time>2021-02-24T14:51:01Z</time>
      </trkpt>
      <trkpt lat="44.27049" lon="4.96365">
        <ele>162.3</ele>
        <time>2021-02-24T14:51:02Z</time>
      </trkpt>
      <trkpt lat="44.2705" lon="4.96372">
        <ele>162.4</ele>
        <time>2021-02-24T14:51:03Z</time>
      </trkpt>
      <trkpt lat="44.27051" lon="4.9638">
        <ele>162.6</ele>
        <time>2021-02-24T14:51:04Z</time>
      </trkpt>
      <trkpt lat="44.27052" lon="4.96387">
        <ele>162.6</ele>
        <time>2021-02-24T14:51:05Z</time>
      </trkpt>
      <trkpt lat="44.27054" lon="4.96393">
        <ele>162.6</ele>
        <time>2021-02-24T14:51:06Z</time>
      </trkpt>
      <trkpt lat="44.27056" lon="4.96399">
        <ele>162.6</ele>
        <time>2021-02-24T14:51:07Z</time>
      </trkpt>
      <trkpt lat="44.27061" lon="4.96411">
        <ele>162.6</ele>
        <time>2021-02-24T14:51:08Z</time>
      </trkpt>
      <trkpt lat="44.27061" lon="4.96411">
        <ele>162.6</ele>
        <time>2021-02-24T14:51:09Z</time>
      </trkpt>
      <trkpt lat="44.27063" lon="4.96417">
        <ele>162.5</ele>
        <time>2021-02-24T14:51:10Z</time>
      </trkpt>
      <trkpt lat="44.27064" lon="4.96421">
        <ele>162.5</ele>
        <time>2021-02-24T14:51:11Z</time>
      </trkpt>
      <trkpt lat="44.27065" lon="4.96425">
        <ele>162.4</ele>
        <time>2021-02-24T14:51:12Z</time>
      </trkpt>
      <trkpt lat="44.27067" lon="4.96429">
        <ele>162.4</ele>
        <time>2021-02-24T14:51:13Z</time>
      </trkpt>
      <trkpt lat="44.27068" lon="4.96433">
        <ele>162.3</ele>
        <time>2021-02-24T14:51:14Z</time>
      </trkpt>
      <trkpt lat="44.27069" lon="4.96438">
        <ele>162.3</ele>
        <time>2021-02-24T14:51:15Z</time>
      </trkpt>
      <trkpt lat="44.27071" lon="4.96443">
        <ele>162.2</ele>
        <time>2021-02-24T14:51:16Z</time>
      </trkpt>
      <trkpt lat="44.27073" lon="4.96448">
        <ele>162.1</ele>
        <time>2021-02-24T14:51:17Z</time>
      </trkpt>
      <trkpt lat="44.27075" lon="4.96453">
        <ele>162</ele>
        <time>2021-02-24T14:51:18Z</time>
      </trkpt>
      <trkpt lat="44.27077" lon="4.96459">
        <ele>161.9</ele>
        <time>2021-02-24T14:51:19Z</time>
      </trkpt>
      <trkpt lat="44.2708" lon="4.96464">
        <ele>161.8</ele>
        <time>2021-02-24T14:51:20Z</time>
      </trkpt>
      <trkpt lat="44.27082" lon="4.9647">
        <ele>161.7</ele>
        <time>2021-02-24T14:51:21Z</time>
      </trkpt>
      <trkpt lat="44.27084" lon="4.96476">
        <ele>161.6</ele>
        <time>2021-02-24T14:51:22Z</time>
      </trkpt>
      <trkpt lat="44.27085" lon="4.96481">
        <ele>161.5</ele>
        <time>2021-02-24T14:51:23Z</time>
      </trkpt>
      <trkpt lat="44.27086" lon="4.96485">
        <ele>161.4</ele>
        <time>2021-02-24T14:51:24Z</time>
      </trkpt>
      <trkpt lat="44.27088" lon="4.96488">
        <ele>161.3</ele>
        <time>2021-02-24T14:51:25Z</time>
      </trkpt>
      <trkpt lat="44.27089" lon="4.96491">
        <ele>161.2</ele>
        <time>2021-02-24T14:51:26Z</time>
      </trkpt>
      <trkpt lat="44.2709" lon="4.96493">
        <ele>161.1</ele>
        <time>2021-02-24T14:51:27Z</time>
      </trkpt>
      <trkpt lat="44.2709" lon="4.96493">
        <ele>161.1</ele>
        <time>2021-02-24T14:51:28Z</time>
      </trkpt>
      <trkpt lat="44.2709" lon="4.96493">
        <ele>161.1</ele>
        <time>2021-02-24T14:51:29Z</time>
      </trkpt>
      <trkpt lat="44.2709" lon="4.96493">
        <ele>161.1</ele>
        <time>2021-02-24T14:51:30Z</time>
      </trkpt>
      <trkpt lat="44.2709" lon="4.96493">
        <ele>161.1</ele>
        <time>2021-02-24T14:51:31Z</time>
      </trkpt>
      <trkpt lat="44.27091" lon="4.96496">
        <ele>161</ele>
        <time>2021-02-24T14:51:32Z</time>
      </trkpt>
      <trkpt lat="44.27091" lon="4.96496">
        <ele>161</ele>
        <time>2021-02-24T14:51:33Z</time>
      </trkpt>
      <trkpt lat="44.27092" lon="4.96496">
        <ele>161</ele>
        <time>2021-02-24T14:51:34Z</time>
      </trkpt>
      <trkpt lat="44.27092" lon="4.96496">
        <ele>160.9</ele>
        <time>2021-02-24T14:51:35Z</time>
      </trkpt>
      <trkpt lat="44.27092" lon="4.96496">
        <ele>160.9</ele>
        <time>2021-02-24T14:51:36Z</time>
      </trkpt>
      <trkpt lat="44.27092" lon="4.96496">
        <ele>160.9</ele>
        <time>2021-02-24T14:51:37Z</time>
      </trkpt>
      <trkpt lat="44.27092" lon="4.96497">
        <ele>160.9</ele>
        <time>2021-02-24T14:51:38Z</time>
      </trkpt>
      <trkpt lat="44.27093" lon="4.96497">
        <ele>160.9</ele>
        <time>2021-02-24T14:51:39Z</time>
      </trkpt>
      <trkpt lat="44.27093" lon="4.96497">
        <ele>160.9</ele>
        <time>2021-02-24T14:52:06Z</time>
      </trkpt>
      <trkpt lat="44.27093" lon="4.96497">
        <ele>160.9</ele>
        <time>2021-02-24T14:52:07Z</time>
      </trkpt>
      <trkpt lat="44.27093" lon="4.96497">
        <ele>160.9</ele>
        <time>2021-02-24T14:52:08Z</time>
      </trkpt>
      <trkpt lat="44.27094" lon="4.96497">
        <ele>160.9</ele>
        <time>2021-02-24T14:52:09Z</time>
      </trkpt>
      <trkpt lat="44.27094" lon="4.96497">
        <ele>160.8</ele>
        <time>2021-02-24T14:52:10Z</time>
      </trkpt>
      <trkpt lat="44.27094" lon="4.96498">
        <ele>160.8</ele>
        <time>2021-02-24T14:52:11Z</time>
      </trkpt>
      <trkpt lat="44.27094" lon="4.96498">
        <ele>160.8</ele>
        <time>2021-02-24T14:52:12Z</time>
      </trkpt>
      <trkpt lat="44.27094" lon="4.96498">
        <ele>160.8</ele>
        <time>2021-02-24T14:52:13Z</time>
      </trkpt>
      <trkpt lat="44.27095" lon="4.96498">
        <ele>160.8</ele>
        <time>2021-02-24T14:52:14Z</time>
      </trkpt>
      <trkpt lat="44.27095" lon="4.96498">
        <ele>160.8</ele>
        <time>2021-02-24T14:52:15Z</time>
      </trkpt>
      <trkpt lat="44.27095" lon="4.96498">
        <ele>160.8</ele>
        <time>2021-02-24T14:52:16Z</time>
      </trkpt>
      <trkpt lat="44.27095" lon="4.96498">
        <ele>160.8</ele>
        <time>2021-02-24T14:52:17Z</time>
      </trkpt>
      <trkpt lat="44.27097" lon="4.96503">
        <ele>160.6</ele>
        <time>2021-02-24T14:52:20Z</time>
      </trkpt>
      <trkpt lat="44.27099" lon="4.96506">
        <ele>160.5</ele>
        <time>2021-02-24T14:52:21Z</time>
      </trkpt>
      <trkpt lat="44.27101" lon="4.96509">
        <ele>160.4</ele>
        <time>2021-02-24T14:52:22Z</time>
      </trkpt>
      <trkpt lat="44.27103" lon="4.96514">
        <ele>160.3</ele>
        <time>2021-02-24T14:52:23Z</time>
      </trkpt>
      <trkpt lat="44.27106" lon="4.96518">
        <ele>160.1</ele>
        <time>2021-02-24T14:52:24Z</time>
      </trkpt>
      <trkpt lat="44.27108" lon="4.96523">
        <ele>160</ele>
        <time>2021-02-24T14:52:25Z</time>
      </trkpt>
      <trkpt lat="44.27111" lon="4.96529">
        <ele>159.8</ele>
        <time>2021-02-24T14:52:26Z</time>
      </trkpt>
      <trkpt lat="44.27114" lon="4.96535">
        <ele>159.6</ele>
        <time>2021-02-24T14:52:27Z</time>
      </trkpt>
      <trkpt lat="44.27117" lon="4.96541">
        <ele>159.4</ele>
        <time>2021-02-24T14:52:28Z</time>
      </trkpt>
      <trkpt lat="44.2712" lon="4.96547">
        <ele>159.3</ele>
        <time>2021-02-24T14:52:29Z</time>
      </trkpt>
      <trkpt lat="44.27123" lon="4.96553">
        <ele>159.1</ele>
        <time>2021-02-24T14:52:30Z</time>
      </trkpt>
      <trkpt lat="44.27127" lon="4.96559">
        <ele>159</ele>
        <time>2021-02-24T14:52:31Z</time>
      </trkpt>
      <trkpt lat="44.2713" lon="4.96566">
        <ele>158.9</ele>
        <time>2021-02-24T14:52:32Z</time>
      </trkpt>
      <trkpt lat="44.27134" lon="4.96572">
        <ele>158.8</ele>
        <time>2021-02-24T14:52:33Z</time>
      </trkpt>
      <trkpt lat="44.27137" lon="4.96579">
        <ele>158.6</ele>
        <time>2021-02-24T14:52:34Z</time>
      </trkpt>
      <trkpt lat="44.2714" lon="4.96585">
        <ele>158.6</ele>
        <time>2021-02-24T14:52:35Z</time>
      </trkpt>
      <trkpt lat="44.27143" lon="4.96592">
        <ele>158.5</ele>
        <time>2021-02-24T14:52:36Z</time>
      </trkpt>
      <trkpt lat="44.27146" lon="4.96598">
        <ele>158.4</ele>
        <time>2021-02-24T14:52:37Z</time>
      </trkpt>
      <trkpt lat="44.2715" lon="4.96604">
        <ele>158.4</ele>
        <time>2021-02-24T14:52:38Z</time>
      </trkpt>
      <trkpt lat="44.27153" lon="4.96611">
        <ele>158.3</ele>
        <time>2021-02-24T14:52:39Z</time>
      </trkpt>
      <trkpt lat="44.27157" lon="4.96618">
        <ele>158.3</ele>
        <time>2021-02-24T14:52:40Z</time>
      </trkpt>
      <trkpt lat="44.27163" lon="4.96628">
        <ele>158.3</ele>
        <time>2021-02-24T14:52:41Z</time>
      </trkpt>
      <trkpt lat="44.27165" lon="4.96631">
        <ele>158.3</ele>
        <time>2021-02-24T14:52:42Z</time>
      </trkpt>
      <trkpt lat="44.27169" lon="4.96638">
        <ele>158.3</ele>
        <time>2021-02-24T14:52:43Z</time>
      </trkpt>
      <trkpt lat="44.27173" lon="4.96645">
        <ele>158.3</ele>
        <time>2021-02-24T14:52:44Z</time>
      </trkpt>
      <trkpt lat="44.27177" lon="4.96652">
        <ele>158.2</ele>
        <time>2021-02-24T14:52:45Z</time>
      </trkpt>
      <trkpt lat="44.27182" lon="4.96659">
        <ele>158.2</ele>
        <time>2021-02-24T14:52:46Z</time>
      </trkpt>
      <trkpt lat="44.27186" lon="4.96666">
        <ele>158.2</ele>
        <time>2021-02-24T14:52:47Z</time>
      </trkpt>
      <trkpt lat="44.27191" lon="4.96673">
        <ele>158.2</ele>
        <time>2021-02-24T14:52:48Z</time>
      </trkpt>
      <trkpt lat="44.27195" lon="4.9668">
        <ele>158.2</ele>
        <time>2021-02-24T14:52:49Z</time>
      </trkpt>
      <trkpt lat="44.272" lon="4.96687">
        <ele>158.2</ele>
        <time>2021-02-24T14:52:50Z</time>
      </trkpt>
      <trkpt lat="44.27204" lon="4.96694">
        <ele>158.2</ele>
        <time>2021-02-24T14:52:51Z</time>
      </trkpt>
      <trkpt lat="44.27209" lon="4.96701">
        <ele>158.3</ele>
        <time>2021-02-24T14:52:52Z</time>
      </trkpt>
      <trkpt lat="44.27213" lon="4.96707">
        <ele>158.3</ele>
        <time>2021-02-24T14:52:53Z</time>
      </trkpt>
      <trkpt lat="44.27217" lon="4.96714">
        <ele>158.4</ele>
        <time>2021-02-24T14:52:54Z</time>
      </trkpt>
      <trkpt lat="44.27221" lon="4.9672">
        <ele>158.5</ele>
        <time>2021-02-24T14:52:55Z</time>
      </trkpt>
      <trkpt lat="44.27225" lon="4.96727">
        <ele>158.6</ele>
        <time>2021-02-24T14:52:56Z</time>
      </trkpt>
      <trkpt lat="44.27228" lon="4.96734">
        <ele>158.8</ele>
        <time>2021-02-24T14:52:57Z</time>
      </trkpt>
      <trkpt lat="44.27231" lon="4.9674">
        <ele>158.9</ele>
        <time>2021-02-24T14:52:58Z</time>
      </trkpt>
      <trkpt lat="44.27236" lon="4.96755">
        <ele>159.3</ele>
        <time>2021-02-24T14:52:59Z</time>
      </trkpt>
      <trkpt lat="44.27236" lon="4.96755">
        <ele>159.3</ele>
        <time>2021-02-24T14:53:00Z</time>
      </trkpt>
      <trkpt lat="44.27238" lon="4.96762">
        <ele>159.5</ele>
        <time>2021-02-24T14:53:01Z</time>
      </trkpt>
      <trkpt lat="44.2724" lon="4.96769">
        <ele>159.7</ele>
        <time>2021-02-24T14:53:02Z</time>
      </trkpt>
      <trkpt lat="44.27241" lon="4.96777">
        <ele>160</ele>
        <time>2021-02-24T14:53:03Z</time>
      </trkpt>
      <trkpt lat="44.27242" lon="4.96783">
        <ele>160.2</ele>
        <time>2021-02-24T14:53:04Z</time>
      </trkpt>
      <trkpt lat="44.27244" lon="4.9679">
        <ele>160.4</ele>
        <time>2021-02-24T14:53:05Z</time>
      </trkpt>
      <trkpt lat="44.27245" lon="4.968">
        <ele>160.8</ele>
        <time>2021-02-24T14:53:06Z</time>
      </trkpt>
      <trkpt lat="44.27246" lon="4.96803">
        <ele>160.9</ele>
        <time>2021-02-24T14:53:07Z</time>
      </trkpt>
      <trkpt lat="44.27247" lon="4.9681">
        <ele>161.1</ele>
        <time>2021-02-24T14:53:08Z</time>
      </trkpt>
      <trkpt lat="44.27248" lon="4.96817">
        <ele>161.4</ele>
        <time>2021-02-24T14:53:09Z</time>
      </trkpt>
      <trkpt lat="44.27249" lon="4.96824">
        <ele>161.7</ele>
        <time>2021-02-24T14:53:10Z</time>
      </trkpt>
      <trkpt lat="44.2725" lon="4.96831">
        <ele>161.9</ele>
        <time>2021-02-24T14:53:11Z</time>
      </trkpt>
      <trkpt lat="44.27251" lon="4.96838">
        <ele>162.2</ele>
        <time>2021-02-24T14:53:12Z</time>
      </trkpt>
      <trkpt lat="44.27252" lon="4.96845">
        <ele>162.4</ele>
        <time>2021-02-24T14:53:13Z</time>
      </trkpt>
      <trkpt lat="44.27253" lon="4.96852">
        <ele>162.6</ele>
        <time>2021-02-24T14:53:14Z</time>
      </trkpt>
      <trkpt lat="44.27254" lon="4.96859">
        <ele>162.9</ele>
        <time>2021-02-24T14:53:15Z</time>
      </trkpt>
      <trkpt lat="44.27256" lon="4.96865">
        <ele>163.1</ele>
        <time>2021-02-24T14:53:16Z</time>
      </trkpt>
      <trkpt lat="44.27257" lon="4.96872">
        <ele>163.3</ele>
        <time>2021-02-24T14:53:17Z</time>
      </trkpt>
      <trkpt lat="44.2726" lon="4.96885">
        <ele>163.6</ele>
        <time>2021-02-24T14:53:18Z</time>
      </trkpt>
      <trkpt lat="44.2726" lon="4.96885">
        <ele>163.6</ele>
        <time>2021-02-24T14:53:19Z</time>
      </trkpt>
      <trkpt lat="44.27261" lon="4.96891">
        <ele>163.7</ele>
        <time>2021-02-24T14:53:20Z</time>
      </trkpt>
      <trkpt lat="44.27263" lon="4.96897">
        <ele>163.7</ele>
        <time>2021-02-24T14:53:21Z</time>
      </trkpt>
      <trkpt lat="44.27265" lon="4.96904">
        <ele>163.7</ele>
        <time>2021-02-24T14:53:22Z</time>
      </trkpt>
      <trkpt lat="44.27267" lon="4.96911">
        <ele>163.5</ele>
        <time>2021-02-24T14:53:23Z</time>
      </trkpt>
      <trkpt lat="44.27269" lon="4.96919">
        <ele>163.4</ele>
        <time>2021-02-24T14:53:24Z</time>
      </trkpt>
      <trkpt lat="44.27271" lon="4.96926">
        <ele>163.1</ele>
        <time>2021-02-24T14:53:25Z</time>
      </trkpt>
      <trkpt lat="44.27275" lon="4.96939">
        <ele>162.6</ele>
        <time>2021-02-24T14:53:26Z</time>
      </trkpt>
      <trkpt lat="44.27277" lon="4.96944">
        <ele>162.5</ele>
        <time>2021-02-24T14:53:27Z</time>
      </trkpt>
      <trkpt lat="44.2728" lon="4.96953">
        <ele>162.1</ele>
        <time>2021-02-24T14:53:28Z</time>
      </trkpt>
      <trkpt lat="44.27283" lon="4.96963">
        <ele>161.7</ele>
        <time>2021-02-24T14:53:29Z</time>
      </trkpt>
      <trkpt lat="44.27285" lon="4.96973">
        <ele>161.3</ele>
        <time>2021-02-24T14:53:30Z</time>
      </trkpt>
      <trkpt lat="44.27288" lon="4.96983">
        <ele>161</ele>
        <time>2021-02-24T14:53:31Z</time>
      </trkpt>
      <trkpt lat="44.27291" lon="4.96994">
        <ele>160.6</ele>
        <time>2021-02-24T14:53:32Z</time>
      </trkpt>
      <trkpt lat="44.27294" lon="4.97005">
        <ele>160.3</ele>
        <time>2021-02-24T14:53:33Z</time>
      </trkpt>
      <trkpt lat="44.27298" lon="4.97016">
        <ele>160</ele>
        <time>2021-02-24T14:53:34Z</time>
      </trkpt>
      <trkpt lat="44.27301" lon="4.97027">
        <ele>159.8</ele>
        <time>2021-02-24T14:53:35Z</time>
      </trkpt>
      <trkpt lat="44.27304" lon="4.97038">
        <ele>159.7</ele>
        <time>2021-02-24T14:53:36Z</time>
      </trkpt>
      <trkpt lat="44.2731" lon="4.97059">
        <ele>159.6</ele>
        <time>2021-02-24T14:53:37Z</time>
      </trkpt>
      <trkpt lat="44.2731" lon="4.97059">
        <ele>159.6</ele>
        <time>2021-02-24T14:53:38Z</time>
      </trkpt>
      <trkpt lat="44.27314" lon="4.97074">
        <ele>159.6</ele>
        <time>2021-02-24T14:53:39Z</time>
      </trkpt>
      <trkpt lat="44.27315" lon="4.97079">
        <ele>159.7</ele>
        <time>2021-02-24T14:53:40Z</time>
      </trkpt>
      <trkpt lat="44.27318" lon="4.97089">
        <ele>159.7</ele>
        <time>2021-02-24T14:53:41Z</time>
      </trkpt>
      <trkpt lat="44.27321" lon="4.97098">
        <ele>159.7</ele>
        <time>2021-02-24T14:53:42Z</time>
      </trkpt>
      <trkpt lat="44.27324" lon="4.97108">
        <ele>159.8</ele>
        <time>2021-02-24T14:53:43Z</time>
      </trkpt>
      <trkpt lat="44.27326" lon="4.97117">
        <ele>159.9</ele>
        <time>2021-02-24T14:53:44Z</time>
      </trkpt>
      <trkpt lat="44.27329" lon="4.97127">
        <ele>160</ele>
        <time>2021-02-24T14:53:45Z</time>
      </trkpt>
      <trkpt lat="44.27332" lon="4.97136">
        <ele>160</ele>
        <time>2021-02-24T14:53:46Z</time>
      </trkpt>
      <trkpt lat="44.27335" lon="4.97145">
        <ele>160.1</ele>
        <time>2021-02-24T14:53:47Z</time>
      </trkpt>
      <trkpt lat="44.27338" lon="4.97154">
        <ele>160.1</ele>
        <time>2021-02-24T14:53:48Z</time>
      </trkpt>
      <trkpt lat="44.27342" lon="4.97162">
        <ele>160.1</ele>
        <time>2021-02-24T14:53:49Z</time>
      </trkpt>
      <trkpt lat="44.27346" lon="4.97171">
        <ele>160.1</ele>
        <time>2021-02-24T14:53:50Z</time>
      </trkpt>
      <trkpt lat="44.2735" lon="4.97179">
        <ele>160.1</ele>
        <time>2021-02-24T14:53:51Z</time>
      </trkpt>
      <trkpt lat="44.27354" lon="4.97187">
        <ele>160.2</ele>
        <time>2021-02-24T14:53:52Z</time>
      </trkpt>
      <trkpt lat="44.27359" lon="4.97194">
        <ele>160.2</ele>
        <time>2021-02-24T14:53:53Z</time>
      </trkpt>
      <trkpt lat="44.27364" lon="4.97202">
        <ele>160.3</ele>
        <time>2021-02-24T14:53:54Z</time>
      </trkpt>
      <trkpt lat="44.27368" lon="4.97208">
        <ele>160.4</ele>
        <time>2021-02-24T14:53:55Z</time>
      </trkpt>
      <trkpt lat="44.27373" lon="4.97215">
        <ele>160.5</ele>
        <time>2021-02-24T14:53:56Z</time>
      </trkpt>
      <trkpt lat="44.27379" lon="4.97222">
        <ele>160.7</ele>
        <time>2021-02-24T14:53:57Z</time>
      </trkpt>
      <trkpt lat="44.27384" lon="4.97227">
        <ele>160.9</ele>
        <time>2021-02-24T14:53:58Z</time>
      </trkpt>
      <trkpt lat="44.27389" lon="4.97233">
        <ele>161.2</ele>
        <time>2021-02-24T14:53:59Z</time>
      </trkpt>
      <trkpt lat="44.27397" lon="4.97241">
        <ele>161.6</ele>
        <time>2021-02-24T14:54:00Z</time>
      </trkpt>
      <trkpt lat="44.27399" lon="4.97244">
        <ele>161.8</ele>
        <time>2021-02-24T14:54:01Z</time>
      </trkpt>
      <trkpt lat="44.27404" lon="4.97249">
        <ele>162.2</ele>
        <time>2021-02-24T14:54:02Z</time>
      </trkpt>
      <trkpt lat="44.27409" lon="4.97255">
        <ele>162.5</ele>
        <time>2021-02-24T14:54:03Z</time>
      </trkpt>
      <trkpt lat="44.27413" lon="4.9726">
        <ele>162.9</ele>
        <time>2021-02-24T14:54:04Z</time>
      </trkpt>
      <trkpt lat="44.27417" lon="4.97265">
        <ele>163.2</ele>
        <time>2021-02-24T14:54:05Z</time>
      </trkpt>
      <trkpt lat="44.27421" lon="4.97271">
        <ele>163.5</ele>
        <time>2021-02-24T14:54:06Z</time>
      </trkpt>
      <trkpt lat="44.27425" lon="4.97277">
        <ele>163.8</ele>
        <time>2021-02-24T14:54:07Z</time>
      </trkpt>
      <trkpt lat="44.27429" lon="4.97283">
        <ele>164.1</ele>
        <time>2021-02-24T14:54:08Z</time>
      </trkpt>
      <trkpt lat="44.27432" lon="4.97289">
        <ele>164.3</ele>
        <time>2021-02-24T14:54:09Z</time>
      </trkpt>
      <trkpt lat="44.27436" lon="4.97295">
        <ele>164.5</ele>
        <time>2021-02-24T14:54:10Z</time>
      </trkpt>
      <trkpt lat="44.2744" lon="4.97301">
        <ele>164.7</ele>
        <time>2021-02-24T14:54:11Z</time>
      </trkpt>
      <trkpt lat="44.27443" lon="4.97307">
        <ele>164.9</ele>
        <time>2021-02-24T14:54:12Z</time>
      </trkpt>
      <trkpt lat="44.27447" lon="4.97313">
        <ele>165.1</ele>
        <time>2021-02-24T14:54:13Z</time>
      </trkpt>
      <trkpt lat="44.27455" lon="4.97325">
        <ele>165.5</ele>
        <time>2021-02-24T14:54:14Z</time>
      </trkpt>
      <trkpt lat="44.27455" lon="4.97325">
        <ele>165.5</ele>
        <time>2021-02-24T14:54:15Z</time>
      </trkpt>
      <trkpt lat="44.27459" lon="4.97331">
        <ele>165.7</ele>
        <time>2021-02-24T14:54:16Z</time>
      </trkpt>
      <trkpt lat="44.27462" lon="4.97337">
        <ele>165.9</ele>
        <time>2021-02-24T14:54:17Z</time>
      </trkpt>
      <trkpt lat="44.27466" lon="4.97343">
        <ele>166.1</ele>
        <time>2021-02-24T14:54:18Z</time>
      </trkpt>
      <trkpt lat="44.2747" lon="4.97349">
        <ele>166.4</ele>
        <time>2021-02-24T14:54:19Z</time>
      </trkpt>
      <trkpt lat="44.27474" lon="4.97354">
        <ele>166.7</ele>
        <time>2021-02-24T14:54:20Z</time>
      </trkpt>
      <trkpt lat="44.27477" lon="4.9736">
        <ele>167</ele>
        <time>2021-02-24T14:54:21Z</time>
      </trkpt>
      <trkpt lat="44.27481" lon="4.97366">
        <ele>167.4</ele>
        <time>2021-02-24T14:54:22Z</time>
      </trkpt>
      <trkpt lat="44.27484" lon="4.97371">
        <ele>167.7</ele>
        <time>2021-02-24T14:54:23Z</time>
      </trkpt>
      <trkpt lat="44.27487" lon="4.97377">
        <ele>168</ele>
        <time>2021-02-24T14:54:24Z</time>
      </trkpt>
      <trkpt lat="44.2749" lon="4.97383">
        <ele>168.3</ele>
        <time>2021-02-24T14:54:25Z</time>
      </trkpt>
      <trkpt lat="44.27493" lon="4.97389">
        <ele>168.5</ele>
        <time>2021-02-24T14:54:26Z</time>
      </trkpt>
      <trkpt lat="44.27495" lon="4.97395">
        <ele>168.8</ele>
        <time>2021-02-24T14:54:27Z</time>
      </trkpt>
      <trkpt lat="44.27498" lon="4.97401">
        <ele>169</ele>
        <time>2021-02-24T14:54:28Z</time>
      </trkpt>
      <trkpt lat="44.275" lon="4.97408">
        <ele>169.1</ele>
        <time>2021-02-24T14:54:29Z</time>
      </trkpt>
      <trkpt lat="44.27502" lon="4.97415">
        <ele>169.2</ele>
        <time>2021-02-24T14:54:30Z</time>
      </trkpt>
      <trkpt lat="44.27504" lon="4.97421">
        <ele>169.3</ele>
        <time>2021-02-24T14:54:31Z</time>
      </trkpt>
      <trkpt lat="44.27506" lon="4.97428">
        <ele>169.3</ele>
        <time>2021-02-24T14:54:32Z</time>
      </trkpt>
      <trkpt lat="44.27508" lon="4.97435">
        <ele>169.4</ele>
        <time>2021-02-24T14:54:33Z</time>
      </trkpt>
      <trkpt lat="44.27511" lon="4.97441">
        <ele>169.4</ele>
        <time>2021-02-24T14:54:34Z</time>
      </trkpt>
      <trkpt lat="44.27513" lon="4.97448">
        <ele>169.5</ele>
        <time>2021-02-24T14:54:35Z</time>
      </trkpt>
      <trkpt lat="44.27516" lon="4.97455">
        <ele>169.5</ele>
        <time>2021-02-24T14:54:36Z</time>
      </trkpt>
      <trkpt lat="44.27518" lon="4.97461">
        <ele>169.5</ele>
        <time>2021-02-24T14:54:37Z</time>
      </trkpt>
      <trkpt lat="44.27521" lon="4.97468">
        <ele>169.6</ele>
        <time>2021-02-24T14:54:38Z</time>
      </trkpt>
      <trkpt lat="44.27524" lon="4.97474">
        <ele>169.6</ele>
        <time>2021-02-24T14:54:39Z</time>
      </trkpt>
      <trkpt lat="44.27527" lon="4.97481">
        <ele>169.7</ele>
        <time>2021-02-24T14:54:40Z</time>
      </trkpt>
      <trkpt lat="44.2753" lon="4.97487">
        <ele>169.7</ele>
        <time>2021-02-24T14:54:41Z</time>
      </trkpt>
      <trkpt lat="44.27534" lon="4.97493">
        <ele>169.7</ele>
        <time>2021-02-24T14:54:42Z</time>
      </trkpt>
      <trkpt lat="44.27537" lon="4.97499">
        <ele>169.8</ele>
        <time>2021-02-24T14:54:43Z</time>
      </trkpt>
      <trkpt lat="44.27541" lon="4.97505">
        <ele>169.8</ele>
        <time>2021-02-24T14:54:44Z</time>
      </trkpt>
      <trkpt lat="44.27545" lon="4.9751">
        <ele>169.8</ele>
        <time>2021-02-24T14:54:45Z</time>
      </trkpt>
      <trkpt lat="44.27549" lon="4.97516">
        <ele>169.8</ele>
        <time>2021-02-24T14:54:46Z</time>
      </trkpt>
      <trkpt lat="44.27554" lon="4.97521">
        <ele>169.8</ele>
        <time>2021-02-24T14:54:47Z</time>
      </trkpt>
      <trkpt lat="44.27556" lon="4.97524">
        <ele>169.8</ele>
        <time>2021-02-24T14:54:48Z</time>
      </trkpt>
      <trkpt lat="44.27558" lon="4.97527">
        <ele>169.8</ele>
        <time>2021-02-24T14:54:49Z</time>
      </trkpt>
      <trkpt lat="44.27565" lon="4.97535">
        <ele>169.8</ele>
        <time>2021-02-24T14:54:50Z</time>
      </trkpt>
      <trkpt lat="44.27567" lon="4.97538">
        <ele>169.8</ele>
        <time>2021-02-24T14:54:51Z</time>
      </trkpt>
      <trkpt lat="44.27573" lon="4.97548">
        <ele>169.7</ele>
        <time>2021-02-24T14:54:52Z</time>
      </trkpt>
      <trkpt lat="44.27575" lon="4.97552">
        <ele>169.7</ele>
        <time>2021-02-24T14:54:53Z</time>
      </trkpt>
      <trkpt lat="44.27579" lon="4.97564">
        <ele>169.6</ele>
        <time>2021-02-24T14:54:54Z</time>
      </trkpt>
      <trkpt lat="44.2758" lon="4.97568">
        <ele>169.6</ele>
        <time>2021-02-24T14:54:55Z</time>
      </trkpt>
      <trkpt lat="44.27584" lon="4.97581">
        <ele>169.5</ele>
        <time>2021-02-24T14:54:56Z</time>
      </trkpt>
      <trkpt lat="44.27585" lon="4.97585">
        <ele>169.5</ele>
        <time>2021-02-24T14:54:57Z</time>
      </trkpt>
      <trkpt lat="44.27588" lon="4.97598">
        <ele>169.5</ele>
        <time>2021-02-24T14:54:58Z</time>
      </trkpt>
      <trkpt lat="44.27589" lon="4.97602">
        <ele>169.5</ele>
        <time>2021-02-24T14:54:59Z</time>
      </trkpt>
      <trkpt lat="44.27593" lon="4.97615">
        <ele>169.5</ele>
        <time>2021-02-24T14:55:00Z</time>
      </trkpt>
      <trkpt lat="44.27594" lon="4.9762">
        <ele>169.5</ele>
        <time>2021-02-24T14:55:01Z</time>
      </trkpt>
      <trkpt lat="44.27599" lon="4.97637">
        <ele>169.5</ele>
        <time>2021-02-24T14:55:02Z</time>
      </trkpt>
      <trkpt lat="44.27602" lon="4.97645">
        <ele>169.5</ele>
        <time>2021-02-24T14:55:03Z</time>
      </trkpt>
      <trkpt lat="44.27604" lon="4.97653">
        <ele>169.5</ele>
        <time>2021-02-24T14:55:04Z</time>
      </trkpt>
      <trkpt lat="44.27609" lon="4.97666">
        <ele>169.5</ele>
        <time>2021-02-24T14:55:05Z</time>
      </trkpt>
      <trkpt lat="44.27611" lon="4.9767">
        <ele>169.5</ele>
        <time>2021-02-24T14:55:06Z</time>
      </trkpt>
      <trkpt lat="44.27616" lon="4.97683">
        <ele>169.5</ele>
        <time>2021-02-24T14:55:07Z</time>
      </trkpt>
      <trkpt lat="44.27617" lon="4.97687">
        <ele>169.5</ele>
        <time>2021-02-24T14:55:08Z</time>
      </trkpt>
      <trkpt lat="44.2762" lon="4.97695">
        <ele>169.5</ele>
        <time>2021-02-24T14:55:09Z</time>
      </trkpt>
      <trkpt lat="44.27624" lon="4.97703">
        <ele>169.5</ele>
        <time>2021-02-24T14:55:10Z</time>
      </trkpt>
      <trkpt lat="44.27627" lon="4.97711">
        <ele>169.5</ele>
        <time>2021-02-24T14:55:11Z</time>
      </trkpt>
      <trkpt lat="44.27633" lon="4.97728">
        <ele>169.6</ele>
        <time>2021-02-24T14:55:12Z</time>
      </trkpt>
      <trkpt lat="44.27633" lon="4.97728">
        <ele>169.6</ele>
        <time>2021-02-24T14:55:13Z</time>
      </trkpt>
      <trkpt lat="44.27636" lon="4.97736">
        <ele>169.6</ele>
        <time>2021-02-24T14:55:14Z</time>
      </trkpt>
      <trkpt lat="44.27641" lon="4.97748">
        <ele>169.6</ele>
        <time>2021-02-24T14:55:15Z</time>
      </trkpt>
      <trkpt lat="44.27643" lon="4.97752">
        <ele>169.6</ele>
        <time>2021-02-24T14:55:16Z</time>
      </trkpt>
      <trkpt lat="44.27646" lon="4.9776">
        <ele>169.6</ele>
        <time>2021-02-24T14:55:17Z</time>
      </trkpt>
      <trkpt lat="44.27649" lon="4.97768">
        <ele>169.6</ele>
        <time>2021-02-24T14:55:18Z</time>
      </trkpt>
      <trkpt lat="44.27652" lon="4.97776">
        <ele>169.6</ele>
        <time>2021-02-24T14:55:19Z</time>
      </trkpt>
      <trkpt lat="44.27655" lon="4.97785">
        <ele>169.7</ele>
        <time>2021-02-24T14:55:20Z</time>
      </trkpt>
      <trkpt lat="44.27658" lon="4.97793">
        <ele>169.7</ele>
        <time>2021-02-24T14:55:21Z</time>
      </trkpt>
      <trkpt lat="44.27661" lon="4.97801">
        <ele>169.7</ele>
        <time>2021-02-24T14:55:22Z</time>
      </trkpt>
      <trkpt lat="44.27664" lon="4.97809">
        <ele>169.8</ele>
        <time>2021-02-24T14:55:23Z</time>
      </trkpt>
      <trkpt lat="44.27667" lon="4.97817">
        <ele>169.9</ele>
        <time>2021-02-24T14:55:24Z</time>
      </trkpt>
      <trkpt lat="44.2767" lon="4.97825">
        <ele>170</ele>
        <time>2021-02-24T14:55:25Z</time>
      </trkpt>
      <trkpt lat="44.27673" lon="4.97833">
        <ele>170.1</ele>
        <time>2021-02-24T14:55:26Z</time>
      </trkpt>
      <trkpt lat="44.27676" lon="4.97841">
        <ele>170.2</ele>
        <time>2021-02-24T14:55:27Z</time>
      </trkpt>
      <trkpt lat="44.27679" lon="4.97848">
        <ele>170.3</ele>
        <time>2021-02-24T14:55:28Z</time>
      </trkpt>
      <trkpt lat="44.27682" lon="4.97856">
        <ele>170.5</ele>
        <time>2021-02-24T14:55:29Z</time>
      </trkpt>
      <trkpt lat="44.27685" lon="4.97864">
        <ele>170.6</ele>
        <time>2021-02-24T14:55:30Z</time>
      </trkpt>
      <trkpt lat="44.27687" lon="4.97872">
        <ele>170.6</ele>
        <time>2021-02-24T14:55:31Z</time>
      </trkpt>
      <trkpt lat="44.2769" lon="4.9788">
        <ele>170.7</ele>
        <time>2021-02-24T14:55:32Z</time>
      </trkpt>
      <trkpt lat="44.27692" lon="4.97887">
        <ele>170.8</ele>
        <time>2021-02-24T14:55:33Z</time>
      </trkpt>
      <trkpt lat="44.27695" lon="4.97895">
        <ele>170.9</ele>
        <time>2021-02-24T14:55:34Z</time>
      </trkpt>
      <trkpt lat="44.27696" lon="4.97903">
        <ele>171</ele>
        <time>2021-02-24T14:55:35Z</time>
      </trkpt>
      <trkpt lat="44.27696" lon="4.97903">
        <ele>171</ele>
        <time>2021-02-24T14:55:36Z</time>
      </trkpt>
      <trkpt lat="44.27695" lon="4.97923">
        <ele>171.3</ele>
        <time>2021-02-24T14:55:37Z</time>
      </trkpt>
      <trkpt lat="44.27695" lon="4.97927">
        <ele>171.3</ele>
        <time>2021-02-24T14:55:38Z</time>
      </trkpt>
      <trkpt lat="44.27696" lon="4.97941">
        <ele>171.5</ele>
        <time>2021-02-24T14:55:39Z</time>
      </trkpt>
      <trkpt lat="44.27697" lon="4.97945">
        <ele>171.6</ele>
        <time>2021-02-24T14:55:40Z</time>
      </trkpt>
      <trkpt lat="44.27699" lon="4.97955">
        <ele>171.7</ele>
        <time>2021-02-24T14:55:41Z</time>
      </trkpt>
      <trkpt lat="44.277" lon="4.97959">
        <ele>171.8</ele>
        <time>2021-02-24T14:55:42Z</time>
      </trkpt>
      <trkpt lat="44.27701" lon="4.97964">
        <ele>171.9</ele>
        <time>2021-02-24T14:55:43Z</time>
      </trkpt>
      <trkpt lat="44.27705" lon="4.97977">
        <ele>172</ele>
        <time>2021-02-24T14:55:44Z</time>
      </trkpt>
      <trkpt lat="44.27706" lon="4.97982">
        <ele>172.1</ele>
        <time>2021-02-24T14:55:45Z</time>
      </trkpt>
      <trkpt lat="44.27711" lon="4.98001">
        <ele>172.4</ele>
        <time>2021-02-24T14:55:46Z</time>
      </trkpt>
      <trkpt lat="44.27713" lon="4.98012">
        <ele>172.6</ele>
        <time>2021-02-24T14:55:47Z</time>
      </trkpt>
      <trkpt lat="44.27716" lon="4.98022">
        <ele>172.8</ele>
        <time>2021-02-24T14:55:48Z</time>
      </trkpt>
      <trkpt lat="44.27719" lon="4.98035">
        <ele>172.9</ele>
        <time>2021-02-24T14:55:49Z</time>
      </trkpt>
      <trkpt lat="44.27719" lon="4.98035">
        <ele>172.9</ele>
        <time>2021-02-24T14:55:50Z</time>
      </trkpt>
      <trkpt lat="44.27722" lon="4.98048">
        <ele>173</ele>
        <time>2021-02-24T14:55:51Z</time>
      </trkpt>
      <trkpt lat="44.27723" lon="4.98053">
        <ele>173.1</ele>
        <time>2021-02-24T14:55:52Z</time>
      </trkpt>
      <trkpt lat="44.27725" lon="4.98062">
        <ele>173.2</ele>
        <time>2021-02-24T14:55:53Z</time>
      </trkpt>
      <trkpt lat="44.27727" lon="4.98071">
        <ele>173.3</ele>
        <time>2021-02-24T14:55:54Z</time>
      </trkpt>
      <trkpt lat="44.27729" lon="4.9808">
        <ele>173.4</ele>
        <time>2021-02-24T14:55:55Z</time>
      </trkpt>
      <trkpt lat="44.2773" lon="4.98084">
        <ele>173.4</ele>
        <time>2021-02-24T14:55:56Z</time>
      </trkpt>
      <trkpt lat="44.27731" lon="4.98088">
        <ele>173.5</ele>
        <time>2021-02-24T14:55:57Z</time>
      </trkpt>
      <trkpt lat="44.27735" lon="4.98104">
        <ele>173.6</ele>
        <time>2021-02-24T14:55:58Z</time>
      </trkpt>
      <trkpt lat="44.27736" lon="4.9811">
        <ele>173.7</ele>
        <time>2021-02-24T14:55:59Z</time>
      </trkpt>
      <trkpt lat="44.2774" lon="4.98123">
        <ele>173.8</ele>
        <time>2021-02-24T14:56:00Z</time>
      </trkpt>
      <trkpt lat="44.27742" lon="4.98132">
        <ele>173.9</ele>
        <time>2021-02-24T14:56:01Z</time>
      </trkpt>
      <trkpt lat="44.27744" lon="4.98141">
        <ele>174</ele>
        <time>2021-02-24T14:56:02Z</time>
      </trkpt>
      <trkpt lat="44.27747" lon="4.98149">
        <ele>174.1</ele>
        <time>2021-02-24T14:56:03Z</time>
      </trkpt>
      <trkpt lat="44.27749" lon="4.98158">
        <ele>174.2</ele>
        <time>2021-02-24T14:56:04Z</time>
      </trkpt>
      <trkpt lat="44.27752" lon="4.98167">
        <ele>174.2</ele>
        <time>2021-02-24T14:56:05Z</time>
      </trkpt>
      <trkpt lat="44.27754" lon="4.98175">
        <ele>174.3</ele>
        <time>2021-02-24T14:56:06Z</time>
      </trkpt>
      <trkpt lat="44.27757" lon="4.98184">
        <ele>174.4</ele>
        <time>2021-02-24T14:56:07Z</time>
      </trkpt>
      <trkpt lat="44.2776" lon="4.98192">
        <ele>174.6</ele>
        <time>2021-02-24T14:56:08Z</time>
      </trkpt>
      <trkpt lat="44.27763" lon="4.98201">
        <ele>174.7</ele>
        <time>2021-02-24T14:56:09Z</time>
      </trkpt>
      <trkpt lat="44.27767" lon="4.98213">
        <ele>174.9</ele>
        <time>2021-02-24T14:56:10Z</time>
      </trkpt>
      <trkpt lat="44.27769" lon="4.98217">
        <ele>174.9</ele>
        <time>2021-02-24T14:56:11Z</time>
      </trkpt>
      <trkpt lat="44.27772" lon="4.98225">
        <ele>175</ele>
        <time>2021-02-24T14:56:12Z</time>
      </trkpt>
      <trkpt lat="44.27775" lon="4.98233">
        <ele>175.1</ele>
        <time>2021-02-24T14:56:13Z</time>
      </trkpt>
      <trkpt lat="44.27777" lon="4.98241">
        <ele>175.1</ele>
        <time>2021-02-24T14:56:14Z</time>
      </trkpt>
      <trkpt lat="44.2778" lon="4.98249">
        <ele>175.1</ele>
        <time>2021-02-24T14:56:15Z</time>
      </trkpt>
      <trkpt lat="44.27783" lon="4.98257">
        <ele>175.2</ele>
        <time>2021-02-24T14:56:16Z</time>
      </trkpt>
      <trkpt lat="44.27787" lon="4.98266">
        <ele>175.2</ele>
        <time>2021-02-24T14:56:17Z</time>
      </trkpt>
      <trkpt lat="44.2779" lon="4.98273">
        <ele>175.3</ele>
        <time>2021-02-24T14:56:18Z</time>
      </trkpt>
      <trkpt lat="44.27794" lon="4.98281">
        <ele>175.3</ele>
        <time>2021-02-24T14:56:19Z</time>
      </trkpt>
      <trkpt lat="44.27797" lon="4.98289">
        <ele>175.4</ele>
        <time>2021-02-24T14:56:20Z</time>
      </trkpt>
      <trkpt lat="44.27801" lon="4.98297">
        <ele>175.4</ele>
        <time>2021-02-24T14:56:21Z</time>
      </trkpt>
      <trkpt lat="44.27805" lon="4.98304">
        <ele>175.4</ele>
        <time>2021-02-24T14:56:22Z</time>
      </trkpt>
      <trkpt lat="44.2781" lon="4.98312">
        <ele>175.5</ele>
        <time>2021-02-24T14:56:23Z</time>
      </trkpt>
      <trkpt lat="44.27814" lon="4.98319">
        <ele>175.6</ele>
        <time>2021-02-24T14:56:24Z</time>
      </trkpt>
      <trkpt lat="44.27819" lon="4.98326">
        <ele>175.7</ele>
        <time>2021-02-24T14:56:25Z</time>
      </trkpt>
      <trkpt lat="44.27824" lon="4.98332">
        <ele>175.7</ele>
        <time>2021-02-24T14:56:26Z</time>
      </trkpt>
      <trkpt lat="44.27829" lon="4.98339">
        <ele>175.8</ele>
        <time>2021-02-24T14:56:27Z</time>
      </trkpt>
      <trkpt lat="44.27833" lon="4.98346">
        <ele>175.9</ele>
        <time>2021-02-24T14:56:28Z</time>
      </trkpt>
      <trkpt lat="44.27839" lon="4.98357">
        <ele>176</ele>
        <time>2021-02-24T14:56:29Z</time>
      </trkpt>
      <trkpt lat="44.27841" lon="4.98361">
        <ele>176.1</ele>
        <time>2021-02-24T14:56:30Z</time>
      </trkpt>
      <trkpt lat="44.27844" lon="4.98369">
        <ele>176.2</ele>
        <time>2021-02-24T14:56:31Z</time>
      </trkpt>
      <trkpt lat="44.27847" lon="4.98378">
        <ele>176.2</ele>
        <time>2021-02-24T14:56:32Z</time>
      </trkpt>
      <trkpt lat="44.2785" lon="4.98386">
        <ele>176.3</ele>
        <time>2021-02-24T14:56:33Z</time>
      </trkpt>
      <trkpt lat="44.27852" lon="4.98395">
        <ele>176.4</ele>
        <time>2021-02-24T14:56:34Z</time>
      </trkpt>
      <trkpt lat="44.27854" lon="4.98404">
        <ele>176.5</ele>
        <time>2021-02-24T14:56:35Z</time>
      </trkpt>
      <trkpt lat="44.27855" lon="4.98413">
        <ele>176.6</ele>
        <time>2021-02-24T14:56:36Z</time>
      </trkpt>
      <trkpt lat="44.27857" lon="4.98422">
        <ele>176.8</ele>
        <time>2021-02-24T14:56:37Z</time>
      </trkpt>
      <trkpt lat="44.27857" lon="4.98431">
        <ele>176.9</ele>
        <time>2021-02-24T14:56:38Z</time>
      </trkpt>
      <trkpt lat="44.27858" lon="4.9844">
        <ele>177</ele>
        <time>2021-02-24T14:56:39Z</time>
      </trkpt>
      <trkpt lat="44.27859" lon="4.98448">
        <ele>177.1</ele>
        <time>2021-02-24T14:56:40Z</time>
      </trkpt>
      <trkpt lat="44.27861" lon="4.98457">
        <ele>177.2</ele>
        <time>2021-02-24T14:56:41Z</time>
      </trkpt>
      <trkpt lat="44.27862" lon="4.98466">
        <ele>177.3</ele>
        <time>2021-02-24T14:56:42Z</time>
      </trkpt>
      <trkpt lat="44.27863" lon="4.98474">
        <ele>177.3</ele>
        <time>2021-02-24T14:56:43Z</time>
      </trkpt>
      <trkpt lat="44.27863" lon="4.98483">
        <ele>177.3</ele>
        <time>2021-02-24T14:56:44Z</time>
      </trkpt>
      <trkpt lat="44.27863" lon="4.98491">
        <ele>177.4</ele>
        <time>2021-02-24T14:56:45Z</time>
      </trkpt>
      <trkpt lat="44.27864" lon="4.985">
        <ele>177.4</ele>
        <time>2021-02-24T14:56:46Z</time>
      </trkpt>
      <trkpt lat="44.27864" lon="4.98508">
        <ele>177.4</ele>
        <time>2021-02-24T14:56:47Z</time>
      </trkpt>
      <trkpt lat="44.27864" lon="4.98516">
        <ele>177.4</ele>
        <time>2021-02-24T14:56:48Z</time>
      </trkpt>
      <trkpt lat="44.27863" lon="4.98525">
        <ele>177.4</ele>
        <time>2021-02-24T14:56:49Z</time>
      </trkpt>
      <trkpt lat="44.27863" lon="4.98534">
        <ele>177.5</ele>
        <time>2021-02-24T14:56:50Z</time>
      </trkpt>
      <trkpt lat="44.27863" lon="4.98543">
        <ele>177.5</ele>
        <time>2021-02-24T14:56:51Z</time>
      </trkpt>
      <trkpt lat="44.27862" lon="4.98552">
        <ele>177.5</ele>
        <time>2021-02-24T14:56:52Z</time>
      </trkpt>
      <trkpt lat="44.27862" lon="4.98561">
        <ele>177.5</ele>
        <time>2021-02-24T14:56:53Z</time>
      </trkpt>
      <trkpt lat="44.27861" lon="4.98569">
        <ele>177.5</ele>
        <time>2021-02-24T14:56:54Z</time>
      </trkpt>
      <trkpt lat="44.27861" lon="4.98578">
        <ele>177.5</ele>
        <time>2021-02-24T14:56:55Z</time>
      </trkpt>
      <trkpt lat="44.2786" lon="4.98587">
        <ele>177.5</ele>
        <time>2021-02-24T14:56:56Z</time>
      </trkpt>
      <trkpt lat="44.27859" lon="4.98596">
        <ele>177.5</ele>
        <time>2021-02-24T14:56:57Z</time>
      </trkpt>
      <trkpt lat="44.2786" lon="4.98605">
        <ele>177.4</ele>
        <time>2021-02-24T14:56:58Z</time>
      </trkpt>
      <trkpt lat="44.2786" lon="4.98614">
        <ele>177.4</ele>
        <time>2021-02-24T14:56:59Z</time>
      </trkpt>
      <trkpt lat="44.27861" lon="4.98624">
        <ele>177.4</ele>
        <time>2021-02-24T14:57:00Z</time>
      </trkpt>
      <trkpt lat="44.27862" lon="4.98633">
        <ele>177.4</ele>
        <time>2021-02-24T14:57:01Z</time>
      </trkpt>
      <trkpt lat="44.27864" lon="4.98642">
        <ele>177.4</ele>
        <time>2021-02-24T14:57:02Z</time>
      </trkpt>
      <trkpt lat="44.27866" lon="4.9865">
        <ele>177.5</ele>
        <time>2021-02-24T14:57:03Z</time>
      </trkpt>
      <trkpt lat="44.27869" lon="4.98659">
        <ele>177.5</ele>
        <time>2021-02-24T14:57:04Z</time>
      </trkpt>
      <trkpt lat="44.27872" lon="4.98667">
        <ele>177.5</ele>
        <time>2021-02-24T14:57:05Z</time>
      </trkpt>
      <trkpt lat="44.27875" lon="4.98674">
        <ele>177.6</ele>
        <time>2021-02-24T14:57:06Z</time>
      </trkpt>
      <trkpt lat="44.27881" lon="4.98684">
        <ele>177.7</ele>
        <time>2021-02-24T14:57:07Z</time>
      </trkpt>
      <trkpt lat="44.27883" lon="4.98687">
        <ele>177.7</ele>
        <time>2021-02-24T14:57:08Z</time>
      </trkpt>
      <trkpt lat="44.27887" lon="4.98694">
        <ele>177.7</ele>
        <time>2021-02-24T14:57:09Z</time>
      </trkpt>
      <trkpt lat="44.27892" lon="4.987">
        <ele>177.8</ele>
        <time>2021-02-24T14:57:10Z</time>
      </trkpt>
      <trkpt lat="44.27896" lon="4.98706">
        <ele>177.8</ele>
        <time>2021-02-24T14:57:11Z</time>
      </trkpt>
      <trkpt lat="44.27901" lon="4.98712">
        <ele>177.9</ele>
        <time>2021-02-24T14:57:12Z</time>
      </trkpt>
      <trkpt lat="44.27906" lon="4.98718">
        <ele>178</ele>
        <time>2021-02-24T14:57:13Z</time>
      </trkpt>
      <trkpt lat="44.27911" lon="4.98723">
        <ele>178</ele>
        <time>2021-02-24T14:57:14Z</time>
      </trkpt>
      <trkpt lat="44.27916" lon="4.98729">
        <ele>178.1</ele>
        <time>2021-02-24T14:57:15Z</time>
      </trkpt>
      <trkpt lat="44.27921" lon="4.98734">
        <ele>178.2</ele>
        <time>2021-02-24T14:57:16Z</time>
      </trkpt>
      <trkpt lat="44.27926" lon="4.98739">
        <ele>178.2</ele>
        <time>2021-02-24T14:57:17Z</time>
      </trkpt>
      <trkpt lat="44.27932" lon="4.98744">
        <ele>178.2</ele>
        <time>2021-02-24T14:57:18Z</time>
      </trkpt>
      <trkpt lat="44.27937" lon="4.98748">
        <ele>178.2</ele>
        <time>2021-02-24T14:57:19Z</time>
      </trkpt>
      <trkpt lat="44.27941" lon="4.98755">
        <ele>178.2</ele>
        <time>2021-02-24T14:57:20Z</time>
      </trkpt>
      <trkpt lat="44.27941" lon="4.98755">
        <ele>178.2</ele>
        <time>2021-02-24T14:57:21Z</time>
      </trkpt>
      <trkpt lat="44.27952" lon="4.98774">
        <ele>178.1</ele>
        <time>2021-02-24T14:57:22Z</time>
      </trkpt>
      <trkpt lat="44.27953" lon="4.98778">
        <ele>178.1</ele>
        <time>2021-02-24T14:57:23Z</time>
      </trkpt>
      <trkpt lat="44.27959" lon="4.9879">
        <ele>178</ele>
        <time>2021-02-24T14:57:24Z</time>
      </trkpt>
      <trkpt lat="44.27961" lon="4.98794">
        <ele>178</ele>
        <time>2021-02-24T14:57:25Z</time>
      </trkpt>
      <trkpt lat="44.27964" lon="4.98803">
        <ele>177.9</ele>
        <time>2021-02-24T14:57:26Z</time>
      </trkpt>
      <trkpt lat="44.2797" lon="4.98816">
        <ele>177.9</ele>
        <time>2021-02-24T14:57:27Z</time>
      </trkpt>
      <trkpt lat="44.27972" lon="4.9882">
        <ele>177.9</ele>
        <time>2021-02-24T14:57:28Z</time>
      </trkpt>
      <trkpt lat="44.27975" lon="4.98829">
        <ele>177.9</ele>
        <time>2021-02-24T14:57:29Z</time>
      </trkpt>
      <trkpt lat="44.27979" lon="4.98838">
        <ele>177.9</ele>
        <time>2021-02-24T14:57:30Z</time>
      </trkpt>
      <trkpt lat="44.27982" lon="4.98847">
        <ele>177.9</ele>
        <time>2021-02-24T14:57:31Z</time>
      </trkpt>
      <trkpt lat="44.27985" lon="4.98857">
        <ele>177.9</ele>
        <time>2021-02-24T14:57:32Z</time>
      </trkpt>
      <trkpt lat="44.27988" lon="4.98866">
        <ele>177.9</ele>
        <time>2021-02-24T14:57:33Z</time>
      </trkpt>
      <trkpt lat="44.2799" lon="4.98876">
        <ele>178</ele>
        <time>2021-02-24T14:57:34Z</time>
      </trkpt>
      <trkpt lat="44.27992" lon="4.98886">
        <ele>178</ele>
        <time>2021-02-24T14:57:35Z</time>
      </trkpt>
      <trkpt lat="44.27993" lon="4.98895">
        <ele>178.1</ele>
        <time>2021-02-24T14:57:36Z</time>
      </trkpt>
      <trkpt lat="44.27995" lon="4.98905">
        <ele>178.1</ele>
        <time>2021-02-24T14:57:37Z</time>
      </trkpt>
      <trkpt lat="44.27997" lon="4.98914">
        <ele>178.1</ele>
        <time>2021-02-24T14:57:38Z</time>
      </trkpt>
      <trkpt lat="44.27998" lon="4.98924">
        <ele>178.1</ele>
        <time>2021-02-24T14:57:39Z</time>
      </trkpt>
      <trkpt lat="44.28001" lon="4.98938">
        <ele>178.2</ele>
        <time>2021-02-24T14:57:40Z</time>
      </trkpt>
      <trkpt lat="44.28002" lon="4.98942">
        <ele>178.2</ele>
        <time>2021-02-24T14:57:41Z</time>
      </trkpt>
      <trkpt lat="44.28003" lon="4.98952">
        <ele>178.2</ele>
        <time>2021-02-24T14:57:42Z</time>
      </trkpt>
      <trkpt lat="44.28005" lon="4.98961">
        <ele>178.3</ele>
        <time>2021-02-24T14:57:43Z</time>
      </trkpt>
      <trkpt lat="44.28008" lon="4.9898">
        <ele>178.3</ele>
        <time>2021-02-24T14:57:44Z</time>
      </trkpt>
      <trkpt lat="44.28008" lon="4.9898">
        <ele>178.3</ele>
        <time>2021-02-24T14:57:45Z</time>
      </trkpt>
      <trkpt lat="44.2801" lon="4.98993">
        <ele>178.4</ele>
        <time>2021-02-24T14:57:46Z</time>
      </trkpt>
      <trkpt lat="44.2801" lon="4.98998">
        <ele>178.4</ele>
        <time>2021-02-24T14:57:47Z</time>
      </trkpt>
      <trkpt lat="44.28012" lon="4.99007">
        <ele>178.4</ele>
        <time>2021-02-24T14:57:48Z</time>
      </trkpt>
      <trkpt lat="44.28013" lon="4.99016">
        <ele>178.4</ele>
        <time>2021-02-24T14:57:49Z</time>
      </trkpt>
      <trkpt lat="44.28014" lon="4.99025">
        <ele>178.4</ele>
        <time>2021-02-24T14:57:50Z</time>
      </trkpt>
      <trkpt lat="44.28016" lon="4.99034">
        <ele>178.4</ele>
        <time>2021-02-24T14:57:51Z</time>
      </trkpt>
      <trkpt lat="44.28017" lon="4.99043">
        <ele>178.4</ele>
        <time>2021-02-24T14:57:52Z</time>
      </trkpt>
      <trkpt lat="44.28019" lon="4.99052">
        <ele>178.4</ele>
        <time>2021-02-24T14:57:53Z</time>
      </trkpt>
      <trkpt lat="44.2802" lon="4.99061">
        <ele>178.4</ele>
        <time>2021-02-24T14:57:54Z</time>
      </trkpt>
      <trkpt lat="44.28022" lon="4.99073">
        <ele>178.4</ele>
        <time>2021-02-24T14:57:55Z</time>
      </trkpt>
      <trkpt lat="44.28023" lon="4.99077">
        <ele>178.4</ele>
        <time>2021-02-24T14:57:56Z</time>
      </trkpt>
      <trkpt lat="44.28024" lon="4.99085">
        <ele>178.4</ele>
        <time>2021-02-24T14:57:57Z</time>
      </trkpt>
      <trkpt lat="44.28026" lon="4.99093">
        <ele>178.4</ele>
        <time>2021-02-24T14:57:58Z</time>
      </trkpt>
      <trkpt lat="44.28027" lon="4.991">
        <ele>178.4</ele>
        <time>2021-02-24T14:57:59Z</time>
      </trkpt>
      <trkpt lat="44.28029" lon="4.99108">
        <ele>178.4</ele>
        <time>2021-02-24T14:58:00Z</time>
      </trkpt>
      <trkpt lat="44.28031" lon="4.99115">
        <ele>178.3</ele>
        <time>2021-02-24T14:58:01Z</time>
      </trkpt>
      <trkpt lat="44.28033" lon="4.99121">
        <ele>178.3</ele>
        <time>2021-02-24T14:58:02Z</time>
      </trkpt>
      <trkpt lat="44.28036" lon="4.99128">
        <ele>178.3</ele>
        <time>2021-02-24T14:58:03Z</time>
      </trkpt>
      <trkpt lat="44.28039" lon="4.99135">
        <ele>178.3</ele>
        <time>2021-02-24T14:58:04Z</time>
      </trkpt>
      <trkpt lat="44.28042" lon="4.99141">
        <ele>178.3</ele>
        <time>2021-02-24T14:58:05Z</time>
      </trkpt>
      <trkpt lat="44.28045" lon="4.99147">
        <ele>178.2</ele>
        <time>2021-02-24T14:58:06Z</time>
      </trkpt>
      <trkpt lat="44.28049" lon="4.99153">
        <ele>178.2</ele>
        <time>2021-02-24T14:58:07Z</time>
      </trkpt>
      <trkpt lat="44.28052" lon="4.99159">
        <ele>178.2</ele>
        <time>2021-02-24T14:58:08Z</time>
      </trkpt>
      <trkpt lat="44.28056" lon="4.99164">
        <ele>178.2</ele>
        <time>2021-02-24T14:58:09Z</time>
      </trkpt>
      <trkpt lat="44.28059" lon="4.99169">
        <ele>178.2</ele>
        <time>2021-02-24T14:58:10Z</time>
      </trkpt>
      <trkpt lat="44.28062" lon="4.99175">
        <ele>178.3</ele>
        <time>2021-02-24T14:58:11Z</time>
      </trkpt>
      <trkpt lat="44.28065" lon="4.99181">
        <ele>178.3</ele>
        <time>2021-02-24T14:58:12Z</time>
      </trkpt>
      <trkpt lat="44.28068" lon="4.99187">
        <ele>178.4</ele>
        <time>2021-02-24T14:58:13Z</time>
      </trkpt>
      <trkpt lat="44.2807" lon="4.99193">
        <ele>178.5</ele>
        <time>2021-02-24T14:58:14Z</time>
      </trkpt>
      <trkpt lat="44.28073" lon="4.99199">
        <ele>178.6</ele>
        <time>2021-02-24T14:58:15Z</time>
      </trkpt>
      <trkpt lat="44.28076" lon="4.99204">
        <ele>178.7</ele>
        <time>2021-02-24T14:58:16Z</time>
      </trkpt>
      <trkpt lat="44.28079" lon="4.99208">
        <ele>178.8</ele>
        <time>2021-02-24T14:58:17Z</time>
      </trkpt>
      <trkpt lat="44.28083" lon="4.99212">
        <ele>178.8</ele>
        <time>2021-02-24T14:58:18Z</time>
      </trkpt>
      <trkpt lat="44.28086" lon="4.99217">
        <ele>178.8</ele>
        <time>2021-02-24T14:58:19Z</time>
      </trkpt>
      <trkpt lat="44.28089" lon="4.99223">
        <ele>178.7</ele>
        <time>2021-02-24T14:58:20Z</time>
      </trkpt>
      <trkpt lat="44.28092" lon="4.99229">
        <ele>178.7</ele>
        <time>2021-02-24T14:58:21Z</time>
      </trkpt>
      <trkpt lat="44.28093" lon="4.99236">
        <ele>178.6</ele>
        <time>2021-02-24T14:58:22Z</time>
      </trkpt>
      <trkpt lat="44.28095" lon="4.99243">
        <ele>178.5</ele>
        <time>2021-02-24T14:58:23Z</time>
      </trkpt>
      <trkpt lat="44.28096" lon="4.99251">
        <ele>178.5</ele>
        <time>2021-02-24T14:58:24Z</time>
      </trkpt>
      <trkpt lat="44.28097" lon="4.99258">
        <ele>178.5</ele>
        <time>2021-02-24T14:58:25Z</time>
      </trkpt>
      <trkpt lat="44.28099" lon="4.99265">
        <ele>178.5</ele>
        <time>2021-02-24T14:58:26Z</time>
      </trkpt>
      <trkpt lat="44.28101" lon="4.99272">
        <ele>178.6</ele>
        <time>2021-02-24T14:58:27Z</time>
      </trkpt>
      <trkpt lat="44.28103" lon="4.99279">
        <ele>178.6</ele>
        <time>2021-02-24T14:58:28Z</time>
      </trkpt>
      <trkpt lat="44.28106" lon="4.99285">
        <ele>178.7</ele>
        <time>2021-02-24T14:58:29Z</time>
      </trkpt>
      <trkpt lat="44.28108" lon="4.99292">
        <ele>178.7</ele>
        <time>2021-02-24T14:58:30Z</time>
      </trkpt>
      <trkpt lat="44.28111" lon="4.99298">
        <ele>178.8</ele>
        <time>2021-02-24T14:58:31Z</time>
      </trkpt>
      <trkpt lat="44.28115" lon="4.99308">
        <ele>178.9</ele>
        <time>2021-02-24T14:58:32Z</time>
      </trkpt>
      <trkpt lat="44.28116" lon="4.99311">
        <ele>178.9</ele>
        <time>2021-02-24T14:58:33Z</time>
      </trkpt>
      <trkpt lat="44.28119" lon="4.99318">
        <ele>179</ele>
        <time>2021-02-24T14:58:34Z</time>
      </trkpt>
      <trkpt lat="44.28122" lon="4.99324">
        <ele>179</ele>
        <time>2021-02-24T14:58:35Z</time>
      </trkpt>
      <trkpt lat="44.28125" lon="4.99331">
        <ele>179.1</ele>
        <time>2021-02-24T14:58:36Z</time>
      </trkpt>
      <trkpt lat="44.28128" lon="4.99337">
        <ele>179.1</ele>
        <time>2021-02-24T14:58:37Z</time>
      </trkpt>
      <trkpt lat="44.2813" lon="4.99344">
        <ele>179.2</ele>
        <time>2021-02-24T14:58:38Z</time>
      </trkpt>
      <trkpt lat="44.28133" lon="4.9935">
        <ele>179.2</ele>
        <time>2021-02-24T14:58:39Z</time>
      </trkpt>
      <trkpt lat="44.28136" lon="4.99356">
        <ele>179.2</ele>
        <time>2021-02-24T14:58:40Z</time>
      </trkpt>
      <trkpt lat="44.28138" lon="4.99363">
        <ele>179.3</ele>
        <time>2021-02-24T14:58:41Z</time>
      </trkpt>
      <trkpt lat="44.28141" lon="4.99369">
        <ele>179.3</ele>
        <time>2021-02-24T14:58:42Z</time>
      </trkpt>
      <trkpt lat="44.28143" lon="4.99374">
        <ele>179.4</ele>
        <time>2021-02-24T14:58:43Z</time>
      </trkpt>
      <trkpt lat="44.28145" lon="4.9938">
        <ele>179.4</ele>
        <time>2021-02-24T14:58:44Z</time>
      </trkpt>
      <trkpt lat="44.28148" lon="4.99386">
        <ele>179.5</ele>
        <time>2021-02-24T14:58:45Z</time>
      </trkpt>
      <trkpt lat="44.2815" lon="4.99391">
        <ele>179.5</ele>
        <time>2021-02-24T14:58:46Z</time>
      </trkpt>
      <trkpt lat="44.28152" lon="4.99396">
        <ele>179.6</ele>
        <time>2021-02-24T14:58:47Z</time>
      </trkpt>
      <trkpt lat="44.28153" lon="4.99402">
        <ele>179.7</ele>
        <time>2021-02-24T14:58:48Z</time>
      </trkpt>
      <trkpt lat="44.28155" lon="4.99407">
        <ele>179.7</ele>
        <time>2021-02-24T14:58:49Z</time>
      </trkpt>
      <trkpt lat="44.28157" lon="4.99413">
        <ele>179.8</ele>
        <time>2021-02-24T14:58:50Z</time>
      </trkpt>
      <trkpt lat="44.28158" lon="4.99419">
        <ele>179.8</ele>
        <time>2021-02-24T14:58:51Z</time>
      </trkpt>
      <trkpt lat="44.2816" lon="4.99425">
        <ele>179.8</ele>
        <time>2021-02-24T14:58:52Z</time>
      </trkpt>
      <trkpt lat="44.28161" lon="4.9943">
        <ele>179.9</ele>
        <time>2021-02-24T14:58:53Z</time>
      </trkpt>
      <trkpt lat="44.28163" lon="4.99436">
        <ele>179.9</ele>
        <time>2021-02-24T14:58:54Z</time>
      </trkpt>
      <trkpt lat="44.28164" lon="4.99442">
        <ele>179.9</ele>
        <time>2021-02-24T14:58:55Z</time>
      </trkpt>
      <trkpt lat="44.28165" lon="4.99448">
        <ele>180</ele>
        <time>2021-02-24T14:58:56Z</time>
      </trkpt>
      <trkpt lat="44.28167" lon="4.99453">
        <ele>180</ele>
        <time>2021-02-24T14:58:57Z</time>
      </trkpt>
      <trkpt lat="44.28168" lon="4.99459">
        <ele>180</ele>
        <time>2021-02-24T14:58:58Z</time>
      </trkpt>
      <trkpt lat="44.28169" lon="4.99465">
        <ele>180.1</ele>
        <time>2021-02-24T14:58:59Z</time>
      </trkpt>
      <trkpt lat="44.28171" lon="4.9947">
        <ele>180.1</ele>
        <time>2021-02-24T14:59:00Z</time>
      </trkpt>
      <trkpt lat="44.28173" lon="4.99478">
        <ele>180.1</ele>
        <time>2021-02-24T14:59:01Z</time>
      </trkpt>
      <trkpt lat="44.28173" lon="4.99481">
        <ele>180.1</ele>
        <time>2021-02-24T14:59:02Z</time>
      </trkpt>
      <trkpt lat="44.28174" lon="4.99487">
        <ele>180.1</ele>
        <time>2021-02-24T14:59:03Z</time>
      </trkpt>
      <trkpt lat="44.28176" lon="4.99493">
        <ele>180</ele>
        <time>2021-02-24T14:59:04Z</time>
      </trkpt>
      <trkpt lat="44.28177" lon="4.99499">
        <ele>180</ele>
        <time>2021-02-24T14:59:05Z</time>
      </trkpt>
      <trkpt lat="44.28178" lon="4.99504">
        <ele>179.9</ele>
        <time>2021-02-24T14:59:06Z</time>
      </trkpt>
      <trkpt lat="44.2818" lon="4.9951">
        <ele>179.8</ele>
        <time>2021-02-24T14:59:07Z</time>
      </trkpt>
      <trkpt lat="44.28181" lon="4.99516">
        <ele>179.7</ele>
        <time>2021-02-24T14:59:08Z</time>
      </trkpt>
      <trkpt lat="44.28183" lon="4.99523">
        <ele>179.6</ele>
        <time>2021-02-24T14:59:09Z</time>
      </trkpt>
      <trkpt lat="44.28184" lon="4.99529">
        <ele>179.5</ele>
        <time>2021-02-24T14:59:10Z</time>
      </trkpt>
      <trkpt lat="44.28185" lon="4.99537">
        <ele>179.4</ele>
        <time>2021-02-24T14:59:11Z</time>
      </trkpt>
      <trkpt lat="44.28187" lon="4.99544">
        <ele>179.2</ele>
        <time>2021-02-24T14:59:12Z</time>
      </trkpt>
      <trkpt lat="44.28188" lon="4.99551">
        <ele>179.1</ele>
        <time>2021-02-24T14:59:13Z</time>
      </trkpt>
      <trkpt lat="44.2819" lon="4.99559">
        <ele>178.9</ele>
        <time>2021-02-24T14:59:14Z</time>
      </trkpt>
      <trkpt lat="44.28191" lon="4.99567">
        <ele>178.8</ele>
        <time>2021-02-24T14:59:15Z</time>
      </trkpt>
      <trkpt lat="44.28192" lon="4.99575">
        <ele>178.7</ele>
        <time>2021-02-24T14:59:16Z</time>
      </trkpt>
      <trkpt lat="44.28193" lon="4.99583">
        <ele>178.7</ele>
        <time>2021-02-24T14:59:17Z</time>
      </trkpt>
      <trkpt lat="44.28195" lon="4.9959">
        <ele>178.7</ele>
        <time>2021-02-24T14:59:18Z</time>
      </trkpt>
      <trkpt lat="44.28196" lon="4.99598">
        <ele>178.7</ele>
        <time>2021-02-24T14:59:19Z</time>
      </trkpt>
      <trkpt lat="44.28197" lon="4.99609">
        <ele>178.7</ele>
        <time>2021-02-24T14:59:20Z</time>
      </trkpt>
      <trkpt lat="44.28198" lon="4.99612">
        <ele>178.7</ele>
        <time>2021-02-24T14:59:21Z</time>
      </trkpt>
      <trkpt lat="44.28199" lon="4.9962">
        <ele>178.8</ele>
        <time>2021-02-24T14:59:22Z</time>
      </trkpt>
      <trkpt lat="44.28201" lon="4.99627">
        <ele>178.9</ele>
        <time>2021-02-24T14:59:23Z</time>
      </trkpt>
      <trkpt lat="44.28202" lon="4.99634">
        <ele>179</ele>
        <time>2021-02-24T14:59:24Z</time>
      </trkpt>
      <trkpt lat="44.28204" lon="4.99641">
        <ele>179.1</ele>
        <time>2021-02-24T14:59:25Z</time>
      </trkpt>
      <trkpt lat="44.28205" lon="4.99647">
        <ele>179.2</ele>
        <time>2021-02-24T14:59:26Z</time>
      </trkpt>
      <trkpt lat="44.28207" lon="4.99654">
        <ele>179.4</ele>
        <time>2021-02-24T14:59:27Z</time>
      </trkpt>
      <trkpt lat="44.28208" lon="4.9966">
        <ele>179.5</ele>
        <time>2021-02-24T14:59:28Z</time>
      </trkpt>
      <trkpt lat="44.28209" lon="4.99666">
        <ele>179.7</ele>
        <time>2021-02-24T14:59:29Z</time>
      </trkpt>
      <trkpt lat="44.28211" lon="4.99673">
        <ele>179.8</ele>
        <time>2021-02-24T14:59:30Z</time>
      </trkpt>
      <trkpt lat="44.28212" lon="4.99679">
        <ele>180</ele>
        <time>2021-02-24T14:59:31Z</time>
      </trkpt>
      <trkpt lat="44.28213" lon="4.99686">
        <ele>180.2</ele>
        <time>2021-02-24T14:59:32Z</time>
      </trkpt>
      <trkpt lat="44.28213" lon="4.99692">
        <ele>180.4</ele>
        <time>2021-02-24T14:59:33Z</time>
      </trkpt>
      <trkpt lat="44.28214" lon="4.99698">
        <ele>180.5</ele>
        <time>2021-02-24T14:59:34Z</time>
      </trkpt>
      <trkpt lat="44.28215" lon="4.99704">
        <ele>180.7</ele>
        <time>2021-02-24T14:59:35Z</time>
      </trkpt>
      <trkpt lat="44.28215" lon="4.99711">
        <ele>180.9</ele>
        <time>2021-02-24T14:59:36Z</time>
      </trkpt>
      <trkpt lat="44.28215" lon="4.99717">
        <ele>181.1</ele>
        <time>2021-02-24T14:59:37Z</time>
      </trkpt>
      <trkpt lat="44.28215" lon="4.99729">
        <ele>181.5</ele>
        <time>2021-02-24T14:59:38Z</time>
      </trkpt>
      <trkpt lat="44.28215" lon="4.99729">
        <ele>181.5</ele>
        <time>2021-02-24T14:59:39Z</time>
      </trkpt>
      <trkpt lat="44.28215" lon="4.99735">
        <ele>181.7</ele>
        <time>2021-02-24T14:59:40Z</time>
      </trkpt>
      <trkpt lat="44.28215" lon="4.9974">
        <ele>182</ele>
        <time>2021-02-24T14:59:41Z</time>
      </trkpt>
      <trkpt lat="44.28215" lon="4.99747">
        <ele>182.2</ele>
        <time>2021-02-24T14:59:42Z</time>
      </trkpt>
      <trkpt lat="44.28216" lon="4.99753">
        <ele>182.4</ele>
        <time>2021-02-24T14:59:43Z</time>
      </trkpt>
      <trkpt lat="44.28216" lon="4.99759">
        <ele>182.6</ele>
        <time>2021-02-24T14:59:44Z</time>
      </trkpt>
      <trkpt lat="44.28216" lon="4.99765">
        <ele>182.8</ele>
        <time>2021-02-24T14:59:45Z</time>
      </trkpt>
      <trkpt lat="44.28217" lon="4.99771">
        <ele>183</ele>
        <time>2021-02-24T14:59:46Z</time>
      </trkpt>
      <trkpt lat="44.28217" lon="4.99777">
        <ele>183.3</ele>
        <time>2021-02-24T14:59:47Z</time>
      </trkpt>
      <trkpt lat="44.28217" lon="4.99783">
        <ele>183.5</ele>
        <time>2021-02-24T14:59:48Z</time>
      </trkpt>
      <trkpt lat="44.28218" lon="4.99789">
        <ele>183.7</ele>
        <time>2021-02-24T14:59:49Z</time>
      </trkpt>
      <trkpt lat="44.28218" lon="4.99795">
        <ele>183.9</ele>
        <time>2021-02-24T14:59:50Z</time>
      </trkpt>
      <trkpt lat="44.28219" lon="4.99801">
        <ele>183.9</ele>
        <time>2021-02-24T14:59:51Z</time>
      </trkpt>
      <trkpt lat="44.28219" lon="4.99807">
        <ele>184</ele>
        <time>2021-02-24T14:59:52Z</time>
      </trkpt>
      <trkpt lat="44.2822" lon="4.99814">
        <ele>184.1</ele>
        <time>2021-02-24T14:59:53Z</time>
      </trkpt>
      <trkpt lat="44.28221" lon="4.9982">
        <ele>184.2</ele>
        <time>2021-02-24T14:59:54Z</time>
      </trkpt>
      <trkpt lat="44.28221" lon="4.99826">
        <ele>184.2</ele>
        <time>2021-02-24T14:59:55Z</time>
      </trkpt>
      <trkpt lat="44.28222" lon="4.99833">
        <ele>184.3</ele>
        <time>2021-02-24T14:59:56Z</time>
      </trkpt>
      <trkpt lat="44.28223" lon="4.9984">
        <ele>184.3</ele>
        <time>2021-02-24T14:59:57Z</time>
      </trkpt>
      <trkpt lat="44.28225" lon="4.9985">
        <ele>184.3</ele>
        <time>2021-02-24T14:59:58Z</time>
      </trkpt>
      <trkpt lat="44.28225" lon="4.99854">
        <ele>184.4</ele>
        <time>2021-02-24T14:59:59Z</time>
      </trkpt>
      <trkpt lat="44.28226" lon="4.99861">
        <ele>184.4</ele>
        <time>2021-02-24T15:00:00Z</time>
      </trkpt>
      <trkpt lat="44.28227" lon="4.99869">
        <ele>184.4</ele>
        <time>2021-02-24T15:00:01Z</time>
      </trkpt>
      <trkpt lat="44.28228" lon="4.99876">
        <ele>184.5</ele>
        <time>2021-02-24T15:00:02Z</time>
      </trkpt>
      <trkpt lat="44.28229" lon="4.99883">
        <ele>184.5</ele>
        <time>2021-02-24T15:00:03Z</time>
      </trkpt>
      <trkpt lat="44.2823" lon="4.9989">
        <ele>184.6</ele>
        <time>2021-02-24T15:00:04Z</time>
      </trkpt>
      <trkpt lat="44.28231" lon="4.99897">
        <ele>184.7</ele>
        <time>2021-02-24T15:00:05Z</time>
      </trkpt>
      <trkpt lat="44.28232" lon="4.99905">
        <ele>184.7</ele>
        <time>2021-02-24T15:00:06Z</time>
      </trkpt>
      <trkpt lat="44.28233" lon="4.99912">
        <ele>184.8</ele>
        <time>2021-02-24T15:00:07Z</time>
      </trkpt>
      <trkpt lat="44.28234" lon="4.99919">
        <ele>184.9</ele>
        <time>2021-02-24T15:00:08Z</time>
      </trkpt>
      <trkpt lat="44.28235" lon="4.99926">
        <ele>184.9</ele>
        <time>2021-02-24T15:00:09Z</time>
      </trkpt>
      <trkpt lat="44.28236" lon="4.99933">
        <ele>185</ele>
        <time>2021-02-24T15:00:10Z</time>
      </trkpt>
      <trkpt lat="44.28237" lon="4.9994">
        <ele>185.1</ele>
        <time>2021-02-24T15:00:11Z</time>
      </trkpt>
      <trkpt lat="44.28238" lon="4.99948">
        <ele>185.1</ele>
        <time>2021-02-24T15:00:12Z</time>
      </trkpt>
      <trkpt lat="44.28239" lon="4.99955">
        <ele>185.2</ele>
        <time>2021-02-24T15:00:13Z</time>
      </trkpt>
      <trkpt lat="44.2824" lon="4.99963">
        <ele>185.2</ele>
        <time>2021-02-24T15:00:14Z</time>
      </trkpt>
      <trkpt lat="44.28241" lon="4.99978">
        <ele>185.4</ele>
        <time>2021-02-24T15:00:15Z</time>
      </trkpt>
      <trkpt lat="44.28242" lon="4.99985">
        <ele>185.4</ele>
        <time>2021-02-24T15:00:16Z</time>
      </trkpt>
      <trkpt lat="44.28242" lon="4.99985">
        <ele>185.4</ele>
        <time>2021-02-24T15:00:17Z</time>
      </trkpt>
      <trkpt lat="44.28243" lon="4.99992">
        <ele>185.5</ele>
        <time>2021-02-24T15:00:18Z</time>
      </trkpt>
      <trkpt lat="44.28245" lon="5">
        <ele>185.6</ele>
        <time>2021-02-24T15:00:19Z</time>
      </trkpt>
      <trkpt lat="44.28246" lon="5.00015">
        <ele>185.7</ele>
        <time>2021-02-24T15:00:20Z</time>
      </trkpt>
      <trkpt lat="44.28246" lon="5.00015">
        <ele>185.7</ele>
        <time>2021-02-24T15:00:21Z</time>
      </trkpt>
      <trkpt lat="44.28247" lon="5.00022">
        <ele>185.8</ele>
        <time>2021-02-24T15:00:22Z</time>
      </trkpt>
      <trkpt lat="44.28248" lon="5.00029">
        <ele>185.9</ele>
        <time>2021-02-24T15:00:23Z</time>
      </trkpt>
      <trkpt lat="44.28249" lon="5.00036">
        <ele>186</ele>
        <time>2021-02-24T15:00:24Z</time>
      </trkpt>
      <trkpt lat="44.28249" lon="5.00043">
        <ele>186.1</ele>
        <time>2021-02-24T15:00:25Z</time>
      </trkpt>
      <trkpt lat="44.2825" lon="5.00049">
        <ele>186.2</ele>
        <time>2021-02-24T15:00:26Z</time>
      </trkpt>
      <trkpt lat="44.28251" lon="5.00056">
        <ele>186.3</ele>
        <time>2021-02-24T15:00:27Z</time>
      </trkpt>
      <trkpt lat="44.28252" lon="5.00063">
        <ele>186.4</ele>
        <time>2021-02-24T15:00:28Z</time>
      </trkpt>
      <trkpt lat="44.28253" lon="5.0007">
        <ele>186.5</ele>
        <time>2021-02-24T15:00:29Z</time>
      </trkpt>
      <trkpt lat="44.28254" lon="5.00076">
        <ele>186.6</ele>
        <time>2021-02-24T15:00:30Z</time>
      </trkpt>
      <trkpt lat="44.28255" lon="5.00083">
        <ele>186.6</ele>
        <time>2021-02-24T15:00:31Z</time>
      </trkpt>
      <trkpt lat="44.28256" lon="5.0009">
        <ele>186.7</ele>
        <time>2021-02-24T15:00:32Z</time>
      </trkpt>
      <trkpt lat="44.28257" lon="5.00096">
        <ele>186.7</ele>
        <time>2021-02-24T15:00:33Z</time>
      </trkpt>
      <trkpt lat="44.28258" lon="5.00103">
        <ele>186.8</ele>
        <time>2021-02-24T15:00:34Z</time>
      </trkpt>
      <trkpt lat="44.28259" lon="5.00109">
        <ele>186.9</ele>
        <time>2021-02-24T15:00:35Z</time>
      </trkpt>
      <trkpt lat="44.28261" lon="5.00119">
        <ele>186.9</ele>
        <time>2021-02-24T15:00:36Z</time>
      </trkpt>
      <trkpt lat="44.28262" lon="5.00122">
        <ele>187</ele>
        <time>2021-02-24T15:00:37Z</time>
      </trkpt>
      <trkpt lat="44.28263" lon="5.00128">
        <ele>187</ele>
        <time>2021-02-24T15:00:38Z</time>
      </trkpt>
      <trkpt lat="44.28265" lon="5.00134">
        <ele>187.1</ele>
        <time>2021-02-24T15:00:39Z</time>
      </trkpt>
      <trkpt lat="44.28267" lon="5.00141">
        <ele>187.2</ele>
        <time>2021-02-24T15:00:40Z</time>
      </trkpt>
      <trkpt lat="44.28269" lon="5.00146">
        <ele>187.2</ele>
        <time>2021-02-24T15:00:41Z</time>
      </trkpt>
      <trkpt lat="44.28271" lon="5.00152">
        <ele>187.3</ele>
        <time>2021-02-24T15:00:42Z</time>
      </trkpt>
      <trkpt lat="44.28273" lon="5.00158">
        <ele>187.3</ele>
        <time>2021-02-24T15:00:43Z</time>
      </trkpt>
      <trkpt lat="44.28275" lon="5.00164">
        <ele>187.4</ele>
        <time>2021-02-24T15:00:44Z</time>
      </trkpt>
      <trkpt lat="44.28277" lon="5.0017">
        <ele>187.4</ele>
        <time>2021-02-24T15:00:45Z</time>
      </trkpt>
      <trkpt lat="44.28279" lon="5.00175">
        <ele>187.4</ele>
        <time>2021-02-24T15:00:46Z</time>
      </trkpt>
      <trkpt lat="44.2828" lon="5.00182">
        <ele>187.5</ele>
        <time>2021-02-24T15:00:47Z</time>
      </trkpt>
      <trkpt lat="44.28282" lon="5.00188">
        <ele>187.5</ele>
        <time>2021-02-24T15:00:48Z</time>
      </trkpt>
      <trkpt lat="44.28283" lon="5.00195">
        <ele>187.6</ele>
        <time>2021-02-24T15:00:49Z</time>
      </trkpt>
      <trkpt lat="44.28284" lon="5.00202">
        <ele>187.6</ele>
        <time>2021-02-24T15:00:50Z</time>
      </trkpt>
      <trkpt lat="44.28285" lon="5.00209">
        <ele>187.7</ele>
        <time>2021-02-24T15:00:51Z</time>
      </trkpt>
      <trkpt lat="44.28286" lon="5.00216">
        <ele>187.7</ele>
        <time>2021-02-24T15:00:52Z</time>
      </trkpt>
      <trkpt lat="44.28287" lon="5.00223">
        <ele>187.8</ele>
        <time>2021-02-24T15:00:53Z</time>
      </trkpt>
      <trkpt lat="44.28289" lon="5.00237">
        <ele>188</ele>
        <time>2021-02-24T15:00:54Z</time>
      </trkpt>
      <trkpt lat="44.28289" lon="5.00237">
        <ele>188</ele>
        <time>2021-02-24T15:00:55Z</time>
      </trkpt>
      <trkpt lat="44.2829" lon="5.00244">
        <ele>188.1</ele>
        <time>2021-02-24T15:00:56Z</time>
      </trkpt>
      <trkpt lat="44.28291" lon="5.00251">
        <ele>188.1</ele>
        <time>2021-02-24T15:00:57Z</time>
      </trkpt>
      <trkpt lat="44.28293" lon="5.00257">
        <ele>188.2</ele>
        <time>2021-02-24T15:00:58Z</time>
      </trkpt>
      <trkpt lat="44.28294" lon="5.00264">
        <ele>188.2</ele>
        <time>2021-02-24T15:00:59Z</time>
      </trkpt>
      <trkpt lat="44.28296" lon="5.0027">
        <ele>188.2</ele>
        <time>2021-02-24T15:01:00Z</time>
      </trkpt>
      <trkpt lat="44.28298" lon="5.00277">
        <ele>188.3</ele>
        <time>2021-02-24T15:01:01Z</time>
      </trkpt>
      <trkpt lat="44.28301" lon="5.00284">
        <ele>188.3</ele>
        <time>2021-02-24T15:01:02Z</time>
      </trkpt>
      <trkpt lat="44.28302" lon="5.00287">
        <ele>188.3</ele>
        <time>2021-02-24T15:01:03Z</time>
      </trkpt>
      <trkpt lat="44.28303" lon="5.00291">
        <ele>188.3</ele>
        <time>2021-02-24T15:01:04Z</time>
      </trkpt>
      <trkpt lat="44.28307" lon="5.00305">
        <ele>188.4</ele>
        <time>2021-02-24T15:01:05Z</time>
      </trkpt>
      <trkpt lat="44.2831" lon="5.00311">
        <ele>188.4</ele>
        <time>2021-02-24T15:01:06Z</time>
      </trkpt>
      <trkpt lat="44.28312" lon="5.00318">
        <ele>188.5</ele>
        <time>2021-02-24T15:01:07Z</time>
      </trkpt>
      <trkpt lat="44.28315" lon="5.00329">
        <ele>188.6</ele>
        <time>2021-02-24T15:01:08Z</time>
      </trkpt>
      <trkpt lat="44.28316" lon="5.00332">
        <ele>188.6</ele>
        <time>2021-02-24T15:01:09Z</time>
      </trkpt>
      <trkpt lat="44.28318" lon="5.00343">
        <ele>188.7</ele>
        <time>2021-02-24T15:01:10Z</time>
      </trkpt>
      <trkpt lat="44.28319" lon="5.00347">
        <ele>188.7</ele>
        <time>2021-02-24T15:01:11Z</time>
      </trkpt>
      <trkpt lat="44.28322" lon="5.00358">
        <ele>188.7</ele>
        <time>2021-02-24T15:01:12Z</time>
      </trkpt>
      <trkpt lat="44.28323" lon="5.00362">
        <ele>188.7</ele>
        <time>2021-02-24T15:01:13Z</time>
      </trkpt>
      <trkpt lat="44.28324" lon="5.0037">
        <ele>188.6</ele>
        <time>2021-02-24T15:01:14Z</time>
      </trkpt>
      <trkpt lat="44.28326" lon="5.00377">
        <ele>188.6</ele>
        <time>2021-02-24T15:01:15Z</time>
      </trkpt>
      <trkpt lat="44.28327" lon="5.00385">
        <ele>188.6</ele>
        <time>2021-02-24T15:01:16Z</time>
      </trkpt>
      <trkpt lat="44.28329" lon="5.00393">
        <ele>188.6</ele>
        <time>2021-02-24T15:01:17Z</time>
      </trkpt>
      <trkpt lat="44.2833" lon="5.00401">
        <ele>188.6</ele>
        <time>2021-02-24T15:01:18Z</time>
      </trkpt>
      <trkpt lat="44.28331" lon="5.00409">
        <ele>188.6</ele>
        <time>2021-02-24T15:01:19Z</time>
      </trkpt>
      <trkpt lat="44.28331" lon="5.00417">
        <ele>188.6</ele>
        <time>2021-02-24T15:01:20Z</time>
      </trkpt>
      <trkpt lat="44.28332" lon="5.00425">
        <ele>188.7</ele>
        <time>2021-02-24T15:01:21Z</time>
      </trkpt>
      <trkpt lat="44.28333" lon="5.00433">
        <ele>188.7</ele>
        <time>2021-02-24T15:01:22Z</time>
      </trkpt>
      <trkpt lat="44.28334" lon="5.00445">
        <ele>188.7</ele>
        <time>2021-02-24T15:01:23Z</time>
      </trkpt>
      <trkpt lat="44.28335" lon="5.00449">
        <ele>188.7</ele>
        <time>2021-02-24T15:01:24Z</time>
      </trkpt>
      <trkpt lat="44.28336" lon="5.00457">
        <ele>188.7</ele>
        <time>2021-02-24T15:01:25Z</time>
      </trkpt>
      <trkpt lat="44.28337" lon="5.00466">
        <ele>188.8</ele>
        <time>2021-02-24T15:01:26Z</time>
      </trkpt>
      <trkpt lat="44.28338" lon="5.00474">
        <ele>188.8</ele>
        <time>2021-02-24T15:01:27Z</time>
      </trkpt>
      <trkpt lat="44.28338" lon="5.00474">
        <ele>188.8</ele>
        <time>2021-02-24T15:01:28Z</time>
      </trkpt>
      <trkpt lat="44.2834" lon="5.00493">
        <ele>188.8</ele>
        <time>2021-02-24T15:01:29Z</time>
      </trkpt>
      <trkpt lat="44.28341" lon="5.00498">
        <ele>188.8</ele>
        <time>2021-02-24T15:01:30Z</time>
      </trkpt>
      <trkpt lat="44.28342" lon="5.00506">
        <ele>188.8</ele>
        <time>2021-02-24T15:01:31Z</time>
      </trkpt>
      <trkpt lat="44.28343" lon="5.00514">
        <ele>188.8</ele>
        <time>2021-02-24T15:01:32Z</time>
      </trkpt>
      <trkpt lat="44.28345" lon="5.00522">
        <ele>188.8</ele>
        <time>2021-02-24T15:01:33Z</time>
      </trkpt>
      <trkpt lat="44.28346" lon="5.0053">
        <ele>188.8</ele>
        <time>2021-02-24T15:01:34Z</time>
      </trkpt>
      <trkpt lat="44.28347" lon="5.00538">
        <ele>188.8</ele>
        <time>2021-02-24T15:01:35Z</time>
      </trkpt>
      <trkpt lat="44.28349" lon="5.00547">
        <ele>188.8</ele>
        <time>2021-02-24T15:01:36Z</time>
      </trkpt>
      <trkpt lat="44.28351" lon="5.00555">
        <ele>188.8</ele>
        <time>2021-02-24T15:01:37Z</time>
      </trkpt>
      <trkpt lat="44.28352" lon="5.00563">
        <ele>188.9</ele>
        <time>2021-02-24T15:01:38Z</time>
      </trkpt>
      <trkpt lat="44.28354" lon="5.00571">
        <ele>188.9</ele>
        <time>2021-02-24T15:01:39Z</time>
      </trkpt>
      <trkpt lat="44.28356" lon="5.00579">
        <ele>189</ele>
        <time>2021-02-24T15:01:40Z</time>
      </trkpt>
      <trkpt lat="44.28358" lon="5.00587">
        <ele>189</ele>
        <time>2021-02-24T15:01:41Z</time>
      </trkpt>
      <trkpt lat="44.28359" lon="5.00595">
        <ele>189.1</ele>
        <time>2021-02-24T15:01:42Z</time>
      </trkpt>
      <trkpt lat="44.28361" lon="5.00603">
        <ele>189.1</ele>
        <time>2021-02-24T15:01:43Z</time>
      </trkpt>
      <trkpt lat="44.28362" lon="5.00611">
        <ele>189.2</ele>
        <time>2021-02-24T15:01:44Z</time>
      </trkpt>
      <trkpt lat="44.28364" lon="5.00619">
        <ele>189.2</ele>
        <time>2021-02-24T15:01:45Z</time>
      </trkpt>
      <trkpt lat="44.28365" lon="5.00628">
        <ele>189.2</ele>
        <time>2021-02-24T15:01:46Z</time>
      </trkpt>
      <trkpt lat="44.28366" lon="5.00636">
        <ele>189.2</ele>
        <time>2021-02-24T15:01:47Z</time>
      </trkpt>
      <trkpt lat="44.28366" lon="5.00644">
        <ele>189.2</ele>
        <time>2021-02-24T15:01:48Z</time>
      </trkpt>
      <trkpt lat="44.28367" lon="5.00653">
        <ele>189.2</ele>
        <time>2021-02-24T15:01:49Z</time>
      </trkpt>
      <trkpt lat="44.28367" lon="5.00661">
        <ele>189.2</ele>
        <time>2021-02-24T15:01:50Z</time>
      </trkpt>
      <trkpt lat="44.28367" lon="5.00679">
        <ele>189.2</ele>
        <time>2021-02-24T15:01:51Z</time>
      </trkpt>
      <trkpt lat="44.28367" lon="5.00679">
        <ele>189.2</ele>
        <time>2021-02-24T15:01:52Z</time>
      </trkpt>
      <trkpt lat="44.28367" lon="5.00687">
        <ele>189.2</ele>
        <time>2021-02-24T15:01:53Z</time>
      </trkpt>
      <trkpt lat="44.28367" lon="5.00696">
        <ele>189.2</ele>
        <time>2021-02-24T15:01:54Z</time>
      </trkpt>
      <trkpt lat="44.28367" lon="5.00705">
        <ele>189.2</ele>
        <time>2021-02-24T15:01:55Z</time>
      </trkpt>
      <trkpt lat="44.28368" lon="5.00718">
        <ele>189.1</ele>
        <time>2021-02-24T15:01:56Z</time>
      </trkpt>
      <trkpt lat="44.28368" lon="5.00722">
        <ele>189.1</ele>
        <time>2021-02-24T15:01:57Z</time>
      </trkpt>
      <trkpt lat="44.28367" lon="5.00731">
        <ele>189.1</ele>
        <time>2021-02-24T15:01:58Z</time>
      </trkpt>
      <trkpt lat="44.28368" lon="5.00739">
        <ele>189</ele>
        <time>2021-02-24T15:01:59Z</time>
      </trkpt>
      <trkpt lat="44.28368" lon="5.00748">
        <ele>189</ele>
        <time>2021-02-24T15:02:00Z</time>
      </trkpt>
      <trkpt lat="44.28368" lon="5.00757">
        <ele>189</ele>
        <time>2021-02-24T15:02:01Z</time>
      </trkpt>
      <trkpt lat="44.28368" lon="5.00766">
        <ele>189</ele>
        <time>2021-02-24T15:02:02Z</time>
      </trkpt>
      <trkpt lat="44.28368" lon="5.00774">
        <ele>189</ele>
        <time>2021-02-24T15:02:03Z</time>
      </trkpt>
      <trkpt lat="44.28368" lon="5.00783">
        <ele>189</ele>
        <time>2021-02-24T15:02:04Z</time>
      </trkpt>
      <trkpt lat="44.28368" lon="5.00791">
        <ele>189</ele>
        <time>2021-02-24T15:02:05Z</time>
      </trkpt>
      <trkpt lat="44.28368" lon="5.008">
        <ele>189</ele>
        <time>2021-02-24T15:02:06Z</time>
      </trkpt>
      <trkpt lat="44.28368" lon="5.00809">
        <ele>189</ele>
        <time>2021-02-24T15:02:07Z</time>
      </trkpt>
      <trkpt lat="44.28367" lon="5.00817">
        <ele>189</ele>
        <time>2021-02-24T15:02:08Z</time>
      </trkpt>
      <trkpt lat="44.28367" lon="5.00826">
        <ele>189</ele>
        <time>2021-02-24T15:02:09Z</time>
      </trkpt>
      <trkpt lat="44.28367" lon="5.00843">
        <ele>189</ele>
        <time>2021-02-24T15:02:10Z</time>
      </trkpt>
      <trkpt lat="44.28367" lon="5.00843">
        <ele>189</ele>
        <time>2021-02-24T15:02:11Z</time>
      </trkpt>
      <trkpt lat="44.28368" lon="5.00851">
        <ele>189</ele>
        <time>2021-02-24T15:02:12Z</time>
      </trkpt>
      <trkpt lat="44.28368" lon="5.00863">
        <ele>188.9</ele>
        <time>2021-02-24T15:02:13Z</time>
      </trkpt>
      <trkpt lat="44.28368" lon="5.00867">
        <ele>188.9</ele>
        <time>2021-02-24T15:02:14Z</time>
      </trkpt>
      <trkpt lat="44.28368" lon="5.00875">
        <ele>188.9</ele>
        <time>2021-02-24T15:02:15Z</time>
      </trkpt>
      <trkpt lat="44.28369" lon="5.00883">
        <ele>188.9</ele>
        <time>2021-02-24T15:02:16Z</time>
      </trkpt>
      <trkpt lat="44.2837" lon="5.00891">
        <ele>188.9</ele>
        <time>2021-02-24T15:02:17Z</time>
      </trkpt>
      <trkpt lat="44.28371" lon="5.00899">
        <ele>188.8</ele>
        <time>2021-02-24T15:02:18Z</time>
      </trkpt>
      <trkpt lat="44.28372" lon="5.00908">
        <ele>188.8</ele>
        <time>2021-02-24T15:02:19Z</time>
      </trkpt>
      <trkpt lat="44.28373" lon="5.00916">
        <ele>188.8</ele>
        <time>2021-02-24T15:02:20Z</time>
      </trkpt>
      <trkpt lat="44.28374" lon="5.00925">
        <ele>188.7</ele>
        <time>2021-02-24T15:02:21Z</time>
      </trkpt>
      <trkpt lat="44.28375" lon="5.00933">
        <ele>188.7</ele>
        <time>2021-02-24T15:02:22Z</time>
      </trkpt>
      <trkpt lat="44.28376" lon="5.00942">
        <ele>188.7</ele>
        <time>2021-02-24T15:02:23Z</time>
      </trkpt>
      <trkpt lat="44.28377" lon="5.00951">
        <ele>188.6</ele>
        <time>2021-02-24T15:02:24Z</time>
      </trkpt>
      <trkpt lat="44.28377" lon="5.00958">
        <ele>188.6</ele>
        <time>2021-02-24T15:02:25Z</time>
      </trkpt>
      <trkpt lat="44.28377" lon="5.00964">
        <ele>188.6</ele>
        <time>2021-02-24T15:02:26Z</time>
      </trkpt>
      <trkpt lat="44.28378" lon="5.00978">
        <ele>188.6</ele>
        <time>2021-02-24T15:02:27Z</time>
      </trkpt>
      <trkpt lat="44.28378" lon="5.00987">
        <ele>188.6</ele>
        <time>2021-02-24T15:02:28Z</time>
      </trkpt>
      <trkpt lat="44.28378" lon="5.00996">
        <ele>188.6</ele>
        <time>2021-02-24T15:02:29Z</time>
      </trkpt>
      <trkpt lat="44.28378" lon="5.01009">
        <ele>188.6</ele>
        <time>2021-02-24T15:02:30Z</time>
      </trkpt>
      <trkpt lat="44.28378" lon="5.01014">
        <ele>188.6</ele>
        <time>2021-02-24T15:02:31Z</time>
      </trkpt>
      <trkpt lat="44.28379" lon="5.01023">
        <ele>188.5</ele>
        <time>2021-02-24T15:02:32Z</time>
      </trkpt>
      <trkpt lat="44.2838" lon="5.01032">
        <ele>188.5</ele>
        <time>2021-02-24T15:02:33Z</time>
      </trkpt>
      <trkpt lat="44.28381" lon="5.01041">
        <ele>188.5</ele>
        <time>2021-02-24T15:02:34Z</time>
      </trkpt>
      <trkpt lat="44.28382" lon="5.0105">
        <ele>188.5</ele>
        <time>2021-02-24T15:02:35Z</time>
      </trkpt>
      <trkpt lat="44.28384" lon="5.01059">
        <ele>188.5</ele>
        <time>2021-02-24T15:02:36Z</time>
      </trkpt>
      <trkpt lat="44.28387" lon="5.01068">
        <ele>188.5</ele>
        <time>2021-02-24T15:02:37Z</time>
      </trkpt>
      <trkpt lat="44.28389" lon="5.01076">
        <ele>188.5</ele>
        <time>2021-02-24T15:02:38Z</time>
      </trkpt>
      <trkpt lat="44.28392" lon="5.01083">
        <ele>188.5</ele>
        <time>2021-02-24T15:02:39Z</time>
      </trkpt>
      <trkpt lat="44.28396" lon="5.01091">
        <ele>188.5</ele>
        <time>2021-02-24T15:02:40Z</time>
      </trkpt>
      <trkpt lat="44.28399" lon="5.01099">
        <ele>188.5</ele>
        <time>2021-02-24T15:02:41Z</time>
      </trkpt>
      <trkpt lat="44.28402" lon="5.01107">
        <ele>188.5</ele>
        <time>2021-02-24T15:02:42Z</time>
      </trkpt>
      <trkpt lat="44.28405" lon="5.01116">
        <ele>188.5</ele>
        <time>2021-02-24T15:02:43Z</time>
      </trkpt>
      <trkpt lat="44.28407" lon="5.01124">
        <ele>188.5</ele>
        <time>2021-02-24T15:02:44Z</time>
      </trkpt>
      <trkpt lat="44.28408" lon="5.01133">
        <ele>188.4</ele>
        <time>2021-02-24T15:02:45Z</time>
      </trkpt>
      <trkpt lat="44.28409" lon="5.01143">
        <ele>188.4</ele>
        <time>2021-02-24T15:02:46Z</time>
      </trkpt>
      <trkpt lat="44.28409" lon="5.01152">
        <ele>188.4</ele>
        <time>2021-02-24T15:02:47Z</time>
      </trkpt>
      <trkpt lat="44.28407" lon="5.0117">
        <ele>188.4</ele>
        <time>2021-02-24T15:02:48Z</time>
      </trkpt>
      <trkpt lat="44.28407" lon="5.0117">
        <ele>188.4</ele>
        <time>2021-02-24T15:02:49Z</time>
      </trkpt>
      <trkpt lat="44.28406" lon="5.01179">
        <ele>188.4</ele>
        <time>2021-02-24T15:02:50Z</time>
      </trkpt>
      <trkpt lat="44.28404" lon="5.01188">
        <ele>188.4</ele>
        <time>2021-02-24T15:02:51Z</time>
      </trkpt>
      <trkpt lat="44.28403" lon="5.01197">
        <ele>188.4</ele>
        <time>2021-02-24T15:02:52Z</time>
      </trkpt>
      <trkpt lat="44.28401" lon="5.01206">
        <ele>188.4</ele>
        <time>2021-02-24T15:02:53Z</time>
      </trkpt>
      <trkpt lat="44.28399" lon="5.01215">
        <ele>188.4</ele>
        <time>2021-02-24T15:02:54Z</time>
      </trkpt>
      <trkpt lat="44.28397" lon="5.01224">
        <ele>188.4</ele>
        <time>2021-02-24T15:02:55Z</time>
      </trkpt>
      <trkpt lat="44.28396" lon="5.01233">
        <ele>188.4</ele>
        <time>2021-02-24T15:02:56Z</time>
      </trkpt>
      <trkpt lat="44.28394" lon="5.01243">
        <ele>188.4</ele>
        <time>2021-02-24T15:02:57Z</time>
      </trkpt>
      <trkpt lat="44.28393" lon="5.01252">
        <ele>188.4</ele>
        <time>2021-02-24T15:02:58Z</time>
      </trkpt>
      <trkpt lat="44.28392" lon="5.01265">
        <ele>188.4</ele>
        <time>2021-02-24T15:02:59Z</time>
      </trkpt>
      <trkpt lat="44.28392" lon="5.01269">
        <ele>188.4</ele>
        <time>2021-02-24T15:03:00Z</time>
      </trkpt>
      <trkpt lat="44.28392" lon="5.01278">
        <ele>188.4</ele>
        <time>2021-02-24T15:03:01Z</time>
      </trkpt>
      <trkpt lat="44.28391" lon="5.01286">
        <ele>188.5</ele>
        <time>2021-02-24T15:03:02Z</time>
      </trkpt>
      <trkpt lat="44.28391" lon="5.01286">
        <ele>188.5</ele>
        <time>2021-02-24T15:03:03Z</time>
      </trkpt>
      <trkpt lat="44.28393" lon="5.01306">
        <ele>188.5</ele>
        <time>2021-02-24T15:03:04Z</time>
      </trkpt>
      <trkpt lat="44.28394" lon="5.0131">
        <ele>188.5</ele>
        <time>2021-02-24T15:03:05Z</time>
      </trkpt>
      <trkpt lat="44.28395" lon="5.01318">
        <ele>188.5</ele>
        <time>2021-02-24T15:03:06Z</time>
      </trkpt>
      <trkpt lat="44.28399" lon="5.01333">
        <ele>188.4</ele>
        <time>2021-02-24T15:03:07Z</time>
      </trkpt>
      <trkpt lat="44.28399" lon="5.01333">
        <ele>188.4</ele>
        <time>2021-02-24T15:03:08Z</time>
      </trkpt>
      <trkpt lat="44.28402" lon="5.01345">
        <ele>188.3</ele>
        <time>2021-02-24T15:03:09Z</time>
      </trkpt>
      <trkpt lat="44.28403" lon="5.01349">
        <ele>188.3</ele>
        <time>2021-02-24T15:03:10Z</time>
      </trkpt>
      <trkpt lat="44.28406" lon="5.01357">
        <ele>188.2</ele>
        <time>2021-02-24T15:03:11Z</time>
      </trkpt>
      <trkpt lat="44.28407" lon="5.01366">
        <ele>188.1</ele>
        <time>2021-02-24T15:03:12Z</time>
      </trkpt>
      <trkpt lat="44.28408" lon="5.01374">
        <ele>188</ele>
        <time>2021-02-24T15:03:13Z</time>
      </trkpt>
      <trkpt lat="44.28409" lon="5.01383">
        <ele>188</ele>
        <time>2021-02-24T15:03:14Z</time>
      </trkpt>
      <trkpt lat="44.28408" lon="5.01391">
        <ele>188</ele>
        <time>2021-02-24T15:03:15Z</time>
      </trkpt>
      <trkpt lat="44.28407" lon="5.01399">
        <ele>187.9</ele>
        <time>2021-02-24T15:03:16Z</time>
      </trkpt>
      <trkpt lat="44.28406" lon="5.01407">
        <ele>187.9</ele>
        <time>2021-02-24T15:03:17Z</time>
      </trkpt>
      <trkpt lat="44.28404" lon="5.01415">
        <ele>187.9</ele>
        <time>2021-02-24T15:03:18Z</time>
      </trkpt>
      <trkpt lat="44.28403" lon="5.01423">
        <ele>187.8</ele>
        <time>2021-02-24T15:03:19Z</time>
      </trkpt>
      <trkpt lat="44.28401" lon="5.01435">
        <ele>187.8</ele>
        <time>2021-02-24T15:03:20Z</time>
      </trkpt>
      <trkpt lat="44.28401" lon="5.01439">
        <ele>187.8</ele>
        <time>2021-02-24T15:03:21Z</time>
      </trkpt>
      <trkpt lat="44.284" lon="5.01447">
        <ele>187.8</ele>
        <time>2021-02-24T15:03:22Z</time>
      </trkpt>
      <trkpt lat="44.28399" lon="5.01455">
        <ele>187.8</ele>
        <time>2021-02-24T15:03:23Z</time>
      </trkpt>
      <trkpt lat="44.284" lon="5.01462">
        <ele>187.8</ele>
        <time>2021-02-24T15:03:24Z</time>
      </trkpt>
      <trkpt lat="44.28401" lon="5.01469">
        <ele>187.8</ele>
        <time>2021-02-24T15:03:25Z</time>
      </trkpt>
      <trkpt lat="44.28402" lon="5.01477">
        <ele>187.9</ele>
        <time>2021-02-24T15:03:26Z</time>
      </trkpt>
      <trkpt lat="44.28405" lon="5.01488">
        <ele>187.9</ele>
        <time>2021-02-24T15:03:27Z</time>
      </trkpt>
      <trkpt lat="44.28406" lon="5.01491">
        <ele>187.9</ele>
        <time>2021-02-24T15:03:28Z</time>
      </trkpt>
      <trkpt lat="44.28408" lon="5.01498">
        <ele>188</ele>
        <time>2021-02-24T15:03:29Z</time>
      </trkpt>
      <trkpt lat="44.28411" lon="5.01504">
        <ele>188</ele>
        <time>2021-02-24T15:03:30Z</time>
      </trkpt>
      <trkpt lat="44.28414" lon="5.0151">
        <ele>187.9</ele>
        <time>2021-02-24T15:03:31Z</time>
      </trkpt>
      <trkpt lat="44.28418" lon="5.01517">
        <ele>187.9</ele>
        <time>2021-02-24T15:03:32Z</time>
      </trkpt>
      <trkpt lat="44.28421" lon="5.01524">
        <ele>187.9</ele>
        <time>2021-02-24T15:03:33Z</time>
      </trkpt>
      <trkpt lat="44.28425" lon="5.01531">
        <ele>187.9</ele>
        <time>2021-02-24T15:03:34Z</time>
      </trkpt>
      <trkpt lat="44.28428" lon="5.01537">
        <ele>187.8</ele>
        <time>2021-02-24T15:03:35Z</time>
      </trkpt>
      <trkpt lat="44.28431" lon="5.01544">
        <ele>187.8</ele>
        <time>2021-02-24T15:03:36Z</time>
      </trkpt>
      <trkpt lat="44.28435" lon="5.01551">
        <ele>187.9</ele>
        <time>2021-02-24T15:03:37Z</time>
      </trkpt>
      <trkpt lat="44.28438" lon="5.01557">
        <ele>187.9</ele>
        <time>2021-02-24T15:03:38Z</time>
      </trkpt>
      <trkpt lat="44.28441" lon="5.01564">
        <ele>187.9</ele>
        <time>2021-02-24T15:03:39Z</time>
      </trkpt>
      <trkpt lat="44.28444" lon="5.01571">
        <ele>187.9</ele>
        <time>2021-02-24T15:03:40Z</time>
      </trkpt>
      <trkpt lat="44.28448" lon="5.01578">
        <ele>187.9</ele>
        <time>2021-02-24T15:03:41Z</time>
      </trkpt>
      <trkpt lat="44.28452" lon="5.01589">
        <ele>187.9</ele>
        <time>2021-02-24T15:03:42Z</time>
      </trkpt>
      <trkpt lat="44.28454" lon="5.01593">
        <ele>187.9</ele>
        <time>2021-02-24T15:03:43Z</time>
      </trkpt>
      <trkpt lat="44.28457" lon="5.01601">
        <ele>188</ele>
        <time>2021-02-24T15:03:44Z</time>
      </trkpt>
      <trkpt lat="44.28461" lon="5.01616">
        <ele>188</ele>
        <time>2021-02-24T15:03:45Z</time>
      </trkpt>
      <trkpt lat="44.28461" lon="5.01616">
        <ele>188</ele>
        <time>2021-02-24T15:03:46Z</time>
      </trkpt>
      <trkpt lat="44.28463" lon="5.01625">
        <ele>187.9</ele>
        <time>2021-02-24T15:03:47Z</time>
      </trkpt>
      <trkpt lat="44.28465" lon="5.01633">
        <ele>187.9</ele>
        <time>2021-02-24T15:03:48Z</time>
      </trkpt>
      <trkpt lat="44.28466" lon="5.01642">
        <ele>187.9</ele>
        <time>2021-02-24T15:03:49Z</time>
      </trkpt>
      <trkpt lat="44.28467" lon="5.01655">
        <ele>188</ele>
        <time>2021-02-24T15:03:50Z</time>
      </trkpt>
      <trkpt lat="44.28467" lon="5.01659">
        <ele>188</ele>
        <time>2021-02-24T15:03:51Z</time>
      </trkpt>
      <trkpt lat="44.28468" lon="5.01668">
        <ele>188</ele>
        <time>2021-02-24T15:03:52Z</time>
      </trkpt>
      <trkpt lat="44.28468" lon="5.01677">
        <ele>188</ele>
        <time>2021-02-24T15:03:53Z</time>
      </trkpt>
      <trkpt lat="44.28469" lon="5.01686">
        <ele>188.1</ele>
        <time>2021-02-24T15:03:54Z</time>
      </trkpt>
      <trkpt lat="44.2847" lon="5.01695">
        <ele>188.1</ele>
        <time>2021-02-24T15:03:55Z</time>
      </trkpt>
      <trkpt lat="44.2847" lon="5.01704">
        <ele>188.1</ele>
        <time>2021-02-24T15:03:56Z</time>
      </trkpt>
      <trkpt lat="44.28471" lon="5.01713">
        <ele>188.2</ele>
        <time>2021-02-24T15:03:57Z</time>
      </trkpt>
      <trkpt lat="44.28472" lon="5.01722">
        <ele>188.2</ele>
        <time>2021-02-24T15:03:58Z</time>
      </trkpt>
      <trkpt lat="44.28473" lon="5.0173">
        <ele>188.2</ele>
        <time>2021-02-24T15:03:59Z</time>
      </trkpt>
      <trkpt lat="44.28474" lon="5.01739">
        <ele>188.3</ele>
        <time>2021-02-24T15:04:00Z</time>
      </trkpt>
      <trkpt lat="44.28475" lon="5.01748">
        <ele>188.3</ele>
        <time>2021-02-24T15:04:01Z</time>
      </trkpt>
      <trkpt lat="44.28476" lon="5.01757">
        <ele>188.4</ele>
        <time>2021-02-24T15:04:02Z</time>
      </trkpt>
      <trkpt lat="44.28478" lon="5.01766">
        <ele>188.4</ele>
        <time>2021-02-24T15:04:03Z</time>
      </trkpt>
      <trkpt lat="44.28479" lon="5.01775">
        <ele>188.4</ele>
        <time>2021-02-24T15:04:04Z</time>
      </trkpt>
      <trkpt lat="44.28482" lon="5.01788">
        <ele>188.4</ele>
        <time>2021-02-24T15:04:05Z</time>
      </trkpt>
      <trkpt lat="44.28483" lon="5.01792">
        <ele>188.5</ele>
        <time>2021-02-24T15:04:06Z</time>
      </trkpt>
      <trkpt lat="44.28485" lon="5.01801">
        <ele>188.5</ele>
        <time>2021-02-24T15:04:07Z</time>
      </trkpt>
      <trkpt lat="44.28487" lon="5.01811">
        <ele>188.4</ele>
        <time>2021-02-24T15:04:08Z</time>
      </trkpt>
      <trkpt lat="44.28489" lon="5.0182">
        <ele>188.4</ele>
        <time>2021-02-24T15:04:09Z</time>
      </trkpt>
      <trkpt lat="44.28492" lon="5.01829">
        <ele>188.4</ele>
        <time>2021-02-24T15:04:10Z</time>
      </trkpt>
      <trkpt lat="44.28494" lon="5.01838">
        <ele>188.3</ele>
        <time>2021-02-24T15:04:11Z</time>
      </trkpt>
      <trkpt lat="44.28497" lon="5.01847">
        <ele>188.3</ele>
        <time>2021-02-24T15:04:12Z</time>
      </trkpt>
      <trkpt lat="44.285" lon="5.01861">
        <ele>188.3</ele>
        <time>2021-02-24T15:04:13Z</time>
      </trkpt>
      <trkpt lat="44.28501" lon="5.01866">
        <ele>188.3</ele>
        <time>2021-02-24T15:04:14Z</time>
      </trkpt>
      <trkpt lat="44.28504" lon="5.01875">
        <ele>188.3</ele>
        <time>2021-02-24T15:04:15Z</time>
      </trkpt>
      <trkpt lat="44.28506" lon="5.01884">
        <ele>188.3</ele>
        <time>2021-02-24T15:04:16Z</time>
      </trkpt>
      <trkpt lat="44.28508" lon="5.01893">
        <ele>188.3</ele>
        <time>2021-02-24T15:04:17Z</time>
      </trkpt>
      <trkpt lat="44.28511" lon="5.01902">
        <ele>188.3</ele>
        <time>2021-02-24T15:04:18Z</time>
      </trkpt>
      <trkpt lat="44.28513" lon="5.01911">
        <ele>188.2</ele>
        <time>2021-02-24T15:04:19Z</time>
      </trkpt>
      <trkpt lat="44.28515" lon="5.0192">
        <ele>188.2</ele>
        <time>2021-02-24T15:04:20Z</time>
      </trkpt>
      <trkpt lat="44.28518" lon="5.01929">
        <ele>188.1</ele>
        <time>2021-02-24T15:04:21Z</time>
      </trkpt>
      <trkpt lat="44.28523" lon="5.01947">
        <ele>188</ele>
        <time>2021-02-24T15:04:22Z</time>
      </trkpt>
      <trkpt lat="44.28523" lon="5.01947">
        <ele>188</ele>
        <time>2021-02-24T15:04:23Z</time>
      </trkpt>
      <trkpt lat="44.28528" lon="5.01961">
        <ele>187.9</ele>
        <time>2021-02-24T15:04:24Z</time>
      </trkpt>
      <trkpt lat="44.2853" lon="5.01966">
        <ele>187.9</ele>
        <time>2021-02-24T15:04:25Z</time>
      </trkpt>
      <trkpt lat="44.28534" lon="5.01974">
        <ele>187.9</ele>
        <time>2021-02-24T15:04:26Z</time>
      </trkpt>
      <trkpt lat="44.28538" lon="5.01983">
        <ele>187.9</ele>
        <time>2021-02-24T15:04:27Z</time>
      </trkpt>
      <trkpt lat="44.28542" lon="5.01991">
        <ele>187.9</ele>
        <time>2021-02-24T15:04:28Z</time>
      </trkpt>
      <trkpt lat="44.28546" lon="5.01999">
        <ele>187.8</ele>
        <time>2021-02-24T15:04:29Z</time>
      </trkpt>
      <trkpt lat="44.28551" lon="5.02007">
        <ele>187.8</ele>
        <time>2021-02-24T15:04:30Z</time>
      </trkpt>
      <trkpt lat="44.28555" lon="5.02015">
        <ele>187.8</ele>
        <time>2021-02-24T15:04:31Z</time>
      </trkpt>
      <trkpt lat="44.2856" lon="5.02023">
        <ele>187.8</ele>
        <time>2021-02-24T15:04:32Z</time>
      </trkpt>
      <trkpt lat="44.28565" lon="5.02031">
        <ele>187.8</ele>
        <time>2021-02-24T15:04:33Z</time>
      </trkpt>
      <trkpt lat="44.28569" lon="5.0204">
        <ele>187.8</ele>
        <time>2021-02-24T15:04:34Z</time>
      </trkpt>
      <trkpt lat="44.28574" lon="5.02048">
        <ele>187.8</ele>
        <time>2021-02-24T15:04:35Z</time>
      </trkpt>
      <trkpt lat="44.28579" lon="5.02057">
        <ele>187.8</ele>
        <time>2021-02-24T15:04:36Z</time>
      </trkpt>
      <trkpt lat="44.28584" lon="5.02065">
        <ele>187.8</ele>
        <time>2021-02-24T15:04:37Z</time>
      </trkpt>
      <trkpt lat="44.28589" lon="5.02073">
        <ele>187.7</ele>
        <time>2021-02-24T15:04:38Z</time>
      </trkpt>
      <trkpt lat="44.28594" lon="5.02082">
        <ele>187.7</ele>
        <time>2021-02-24T15:04:39Z</time>
      </trkpt>
      <trkpt lat="44.28599" lon="5.02091">
        <ele>187.7</ele>
        <time>2021-02-24T15:04:40Z</time>
      </trkpt>
      <trkpt lat="44.28604" lon="5.02099">
        <ele>187.7</ele>
        <time>2021-02-24T15:04:41Z</time>
      </trkpt>
      <trkpt lat="44.28614" lon="5.02116">
        <ele>187.7</ele>
        <time>2021-02-24T15:04:42Z</time>
      </trkpt>
      <trkpt lat="44.28614" lon="5.02116">
        <ele>187.7</ele>
        <time>2021-02-24T15:04:43Z</time>
      </trkpt>
      <trkpt lat="44.28619" lon="5.02125">
        <ele>187.7</ele>
        <time>2021-02-24T15:04:44Z</time>
      </trkpt>
      <trkpt lat="44.28625" lon="5.02134">
        <ele>187.7</ele>
        <time>2021-02-24T15:04:45Z</time>
      </trkpt>
      <trkpt lat="44.2863" lon="5.02143">
        <ele>187.7</ele>
        <time>2021-02-24T15:04:46Z</time>
      </trkpt>
      <trkpt lat="44.28638" lon="5.02157">
        <ele>187.6</ele>
        <time>2021-02-24T15:04:47Z</time>
      </trkpt>
      <trkpt lat="44.2864" lon="5.02161">
        <ele>187.6</ele>
        <time>2021-02-24T15:04:48Z</time>
      </trkpt>
      <trkpt lat="44.28646" lon="5.02171">
        <ele>187.6</ele>
        <time>2021-02-24T15:04:49Z</time>
      </trkpt>
      <trkpt lat="44.28651" lon="5.0218">
        <ele>187.6</ele>
        <time>2021-02-24T15:04:50Z</time>
      </trkpt>
      <trkpt lat="44.28657" lon="5.02189">
        <ele>187.6</ele>
        <time>2021-02-24T15:04:51Z</time>
      </trkpt>
      <trkpt lat="44.28662" lon="5.02199">
        <ele>187.6</ele>
        <time>2021-02-24T15:04:52Z</time>
      </trkpt>
      <trkpt lat="44.28667" lon="5.02209">
        <ele>187.7</ele>
        <time>2021-02-24T15:04:53Z</time>
      </trkpt>
      <trkpt lat="44.28672" lon="5.02218">
        <ele>187.7</ele>
        <time>2021-02-24T15:04:54Z</time>
      </trkpt>
      <trkpt lat="44.28677" lon="5.02228">
        <ele>187.7</ele>
        <time>2021-02-24T15:04:55Z</time>
      </trkpt>
      <trkpt lat="44.28683" lon="5.02237">
        <ele>187.8</ele>
        <time>2021-02-24T15:04:56Z</time>
      </trkpt>
      <trkpt lat="44.28688" lon="5.02247">
        <ele>187.8</ele>
        <time>2021-02-24T15:04:57Z</time>
      </trkpt>
      <trkpt lat="44.28693" lon="5.02257">
        <ele>187.9</ele>
        <time>2021-02-24T15:04:58Z</time>
      </trkpt>
      <trkpt lat="44.28697" lon="5.02267">
        <ele>187.9</ele>
        <time>2021-02-24T15:04:59Z</time>
      </trkpt>
      <trkpt lat="44.28702" lon="5.02277">
        <ele>187.9</ele>
        <time>2021-02-24T15:05:00Z</time>
      </trkpt>
      <trkpt lat="44.28705" lon="5.02287">
        <ele>188</ele>
        <time>2021-02-24T15:05:01Z</time>
      </trkpt>
      <trkpt lat="44.2871" lon="5.02303">
        <ele>188</ele>
        <time>2021-02-24T15:05:02Z</time>
      </trkpt>
      <trkpt lat="44.28711" lon="5.02308">
        <ele>188</ele>
        <time>2021-02-24T15:05:03Z</time>
      </trkpt>
      <trkpt lat="44.28715" lon="5.02318">
        <ele>188</ele>
        <time>2021-02-24T15:05:04Z</time>
      </trkpt>
      <trkpt lat="44.28718" lon="5.02327">
        <ele>188.1</ele>
        <time>2021-02-24T15:05:05Z</time>
      </trkpt>
      <trkpt lat="44.28721" lon="5.02337">
        <ele>188.1</ele>
        <time>2021-02-24T15:05:06Z</time>
      </trkpt>
      <trkpt lat="44.28723" lon="5.02346">
        <ele>188.1</ele>
        <time>2021-02-24T15:05:07Z</time>
      </trkpt>
      <trkpt lat="44.28726" lon="5.02355">
        <ele>188.1</ele>
        <time>2021-02-24T15:05:08Z</time>
      </trkpt>
      <trkpt lat="44.28729" lon="5.02364">
        <ele>188.2</ele>
        <time>2021-02-24T15:05:09Z</time>
      </trkpt>
      <trkpt lat="44.28732" lon="5.02372">
        <ele>188.2</ele>
        <time>2021-02-24T15:05:10Z</time>
      </trkpt>
      <trkpt lat="44.28734" lon="5.02381">
        <ele>188.2</ele>
        <time>2021-02-24T15:05:11Z</time>
      </trkpt>
      <trkpt lat="44.28737" lon="5.0239">
        <ele>188.3</ele>
        <time>2021-02-24T15:05:12Z</time>
      </trkpt>
      <trkpt lat="44.28739" lon="5.02398">
        <ele>188.3</ele>
        <time>2021-02-24T15:05:13Z</time>
      </trkpt>
      <trkpt lat="44.28742" lon="5.02407">
        <ele>188.3</ele>
        <time>2021-02-24T15:05:14Z</time>
      </trkpt>
      <trkpt lat="44.28744" lon="5.02416">
        <ele>188.4</ele>
        <time>2021-02-24T15:05:15Z</time>
      </trkpt>
      <trkpt lat="44.28746" lon="5.02425">
        <ele>188.4</ele>
        <time>2021-02-24T15:05:16Z</time>
      </trkpt>
      <trkpt lat="44.28747" lon="5.02434">
        <ele>188.4</ele>
        <time>2021-02-24T15:05:17Z</time>
      </trkpt>
      <trkpt lat="44.28749" lon="5.02443">
        <ele>188.5</ele>
        <time>2021-02-24T15:05:18Z</time>
      </trkpt>
      <trkpt lat="44.2875" lon="5.02452">
        <ele>188.5</ele>
        <time>2021-02-24T15:05:19Z</time>
      </trkpt>
      <trkpt lat="44.28752" lon="5.0247">
        <ele>188.6</ele>
        <time>2021-02-24T15:05:20Z</time>
      </trkpt>
      <trkpt lat="44.28752" lon="5.0247">
        <ele>188.6</ele>
        <time>2021-02-24T15:05:21Z</time>
      </trkpt>
      <trkpt lat="44.28754" lon="5.02479">
        <ele>188.7</ele>
        <time>2021-02-24T15:05:22Z</time>
      </trkpt>
      <trkpt lat="44.28756" lon="5.02487">
        <ele>188.7</ele>
        <time>2021-02-24T15:05:23Z</time>
      </trkpt>
      <trkpt lat="44.28758" lon="5.02496">
        <ele>188.8</ele>
        <time>2021-02-24T15:05:24Z</time>
      </trkpt>
      <trkpt lat="44.28761" lon="5.02504">
        <ele>188.8</ele>
        <time>2021-02-24T15:05:25Z</time>
      </trkpt>
      <trkpt lat="44.28766" lon="5.02516">
        <ele>188.9</ele>
        <time>2021-02-24T15:05:26Z</time>
      </trkpt>
      <trkpt lat="44.28767" lon="5.0252">
        <ele>188.9</ele>
        <time>2021-02-24T15:05:27Z</time>
      </trkpt>
      <trkpt lat="44.28771" lon="5.02528">
        <ele>189</ele>
        <time>2021-02-24T15:05:28Z</time>
      </trkpt>
      <trkpt lat="44.28774" lon="5.02536">
        <ele>189</ele>
        <time>2021-02-24T15:05:29Z</time>
      </trkpt>
      <trkpt lat="44.28778" lon="5.02544">
        <ele>189.1</ele>
        <time>2021-02-24T15:05:30Z</time>
      </trkpt>
      <trkpt lat="44.28781" lon="5.02551">
        <ele>189.1</ele>
        <time>2021-02-24T15:05:31Z</time>
      </trkpt>
      <trkpt lat="44.28785" lon="5.02559">
        <ele>189.2</ele>
        <time>2021-02-24T15:05:32Z</time>
      </trkpt>
      <trkpt lat="44.28788" lon="5.02566">
        <ele>189.2</ele>
        <time>2021-02-24T15:05:33Z</time>
      </trkpt>
      <trkpt lat="44.28792" lon="5.02574">
        <ele>189.3</ele>
        <time>2021-02-24T15:05:34Z</time>
      </trkpt>
      <trkpt lat="44.28795" lon="5.02582">
        <ele>189.4</ele>
        <time>2021-02-24T15:05:35Z</time>
      </trkpt>
      <trkpt lat="44.28799" lon="5.0259">
        <ele>189.4</ele>
        <time>2021-02-24T15:05:36Z</time>
      </trkpt>
      <trkpt lat="44.28802" lon="5.02597">
        <ele>189.5</ele>
        <time>2021-02-24T15:05:37Z</time>
      </trkpt>
      <trkpt lat="44.28806" lon="5.02605">
        <ele>189.5</ele>
        <time>2021-02-24T15:05:38Z</time>
      </trkpt>
      <trkpt lat="44.28813" lon="5.0262">
        <ele>189.6</ele>
        <time>2021-02-24T15:05:39Z</time>
      </trkpt>
      <trkpt lat="44.28813" lon="5.0262">
        <ele>189.6</ele>
        <time>2021-02-24T15:05:40Z</time>
      </trkpt>
      <trkpt lat="44.28817" lon="5.02628">
        <ele>189.7</ele>
        <time>2021-02-24T15:05:41Z</time>
      </trkpt>
      <trkpt lat="44.2882" lon="5.02635">
        <ele>189.7</ele>
        <time>2021-02-24T15:05:42Z</time>
      </trkpt>
      <trkpt lat="44.28824" lon="5.02643">
        <ele>189.8</ele>
        <time>2021-02-24T15:05:43Z</time>
      </trkpt>
      <trkpt lat="44.28827" lon="5.02651">
        <ele>189.9</ele>
        <time>2021-02-24T15:05:44Z</time>
      </trkpt>
      <trkpt lat="44.28831" lon="5.02659">
        <ele>189.9</ele>
        <time>2021-02-24T15:05:45Z</time>
      </trkpt>
      <trkpt lat="44.28834" lon="5.02666">
        <ele>190</ele>
        <time>2021-02-24T15:05:46Z</time>
      </trkpt>
      <trkpt lat="44.28838" lon="5.02674">
        <ele>190.1</ele>
        <time>2021-02-24T15:05:47Z</time>
      </trkpt>
      <trkpt lat="44.28841" lon="5.02681">
        <ele>190.1</ele>
        <time>2021-02-24T15:05:48Z</time>
      </trkpt>
      <trkpt lat="44.28845" lon="5.02689">
        <ele>190.2</ele>
        <time>2021-02-24T15:05:49Z</time>
      </trkpt>
      <trkpt lat="44.28849" lon="5.02697">
        <ele>190.3</ele>
        <time>2021-02-24T15:05:50Z</time>
      </trkpt>
      <trkpt lat="44.28853" lon="5.02705">
        <ele>190.5</ele>
        <time>2021-02-24T15:05:51Z</time>
      </trkpt>
      <trkpt lat="44.28856" lon="5.02712">
        <ele>190.6</ele>
        <time>2021-02-24T15:05:52Z</time>
      </trkpt>
      <trkpt lat="44.2886" lon="5.0272">
        <ele>190.7</ele>
        <time>2021-02-24T15:05:53Z</time>
      </trkpt>
      <trkpt lat="44.28863" lon="5.02728">
        <ele>190.9</ele>
        <time>2021-02-24T15:05:54Z</time>
      </trkpt>
      <trkpt lat="44.28866" lon="5.02736">
        <ele>191</ele>
        <time>2021-02-24T15:05:55Z</time>
      </trkpt>
      <trkpt lat="44.2887" lon="5.02743">
        <ele>191.1</ele>
        <time>2021-02-24T15:05:56Z</time>
      </trkpt>
      <trkpt lat="44.28875" lon="5.02753">
        <ele>191.3</ele>
        <time>2021-02-24T15:05:57Z</time>
      </trkpt>
      <trkpt lat="44.28876" lon="5.02757">
        <ele>191.3</ele>
        <time>2021-02-24T15:05:58Z</time>
      </trkpt>
      <trkpt lat="44.2888" lon="5.02764">
        <ele>191.4</ele>
        <time>2021-02-24T15:05:59Z</time>
      </trkpt>
      <trkpt lat="44.28883" lon="5.02771">
        <ele>191.4</ele>
        <time>2021-02-24T15:06:00Z</time>
      </trkpt>
      <trkpt lat="44.28886" lon="5.02778">
        <ele>191.4</ele>
        <time>2021-02-24T15:06:01Z</time>
      </trkpt>
      <trkpt lat="44.2889" lon="5.02786">
        <ele>191.4</ele>
        <time>2021-02-24T15:06:02Z</time>
      </trkpt>
      <trkpt lat="44.28893" lon="5.02793">
        <ele>191.4</ele>
        <time>2021-02-24T15:06:03Z</time>
      </trkpt>
      <trkpt lat="44.28897" lon="5.02801">
        <ele>191.4</ele>
        <time>2021-02-24T15:06:04Z</time>
      </trkpt>
      <trkpt lat="44.289" lon="5.02809">
        <ele>191.4</ele>
        <time>2021-02-24T15:06:05Z</time>
      </trkpt>
      <trkpt lat="44.28903" lon="5.02817">
        <ele>191.5</ele>
        <time>2021-02-24T15:06:06Z</time>
      </trkpt>
      <trkpt lat="44.28907" lon="5.02825">
        <ele>191.5</ele>
        <time>2021-02-24T15:06:07Z</time>
      </trkpt>
      <trkpt lat="44.28909" lon="5.02833">
        <ele>191.5</ele>
        <time>2021-02-24T15:06:08Z</time>
      </trkpt>
      <trkpt lat="44.28912" lon="5.02842">
        <ele>191.5</ele>
        <time>2021-02-24T15:06:09Z</time>
      </trkpt>
      <trkpt lat="44.28914" lon="5.02851">
        <ele>191.6</ele>
        <time>2021-02-24T15:06:10Z</time>
      </trkpt>
      <trkpt lat="44.28916" lon="5.02859">
        <ele>191.7</ele>
        <time>2021-02-24T15:06:11Z</time>
      </trkpt>
      <trkpt lat="44.28919" lon="5.02868">
        <ele>191.8</ele>
        <time>2021-02-24T15:06:12Z</time>
      </trkpt>
      <trkpt lat="44.28921" lon="5.02876">
        <ele>192</ele>
        <time>2021-02-24T15:06:13Z</time>
      </trkpt>
      <trkpt lat="44.28923" lon="5.02884">
        <ele>192.1</ele>
        <time>2021-02-24T15:06:14Z</time>
      </trkpt>
      <trkpt lat="44.28925" lon="5.02892">
        <ele>192.3</ele>
        <time>2021-02-24T15:06:15Z</time>
      </trkpt>
      <trkpt lat="44.28926" lon="5.029">
        <ele>192.4</ele>
        <time>2021-02-24T15:06:16Z</time>
      </trkpt>
      <trkpt lat="44.28928" lon="5.02908">
        <ele>192.6</ele>
        <time>2021-02-24T15:06:17Z</time>
      </trkpt>
      <trkpt lat="44.28931" lon="5.02919">
        <ele>192.8</ele>
        <time>2021-02-24T15:06:18Z</time>
      </trkpt>
      <trkpt lat="44.28932" lon="5.02922">
        <ele>192.9</ele>
        <time>2021-02-24T15:06:19Z</time>
      </trkpt>
      <trkpt lat="44.28934" lon="5.0293">
        <ele>193</ele>
        <time>2021-02-24T15:06:20Z</time>
      </trkpt>
      <trkpt lat="44.28936" lon="5.02937">
        <ele>193.1</ele>
        <time>2021-02-24T15:06:21Z</time>
      </trkpt>
      <trkpt lat="44.28938" lon="5.02944">
        <ele>193.2</ele>
        <time>2021-02-24T15:06:22Z</time>
      </trkpt>
      <trkpt lat="44.2894" lon="5.02952">
        <ele>193.3</ele>
        <time>2021-02-24T15:06:23Z</time>
      </trkpt>
      <trkpt lat="44.28942" lon="5.02959">
        <ele>193.5</ele>
        <time>2021-02-24T15:06:24Z</time>
      </trkpt>
      <trkpt lat="44.28943" lon="5.02966">
        <ele>193.6</ele>
        <time>2021-02-24T15:06:25Z</time>
      </trkpt>
      <trkpt lat="44.28945" lon="5.02973">
        <ele>193.7</ele>
        <time>2021-02-24T15:06:26Z</time>
      </trkpt>
      <trkpt lat="44.28947" lon="5.0298">
        <ele>193.9</ele>
        <time>2021-02-24T15:06:27Z</time>
      </trkpt>
      <trkpt lat="44.28949" lon="5.02987">
        <ele>194</ele>
        <time>2021-02-24T15:06:28Z</time>
      </trkpt>
      <trkpt lat="44.28951" lon="5.02994">
        <ele>194.1</ele>
        <time>2021-02-24T15:06:29Z</time>
      </trkpt>
      <trkpt lat="44.28953" lon="5.03001">
        <ele>194.2</ele>
        <time>2021-02-24T15:06:30Z</time>
      </trkpt>
      <trkpt lat="44.28955" lon="5.03008">
        <ele>194.3</ele>
        <time>2021-02-24T15:06:31Z</time>
      </trkpt>
      <trkpt lat="44.28957" lon="5.03016">
        <ele>194.4</ele>
        <time>2021-02-24T15:06:32Z</time>
      </trkpt>
      <trkpt lat="44.28959" lon="5.03023">
        <ele>194.5</ele>
        <time>2021-02-24T15:06:33Z</time>
      </trkpt>
      <trkpt lat="44.28961" lon="5.0303">
        <ele>194.6</ele>
        <time>2021-02-24T15:06:34Z</time>
      </trkpt>
      <trkpt lat="44.28963" lon="5.03038">
        <ele>194.8</ele>
        <time>2021-02-24T15:06:35Z</time>
      </trkpt>
      <trkpt lat="44.28966" lon="5.03053">
        <ele>195</ele>
        <time>2021-02-24T15:06:36Z</time>
      </trkpt>
      <trkpt lat="44.28966" lon="5.03053">
        <ele>195</ele>
        <time>2021-02-24T15:06:37Z</time>
      </trkpt>
      <trkpt lat="44.28968" lon="5.03061">
        <ele>195.2</ele>
        <time>2021-02-24T15:06:38Z</time>
      </trkpt>
      <trkpt lat="44.28969" lon="5.03068">
        <ele>195.3</ele>
        <time>2021-02-24T15:06:39Z</time>
      </trkpt>
      <trkpt lat="44.28971" lon="5.03075">
        <ele>195.4</ele>
        <time>2021-02-24T15:06:40Z</time>
      </trkpt>
      <trkpt lat="44.28973" lon="5.03083">
        <ele>195.5</ele>
        <time>2021-02-24T15:06:41Z</time>
      </trkpt>
      <trkpt lat="44.28975" lon="5.0309">
        <ele>195.6</ele>
        <time>2021-02-24T15:06:42Z</time>
      </trkpt>
      <trkpt lat="44.28977" lon="5.03097">
        <ele>195.8</ele>
        <time>2021-02-24T15:06:43Z</time>
      </trkpt>
      <trkpt lat="44.28978" lon="5.03104">
        <ele>195.9</ele>
        <time>2021-02-24T15:06:44Z</time>
      </trkpt>
      <trkpt lat="44.2898" lon="5.03111">
        <ele>196</ele>
        <time>2021-02-24T15:06:45Z</time>
      </trkpt>
      <trkpt lat="44.28982" lon="5.03118">
        <ele>196.1</ele>
        <time>2021-02-24T15:06:46Z</time>
      </trkpt>
      <trkpt lat="44.28983" lon="5.03124">
        <ele>196.2</ele>
        <time>2021-02-24T15:06:47Z</time>
      </trkpt>
      <trkpt lat="44.28986" lon="5.03134">
        <ele>196.3</ele>
        <time>2021-02-24T15:06:48Z</time>
      </trkpt>
      <trkpt lat="44.28987" lon="5.03137">
        <ele>196.4</ele>
        <time>2021-02-24T15:06:49Z</time>
      </trkpt>
      <trkpt lat="44.28989" lon="5.03144">
        <ele>196.5</ele>
        <time>2021-02-24T15:06:50Z</time>
      </trkpt>
      <trkpt lat="44.28991" lon="5.03151">
        <ele>196.6</ele>
        <time>2021-02-24T15:06:51Z</time>
      </trkpt>
      <trkpt lat="44.28992" lon="5.03157">
        <ele>196.7</ele>
        <time>2021-02-24T15:06:52Z</time>
      </trkpt>
      <trkpt lat="44.28994" lon="5.03164">
        <ele>196.7</ele>
        <time>2021-02-24T15:06:53Z</time>
      </trkpt>
      <trkpt lat="44.28996" lon="5.03171">
        <ele>196.8</ele>
        <time>2021-02-24T15:06:54Z</time>
      </trkpt>
      <trkpt lat="44.28999" lon="5.03184">
        <ele>197</ele>
        <time>2021-02-24T15:06:55Z</time>
      </trkpt>
      <trkpt lat="44.28999" lon="5.03184">
        <ele>197</ele>
        <time>2021-02-24T15:06:56Z</time>
      </trkpt>
      <trkpt lat="44.29001" lon="5.0319">
        <ele>197.1</ele>
        <time>2021-02-24T15:06:57Z</time>
      </trkpt>
      <trkpt lat="44.29003" lon="5.03197">
        <ele>197.2</ele>
        <time>2021-02-24T15:06:58Z</time>
      </trkpt>
      <trkpt lat="44.29004" lon="5.03203">
        <ele>197.3</ele>
        <time>2021-02-24T15:06:59Z</time>
      </trkpt>
      <trkpt lat="44.29006" lon="5.0321">
        <ele>197.4</ele>
        <time>2021-02-24T15:07:00Z</time>
      </trkpt>
      <trkpt lat="44.29008" lon="5.03216">
        <ele>197.5</ele>
        <time>2021-02-24T15:07:01Z</time>
      </trkpt>
      <trkpt lat="44.29009" lon="5.03223">
        <ele>197.6</ele>
        <time>2021-02-24T15:07:02Z</time>
      </trkpt>
      <trkpt lat="44.29011" lon="5.03229">
        <ele>197.7</ele>
        <time>2021-02-24T15:07:03Z</time>
      </trkpt>
      <trkpt lat="44.29013" lon="5.03236">
        <ele>197.8</ele>
        <time>2021-02-24T15:07:04Z</time>
      </trkpt>
      <trkpt lat="44.29015" lon="5.03242">
        <ele>197.9</ele>
        <time>2021-02-24T15:07:05Z</time>
      </trkpt>
      <trkpt lat="44.29017" lon="5.03249">
        <ele>198</ele>
        <time>2021-02-24T15:07:06Z</time>
      </trkpt>
      <trkpt lat="44.29019" lon="5.03256">
        <ele>198.1</ele>
        <time>2021-02-24T15:07:07Z</time>
      </trkpt>
      <trkpt lat="44.29022" lon="5.03266">
        <ele>198.3</ele>
        <time>2021-02-24T15:07:08Z</time>
      </trkpt>
      <trkpt lat="44.29023" lon="5.03269">
        <ele>198.3</ele>
        <time>2021-02-24T15:07:09Z</time>
      </trkpt>
      <trkpt lat="44.29025" lon="5.03276">
        <ele>198.4</ele>
        <time>2021-02-24T15:07:10Z</time>
      </trkpt>
      <trkpt lat="44.29027" lon="5.03283">
        <ele>198.5</ele>
        <time>2021-02-24T15:07:11Z</time>
      </trkpt>
      <trkpt lat="44.29028" lon="5.0329">
        <ele>198.6</ele>
        <time>2021-02-24T15:07:12Z</time>
      </trkpt>
      <trkpt lat="44.29029" lon="5.03297">
        <ele>198.7</ele>
        <time>2021-02-24T15:07:13Z</time>
      </trkpt>
      <trkpt lat="44.29032" lon="5.03311">
        <ele>198.9</ele>
        <time>2021-02-24T15:07:14Z</time>
      </trkpt>
      <trkpt lat="44.29032" lon="5.03311">
        <ele>198.9</ele>
        <time>2021-02-24T15:07:15Z</time>
      </trkpt>
      <trkpt lat="44.29033" lon="5.03319">
        <ele>199</ele>
        <time>2021-02-24T15:07:16Z</time>
      </trkpt>
      <trkpt lat="44.29034" lon="5.03326">
        <ele>199.1</ele>
        <time>2021-02-24T15:07:17Z</time>
      </trkpt>
      <trkpt lat="44.29035" lon="5.03338">
        <ele>199.3</ele>
        <time>2021-02-24T15:07:18Z</time>
      </trkpt>
      <trkpt lat="44.29034" lon="5.03341">
        <ele>199.3</ele>
        <time>2021-02-24T15:07:19Z</time>
      </trkpt>
      <trkpt lat="44.29033" lon="5.03348">
        <ele>199.5</ele>
        <time>2021-02-24T15:07:20Z</time>
      </trkpt>
      <trkpt lat="44.29031" lon="5.03355">
        <ele>199.5</ele>
        <time>2021-02-24T15:07:21Z</time>
      </trkpt>
      <trkpt lat="44.29028" lon="5.03361">
        <ele>199.7</ele>
        <time>2021-02-24T15:07:22Z</time>
      </trkpt>
      <trkpt lat="44.29025" lon="5.03366">
        <ele>199.8</ele>
        <time>2021-02-24T15:07:23Z</time>
      </trkpt>
      <trkpt lat="44.29021" lon="5.03371">
        <ele>199.9</ele>
        <time>2021-02-24T15:07:24Z</time>
      </trkpt>
      <trkpt lat="44.29017" lon="5.03374">
        <ele>200</ele>
        <time>2021-02-24T15:07:25Z</time>
      </trkpt>
      <trkpt lat="44.29013" lon="5.03375">
        <ele>200.1</ele>
        <time>2021-02-24T15:07:26Z</time>
      </trkpt>
      <trkpt lat="44.29009" lon="5.03377">
        <ele>200.2</ele>
        <time>2021-02-24T15:07:27Z</time>
      </trkpt>
      <trkpt lat="44.29005" lon="5.03379">
        <ele>200.3</ele>
        <time>2021-02-24T15:07:28Z</time>
      </trkpt>
      <trkpt lat="44.29" lon="5.03384">
        <ele>200.5</ele>
        <time>2021-02-24T15:07:29Z</time>
      </trkpt>
      <trkpt lat="44.29" lon="5.03384">
        <ele>200.5</ele>
        <time>2021-02-24T15:07:30Z</time>
      </trkpt>
      <trkpt lat="44.28987" lon="5.03397">
        <ele>200.9</ele>
        <time>2021-02-24T15:07:31Z</time>
      </trkpt>
      <trkpt lat="44.28983" lon="5.034">
        <ele>201.1</ele>
        <time>2021-02-24T15:07:32Z</time>
      </trkpt>
      <trkpt lat="44.28976" lon="5.03406">
        <ele>201.4</ele>
        <time>2021-02-24T15:07:33Z</time>
      </trkpt>
      <trkpt lat="44.28976" lon="5.03406">
        <ele>201.4</ele>
        <time>2021-02-24T15:07:34Z</time>
      </trkpt>
      <trkpt lat="44.28971" lon="5.03408">
        <ele>201.6</ele>
        <time>2021-02-24T15:07:35Z</time>
      </trkpt>
      <trkpt lat="44.28967" lon="5.0341">
        <ele>201.8</ele>
        <time>2021-02-24T15:07:36Z</time>
      </trkpt>
      <trkpt lat="44.28962" lon="5.03413">
        <ele>202</ele>
        <time>2021-02-24T15:07:37Z</time>
      </trkpt>
      <trkpt lat="44.28957" lon="5.03415">
        <ele>202.2</ele>
        <time>2021-02-24T15:07:38Z</time>
      </trkpt>
      <trkpt lat="44.28953" lon="5.03417">
        <ele>202.4</ele>
        <time>2021-02-24T15:07:39Z</time>
      </trkpt>
      <trkpt lat="44.28948" lon="5.0342">
        <ele>202.6</ele>
        <time>2021-02-24T15:07:40Z</time>
      </trkpt>
      <trkpt lat="44.28944" lon="5.03422">
        <ele>202.9</ele>
        <time>2021-02-24T15:07:41Z</time>
      </trkpt>
      <trkpt lat="44.28939" lon="5.03424">
        <ele>203.1</ele>
        <time>2021-02-24T15:07:42Z</time>
      </trkpt>
      <trkpt lat="44.28935" lon="5.03427">
        <ele>203.3</ele>
        <time>2021-02-24T15:07:43Z</time>
      </trkpt>
      <trkpt lat="44.2893" lon="5.03429">
        <ele>203.5</ele>
        <time>2021-02-24T15:07:44Z</time>
      </trkpt>
      <trkpt lat="44.28926" lon="5.03431">
        <ele>203.7</ele>
        <time>2021-02-24T15:07:45Z</time>
      </trkpt>
      <trkpt lat="44.28921" lon="5.03434">
        <ele>203.9</ele>
        <time>2021-02-24T15:07:46Z</time>
      </trkpt>
      <trkpt lat="44.28917" lon="5.03436">
        <ele>204.2</ele>
        <time>2021-02-24T15:07:47Z</time>
      </trkpt>
      <trkpt lat="44.28912" lon="5.03438">
        <ele>204.4</ele>
        <time>2021-02-24T15:07:48Z</time>
      </trkpt>
      <trkpt lat="44.28907" lon="5.03441">
        <ele>204.6</ele>
        <time>2021-02-24T15:07:49Z</time>
      </trkpt>
      <trkpt lat="44.28903" lon="5.03443">
        <ele>204.9</ele>
        <time>2021-02-24T15:07:50Z</time>
      </trkpt>
      <trkpt lat="44.28898" lon="5.03446">
        <ele>205.1</ele>
        <time>2021-02-24T15:07:51Z</time>
      </trkpt>
      <trkpt lat="44.28894" lon="5.03449">
        <ele>205.4</ele>
        <time>2021-02-24T15:07:52Z</time>
      </trkpt>
      <trkpt lat="44.28887" lon="5.03453">
        <ele>205.8</ele>
        <time>2021-02-24T15:07:53Z</time>
      </trkpt>
      <trkpt lat="44.28885" lon="5.03455">
        <ele>205.9</ele>
        <time>2021-02-24T15:07:54Z</time>
      </trkpt>
      <trkpt lat="44.28881" lon="5.03458">
        <ele>206.2</ele>
        <time>2021-02-24T15:07:55Z</time>
      </trkpt>
      <trkpt lat="44.28877" lon="5.03461">
        <ele>206.5</ele>
        <time>2021-02-24T15:07:56Z</time>
      </trkpt>
      <trkpt lat="44.28873" lon="5.03464">
        <ele>206.8</ele>
        <time>2021-02-24T15:07:57Z</time>
      </trkpt>
      <trkpt lat="44.28869" lon="5.03467">
        <ele>207.1</ele>
        <time>2021-02-24T15:07:58Z</time>
      </trkpt>
      <trkpt lat="44.28865" lon="5.0347">
        <ele>207.3</ele>
        <time>2021-02-24T15:07:59Z</time>
      </trkpt>
      <trkpt lat="44.28862" lon="5.03473">
        <ele>207.6</ele>
        <time>2021-02-24T15:08:00Z</time>
      </trkpt>
      <trkpt lat="44.28859" lon="5.03476">
        <ele>207.8</ele>
        <time>2021-02-24T15:08:01Z</time>
      </trkpt>
      <trkpt lat="44.28856" lon="5.03479">
        <ele>208.1</ele>
        <time>2021-02-24T15:08:02Z</time>
      </trkpt>
      <trkpt lat="44.28853" lon="5.03483">
        <ele>208.4</ele>
        <time>2021-02-24T15:08:03Z</time>
      </trkpt>
      <trkpt lat="44.28851" lon="5.03486">
        <ele>208.6</ele>
        <time>2021-02-24T15:08:04Z</time>
      </trkpt>
      <trkpt lat="44.28849" lon="5.0349">
        <ele>208.8</ele>
        <time>2021-02-24T15:08:05Z</time>
      </trkpt>
      <trkpt lat="44.28849" lon="5.03493">
        <ele>208.8</ele>
        <time>2021-02-24T15:08:06Z</time>
      </trkpt>
      <trkpt lat="44.28849" lon="5.03496">
        <ele>208.7</ele>
        <time>2021-02-24T15:08:07Z</time>
      </trkpt>
      <trkpt lat="44.2885" lon="5.03499">
        <ele>208.6</ele>
        <time>2021-02-24T15:08:08Z</time>
      </trkpt>
      <trkpt lat="44.28852" lon="5.03502">
        <ele>208.5</ele>
        <time>2021-02-24T15:08:09Z</time>
      </trkpt>
      <trkpt lat="44.28853" lon="5.03505">
        <ele>208.4</ele>
        <time>2021-02-24T15:08:10Z</time>
      </trkpt>
      <trkpt lat="44.28856" lon="5.03508">
        <ele>208.2</ele>
        <time>2021-02-24T15:08:11Z</time>
      </trkpt>
      <trkpt lat="44.28858" lon="5.03512">
        <ele>208.1</ele>
        <time>2021-02-24T15:08:12Z</time>
      </trkpt>
      <trkpt lat="44.28861" lon="5.03515">
        <ele>207.9</ele>
        <time>2021-02-24T15:08:13Z</time>
      </trkpt>
      <trkpt lat="44.28863" lon="5.03519">
        <ele>207.8</ele>
        <time>2021-02-24T15:08:14Z</time>
      </trkpt>
      <trkpt lat="44.28866" lon="5.03522">
        <ele>207.6</ele>
        <time>2021-02-24T15:08:15Z</time>
      </trkpt>
      <trkpt lat="44.28868" lon="5.03526">
        <ele>207.5</ele>
        <time>2021-02-24T15:08:16Z</time>
      </trkpt>
      <trkpt lat="44.28871" lon="5.03529">
        <ele>207.4</ele>
        <time>2021-02-24T15:08:17Z</time>
      </trkpt>
      <trkpt lat="44.28873" lon="5.03533">
        <ele>207.3</ele>
        <time>2021-02-24T15:08:18Z</time>
      </trkpt>
      <trkpt lat="44.28876" lon="5.03537">
        <ele>207.2</ele>
        <time>2021-02-24T15:08:19Z</time>
      </trkpt>
      <trkpt lat="44.28879" lon="5.0354">
        <ele>207.1</ele>
        <time>2021-02-24T15:08:20Z</time>
      </trkpt>
      <trkpt lat="44.28883" lon="5.03546">
        <ele>206.9</ele>
        <time>2021-02-24T15:08:21Z</time>
      </trkpt>
      <trkpt lat="44.28885" lon="5.03548">
        <ele>206.8</ele>
        <time>2021-02-24T15:08:22Z</time>
      </trkpt>
      <trkpt lat="44.28887" lon="5.03552">
        <ele>206.7</ele>
        <time>2021-02-24T15:08:23Z</time>
      </trkpt>
      <trkpt lat="44.2889" lon="5.03556">
        <ele>206.6</ele>
        <time>2021-02-24T15:08:24Z</time>
      </trkpt>
      <trkpt lat="44.28893" lon="5.0356">
        <ele>206.5</ele>
        <time>2021-02-24T15:08:25Z</time>
      </trkpt>
      <trkpt lat="44.28896" lon="5.03565">
        <ele>206.5</ele>
        <time>2021-02-24T15:08:26Z</time>
      </trkpt>
      <trkpt lat="44.28899" lon="5.03569">
        <ele>206.4</ele>
        <time>2021-02-24T15:08:27Z</time>
      </trkpt>
      <trkpt lat="44.28902" lon="5.03573">
        <ele>206.3</ele>
        <time>2021-02-24T15:08:28Z</time>
      </trkpt>
      <trkpt lat="44.28905" lon="5.03578">
        <ele>206.2</ele>
        <time>2021-02-24T15:08:29Z</time>
      </trkpt>
      <trkpt lat="44.28911" lon="5.03587">
        <ele>206</ele>
        <time>2021-02-24T15:08:30Z</time>
      </trkpt>
      <trkpt lat="44.28911" lon="5.03587">
        <ele>206</ele>
        <time>2021-02-24T15:08:31Z</time>
      </trkpt>
      <trkpt lat="44.28915" lon="5.03592">
        <ele>206</ele>
        <time>2021-02-24T15:08:32Z</time>
      </trkpt>
      <trkpt lat="44.28918" lon="5.03597">
        <ele>205.9</ele>
        <time>2021-02-24T15:08:33Z</time>
      </trkpt>
      <trkpt lat="44.28922" lon="5.03602">
        <ele>205.8</ele>
        <time>2021-02-24T15:08:34Z</time>
      </trkpt>
      <trkpt lat="44.28925" lon="5.03607">
        <ele>205.8</ele>
        <time>2021-02-24T15:08:35Z</time>
      </trkpt>
      <trkpt lat="44.28929" lon="5.03612">
        <ele>205.7</ele>
        <time>2021-02-24T15:08:36Z</time>
      </trkpt>
      <trkpt lat="44.28933" lon="5.03617">
        <ele>205.7</ele>
        <time>2021-02-24T15:08:37Z</time>
      </trkpt>
      <trkpt lat="44.28936" lon="5.03623">
        <ele>205.7</ele>
        <time>2021-02-24T15:08:38Z</time>
      </trkpt>
      <trkpt lat="44.2894" lon="5.03628">
        <ele>205.7</ele>
        <time>2021-02-24T15:08:39Z</time>
      </trkpt>
      <trkpt lat="44.28944" lon="5.03634">
        <ele>205.6</ele>
        <time>2021-02-24T15:08:40Z</time>
      </trkpt>
      <trkpt lat="44.28948" lon="5.03639">
        <ele>205.6</ele>
        <time>2021-02-24T15:08:41Z</time>
      </trkpt>
      <trkpt lat="44.28952" lon="5.03644">
        <ele>205.6</ele>
        <time>2021-02-24T15:08:42Z</time>
      </trkpt>
      <trkpt lat="44.28955" lon="5.03649">
        <ele>205.6</ele>
        <time>2021-02-24T15:08:43Z</time>
      </trkpt>
      <trkpt lat="44.28959" lon="5.03655">
        <ele>205.6</ele>
        <time>2021-02-24T15:08:44Z</time>
      </trkpt>
      <trkpt lat="44.28962" lon="5.0366">
        <ele>205.7</ele>
        <time>2021-02-24T15:08:45Z</time>
      </trkpt>
      <trkpt lat="44.28966" lon="5.03665">
        <ele>205.7</ele>
        <time>2021-02-24T15:08:46Z</time>
      </trkpt>
      <trkpt lat="44.2897" lon="5.0367">
        <ele>205.7</ele>
        <time>2021-02-24T15:08:47Z</time>
      </trkpt>
      <trkpt lat="44.28973" lon="5.03675">
        <ele>205.7</ele>
        <time>2021-02-24T15:08:48Z</time>
      </trkpt>
      <trkpt lat="44.28977" lon="5.03681">
        <ele>205.8</ele>
        <time>2021-02-24T15:08:49Z</time>
      </trkpt>
      <trkpt lat="44.28983" lon="5.03689">
        <ele>205.8</ele>
        <time>2021-02-24T15:08:50Z</time>
      </trkpt>
      <trkpt lat="44.28985" lon="5.03691">
        <ele>205.8</ele>
        <time>2021-02-24T15:08:51Z</time>
      </trkpt>
      <trkpt lat="44.28988" lon="5.03697">
        <ele>205.8</ele>
        <time>2021-02-24T15:08:52Z</time>
      </trkpt>
      <trkpt lat="44.28992" lon="5.03703">
        <ele>205.9</ele>
        <time>2021-02-24T15:08:53Z</time>
      </trkpt>
      <trkpt lat="44.28997" lon="5.03709">
        <ele>205.9</ele>
        <time>2021-02-24T15:08:54Z</time>
      </trkpt>
      <trkpt lat="44.29001" lon="5.03714">
        <ele>205.9</ele>
        <time>2021-02-24T15:08:55Z</time>
      </trkpt>
      <trkpt lat="44.29005" lon="5.0372">
        <ele>205.9</ele>
        <time>2021-02-24T15:08:56Z</time>
      </trkpt>
      <trkpt lat="44.29009" lon="5.03726">
        <ele>206</ele>
        <time>2021-02-24T15:08:57Z</time>
      </trkpt>
      <trkpt lat="44.29013" lon="5.03732">
        <ele>206</ele>
        <time>2021-02-24T15:08:58Z</time>
      </trkpt>
      <trkpt lat="44.29017" lon="5.03738">
        <ele>206</ele>
        <time>2021-02-24T15:08:59Z</time>
      </trkpt>
      <trkpt lat="44.29022" lon="5.03745">
        <ele>206</ele>
        <time>2021-02-24T15:09:00Z</time>
      </trkpt>
      <trkpt lat="44.29026" lon="5.03751">
        <ele>206</ele>
        <time>2021-02-24T15:09:01Z</time>
      </trkpt>
      <trkpt lat="44.2903" lon="5.03757">
        <ele>206</ele>
        <time>2021-02-24T15:09:02Z</time>
      </trkpt>
      <trkpt lat="44.29035" lon="5.03764">
        <ele>206</ele>
        <time>2021-02-24T15:09:03Z</time>
      </trkpt>
      <trkpt lat="44.29039" lon="5.0377">
        <ele>206</ele>
        <time>2021-02-24T15:09:04Z</time>
      </trkpt>
      <trkpt lat="44.29044" lon="5.03777">
        <ele>206</ele>
        <time>2021-02-24T15:09:05Z</time>
      </trkpt>
      <trkpt lat="44.29048" lon="5.03783">
        <ele>206</ele>
        <time>2021-02-24T15:09:06Z</time>
      </trkpt>
      <trkpt lat="44.29053" lon="5.0379">
        <ele>206</ele>
        <time>2021-02-24T15:09:07Z</time>
      </trkpt>
      <trkpt lat="44.29057" lon="5.03797">
        <ele>206</ele>
        <time>2021-02-24T15:09:08Z</time>
      </trkpt>
      <trkpt lat="44.29064" lon="5.03806">
        <ele>206</ele>
        <time>2021-02-24T15:09:09Z</time>
      </trkpt>
      <trkpt lat="44.29066" lon="5.0381">
        <ele>206</ele>
        <time>2021-02-24T15:09:10Z</time>
      </trkpt>
      <trkpt lat="44.29071" lon="5.03816">
        <ele>206</ele>
        <time>2021-02-24T15:09:11Z</time>
      </trkpt>
      <trkpt lat="44.29076" lon="5.03823">
        <ele>206</ele>
        <time>2021-02-24T15:09:12Z</time>
      </trkpt>
      <trkpt lat="44.2908" lon="5.03829">
        <ele>206</ele>
        <time>2021-02-24T15:09:13Z</time>
      </trkpt>
      <trkpt lat="44.29085" lon="5.03836">
        <ele>206</ele>
        <time>2021-02-24T15:09:14Z</time>
      </trkpt>
      <trkpt lat="44.29089" lon="5.03843">
        <ele>206.1</ele>
        <time>2021-02-24T15:09:15Z</time>
      </trkpt>
      <trkpt lat="44.29094" lon="5.03849">
        <ele>206.1</ele>
        <time>2021-02-24T15:09:16Z</time>
      </trkpt>
      <trkpt lat="44.29099" lon="5.03856">
        <ele>206.1</ele>
        <time>2021-02-24T15:09:17Z</time>
      </trkpt>
      <trkpt lat="44.29103" lon="5.03862">
        <ele>206.1</ele>
        <time>2021-02-24T15:09:18Z</time>
      </trkpt>
      <trkpt lat="44.29108" lon="5.03869">
        <ele>206.2</ele>
        <time>2021-02-24T15:09:19Z</time>
      </trkpt>
      <trkpt lat="44.29112" lon="5.03876">
        <ele>206.2</ele>
        <time>2021-02-24T15:09:20Z</time>
      </trkpt>
      <trkpt lat="44.29117" lon="5.03882">
        <ele>206.2</ele>
        <time>2021-02-24T15:09:21Z</time>
      </trkpt>
      <trkpt lat="44.29121" lon="5.03889">
        <ele>206.3</ele>
        <time>2021-02-24T15:09:22Z</time>
      </trkpt>
      <trkpt lat="44.29126" lon="5.03896">
        <ele>206.3</ele>
        <time>2021-02-24T15:09:23Z</time>
      </trkpt>
      <trkpt lat="44.2913" lon="5.03903">
        <ele>206.3</ele>
        <time>2021-02-24T15:09:24Z</time>
      </trkpt>
      <trkpt lat="44.29135" lon="5.03909">
        <ele>206.4</ele>
        <time>2021-02-24T15:09:25Z</time>
      </trkpt>
      <trkpt lat="44.29139" lon="5.03916">
        <ele>206.4</ele>
        <time>2021-02-24T15:09:26Z</time>
      </trkpt>
      <trkpt lat="44.29149" lon="5.03929">
        <ele>206.5</ele>
        <time>2021-02-24T15:09:27Z</time>
      </trkpt>
      <trkpt lat="44.29149" lon="5.03929">
        <ele>206.5</ele>
        <time>2021-02-24T15:09:28Z</time>
      </trkpt>
      <trkpt lat="44.29154" lon="5.03935">
        <ele>206.5</ele>
        <time>2021-02-24T15:09:29Z</time>
      </trkpt>
      <trkpt lat="44.29159" lon="5.03941">
        <ele>206.6</ele>
        <time>2021-02-24T15:09:30Z</time>
      </trkpt>
      <trkpt lat="44.29165" lon="5.03947">
        <ele>206.6</ele>
        <time>2021-02-24T15:09:31Z</time>
      </trkpt>
      <trkpt lat="44.2917" lon="5.03952">
        <ele>206.7</ele>
        <time>2021-02-24T15:09:32Z</time>
      </trkpt>
      <trkpt lat="44.29175" lon="5.03959">
        <ele>206.8</ele>
        <time>2021-02-24T15:09:33Z</time>
      </trkpt>
      <trkpt lat="44.29183" lon="5.03968">
        <ele>206.9</ele>
        <time>2021-02-24T15:09:34Z</time>
      </trkpt>
      <trkpt lat="44.29185" lon="5.03972">
        <ele>206.9</ele>
        <time>2021-02-24T15:09:35Z</time>
      </trkpt>
      <trkpt lat="44.29189" lon="5.03978">
        <ele>207</ele>
        <time>2021-02-24T15:09:36Z</time>
      </trkpt>
      <trkpt lat="44.29194" lon="5.03985">
        <ele>207.1</ele>
        <time>2021-02-24T15:09:37Z</time>
      </trkpt>
      <trkpt lat="44.29198" lon="5.03991">
        <ele>207.1</ele>
        <time>2021-02-24T15:09:38Z</time>
      </trkpt>
      <trkpt lat="44.29198" lon="5.03991">
        <ele>207.1</ele>
        <time>2021-02-24T15:09:39Z</time>
      </trkpt>
      <trkpt lat="44.29209" lon="5.04007">
        <ele>207.3</ele>
        <time>2021-02-24T15:09:40Z</time>
      </trkpt>
      <trkpt lat="44.29212" lon="5.0401">
        <ele>207.3</ele>
        <time>2021-02-24T15:09:41Z</time>
      </trkpt>
      <trkpt lat="44.29218" lon="5.0402">
        <ele>207.3</ele>
        <time>2021-02-24T15:09:42Z</time>
      </trkpt>
      <trkpt lat="44.2922" lon="5.04024">
        <ele>207.4</ele>
        <time>2021-02-24T15:09:43Z</time>
      </trkpt>
      <trkpt lat="44.29224" lon="5.04031">
        <ele>207.4</ele>
        <time>2021-02-24T15:09:44Z</time>
      </trkpt>
      <trkpt lat="44.29228" lon="5.04038">
        <ele>207.4</ele>
        <time>2021-02-24T15:09:45Z</time>
      </trkpt>
      <trkpt lat="44.29237" lon="5.04051">
        <ele>207.5</ele>
        <time>2021-02-24T15:09:46Z</time>
      </trkpt>
      <trkpt lat="44.29237" lon="5.04051">
        <ele>207.5</ele>
        <time>2021-02-24T15:09:47Z</time>
      </trkpt>
      <trkpt lat="44.29241" lon="5.04058">
        <ele>207.5</ele>
        <time>2021-02-24T15:09:48Z</time>
      </trkpt>
      <trkpt lat="44.29248" lon="5.04068">
        <ele>207.6</ele>
        <time>2021-02-24T15:09:49Z</time>
      </trkpt>
      <trkpt lat="44.2925" lon="5.04072">
        <ele>207.6</ele>
        <time>2021-02-24T15:09:50Z</time>
      </trkpt>
      <trkpt lat="44.29255" lon="5.04078">
        <ele>207.6</ele>
        <time>2021-02-24T15:09:51Z</time>
      </trkpt>
      <trkpt lat="44.2926" lon="5.04085">
        <ele>207.7</ele>
        <time>2021-02-24T15:09:52Z</time>
      </trkpt>
      <trkpt lat="44.29264" lon="5.04092">
        <ele>207.7</ele>
        <time>2021-02-24T15:09:53Z</time>
      </trkpt>
      <trkpt lat="44.29269" lon="5.04099">
        <ele>207.8</ele>
        <time>2021-02-24T15:09:54Z</time>
      </trkpt>
      <trkpt lat="44.29273" lon="5.04106">
        <ele>207.8</ele>
        <time>2021-02-24T15:09:55Z</time>
      </trkpt>
      <trkpt lat="44.29278" lon="5.04112">
        <ele>207.8</ele>
        <time>2021-02-24T15:09:56Z</time>
      </trkpt>
      <trkpt lat="44.29282" lon="5.04119">
        <ele>207.9</ele>
        <time>2021-02-24T15:09:57Z</time>
      </trkpt>
      <trkpt lat="44.29287" lon="5.04126">
        <ele>207.9</ele>
        <time>2021-02-24T15:09:58Z</time>
      </trkpt>
      <trkpt lat="44.29291" lon="5.04133">
        <ele>208</ele>
        <time>2021-02-24T15:09:59Z</time>
      </trkpt>
      <trkpt lat="44.29296" lon="5.04139">
        <ele>208</ele>
        <time>2021-02-24T15:10:00Z</time>
      </trkpt>
      <trkpt lat="44.293" lon="5.04146">
        <ele>208</ele>
        <time>2021-02-24T15:10:01Z</time>
      </trkpt>
      <trkpt lat="44.29305" lon="5.04153">
        <ele>208.1</ele>
        <time>2021-02-24T15:10:02Z</time>
      </trkpt>
      <trkpt lat="44.2931" lon="5.0416">
        <ele>208.1</ele>
        <time>2021-02-24T15:10:03Z</time>
      </trkpt>
      <trkpt lat="44.29314" lon="5.04166">
        <ele>208.1</ele>
        <time>2021-02-24T15:10:04Z</time>
      </trkpt>
      <trkpt lat="44.29323" lon="5.0418">
        <ele>208.1</ele>
        <time>2021-02-24T15:10:05Z</time>
      </trkpt>
      <trkpt lat="44.29323" lon="5.0418">
        <ele>208.1</ele>
        <time>2021-02-24T15:10:06Z</time>
      </trkpt>
      <trkpt lat="44.29328" lon="5.04187">
        <ele>208.1</ele>
        <time>2021-02-24T15:10:07Z</time>
      </trkpt>
      <trkpt lat="44.29333" lon="5.04194">
        <ele>208.1</ele>
        <time>2021-02-24T15:10:08Z</time>
      </trkpt>
      <trkpt lat="44.29337" lon="5.042">
        <ele>208.1</ele>
        <time>2021-02-24T15:10:09Z</time>
      </trkpt>
      <trkpt lat="44.29342" lon="5.04207">
        <ele>208.2</ele>
        <time>2021-02-24T15:10:10Z</time>
      </trkpt>
      <trkpt lat="44.29349" lon="5.04218">
        <ele>208.2</ele>
        <time>2021-02-24T15:10:11Z</time>
      </trkpt>
      <trkpt lat="44.29351" lon="5.04222">
        <ele>208.2</ele>
        <time>2021-02-24T15:10:12Z</time>
      </trkpt>
      <trkpt lat="44.29355" lon="5.0423">
        <ele>208.3</ele>
        <time>2021-02-24T15:10:13Z</time>
      </trkpt>
      <trkpt lat="44.29359" lon="5.04237">
        <ele>208.3</ele>
        <time>2021-02-24T15:10:14Z</time>
      </trkpt>
      <trkpt lat="44.29363" lon="5.04245">
        <ele>208.3</ele>
        <time>2021-02-24T15:10:15Z</time>
      </trkpt>
      <trkpt lat="44.29366" lon="5.04253">
        <ele>208.3</ele>
        <time>2021-02-24T15:10:16Z</time>
      </trkpt>
      <trkpt lat="44.2937" lon="5.04261">
        <ele>208.4</ele>
        <time>2021-02-24T15:10:17Z</time>
      </trkpt>
      <trkpt lat="44.29373" lon="5.04269">
        <ele>208.4</ele>
        <time>2021-02-24T15:10:18Z</time>
      </trkpt>
      <trkpt lat="44.29377" lon="5.04277">
        <ele>208.4</ele>
        <time>2021-02-24T15:10:19Z</time>
      </trkpt>
      <trkpt lat="44.29381" lon="5.04285">
        <ele>208.5</ele>
        <time>2021-02-24T15:10:20Z</time>
      </trkpt>
      <trkpt lat="44.29384" lon="5.04293">
        <ele>208.5</ele>
        <time>2021-02-24T15:10:21Z</time>
      </trkpt>
      <trkpt lat="44.29388" lon="5.04301">
        <ele>208.6</ele>
        <time>2021-02-24T15:10:22Z</time>
      </trkpt>
      <trkpt lat="44.29392" lon="5.04309">
        <ele>208.6</ele>
        <time>2021-02-24T15:10:23Z</time>
      </trkpt>
      <trkpt lat="44.29399" lon="5.04324">
        <ele>208.7</ele>
        <time>2021-02-24T15:10:24Z</time>
      </trkpt>
      <trkpt lat="44.29399" lon="5.04324">
        <ele>208.7</ele>
        <time>2021-02-24T15:10:25Z</time>
      </trkpt>
      <trkpt lat="44.29403" lon="5.04332">
        <ele>208.7</ele>
        <time>2021-02-24T15:10:26Z</time>
      </trkpt>
      <trkpt lat="44.29406" lon="5.0434">
        <ele>208.8</ele>
        <time>2021-02-24T15:10:27Z</time>
      </trkpt>
      <trkpt lat="44.2941" lon="5.04348">
        <ele>208.8</ele>
        <time>2021-02-24T15:10:28Z</time>
      </trkpt>
      <trkpt lat="44.29414" lon="5.04355">
        <ele>208.9</ele>
        <time>2021-02-24T15:10:29Z</time>
      </trkpt>
      <trkpt lat="44.29417" lon="5.04363">
        <ele>209</ele>
        <time>2021-02-24T15:10:30Z</time>
      </trkpt>
      <trkpt lat="44.29421" lon="5.0437">
        <ele>209</ele>
        <time>2021-02-24T15:10:31Z</time>
      </trkpt>
      <trkpt lat="44.29424" lon="5.04378">
        <ele>209.1</ele>
        <time>2021-02-24T15:10:32Z</time>
      </trkpt>
      <trkpt lat="44.29427" lon="5.04386">
        <ele>209.2</ele>
        <time>2021-02-24T15:10:33Z</time>
      </trkpt>
      <trkpt lat="44.29433" lon="5.04397">
        <ele>209.3</ele>
        <time>2021-02-24T15:10:34Z</time>
      </trkpt>
      <trkpt lat="44.29434" lon="5.04401">
        <ele>209.3</ele>
        <time>2021-02-24T15:10:35Z</time>
      </trkpt>
      <trkpt lat="44.29438" lon="5.04408">
        <ele>209.4</ele>
        <time>2021-02-24T15:10:36Z</time>
      </trkpt>
      <trkpt lat="44.29441" lon="5.04415">
        <ele>209.5</ele>
        <time>2021-02-24T15:10:37Z</time>
      </trkpt>
      <trkpt lat="44.29444" lon="5.04423">
        <ele>209.5</ele>
        <time>2021-02-24T15:10:38Z</time>
      </trkpt>
      <trkpt lat="44.29448" lon="5.0443">
        <ele>209.5</ele>
        <time>2021-02-24T15:10:39Z</time>
      </trkpt>
      <trkpt lat="44.29451" lon="5.04437">
        <ele>209.5</ele>
        <time>2021-02-24T15:10:40Z</time>
      </trkpt>
      <trkpt lat="44.29454" lon="5.04445">
        <ele>209.6</ele>
        <time>2021-02-24T15:10:41Z</time>
      </trkpt>
      <trkpt lat="44.29458" lon="5.04452">
        <ele>209.6</ele>
        <time>2021-02-24T15:10:42Z</time>
      </trkpt>
      <trkpt lat="44.29461" lon="5.04459">
        <ele>209.6</ele>
        <time>2021-02-24T15:10:43Z</time>
      </trkpt>
      <trkpt lat="44.29466" lon="5.0447">
        <ele>209.6</ele>
        <time>2021-02-24T15:10:44Z</time>
      </trkpt>
      <trkpt lat="44.29468" lon="5.04474">
        <ele>209.7</ele>
        <time>2021-02-24T15:10:45Z</time>
      </trkpt>
      <trkpt lat="44.29471" lon="5.04481">
        <ele>209.7</ele>
        <time>2021-02-24T15:10:46Z</time>
      </trkpt>
      <trkpt lat="44.29475" lon="5.04488">
        <ele>209.7</ele>
        <time>2021-02-24T15:10:47Z</time>
      </trkpt>
      <trkpt lat="44.29478" lon="5.04495">
        <ele>209.8</ele>
        <time>2021-02-24T15:10:48Z</time>
      </trkpt>
      <trkpt lat="44.29484" lon="5.0451">
        <ele>209.8</ele>
        <time>2021-02-24T15:10:49Z</time>
      </trkpt>
      <trkpt lat="44.29484" lon="5.0451">
        <ele>209.8</ele>
        <time>2021-02-24T15:10:50Z</time>
      </trkpt>
      <trkpt lat="44.29488" lon="5.04517">
        <ele>209.9</ele>
        <time>2021-02-24T15:10:51Z</time>
      </trkpt>
      <trkpt lat="44.29491" lon="5.04524">
        <ele>209.9</ele>
        <time>2021-02-24T15:10:52Z</time>
      </trkpt>
      <trkpt lat="44.29494" lon="5.04531">
        <ele>210</ele>
        <time>2021-02-24T15:10:53Z</time>
      </trkpt>
      <trkpt lat="44.29498" lon="5.04538">
        <ele>210</ele>
        <time>2021-02-24T15:10:54Z</time>
      </trkpt>
      <trkpt lat="44.29501" lon="5.04545">
        <ele>210.1</ele>
        <time>2021-02-24T15:10:55Z</time>
      </trkpt>
      <trkpt lat="44.29504" lon="5.04552">
        <ele>210.1</ele>
        <time>2021-02-24T15:10:56Z</time>
      </trkpt>
      <trkpt lat="44.29508" lon="5.04559">
        <ele>210.2</ele>
        <time>2021-02-24T15:10:57Z</time>
      </trkpt>
      <trkpt lat="44.29512" lon="5.0457">
        <ele>210.2</ele>
        <time>2021-02-24T15:10:58Z</time>
      </trkpt>
      <trkpt lat="44.29514" lon="5.04574">
        <ele>210.2</ele>
        <time>2021-02-24T15:10:59Z</time>
      </trkpt>
      <trkpt lat="44.29517" lon="5.04581">
        <ele>210.3</ele>
        <time>2021-02-24T15:11:00Z</time>
      </trkpt>
      <trkpt lat="44.2952" lon="5.04587">
        <ele>210.3</ele>
        <time>2021-02-24T15:11:01Z</time>
      </trkpt>
      <trkpt lat="44.29527" lon="5.04601">
        <ele>210.4</ele>
        <time>2021-02-24T15:11:02Z</time>
      </trkpt>
      <trkpt lat="44.29527" lon="5.04601">
        <ele>210.4</ele>
        <time>2021-02-24T15:11:03Z</time>
      </trkpt>
      <trkpt lat="44.2953" lon="5.04609">
        <ele>210.4</ele>
        <time>2021-02-24T15:11:04Z</time>
      </trkpt>
      <trkpt lat="44.29533" lon="5.04616">
        <ele>210.4</ele>
        <time>2021-02-24T15:11:05Z</time>
      </trkpt>
      <trkpt lat="44.29538" lon="5.04627">
        <ele>210.5</ele>
        <time>2021-02-24T15:11:06Z</time>
      </trkpt>
      <trkpt lat="44.2954" lon="5.0463">
        <ele>210.5</ele>
        <time>2021-02-24T15:11:07Z</time>
      </trkpt>
      <trkpt lat="44.29543" lon="5.04638">
        <ele>210.5</ele>
        <time>2021-02-24T15:11:08Z</time>
      </trkpt>
      <trkpt lat="44.29547" lon="5.04645">
        <ele>210.5</ele>
        <time>2021-02-24T15:11:09Z</time>
      </trkpt>
      <trkpt lat="44.2955" lon="5.04652">
        <ele>210.6</ele>
        <time>2021-02-24T15:11:10Z</time>
      </trkpt>
      <trkpt lat="44.29554" lon="5.0466">
        <ele>210.6</ele>
        <time>2021-02-24T15:11:11Z</time>
      </trkpt>
      <trkpt lat="44.29558" lon="5.04667">
        <ele>210.7</ele>
        <time>2021-02-24T15:11:12Z</time>
      </trkpt>
      <trkpt lat="44.29561" lon="5.04675">
        <ele>210.7</ele>
        <time>2021-02-24T15:11:13Z</time>
      </trkpt>
      <trkpt lat="44.29565" lon="5.04683">
        <ele>210.7</ele>
        <time>2021-02-24T15:11:14Z</time>
      </trkpt>
      <trkpt lat="44.29568" lon="5.0469">
        <ele>210.8</ele>
        <time>2021-02-24T15:11:15Z</time>
      </trkpt>
      <trkpt lat="44.29572" lon="5.04698">
        <ele>210.8</ele>
        <time>2021-02-24T15:11:16Z</time>
      </trkpt>
      <trkpt lat="44.29575" lon="5.04705">
        <ele>210.9</ele>
        <time>2021-02-24T15:11:17Z</time>
      </trkpt>
      <trkpt lat="44.29579" lon="5.04712">
        <ele>210.9</ele>
        <time>2021-02-24T15:11:18Z</time>
      </trkpt>
      <trkpt lat="44.29583" lon="5.04719">
        <ele>210.9</ele>
        <time>2021-02-24T15:11:19Z</time>
      </trkpt>
      <trkpt lat="44.29587" lon="5.04726">
        <ele>210.9</ele>
        <time>2021-02-24T15:11:20Z</time>
      </trkpt>
      <trkpt lat="44.29591" lon="5.04732">
        <ele>210.9</ele>
        <time>2021-02-24T15:11:21Z</time>
      </trkpt>
      <trkpt lat="44.29595" lon="5.04738">
        <ele>210.9</ele>
        <time>2021-02-24T15:11:22Z</time>
      </trkpt>
      <trkpt lat="44.296" lon="5.04744">
        <ele>211</ele>
        <time>2021-02-24T15:11:23Z</time>
      </trkpt>
      <trkpt lat="44.29605" lon="5.04749">
        <ele>211</ele>
        <time>2021-02-24T15:11:24Z</time>
      </trkpt>
      <trkpt lat="44.2961" lon="5.04754">
        <ele>211</ele>
        <time>2021-02-24T15:11:25Z</time>
      </trkpt>
      <trkpt lat="44.29615" lon="5.04758">
        <ele>211</ele>
        <time>2021-02-24T15:11:26Z</time>
      </trkpt>
      <trkpt lat="44.2962" lon="5.04763">
        <ele>211</ele>
        <time>2021-02-24T15:11:27Z</time>
      </trkpt>
      <trkpt lat="44.29625" lon="5.04767">
        <ele>211</ele>
        <time>2021-02-24T15:11:28Z</time>
      </trkpt>
      <trkpt lat="44.2963" lon="5.04771">
        <ele>211</ele>
        <time>2021-02-24T15:11:29Z</time>
      </trkpt>
      <trkpt lat="44.29635" lon="5.04776">
        <ele>211.1</ele>
        <time>2021-02-24T15:11:30Z</time>
      </trkpt>
      <trkpt lat="44.29643" lon="5.04782">
        <ele>211.1</ele>
        <time>2021-02-24T15:11:31Z</time>
      </trkpt>
      <trkpt lat="44.29645" lon="5.04784">
        <ele>211.1</ele>
        <time>2021-02-24T15:11:32Z</time>
      </trkpt>
      <trkpt lat="44.2965" lon="5.04788">
        <ele>211.1</ele>
        <time>2021-02-24T15:11:33Z</time>
      </trkpt>
      <trkpt lat="44.29656" lon="5.04793">
        <ele>211</ele>
        <time>2021-02-24T15:11:34Z</time>
      </trkpt>
      <trkpt lat="44.29661" lon="5.04797">
        <ele>210.9</ele>
        <time>2021-02-24T15:11:35Z</time>
      </trkpt>
      <trkpt lat="44.29667" lon="5.04801">
        <ele>210.8</ele>
        <time>2021-02-24T15:11:36Z</time>
      </trkpt>
      <trkpt lat="44.29672" lon="5.04806">
        <ele>210.7</ele>
        <time>2021-02-24T15:11:37Z</time>
      </trkpt>
      <trkpt lat="44.29678" lon="5.0481">
        <ele>210.6</ele>
        <time>2021-02-24T15:11:38Z</time>
      </trkpt>
      <trkpt lat="44.29684" lon="5.04815">
        <ele>210.5</ele>
        <time>2021-02-24T15:11:39Z</time>
      </trkpt>
      <trkpt lat="44.2969" lon="5.0482">
        <ele>210.4</ele>
        <time>2021-02-24T15:11:40Z</time>
      </trkpt>
      <trkpt lat="44.29699" lon="5.04827">
        <ele>210.3</ele>
        <time>2021-02-24T15:11:41Z</time>
      </trkpt>
      <trkpt lat="44.29702" lon="5.0483">
        <ele>210.2</ele>
        <time>2021-02-24T15:11:42Z</time>
      </trkpt>
      <trkpt lat="44.29707" lon="5.04835">
        <ele>210.1</ele>
        <time>2021-02-24T15:11:43Z</time>
      </trkpt>
      <trkpt lat="44.29713" lon="5.0484">
        <ele>210</ele>
        <time>2021-02-24T15:11:44Z</time>
      </trkpt>
      <trkpt lat="44.29719" lon="5.04845">
        <ele>209.9</ele>
        <time>2021-02-24T15:11:45Z</time>
      </trkpt>
      <trkpt lat="44.29725" lon="5.0485">
        <ele>209.8</ele>
        <time>2021-02-24T15:11:46Z</time>
      </trkpt>
      <trkpt lat="44.29731" lon="5.04855">
        <ele>209.7</ele>
        <time>2021-02-24T15:11:47Z</time>
      </trkpt>
      <trkpt lat="44.29737" lon="5.0486">
        <ele>209.6</ele>
        <time>2021-02-24T15:11:48Z</time>
      </trkpt>
      <trkpt lat="44.29743" lon="5.04865">
        <ele>209.5</ele>
        <time>2021-02-24T15:11:49Z</time>
      </trkpt>
      <trkpt lat="44.2975" lon="5.0487">
        <ele>209.4</ele>
        <time>2021-02-24T15:11:50Z</time>
      </trkpt>
      <trkpt lat="44.29756" lon="5.04875">
        <ele>209.3</ele>
        <time>2021-02-24T15:11:51Z</time>
      </trkpt>
      <trkpt lat="44.29762" lon="5.0488">
        <ele>209.1</ele>
        <time>2021-02-24T15:11:52Z</time>
      </trkpt>
      <trkpt lat="44.29772" lon="5.04888">
        <ele>208.9</ele>
        <time>2021-02-24T15:11:53Z</time>
      </trkpt>
      <trkpt lat="44.29775" lon="5.04891">
        <ele>208.9</ele>
        <time>2021-02-24T15:11:54Z</time>
      </trkpt>
      <trkpt lat="44.29781" lon="5.04897">
        <ele>208.8</ele>
        <time>2021-02-24T15:11:55Z</time>
      </trkpt>
      <trkpt lat="44.29788" lon="5.04902">
        <ele>208.7</ele>
        <time>2021-02-24T15:11:56Z</time>
      </trkpt>
      <trkpt lat="44.29794" lon="5.04908">
        <ele>208.7</ele>
        <time>2021-02-24T15:11:57Z</time>
      </trkpt>
      <trkpt lat="44.29801" lon="5.04913">
        <ele>208.6</ele>
        <time>2021-02-24T15:11:58Z</time>
      </trkpt>
      <trkpt lat="44.29814" lon="5.04923">
        <ele>208.5</ele>
        <time>2021-02-24T15:11:59Z</time>
      </trkpt>
      <trkpt lat="44.29814" lon="5.04923">
        <ele>208.5</ele>
        <time>2021-02-24T15:12:00Z</time>
      </trkpt>
      <trkpt lat="44.29821" lon="5.04929">
        <ele>208.5</ele>
        <time>2021-02-24T15:12:01Z</time>
      </trkpt>
      <trkpt lat="44.29827" lon="5.04933">
        <ele>208.5</ele>
        <time>2021-02-24T15:12:02Z</time>
      </trkpt>
      <trkpt lat="44.29834" lon="5.04938">
        <ele>208.4</ele>
        <time>2021-02-24T15:12:03Z</time>
      </trkpt>
      <trkpt lat="44.29841" lon="5.04942">
        <ele>208.4</ele>
        <time>2021-02-24T15:12:04Z</time>
      </trkpt>
      <trkpt lat="44.29848" lon="5.04946">
        <ele>208.3</ele>
        <time>2021-02-24T15:12:05Z</time>
      </trkpt>
      <trkpt lat="44.29858" lon="5.04952">
        <ele>208.3</ele>
        <time>2021-02-24T15:12:06Z</time>
      </trkpt>
      <trkpt lat="44.29862" lon="5.04953">
        <ele>208.3</ele>
        <time>2021-02-24T15:12:07Z</time>
      </trkpt>
      <trkpt lat="44.29868" lon="5.04957">
        <ele>208.2</ele>
        <time>2021-02-24T15:12:08Z</time>
      </trkpt>
      <trkpt lat="44.29875" lon="5.04961">
        <ele>208.2</ele>
        <time>2021-02-24T15:12:09Z</time>
      </trkpt>
      <trkpt lat="44.29882" lon="5.04965">
        <ele>208.2</ele>
        <time>2021-02-24T15:12:10Z</time>
      </trkpt>
      <trkpt lat="44.29889" lon="5.04969">
        <ele>208.2</ele>
        <time>2021-02-24T15:12:11Z</time>
      </trkpt>
      <trkpt lat="44.29896" lon="5.04973">
        <ele>208.2</ele>
        <time>2021-02-24T15:12:12Z</time>
      </trkpt>
      <trkpt lat="44.29903" lon="5.04976">
        <ele>208.2</ele>
        <time>2021-02-24T15:12:13Z</time>
      </trkpt>
      <trkpt lat="44.29909" lon="5.0498">
        <ele>208.2</ele>
        <time>2021-02-24T15:12:14Z</time>
      </trkpt>
      <trkpt lat="44.29916" lon="5.04985">
        <ele>208.2</ele>
        <time>2021-02-24T15:12:15Z</time>
      </trkpt>
      <trkpt lat="44.29923" lon="5.04989">
        <ele>208.2</ele>
        <time>2021-02-24T15:12:16Z</time>
      </trkpt>
      <trkpt lat="44.29929" lon="5.04994">
        <ele>208.2</ele>
        <time>2021-02-24T15:12:17Z</time>
      </trkpt>
      <trkpt lat="44.29936" lon="5.04998">
        <ele>208.2</ele>
        <time>2021-02-24T15:12:18Z</time>
      </trkpt>
      <trkpt lat="44.29942" lon="5.05003">
        <ele>208.2</ele>
        <time>2021-02-24T15:12:19Z</time>
      </trkpt>
      <trkpt lat="44.29948" lon="5.05008">
        <ele>208.2</ele>
        <time>2021-02-24T15:12:20Z</time>
      </trkpt>
      <trkpt lat="44.29953" lon="5.05014">
        <ele>208.2</ele>
        <time>2021-02-24T15:12:21Z</time>
      </trkpt>
      <trkpt lat="44.29959" lon="5.05019">
        <ele>208.2</ele>
        <time>2021-02-24T15:12:22Z</time>
      </trkpt>
      <trkpt lat="44.29965" lon="5.05025">
        <ele>208.2</ele>
        <time>2021-02-24T15:12:23Z</time>
      </trkpt>
      <trkpt lat="44.2997" lon="5.05031">
        <ele>208.2</ele>
        <time>2021-02-24T15:12:24Z</time>
      </trkpt>
      <trkpt lat="44.29975" lon="5.05037">
        <ele>208.2</ele>
        <time>2021-02-24T15:12:25Z</time>
      </trkpt>
      <trkpt lat="44.2998" lon="5.05044">
        <ele>208.3</ele>
        <time>2021-02-24T15:12:26Z</time>
      </trkpt>
      <trkpt lat="44.29987" lon="5.05054">
        <ele>208.4</ele>
        <time>2021-02-24T15:12:27Z</time>
      </trkpt>
      <trkpt lat="44.2999" lon="5.05058">
        <ele>208.4</ele>
        <time>2021-02-24T15:12:28Z</time>
      </trkpt>
      <trkpt lat="44.29994" lon="5.05065">
        <ele>208.4</ele>
        <time>2021-02-24T15:12:29Z</time>
      </trkpt>
      <trkpt lat="44.29998" lon="5.05072">
        <ele>208.5</ele>
        <time>2021-02-24T15:12:30Z</time>
      </trkpt>
      <trkpt lat="44.30003" lon="5.0508">
        <ele>208.5</ele>
        <time>2021-02-24T15:12:31Z</time>
      </trkpt>
      <trkpt lat="44.30007" lon="5.05087">
        <ele>208.6</ele>
        <time>2021-02-24T15:12:32Z</time>
      </trkpt>
      <trkpt lat="44.30011" lon="5.05095">
        <ele>208.6</ele>
        <time>2021-02-24T15:12:33Z</time>
      </trkpt>
      <trkpt lat="44.30015" lon="5.05103">
        <ele>208.7</ele>
        <time>2021-02-24T15:12:34Z</time>
      </trkpt>
      <trkpt lat="44.30019" lon="5.0511">
        <ele>208.7</ele>
        <time>2021-02-24T15:12:35Z</time>
      </trkpt>
      <trkpt lat="44.30022" lon="5.05117">
        <ele>208.8</ele>
        <time>2021-02-24T15:12:36Z</time>
      </trkpt>
      <trkpt lat="44.30026" lon="5.05125">
        <ele>208.8</ele>
        <time>2021-02-24T15:12:37Z</time>
      </trkpt>
      <trkpt lat="44.30032" lon="5.05136">
        <ele>208.9</ele>
        <time>2021-02-24T15:12:38Z</time>
      </trkpt>
      <trkpt lat="44.30034" lon="5.05139">
        <ele>208.9</ele>
        <time>2021-02-24T15:12:39Z</time>
      </trkpt>
      <trkpt lat="44.30038" lon="5.05147">
        <ele>209</ele>
        <time>2021-02-24T15:12:40Z</time>
      </trkpt>
      <trkpt lat="44.30041" lon="5.05154">
        <ele>209</ele>
        <time>2021-02-24T15:12:41Z</time>
      </trkpt>
      <trkpt lat="44.30045" lon="5.05162">
        <ele>209</ele>
        <time>2021-02-24T15:12:42Z</time>
      </trkpt>
      <trkpt lat="44.30049" lon="5.0517">
        <ele>209.1</ele>
        <time>2021-02-24T15:12:43Z</time>
      </trkpt>
      <trkpt lat="44.30053" lon="5.05178">
        <ele>209.1</ele>
        <time>2021-02-24T15:12:44Z</time>
      </trkpt>
      <trkpt lat="44.30057" lon="5.05185">
        <ele>209.2</ele>
        <time>2021-02-24T15:12:45Z</time>
      </trkpt>
      <trkpt lat="44.30062" lon="5.05193">
        <ele>209.2</ele>
        <time>2021-02-24T15:12:46Z</time>
      </trkpt>
      <trkpt lat="44.30066" lon="5.052">
        <ele>209.3</ele>
        <time>2021-02-24T15:12:47Z</time>
      </trkpt>
      <trkpt lat="44.3007" lon="5.05208">
        <ele>209.3</ele>
        <time>2021-02-24T15:12:48Z</time>
      </trkpt>
      <trkpt lat="44.30075" lon="5.05216">
        <ele>209.4</ele>
        <time>2021-02-24T15:12:49Z</time>
      </trkpt>
      <trkpt lat="44.30079" lon="5.05223">
        <ele>209.4</ele>
        <time>2021-02-24T15:12:50Z</time>
      </trkpt>
      <trkpt lat="44.30084" lon="5.0523">
        <ele>209.5</ele>
        <time>2021-02-24T15:12:51Z</time>
      </trkpt>
      <trkpt lat="44.30088" lon="5.05237">
        <ele>209.5</ele>
        <time>2021-02-24T15:12:52Z</time>
      </trkpt>
      <trkpt lat="44.30093" lon="5.05244">
        <ele>209.6</ele>
        <time>2021-02-24T15:12:53Z</time>
      </trkpt>
      <trkpt lat="44.30097" lon="5.05251">
        <ele>209.6</ele>
        <time>2021-02-24T15:12:54Z</time>
      </trkpt>
      <trkpt lat="44.30102" lon="5.05258">
        <ele>209.7</ele>
        <time>2021-02-24T15:12:55Z</time>
      </trkpt>
      <trkpt lat="44.30106" lon="5.05265">
        <ele>209.8</ele>
        <time>2021-02-24T15:12:56Z</time>
      </trkpt>
      <trkpt lat="44.30111" lon="5.05271">
        <ele>209.9</ele>
        <time>2021-02-24T15:12:57Z</time>
      </trkpt>
      <trkpt lat="44.30116" lon="5.05278">
        <ele>209.9</ele>
        <time>2021-02-24T15:12:58Z</time>
      </trkpt>
      <trkpt lat="44.3012" lon="5.05285">
        <ele>210</ele>
        <time>2021-02-24T15:12:59Z</time>
      </trkpt>
      <trkpt lat="44.30125" lon="5.05292">
        <ele>210.1</ele>
        <time>2021-02-24T15:13:00Z</time>
      </trkpt>
      <trkpt lat="44.30129" lon="5.05298">
        <ele>210.2</ele>
        <time>2021-02-24T15:13:01Z</time>
      </trkpt>
      <trkpt lat="44.30134" lon="5.05305">
        <ele>210.3</ele>
        <time>2021-02-24T15:13:02Z</time>
      </trkpt>
      <trkpt lat="44.30138" lon="5.05312">
        <ele>210.3</ele>
        <time>2021-02-24T15:13:03Z</time>
      </trkpt>
      <trkpt lat="44.30145" lon="5.05321">
        <ele>210.5</ele>
        <time>2021-02-24T15:13:04Z</time>
      </trkpt>
      <trkpt lat="44.30147" lon="5.05324">
        <ele>210.5</ele>
        <time>2021-02-24T15:13:05Z</time>
      </trkpt>
      <trkpt lat="44.30151" lon="5.05331">
        <ele>210.6</ele>
        <time>2021-02-24T15:13:06Z</time>
      </trkpt>
      <trkpt lat="44.30156" lon="5.05337">
        <ele>210.7</ele>
        <time>2021-02-24T15:13:07Z</time>
      </trkpt>
      <trkpt lat="44.3016" lon="5.05344">
        <ele>210.8</ele>
        <time>2021-02-24T15:13:08Z</time>
      </trkpt>
      <trkpt lat="44.30164" lon="5.0535">
        <ele>210.8</ele>
        <time>2021-02-24T15:13:09Z</time>
      </trkpt>
      <trkpt lat="44.30168" lon="5.05357">
        <ele>210.9</ele>
        <time>2021-02-24T15:13:10Z</time>
      </trkpt>
      <trkpt lat="44.30173" lon="5.05363">
        <ele>211</ele>
        <time>2021-02-24T15:13:11Z</time>
      </trkpt>
      <trkpt lat="44.30177" lon="5.05369">
        <ele>211.1</ele>
        <time>2021-02-24T15:13:12Z</time>
      </trkpt>
      <trkpt lat="44.30181" lon="5.05375">
        <ele>211.2</ele>
        <time>2021-02-24T15:13:13Z</time>
      </trkpt>
      <trkpt lat="44.30185" lon="5.05381">
        <ele>211.2</ele>
        <time>2021-02-24T15:13:14Z</time>
      </trkpt>
      <trkpt lat="44.30189" lon="5.05387">
        <ele>211.3</ele>
        <time>2021-02-24T15:13:15Z</time>
      </trkpt>
      <trkpt lat="44.30195" lon="5.05396">
        <ele>211.5</ele>
        <time>2021-02-24T15:13:16Z</time>
      </trkpt>
      <trkpt lat="44.30197" lon="5.05399">
        <ele>211.5</ele>
        <time>2021-02-24T15:13:17Z</time>
      </trkpt>
      <trkpt lat="44.30201" lon="5.05405">
        <ele>211.6</ele>
        <time>2021-02-24T15:13:18Z</time>
      </trkpt>
      <trkpt lat="44.30205" lon="5.05411">
        <ele>211.8</ele>
        <time>2021-02-24T15:13:19Z</time>
      </trkpt>
      <trkpt lat="44.30209" lon="5.05417">
        <ele>211.9</ele>
        <time>2021-02-24T15:13:20Z</time>
      </trkpt>
      <trkpt lat="44.30212" lon="5.05423">
        <ele>212</ele>
        <time>2021-02-24T15:13:21Z</time>
      </trkpt>
      <trkpt lat="44.30216" lon="5.05429">
        <ele>212.1</ele>
        <time>2021-02-24T15:13:22Z</time>
      </trkpt>
      <trkpt lat="44.3022" lon="5.05434">
        <ele>212.2</ele>
        <time>2021-02-24T15:13:23Z</time>
      </trkpt>
      <trkpt lat="44.30224" lon="5.0544">
        <ele>212.3</ele>
        <time>2021-02-24T15:13:24Z</time>
      </trkpt>
      <trkpt lat="44.30228" lon="5.05446">
        <ele>212.4</ele>
        <time>2021-02-24T15:13:25Z</time>
      </trkpt>
      <trkpt lat="44.30231" lon="5.05452">
        <ele>212.4</ele>
        <time>2021-02-24T15:13:26Z</time>
      </trkpt>
      <trkpt lat="44.30235" lon="5.05458">
        <ele>212.5</ele>
        <time>2021-02-24T15:13:27Z</time>
      </trkpt>
      <trkpt lat="44.30239" lon="5.05464">
        <ele>212.5</ele>
        <time>2021-02-24T15:13:28Z</time>
      </trkpt>
      <trkpt lat="44.30243" lon="5.0547">
        <ele>212.6</ele>
        <time>2021-02-24T15:13:29Z</time>
      </trkpt>
      <trkpt lat="44.30247" lon="5.05476">
        <ele>212.6</ele>
        <time>2021-02-24T15:13:30Z</time>
      </trkpt>
      <trkpt lat="44.30251" lon="5.05482">
        <ele>212.6</ele>
        <time>2021-02-24T15:13:31Z</time>
      </trkpt>
      <trkpt lat="44.30255" lon="5.05489">
        <ele>212.7</ele>
        <time>2021-02-24T15:13:32Z</time>
      </trkpt>
      <trkpt lat="44.3026" lon="5.05496">
        <ele>212.7</ele>
        <time>2021-02-24T15:13:33Z</time>
      </trkpt>
      <trkpt lat="44.30264" lon="5.05503">
        <ele>212.7</ele>
        <time>2021-02-24T15:13:34Z</time>
      </trkpt>
      <trkpt lat="44.30269" lon="5.05513">
        <ele>212.8</ele>
        <time>2021-02-24T15:13:35Z</time>
      </trkpt>
      <trkpt lat="44.30271" lon="5.05517">
        <ele>212.8</ele>
        <time>2021-02-24T15:13:36Z</time>
      </trkpt>
      <trkpt lat="44.30275" lon="5.05524">
        <ele>212.8</ele>
        <time>2021-02-24T15:13:37Z</time>
      </trkpt>
      <trkpt lat="44.30279" lon="5.05531">
        <ele>212.8</ele>
        <time>2021-02-24T15:13:38Z</time>
      </trkpt>
      <trkpt lat="44.30283" lon="5.05538">
        <ele>212.8</ele>
        <time>2021-02-24T15:13:39Z</time>
      </trkpt>
      <trkpt lat="44.30287" lon="5.05546">
        <ele>212.9</ele>
        <time>2021-02-24T15:13:40Z</time>
      </trkpt>
      <trkpt lat="44.30291" lon="5.05553">
        <ele>212.9</ele>
        <time>2021-02-24T15:13:41Z</time>
      </trkpt>
      <trkpt lat="44.30295" lon="5.05561">
        <ele>212.9</ele>
        <time>2021-02-24T15:13:42Z</time>
      </trkpt>
      <trkpt lat="44.30299" lon="5.05568">
        <ele>212.9</ele>
        <time>2021-02-24T15:13:43Z</time>
      </trkpt>
      <trkpt lat="44.30303" lon="5.05576">
        <ele>212.9</ele>
        <time>2021-02-24T15:13:44Z</time>
      </trkpt>
      <trkpt lat="44.30308" lon="5.05587">
        <ele>213</ele>
        <time>2021-02-24T15:13:45Z</time>
      </trkpt>
      <trkpt lat="44.3031" lon="5.05591">
        <ele>213</ele>
        <time>2021-02-24T15:13:46Z</time>
      </trkpt>
      <trkpt lat="44.30314" lon="5.05598">
        <ele>213</ele>
        <time>2021-02-24T15:13:47Z</time>
      </trkpt>
      <trkpt lat="44.30318" lon="5.05605">
        <ele>213</ele>
        <time>2021-02-24T15:13:48Z</time>
      </trkpt>
      <trkpt lat="44.30322" lon="5.05613">
        <ele>213</ele>
        <time>2021-02-24T15:13:49Z</time>
      </trkpt>
      <trkpt lat="44.30325" lon="5.0562">
        <ele>213</ele>
        <time>2021-02-24T15:13:50Z</time>
      </trkpt>
      <trkpt lat="44.30329" lon="5.05627">
        <ele>213</ele>
        <time>2021-02-24T15:13:51Z</time>
      </trkpt>
      <trkpt lat="44.30333" lon="5.05635">
        <ele>213</ele>
        <time>2021-02-24T15:13:52Z</time>
      </trkpt>
      <trkpt lat="44.30337" lon="5.05642">
        <ele>213</ele>
        <time>2021-02-24T15:13:53Z</time>
      </trkpt>
      <trkpt lat="44.30341" lon="5.05649">
        <ele>213</ele>
        <time>2021-02-24T15:13:54Z</time>
      </trkpt>
      <trkpt lat="44.30345" lon="5.05656">
        <ele>213.1</ele>
        <time>2021-02-24T15:13:55Z</time>
      </trkpt>
      <trkpt lat="44.30348" lon="5.05663">
        <ele>213.1</ele>
        <time>2021-02-24T15:13:56Z</time>
      </trkpt>
      <trkpt lat="44.30352" lon="5.0567">
        <ele>213.2</ele>
        <time>2021-02-24T15:13:57Z</time>
      </trkpt>
      <trkpt lat="44.30355" lon="5.05678">
        <ele>213.2</ele>
        <time>2021-02-24T15:13:58Z</time>
      </trkpt>
      <trkpt lat="44.30359" lon="5.05685">
        <ele>213.3</ele>
        <time>2021-02-24T15:13:59Z</time>
      </trkpt>
      <trkpt lat="44.30363" lon="5.05692">
        <ele>213.3</ele>
        <time>2021-02-24T15:14:00Z</time>
      </trkpt>
      <trkpt lat="44.30367" lon="5.05699">
        <ele>213.4</ele>
        <time>2021-02-24T15:14:01Z</time>
      </trkpt>
      <trkpt lat="44.3037" lon="5.05706">
        <ele>213.4</ele>
        <time>2021-02-24T15:14:02Z</time>
      </trkpt>
      <trkpt lat="44.30374" lon="5.05714">
        <ele>213.5</ele>
        <time>2021-02-24T15:14:03Z</time>
      </trkpt>
      <trkpt lat="44.30378" lon="5.05721">
        <ele>213.5</ele>
        <time>2021-02-24T15:14:04Z</time>
      </trkpt>
      <trkpt lat="44.30382" lon="5.05728">
        <ele>213.6</ele>
        <time>2021-02-24T15:14:05Z</time>
      </trkpt>
      <trkpt lat="44.30385" lon="5.05735">
        <ele>213.6</ele>
        <time>2021-02-24T15:14:06Z</time>
      </trkpt>
      <trkpt lat="44.30389" lon="5.05742">
        <ele>213.6</ele>
        <time>2021-02-24T15:14:07Z</time>
      </trkpt>
      <trkpt lat="44.30393" lon="5.0575">
        <ele>213.7</ele>
        <time>2021-02-24T15:14:08Z</time>
      </trkpt>
      <trkpt lat="44.30396" lon="5.05757">
        <ele>213.7</ele>
        <time>2021-02-24T15:14:09Z</time>
      </trkpt>
      <trkpt lat="44.304" lon="5.05764">
        <ele>213.7</ele>
        <time>2021-02-24T15:14:10Z</time>
      </trkpt>
      <trkpt lat="44.30404" lon="5.05772">
        <ele>213.7</ele>
        <time>2021-02-24T15:14:11Z</time>
      </trkpt>
      <trkpt lat="44.30412" lon="5.05786">
        <ele>213.7</ele>
        <time>2021-02-24T15:14:12Z</time>
      </trkpt>
      <trkpt lat="44.30412" lon="5.05786">
        <ele>213.7</ele>
        <time>2021-02-24T15:14:13Z</time>
      </trkpt>
      <trkpt lat="44.30416" lon="5.05794">
        <ele>213.8</ele>
        <time>2021-02-24T15:14:14Z</time>
      </trkpt>
      <trkpt lat="44.3042" lon="5.05801">
        <ele>213.8</ele>
        <time>2021-02-24T15:14:15Z</time>
      </trkpt>
      <trkpt lat="44.30426" lon="5.05813">
        <ele>213.8</ele>
        <time>2021-02-24T15:14:16Z</time>
      </trkpt>
      <trkpt lat="44.30428" lon="5.05817">
        <ele>213.8</ele>
        <time>2021-02-24T15:14:17Z</time>
      </trkpt>
      <trkpt lat="44.30432" lon="5.05824">
        <ele>213.9</ele>
        <time>2021-02-24T15:14:18Z</time>
      </trkpt>
      <trkpt lat="44.30436" lon="5.05832">
        <ele>213.9</ele>
        <time>2021-02-24T15:14:19Z</time>
      </trkpt>
      <trkpt lat="44.3044" lon="5.05839">
        <ele>213.9</ele>
        <time>2021-02-24T15:14:20Z</time>
      </trkpt>
      <trkpt lat="44.30444" lon="5.05847">
        <ele>213.9</ele>
        <time>2021-02-24T15:14:21Z</time>
      </trkpt>
      <trkpt lat="44.30448" lon="5.05854">
        <ele>214</ele>
        <time>2021-02-24T15:14:22Z</time>
      </trkpt>
      <trkpt lat="44.30452" lon="5.05862">
        <ele>214</ele>
        <time>2021-02-24T15:14:23Z</time>
      </trkpt>
      <trkpt lat="44.30456" lon="5.05869">
        <ele>214</ele>
        <time>2021-02-24T15:14:24Z</time>
      </trkpt>
      <trkpt lat="44.3046" lon="5.05877">
        <ele>214</ele>
        <time>2021-02-24T15:14:25Z</time>
      </trkpt>
      <trkpt lat="44.30464" lon="5.05884">
        <ele>214</ele>
        <time>2021-02-24T15:14:26Z</time>
      </trkpt>
      <trkpt lat="44.30468" lon="5.05892">
        <ele>214</ele>
        <time>2021-02-24T15:14:27Z</time>
      </trkpt>
      <trkpt lat="44.30471" lon="5.05899">
        <ele>214.1</ele>
        <time>2021-02-24T15:14:28Z</time>
      </trkpt>
      <trkpt lat="44.30475" lon="5.05906">
        <ele>214.1</ele>
        <time>2021-02-24T15:14:29Z</time>
      </trkpt>
      <trkpt lat="44.30479" lon="5.05914">
        <ele>214.1</ele>
        <time>2021-02-24T15:14:30Z</time>
      </trkpt>
      <trkpt lat="44.30483" lon="5.05921">
        <ele>214.1</ele>
        <time>2021-02-24T15:14:31Z</time>
      </trkpt>
      <trkpt lat="44.30487" lon="5.05928">
        <ele>214.2</ele>
        <time>2021-02-24T15:14:32Z</time>
      </trkpt>
      <trkpt lat="44.30491" lon="5.05936">
        <ele>214.2</ele>
        <time>2021-02-24T15:14:33Z</time>
      </trkpt>
      <trkpt lat="44.30494" lon="5.05943">
        <ele>214.3</ele>
        <time>2021-02-24T15:14:34Z</time>
      </trkpt>
      <trkpt lat="44.30498" lon="5.0595">
        <ele>214.3</ele>
        <time>2021-02-24T15:14:35Z</time>
      </trkpt>
      <trkpt lat="44.30502" lon="5.05958">
        <ele>214.3</ele>
        <time>2021-02-24T15:14:36Z</time>
      </trkpt>
      <trkpt lat="44.30506" lon="5.05965">
        <ele>214.4</ele>
        <time>2021-02-24T15:14:37Z</time>
      </trkpt>
      <trkpt lat="44.3051" lon="5.05972">
        <ele>214.4</ele>
        <time>2021-02-24T15:14:38Z</time>
      </trkpt>
      <trkpt lat="44.30515" lon="5.05979">
        <ele>214.4</ele>
        <time>2021-02-24T15:14:39Z</time>
      </trkpt>
      <trkpt lat="44.30519" lon="5.05986">
        <ele>214.3</ele>
        <time>2021-02-24T15:14:40Z</time>
      </trkpt>
      <trkpt lat="44.30523" lon="5.05993">
        <ele>214.3</ele>
        <time>2021-02-24T15:14:41Z</time>
      </trkpt>
      <trkpt lat="44.30527" lon="5.06001">
        <ele>214.3</ele>
        <time>2021-02-24T15:14:42Z</time>
      </trkpt>
      <trkpt lat="44.30532" lon="5.06008">
        <ele>214.3</ele>
        <time>2021-02-24T15:14:43Z</time>
      </trkpt>
      <trkpt lat="44.30536" lon="5.06015">
        <ele>214.3</ele>
        <time>2021-02-24T15:14:44Z</time>
      </trkpt>
      <trkpt lat="44.30541" lon="5.06022">
        <ele>214.3</ele>
        <time>2021-02-24T15:14:45Z</time>
      </trkpt>
      <trkpt lat="44.30545" lon="5.06029">
        <ele>214.3</ele>
        <time>2021-02-24T15:14:46Z</time>
      </trkpt>
      <trkpt lat="44.3055" lon="5.06036">
        <ele>214.3</ele>
        <time>2021-02-24T15:14:47Z</time>
      </trkpt>
      <trkpt lat="44.30554" lon="5.06043">
        <ele>214.3</ele>
        <time>2021-02-24T15:14:48Z</time>
      </trkpt>
      <trkpt lat="44.30559" lon="5.0605">
        <ele>214.3</ele>
        <time>2021-02-24T15:14:49Z</time>
      </trkpt>
      <trkpt lat="44.30567" lon="5.06063">
        <ele>214.3</ele>
        <time>2021-02-24T15:14:50Z</time>
      </trkpt>
      <trkpt lat="44.30567" lon="5.06063">
        <ele>214.3</ele>
        <time>2021-02-24T15:14:51Z</time>
      </trkpt>
      <trkpt lat="44.30571" lon="5.0607">
        <ele>214.3</ele>
        <time>2021-02-24T15:14:52Z</time>
      </trkpt>
      <trkpt lat="44.30576" lon="5.06077">
        <ele>214.4</ele>
        <time>2021-02-24T15:14:53Z</time>
      </trkpt>
      <trkpt lat="44.3058" lon="5.06084">
        <ele>214.4</ele>
        <time>2021-02-24T15:14:54Z</time>
      </trkpt>
      <trkpt lat="44.30584" lon="5.06091">
        <ele>214.4</ele>
        <time>2021-02-24T15:14:55Z</time>
      </trkpt>
      <trkpt lat="44.30588" lon="5.06098">
        <ele>214.4</ele>
        <time>2021-02-24T15:14:56Z</time>
      </trkpt>
      <trkpt lat="44.30593" lon="5.06104">
        <ele>214.4</ele>
        <time>2021-02-24T15:14:57Z</time>
      </trkpt>
      <trkpt lat="44.30597" lon="5.06111">
        <ele>214.4</ele>
        <time>2021-02-24T15:14:58Z</time>
      </trkpt>
      <trkpt lat="44.30601" lon="5.06118">
        <ele>214.5</ele>
        <time>2021-02-24T15:14:59Z</time>
      </trkpt>
      <trkpt lat="44.30605" lon="5.06125">
        <ele>214.5</ele>
        <time>2021-02-24T15:15:00Z</time>
      </trkpt>
      <trkpt lat="44.3061" lon="5.06132">
        <ele>214.6</ele>
        <time>2021-02-24T15:15:01Z</time>
      </trkpt>
      <trkpt lat="44.30614" lon="5.06139">
        <ele>214.6</ele>
        <time>2021-02-24T15:15:02Z</time>
      </trkpt>
      <trkpt lat="44.30618" lon="5.06146">
        <ele>214.7</ele>
        <time>2021-02-24T15:15:03Z</time>
      </trkpt>
      <trkpt lat="44.30622" lon="5.06153">
        <ele>214.7</ele>
        <time>2021-02-24T15:15:04Z</time>
      </trkpt>
      <trkpt lat="44.30627" lon="5.0616">
        <ele>214.8</ele>
        <time>2021-02-24T15:15:05Z</time>
      </trkpt>
      <trkpt lat="44.30631" lon="5.06167">
        <ele>214.9</ele>
        <time>2021-02-24T15:15:06Z</time>
      </trkpt>
      <trkpt lat="44.30635" lon="5.06173">
        <ele>214.9</ele>
        <time>2021-02-24T15:15:07Z</time>
      </trkpt>
      <trkpt lat="44.3064" lon="5.0618">
        <ele>215</ele>
        <time>2021-02-24T15:15:08Z</time>
      </trkpt>
      <trkpt lat="44.30644" lon="5.06187">
        <ele>215.1</ele>
        <time>2021-02-24T15:15:09Z</time>
      </trkpt>
      <trkpt lat="44.3065" lon="5.06197">
        <ele>215.2</ele>
        <time>2021-02-24T15:15:10Z</time>
      </trkpt>
      <trkpt lat="44.30652" lon="5.06201">
        <ele>215.2</ele>
        <time>2021-02-24T15:15:11Z</time>
      </trkpt>
      <trkpt lat="44.30656" lon="5.06208">
        <ele>215.3</ele>
        <time>2021-02-24T15:15:12Z</time>
      </trkpt>
      <trkpt lat="44.30661" lon="5.06215">
        <ele>215.4</ele>
        <time>2021-02-24T15:15:13Z</time>
      </trkpt>
      <trkpt lat="44.30665" lon="5.06222">
        <ele>215.5</ele>
        <time>2021-02-24T15:15:14Z</time>
      </trkpt>
      <trkpt lat="44.30669" lon="5.06229">
        <ele>215.6</ele>
        <time>2021-02-24T15:15:15Z</time>
      </trkpt>
      <trkpt lat="44.30673" lon="5.06236">
        <ele>215.7</ele>
        <time>2021-02-24T15:15:16Z</time>
      </trkpt>
      <trkpt lat="44.30677" lon="5.06243">
        <ele>215.8</ele>
        <time>2021-02-24T15:15:17Z</time>
      </trkpt>
      <trkpt lat="44.30681" lon="5.06249">
        <ele>215.9</ele>
        <time>2021-02-24T15:15:18Z</time>
      </trkpt>
      <trkpt lat="44.30685" lon="5.06257">
        <ele>216</ele>
        <time>2021-02-24T15:15:19Z</time>
      </trkpt>
      <trkpt lat="44.30688" lon="5.06264">
        <ele>216.2</ele>
        <time>2021-02-24T15:15:20Z</time>
      </trkpt>
      <trkpt lat="44.30691" lon="5.06272">
        <ele>216.3</ele>
        <time>2021-02-24T15:15:21Z</time>
      </trkpt>
      <trkpt lat="44.30694" lon="5.0628">
        <ele>216.5</ele>
        <time>2021-02-24T15:15:22Z</time>
      </trkpt>
      <trkpt lat="44.30696" lon="5.06288">
        <ele>216.6</ele>
        <time>2021-02-24T15:15:23Z</time>
      </trkpt>
      <trkpt lat="44.30698" lon="5.06296">
        <ele>216.8</ele>
        <time>2021-02-24T15:15:24Z</time>
      </trkpt>
      <trkpt lat="44.30701" lon="5.06308">
        <ele>217.1</ele>
        <time>2021-02-24T15:15:25Z</time>
      </trkpt>
      <trkpt lat="44.30701" lon="5.06313">
        <ele>217.1</ele>
        <time>2021-02-24T15:15:26Z</time>
      </trkpt>
      <trkpt lat="44.30702" lon="5.06321">
        <ele>217.3</ele>
        <time>2021-02-24T15:15:27Z</time>
      </trkpt>
      <trkpt lat="44.30704" lon="5.06338">
        <ele>217.6</ele>
        <time>2021-02-24T15:15:28Z</time>
      </trkpt>
      <trkpt lat="44.30704" lon="5.06338">
        <ele>217.6</ele>
        <time>2021-02-24T15:15:29Z</time>
      </trkpt>
      <trkpt lat="44.30705" lon="5.06351">
        <ele>217.8</ele>
        <time>2021-02-24T15:15:30Z</time>
      </trkpt>
      <trkpt lat="44.30706" lon="5.06355">
        <ele>217.9</ele>
        <time>2021-02-24T15:15:31Z</time>
      </trkpt>
      <trkpt lat="44.30706" lon="5.06364">
        <ele>218</ele>
        <time>2021-02-24T15:15:32Z</time>
      </trkpt>
      <trkpt lat="44.30707" lon="5.06376">
        <ele>218.2</ele>
        <time>2021-02-24T15:15:33Z</time>
      </trkpt>
      <trkpt lat="44.30707" lon="5.0638">
        <ele>218.3</ele>
        <time>2021-02-24T15:15:34Z</time>
      </trkpt>
      <trkpt lat="44.30708" lon="5.06389">
        <ele>218.4</ele>
        <time>2021-02-24T15:15:35Z</time>
      </trkpt>
      <trkpt lat="44.30708" lon="5.06397">
        <ele>218.5</ele>
        <time>2021-02-24T15:15:36Z</time>
      </trkpt>
      <trkpt lat="44.30709" lon="5.06405">
        <ele>218.6</ele>
        <time>2021-02-24T15:15:37Z</time>
      </trkpt>
      <trkpt lat="44.3071" lon="5.06413">
        <ele>218.8</ele>
        <time>2021-02-24T15:15:38Z</time>
      </trkpt>
      <trkpt lat="44.3071" lon="5.06421">
        <ele>218.9</ele>
        <time>2021-02-24T15:15:39Z</time>
      </trkpt>
      <trkpt lat="44.30711" lon="5.06429">
        <ele>219</ele>
        <time>2021-02-24T15:15:40Z</time>
      </trkpt>
      <trkpt lat="44.30711" lon="5.06438">
        <ele>219.2</ele>
        <time>2021-02-24T15:15:41Z</time>
      </trkpt>
      <trkpt lat="44.30712" lon="5.06446">
        <ele>219.3</ele>
        <time>2021-02-24T15:15:42Z</time>
      </trkpt>
      <trkpt lat="44.30712" lon="5.06454">
        <ele>219.5</ele>
        <time>2021-02-24T15:15:43Z</time>
      </trkpt>
      <trkpt lat="44.30713" lon="5.06462">
        <ele>219.6</ele>
        <time>2021-02-24T15:15:44Z</time>
      </trkpt>
      <trkpt lat="44.30714" lon="5.06471">
        <ele>219.7</ele>
        <time>2021-02-24T15:15:45Z</time>
      </trkpt>
      <trkpt lat="44.30715" lon="5.06479">
        <ele>219.8</ele>
        <time>2021-02-24T15:15:46Z</time>
      </trkpt>
      <trkpt lat="44.30716" lon="5.06487">
        <ele>219.9</ele>
        <time>2021-02-24T15:15:47Z</time>
      </trkpt>
      <trkpt lat="44.30717" lon="5.06494">
        <ele>220</ele>
        <time>2021-02-24T15:15:48Z</time>
      </trkpt>
      <trkpt lat="44.30718" lon="5.06502">
        <ele>220.1</ele>
        <time>2021-02-24T15:15:49Z</time>
      </trkpt>
      <trkpt lat="44.30721" lon="5.06513">
        <ele>220.3</ele>
        <time>2021-02-24T15:15:50Z</time>
      </trkpt>
      <trkpt lat="44.30722" lon="5.06516">
        <ele>220.3</ele>
        <time>2021-02-24T15:15:51Z</time>
      </trkpt>
      <trkpt lat="44.30725" lon="5.06523">
        <ele>220.4</ele>
        <time>2021-02-24T15:15:52Z</time>
      </trkpt>
      <trkpt lat="44.30727" lon="5.06531">
        <ele>220.5</ele>
        <time>2021-02-24T15:15:53Z</time>
      </trkpt>
      <trkpt lat="44.3073" lon="5.06538">
        <ele>220.6</ele>
        <time>2021-02-24T15:15:54Z</time>
      </trkpt>
      <trkpt lat="44.30733" lon="5.06545">
        <ele>220.6</ele>
        <time>2021-02-24T15:15:55Z</time>
      </trkpt>
      <trkpt lat="44.30735" lon="5.06553">
        <ele>220.7</ele>
        <time>2021-02-24T15:15:56Z</time>
      </trkpt>
      <trkpt lat="44.30738" lon="5.0656">
        <ele>220.8</ele>
        <time>2021-02-24T15:15:57Z</time>
      </trkpt>
      <trkpt lat="44.30741" lon="5.06567">
        <ele>220.8</ele>
        <time>2021-02-24T15:15:58Z</time>
      </trkpt>
      <trkpt lat="44.30743" lon="5.06574">
        <ele>220.9</ele>
        <time>2021-02-24T15:15:59Z</time>
      </trkpt>
      <trkpt lat="44.30746" lon="5.06582">
        <ele>220.9</ele>
        <time>2021-02-24T15:16:00Z</time>
      </trkpt>
      <trkpt lat="44.30749" lon="5.06589">
        <ele>221</ele>
        <time>2021-02-24T15:16:01Z</time>
      </trkpt>
      <trkpt lat="44.30751" lon="5.06596">
        <ele>221.1</ele>
        <time>2021-02-24T15:16:02Z</time>
      </trkpt>
      <trkpt lat="44.30754" lon="5.06604">
        <ele>221.2</ele>
        <time>2021-02-24T15:16:03Z</time>
      </trkpt>
      <trkpt lat="44.30756" lon="5.06611">
        <ele>221.3</ele>
        <time>2021-02-24T15:16:04Z</time>
      </trkpt>
      <trkpt lat="44.30759" lon="5.06618">
        <ele>221.3</ele>
        <time>2021-02-24T15:16:05Z</time>
      </trkpt>
      <trkpt lat="44.30762" lon="5.06626">
        <ele>221.4</ele>
        <time>2021-02-24T15:16:06Z</time>
      </trkpt>
      <trkpt lat="44.30766" lon="5.06637">
        <ele>221.6</ele>
        <time>2021-02-24T15:16:07Z</time>
      </trkpt>
      <trkpt lat="44.30767" lon="5.0664">
        <ele>221.6</ele>
        <time>2021-02-24T15:16:08Z</time>
      </trkpt>
      <trkpt lat="44.30769" lon="5.06648">
        <ele>221.7</ele>
        <time>2021-02-24T15:16:09Z</time>
      </trkpt>
      <trkpt lat="44.30772" lon="5.06655">
        <ele>221.8</ele>
        <time>2021-02-24T15:16:10Z</time>
      </trkpt>
      <trkpt lat="44.30775" lon="5.06662">
        <ele>221.9</ele>
        <time>2021-02-24T15:16:11Z</time>
      </trkpt>
      <trkpt lat="44.30777" lon="5.06669">
        <ele>222</ele>
        <time>2021-02-24T15:16:12Z</time>
      </trkpt>
      <trkpt lat="44.3078" lon="5.06676">
        <ele>222.1</ele>
        <time>2021-02-24T15:16:13Z</time>
      </trkpt>
      <trkpt lat="44.30783" lon="5.06683">
        <ele>222.2</ele>
        <time>2021-02-24T15:16:14Z</time>
      </trkpt>
      <trkpt lat="44.30785" lon="5.0669">
        <ele>222.2</ele>
        <time>2021-02-24T15:16:15Z</time>
      </trkpt>
      <trkpt lat="44.30791" lon="5.06705">
        <ele>222.4</ele>
        <time>2021-02-24T15:16:16Z</time>
      </trkpt>
      <trkpt lat="44.30791" lon="5.06705">
        <ele>222.4</ele>
        <time>2021-02-24T15:16:17Z</time>
      </trkpt>
      <trkpt lat="44.30793" lon="5.06712">
        <ele>222.5</ele>
        <time>2021-02-24T15:16:18Z</time>
      </trkpt>
      <trkpt lat="44.30796" lon="5.06719">
        <ele>222.7</ele>
        <time>2021-02-24T15:16:19Z</time>
      </trkpt>
      <trkpt lat="44.30798" lon="5.06725">
        <ele>222.8</ele>
        <time>2021-02-24T15:16:20Z</time>
      </trkpt>
      <trkpt lat="44.30801" lon="5.06732">
        <ele>222.9</ele>
        <time>2021-02-24T15:16:21Z</time>
      </trkpt>
      <trkpt lat="44.30804" lon="5.06739">
        <ele>223</ele>
        <time>2021-02-24T15:16:22Z</time>
      </trkpt>
      <trkpt lat="44.30806" lon="5.06746">
        <ele>223.1</ele>
        <time>2021-02-24T15:16:23Z</time>
      </trkpt>
      <trkpt lat="44.30808" lon="5.06752">
        <ele>223.3</ele>
        <time>2021-02-24T15:16:24Z</time>
      </trkpt>
      <trkpt lat="44.30811" lon="5.06759">
        <ele>223.4</ele>
        <time>2021-02-24T15:16:25Z</time>
      </trkpt>
      <trkpt lat="44.30815" lon="5.0677">
        <ele>223.5</ele>
        <time>2021-02-24T15:16:26Z</time>
      </trkpt>
      <trkpt lat="44.30816" lon="5.06773">
        <ele>223.6</ele>
        <time>2021-02-24T15:16:27Z</time>
      </trkpt>
      <trkpt lat="44.30819" lon="5.0678">
        <ele>223.7</ele>
        <time>2021-02-24T15:16:28Z</time>
      </trkpt>
      <trkpt lat="44.30821" lon="5.06788">
        <ele>223.8</ele>
        <time>2021-02-24T15:16:29Z</time>
      </trkpt>
      <trkpt lat="44.30824" lon="5.06795">
        <ele>223.9</ele>
        <time>2021-02-24T15:16:30Z</time>
      </trkpt>
      <trkpt lat="44.30826" lon="5.06802">
        <ele>224</ele>
        <time>2021-02-24T15:16:31Z</time>
      </trkpt>
      <trkpt lat="44.30829" lon="5.06809">
        <ele>224.2</ele>
        <time>2021-02-24T15:16:32Z</time>
      </trkpt>
      <trkpt lat="44.30831" lon="5.06816">
        <ele>224.3</ele>
        <time>2021-02-24T15:16:33Z</time>
      </trkpt>
      <trkpt lat="44.30834" lon="5.06824">
        <ele>224.4</ele>
        <time>2021-02-24T15:16:34Z</time>
      </trkpt>
      <trkpt lat="44.30837" lon="5.06831">
        <ele>224.5</ele>
        <time>2021-02-24T15:16:35Z</time>
      </trkpt>
      <trkpt lat="44.30839" lon="5.06838">
        <ele>224.7</ele>
        <time>2021-02-24T15:16:36Z</time>
      </trkpt>
      <trkpt lat="44.30842" lon="5.06845">
        <ele>224.8</ele>
        <time>2021-02-24T15:16:37Z</time>
      </trkpt>
      <trkpt lat="44.30844" lon="5.06851">
        <ele>224.9</ele>
        <time>2021-02-24T15:16:38Z</time>
      </trkpt>
      <trkpt lat="44.30846" lon="5.06858">
        <ele>225</ele>
        <time>2021-02-24T15:16:39Z</time>
      </trkpt>
      <trkpt lat="44.30849" lon="5.06865">
        <ele>225.1</ele>
        <time>2021-02-24T15:16:40Z</time>
      </trkpt>
      <trkpt lat="44.30851" lon="5.06872">
        <ele>225.2</ele>
        <time>2021-02-24T15:16:41Z</time>
      </trkpt>
      <trkpt lat="44.30854" lon="5.06879">
        <ele>225.3</ele>
        <time>2021-02-24T15:16:42Z</time>
      </trkpt>
      <trkpt lat="44.30856" lon="5.06885">
        <ele>225.4</ele>
        <time>2021-02-24T15:16:43Z</time>
      </trkpt>
      <trkpt lat="44.30861" lon="5.06899">
        <ele>225.6</ele>
        <time>2021-02-24T15:16:44Z</time>
      </trkpt>
      <trkpt lat="44.30861" lon="5.06899">
        <ele>225.6</ele>
        <time>2021-02-24T15:16:45Z</time>
      </trkpt>
      <trkpt lat="44.30863" lon="5.06906">
        <ele>225.7</ele>
        <time>2021-02-24T15:16:46Z</time>
      </trkpt>
      <trkpt lat="44.30866" lon="5.06913">
        <ele>225.8</ele>
        <time>2021-02-24T15:16:47Z</time>
      </trkpt>
      <trkpt lat="44.30868" lon="5.0692">
        <ele>225.9</ele>
        <time>2021-02-24T15:16:48Z</time>
      </trkpt>
      <trkpt lat="44.30871" lon="5.06926">
        <ele>226</ele>
        <time>2021-02-24T15:16:49Z</time>
      </trkpt>
      <trkpt lat="44.30874" lon="5.06933">
        <ele>226.1</ele>
        <time>2021-02-24T15:16:50Z</time>
      </trkpt>
      <trkpt lat="44.30877" lon="5.0694">
        <ele>226.1</ele>
        <time>2021-02-24T15:16:51Z</time>
      </trkpt>
      <trkpt lat="44.3088" lon="5.06948">
        <ele>226.2</ele>
        <time>2021-02-24T15:16:52Z</time>
      </trkpt>
      <trkpt lat="44.30883" lon="5.06955">
        <ele>226.3</ele>
        <time>2021-02-24T15:16:53Z</time>
      </trkpt>
      <trkpt lat="44.30885" lon="5.06962">
        <ele>226.4</ele>
        <time>2021-02-24T15:16:54Z</time>
      </trkpt>
      <trkpt lat="44.30888" lon="5.06969">
        <ele>226.4</ele>
        <time>2021-02-24T15:16:55Z</time>
      </trkpt>
      <trkpt lat="44.30891" lon="5.06976">
        <ele>226.5</ele>
        <time>2021-02-24T15:16:56Z</time>
      </trkpt>
      <trkpt lat="44.30894" lon="5.06983">
        <ele>226.6</ele>
        <time>2021-02-24T15:16:57Z</time>
      </trkpt>
      <trkpt lat="44.30897" lon="5.0699">
        <ele>226.7</ele>
        <time>2021-02-24T15:16:58Z</time>
      </trkpt>
      <trkpt lat="44.30899" lon="5.06997">
        <ele>226.8</ele>
        <time>2021-02-24T15:16:59Z</time>
      </trkpt>
      <trkpt lat="44.30904" lon="5.07008">
        <ele>226.9</ele>
        <time>2021-02-24T15:17:00Z</time>
      </trkpt>
      <trkpt lat="44.30905" lon="5.07011">
        <ele>227</ele>
        <time>2021-02-24T15:17:01Z</time>
      </trkpt>
      <trkpt lat="44.30909" lon="5.07018">
        <ele>227.1</ele>
        <time>2021-02-24T15:17:02Z</time>
      </trkpt>
      <trkpt lat="44.30915" lon="5.07032">
        <ele>227.3</ele>
        <time>2021-02-24T15:17:03Z</time>
      </trkpt>
      <trkpt lat="44.30915" lon="5.07032">
        <ele>227.3</ele>
        <time>2021-02-24T15:17:04Z</time>
      </trkpt>
      <trkpt lat="44.30919" lon="5.07038">
        <ele>227.4</ele>
        <time>2021-02-24T15:17:05Z</time>
      </trkpt>
      <trkpt lat="44.30923" lon="5.07045">
        <ele>227.5</ele>
        <time>2021-02-24T15:17:06Z</time>
      </trkpt>
      <trkpt lat="44.30926" lon="5.07051">
        <ele>227.5</ele>
        <time>2021-02-24T15:17:07Z</time>
      </trkpt>
      <trkpt lat="44.30931" lon="5.07057">
        <ele>227.6</ele>
        <time>2021-02-24T15:17:08Z</time>
      </trkpt>
      <trkpt lat="44.30935" lon="5.07063">
        <ele>227.7</ele>
        <time>2021-02-24T15:17:09Z</time>
      </trkpt>
      <trkpt lat="44.30939" lon="5.07068">
        <ele>227.8</ele>
        <time>2021-02-24T15:17:10Z</time>
      </trkpt>
      <trkpt lat="44.30944" lon="5.07074">
        <ele>227.8</ele>
        <time>2021-02-24T15:17:11Z</time>
      </trkpt>
      <trkpt lat="44.30948" lon="5.0708">
        <ele>227.9</ele>
        <time>2021-02-24T15:17:12Z</time>
      </trkpt>
      <trkpt lat="44.30952" lon="5.07086">
        <ele>228</ele>
        <time>2021-02-24T15:17:13Z</time>
      </trkpt>
      <trkpt lat="44.30957" lon="5.07092">
        <ele>228.1</ele>
        <time>2021-02-24T15:17:14Z</time>
      </trkpt>
      <trkpt lat="44.30961" lon="5.07098">
        <ele>228.2</ele>
        <time>2021-02-24T15:17:15Z</time>
      </trkpt>
      <trkpt lat="44.30967" lon="5.07106">
        <ele>228.4</ele>
        <time>2021-02-24T15:17:16Z</time>
      </trkpt>
      <trkpt lat="44.30969" lon="5.07109">
        <ele>228.4</ele>
        <time>2021-02-24T15:17:17Z</time>
      </trkpt>
      <trkpt lat="44.30976" lon="5.07118">
        <ele>228.5</ele>
        <time>2021-02-24T15:17:18Z</time>
      </trkpt>
      <trkpt lat="44.30978" lon="5.07121">
        <ele>228.6</ele>
        <time>2021-02-24T15:17:19Z</time>
      </trkpt>
      <trkpt lat="44.30982" lon="5.07127">
        <ele>228.6</ele>
        <time>2021-02-24T15:17:20Z</time>
      </trkpt>
      <trkpt lat="44.30987" lon="5.07133">
        <ele>228.7</ele>
        <time>2021-02-24T15:17:21Z</time>
      </trkpt>
      <trkpt lat="44.30996" lon="5.07145">
        <ele>228.8</ele>
        <time>2021-02-24T15:17:22Z</time>
      </trkpt>
      <trkpt lat="44.30996" lon="5.07145">
        <ele>228.8</ele>
        <time>2021-02-24T15:17:23Z</time>
      </trkpt>
      <trkpt lat="44.31" lon="5.07151">
        <ele>228.8</ele>
        <time>2021-02-24T15:17:24Z</time>
      </trkpt>
      <trkpt lat="44.31007" lon="5.07161">
        <ele>228.9</ele>
        <time>2021-02-24T15:17:25Z</time>
      </trkpt>
      <trkpt lat="44.31009" lon="5.07164">
        <ele>228.9</ele>
        <time>2021-02-24T15:17:26Z</time>
      </trkpt>
      <trkpt lat="44.31014" lon="5.0717">
        <ele>229</ele>
        <time>2021-02-24T15:17:27Z</time>
      </trkpt>
      <trkpt lat="44.31018" lon="5.07177">
        <ele>229</ele>
        <time>2021-02-24T15:17:28Z</time>
      </trkpt>
      <trkpt lat="44.31023" lon="5.07183">
        <ele>229</ele>
        <time>2021-02-24T15:17:29Z</time>
      </trkpt>
      <trkpt lat="44.31027" lon="5.0719">
        <ele>229</ele>
        <time>2021-02-24T15:17:30Z</time>
      </trkpt>
      <trkpt lat="44.31031" lon="5.07197">
        <ele>229</ele>
        <time>2021-02-24T15:17:31Z</time>
      </trkpt>
      <trkpt lat="44.31036" lon="5.07203">
        <ele>229</ele>
        <time>2021-02-24T15:17:32Z</time>
      </trkpt>
      <trkpt lat="44.31041" lon="5.07209">
        <ele>229</ele>
        <time>2021-02-24T15:17:33Z</time>
      </trkpt>
      <trkpt lat="44.31046" lon="5.07215">
        <ele>229</ele>
        <time>2021-02-24T15:17:34Z</time>
      </trkpt>
      <trkpt lat="44.31051" lon="5.07221">
        <ele>228.9</ele>
        <time>2021-02-24T15:17:35Z</time>
      </trkpt>
      <trkpt lat="44.31057" lon="5.07227">
        <ele>228.9</ele>
        <time>2021-02-24T15:17:36Z</time>
      </trkpt>
      <trkpt lat="44.31063" lon="5.07232">
        <ele>228.9</ele>
        <time>2021-02-24T15:17:37Z</time>
      </trkpt>
      <trkpt lat="44.31069" lon="5.07236">
        <ele>228.8</ele>
        <time>2021-02-24T15:17:38Z</time>
      </trkpt>
      <trkpt lat="44.31075" lon="5.07239">
        <ele>228.8</ele>
        <time>2021-02-24T15:17:39Z</time>
      </trkpt>
      <trkpt lat="44.31081" lon="5.07243">
        <ele>228.8</ele>
        <time>2021-02-24T15:17:40Z</time>
      </trkpt>
      <trkpt lat="44.31088" lon="5.07246">
        <ele>228.8</ele>
        <time>2021-02-24T15:17:41Z</time>
      </trkpt>
      <trkpt lat="44.31098" lon="5.0725">
        <ele>228.8</ele>
        <time>2021-02-24T15:17:42Z</time>
      </trkpt>
      <trkpt lat="44.31101" lon="5.07252">
        <ele>228.8</ele>
        <time>2021-02-24T15:17:43Z</time>
      </trkpt>
      <trkpt lat="44.31107" lon="5.07255">
        <ele>228.8</ele>
        <time>2021-02-24T15:17:44Z</time>
      </trkpt>
      <trkpt lat="44.31113" lon="5.07258">
        <ele>228.7</ele>
        <time>2021-02-24T15:17:45Z</time>
      </trkpt>
      <trkpt lat="44.3112" lon="5.07262">
        <ele>228.7</ele>
        <time>2021-02-24T15:17:46Z</time>
      </trkpt>
      <trkpt lat="44.31127" lon="5.07265">
        <ele>228.7</ele>
        <time>2021-02-24T15:17:47Z</time>
      </trkpt>
      <trkpt lat="44.31133" lon="5.07268">
        <ele>228.7</ele>
        <time>2021-02-24T15:17:48Z</time>
      </trkpt>
      <trkpt lat="44.3114" lon="5.0727">
        <ele>228.7</ele>
        <time>2021-02-24T15:17:49Z</time>
      </trkpt>
      <trkpt lat="44.31146" lon="5.07274">
        <ele>228.7</ele>
        <time>2021-02-24T15:17:50Z</time>
      </trkpt>
      <trkpt lat="44.31153" lon="5.07277">
        <ele>228.7</ele>
        <time>2021-02-24T15:17:51Z</time>
      </trkpt>
      <trkpt lat="44.31159" lon="5.0728">
        <ele>228.7</ele>
        <time>2021-02-24T15:17:52Z</time>
      </trkpt>
      <trkpt lat="44.31166" lon="5.07283">
        <ele>228.7</ele>
        <time>2021-02-24T15:17:53Z</time>
      </trkpt>
      <trkpt lat="44.31172" lon="5.07286">
        <ele>228.7</ele>
        <time>2021-02-24T15:17:54Z</time>
      </trkpt>
      <trkpt lat="44.31179" lon="5.0729">
        <ele>228.7</ele>
        <time>2021-02-24T15:17:55Z</time>
      </trkpt>
      <trkpt lat="44.31185" lon="5.07293">
        <ele>228.7</ele>
        <time>2021-02-24T15:17:56Z</time>
      </trkpt>
      <trkpt lat="44.31192" lon="5.07297">
        <ele>228.8</ele>
        <time>2021-02-24T15:17:57Z</time>
      </trkpt>
      <trkpt lat="44.31198" lon="5.07301">
        <ele>228.8</ele>
        <time>2021-02-24T15:17:58Z</time>
      </trkpt>
      <trkpt lat="44.31204" lon="5.07305">
        <ele>228.8</ele>
        <time>2021-02-24T15:17:59Z</time>
      </trkpt>
      <trkpt lat="44.31211" lon="5.0731">
        <ele>228.9</ele>
        <time>2021-02-24T15:18:00Z</time>
      </trkpt>
      <trkpt lat="44.3122" lon="5.07317">
        <ele>228.9</ele>
        <time>2021-02-24T15:18:01Z</time>
      </trkpt>
      <trkpt lat="44.31223" lon="5.07319">
        <ele>229</ele>
        <time>2021-02-24T15:18:02Z</time>
      </trkpt>
      <trkpt lat="44.31229" lon="5.07324">
        <ele>229</ele>
        <time>2021-02-24T15:18:03Z</time>
      </trkpt>
      <trkpt lat="44.31235" lon="5.07329">
        <ele>229.1</ele>
        <time>2021-02-24T15:18:04Z</time>
      </trkpt>
      <trkpt lat="44.31241" lon="5.07333">
        <ele>229.1</ele>
        <time>2021-02-24T15:18:05Z</time>
      </trkpt>
      <trkpt lat="44.31247" lon="5.07337">
        <ele>229.2</ele>
        <time>2021-02-24T15:18:06Z</time>
      </trkpt>
      <trkpt lat="44.31256" lon="5.07344">
        <ele>229.3</ele>
        <time>2021-02-24T15:18:07Z</time>
      </trkpt>
      <trkpt lat="44.31259" lon="5.07347">
        <ele>229.3</ele>
        <time>2021-02-24T15:18:08Z</time>
      </trkpt>
      <trkpt lat="44.31269" lon="5.07354">
        <ele>229.4</ele>
        <time>2021-02-24T15:18:09Z</time>
      </trkpt>
      <trkpt lat="44.31271" lon="5.07356">
        <ele>229.4</ele>
        <time>2021-02-24T15:18:10Z</time>
      </trkpt>
      <trkpt lat="44.31277" lon="5.07362">
        <ele>229.5</ele>
        <time>2021-02-24T15:18:11Z</time>
      </trkpt>
      <trkpt lat="44.31283" lon="5.07367">
        <ele>229.6</ele>
        <time>2021-02-24T15:18:12Z</time>
      </trkpt>
      <trkpt lat="44.31288" lon="5.07373">
        <ele>229.7</ele>
        <time>2021-02-24T15:18:13Z</time>
      </trkpt>
      <trkpt lat="44.31293" lon="5.07379">
        <ele>229.8</ele>
        <time>2021-02-24T15:18:14Z</time>
      </trkpt>
      <trkpt lat="44.31299" lon="5.07385">
        <ele>229.9</ele>
        <time>2021-02-24T15:18:15Z</time>
      </trkpt>
      <trkpt lat="44.31303" lon="5.07391">
        <ele>230</ele>
        <time>2021-02-24T15:18:16Z</time>
      </trkpt>
      <trkpt lat="44.31308" lon="5.07398">
        <ele>230</ele>
        <time>2021-02-24T15:18:17Z</time>
      </trkpt>
      <trkpt lat="44.31312" lon="5.07405">
        <ele>230.1</ele>
        <time>2021-02-24T15:18:18Z</time>
      </trkpt>
      <trkpt lat="44.31316" lon="5.07412">
        <ele>230.2</ele>
        <time>2021-02-24T15:18:19Z</time>
      </trkpt>
      <trkpt lat="44.31321" lon="5.07419">
        <ele>230.2</ele>
        <time>2021-02-24T15:18:20Z</time>
      </trkpt>
      <trkpt lat="44.31325" lon="5.07427">
        <ele>230.3</ele>
        <time>2021-02-24T15:18:21Z</time>
      </trkpt>
      <trkpt lat="44.31329" lon="5.07434">
        <ele>230.4</ele>
        <time>2021-02-24T15:18:22Z</time>
      </trkpt>
      <trkpt lat="44.31333" lon="5.07441">
        <ele>230.4</ele>
        <time>2021-02-24T15:18:23Z</time>
      </trkpt>
      <trkpt lat="44.31337" lon="5.07448">
        <ele>230.5</ele>
        <time>2021-02-24T15:18:24Z</time>
      </trkpt>
      <trkpt lat="44.31342" lon="5.07455">
        <ele>230.5</ele>
        <time>2021-02-24T15:18:25Z</time>
      </trkpt>
      <trkpt lat="44.31346" lon="5.07462">
        <ele>230.6</ele>
        <time>2021-02-24T15:18:26Z</time>
      </trkpt>
      <trkpt lat="44.3135" lon="5.07469">
        <ele>230.6</ele>
        <time>2021-02-24T15:18:27Z</time>
      </trkpt>
      <trkpt lat="44.31354" lon="5.07476">
        <ele>230.7</ele>
        <time>2021-02-24T15:18:28Z</time>
      </trkpt>
      <trkpt lat="44.31358" lon="5.07483">
        <ele>230.7</ele>
        <time>2021-02-24T15:18:29Z</time>
      </trkpt>
      <trkpt lat="44.31362" lon="5.0749">
        <ele>230.8</ele>
        <time>2021-02-24T15:18:30Z</time>
      </trkpt>
      <trkpt lat="44.31369" lon="5.075">
        <ele>230.8</ele>
        <time>2021-02-24T15:18:31Z</time>
      </trkpt>
      <trkpt lat="44.31371" lon="5.07503">
        <ele>230.8</ele>
        <time>2021-02-24T15:18:32Z</time>
      </trkpt>
      <trkpt lat="44.31375" lon="5.0751">
        <ele>230.9</ele>
        <time>2021-02-24T15:18:33Z</time>
      </trkpt>
      <trkpt lat="44.31379" lon="5.07517">
        <ele>230.9</ele>
        <time>2021-02-24T15:18:34Z</time>
      </trkpt>
      <trkpt lat="44.31384" lon="5.07524">
        <ele>230.9</ele>
        <time>2021-02-24T15:18:35Z</time>
      </trkpt>
      <trkpt lat="44.31388" lon="5.07531">
        <ele>230.8</ele>
        <time>2021-02-24T15:18:36Z</time>
      </trkpt>
      <trkpt lat="44.31392" lon="5.07538">
        <ele>230.8</ele>
        <time>2021-02-24T15:18:37Z</time>
      </trkpt>
      <trkpt lat="44.31396" lon="5.07545">
        <ele>230.8</ele>
        <time>2021-02-24T15:18:38Z</time>
      </trkpt>
      <trkpt lat="44.31401" lon="5.07552">
        <ele>230.8</ele>
        <time>2021-02-24T15:18:39Z</time>
      </trkpt>
      <trkpt lat="44.31405" lon="5.07558">
        <ele>230.8</ele>
        <time>2021-02-24T15:18:40Z</time>
      </trkpt>
      <trkpt lat="44.3141" lon="5.07565">
        <ele>230.8</ele>
        <time>2021-02-24T15:18:41Z</time>
      </trkpt>
      <trkpt lat="44.31414" lon="5.07572">
        <ele>230.7</ele>
        <time>2021-02-24T15:18:42Z</time>
      </trkpt>
      <trkpt lat="44.31418" lon="5.07579">
        <ele>230.7</ele>
        <time>2021-02-24T15:18:43Z</time>
      </trkpt>
      <trkpt lat="44.31423" lon="5.07586">
        <ele>230.6</ele>
        <time>2021-02-24T15:18:44Z</time>
      </trkpt>
      <trkpt lat="44.31427" lon="5.07593">
        <ele>230.6</ele>
        <time>2021-02-24T15:18:45Z</time>
      </trkpt>
      <trkpt lat="44.31432" lon="5.076">
        <ele>230.5</ele>
        <time>2021-02-24T15:18:46Z</time>
      </trkpt>
      <trkpt lat="44.31437" lon="5.07608">
        <ele>230.5</ele>
        <time>2021-02-24T15:18:47Z</time>
      </trkpt>
      <trkpt lat="44.31441" lon="5.07615">
        <ele>230.5</ele>
        <time>2021-02-24T15:18:48Z</time>
      </trkpt>
      <trkpt lat="44.31446" lon="5.07623">
        <ele>230.4</ele>
        <time>2021-02-24T15:18:49Z</time>
      </trkpt>
      <trkpt lat="44.3145" lon="5.0763">
        <ele>230.4</ele>
        <time>2021-02-24T15:18:50Z</time>
      </trkpt>
      <trkpt lat="44.31455" lon="5.07638">
        <ele>230.4</ele>
        <time>2021-02-24T15:18:51Z</time>
      </trkpt>
      <trkpt lat="44.3146" lon="5.07645">
        <ele>230.4</ele>
        <time>2021-02-24T15:18:52Z</time>
      </trkpt>
      <trkpt lat="44.31465" lon="5.07653">
        <ele>230.3</ele>
        <time>2021-02-24T15:18:53Z</time>
      </trkpt>
      <trkpt lat="44.3147" lon="5.0766">
        <ele>230.3</ele>
        <time>2021-02-24T15:18:54Z</time>
      </trkpt>
      <trkpt lat="44.31475" lon="5.07668">
        <ele>230.3</ele>
        <time>2021-02-24T15:18:55Z</time>
      </trkpt>
      <trkpt lat="44.3148" lon="5.07675">
        <ele>230.3</ele>
        <time>2021-02-24T15:18:56Z</time>
      </trkpt>
      <trkpt lat="44.31485" lon="5.07683">
        <ele>230.3</ele>
        <time>2021-02-24T15:18:57Z</time>
      </trkpt>
      <trkpt lat="44.31492" lon="5.07694">
        <ele>230.3</ele>
        <time>2021-02-24T15:18:58Z</time>
      </trkpt>
      <trkpt lat="44.31494" lon="5.07698">
        <ele>230.3</ele>
        <time>2021-02-24T15:18:59Z</time>
      </trkpt>
      <trkpt lat="44.31499" lon="5.07705">
        <ele>230.3</ele>
        <time>2021-02-24T15:19:00Z</time>
      </trkpt>
      <trkpt lat="44.31504" lon="5.07713">
        <ele>230.3</ele>
        <time>2021-02-24T15:19:01Z</time>
      </trkpt>
      <trkpt lat="44.31509" lon="5.0772">
        <ele>230.3</ele>
        <time>2021-02-24T15:19:02Z</time>
      </trkpt>
      <trkpt lat="44.31513" lon="5.07728">
        <ele>230.3</ele>
        <time>2021-02-24T15:19:03Z</time>
      </trkpt>
      <trkpt lat="44.31517" lon="5.07737">
        <ele>230.4</ele>
        <time>2021-02-24T15:19:04Z</time>
      </trkpt>
      <trkpt lat="44.3152" lon="5.07746">
        <ele>230.4</ele>
        <time>2021-02-24T15:19:05Z</time>
      </trkpt>
      <trkpt lat="44.31523" lon="5.07755">
        <ele>230.4</ele>
        <time>2021-02-24T15:19:06Z</time>
      </trkpt>
      <trkpt lat="44.31526" lon="5.07764">
        <ele>230.4</ele>
        <time>2021-02-24T15:19:07Z</time>
      </trkpt>
      <trkpt lat="44.31529" lon="5.07773">
        <ele>230.4</ele>
        <time>2021-02-24T15:19:08Z</time>
      </trkpt>
      <trkpt lat="44.31532" lon="5.07781">
        <ele>230.4</ele>
        <time>2021-02-24T15:19:09Z</time>
      </trkpt>
      <trkpt lat="44.31536" lon="5.07794">
        <ele>230.4</ele>
        <time>2021-02-24T15:19:10Z</time>
      </trkpt>
      <trkpt lat="44.31537" lon="5.07799">
        <ele>230.4</ele>
        <time>2021-02-24T15:19:11Z</time>
      </trkpt>
      <trkpt lat="44.3154" lon="5.07808">
        <ele>230.3</ele>
        <time>2021-02-24T15:19:12Z</time>
      </trkpt>
      <trkpt lat="44.31543" lon="5.07817">
        <ele>230.3</ele>
        <time>2021-02-24T15:19:13Z</time>
      </trkpt>
      <trkpt lat="44.31545" lon="5.07826">
        <ele>230.2</ele>
        <time>2021-02-24T15:19:14Z</time>
      </trkpt>
      <trkpt lat="44.31551" lon="5.07845">
        <ele>230.2</ele>
        <time>2021-02-24T15:19:15Z</time>
      </trkpt>
      <trkpt lat="44.31554" lon="5.07854">
        <ele>230.2</ele>
        <time>2021-02-24T15:19:16Z</time>
      </trkpt>
      <trkpt lat="44.31554" lon="5.07854">
        <ele>230.2</ele>
        <time>2021-02-24T15:19:17Z</time>
      </trkpt>
      <trkpt lat="44.31557" lon="5.07864">
        <ele>230.2</ele>
        <time>2021-02-24T15:19:18Z</time>
      </trkpt>
      <trkpt lat="44.3156" lon="5.07873">
        <ele>230.2</ele>
        <time>2021-02-24T15:19:19Z</time>
      </trkpt>
      <trkpt lat="44.31563" lon="5.07882">
        <ele>230.2</ele>
        <time>2021-02-24T15:19:20Z</time>
      </trkpt>
      <trkpt lat="44.31565" lon="5.0789">
        <ele>230.2</ele>
        <time>2021-02-24T15:19:21Z</time>
      </trkpt>
      <trkpt lat="44.31569" lon="5.07903">
        <ele>230.2</ele>
        <time>2021-02-24T15:19:22Z</time>
      </trkpt>
      <trkpt lat="44.31571" lon="5.07908">
        <ele>230.2</ele>
        <time>2021-02-24T15:19:23Z</time>
      </trkpt>
      <trkpt lat="44.31573" lon="5.07916">
        <ele>230.2</ele>
        <time>2021-02-24T15:19:24Z</time>
      </trkpt>
      <trkpt lat="44.31576" lon="5.07925">
        <ele>230.3</ele>
        <time>2021-02-24T15:19:25Z</time>
      </trkpt>
      <trkpt lat="44.31579" lon="5.07933">
        <ele>230.3</ele>
        <time>2021-02-24T15:19:26Z</time>
      </trkpt>
      <trkpt lat="44.31581" lon="5.07942">
        <ele>230.3</ele>
        <time>2021-02-24T15:19:27Z</time>
      </trkpt>
      <trkpt lat="44.31584" lon="5.0795">
        <ele>230.4</ele>
        <time>2021-02-24T15:19:28Z</time>
      </trkpt>
      <trkpt lat="44.31587" lon="5.07959">
        <ele>230.5</ele>
        <time>2021-02-24T15:19:29Z</time>
      </trkpt>
      <trkpt lat="44.3159" lon="5.07967">
        <ele>230.5</ele>
        <time>2021-02-24T15:19:30Z</time>
      </trkpt>
      <trkpt lat="44.31592" lon="5.07975">
        <ele>230.6</ele>
        <time>2021-02-24T15:19:31Z</time>
      </trkpt>
      <trkpt lat="44.31595" lon="5.07984">
        <ele>230.6</ele>
        <time>2021-02-24T15:19:32Z</time>
      </trkpt>
      <trkpt lat="44.31598" lon="5.07993">
        <ele>230.7</ele>
        <time>2021-02-24T15:19:33Z</time>
      </trkpt>
      <trkpt lat="44.316" lon="5.08001">
        <ele>230.8</ele>
        <time>2021-02-24T15:19:34Z</time>
      </trkpt>
      <trkpt lat="44.31603" lon="5.08009">
        <ele>230.9</ele>
        <time>2021-02-24T15:19:35Z</time>
      </trkpt>
      <trkpt lat="44.31607" lon="5.08021">
        <ele>231</ele>
        <time>2021-02-24T15:19:36Z</time>
      </trkpt>
      <trkpt lat="44.31608" lon="5.08025">
        <ele>231</ele>
        <time>2021-02-24T15:19:37Z</time>
      </trkpt>
      <trkpt lat="44.3161" lon="5.08033">
        <ele>231</ele>
        <time>2021-02-24T15:19:38Z</time>
      </trkpt>
      <trkpt lat="44.31613" lon="5.08041">
        <ele>231</ele>
        <time>2021-02-24T15:19:39Z</time>
      </trkpt>
      <trkpt lat="44.31616" lon="5.08049">
        <ele>231</ele>
        <time>2021-02-24T15:19:40Z</time>
      </trkpt>
      <trkpt lat="44.3162" lon="5.08056">
        <ele>231</ele>
        <time>2021-02-24T15:19:41Z</time>
      </trkpt>
      <trkpt lat="44.31623" lon="5.08064">
        <ele>231</ele>
        <time>2021-02-24T15:19:42Z</time>
      </trkpt>
      <trkpt lat="44.31627" lon="5.08072">
        <ele>230.9</ele>
        <time>2021-02-24T15:19:43Z</time>
      </trkpt>
      <trkpt lat="44.31631" lon="5.08079">
        <ele>230.9</ele>
        <time>2021-02-24T15:19:44Z</time>
      </trkpt>
      <trkpt lat="44.31635" lon="5.08087">
        <ele>230.8</ele>
        <time>2021-02-24T15:19:45Z</time>
      </trkpt>
      <trkpt lat="44.31639" lon="5.08094">
        <ele>230.8</ele>
        <time>2021-02-24T15:19:46Z</time>
      </trkpt>
      <trkpt lat="44.31643" lon="5.08101">
        <ele>230.7</ele>
        <time>2021-02-24T15:19:47Z</time>
      </trkpt>
      <trkpt lat="44.31648" lon="5.08109">
        <ele>230.7</ele>
        <time>2021-02-24T15:19:48Z</time>
      </trkpt>
      <trkpt lat="44.31652" lon="5.08116">
        <ele>230.6</ele>
        <time>2021-02-24T15:19:49Z</time>
      </trkpt>
      <trkpt lat="44.31656" lon="5.08123">
        <ele>230.6</ele>
        <time>2021-02-24T15:19:50Z</time>
      </trkpt>
      <trkpt lat="44.3166" lon="5.0813">
        <ele>230.6</ele>
        <time>2021-02-24T15:19:51Z</time>
      </trkpt>
      <trkpt lat="44.31664" lon="5.08137">
        <ele>230.5</ele>
        <time>2021-02-24T15:19:52Z</time>
      </trkpt>
      <trkpt lat="44.31668" lon="5.08144">
        <ele>230.5</ele>
        <time>2021-02-24T15:19:53Z</time>
      </trkpt>
      <trkpt lat="44.31672" lon="5.08151">
        <ele>230.4</ele>
        <time>2021-02-24T15:19:54Z</time>
      </trkpt>
      <trkpt lat="44.31678" lon="5.08163">
        <ele>230.3</ele>
        <time>2021-02-24T15:19:55Z</time>
      </trkpt>
      <trkpt lat="44.3168" lon="5.08167">
        <ele>230.3</ele>
        <time>2021-02-24T15:19:56Z</time>
      </trkpt>
      <trkpt lat="44.31684" lon="5.08175">
        <ele>230.2</ele>
        <time>2021-02-24T15:19:57Z</time>
      </trkpt>
      <trkpt lat="44.31689" lon="5.08183">
        <ele>230.2</ele>
        <time>2021-02-24T15:19:58Z</time>
      </trkpt>
      <trkpt lat="44.31692" lon="5.08191">
        <ele>230.1</ele>
        <time>2021-02-24T15:19:59Z</time>
      </trkpt>
      <trkpt lat="44.31696" lon="5.08199">
        <ele>230</ele>
        <time>2021-02-24T15:20:00Z</time>
      </trkpt>
      <trkpt lat="44.317" lon="5.08207">
        <ele>230</ele>
        <time>2021-02-24T15:20:01Z</time>
      </trkpt>
      <trkpt lat="44.31704" lon="5.08216">
        <ele>229.9</ele>
        <time>2021-02-24T15:20:02Z</time>
      </trkpt>
      <trkpt lat="44.31708" lon="5.08224">
        <ele>229.8</ele>
        <time>2021-02-24T15:20:03Z</time>
      </trkpt>
      <trkpt lat="44.31712" lon="5.08232">
        <ele>229.7</ele>
        <time>2021-02-24T15:20:04Z</time>
      </trkpt>
      <trkpt lat="44.31716" lon="5.0824">
        <ele>229.6</ele>
        <time>2021-02-24T15:20:05Z</time>
      </trkpt>
      <trkpt lat="44.3172" lon="5.08249">
        <ele>229.5</ele>
        <time>2021-02-24T15:20:06Z</time>
      </trkpt>
      <trkpt lat="44.31725" lon="5.08262">
        <ele>229.4</ele>
        <time>2021-02-24T15:20:07Z</time>
      </trkpt>
      <trkpt lat="44.31727" lon="5.08266">
        <ele>229.4</ele>
        <time>2021-02-24T15:20:08Z</time>
      </trkpt>
      <trkpt lat="44.3173" lon="5.08274">
        <ele>229.3</ele>
        <time>2021-02-24T15:20:09Z</time>
      </trkpt>
      <trkpt lat="44.31734" lon="5.08282">
        <ele>229.2</ele>
        <time>2021-02-24T15:20:10Z</time>
      </trkpt>
      <trkpt lat="44.31738" lon="5.08291">
        <ele>229.1</ele>
        <time>2021-02-24T15:20:11Z</time>
      </trkpt>
      <trkpt lat="44.31741" lon="5.08299">
        <ele>229.1</ele>
        <time>2021-02-24T15:20:12Z</time>
      </trkpt>
      <trkpt lat="44.31749" lon="5.08316">
        <ele>229</ele>
        <time>2021-02-24T15:20:13Z</time>
      </trkpt>
      <trkpt lat="44.31749" lon="5.08316">
        <ele>229</ele>
        <time>2021-02-24T15:20:14Z</time>
      </trkpt>
      <trkpt lat="44.31753" lon="5.08325">
        <ele>228.9</ele>
        <time>2021-02-24T15:20:15Z</time>
      </trkpt>
      <trkpt lat="44.31756" lon="5.08334">
        <ele>228.9</ele>
        <time>2021-02-24T15:20:16Z</time>
      </trkpt>
      <trkpt lat="44.3176" lon="5.08342">
        <ele>228.9</ele>
        <time>2021-02-24T15:20:17Z</time>
      </trkpt>
      <trkpt lat="44.31764" lon="5.0835">
        <ele>228.9</ele>
        <time>2021-02-24T15:20:18Z</time>
      </trkpt>
      <trkpt lat="44.31767" lon="5.08359">
        <ele>228.9</ele>
        <time>2021-02-24T15:20:19Z</time>
      </trkpt>
      <trkpt lat="44.31771" lon="5.08367">
        <ele>228.9</ele>
        <time>2021-02-24T15:20:20Z</time>
      </trkpt>
      <trkpt lat="44.31775" lon="5.08375">
        <ele>228.9</ele>
        <time>2021-02-24T15:20:21Z</time>
      </trkpt>
      <trkpt lat="44.31779" lon="5.08384">
        <ele>228.9</ele>
        <time>2021-02-24T15:20:22Z</time>
      </trkpt>
      <trkpt lat="44.31782" lon="5.08393">
        <ele>228.9</ele>
        <time>2021-02-24T15:20:23Z</time>
      </trkpt>
      <trkpt lat="44.31785" lon="5.08402">
        <ele>229</ele>
        <time>2021-02-24T15:20:24Z</time>
      </trkpt>
      <trkpt lat="44.31787" lon="5.08411">
        <ele>229.1</ele>
        <time>2021-02-24T15:20:25Z</time>
      </trkpt>
      <trkpt lat="44.31789" lon="5.0842">
        <ele>229.2</ele>
        <time>2021-02-24T15:20:26Z</time>
      </trkpt>
      <trkpt lat="44.31791" lon="5.0843">
        <ele>229.3</ele>
        <time>2021-02-24T15:20:27Z</time>
      </trkpt>
      <trkpt lat="44.31793" lon="5.08443">
        <ele>229.5</ele>
        <time>2021-02-24T15:20:28Z</time>
      </trkpt>
      <trkpt lat="44.31793" lon="5.08448">
        <ele>229.6</ele>
        <time>2021-02-24T15:20:29Z</time>
      </trkpt>
      <trkpt lat="44.31794" lon="5.08457">
        <ele>229.8</ele>
        <time>2021-02-24T15:20:30Z</time>
      </trkpt>
      <trkpt lat="44.31795" lon="5.08465">
        <ele>229.9</ele>
        <time>2021-02-24T15:20:31Z</time>
      </trkpt>
      <trkpt lat="44.31798" lon="5.08482">
        <ele>230.3</ele>
        <time>2021-02-24T15:20:32Z</time>
      </trkpt>
      <trkpt lat="44.31798" lon="5.08482">
        <ele>230.3</ele>
        <time>2021-02-24T15:20:33Z</time>
      </trkpt>
      <trkpt lat="44.31799" lon="5.08491">
        <ele>230.5</ele>
        <time>2021-02-24T15:20:34Z</time>
      </trkpt>
      <trkpt lat="44.318" lon="5.08499">
        <ele>230.7</ele>
        <time>2021-02-24T15:20:35Z</time>
      </trkpt>
      <trkpt lat="44.31801" lon="5.08507">
        <ele>230.9</ele>
        <time>2021-02-24T15:20:36Z</time>
      </trkpt>
      <trkpt lat="44.31803" lon="5.08515">
        <ele>231.1</ele>
        <time>2021-02-24T15:20:37Z</time>
      </trkpt>
      <trkpt lat="44.31804" lon="5.08523">
        <ele>231.3</ele>
        <time>2021-02-24T15:20:38Z</time>
      </trkpt>
      <trkpt lat="44.31806" lon="5.08536">
        <ele>231.7</ele>
        <time>2021-02-24T15:20:39Z</time>
      </trkpt>
      <trkpt lat="44.31806" lon="5.0854">
        <ele>231.8</ele>
        <time>2021-02-24T15:20:40Z</time>
      </trkpt>
      <trkpt lat="44.31808" lon="5.08549">
        <ele>232.1</ele>
        <time>2021-02-24T15:20:41Z</time>
      </trkpt>
      <trkpt lat="44.31809" lon="5.08557">
        <ele>232.4</ele>
        <time>2021-02-24T15:20:42Z</time>
      </trkpt>
      <trkpt lat="44.31811" lon="5.08565">
        <ele>232.7</ele>
        <time>2021-02-24T15:20:43Z</time>
      </trkpt>
      <trkpt lat="44.31812" lon="5.08573">
        <ele>232.9</ele>
        <time>2021-02-24T15:20:44Z</time>
      </trkpt>
      <trkpt lat="44.31814" lon="5.08581">
        <ele>233.2</ele>
        <time>2021-02-24T15:20:45Z</time>
      </trkpt>
      <trkpt lat="44.31815" lon="5.08588">
        <ele>233.4</ele>
        <time>2021-02-24T15:20:46Z</time>
      </trkpt>
      <trkpt lat="44.31817" lon="5.08595">
        <ele>233.7</ele>
        <time>2021-02-24T15:20:47Z</time>
      </trkpt>
      <trkpt lat="44.31818" lon="5.08602">
        <ele>233.9</ele>
        <time>2021-02-24T15:20:48Z</time>
      </trkpt>
      <trkpt lat="44.3182" lon="5.08609">
        <ele>234.1</ele>
        <time>2021-02-24T15:20:49Z</time>
      </trkpt>
      <trkpt lat="44.31821" lon="5.08616">
        <ele>234.4</ele>
        <time>2021-02-24T15:20:50Z</time>
      </trkpt>
      <trkpt lat="44.31823" lon="5.08626">
        <ele>234.7</ele>
        <time>2021-02-24T15:20:51Z</time>
      </trkpt>
      <trkpt lat="44.31824" lon="5.0863">
        <ele>234.8</ele>
        <time>2021-02-24T15:20:52Z</time>
      </trkpt>
      <trkpt lat="44.31826" lon="5.08636">
        <ele>235</ele>
        <time>2021-02-24T15:20:53Z</time>
      </trkpt>
      <trkpt lat="44.31828" lon="5.08642">
        <ele>235.2</ele>
        <time>2021-02-24T15:20:54Z</time>
      </trkpt>
      <trkpt lat="44.31829" lon="5.08648">
        <ele>235.3</ele>
        <time>2021-02-24T15:20:55Z</time>
      </trkpt>
      <trkpt lat="44.31831" lon="5.08653">
        <ele>235.5</ele>
        <time>2021-02-24T15:20:56Z</time>
      </trkpt>
      <trkpt lat="44.31832" lon="5.08658">
        <ele>235.7</ele>
        <time>2021-02-24T15:20:57Z</time>
      </trkpt>
      <trkpt lat="44.31834" lon="5.08663">
        <ele>235.8</ele>
        <time>2021-02-24T15:20:58Z</time>
      </trkpt>
      <trkpt lat="44.31835" lon="5.08669">
        <ele>236</ele>
        <time>2021-02-24T15:20:59Z</time>
      </trkpt>
      <trkpt lat="44.31836" lon="5.08673">
        <ele>236</ele>
        <time>2021-02-24T15:21:00Z</time>
      </trkpt>
      <trkpt lat="44.31838" lon="5.08678">
        <ele>236.1</ele>
        <time>2021-02-24T15:21:01Z</time>
      </trkpt>
      <trkpt lat="44.31839" lon="5.08683">
        <ele>236.1</ele>
        <time>2021-02-24T15:21:02Z</time>
      </trkpt>
      <trkpt lat="44.31841" lon="5.08687">
        <ele>236.1</ele>
        <time>2021-02-24T15:21:03Z</time>
      </trkpt>
      <trkpt lat="44.31842" lon="5.08691">
        <ele>236.2</ele>
        <time>2021-02-24T15:21:04Z</time>
      </trkpt>
      <trkpt lat="44.31844" lon="5.08696">
        <ele>236.2</ele>
        <time>2021-02-24T15:21:05Z</time>
      </trkpt>
      <trkpt lat="44.31845" lon="5.087">
        <ele>236.2</ele>
        <time>2021-02-24T15:21:06Z</time>
      </trkpt>
      <trkpt lat="44.31846" lon="5.08705">
        <ele>236.3</ele>
        <time>2021-02-24T15:21:07Z</time>
      </trkpt>
      <trkpt lat="44.31848" lon="5.08709">
        <ele>236.3</ele>
        <time>2021-02-24T15:21:08Z</time>
      </trkpt>
      <trkpt lat="44.31849" lon="5.08714">
        <ele>236.3</ele>
        <time>2021-02-24T15:21:09Z</time>
      </trkpt>
      <trkpt lat="44.3185" lon="5.08718">
        <ele>236.4</ele>
        <time>2021-02-24T15:21:10Z</time>
      </trkpt>
      <trkpt lat="44.31851" lon="5.08722">
        <ele>236.4</ele>
        <time>2021-02-24T15:21:11Z</time>
      </trkpt>
      <trkpt lat="44.31852" lon="5.08726">
        <ele>236.4</ele>
        <time>2021-02-24T15:21:12Z</time>
      </trkpt>
      <trkpt lat="44.31853" lon="5.08731">
        <ele>236.4</ele>
        <time>2021-02-24T15:21:13Z</time>
      </trkpt>
      <trkpt lat="44.31854" lon="5.08735">
        <ele>236.4</ele>
        <time>2021-02-24T15:21:14Z</time>
      </trkpt>
      <trkpt lat="44.31855" lon="5.0874">
        <ele>236.4</ele>
        <time>2021-02-24T15:21:15Z</time>
      </trkpt>
      <trkpt lat="44.31857" lon="5.08744">
        <ele>236.5</ele>
        <time>2021-02-24T15:21:16Z</time>
      </trkpt>
      <trkpt lat="44.31858" lon="5.08748">
        <ele>236.5</ele>
        <time>2021-02-24T15:21:17Z</time>
      </trkpt>
      <trkpt lat="44.31859" lon="5.08753">
        <ele>236.6</ele>
        <time>2021-02-24T15:21:18Z</time>
      </trkpt>
      <trkpt lat="44.3186" lon="5.08757">
        <ele>236.6</ele>
        <time>2021-02-24T15:21:19Z</time>
      </trkpt>
      <trkpt lat="44.31861" lon="5.08762">
        <ele>236.6</ele>
        <time>2021-02-24T15:21:20Z</time>
      </trkpt>
      <trkpt lat="44.31861" lon="5.08766">
        <ele>236.7</ele>
        <time>2021-02-24T15:21:21Z</time>
      </trkpt>
      <trkpt lat="44.31861" lon="5.0877">
        <ele>236.7</ele>
        <time>2021-02-24T15:21:22Z</time>
      </trkpt>
      <trkpt lat="44.31861" lon="5.08774">
        <ele>236.7</ele>
        <time>2021-02-24T15:21:23Z</time>
      </trkpt>
      <trkpt lat="44.31861" lon="5.08777">
        <ele>236.7</ele>
        <time>2021-02-24T15:21:24Z</time>
      </trkpt>
      <trkpt lat="44.31862" lon="5.08781">
        <ele>236.7</ele>
        <time>2021-02-24T15:21:25Z</time>
      </trkpt>
      <trkpt lat="44.31862" lon="5.08784">
        <ele>236.8</ele>
        <time>2021-02-24T15:21:26Z</time>
      </trkpt>
      <trkpt lat="44.31862" lon="5.08787">
        <ele>236.8</ele>
        <time>2021-02-24T15:21:27Z</time>
      </trkpt>
      <trkpt lat="44.31863" lon="5.0879">
        <ele>236.8</ele>
        <time>2021-02-24T15:21:28Z</time>
      </trkpt>
      <trkpt lat="44.31863" lon="5.08793">
        <ele>236.8</ele>
        <time>2021-02-24T15:21:29Z</time>
      </trkpt>
      <trkpt lat="44.31863" lon="5.08797">
        <ele>236.8</ele>
        <time>2021-02-24T15:21:30Z</time>
      </trkpt>
      <trkpt lat="44.31863" lon="5.08802">
        <ele>236.9</ele>
        <time>2021-02-24T15:21:31Z</time>
      </trkpt>
      <trkpt lat="44.31863" lon="5.08806">
        <ele>236.9</ele>
        <time>2021-02-24T15:21:32Z</time>
      </trkpt>
      <trkpt lat="44.31864" lon="5.08811">
        <ele>236.9</ele>
        <time>2021-02-24T15:21:33Z</time>
      </trkpt>
      <trkpt lat="44.31864" lon="5.08815">
        <ele>237</ele>
        <time>2021-02-24T15:21:34Z</time>
      </trkpt>
      <trkpt lat="44.31864" lon="5.0882">
        <ele>237</ele>
        <time>2021-02-24T15:21:35Z</time>
      </trkpt>
      <trkpt lat="44.31864" lon="5.08825">
        <ele>237.1</ele>
        <time>2021-02-24T15:21:36Z</time>
      </trkpt>
      <trkpt lat="44.31864" lon="5.08831">
        <ele>237.1</ele>
        <time>2021-02-24T15:21:37Z</time>
      </trkpt>
      <trkpt lat="44.31864" lon="5.08837">
        <ele>237.2</ele>
        <time>2021-02-24T15:21:38Z</time>
      </trkpt>
      <trkpt lat="44.31864" lon="5.08842">
        <ele>237.2</ele>
        <time>2021-02-24T15:21:39Z</time>
      </trkpt>
      <trkpt lat="44.31864" lon="5.08849">
        <ele>237.3</ele>
        <time>2021-02-24T15:21:40Z</time>
      </trkpt>
      <trkpt lat="44.31864" lon="5.08855">
        <ele>237.4</ele>
        <time>2021-02-24T15:21:41Z</time>
      </trkpt>
      <trkpt lat="44.31864" lon="5.08864">
        <ele>237.5</ele>
        <time>2021-02-24T15:21:42Z</time>
      </trkpt>
      <trkpt lat="44.31864" lon="5.08867">
        <ele>237.5</ele>
        <time>2021-02-24T15:21:43Z</time>
      </trkpt>
      <trkpt lat="44.31864" lon="5.08872">
        <ele>237.6</ele>
        <time>2021-02-24T15:21:44Z</time>
      </trkpt>
      <trkpt lat="44.31864" lon="5.08877">
        <ele>237.7</ele>
        <time>2021-02-24T15:21:45Z</time>
      </trkpt>
      <trkpt lat="44.31864" lon="5.08883">
        <ele>237.7</ele>
        <time>2021-02-24T15:21:46Z</time>
      </trkpt>
      <trkpt lat="44.31864" lon="5.08888">
        <ele>237.8</ele>
        <time>2021-02-24T15:21:47Z</time>
      </trkpt>
      <trkpt lat="44.31864" lon="5.08894">
        <ele>237.9</ele>
        <time>2021-02-24T15:21:48Z</time>
      </trkpt>
      <trkpt lat="44.31864" lon="5.089">
        <ele>238</ele>
        <time>2021-02-24T15:21:49Z</time>
      </trkpt>
      <trkpt lat="44.31864" lon="5.08906">
        <ele>238.1</ele>
        <time>2021-02-24T15:21:50Z</time>
      </trkpt>
      <trkpt lat="44.31865" lon="5.08912">
        <ele>238.2</ele>
        <time>2021-02-24T15:21:51Z</time>
      </trkpt>
      <trkpt lat="44.31865" lon="5.08918">
        <ele>238.3</ele>
        <time>2021-02-24T15:21:52Z</time>
      </trkpt>
      <trkpt lat="44.31865" lon="5.08924">
        <ele>238.4</ele>
        <time>2021-02-24T15:21:53Z</time>
      </trkpt>
      <trkpt lat="44.31865" lon="5.0893">
        <ele>238.5</ele>
        <time>2021-02-24T15:21:54Z</time>
      </trkpt>
      <trkpt lat="44.31865" lon="5.08936">
        <ele>238.6</ele>
        <time>2021-02-24T15:21:55Z</time>
      </trkpt>
      <trkpt lat="44.31866" lon="5.08942">
        <ele>238.7</ele>
        <time>2021-02-24T15:21:56Z</time>
      </trkpt>
      <trkpt lat="44.31866" lon="5.08948">
        <ele>238.8</ele>
        <time>2021-02-24T15:21:57Z</time>
      </trkpt>
      <trkpt lat="44.31866" lon="5.08954">
        <ele>238.9</ele>
        <time>2021-02-24T15:21:58Z</time>
      </trkpt>
      <trkpt lat="44.31866" lon="5.0896">
        <ele>239.1</ele>
        <time>2021-02-24T15:21:59Z</time>
      </trkpt>
      <trkpt lat="44.31867" lon="5.08966">
        <ele>239.2</ele>
        <time>2021-02-24T15:22:00Z</time>
      </trkpt>
      <trkpt lat="44.31867" lon="5.08972">
        <ele>239.3</ele>
        <time>2021-02-24T15:22:01Z</time>
      </trkpt>
      <trkpt lat="44.31867" lon="5.08979">
        <ele>239.4</ele>
        <time>2021-02-24T15:22:02Z</time>
      </trkpt>
      <trkpt lat="44.31867" lon="5.08985">
        <ele>239.5</ele>
        <time>2021-02-24T15:22:03Z</time>
      </trkpt>
      <trkpt lat="44.31866" lon="5.08992">
        <ele>239.6</ele>
        <time>2021-02-24T15:22:04Z</time>
      </trkpt>
      <trkpt lat="44.31866" lon="5.08998">
        <ele>239.7</ele>
        <time>2021-02-24T15:22:05Z</time>
      </trkpt>
      <trkpt lat="44.31865" lon="5.09004">
        <ele>239.8</ele>
        <time>2021-02-24T15:22:06Z</time>
      </trkpt>
      <trkpt lat="44.31863" lon="5.09011">
        <ele>239.8</ele>
        <time>2021-02-24T15:22:07Z</time>
      </trkpt>
      <trkpt lat="44.3186" lon="5.0902">
        <ele>239.9</ele>
        <time>2021-02-24T15:22:08Z</time>
      </trkpt>
      <trkpt lat="44.31859" lon="5.09023">
        <ele>239.9</ele>
        <time>2021-02-24T15:22:09Z</time>
      </trkpt>
      <trkpt lat="44.31856" lon="5.09028">
        <ele>240</ele>
        <time>2021-02-24T15:22:10Z</time>
      </trkpt>
      <trkpt lat="44.31852" lon="5.09034">
        <ele>240</ele>
        <time>2021-02-24T15:22:11Z</time>
      </trkpt>
      <trkpt lat="44.31849" lon="5.09039">
        <ele>240</ele>
        <time>2021-02-24T15:22:12Z</time>
      </trkpt>
      <trkpt lat="44.31845" lon="5.09044">
        <ele>240</ele>
        <time>2021-02-24T15:22:13Z</time>
      </trkpt>
      <trkpt lat="44.3184" lon="5.09049">
        <ele>240.1</ele>
        <time>2021-02-24T15:22:14Z</time>
      </trkpt>
      <trkpt lat="44.31836" lon="5.09054">
        <ele>240.1</ele>
        <time>2021-02-24T15:22:15Z</time>
      </trkpt>
      <trkpt lat="44.31831" lon="5.09059">
        <ele>240.1</ele>
        <time>2021-02-24T15:22:16Z</time>
      </trkpt>
      <trkpt lat="44.31827" lon="5.09064">
        <ele>240.2</ele>
        <time>2021-02-24T15:22:17Z</time>
      </trkpt>
      <trkpt lat="44.31823" lon="5.09069">
        <ele>240.2</ele>
        <time>2021-02-24T15:22:18Z</time>
      </trkpt>
      <trkpt lat="44.31819" lon="5.09074">
        <ele>240.2</ele>
        <time>2021-02-24T15:22:19Z</time>
      </trkpt>
      <trkpt lat="44.31812" lon="5.09081">
        <ele>240.2</ele>
        <time>2021-02-24T15:22:20Z</time>
      </trkpt>
      <trkpt lat="44.3181" lon="5.09084">
        <ele>240.2</ele>
        <time>2021-02-24T15:22:21Z</time>
      </trkpt>
      <trkpt lat="44.31806" lon="5.09089">
        <ele>240.2</ele>
        <time>2021-02-24T15:22:22Z</time>
      </trkpt>
      <trkpt lat="44.31801" lon="5.09094">
        <ele>240.2</ele>
        <time>2021-02-24T15:22:23Z</time>
      </trkpt>
      <trkpt lat="44.31797" lon="5.091">
        <ele>240.2</ele>
        <time>2021-02-24T15:22:24Z</time>
      </trkpt>
      <trkpt lat="44.31794" lon="5.09106">
        <ele>240.2</ele>
        <time>2021-02-24T15:22:25Z</time>
      </trkpt>
      <trkpt lat="44.3179" lon="5.09112">
        <ele>240.2</ele>
        <time>2021-02-24T15:22:26Z</time>
      </trkpt>
      <trkpt lat="44.31785" lon="5.09123">
        <ele>240.3</ele>
        <time>2021-02-24T15:22:27Z</time>
      </trkpt>
      <trkpt lat="44.31783" lon="5.09127">
        <ele>240.3</ele>
        <time>2021-02-24T15:22:28Z</time>
      </trkpt>
      <trkpt lat="44.31781" lon="5.09135">
        <ele>240.3</ele>
        <time>2021-02-24T15:22:29Z</time>
      </trkpt>
      <trkpt lat="44.31779" lon="5.09143">
        <ele>240.3</ele>
        <time>2021-02-24T15:22:30Z</time>
      </trkpt>
      <trkpt lat="44.31778" lon="5.09152">
        <ele>240.3</ele>
        <time>2021-02-24T15:22:31Z</time>
      </trkpt>
      <trkpt lat="44.31778" lon="5.0916">
        <ele>240.3</ele>
        <time>2021-02-24T15:22:32Z</time>
      </trkpt>
      <trkpt lat="44.31777" lon="5.09168">
        <ele>240.3</ele>
        <time>2021-02-24T15:22:33Z</time>
      </trkpt>
      <trkpt lat="44.31776" lon="5.09177">
        <ele>240.3</ele>
        <time>2021-02-24T15:22:34Z</time>
      </trkpt>
      <trkpt lat="44.31774" lon="5.09185">
        <ele>240.3</ele>
        <time>2021-02-24T15:22:35Z</time>
      </trkpt>
      <trkpt lat="44.31771" lon="5.09192">
        <ele>240.3</ele>
        <time>2021-02-24T15:22:36Z</time>
      </trkpt>
      <trkpt lat="44.31768" lon="5.09199">
        <ele>240.2</ele>
        <time>2021-02-24T15:22:37Z</time>
      </trkpt>
      <trkpt lat="44.31764" lon="5.09206">
        <ele>240.2</ele>
        <time>2021-02-24T15:22:38Z</time>
      </trkpt>
      <trkpt lat="44.3176" lon="5.09211">
        <ele>240.2</ele>
        <time>2021-02-24T15:22:39Z</time>
      </trkpt>
      <trkpt lat="44.31755" lon="5.09216">
        <ele>240.2</ele>
        <time>2021-02-24T15:22:40Z</time>
      </trkpt>
      <trkpt lat="44.3175" lon="5.09221">
        <ele>240.2</ele>
        <time>2021-02-24T15:22:41Z</time>
      </trkpt>
      <trkpt lat="44.31745" lon="5.09226">
        <ele>240.2</ele>
        <time>2021-02-24T15:22:42Z</time>
      </trkpt>
      <trkpt lat="44.3174" lon="5.09231">
        <ele>240.1</ele>
        <time>2021-02-24T15:22:43Z</time>
      </trkpt>
      <trkpt lat="44.31735" lon="5.09236">
        <ele>240.1</ele>
        <time>2021-02-24T15:22:44Z</time>
      </trkpt>
      <trkpt lat="44.31725" lon="5.09246">
        <ele>240.1</ele>
        <time>2021-02-24T15:22:45Z</time>
      </trkpt>
      <trkpt lat="44.31725" lon="5.09246">
        <ele>240.1</ele>
        <time>2021-02-24T15:22:46Z</time>
      </trkpt>
      <trkpt lat="44.31719" lon="5.09251">
        <ele>240.1</ele>
        <time>2021-02-24T15:22:47Z</time>
      </trkpt>
      <trkpt lat="44.31714" lon="5.09255">
        <ele>240.1</ele>
        <time>2021-02-24T15:22:48Z</time>
      </trkpt>
      <trkpt lat="44.31708" lon="5.0926">
        <ele>240.2</ele>
        <time>2021-02-24T15:22:49Z</time>
      </trkpt>
      <trkpt lat="44.31703" lon="5.09264">
        <ele>240.2</ele>
        <time>2021-02-24T15:22:50Z</time>
      </trkpt>
      <trkpt lat="44.31697" lon="5.09269">
        <ele>240.2</ele>
        <time>2021-02-24T15:22:51Z</time>
      </trkpt>
      <trkpt lat="44.31692" lon="5.09273">
        <ele>240.2</ele>
        <time>2021-02-24T15:22:52Z</time>
      </trkpt>
      <trkpt lat="44.31686" lon="5.09277">
        <ele>240.2</ele>
        <time>2021-02-24T15:22:53Z</time>
      </trkpt>
      <trkpt lat="44.3168" lon="5.09281">
        <ele>240.2</ele>
        <time>2021-02-24T15:22:54Z</time>
      </trkpt>
      <trkpt lat="44.31675" lon="5.09285">
        <ele>240.2</ele>
        <time>2021-02-24T15:22:55Z</time>
      </trkpt>
      <trkpt lat="44.31669" lon="5.09288">
        <ele>240.2</ele>
        <time>2021-02-24T15:22:56Z</time>
      </trkpt>
      <trkpt lat="44.31664" lon="5.09292">
        <ele>240.3</ele>
        <time>2021-02-24T15:22:57Z</time>
      </trkpt>
      <trkpt lat="44.31659" lon="5.09296">
        <ele>240.3</ele>
        <time>2021-02-24T15:22:58Z</time>
      </trkpt>
      <trkpt lat="44.31653" lon="5.093">
        <ele>240.4</ele>
        <time>2021-02-24T15:22:59Z</time>
      </trkpt>
      <trkpt lat="44.31647" lon="5.09304">
        <ele>240.4</ele>
        <time>2021-02-24T15:23:00Z</time>
      </trkpt>
      <trkpt lat="44.31641" lon="5.09308">
        <ele>240.5</ele>
        <time>2021-02-24T15:23:01Z</time>
      </trkpt>
      <trkpt lat="44.31636" lon="5.09312">
        <ele>240.6</ele>
        <time>2021-02-24T15:23:02Z</time>
      </trkpt>
      <trkpt lat="44.3163" lon="5.09315">
        <ele>240.7</ele>
        <time>2021-02-24T15:23:03Z</time>
      </trkpt>
      <trkpt lat="44.31625" lon="5.09319">
        <ele>240.8</ele>
        <time>2021-02-24T15:23:04Z</time>
      </trkpt>
      <trkpt lat="44.31617" lon="5.09325">
        <ele>240.9</ele>
        <time>2021-02-24T15:23:05Z</time>
      </trkpt>
      <trkpt lat="44.31614" lon="5.09327">
        <ele>240.9</ele>
        <time>2021-02-24T15:23:06Z</time>
      </trkpt>
      <trkpt lat="44.31609" lon="5.0933">
        <ele>241</ele>
        <time>2021-02-24T15:23:07Z</time>
      </trkpt>
      <trkpt lat="44.31604" lon="5.09334">
        <ele>241.1</ele>
        <time>2021-02-24T15:23:08Z</time>
      </trkpt>
      <trkpt lat="44.31599" lon="5.09337">
        <ele>241.2</ele>
        <time>2021-02-24T15:23:09Z</time>
      </trkpt>
      <trkpt lat="44.31594" lon="5.09341">
        <ele>241.2</ele>
        <time>2021-02-24T15:23:10Z</time>
      </trkpt>
      <trkpt lat="44.31589" lon="5.09345">
        <ele>241.3</ele>
        <time>2021-02-24T15:23:11Z</time>
      </trkpt>
      <trkpt lat="44.31584" lon="5.09349">
        <ele>241.4</ele>
        <time>2021-02-24T15:23:12Z</time>
      </trkpt>
      <trkpt lat="44.31579" lon="5.09353">
        <ele>241.5</ele>
        <time>2021-02-24T15:23:13Z</time>
      </trkpt>
      <trkpt lat="44.31574" lon="5.09357">
        <ele>241.5</ele>
        <time>2021-02-24T15:23:14Z</time>
      </trkpt>
      <trkpt lat="44.3157" lon="5.09362">
        <ele>241.6</ele>
        <time>2021-02-24T15:23:15Z</time>
      </trkpt>
      <trkpt lat="44.31565" lon="5.09367">
        <ele>241.7</ele>
        <time>2021-02-24T15:23:16Z</time>
      </trkpt>
      <trkpt lat="44.3156" lon="5.09372">
        <ele>241.8</ele>
        <time>2021-02-24T15:23:17Z</time>
      </trkpt>
      <trkpt lat="44.31556" lon="5.09376">
        <ele>241.9</ele>
        <time>2021-02-24T15:23:18Z</time>
      </trkpt>
      <trkpt lat="44.31552" lon="5.0938">
        <ele>241.9</ele>
        <time>2021-02-24T15:23:19Z</time>
      </trkpt>
      <trkpt lat="44.31547" lon="5.09385">
        <ele>242</ele>
        <time>2021-02-24T15:23:20Z</time>
      </trkpt>
      <trkpt lat="44.31543" lon="5.09389">
        <ele>242.1</ele>
        <time>2021-02-24T15:23:21Z</time>
      </trkpt>
      <trkpt lat="44.31539" lon="5.09394">
        <ele>242.2</ele>
        <time>2021-02-24T15:23:22Z</time>
      </trkpt>
      <trkpt lat="44.31536" lon="5.09398">
        <ele>242.2</ele>
        <time>2021-02-24T15:23:23Z</time>
      </trkpt>
      <trkpt lat="44.3153" lon="5.09404">
        <ele>242.3</ele>
        <time>2021-02-24T15:23:24Z</time>
      </trkpt>
      <trkpt lat="44.31528" lon="5.09406">
        <ele>242.4</ele>
        <time>2021-02-24T15:23:25Z</time>
      </trkpt>
      <trkpt lat="44.31524" lon="5.09411">
        <ele>242.5</ele>
        <time>2021-02-24T15:23:26Z</time>
      </trkpt>
      <trkpt lat="44.3152" lon="5.09415">
        <ele>242.5</ele>
        <time>2021-02-24T15:23:27Z</time>
      </trkpt>
      <trkpt lat="44.31516" lon="5.09419">
        <ele>242.6</ele>
        <time>2021-02-24T15:23:28Z</time>
      </trkpt>
      <trkpt lat="44.31512" lon="5.09424">
        <ele>242.7</ele>
        <time>2021-02-24T15:23:29Z</time>
      </trkpt>
      <trkpt lat="44.31507" lon="5.09428">
        <ele>242.7</ele>
        <time>2021-02-24T15:23:30Z</time>
      </trkpt>
      <trkpt lat="44.31502" lon="5.09434">
        <ele>242.8</ele>
        <time>2021-02-24T15:23:31Z</time>
      </trkpt>
      <trkpt lat="44.31497" lon="5.09439">
        <ele>242.9</ele>
        <time>2021-02-24T15:23:32Z</time>
      </trkpt>
      <trkpt lat="44.31492" lon="5.09444">
        <ele>243</ele>
        <time>2021-02-24T15:23:33Z</time>
      </trkpt>
      <trkpt lat="44.31488" lon="5.09449">
        <ele>243</ele>
        <time>2021-02-24T15:23:34Z</time>
      </trkpt>
      <trkpt lat="44.31483" lon="5.09454">
        <ele>243.1</ele>
        <time>2021-02-24T15:23:35Z</time>
      </trkpt>
      <trkpt lat="44.31479" lon="5.09458">
        <ele>243.2</ele>
        <time>2021-02-24T15:23:36Z</time>
      </trkpt>
      <trkpt lat="44.31474" lon="5.09463">
        <ele>243.2</ele>
        <time>2021-02-24T15:23:37Z</time>
      </trkpt>
      <trkpt lat="44.3147" lon="5.09468">
        <ele>243.3</ele>
        <time>2021-02-24T15:23:38Z</time>
      </trkpt>
      <trkpt lat="44.31465" lon="5.09472">
        <ele>243.3</ele>
        <time>2021-02-24T15:23:39Z</time>
      </trkpt>
      <trkpt lat="44.31461" lon="5.09477">
        <ele>243.4</ele>
        <time>2021-02-24T15:23:40Z</time>
      </trkpt>
      <trkpt lat="44.31457" lon="5.09481">
        <ele>243.4</ele>
        <time>2021-02-24T15:23:41Z</time>
      </trkpt>
      <trkpt lat="44.31453" lon="5.09486">
        <ele>243.4</ele>
        <time>2021-02-24T15:23:42Z</time>
      </trkpt>
      <trkpt lat="44.31446" lon="5.09493">
        <ele>243.5</ele>
        <time>2021-02-24T15:23:43Z</time>
      </trkpt>
      <trkpt lat="44.31444" lon="5.09495">
        <ele>243.5</ele>
        <time>2021-02-24T15:23:44Z</time>
      </trkpt>
      <trkpt lat="44.3144" lon="5.095">
        <ele>243.6</ele>
        <time>2021-02-24T15:23:45Z</time>
      </trkpt>
      <trkpt lat="44.31435" lon="5.09505">
        <ele>243.6</ele>
        <time>2021-02-24T15:23:46Z</time>
      </trkpt>
      <trkpt lat="44.3143" lon="5.0951">
        <ele>243.6</ele>
        <time>2021-02-24T15:23:47Z</time>
      </trkpt>
      <trkpt lat="44.31426" lon="5.09514">
        <ele>243.6</ele>
        <time>2021-02-24T15:23:48Z</time>
      </trkpt>
      <trkpt lat="44.31421" lon="5.09519">
        <ele>243.6</ele>
        <time>2021-02-24T15:23:49Z</time>
      </trkpt>
      <trkpt lat="44.31417" lon="5.09524">
        <ele>243.6</ele>
        <time>2021-02-24T15:23:50Z</time>
      </trkpt>
      <trkpt lat="44.31412" lon="5.09528">
        <ele>243.6</ele>
        <time>2021-02-24T15:23:51Z</time>
      </trkpt>
      <trkpt lat="44.31408" lon="5.09533">
        <ele>243.7</ele>
        <time>2021-02-24T15:23:52Z</time>
      </trkpt>
      <trkpt lat="44.31403" lon="5.09537">
        <ele>243.7</ele>
        <time>2021-02-24T15:23:53Z</time>
      </trkpt>
      <trkpt lat="44.31399" lon="5.09542">
        <ele>243.7</ele>
        <time>2021-02-24T15:23:54Z</time>
      </trkpt>
      <trkpt lat="44.31394" lon="5.09547">
        <ele>243.7</ele>
        <time>2021-02-24T15:23:55Z</time>
      </trkpt>
      <trkpt lat="44.3139" lon="5.09552">
        <ele>243.8</ele>
        <time>2021-02-24T15:23:56Z</time>
      </trkpt>
      <trkpt lat="44.31385" lon="5.09557">
        <ele>243.8</ele>
        <time>2021-02-24T15:23:57Z</time>
      </trkpt>
      <trkpt lat="44.31381" lon="5.09562">
        <ele>243.8</ele>
        <time>2021-02-24T15:23:58Z</time>
      </trkpt>
      <trkpt lat="44.31376" lon="5.09567">
        <ele>243.9</ele>
        <time>2021-02-24T15:23:59Z</time>
      </trkpt>
      <trkpt lat="44.31372" lon="5.09572">
        <ele>243.9</ele>
        <time>2021-02-24T15:24:00Z</time>
      </trkpt>
      <trkpt lat="44.31363" lon="5.09583">
        <ele>244</ele>
        <time>2021-02-24T15:24:01Z</time>
      </trkpt>
      <trkpt lat="44.31363" lon="5.09583">
        <ele>244</ele>
        <time>2021-02-24T15:24:02Z</time>
      </trkpt>
      <trkpt lat="44.31359" lon="5.09589">
        <ele>244.1</ele>
        <time>2021-02-24T15:24:03Z</time>
      </trkpt>
      <trkpt lat="44.31354" lon="5.09597">
        <ele>244.2</ele>
        <time>2021-02-24T15:24:04Z</time>
      </trkpt>
      <trkpt lat="44.31353" lon="5.096">
        <ele>244.3</ele>
        <time>2021-02-24T15:24:05Z</time>
      </trkpt>
      <trkpt lat="44.31351" lon="5.09606">
        <ele>244.3</ele>
        <time>2021-02-24T15:24:06Z</time>
      </trkpt>
      <trkpt lat="44.31348" lon="5.09611">
        <ele>244.4</ele>
        <time>2021-02-24T15:24:07Z</time>
      </trkpt>
      <trkpt lat="44.31347" lon="5.09615">
        <ele>244.5</ele>
        <time>2021-02-24T15:24:08Z</time>
      </trkpt>
      <trkpt lat="44.31344" lon="5.09621">
        <ele>244.6</ele>
        <time>2021-02-24T15:24:09Z</time>
      </trkpt>
      <trkpt lat="44.3134" lon="5.09628">
        <ele>244.7</ele>
        <time>2021-02-24T15:24:10Z</time>
      </trkpt>
      <trkpt lat="44.31336" lon="5.09634">
        <ele>244.9</ele>
        <time>2021-02-24T15:24:11Z</time>
      </trkpt>
      <trkpt lat="44.31333" lon="5.0964">
        <ele>245.1</ele>
        <time>2021-02-24T15:24:12Z</time>
      </trkpt>
      <trkpt lat="44.3133" lon="5.09645">
        <ele>245.2</ele>
        <time>2021-02-24T15:24:13Z</time>
      </trkpt>
      <trkpt lat="44.31327" lon="5.0965">
        <ele>245.4</ele>
        <time>2021-02-24T15:24:14Z</time>
      </trkpt>
      <trkpt lat="44.31324" lon="5.09655">
        <ele>245.6</ele>
        <time>2021-02-24T15:24:15Z</time>
      </trkpt>
      <trkpt lat="44.31321" lon="5.09661">
        <ele>245.7</ele>
        <time>2021-02-24T15:24:16Z</time>
      </trkpt>
      <trkpt lat="44.31318" lon="5.09666">
        <ele>245.9</ele>
        <time>2021-02-24T15:24:17Z</time>
      </trkpt>
      <trkpt lat="44.31315" lon="5.09671">
        <ele>246.1</ele>
        <time>2021-02-24T15:24:18Z</time>
      </trkpt>
      <trkpt lat="44.31312" lon="5.09675">
        <ele>246.3</ele>
        <time>2021-02-24T15:24:19Z</time>
      </trkpt>
      <trkpt lat="44.31308" lon="5.09684">
        <ele>246.6</ele>
        <time>2021-02-24T15:24:20Z</time>
      </trkpt>
      <trkpt lat="44.31308" lon="5.09684">
        <ele>246.6</ele>
        <time>2021-02-24T15:24:21Z</time>
      </trkpt>
      <trkpt lat="44.31306" lon="5.09688">
        <ele>246.8</ele>
        <time>2021-02-24T15:24:22Z</time>
      </trkpt>
      <trkpt lat="44.31304" lon="5.09691">
        <ele>247</ele>
        <time>2021-02-24T15:24:23Z</time>
      </trkpt>
      <trkpt lat="44.31302" lon="5.09695">
        <ele>247.2</ele>
        <time>2021-02-24T15:24:24Z</time>
      </trkpt>
      <trkpt lat="44.31301" lon="5.09699">
        <ele>247.4</ele>
        <time>2021-02-24T15:24:25Z</time>
      </trkpt>
      <trkpt lat="44.313" lon="5.09702">
        <ele>247.5</ele>
        <time>2021-02-24T15:24:26Z</time>
      </trkpt>
      <trkpt lat="44.31299" lon="5.09704">
        <ele>247.6</ele>
        <time>2021-02-24T15:24:27Z</time>
      </trkpt>
      <trkpt lat="44.31298" lon="5.09706">
        <ele>247.7</ele>
        <time>2021-02-24T15:24:28Z</time>
      </trkpt>
      <trkpt lat="44.31298" lon="5.09706">
        <ele>247.7</ele>
        <time>2021-02-24T15:24:29Z</time>
      </trkpt>
      <trkpt lat="44.31298" lon="5.0971">
        <ele>247.8</ele>
        <time>2021-02-24T15:24:30Z</time>
      </trkpt>
      <trkpt lat="44.31298" lon="5.0971">
        <ele>247.8</ele>
        <time>2021-02-24T15:24:31Z</time>
      </trkpt>
      <trkpt lat="44.31298" lon="5.0971">
        <ele>247.8</ele>
        <time>2021-02-24T15:24:32Z</time>
      </trkpt>
      <trkpt lat="44.31298" lon="5.0971">
        <ele>247.8</ele>
        <time>2021-02-24T15:24:33Z</time>
      </trkpt>
      <trkpt lat="44.31298" lon="5.0971">
        <ele>247.8</ele>
        <time>2021-02-24T15:24:34Z</time>
      </trkpt>
      <trkpt lat="44.31298" lon="5.09713">
        <ele>247.9</ele>
        <time>2021-02-24T15:24:35Z</time>
      </trkpt>
      <trkpt lat="44.31302" lon="5.0972">
        <ele>248.2</ele>
        <time>2021-02-24T15:24:48Z</time>
      </trkpt>
      <trkpt lat="44.31304" lon="5.09722">
        <ele>248</ele>
        <time>2021-02-24T15:24:49Z</time>
      </trkpt>
      <trkpt lat="44.31306" lon="5.09725">
        <ele>247.9</ele>
        <time>2021-02-24T15:24:50Z</time>
      </trkpt>
      <trkpt lat="44.31309" lon="5.09726">
        <ele>247.8</ele>
        <time>2021-02-24T15:24:51Z</time>
      </trkpt>
      <trkpt lat="44.31312" lon="5.09727">
        <ele>247.6</ele>
        <time>2021-02-24T15:24:52Z</time>
      </trkpt>
      <trkpt lat="44.31315" lon="5.09727">
        <ele>247.5</ele>
        <time>2021-02-24T15:24:53Z</time>
      </trkpt>
      <trkpt lat="44.31318" lon="5.09728">
        <ele>247.4</ele>
        <time>2021-02-24T15:24:54Z</time>
      </trkpt>
      <trkpt lat="44.31321" lon="5.09729">
        <ele>247.2</ele>
        <time>2021-02-24T15:24:55Z</time>
      </trkpt>
      <trkpt lat="44.31324" lon="5.09731">
        <ele>247.1</ele>
        <time>2021-02-24T15:24:56Z</time>
      </trkpt>
      <trkpt lat="44.31326" lon="5.09732">
        <ele>247</ele>
        <time>2021-02-24T15:24:57Z</time>
      </trkpt>
      <trkpt lat="44.31328" lon="5.09733">
        <ele>247</ele>
        <time>2021-02-24T15:24:58Z</time>
      </trkpt>
      <trkpt lat="44.3133" lon="5.09734">
        <ele>246.9</ele>
        <time>2021-02-24T15:24:59Z</time>
      </trkpt>
      <trkpt lat="44.3133" lon="5.09734">
        <ele>246.9</ele>
        <time>2021-02-24T15:25:00Z</time>
      </trkpt>
      <trkpt lat="44.31332" lon="5.09733">
        <ele>246.8</ele>
        <time>2021-02-24T15:25:01Z</time>
      </trkpt>
      <trkpt lat="44.31332" lon="5.09733">
        <ele>246.8</ele>
        <time>2021-02-24T15:25:02Z</time>
      </trkpt>
      <trkpt lat="44.31333" lon="5.09733">
        <ele>246.7</ele>
        <time>2021-02-24T15:25:03Z</time>
      </trkpt>
      <trkpt lat="44.31335" lon="5.09733">
        <ele>246.7</ele>
        <time>2021-02-24T15:25:04Z</time>
      </trkpt>
      <trkpt lat="44.31336" lon="5.09733">
        <ele>246.6</ele>
        <time>2021-02-24T15:25:05Z</time>
      </trkpt>
      <trkpt lat="44.31337" lon="5.09733">
        <ele>246.6</ele>
        <time>2021-02-24T15:25:06Z</time>
      </trkpt>
      <trkpt lat="44.31338" lon="5.09732">
        <ele>246.5</ele>
        <time>2021-02-24T15:25:07Z</time>
      </trkpt>
      <trkpt lat="44.3134" lon="5.09732">
        <ele>246.4</ele>
        <time>2021-02-24T15:25:10Z</time>
      </trkpt>
      <trkpt lat="44.31341" lon="5.09732">
        <ele>246.4</ele>
        <time>2021-02-24T15:25:11Z</time>
      </trkpt>
      <trkpt lat="44.31342" lon="5.09732">
        <ele>246.3</ele>
        <time>2021-02-24T15:25:12Z</time>
      </trkpt>
      <trkpt lat="44.31345" lon="5.09732">
        <ele>246.2</ele>
        <time>2021-02-24T15:25:13Z</time>
      </trkpt>
      <trkpt lat="44.31349" lon="5.09733">
        <ele>246.1</ele>
        <time>2021-02-24T15:25:14Z</time>
      </trkpt>
      <trkpt lat="44.31352" lon="5.09733">
        <ele>245.9</ele>
        <time>2021-02-24T15:25:15Z</time>
      </trkpt>
      <trkpt lat="44.31356" lon="5.09733">
        <ele>245.8</ele>
        <time>2021-02-24T15:25:16Z</time>
      </trkpt>
      <trkpt lat="44.3136" lon="5.09733">
        <ele>245.6</ele>
        <time>2021-02-24T15:25:17Z</time>
      </trkpt>
      <trkpt lat="44.31364" lon="5.09734">
        <ele>245.4</ele>
        <time>2021-02-24T15:25:18Z</time>
      </trkpt>
      <trkpt lat="44.31367" lon="5.09734">
        <ele>245.3</ele>
        <time>2021-02-24T15:25:19Z</time>
      </trkpt>
      <trkpt lat="44.31372" lon="5.09735">
        <ele>245.1</ele>
        <time>2021-02-24T15:25:20Z</time>
      </trkpt>
      <trkpt lat="44.31376" lon="5.09735">
        <ele>245</ele>
        <time>2021-02-24T15:25:21Z</time>
      </trkpt>
      <trkpt lat="44.3138" lon="5.09736">
        <ele>244.8</ele>
        <time>2021-02-24T15:25:22Z</time>
      </trkpt>
      <trkpt lat="44.31385" lon="5.09737">
        <ele>244.7</ele>
        <time>2021-02-24T15:25:23Z</time>
      </trkpt>
      <trkpt lat="44.31389" lon="5.09738">
        <ele>244.6</ele>
        <time>2021-02-24T15:25:24Z</time>
      </trkpt>
      <trkpt lat="44.31393" lon="5.09738">
        <ele>244.5</ele>
        <time>2021-02-24T15:25:25Z</time>
      </trkpt>
      <trkpt lat="44.31398" lon="5.09739">
        <ele>244.4</ele>
        <time>2021-02-24T15:25:26Z</time>
      </trkpt>
      <trkpt lat="44.31402" lon="5.09739">
        <ele>244.2</ele>
        <time>2021-02-24T15:25:27Z</time>
      </trkpt>
      <trkpt lat="44.31407" lon="5.0974">
        <ele>244.1</ele>
        <time>2021-02-24T15:25:28Z</time>
      </trkpt>
      <trkpt lat="44.31412" lon="5.09742">
        <ele>244</ele>
        <time>2021-02-24T15:25:29Z</time>
      </trkpt>
      <trkpt lat="44.31422" lon="5.09747">
        <ele>243.9</ele>
        <time>2021-02-24T15:25:30Z</time>
      </trkpt>
      <trkpt lat="44.31422" lon="5.09747">
        <ele>243.9</ele>
        <time>2021-02-24T15:25:31Z</time>
      </trkpt>
      <trkpt lat="44.31429" lon="5.09752">
        <ele>243.9</ele>
        <time>2021-02-24T15:25:32Z</time>
      </trkpt>
      <trkpt lat="44.31431" lon="5.09754">
        <ele>243.9</ele>
        <time>2021-02-24T15:25:33Z</time>
      </trkpt>
      <trkpt lat="44.31436" lon="5.09757">
        <ele>243.9</ele>
        <time>2021-02-24T15:25:34Z</time>
      </trkpt>
      <trkpt lat="44.3144" lon="5.09761">
        <ele>244</ele>
        <time>2021-02-24T15:25:35Z</time>
      </trkpt>
      <trkpt lat="44.31445" lon="5.09764">
        <ele>244</ele>
        <time>2021-02-24T15:25:36Z</time>
      </trkpt>
      <trkpt lat="44.31449" lon="5.09767">
        <ele>244</ele>
        <time>2021-02-24T15:25:37Z</time>
      </trkpt>
      <trkpt lat="44.31454" lon="5.09771">
        <ele>244</ele>
        <time>2021-02-24T15:25:38Z</time>
      </trkpt>
      <trkpt lat="44.31458" lon="5.09774">
        <ele>244.1</ele>
        <time>2021-02-24T15:25:39Z</time>
      </trkpt>
      <trkpt lat="44.31462" lon="5.09777">
        <ele>244.1</ele>
        <time>2021-02-24T15:25:40Z</time>
      </trkpt>
      <trkpt lat="44.31468" lon="5.09782">
        <ele>244.3</ele>
        <time>2021-02-24T15:25:41Z</time>
      </trkpt>
      <trkpt lat="44.3147" lon="5.09783">
        <ele>244.3</ele>
        <time>2021-02-24T15:25:42Z</time>
      </trkpt>
      <trkpt lat="44.31474" lon="5.09786">
        <ele>244.4</ele>
        <time>2021-02-24T15:25:43Z</time>
      </trkpt>
      <trkpt lat="44.31478" lon="5.09789">
        <ele>244.6</ele>
        <time>2021-02-24T15:25:44Z</time>
      </trkpt>
      <trkpt lat="44.31482" lon="5.09792">
        <ele>244.7</ele>
        <time>2021-02-24T15:25:45Z</time>
      </trkpt>
      <trkpt lat="44.31486" lon="5.09795">
        <ele>244.8</ele>
        <time>2021-02-24T15:25:46Z</time>
      </trkpt>
      <trkpt lat="44.3149" lon="5.09798">
        <ele>245</ele>
        <time>2021-02-24T15:25:47Z</time>
      </trkpt>
      <trkpt lat="44.31497" lon="5.09803">
        <ele>245.3</ele>
        <time>2021-02-24T15:25:48Z</time>
      </trkpt>
      <trkpt lat="44.31501" lon="5.09806">
        <ele>245.4</ele>
        <time>2021-02-24T15:25:49Z</time>
      </trkpt>
      <trkpt lat="44.31501" lon="5.09806">
        <ele>245.4</ele>
        <time>2021-02-24T15:25:50Z</time>
      </trkpt>
      <trkpt lat="44.31505" lon="5.09808">
        <ele>245.6</ele>
        <time>2021-02-24T15:25:51Z</time>
      </trkpt>
      <trkpt lat="44.31508" lon="5.09811">
        <ele>245.7</ele>
        <time>2021-02-24T15:25:52Z</time>
      </trkpt>
      <trkpt lat="44.31512" lon="5.09814">
        <ele>245.7</ele>
        <time>2021-02-24T15:25:53Z</time>
      </trkpt>
      <trkpt lat="44.31516" lon="5.09816">
        <ele>245.7</ele>
        <time>2021-02-24T15:25:54Z</time>
      </trkpt>
      <trkpt lat="44.31521" lon="5.09819">
        <ele>245.7</ele>
        <time>2021-02-24T15:25:55Z</time>
      </trkpt>
      <trkpt lat="44.31523" lon="5.09821">
        <ele>245.6</ele>
        <time>2021-02-24T15:25:56Z</time>
      </trkpt>
      <trkpt lat="44.31527" lon="5.09823">
        <ele>245.7</ele>
        <time>2021-02-24T15:25:57Z</time>
      </trkpt>
      <trkpt lat="44.3153" lon="5.09825">
        <ele>245.8</ele>
        <time>2021-02-24T15:25:58Z</time>
      </trkpt>
      <trkpt lat="44.31534" lon="5.09827">
        <ele>245.9</ele>
        <time>2021-02-24T15:25:59Z</time>
      </trkpt>
      <trkpt lat="44.31537" lon="5.09829">
        <ele>246.1</ele>
        <time>2021-02-24T15:26:00Z</time>
      </trkpt>
      <trkpt lat="44.3154" lon="5.09832">
        <ele>246.2</ele>
        <time>2021-02-24T15:26:01Z</time>
      </trkpt>
      <trkpt lat="44.31543" lon="5.09834">
        <ele>246.4</ele>
        <time>2021-02-24T15:26:02Z</time>
      </trkpt>
      <trkpt lat="44.31547" lon="5.09837">
        <ele>246.5</ele>
        <time>2021-02-24T15:26:03Z</time>
      </trkpt>
      <trkpt lat="44.31551" lon="5.09839">
        <ele>246.7</ele>
        <time>2021-02-24T15:26:04Z</time>
      </trkpt>
      <trkpt lat="44.31554" lon="5.0984">
        <ele>246.9</ele>
        <time>2021-02-24T15:26:05Z</time>
      </trkpt>
      <trkpt lat="44.31558" lon="5.09842">
        <ele>247</ele>
        <time>2021-02-24T15:26:06Z</time>
      </trkpt>
      <trkpt lat="44.31562" lon="5.09845">
        <ele>247.3</ele>
        <time>2021-02-24T15:26:07Z</time>
      </trkpt>
      <trkpt lat="44.31566" lon="5.09848">
        <ele>247.5</ele>
        <time>2021-02-24T15:26:08Z</time>
      </trkpt>
      <trkpt lat="44.31569" lon="5.09851">
        <ele>247.6</ele>
        <time>2021-02-24T15:26:09Z</time>
      </trkpt>
      <trkpt lat="44.31572" lon="5.09854">
        <ele>247.8</ele>
        <time>2021-02-24T15:26:10Z</time>
      </trkpt>
      <trkpt lat="44.31576" lon="5.09857">
        <ele>247.9</ele>
        <time>2021-02-24T15:26:11Z</time>
      </trkpt>
      <trkpt lat="44.31579" lon="5.0986">
        <ele>248.1</ele>
        <time>2021-02-24T15:26:12Z</time>
      </trkpt>
      <trkpt lat="44.31583" lon="5.09863">
        <ele>248.2</ele>
        <time>2021-02-24T15:26:13Z</time>
      </trkpt>
      <trkpt lat="44.31586" lon="5.09866">
        <ele>248.4</ele>
        <time>2021-02-24T15:26:14Z</time>
      </trkpt>
      <trkpt lat="44.31589" lon="5.09869">
        <ele>248.5</ele>
        <time>2021-02-24T15:26:15Z</time>
      </trkpt>
      <trkpt lat="44.31592" lon="5.09872">
        <ele>248.9</ele>
        <time>2021-02-24T15:26:16Z</time>
      </trkpt>
      <trkpt lat="44.31596" lon="5.09875">
        <ele>249.6</ele>
        <time>2021-02-24T15:26:17Z</time>
      </trkpt>
      <trkpt lat="44.31599" lon="5.09878">
        <ele>250.2</ele>
        <time>2021-02-24T15:26:18Z</time>
      </trkpt>
      <trkpt lat="44.31602" lon="5.09881">
        <ele>250.3</ele>
        <time>2021-02-24T15:26:19Z</time>
      </trkpt>
      <trkpt lat="44.31605" lon="5.09883">
        <ele>250.4</ele>
        <time>2021-02-24T15:26:20Z</time>
      </trkpt>
      <trkpt lat="44.31609" lon="5.09886">
        <ele>250.5</ele>
        <time>2021-02-24T15:26:21Z</time>
      </trkpt>
      <trkpt lat="44.31612" lon="5.09889">
        <ele>250.6</ele>
        <time>2021-02-24T15:26:22Z</time>
      </trkpt>
      <trkpt lat="44.31616" lon="5.09892">
        <ele>250.8</ele>
        <time>2021-02-24T15:26:23Z</time>
      </trkpt>
      <trkpt lat="44.31619" lon="5.09896">
        <ele>250.9</ele>
        <time>2021-02-24T15:26:24Z</time>
      </trkpt>
      <trkpt lat="44.31622" lon="5.099">
        <ele>251</ele>
        <time>2021-02-24T15:26:25Z</time>
      </trkpt>
      <trkpt lat="44.31623" lon="5.09905">
        <ele>251.1</ele>
        <time>2021-02-24T15:26:26Z</time>
      </trkpt>
      <trkpt lat="44.31627" lon="5.09916">
        <ele>251.4</ele>
        <time>2021-02-24T15:26:27Z</time>
      </trkpt>
      <trkpt lat="44.31627" lon="5.09916">
        <ele>251.4</ele>
        <time>2021-02-24T15:26:28Z</time>
      </trkpt>
      <trkpt lat="44.31629" lon="5.09921">
        <ele>251.5</ele>
        <time>2021-02-24T15:26:29Z</time>
      </trkpt>
      <trkpt lat="44.31632" lon="5.09926">
        <ele>251.6</ele>
        <time>2021-02-24T15:26:30Z</time>
      </trkpt>
      <trkpt lat="44.31634" lon="5.09931">
        <ele>251.7</ele>
        <time>2021-02-24T15:26:31Z</time>
      </trkpt>
      <trkpt lat="44.31638" lon="5.09939">
        <ele>251.8</ele>
        <time>2021-02-24T15:26:32Z</time>
      </trkpt>
      <trkpt lat="44.31639" lon="5.09942">
        <ele>251.9</ele>
        <time>2021-02-24T15:26:33Z</time>
      </trkpt>
      <trkpt lat="44.31641" lon="5.09947">
        <ele>252</ele>
        <time>2021-02-24T15:26:34Z</time>
      </trkpt>
      <trkpt lat="44.31644" lon="5.09952">
        <ele>252</ele>
        <time>2021-02-24T15:26:35Z</time>
      </trkpt>
      <trkpt lat="44.31646" lon="5.09957">
        <ele>252</ele>
        <time>2021-02-24T15:26:36Z</time>
      </trkpt>
      <trkpt lat="44.31648" lon="5.09962">
        <ele>252</ele>
        <time>2021-02-24T15:26:37Z</time>
      </trkpt>
      <trkpt lat="44.31651" lon="5.09968">
        <ele>252</ele>
        <time>2021-02-24T15:26:38Z</time>
      </trkpt>
      <trkpt lat="44.31653" lon="5.09973">
        <ele>252.1</ele>
        <time>2021-02-24T15:26:39Z</time>
      </trkpt>
      <trkpt lat="44.31655" lon="5.09978">
        <ele>252.2</ele>
        <time>2021-02-24T15:26:40Z</time>
      </trkpt>
      <trkpt lat="44.31657" lon="5.09983">
        <ele>252.3</ele>
        <time>2021-02-24T15:26:41Z</time>
      </trkpt>
      <trkpt lat="44.31659" lon="5.09989">
        <ele>252.4</ele>
        <time>2021-02-24T15:26:42Z</time>
      </trkpt>
      <trkpt lat="44.31661" lon="5.09994">
        <ele>252.5</ele>
        <time>2021-02-24T15:26:43Z</time>
      </trkpt>
      <trkpt lat="44.31664" lon="5.09999">
        <ele>252.7</ele>
        <time>2021-02-24T15:26:44Z</time>
      </trkpt>
      <trkpt lat="44.31666" lon="5.10004">
        <ele>252.8</ele>
        <time>2021-02-24T15:26:45Z</time>
      </trkpt>
      <trkpt lat="44.31669" lon="5.10011">
        <ele>253</ele>
        <time>2021-02-24T15:26:46Z</time>
      </trkpt>
      <trkpt lat="44.3167" lon="5.10013">
        <ele>253.1</ele>
        <time>2021-02-24T15:26:47Z</time>
      </trkpt>
      <trkpt lat="44.31672" lon="5.10018">
        <ele>253.3</ele>
        <time>2021-02-24T15:26:48Z</time>
      </trkpt>
      <trkpt lat="44.31674" lon="5.10022">
        <ele>253.5</ele>
        <time>2021-02-24T15:26:49Z</time>
      </trkpt>
      <trkpt lat="44.31676" lon="5.10026">
        <ele>253.7</ele>
        <time>2021-02-24T15:26:50Z</time>
      </trkpt>
      <trkpt lat="44.31678" lon="5.10031">
        <ele>253.9</ele>
        <time>2021-02-24T15:26:51Z</time>
      </trkpt>
      <trkpt lat="44.31679" lon="5.10035">
        <ele>254.2</ele>
        <time>2021-02-24T15:26:52Z</time>
      </trkpt>
      <trkpt lat="44.31681" lon="5.10039">
        <ele>254.4</ele>
        <time>2021-02-24T15:26:53Z</time>
      </trkpt>
      <trkpt lat="44.31682" lon="5.10043">
        <ele>254.7</ele>
        <time>2021-02-24T15:26:54Z</time>
      </trkpt>
      <trkpt lat="44.31684" lon="5.10047">
        <ele>255</ele>
        <time>2021-02-24T15:26:55Z</time>
      </trkpt>
      <trkpt lat="44.31685" lon="5.10052">
        <ele>255.2</ele>
        <time>2021-02-24T15:26:56Z</time>
      </trkpt>
      <trkpt lat="44.31687" lon="5.10056">
        <ele>255.5</ele>
        <time>2021-02-24T15:26:57Z</time>
      </trkpt>
      <trkpt lat="44.31688" lon="5.1006">
        <ele>255.8</ele>
        <time>2021-02-24T15:26:58Z</time>
      </trkpt>
      <trkpt lat="44.31689" lon="5.10063">
        <ele>256</ele>
        <time>2021-02-24T15:26:59Z</time>
      </trkpt>
      <trkpt lat="44.31691" lon="5.10067">
        <ele>256.3</ele>
        <time>2021-02-24T15:27:00Z</time>
      </trkpt>
      <trkpt lat="44.31692" lon="5.10071">
        <ele>256.6</ele>
        <time>2021-02-24T15:27:01Z</time>
      </trkpt>
      <trkpt lat="44.31692" lon="5.10075">
        <ele>256.8</ele>
        <time>2021-02-24T15:27:02Z</time>
      </trkpt>
      <trkpt lat="44.31693" lon="5.1008">
        <ele>257.1</ele>
        <time>2021-02-24T15:27:03Z</time>
      </trkpt>
      <trkpt lat="44.31693" lon="5.10084">
        <ele>257.4</ele>
        <time>2021-02-24T15:27:04Z</time>
      </trkpt>
      <trkpt lat="44.31692" lon="5.10093">
        <ele>258</ele>
        <time>2021-02-24T15:27:05Z</time>
      </trkpt>
      <trkpt lat="44.31692" lon="5.10093">
        <ele>258</ele>
        <time>2021-02-24T15:27:06Z</time>
      </trkpt>
      <trkpt lat="44.31691" lon="5.10097">
        <ele>258.2</ele>
        <time>2021-02-24T15:27:07Z</time>
      </trkpt>
      <trkpt lat="44.31689" lon="5.101">
        <ele>258.5</ele>
        <time>2021-02-24T15:27:08Z</time>
      </trkpt>
      <trkpt lat="44.31687" lon="5.10104">
        <ele>258.8</ele>
        <time>2021-02-24T15:27:09Z</time>
      </trkpt>
      <trkpt lat="44.31684" lon="5.10107">
        <ele>259.1</ele>
        <time>2021-02-24T15:27:10Z</time>
      </trkpt>
      <trkpt lat="44.31682" lon="5.10109">
        <ele>259.4</ele>
        <time>2021-02-24T15:27:11Z</time>
      </trkpt>
      <trkpt lat="44.3168" lon="5.10111">
        <ele>259.6</ele>
        <time>2021-02-24T15:27:12Z</time>
      </trkpt>
      <trkpt lat="44.31678" lon="5.10114">
        <ele>259.8</ele>
        <time>2021-02-24T15:27:13Z</time>
      </trkpt>
      <trkpt lat="44.31677" lon="5.10116">
        <ele>260.1</ele>
        <time>2021-02-24T15:27:14Z</time>
      </trkpt>
      <trkpt lat="44.31675" lon="5.10118">
        <ele>260.3</ele>
        <time>2021-02-24T15:27:15Z</time>
      </trkpt>
      <trkpt lat="44.31673" lon="5.1012">
        <ele>260.6</ele>
        <time>2021-02-24T15:27:16Z</time>
      </trkpt>
      <trkpt lat="44.31671" lon="5.10122">
        <ele>260.8</ele>
        <time>2021-02-24T15:27:17Z</time>
      </trkpt>
      <trkpt lat="44.31669" lon="5.10124">
        <ele>261</ele>
        <time>2021-02-24T15:27:18Z</time>
      </trkpt>
      <trkpt lat="44.31667" lon="5.10127">
        <ele>261.3</ele>
        <time>2021-02-24T15:27:19Z</time>
      </trkpt>
      <trkpt lat="44.31665" lon="5.10129">
        <ele>261.5</ele>
        <time>2021-02-24T15:27:20Z</time>
      </trkpt>
      <trkpt lat="44.31663" lon="5.10131">
        <ele>261.7</ele>
        <time>2021-02-24T15:27:21Z</time>
      </trkpt>
      <trkpt lat="44.31661" lon="5.10135">
        <ele>262</ele>
        <time>2021-02-24T15:27:22Z</time>
      </trkpt>
      <trkpt lat="44.3166" lon="5.10136">
        <ele>262.1</ele>
        <time>2021-02-24T15:27:23Z</time>
      </trkpt>
      <trkpt lat="44.31658" lon="5.10139">
        <ele>262.3</ele>
        <time>2021-02-24T15:27:24Z</time>
      </trkpt>
      <trkpt lat="44.31657" lon="5.10141">
        <ele>262.5</ele>
        <time>2021-02-24T15:27:25Z</time>
      </trkpt>
      <trkpt lat="44.31656" lon="5.10144">
        <ele>262.7</ele>
        <time>2021-02-24T15:27:26Z</time>
      </trkpt>
      <trkpt lat="44.31654" lon="5.10147">
        <ele>262.9</ele>
        <time>2021-02-24T15:27:27Z</time>
      </trkpt>
      <trkpt lat="44.31653" lon="5.1015">
        <ele>263.1</ele>
        <time>2021-02-24T15:27:28Z</time>
      </trkpt>
      <trkpt lat="44.31652" lon="5.10154">
        <ele>263.3</ele>
        <time>2021-02-24T15:27:29Z</time>
      </trkpt>
      <trkpt lat="44.31651" lon="5.10157">
        <ele>263.5</ele>
        <time>2021-02-24T15:27:30Z</time>
      </trkpt>
      <trkpt lat="44.3165" lon="5.10161">
        <ele>263.6</ele>
        <time>2021-02-24T15:27:31Z</time>
      </trkpt>
      <trkpt lat="44.31649" lon="5.10164">
        <ele>263.8</ele>
        <time>2021-02-24T15:27:32Z</time>
      </trkpt>
      <trkpt lat="44.31648" lon="5.10168">
        <ele>263.9</ele>
        <time>2021-02-24T15:27:33Z</time>
      </trkpt>
      <trkpt lat="44.31647" lon="5.10171">
        <ele>264.1</ele>
        <time>2021-02-24T15:27:34Z</time>
      </trkpt>
      <trkpt lat="44.31646" lon="5.10175">
        <ele>264.2</ele>
        <time>2021-02-24T15:27:35Z</time>
      </trkpt>
      <trkpt lat="44.31645" lon="5.10179">
        <ele>264.3</ele>
        <time>2021-02-24T15:27:36Z</time>
      </trkpt>
      <trkpt lat="44.31644" lon="5.10182">
        <ele>264.5</ele>
        <time>2021-02-24T15:27:37Z</time>
      </trkpt>
      <trkpt lat="44.31643" lon="5.10186">
        <ele>264.6</ele>
        <time>2021-02-24T15:27:38Z</time>
      </trkpt>
      <trkpt lat="44.31642" lon="5.1019">
        <ele>264.7</ele>
        <time>2021-02-24T15:27:39Z</time>
      </trkpt>
      <trkpt lat="44.31642" lon="5.10194">
        <ele>264.8</ele>
        <time>2021-02-24T15:27:40Z</time>
      </trkpt>
      <trkpt lat="44.31641" lon="5.10198">
        <ele>264.9</ele>
        <time>2021-02-24T15:27:41Z</time>
      </trkpt>
      <trkpt lat="44.3164" lon="5.10202">
        <ele>265.1</ele>
        <time>2021-02-24T15:27:42Z</time>
      </trkpt>
      <trkpt lat="44.31639" lon="5.1021">
        <ele>265.3</ele>
        <time>2021-02-24T15:27:43Z</time>
      </trkpt>
      <trkpt lat="44.31639" lon="5.1021">
        <ele>265.3</ele>
        <time>2021-02-24T15:27:44Z</time>
      </trkpt>
      <trkpt lat="44.31639" lon="5.10214">
        <ele>265.4</ele>
        <time>2021-02-24T15:27:45Z</time>
      </trkpt>
      <trkpt lat="44.31638" lon="5.10218">
        <ele>265.5</ele>
        <time>2021-02-24T15:27:46Z</time>
      </trkpt>
      <trkpt lat="44.31638" lon="5.10222">
        <ele>265.6</ele>
        <time>2021-02-24T15:27:47Z</time>
      </trkpt>
      <trkpt lat="44.31638" lon="5.10226">
        <ele>265.6</ele>
        <time>2021-02-24T15:27:48Z</time>
      </trkpt>
      <trkpt lat="44.31638" lon="5.1023">
        <ele>265.7</ele>
        <time>2021-02-24T15:27:49Z</time>
      </trkpt>
      <trkpt lat="44.31638" lon="5.10234">
        <ele>265.8</ele>
        <time>2021-02-24T15:27:50Z</time>
      </trkpt>
      <trkpt lat="44.31638" lon="5.10238">
        <ele>265.9</ele>
        <time>2021-02-24T15:27:51Z</time>
      </trkpt>
      <trkpt lat="44.31638" lon="5.10243">
        <ele>266</ele>
        <time>2021-02-24T15:27:52Z</time>
      </trkpt>
      <trkpt lat="44.31638" lon="5.10247">
        <ele>266</ele>
        <time>2021-02-24T15:27:53Z</time>
      </trkpt>
      <trkpt lat="44.31639" lon="5.10251">
        <ele>266.1</ele>
        <time>2021-02-24T15:27:54Z</time>
      </trkpt>
      <trkpt lat="44.31639" lon="5.10255">
        <ele>266.2</ele>
        <time>2021-02-24T15:27:55Z</time>
      </trkpt>
      <trkpt lat="44.31639" lon="5.10259">
        <ele>266.3</ele>
        <time>2021-02-24T15:27:56Z</time>
      </trkpt>
      <trkpt lat="44.3164" lon="5.10264">
        <ele>266.3</ele>
        <time>2021-02-24T15:27:57Z</time>
      </trkpt>
      <trkpt lat="44.3164" lon="5.10268">
        <ele>266.4</ele>
        <time>2021-02-24T15:27:58Z</time>
      </trkpt>
      <trkpt lat="44.31641" lon="5.10273">
        <ele>266.5</ele>
        <time>2021-02-24T15:27:59Z</time>
      </trkpt>
      <trkpt lat="44.31641" lon="5.10277">
        <ele>266.6</ele>
        <time>2021-02-24T15:28:00Z</time>
      </trkpt>
      <trkpt lat="44.31642" lon="5.10282">
        <ele>266.7</ele>
        <time>2021-02-24T15:28:01Z</time>
      </trkpt>
      <trkpt lat="44.31643" lon="5.10292">
        <ele>266.9</ele>
        <time>2021-02-24T15:28:02Z</time>
      </trkpt>
      <trkpt lat="44.31643" lon="5.10292">
        <ele>266.9</ele>
        <time>2021-02-24T15:28:03Z</time>
      </trkpt>
      <trkpt lat="44.31643" lon="5.10296">
        <ele>267</ele>
        <time>2021-02-24T15:28:04Z</time>
      </trkpt>
      <trkpt lat="44.31644" lon="5.10301">
        <ele>267.1</ele>
        <time>2021-02-24T15:28:05Z</time>
      </trkpt>
      <trkpt lat="44.31644" lon="5.10305">
        <ele>267.2</ele>
        <time>2021-02-24T15:28:06Z</time>
      </trkpt>
      <trkpt lat="44.31645" lon="5.1031">
        <ele>267.3</ele>
        <time>2021-02-24T15:28:07Z</time>
      </trkpt>
      <trkpt lat="44.31645" lon="5.10314">
        <ele>267.4</ele>
        <time>2021-02-24T15:28:08Z</time>
      </trkpt>
      <trkpt lat="44.31646" lon="5.10319">
        <ele>267.4</ele>
        <time>2021-02-24T15:28:09Z</time>
      </trkpt>
      <trkpt lat="44.31647" lon="5.10323">
        <ele>267.6</ele>
        <time>2021-02-24T15:28:10Z</time>
      </trkpt>
      <trkpt lat="44.31647" lon="5.10327">
        <ele>267.7</ele>
        <time>2021-02-24T15:28:11Z</time>
      </trkpt>
      <trkpt lat="44.31648" lon="5.10333">
        <ele>267.8</ele>
        <time>2021-02-24T15:28:12Z</time>
      </trkpt>
      <trkpt lat="44.31649" lon="5.10335">
        <ele>267.9</ele>
        <time>2021-02-24T15:28:13Z</time>
      </trkpt>
      <trkpt lat="44.3165" lon="5.10339">
        <ele>268</ele>
        <time>2021-02-24T15:28:14Z</time>
      </trkpt>
      <trkpt lat="44.3165" lon="5.10343">
        <ele>268.1</ele>
        <time>2021-02-24T15:28:15Z</time>
      </trkpt>
      <trkpt lat="44.31651" lon="5.10346">
        <ele>268.2</ele>
        <time>2021-02-24T15:28:16Z</time>
      </trkpt>
      <trkpt lat="44.31652" lon="5.10349">
        <ele>268.3</ele>
        <time>2021-02-24T15:28:17Z</time>
      </trkpt>
      <trkpt lat="44.31654" lon="5.10353">
        <ele>268.4</ele>
        <time>2021-02-24T15:28:18Z</time>
      </trkpt>
      <trkpt lat="44.31655" lon="5.10356">
        <ele>268.5</ele>
        <time>2021-02-24T15:28:19Z</time>
      </trkpt>
      <trkpt lat="44.31656" lon="5.1036">
        <ele>268.6</ele>
        <time>2021-02-24T15:28:20Z</time>
      </trkpt>
      <trkpt lat="44.31659" lon="5.10366">
        <ele>268.9</ele>
        <time>2021-02-24T15:28:21Z</time>
      </trkpt>
      <trkpt lat="44.31659" lon="5.10366">
        <ele>268.9</ele>
        <time>2021-02-24T15:28:22Z</time>
      </trkpt>
      <trkpt lat="44.31661" lon="5.1037">
        <ele>269</ele>
        <time>2021-02-24T15:28:23Z</time>
      </trkpt>
      <trkpt lat="44.31662" lon="5.10373">
        <ele>269.2</ele>
        <time>2021-02-24T15:28:24Z</time>
      </trkpt>
      <trkpt lat="44.31664" lon="5.10377">
        <ele>269.3</ele>
        <time>2021-02-24T15:28:25Z</time>
      </trkpt>
      <trkpt lat="44.31666" lon="5.10381">
        <ele>269.5</ele>
        <time>2021-02-24T15:28:26Z</time>
      </trkpt>
      <trkpt lat="44.31667" lon="5.10383">
        <ele>269.6</ele>
        <time>2021-02-24T15:28:27Z</time>
      </trkpt>
      <trkpt lat="44.31668" lon="5.10386">
        <ele>269.7</ele>
        <time>2021-02-24T15:28:28Z</time>
      </trkpt>
      <trkpt lat="44.31669" lon="5.10389">
        <ele>269.9</ele>
        <time>2021-02-24T15:28:29Z</time>
      </trkpt>
      <trkpt lat="44.3167" lon="5.10392">
        <ele>270</ele>
        <time>2021-02-24T15:28:30Z</time>
      </trkpt>
      <trkpt lat="44.31672" lon="5.10395">
        <ele>270.1</ele>
        <time>2021-02-24T15:28:31Z</time>
      </trkpt>
      <trkpt lat="44.31673" lon="5.10398">
        <ele>270.3</ele>
        <time>2021-02-24T15:28:32Z</time>
      </trkpt>
      <trkpt lat="44.31676" lon="5.10403">
        <ele>270.5</ele>
        <time>2021-02-24T15:28:33Z</time>
      </trkpt>
      <trkpt lat="44.31677" lon="5.10404">
        <ele>270.5</ele>
        <time>2021-02-24T15:28:34Z</time>
      </trkpt>
      <trkpt lat="44.31678" lon="5.10407">
        <ele>270.7</ele>
        <time>2021-02-24T15:28:35Z</time>
      </trkpt>
      <trkpt lat="44.3168" lon="5.1041">
        <ele>270.8</ele>
        <time>2021-02-24T15:28:36Z</time>
      </trkpt>
      <trkpt lat="44.31681" lon="5.10413">
        <ele>270.9</ele>
        <time>2021-02-24T15:28:37Z</time>
      </trkpt>
      <trkpt lat="44.31683" lon="5.10416">
        <ele>271.1</ele>
        <time>2021-02-24T15:28:38Z</time>
      </trkpt>
      <trkpt lat="44.31684" lon="5.10419">
        <ele>271.2</ele>
        <time>2021-02-24T15:28:39Z</time>
      </trkpt>
      <trkpt lat="44.31686" lon="5.10422">
        <ele>271.4</ele>
        <time>2021-02-24T15:28:40Z</time>
      </trkpt>
      <trkpt lat="44.31687" lon="5.10426">
        <ele>271.5</ele>
        <time>2021-02-24T15:28:41Z</time>
      </trkpt>
      <trkpt lat="44.31689" lon="5.10429">
        <ele>271.7</ele>
        <time>2021-02-24T15:28:42Z</time>
      </trkpt>
      <trkpt lat="44.3169" lon="5.10432">
        <ele>271.9</ele>
        <time>2021-02-24T15:28:43Z</time>
      </trkpt>
      <trkpt lat="44.31692" lon="5.10435">
        <ele>272</ele>
        <time>2021-02-24T15:28:44Z</time>
      </trkpt>
      <trkpt lat="44.31694" lon="5.10438">
        <ele>272.2</ele>
        <time>2021-02-24T15:28:45Z</time>
      </trkpt>
      <trkpt lat="44.31695" lon="5.10441">
        <ele>272.4</ele>
        <time>2021-02-24T15:28:46Z</time>
      </trkpt>
      <trkpt lat="44.31697" lon="5.10444">
        <ele>272.6</ele>
        <time>2021-02-24T15:28:47Z</time>
      </trkpt>
      <trkpt lat="44.31698" lon="5.10448">
        <ele>272.7</ele>
        <time>2021-02-24T15:28:48Z</time>
      </trkpt>
      <trkpt lat="44.31699" lon="5.10451">
        <ele>272.9</ele>
        <time>2021-02-24T15:28:49Z</time>
      </trkpt>
      <trkpt lat="44.317" lon="5.10454">
        <ele>273</ele>
        <time>2021-02-24T15:28:50Z</time>
      </trkpt>
      <trkpt lat="44.31702" lon="5.10458">
        <ele>273.2</ele>
        <time>2021-02-24T15:28:51Z</time>
      </trkpt>
      <trkpt lat="44.31703" lon="5.10461">
        <ele>273.4</ele>
        <time>2021-02-24T15:28:52Z</time>
      </trkpt>
      <trkpt lat="44.31705" lon="5.10464">
        <ele>273.6</ele>
        <time>2021-02-24T15:28:53Z</time>
      </trkpt>
      <trkpt lat="44.31706" lon="5.10468">
        <ele>273.8</ele>
        <time>2021-02-24T15:28:54Z</time>
      </trkpt>
      <trkpt lat="44.31707" lon="5.10471">
        <ele>273.9</ele>
        <time>2021-02-24T15:28:55Z</time>
      </trkpt>
      <trkpt lat="44.31708" lon="5.10475">
        <ele>274.1</ele>
        <time>2021-02-24T15:28:56Z</time>
      </trkpt>
      <trkpt lat="44.31709" lon="5.10478">
        <ele>274.3</ele>
        <time>2021-02-24T15:28:57Z</time>
      </trkpt>
      <trkpt lat="44.3171" lon="5.10482">
        <ele>274.4</ele>
        <time>2021-02-24T15:28:58Z</time>
      </trkpt>
      <trkpt lat="44.3171" lon="5.10486">
        <ele>274.6</ele>
        <time>2021-02-24T15:28:59Z</time>
      </trkpt>
      <trkpt lat="44.31712" lon="5.10489">
        <ele>274.8</ele>
        <time>2021-02-24T15:29:00Z</time>
      </trkpt>
      <trkpt lat="44.31713" lon="5.10493">
        <ele>275</ele>
        <time>2021-02-24T15:29:01Z</time>
      </trkpt>
      <trkpt lat="44.31713" lon="5.10497">
        <ele>275.2</ele>
        <time>2021-02-24T15:29:02Z</time>
      </trkpt>
      <trkpt lat="44.31714" lon="5.10501">
        <ele>275.3</ele>
        <time>2021-02-24T15:29:03Z</time>
      </trkpt>
      <trkpt lat="44.31715" lon="5.10504">
        <ele>275.5</ele>
        <time>2021-02-24T15:29:04Z</time>
      </trkpt>
      <trkpt lat="44.31716" lon="5.10508">
        <ele>275.7</ele>
        <time>2021-02-24T15:29:05Z</time>
      </trkpt>
      <trkpt lat="44.31717" lon="5.10511">
        <ele>275.9</ele>
        <time>2021-02-24T15:29:06Z</time>
      </trkpt>
      <trkpt lat="44.31718" lon="5.10515">
        <ele>276.1</ele>
        <time>2021-02-24T15:29:07Z</time>
      </trkpt>
      <trkpt lat="44.31718" lon="5.10518">
        <ele>276.3</ele>
        <time>2021-02-24T15:29:08Z</time>
      </trkpt>
      <trkpt lat="44.31719" lon="5.10522">
        <ele>276.4</ele>
        <time>2021-02-24T15:29:09Z</time>
      </trkpt>
      <trkpt lat="44.3172" lon="5.10525">
        <ele>276.6</ele>
        <time>2021-02-24T15:29:10Z</time>
      </trkpt>
      <trkpt lat="44.31721" lon="5.10528">
        <ele>276.8</ele>
        <time>2021-02-24T15:29:11Z</time>
      </trkpt>
      <trkpt lat="44.31722" lon="5.10531">
        <ele>277</ele>
        <time>2021-02-24T15:29:12Z</time>
      </trkpt>
      <trkpt lat="44.31723" lon="5.10535">
        <ele>277.2</ele>
        <time>2021-02-24T15:29:13Z</time>
      </trkpt>
      <trkpt lat="44.31723" lon="5.10538">
        <ele>277.4</ele>
        <time>2021-02-24T15:29:14Z</time>
      </trkpt>
      <trkpt lat="44.31724" lon="5.10542">
        <ele>277.5</ele>
        <time>2021-02-24T15:29:15Z</time>
      </trkpt>
      <trkpt lat="44.31725" lon="5.10545">
        <ele>277.7</ele>
        <time>2021-02-24T15:29:16Z</time>
      </trkpt>
      <trkpt lat="44.31726" lon="5.10549">
        <ele>277.9</ele>
        <time>2021-02-24T15:29:17Z</time>
      </trkpt>
      <trkpt lat="44.31727" lon="5.10556">
        <ele>278.2</ele>
        <time>2021-02-24T15:29:18Z</time>
      </trkpt>
      <trkpt lat="44.31727" lon="5.10556">
        <ele>278.2</ele>
        <time>2021-02-24T15:29:19Z</time>
      </trkpt>
      <trkpt lat="44.31728" lon="5.10559">
        <ele>278.4</ele>
        <time>2021-02-24T15:29:20Z</time>
      </trkpt>
      <trkpt lat="44.31729" lon="5.10562">
        <ele>278.5</ele>
        <time>2021-02-24T15:29:21Z</time>
      </trkpt>
      <trkpt lat="44.3173" lon="5.10565">
        <ele>278.7</ele>
        <time>2021-02-24T15:29:22Z</time>
      </trkpt>
      <trkpt lat="44.3173" lon="5.10569">
        <ele>278.8</ele>
        <time>2021-02-24T15:29:23Z</time>
      </trkpt>
      <trkpt lat="44.31731" lon="5.10572">
        <ele>278.9</ele>
        <time>2021-02-24T15:29:24Z</time>
      </trkpt>
      <trkpt lat="44.31732" lon="5.10576">
        <ele>279.1</ele>
        <time>2021-02-24T15:29:25Z</time>
      </trkpt>
      <trkpt lat="44.31732" lon="5.10579">
        <ele>279.3</ele>
        <time>2021-02-24T15:29:26Z</time>
      </trkpt>
      <trkpt lat="44.31733" lon="5.10583">
        <ele>279.4</ele>
        <time>2021-02-24T15:29:27Z</time>
      </trkpt>
      <trkpt lat="44.31734" lon="5.10586">
        <ele>279.5</ele>
        <time>2021-02-24T15:29:28Z</time>
      </trkpt>
      <trkpt lat="44.31734" lon="5.10589">
        <ele>279.7</ele>
        <time>2021-02-24T15:29:29Z</time>
      </trkpt>
      <trkpt lat="44.31735" lon="5.10593">
        <ele>279.9</ele>
        <time>2021-02-24T15:29:30Z</time>
      </trkpt>
      <trkpt lat="44.31735" lon="5.10596">
        <ele>280</ele>
        <time>2021-02-24T15:29:31Z</time>
      </trkpt>
      <trkpt lat="44.31735" lon="5.106">
        <ele>280.1</ele>
        <time>2021-02-24T15:29:32Z</time>
      </trkpt>
      <trkpt lat="44.31735" lon="5.10603">
        <ele>280.3</ele>
        <time>2021-02-24T15:29:33Z</time>
      </trkpt>
      <trkpt lat="44.31735" lon="5.10607">
        <ele>280.4</ele>
        <time>2021-02-24T15:29:34Z</time>
      </trkpt>
      <trkpt lat="44.31735" lon="5.10611">
        <ele>280.6</ele>
        <time>2021-02-24T15:29:35Z</time>
      </trkpt>
      <trkpt lat="44.31735" lon="5.10614">
        <ele>280.7</ele>
        <time>2021-02-24T15:29:36Z</time>
      </trkpt>
      <trkpt lat="44.31735" lon="5.10622">
        <ele>281.1</ele>
        <time>2021-02-24T15:29:37Z</time>
      </trkpt>
      <trkpt lat="44.31735" lon="5.10622">
        <ele>281.1</ele>
        <time>2021-02-24T15:29:38Z</time>
      </trkpt>
      <trkpt lat="44.31735" lon="5.10625">
        <ele>281.2</ele>
        <time>2021-02-24T15:29:39Z</time>
      </trkpt>
      <trkpt lat="44.31735" lon="5.10629">
        <ele>281.4</ele>
        <time>2021-02-24T15:29:40Z</time>
      </trkpt>
      <trkpt lat="44.31735" lon="5.10633">
        <ele>281.6</ele>
        <time>2021-02-24T15:29:41Z</time>
      </trkpt>
      <trkpt lat="44.31735" lon="5.10636">
        <ele>281.8</ele>
        <time>2021-02-24T15:29:42Z</time>
      </trkpt>
      <trkpt lat="44.31735" lon="5.1064">
        <ele>281.9</ele>
        <time>2021-02-24T15:29:43Z</time>
      </trkpt>
      <trkpt lat="44.31735" lon="5.10644">
        <ele>282.1</ele>
        <time>2021-02-24T15:29:44Z</time>
      </trkpt>
      <trkpt lat="44.31736" lon="5.10647">
        <ele>282.3</ele>
        <time>2021-02-24T15:29:45Z</time>
      </trkpt>
      <trkpt lat="44.31736" lon="5.10651">
        <ele>282.5</ele>
        <time>2021-02-24T15:29:46Z</time>
      </trkpt>
      <trkpt lat="44.31736" lon="5.10654">
        <ele>282.6</ele>
        <time>2021-02-24T15:29:47Z</time>
      </trkpt>
      <trkpt lat="44.31735" lon="5.10658">
        <ele>282.8</ele>
        <time>2021-02-24T15:29:48Z</time>
      </trkpt>
      <trkpt lat="44.31735" lon="5.10661">
        <ele>282.9</ele>
        <time>2021-02-24T15:29:49Z</time>
      </trkpt>
      <trkpt lat="44.31734" lon="5.10665">
        <ele>283.1</ele>
        <time>2021-02-24T15:29:50Z</time>
      </trkpt>
      <trkpt lat="44.31734" lon="5.10668">
        <ele>283.3</ele>
        <time>2021-02-24T15:29:51Z</time>
      </trkpt>
      <trkpt lat="44.31734" lon="5.10672">
        <ele>283.4</ele>
        <time>2021-02-24T15:29:52Z</time>
      </trkpt>
      <trkpt lat="44.31734" lon="5.10675">
        <ele>283.6</ele>
        <time>2021-02-24T15:29:53Z</time>
      </trkpt>
      <trkpt lat="44.31734" lon="5.10679">
        <ele>283.7</ele>
        <time>2021-02-24T15:29:54Z</time>
      </trkpt>
      <trkpt lat="44.31734" lon="5.10683">
        <ele>283.9</ele>
        <time>2021-02-24T15:29:55Z</time>
      </trkpt>
      <trkpt lat="44.31733" lon="5.1069">
        <ele>284.2</ele>
        <time>2021-02-24T15:29:56Z</time>
      </trkpt>
      <trkpt lat="44.31733" lon="5.1069">
        <ele>284.2</ele>
        <time>2021-02-24T15:29:57Z</time>
      </trkpt>
      <trkpt lat="44.31733" lon="5.10693">
        <ele>284.3</ele>
        <time>2021-02-24T15:29:58Z</time>
      </trkpt>
      <trkpt lat="44.31733" lon="5.10697">
        <ele>284.5</ele>
        <time>2021-02-24T15:29:59Z</time>
      </trkpt>
      <trkpt lat="44.31733" lon="5.107">
        <ele>284.6</ele>
        <time>2021-02-24T15:30:00Z</time>
      </trkpt>
      <trkpt lat="44.31732" lon="5.10704">
        <ele>284.8</ele>
        <time>2021-02-24T15:30:01Z</time>
      </trkpt>
      <trkpt lat="44.31732" lon="5.10708">
        <ele>284.9</ele>
        <time>2021-02-24T15:30:02Z</time>
      </trkpt>
      <trkpt lat="44.31732" lon="5.10711">
        <ele>285.1</ele>
        <time>2021-02-24T15:30:03Z</time>
      </trkpt>
      <trkpt lat="44.31731" lon="5.10714">
        <ele>285.2</ele>
        <time>2021-02-24T15:30:04Z</time>
      </trkpt>
      <trkpt lat="44.31731" lon="5.10718">
        <ele>285.4</ele>
        <time>2021-02-24T15:30:05Z</time>
      </trkpt>
      <trkpt lat="44.3173" lon="5.10721">
        <ele>285.5</ele>
        <time>2021-02-24T15:30:06Z</time>
      </trkpt>
      <trkpt lat="44.31729" lon="5.10726">
        <ele>285.7</ele>
        <time>2021-02-24T15:30:07Z</time>
      </trkpt>
      <trkpt lat="44.31728" lon="5.10727">
        <ele>285.8</ele>
        <time>2021-02-24T15:30:08Z</time>
      </trkpt>
      <trkpt lat="44.31728" lon="5.10731">
        <ele>286</ele>
        <time>2021-02-24T15:30:09Z</time>
      </trkpt>
      <trkpt lat="44.31727" lon="5.10734">
        <ele>286.1</ele>
        <time>2021-02-24T15:30:10Z</time>
      </trkpt>
      <trkpt lat="44.31726" lon="5.10738">
        <ele>286.3</ele>
        <time>2021-02-24T15:30:11Z</time>
      </trkpt>
      <trkpt lat="44.31726" lon="5.10741">
        <ele>286.4</ele>
        <time>2021-02-24T15:30:12Z</time>
      </trkpt>
      <trkpt lat="44.31725" lon="5.10745">
        <ele>286.5</ele>
        <time>2021-02-24T15:30:13Z</time>
      </trkpt>
      <trkpt lat="44.31724" lon="5.10748">
        <ele>286.6</ele>
        <time>2021-02-24T15:30:14Z</time>
      </trkpt>
      <trkpt lat="44.31723" lon="5.10755">
        <ele>286.8</ele>
        <time>2021-02-24T15:30:15Z</time>
      </trkpt>
      <trkpt lat="44.31723" lon="5.10755">
        <ele>286.8</ele>
        <time>2021-02-24T15:30:16Z</time>
      </trkpt>
      <trkpt lat="44.31723" lon="5.10759">
        <ele>286.9</ele>
        <time>2021-02-24T15:30:17Z</time>
      </trkpt>
      <trkpt lat="44.31723" lon="5.10763">
        <ele>287</ele>
        <time>2021-02-24T15:30:18Z</time>
      </trkpt>
      <trkpt lat="44.31722" lon="5.10767">
        <ele>287.1</ele>
        <time>2021-02-24T15:30:19Z</time>
      </trkpt>
      <trkpt lat="44.31722" lon="5.10771">
        <ele>287.1</ele>
        <time>2021-02-24T15:30:20Z</time>
      </trkpt>
      <trkpt lat="44.31721" lon="5.10775">
        <ele>287.2</ele>
        <time>2021-02-24T15:30:21Z</time>
      </trkpt>
      <trkpt lat="44.31721" lon="5.10779">
        <ele>287.3</ele>
        <time>2021-02-24T15:30:22Z</time>
      </trkpt>
      <trkpt lat="44.3172" lon="5.10784">
        <ele>287.4</ele>
        <time>2021-02-24T15:30:23Z</time>
      </trkpt>
      <trkpt lat="44.31719" lon="5.10788">
        <ele>287.4</ele>
        <time>2021-02-24T15:30:24Z</time>
      </trkpt>
      <trkpt lat="44.31718" lon="5.10792">
        <ele>287.5</ele>
        <time>2021-02-24T15:30:25Z</time>
      </trkpt>
      <trkpt lat="44.31718" lon="5.10797">
        <ele>287.5</ele>
        <time>2021-02-24T15:30:26Z</time>
      </trkpt>
      <trkpt lat="44.31717" lon="5.10801">
        <ele>287.6</ele>
        <time>2021-02-24T15:30:27Z</time>
      </trkpt>
      <trkpt lat="44.31717" lon="5.10805">
        <ele>287.6</ele>
        <time>2021-02-24T15:30:28Z</time>
      </trkpt>
      <trkpt lat="44.31716" lon="5.10809">
        <ele>287.7</ele>
        <time>2021-02-24T15:30:29Z</time>
      </trkpt>
      <trkpt lat="44.31716" lon="5.10813">
        <ele>287.7</ele>
        <time>2021-02-24T15:30:30Z</time>
      </trkpt>
      <trkpt lat="44.31715" lon="5.10818">
        <ele>287.8</ele>
        <time>2021-02-24T15:30:31Z</time>
      </trkpt>
      <trkpt lat="44.31715" lon="5.10822">
        <ele>287.8</ele>
        <time>2021-02-24T15:30:32Z</time>
      </trkpt>
      <trkpt lat="44.31714" lon="5.10826">
        <ele>287.8</ele>
        <time>2021-02-24T15:30:33Z</time>
      </trkpt>
      <trkpt lat="44.31714" lon="5.10831">
        <ele>287.9</ele>
        <time>2021-02-24T15:30:34Z</time>
      </trkpt>
      <trkpt lat="44.31713" lon="5.10835">
        <ele>287.9</ele>
        <time>2021-02-24T15:30:35Z</time>
      </trkpt>
      <trkpt lat="44.31713" lon="5.10839">
        <ele>287.9</ele>
        <time>2021-02-24T15:30:36Z</time>
      </trkpt>
      <trkpt lat="44.31713" lon="5.10844">
        <ele>287.9</ele>
        <time>2021-02-24T15:30:37Z</time>
      </trkpt>
      <trkpt lat="44.31713" lon="5.10848">
        <ele>287.9</ele>
        <time>2021-02-24T15:30:38Z</time>
      </trkpt>
      <trkpt lat="44.31712" lon="5.10853">
        <ele>287.9</ele>
        <time>2021-02-24T15:30:39Z</time>
      </trkpt>
      <trkpt lat="44.31712" lon="5.10858">
        <ele>287.9</ele>
        <time>2021-02-24T15:30:40Z</time>
      </trkpt>
      <trkpt lat="44.31711" lon="5.10862">
        <ele>287.9</ele>
        <time>2021-02-24T15:30:41Z</time>
      </trkpt>
      <trkpt lat="44.31711" lon="5.10866">
        <ele>287.9</ele>
        <time>2021-02-24T15:30:42Z</time>
      </trkpt>
      <trkpt lat="44.31711" lon="5.1087">
        <ele>287.8</ele>
        <time>2021-02-24T15:30:43Z</time>
      </trkpt>
      <trkpt lat="44.3171" lon="5.10874">
        <ele>287.8</ele>
        <time>2021-02-24T15:30:44Z</time>
      </trkpt>
      <trkpt lat="44.3171" lon="5.10878">
        <ele>287.8</ele>
        <time>2021-02-24T15:30:45Z</time>
      </trkpt>
      <trkpt lat="44.3171" lon="5.10883">
        <ele>287.8</ele>
        <time>2021-02-24T15:30:46Z</time>
      </trkpt>
      <trkpt lat="44.31709" lon="5.10888">
        <ele>287.7</ele>
        <time>2021-02-24T15:30:47Z</time>
      </trkpt>
      <trkpt lat="44.31708" lon="5.10893">
        <ele>287.6</ele>
        <time>2021-02-24T15:30:48Z</time>
      </trkpt>
      <trkpt lat="44.31707" lon="5.10898">
        <ele>287.6</ele>
        <time>2021-02-24T15:30:49Z</time>
      </trkpt>
      <trkpt lat="44.31707" lon="5.10903">
        <ele>287.5</ele>
        <time>2021-02-24T15:30:50Z</time>
      </trkpt>
      <trkpt lat="44.31706" lon="5.10908">
        <ele>287.4</ele>
        <time>2021-02-24T15:30:51Z</time>
      </trkpt>
      <trkpt lat="44.31705" lon="5.10913">
        <ele>287.3</ele>
        <time>2021-02-24T15:30:52Z</time>
      </trkpt>
      <trkpt lat="44.31704" lon="5.10925">
        <ele>287</ele>
        <time>2021-02-24T15:30:53Z</time>
      </trkpt>
      <trkpt lat="44.31704" lon="5.10925">
        <ele>287</ele>
        <time>2021-02-24T15:30:54Z</time>
      </trkpt>
      <trkpt lat="44.31704" lon="5.10931">
        <ele>286.9</ele>
        <time>2021-02-24T15:30:55Z</time>
      </trkpt>
      <trkpt lat="44.31704" lon="5.10937">
        <ele>286.8</ele>
        <time>2021-02-24T15:30:56Z</time>
      </trkpt>
      <trkpt lat="44.31703" lon="5.10944">
        <ele>286.6</ele>
        <time>2021-02-24T15:30:57Z</time>
      </trkpt>
      <trkpt lat="44.31703" lon="5.10954">
        <ele>286.4</ele>
        <time>2021-02-24T15:30:58Z</time>
      </trkpt>
      <trkpt lat="44.31704" lon="5.10957">
        <ele>286.3</ele>
        <time>2021-02-24T15:30:59Z</time>
      </trkpt>
      <trkpt lat="44.31704" lon="5.10965">
        <ele>286.1</ele>
        <time>2021-02-24T15:31:00Z</time>
      </trkpt>
      <trkpt lat="44.31706" lon="5.10972">
        <ele>286</ele>
        <time>2021-02-24T15:31:01Z</time>
      </trkpt>
      <trkpt lat="44.31707" lon="5.10979">
        <ele>285.8</ele>
        <time>2021-02-24T15:31:02Z</time>
      </trkpt>
      <trkpt lat="44.31709" lon="5.10986">
        <ele>285.6</ele>
        <time>2021-02-24T15:31:03Z</time>
      </trkpt>
      <trkpt lat="44.3171" lon="5.10994">
        <ele>285.4</ele>
        <time>2021-02-24T15:31:04Z</time>
      </trkpt>
      <trkpt lat="44.31712" lon="5.11001">
        <ele>285.3</ele>
        <time>2021-02-24T15:31:05Z</time>
      </trkpt>
      <trkpt lat="44.31715" lon="5.11013">
        <ele>285</ele>
        <time>2021-02-24T15:31:06Z</time>
      </trkpt>
      <trkpt lat="44.31716" lon="5.11017">
        <ele>284.9</ele>
        <time>2021-02-24T15:31:07Z</time>
      </trkpt>
      <trkpt lat="44.31719" lon="5.11025">
        <ele>284.7</ele>
        <time>2021-02-24T15:31:08Z</time>
      </trkpt>
      <trkpt lat="44.31721" lon="5.11033">
        <ele>284.5</ele>
        <time>2021-02-24T15:31:09Z</time>
      </trkpt>
      <trkpt lat="44.31723" lon="5.11041">
        <ele>284.4</ele>
        <time>2021-02-24T15:31:10Z</time>
      </trkpt>
      <trkpt lat="44.31726" lon="5.1105">
        <ele>284.2</ele>
        <time>2021-02-24T15:31:11Z</time>
      </trkpt>
      <trkpt lat="44.3173" lon="5.11067">
        <ele>284</ele>
        <time>2021-02-24T15:31:12Z</time>
      </trkpt>
      <trkpt lat="44.3173" lon="5.11067">
        <ele>284</ele>
        <time>2021-02-24T15:31:13Z</time>
      </trkpt>
      <trkpt lat="44.31734" lon="5.1108">
        <ele>283.9</ele>
        <time>2021-02-24T15:31:14Z</time>
      </trkpt>
      <trkpt lat="44.31735" lon="5.11085">
        <ele>283.9</ele>
        <time>2021-02-24T15:31:15Z</time>
      </trkpt>
      <trkpt lat="44.31738" lon="5.11093">
        <ele>283.9</ele>
        <time>2021-02-24T15:31:16Z</time>
      </trkpt>
      <trkpt lat="44.3174" lon="5.11102">
        <ele>283.9</ele>
        <time>2021-02-24T15:31:17Z</time>
      </trkpt>
      <trkpt lat="44.31743" lon="5.11111">
        <ele>283.9</ele>
        <time>2021-02-24T15:31:18Z</time>
      </trkpt>
      <trkpt lat="44.31745" lon="5.11119">
        <ele>283.8</ele>
        <time>2021-02-24T15:31:19Z</time>
      </trkpt>
      <trkpt lat="44.31747" lon="5.11128">
        <ele>283.9</ele>
        <time>2021-02-24T15:31:20Z</time>
      </trkpt>
      <trkpt lat="44.31749" lon="5.11136">
        <ele>284</ele>
        <time>2021-02-24T15:31:21Z</time>
      </trkpt>
      <trkpt lat="44.31751" lon="5.11143">
        <ele>284.2</ele>
        <time>2021-02-24T15:31:22Z</time>
      </trkpt>
      <trkpt lat="44.31753" lon="5.1115">
        <ele>284.3</ele>
        <time>2021-02-24T15:31:23Z</time>
      </trkpt>
      <trkpt lat="44.31755" lon="5.11157">
        <ele>284.5</ele>
        <time>2021-02-24T15:31:24Z</time>
      </trkpt>
      <trkpt lat="44.31756" lon="5.11164">
        <ele>284.8</ele>
        <time>2021-02-24T15:31:25Z</time>
      </trkpt>
      <trkpt lat="44.31757" lon="5.1117">
        <ele>285</ele>
        <time>2021-02-24T15:31:26Z</time>
      </trkpt>
      <trkpt lat="44.31757" lon="5.11175">
        <ele>285.2</ele>
        <time>2021-02-24T15:31:27Z</time>
      </trkpt>
      <trkpt lat="44.31757" lon="5.11179">
        <ele>285.4</ele>
        <time>2021-02-24T15:31:28Z</time>
      </trkpt>
      <trkpt lat="44.31757" lon="5.11184">
        <ele>285.6</ele>
        <time>2021-02-24T15:31:29Z</time>
      </trkpt>
      <trkpt lat="44.31756" lon="5.11188">
        <ele>285.8</ele>
        <time>2021-02-24T15:31:30Z</time>
      </trkpt>
      <trkpt lat="44.31755" lon="5.11192">
        <ele>286</ele>
        <time>2021-02-24T15:31:31Z</time>
      </trkpt>
      <trkpt lat="44.31753" lon="5.11195">
        <ele>286.2</ele>
        <time>2021-02-24T15:31:32Z</time>
      </trkpt>
      <trkpt lat="44.31751" lon="5.11198">
        <ele>286.4</ele>
        <time>2021-02-24T15:31:33Z</time>
      </trkpt>
      <trkpt lat="44.31749" lon="5.11201">
        <ele>286.6</ele>
        <time>2021-02-24T15:31:34Z</time>
      </trkpt>
      <trkpt lat="44.31747" lon="5.11203">
        <ele>286.8</ele>
        <time>2021-02-24T15:31:35Z</time>
      </trkpt>
      <trkpt lat="44.31746" lon="5.11206">
        <ele>286.9</ele>
        <time>2021-02-24T15:31:36Z</time>
      </trkpt>
      <trkpt lat="44.31744" lon="5.11208">
        <ele>287.1</ele>
        <time>2021-02-24T15:31:37Z</time>
      </trkpt>
      <trkpt lat="44.31743" lon="5.11211">
        <ele>287.2</ele>
        <time>2021-02-24T15:31:38Z</time>
      </trkpt>
      <trkpt lat="44.31741" lon="5.11214">
        <ele>287.4</ele>
        <time>2021-02-24T15:31:39Z</time>
      </trkpt>
      <trkpt lat="44.3174" lon="5.11216">
        <ele>287.6</ele>
        <time>2021-02-24T15:31:40Z</time>
      </trkpt>
      <trkpt lat="44.31738" lon="5.1122">
        <ele>287.8</ele>
        <time>2021-02-24T15:31:41Z</time>
      </trkpt>
      <trkpt lat="44.31736" lon="5.11223">
        <ele>288</ele>
        <time>2021-02-24T15:31:42Z</time>
      </trkpt>
      <trkpt lat="44.31735" lon="5.11226">
        <ele>288.1</ele>
        <time>2021-02-24T15:31:43Z</time>
      </trkpt>
      <trkpt lat="44.31734" lon="5.1123">
        <ele>288.3</ele>
        <time>2021-02-24T15:31:44Z</time>
      </trkpt>
      <trkpt lat="44.31732" lon="5.11233">
        <ele>288.5</ele>
        <time>2021-02-24T15:31:45Z</time>
      </trkpt>
      <trkpt lat="44.31731" lon="5.11236">
        <ele>288.7</ele>
        <time>2021-02-24T15:31:46Z</time>
      </trkpt>
      <trkpt lat="44.3173" lon="5.1124">
        <ele>288.9</ele>
        <time>2021-02-24T15:31:47Z</time>
      </trkpt>
      <trkpt lat="44.31729" lon="5.11244">
        <ele>289.1</ele>
        <time>2021-02-24T15:31:48Z</time>
      </trkpt>
      <trkpt lat="44.31729" lon="5.11247">
        <ele>289.3</ele>
        <time>2021-02-24T15:31:49Z</time>
      </trkpt>
      <trkpt lat="44.31727" lon="5.11254">
        <ele>289.7</ele>
        <time>2021-02-24T15:31:50Z</time>
      </trkpt>
      <trkpt lat="44.31727" lon="5.11254">
        <ele>289.7</ele>
        <time>2021-02-24T15:31:51Z</time>
      </trkpt>
      <trkpt lat="44.31727" lon="5.11258">
        <ele>289.9</ele>
        <time>2021-02-24T15:31:52Z</time>
      </trkpt>
      <trkpt lat="44.31726" lon="5.11261">
        <ele>290.1</ele>
        <time>2021-02-24T15:31:53Z</time>
      </trkpt>
      <trkpt lat="44.31725" lon="5.11265">
        <ele>290.3</ele>
        <time>2021-02-24T15:31:54Z</time>
      </trkpt>
      <trkpt lat="44.31725" lon="5.11269">
        <ele>290.5</ele>
        <time>2021-02-24T15:31:55Z</time>
      </trkpt>
      <trkpt lat="44.31724" lon="5.11272">
        <ele>290.7</ele>
        <time>2021-02-24T15:31:56Z</time>
      </trkpt>
      <trkpt lat="44.31724" lon="5.11276">
        <ele>290.9</ele>
        <time>2021-02-24T15:31:57Z</time>
      </trkpt>
      <trkpt lat="44.31723" lon="5.11279">
        <ele>291.1</ele>
        <time>2021-02-24T15:31:58Z</time>
      </trkpt>
      <trkpt lat="44.31723" lon="5.11283">
        <ele>291.3</ele>
        <time>2021-02-24T15:31:59Z</time>
      </trkpt>
      <trkpt lat="44.31722" lon="5.11286">
        <ele>291.5</ele>
        <time>2021-02-24T15:32:00Z</time>
      </trkpt>
      <trkpt lat="44.31722" lon="5.11289">
        <ele>291.7</ele>
        <time>2021-02-24T15:32:01Z</time>
      </trkpt>
      <trkpt lat="44.31721" lon="5.11292">
        <ele>291.8</ele>
        <time>2021-02-24T15:32:02Z</time>
      </trkpt>
      <trkpt lat="44.31721" lon="5.11295">
        <ele>292</ele>
        <time>2021-02-24T15:32:03Z</time>
      </trkpt>
      <trkpt lat="44.3172" lon="5.11299">
        <ele>292.2</ele>
        <time>2021-02-24T15:32:04Z</time>
      </trkpt>
      <trkpt lat="44.3172" lon="5.11302">
        <ele>292.4</ele>
        <time>2021-02-24T15:32:05Z</time>
      </trkpt>
      <trkpt lat="44.31719" lon="5.11306">
        <ele>292.6</ele>
        <time>2021-02-24T15:32:06Z</time>
      </trkpt>
      <trkpt lat="44.31719" lon="5.11309">
        <ele>292.8</ele>
        <time>2021-02-24T15:32:07Z</time>
      </trkpt>
      <trkpt lat="44.31719" lon="5.11312">
        <ele>293</ele>
        <time>2021-02-24T15:32:08Z</time>
      </trkpt>
      <trkpt lat="44.31718" lon="5.11316">
        <ele>293.2</ele>
        <time>2021-02-24T15:32:09Z</time>
      </trkpt>
      <trkpt lat="44.31718" lon="5.11319">
        <ele>293.3</ele>
        <time>2021-02-24T15:32:10Z</time>
      </trkpt>
      <trkpt lat="44.31718" lon="5.11323">
        <ele>293.5</ele>
        <time>2021-02-24T15:32:11Z</time>
      </trkpt>
      <trkpt lat="44.31718" lon="5.11326">
        <ele>293.7</ele>
        <time>2021-02-24T15:32:12Z</time>
      </trkpt>
      <trkpt lat="44.31718" lon="5.1133">
        <ele>293.9</ele>
        <time>2021-02-24T15:32:13Z</time>
      </trkpt>
      <trkpt lat="44.31719" lon="5.11333">
        <ele>294.1</ele>
        <time>2021-02-24T15:32:14Z</time>
      </trkpt>
      <trkpt lat="44.31719" lon="5.11337">
        <ele>294.2</ele>
        <time>2021-02-24T15:32:15Z</time>
      </trkpt>
      <trkpt lat="44.31719" lon="5.1134">
        <ele>294.4</ele>
        <time>2021-02-24T15:32:16Z</time>
      </trkpt>
      <trkpt lat="44.31719" lon="5.11343">
        <ele>294.5</ele>
        <time>2021-02-24T15:32:17Z</time>
      </trkpt>
      <trkpt lat="44.31719" lon="5.11347">
        <ele>294.7</ele>
        <time>2021-02-24T15:32:18Z</time>
      </trkpt>
      <trkpt lat="44.31719" lon="5.1135">
        <ele>294.8</ele>
        <time>2021-02-24T15:32:19Z</time>
      </trkpt>
      <trkpt lat="44.31719" lon="5.11353">
        <ele>295</ele>
        <time>2021-02-24T15:32:20Z</time>
      </trkpt>
      <trkpt lat="44.31719" lon="5.11356">
        <ele>295.1</ele>
        <time>2021-02-24T15:32:21Z</time>
      </trkpt>
      <trkpt lat="44.31719" lon="5.1136">
        <ele>295.3</ele>
        <time>2021-02-24T15:32:22Z</time>
      </trkpt>
      <trkpt lat="44.31719" lon="5.11363">
        <ele>295.4</ele>
        <time>2021-02-24T15:32:23Z</time>
      </trkpt>
      <trkpt lat="44.3172" lon="5.11366">
        <ele>295.6</ele>
        <time>2021-02-24T15:32:24Z</time>
      </trkpt>
      <trkpt lat="44.3172" lon="5.1137">
        <ele>295.7</ele>
        <time>2021-02-24T15:32:25Z</time>
      </trkpt>
      <trkpt lat="44.3172" lon="5.11373">
        <ele>295.9</ele>
        <time>2021-02-24T15:32:26Z</time>
      </trkpt>
      <trkpt lat="44.3172" lon="5.11377">
        <ele>296.1</ele>
        <time>2021-02-24T15:32:27Z</time>
      </trkpt>
      <trkpt lat="44.31721" lon="5.11383">
        <ele>296.4</ele>
        <time>2021-02-24T15:32:28Z</time>
      </trkpt>
      <trkpt lat="44.31721" lon="5.11383">
        <ele>296.4</ele>
        <time>2021-02-24T15:32:29Z</time>
      </trkpt>
      <trkpt lat="44.31721" lon="5.11387">
        <ele>296.5</ele>
        <time>2021-02-24T15:32:30Z</time>
      </trkpt>
      <trkpt lat="44.31721" lon="5.1139">
        <ele>296.7</ele>
        <time>2021-02-24T15:32:31Z</time>
      </trkpt>
      <trkpt lat="44.31721" lon="5.11393">
        <ele>296.9</ele>
        <time>2021-02-24T15:32:32Z</time>
      </trkpt>
      <trkpt lat="44.31721" lon="5.11396">
        <ele>297</ele>
        <time>2021-02-24T15:32:33Z</time>
      </trkpt>
      <trkpt lat="44.31721" lon="5.11399">
        <ele>297.2</ele>
        <time>2021-02-24T15:32:34Z</time>
      </trkpt>
      <trkpt lat="44.31721" lon="5.11402">
        <ele>297.3</ele>
        <time>2021-02-24T15:32:35Z</time>
      </trkpt>
      <trkpt lat="44.31721" lon="5.11406">
        <ele>297.5</ele>
        <time>2021-02-24T15:32:36Z</time>
      </trkpt>
      <trkpt lat="44.31721" lon="5.11409">
        <ele>297.7</ele>
        <time>2021-02-24T15:32:37Z</time>
      </trkpt>
      <trkpt lat="44.31721" lon="5.11412">
        <ele>297.8</ele>
        <time>2021-02-24T15:32:38Z</time>
      </trkpt>
      <trkpt lat="44.31721" lon="5.11415">
        <ele>298</ele>
        <time>2021-02-24T15:32:39Z</time>
      </trkpt>
      <trkpt lat="44.31721" lon="5.1142">
        <ele>298.2</ele>
        <time>2021-02-24T15:32:40Z</time>
      </trkpt>
      <trkpt lat="44.31721" lon="5.11422">
        <ele>298.3</ele>
        <time>2021-02-24T15:32:41Z</time>
      </trkpt>
      <trkpt lat="44.31722" lon="5.11425">
        <ele>298.5</ele>
        <time>2021-02-24T15:32:42Z</time>
      </trkpt>
      <trkpt lat="44.31722" lon="5.11428">
        <ele>298.6</ele>
        <time>2021-02-24T15:32:43Z</time>
      </trkpt>
      <trkpt lat="44.31722" lon="5.11431">
        <ele>298.8</ele>
        <time>2021-02-24T15:32:44Z</time>
      </trkpt>
      <trkpt lat="44.31722" lon="5.11434">
        <ele>298.9</ele>
        <time>2021-02-24T15:32:45Z</time>
      </trkpt>
      <trkpt lat="44.31722" lon="5.11437">
        <ele>299.1</ele>
        <time>2021-02-24T15:32:46Z</time>
      </trkpt>
      <trkpt lat="44.31723" lon="5.11441">
        <ele>299.2</ele>
        <time>2021-02-24T15:32:47Z</time>
      </trkpt>
      <trkpt lat="44.31723" lon="5.11444">
        <ele>299.4</ele>
        <time>2021-02-24T15:32:48Z</time>
      </trkpt>
      <trkpt lat="44.31723" lon="5.11447">
        <ele>299.5</ele>
        <time>2021-02-24T15:32:49Z</time>
      </trkpt>
      <trkpt lat="44.31723" lon="5.1145">
        <ele>299.7</ele>
        <time>2021-02-24T15:32:50Z</time>
      </trkpt>
      <trkpt lat="44.31723" lon="5.11453">
        <ele>299.9</ele>
        <time>2021-02-24T15:32:51Z</time>
      </trkpt>
      <trkpt lat="44.31723" lon="5.11456">
        <ele>300</ele>
        <time>2021-02-24T15:32:52Z</time>
      </trkpt>
      <trkpt lat="44.31724" lon="5.11459">
        <ele>300.2</ele>
        <time>2021-02-24T15:32:53Z</time>
      </trkpt>
      <trkpt lat="44.31724" lon="5.11462">
        <ele>300.3</ele>
        <time>2021-02-24T15:32:54Z</time>
      </trkpt>
      <trkpt lat="44.31724" lon="5.11466">
        <ele>300.5</ele>
        <time>2021-02-24T15:32:55Z</time>
      </trkpt>
      <trkpt lat="44.31724" lon="5.11469">
        <ele>300.6</ele>
        <time>2021-02-24T15:32:56Z</time>
      </trkpt>
      <trkpt lat="44.31724" lon="5.11472">
        <ele>300.8</ele>
        <time>2021-02-24T15:32:57Z</time>
      </trkpt>
      <trkpt lat="44.31724" lon="5.11476">
        <ele>300.9</ele>
        <time>2021-02-24T15:32:58Z</time>
      </trkpt>
      <trkpt lat="44.31724" lon="5.11479">
        <ele>301.1</ele>
        <time>2021-02-24T15:32:59Z</time>
      </trkpt>
      <trkpt lat="44.31723" lon="5.11482">
        <ele>301.2</ele>
        <time>2021-02-24T15:33:00Z</time>
      </trkpt>
      <trkpt lat="44.31723" lon="5.11485">
        <ele>301.4</ele>
        <time>2021-02-24T15:33:01Z</time>
      </trkpt>
      <trkpt lat="44.31723" lon="5.11488">
        <ele>301.5</ele>
        <time>2021-02-24T15:33:02Z</time>
      </trkpt>
      <trkpt lat="44.31723" lon="5.11491">
        <ele>301.7</ele>
        <time>2021-02-24T15:33:03Z</time>
      </trkpt>
      <trkpt lat="44.31723" lon="5.11494">
        <ele>301.8</ele>
        <time>2021-02-24T15:33:04Z</time>
      </trkpt>
      <trkpt lat="44.31724" lon="5.11498">
        <ele>301.9</ele>
        <time>2021-02-24T15:33:05Z</time>
      </trkpt>
      <trkpt lat="44.31723" lon="5.11504">
        <ele>302.2</ele>
        <time>2021-02-24T15:33:06Z</time>
      </trkpt>
      <trkpt lat="44.31723" lon="5.11504">
        <ele>302.2</ele>
        <time>2021-02-24T15:33:07Z</time>
      </trkpt>
      <trkpt lat="44.31723" lon="5.11507">
        <ele>302.3</ele>
        <time>2021-02-24T15:33:08Z</time>
      </trkpt>
      <trkpt lat="44.31723" lon="5.1151">
        <ele>302.4</ele>
        <time>2021-02-24T15:33:09Z</time>
      </trkpt>
      <trkpt lat="44.31723" lon="5.11514">
        <ele>302.5</ele>
        <time>2021-02-24T15:33:10Z</time>
      </trkpt>
      <trkpt lat="44.31723" lon="5.11517">
        <ele>302.6</ele>
        <time>2021-02-24T15:33:11Z</time>
      </trkpt>
      <trkpt lat="44.31722" lon="5.1152">
        <ele>302.7</ele>
        <time>2021-02-24T15:33:12Z</time>
      </trkpt>
      <trkpt lat="44.31722" lon="5.11524">
        <ele>302.8</ele>
        <time>2021-02-24T15:33:13Z</time>
      </trkpt>
      <trkpt lat="44.31722" lon="5.11527">
        <ele>302.9</ele>
        <time>2021-02-24T15:33:14Z</time>
      </trkpt>
      <trkpt lat="44.31721" lon="5.1153">
        <ele>303</ele>
        <time>2021-02-24T15:33:15Z</time>
      </trkpt>
      <trkpt lat="44.3172" lon="5.11535">
        <ele>303.2</ele>
        <time>2021-02-24T15:33:16Z</time>
      </trkpt>
      <trkpt lat="44.3172" lon="5.11537">
        <ele>303.3</ele>
        <time>2021-02-24T15:33:17Z</time>
      </trkpt>
      <trkpt lat="44.31719" lon="5.1154">
        <ele>303.4</ele>
        <time>2021-02-24T15:33:18Z</time>
      </trkpt>
      <trkpt lat="44.31719" lon="5.11544">
        <ele>303.5</ele>
        <time>2021-02-24T15:33:19Z</time>
      </trkpt>
      <trkpt lat="44.31718" lon="5.11547">
        <ele>303.6</ele>
        <time>2021-02-24T15:33:20Z</time>
      </trkpt>
      <trkpt lat="44.31717" lon="5.1155">
        <ele>303.7</ele>
        <time>2021-02-24T15:33:21Z</time>
      </trkpt>
      <trkpt lat="44.31716" lon="5.11553">
        <ele>303.9</ele>
        <time>2021-02-24T15:33:22Z</time>
      </trkpt>
      <trkpt lat="44.31715" lon="5.11557">
        <ele>304</ele>
        <time>2021-02-24T15:33:23Z</time>
      </trkpt>
      <trkpt lat="44.31714" lon="5.1156">
        <ele>304.1</ele>
        <time>2021-02-24T15:33:24Z</time>
      </trkpt>
      <trkpt lat="44.31713" lon="5.11567">
        <ele>304.3</ele>
        <time>2021-02-24T15:33:25Z</time>
      </trkpt>
      <trkpt lat="44.31713" lon="5.11567">
        <ele>304.3</ele>
        <time>2021-02-24T15:33:26Z</time>
      </trkpt>
      <trkpt lat="44.31712" lon="5.1157">
        <ele>304.4</ele>
        <time>2021-02-24T15:33:27Z</time>
      </trkpt>
      <trkpt lat="44.31711" lon="5.11574">
        <ele>304.6</ele>
        <time>2021-02-24T15:33:28Z</time>
      </trkpt>
      <trkpt lat="44.3171" lon="5.11577">
        <ele>304.7</ele>
        <time>2021-02-24T15:33:29Z</time>
      </trkpt>
      <trkpt lat="44.31709" lon="5.1158">
        <ele>304.8</ele>
        <time>2021-02-24T15:33:30Z</time>
      </trkpt>
      <trkpt lat="44.31708" lon="5.11585">
        <ele>304.9</ele>
        <time>2021-02-24T15:33:31Z</time>
      </trkpt>
      <trkpt lat="44.31707" lon="5.11586">
        <ele>305</ele>
        <time>2021-02-24T15:33:32Z</time>
      </trkpt>
      <trkpt lat="44.31706" lon="5.1159">
        <ele>305.1</ele>
        <time>2021-02-24T15:33:33Z</time>
      </trkpt>
      <trkpt lat="44.31706" lon="5.11593">
        <ele>305.2</ele>
        <time>2021-02-24T15:33:34Z</time>
      </trkpt>
      <trkpt lat="44.31705" lon="5.11596">
        <ele>305.3</ele>
        <time>2021-02-24T15:33:35Z</time>
      </trkpt>
      <trkpt lat="44.31704" lon="5.116">
        <ele>305.5</ele>
        <time>2021-02-24T15:33:36Z</time>
      </trkpt>
      <trkpt lat="44.31704" lon="5.11603">
        <ele>305.6</ele>
        <time>2021-02-24T15:33:37Z</time>
      </trkpt>
      <trkpt lat="44.31703" lon="5.11606">
        <ele>305.7</ele>
        <time>2021-02-24T15:33:38Z</time>
      </trkpt>
      <trkpt lat="44.31703" lon="5.1161">
        <ele>305.8</ele>
        <time>2021-02-24T15:33:39Z</time>
      </trkpt>
      <trkpt lat="44.31702" lon="5.11614">
        <ele>305.9</ele>
        <time>2021-02-24T15:33:40Z</time>
      </trkpt>
      <trkpt lat="44.31702" lon="5.11617">
        <ele>306</ele>
        <time>2021-02-24T15:33:41Z</time>
      </trkpt>
      <trkpt lat="44.31702" lon="5.11621">
        <ele>306.2</ele>
        <time>2021-02-24T15:33:42Z</time>
      </trkpt>
      <trkpt lat="44.31702" lon="5.11625">
        <ele>306.3</ele>
        <time>2021-02-24T15:33:43Z</time>
      </trkpt>
      <trkpt lat="44.31701" lon="5.11632">
        <ele>306.5</ele>
        <time>2021-02-24T15:33:44Z</time>
      </trkpt>
      <trkpt lat="44.31701" lon="5.11632">
        <ele>306.5</ele>
        <time>2021-02-24T15:33:45Z</time>
      </trkpt>
      <trkpt lat="44.31701" lon="5.11636">
        <ele>306.6</ele>
        <time>2021-02-24T15:33:46Z</time>
      </trkpt>
      <trkpt lat="44.31701" lon="5.1164">
        <ele>306.8</ele>
        <time>2021-02-24T15:33:47Z</time>
      </trkpt>
      <trkpt lat="44.31701" lon="5.11644">
        <ele>306.9</ele>
        <time>2021-02-24T15:33:48Z</time>
      </trkpt>
      <trkpt lat="44.31701" lon="5.11648">
        <ele>307</ele>
        <time>2021-02-24T15:33:49Z</time>
      </trkpt>
      <trkpt lat="44.31701" lon="5.11652">
        <ele>307.1</ele>
        <time>2021-02-24T15:33:50Z</time>
      </trkpt>
      <trkpt lat="44.31701" lon="5.11656">
        <ele>307.2</ele>
        <time>2021-02-24T15:33:51Z</time>
      </trkpt>
      <trkpt lat="44.31701" lon="5.1166">
        <ele>307.3</ele>
        <time>2021-02-24T15:33:52Z</time>
      </trkpt>
      <trkpt lat="44.31701" lon="5.11664">
        <ele>307.5</ele>
        <time>2021-02-24T15:33:53Z</time>
      </trkpt>
      <trkpt lat="44.31701" lon="5.11668">
        <ele>307.6</ele>
        <time>2021-02-24T15:33:54Z</time>
      </trkpt>
      <trkpt lat="44.31701" lon="5.11671">
        <ele>307.7</ele>
        <time>2021-02-24T15:33:55Z</time>
      </trkpt>
      <trkpt lat="44.31701" lon="5.11675">
        <ele>307.8</ele>
        <time>2021-02-24T15:33:56Z</time>
      </trkpt>
      <trkpt lat="44.31701" lon="5.11679">
        <ele>307.9</ele>
        <time>2021-02-24T15:33:57Z</time>
      </trkpt>
      <trkpt lat="44.31702" lon="5.11683">
        <ele>308</ele>
        <time>2021-02-24T15:33:58Z</time>
      </trkpt>
      <trkpt lat="44.31702" lon="5.11686">
        <ele>308.2</ele>
        <time>2021-02-24T15:33:59Z</time>
      </trkpt>
      <trkpt lat="44.31703" lon="5.1169">
        <ele>308.3</ele>
        <time>2021-02-24T15:34:00Z</time>
      </trkpt>
      <trkpt lat="44.31704" lon="5.11694">
        <ele>308.4</ele>
        <time>2021-02-24T15:34:01Z</time>
      </trkpt>
      <trkpt lat="44.31705" lon="5.11698">
        <ele>308.6</ele>
        <time>2021-02-24T15:34:02Z</time>
      </trkpt>
      <trkpt lat="44.31706" lon="5.11701">
        <ele>308.7</ele>
        <time>2021-02-24T15:34:03Z</time>
      </trkpt>
      <trkpt lat="44.31707" lon="5.11705">
        <ele>308.9</ele>
        <time>2021-02-24T15:34:04Z</time>
      </trkpt>
      <trkpt lat="44.31708" lon="5.11709">
        <ele>309</ele>
        <time>2021-02-24T15:34:05Z</time>
      </trkpt>
      <trkpt lat="44.3171" lon="5.11712">
        <ele>309.2</ele>
        <time>2021-02-24T15:34:06Z</time>
      </trkpt>
      <trkpt lat="44.31711" lon="5.11715">
        <ele>309.3</ele>
        <time>2021-02-24T15:34:07Z</time>
      </trkpt>
      <trkpt lat="44.31713" lon="5.11718">
        <ele>309.5</ele>
        <time>2021-02-24T15:34:08Z</time>
      </trkpt>
      <trkpt lat="44.31715" lon="5.1172">
        <ele>309.6</ele>
        <time>2021-02-24T15:34:09Z</time>
      </trkpt>
      <trkpt lat="44.31717" lon="5.11723">
        <ele>309.8</ele>
        <time>2021-02-24T15:34:10Z</time>
      </trkpt>
      <trkpt lat="44.31719" lon="5.11726">
        <ele>309.9</ele>
        <time>2021-02-24T15:34:11Z</time>
      </trkpt>
      <trkpt lat="44.31721" lon="5.11728">
        <ele>310</ele>
        <time>2021-02-24T15:34:12Z</time>
      </trkpt>
      <trkpt lat="44.31723" lon="5.1173">
        <ele>310.2</ele>
        <time>2021-02-24T15:34:13Z</time>
      </trkpt>
      <trkpt lat="44.31725" lon="5.11732">
        <ele>310.3</ele>
        <time>2021-02-24T15:34:14Z</time>
      </trkpt>
      <trkpt lat="44.31727" lon="5.11735">
        <ele>310.5</ele>
        <time>2021-02-24T15:34:15Z</time>
      </trkpt>
      <trkpt lat="44.31729" lon="5.11737">
        <ele>310.6</ele>
        <time>2021-02-24T15:34:16Z</time>
      </trkpt>
      <trkpt lat="44.31731" lon="5.11739">
        <ele>310.8</ele>
        <time>2021-02-24T15:34:17Z</time>
      </trkpt>
      <trkpt lat="44.31733" lon="5.11742">
        <ele>310.9</ele>
        <time>2021-02-24T15:34:18Z</time>
      </trkpt>
      <trkpt lat="44.31734" lon="5.11745">
        <ele>311.1</ele>
        <time>2021-02-24T15:34:19Z</time>
      </trkpt>
      <trkpt lat="44.31736" lon="5.11747">
        <ele>311.2</ele>
        <time>2021-02-24T15:34:20Z</time>
      </trkpt>
      <trkpt lat="44.31738" lon="5.11751">
        <ele>311.5</ele>
        <time>2021-02-24T15:34:21Z</time>
      </trkpt>
      <trkpt lat="44.31739" lon="5.11753">
        <ele>311.6</ele>
        <time>2021-02-24T15:34:22Z</time>
      </trkpt>
      <trkpt lat="44.31741" lon="5.11756">
        <ele>311.8</ele>
        <time>2021-02-24T15:34:23Z</time>
      </trkpt>
      <trkpt lat="44.31742" lon="5.11759">
        <ele>311.9</ele>
        <time>2021-02-24T15:34:24Z</time>
      </trkpt>
      <trkpt lat="44.31743" lon="5.11761">
        <ele>312.1</ele>
        <time>2021-02-24T15:34:25Z</time>
      </trkpt>
      <trkpt lat="44.31745" lon="5.11764">
        <ele>312.3</ele>
        <time>2021-02-24T15:34:26Z</time>
      </trkpt>
      <trkpt lat="44.31746" lon="5.11767">
        <ele>312.4</ele>
        <time>2021-02-24T15:34:27Z</time>
      </trkpt>
      <trkpt lat="44.31747" lon="5.11769">
        <ele>312.6</ele>
        <time>2021-02-24T15:34:28Z</time>
      </trkpt>
      <trkpt lat="44.31749" lon="5.11772">
        <ele>312.8</ele>
        <time>2021-02-24T15:34:29Z</time>
      </trkpt>
      <trkpt lat="44.3175" lon="5.11775">
        <ele>312.9</ele>
        <time>2021-02-24T15:34:30Z</time>
      </trkpt>
      <trkpt lat="44.31751" lon="5.11778">
        <ele>313.1</ele>
        <time>2021-02-24T15:34:31Z</time>
      </trkpt>
      <trkpt lat="44.31752" lon="5.1178">
        <ele>313.3</ele>
        <time>2021-02-24T15:34:32Z</time>
      </trkpt>
      <trkpt lat="44.31754" lon="5.11783">
        <ele>313.4</ele>
        <time>2021-02-24T15:34:33Z</time>
      </trkpt>
      <trkpt lat="44.31755" lon="5.11786">
        <ele>313.6</ele>
        <time>2021-02-24T15:34:34Z</time>
      </trkpt>
      <trkpt lat="44.31756" lon="5.11789">
        <ele>313.8</ele>
        <time>2021-02-24T15:34:35Z</time>
      </trkpt>
      <trkpt lat="44.31758" lon="5.11791">
        <ele>314</ele>
        <time>2021-02-24T15:34:36Z</time>
      </trkpt>
      <trkpt lat="44.31759" lon="5.11794">
        <ele>314.1</ele>
        <time>2021-02-24T15:34:37Z</time>
      </trkpt>
      <trkpt lat="44.3176" lon="5.11797">
        <ele>314.3</ele>
        <time>2021-02-24T15:34:38Z</time>
      </trkpt>
      <trkpt lat="44.31762" lon="5.118">
        <ele>314.5</ele>
        <time>2021-02-24T15:34:39Z</time>
      </trkpt>
      <trkpt lat="44.31763" lon="5.11803">
        <ele>314.7</ele>
        <time>2021-02-24T15:34:40Z</time>
      </trkpt>
      <trkpt lat="44.31766" lon="5.11808">
        <ele>315</ele>
        <time>2021-02-24T15:34:41Z</time>
      </trkpt>
      <trkpt lat="44.31766" lon="5.11808">
        <ele>315</ele>
        <time>2021-02-24T15:34:42Z</time>
      </trkpt>
      <trkpt lat="44.31768" lon="5.11811">
        <ele>315.2</ele>
        <time>2021-02-24T15:34:43Z</time>
      </trkpt>
      <trkpt lat="44.31769" lon="5.11814">
        <ele>315.4</ele>
        <time>2021-02-24T15:34:44Z</time>
      </trkpt>
      <trkpt lat="44.3177" lon="5.11816">
        <ele>315.5</ele>
        <time>2021-02-24T15:34:45Z</time>
      </trkpt>
      <trkpt lat="44.31771" lon="5.11819">
        <ele>315.7</ele>
        <time>2021-02-24T15:34:46Z</time>
      </trkpt>
      <trkpt lat="44.31773" lon="5.11822">
        <ele>315.8</ele>
        <time>2021-02-24T15:34:47Z</time>
      </trkpt>
      <trkpt lat="44.31774" lon="5.11824">
        <ele>315.9</ele>
        <time>2021-02-24T15:34:48Z</time>
      </trkpt>
      <trkpt lat="44.31775" lon="5.11827">
        <ele>316.1</ele>
        <time>2021-02-24T15:34:49Z</time>
      </trkpt>
      <trkpt lat="44.31777" lon="5.1183">
        <ele>316.2</ele>
        <time>2021-02-24T15:34:50Z</time>
      </trkpt>
      <trkpt lat="44.31778" lon="5.11833">
        <ele>316.4</ele>
        <time>2021-02-24T15:34:51Z</time>
      </trkpt>
      <trkpt lat="44.31779" lon="5.11836">
        <ele>316.5</ele>
        <time>2021-02-24T15:34:52Z</time>
      </trkpt>
      <trkpt lat="44.31781" lon="5.11838">
        <ele>316.6</ele>
        <time>2021-02-24T15:34:53Z</time>
      </trkpt>
      <trkpt lat="44.31782" lon="5.11841">
        <ele>316.8</ele>
        <time>2021-02-24T15:34:54Z</time>
      </trkpt>
      <trkpt lat="44.31783" lon="5.11844">
        <ele>316.9</ele>
        <time>2021-02-24T15:34:55Z</time>
      </trkpt>
      <trkpt lat="44.31785" lon="5.11849">
        <ele>317</ele>
        <time>2021-02-24T15:34:56Z</time>
      </trkpt>
      <trkpt lat="44.31786" lon="5.11851">
        <ele>317.1</ele>
        <time>2021-02-24T15:34:57Z</time>
      </trkpt>
      <trkpt lat="44.31787" lon="5.11854">
        <ele>317.2</ele>
        <time>2021-02-24T15:34:58Z</time>
      </trkpt>
      <trkpt lat="44.31788" lon="5.11857">
        <ele>317.3</ele>
        <time>2021-02-24T15:34:59Z</time>
      </trkpt>
      <trkpt lat="44.31789" lon="5.1186">
        <ele>317.4</ele>
        <time>2021-02-24T15:35:00Z</time>
      </trkpt>
      <trkpt lat="44.3179" lon="5.11864">
        <ele>317.5</ele>
        <time>2021-02-24T15:35:01Z</time>
      </trkpt>
      <trkpt lat="44.31791" lon="5.11867">
        <ele>317.6</ele>
        <time>2021-02-24T15:35:02Z</time>
      </trkpt>
      <trkpt lat="44.31791" lon="5.11871">
        <ele>317.7</ele>
        <time>2021-02-24T15:35:03Z</time>
      </trkpt>
      <trkpt lat="44.31792" lon="5.11875">
        <ele>317.7</ele>
        <time>2021-02-24T15:35:04Z</time>
      </trkpt>
      <trkpt lat="44.31793" lon="5.11879">
        <ele>317.8</ele>
        <time>2021-02-24T15:35:05Z</time>
      </trkpt>
      <trkpt lat="44.31793" lon="5.11883">
        <ele>317.9</ele>
        <time>2021-02-24T15:35:06Z</time>
      </trkpt>
      <trkpt lat="44.31794" lon="5.11887">
        <ele>318</ele>
        <time>2021-02-24T15:35:07Z</time>
      </trkpt>
      <trkpt lat="44.31795" lon="5.11891">
        <ele>318.1</ele>
        <time>2021-02-24T15:35:08Z</time>
      </trkpt>
      <trkpt lat="44.31796" lon="5.11895">
        <ele>318.1</ele>
        <time>2021-02-24T15:35:09Z</time>
      </trkpt>
      <trkpt lat="44.31797" lon="5.11898">
        <ele>318.2</ele>
        <time>2021-02-24T15:35:10Z</time>
      </trkpt>
      <trkpt lat="44.31798" lon="5.11902">
        <ele>318.3</ele>
        <time>2021-02-24T15:35:11Z</time>
      </trkpt>
      <trkpt lat="44.31799" lon="5.11906">
        <ele>318.3</ele>
        <time>2021-02-24T15:35:12Z</time>
      </trkpt>
      <trkpt lat="44.318" lon="5.1191">
        <ele>318.4</ele>
        <time>2021-02-24T15:35:13Z</time>
      </trkpt>
      <trkpt lat="44.31801" lon="5.11914">
        <ele>318.4</ele>
        <time>2021-02-24T15:35:14Z</time>
      </trkpt>
      <trkpt lat="44.31803" lon="5.11917">
        <ele>318.5</ele>
        <time>2021-02-24T15:35:15Z</time>
      </trkpt>
      <trkpt lat="44.31804" lon="5.11921">
        <ele>318.5</ele>
        <time>2021-02-24T15:35:16Z</time>
      </trkpt>
      <trkpt lat="44.31805" lon="5.11925">
        <ele>318.6</ele>
        <time>2021-02-24T15:35:17Z</time>
      </trkpt>
      <trkpt lat="44.31807" lon="5.11929">
        <ele>318.6</ele>
        <time>2021-02-24T15:35:18Z</time>
      </trkpt>
      <trkpt lat="44.31808" lon="5.11933">
        <ele>318.7</ele>
        <time>2021-02-24T15:35:19Z</time>
      </trkpt>
      <trkpt lat="44.3181" lon="5.11937">
        <ele>318.8</ele>
        <time>2021-02-24T15:35:20Z</time>
      </trkpt>
      <trkpt lat="44.31811" lon="5.11941">
        <ele>318.8</ele>
        <time>2021-02-24T15:35:21Z</time>
      </trkpt>
      <trkpt lat="44.31813" lon="5.11945">
        <ele>318.9</ele>
        <time>2021-02-24T15:35:22Z</time>
      </trkpt>
      <trkpt lat="44.31814" lon="5.11949">
        <ele>318.9</ele>
        <time>2021-02-24T15:35:23Z</time>
      </trkpt>
      <trkpt lat="44.31816" lon="5.11953">
        <ele>319</ele>
        <time>2021-02-24T15:35:24Z</time>
      </trkpt>
      <trkpt lat="44.31817" lon="5.11957">
        <ele>319.1</ele>
        <time>2021-02-24T15:35:25Z</time>
      </trkpt>
      <trkpt lat="44.31818" lon="5.11962">
        <ele>319.1</ele>
        <time>2021-02-24T15:35:26Z</time>
      </trkpt>
      <trkpt lat="44.31819" lon="5.11966">
        <ele>319.2</ele>
        <time>2021-02-24T15:35:27Z</time>
      </trkpt>
      <trkpt lat="44.3182" lon="5.1197">
        <ele>319.3</ele>
        <time>2021-02-24T15:35:28Z</time>
      </trkpt>
      <trkpt lat="44.31821" lon="5.11975">
        <ele>319.4</ele>
        <time>2021-02-24T15:35:29Z</time>
      </trkpt>
      <trkpt lat="44.31822" lon="5.11979">
        <ele>319.4</ele>
        <time>2021-02-24T15:35:30Z</time>
      </trkpt>
      <trkpt lat="44.31823" lon="5.11983">
        <ele>319.5</ele>
        <time>2021-02-24T15:35:31Z</time>
      </trkpt>
      <trkpt lat="44.31824" lon="5.11987">
        <ele>319.6</ele>
        <time>2021-02-24T15:35:32Z</time>
      </trkpt>
      <trkpt lat="44.31825" lon="5.11991">
        <ele>319.7</ele>
        <time>2021-02-24T15:35:33Z</time>
      </trkpt>
      <trkpt lat="44.31825" lon="5.11995">
        <ele>319.7</ele>
        <time>2021-02-24T15:35:34Z</time>
      </trkpt>
      <trkpt lat="44.31826" lon="5.11999">
        <ele>319.8</ele>
        <time>2021-02-24T15:35:35Z</time>
      </trkpt>
      <trkpt lat="44.31827" lon="5.12003">
        <ele>319.9</ele>
        <time>2021-02-24T15:35:36Z</time>
      </trkpt>
      <trkpt lat="44.31827" lon="5.12007">
        <ele>319.9</ele>
        <time>2021-02-24T15:35:37Z</time>
      </trkpt>
      <trkpt lat="44.31828" lon="5.12011">
        <ele>320</ele>
        <time>2021-02-24T15:35:38Z</time>
      </trkpt>
      <trkpt lat="44.31829" lon="5.12014">
        <ele>320.1</ele>
        <time>2021-02-24T15:35:39Z</time>
      </trkpt>
      <trkpt lat="44.3183" lon="5.12018">
        <ele>320.2</ele>
        <time>2021-02-24T15:35:40Z</time>
      </trkpt>
      <trkpt lat="44.3183" lon="5.12022">
        <ele>320.3</ele>
        <time>2021-02-24T15:35:41Z</time>
      </trkpt>
      <trkpt lat="44.31831" lon="5.12026">
        <ele>320.4</ele>
        <time>2021-02-24T15:35:42Z</time>
      </trkpt>
      <trkpt lat="44.31831" lon="5.12029">
        <ele>320.4</ele>
        <time>2021-02-24T15:35:43Z</time>
      </trkpt>
      <trkpt lat="44.31832" lon="5.12033">
        <ele>320.5</ele>
        <time>2021-02-24T15:35:44Z</time>
      </trkpt>
      <trkpt lat="44.31832" lon="5.12036">
        <ele>320.6</ele>
        <time>2021-02-24T15:35:45Z</time>
      </trkpt>
      <trkpt lat="44.31833" lon="5.12039">
        <ele>320.7</ele>
        <time>2021-02-24T15:35:46Z</time>
      </trkpt>
      <trkpt lat="44.31834" lon="5.12043">
        <ele>320.8</ele>
        <time>2021-02-24T15:35:47Z</time>
      </trkpt>
      <trkpt lat="44.31834" lon="5.12046">
        <ele>320.9</ele>
        <time>2021-02-24T15:35:48Z</time>
      </trkpt>
      <trkpt lat="44.31835" lon="5.12049">
        <ele>321</ele>
        <time>2021-02-24T15:35:49Z</time>
      </trkpt>
      <trkpt lat="44.31835" lon="5.12052">
        <ele>321.1</ele>
        <time>2021-02-24T15:35:50Z</time>
      </trkpt>
      <trkpt lat="44.31836" lon="5.12055">
        <ele>321.1</ele>
        <time>2021-02-24T15:35:51Z</time>
      </trkpt>
      <trkpt lat="44.31836" lon="5.12059">
        <ele>321.2</ele>
        <time>2021-02-24T15:35:52Z</time>
      </trkpt>
      <trkpt lat="44.31837" lon="5.12062">
        <ele>321.3</ele>
        <time>2021-02-24T15:35:53Z</time>
      </trkpt>
      <trkpt lat="44.31837" lon="5.12065">
        <ele>321.4</ele>
        <time>2021-02-24T15:35:54Z</time>
      </trkpt>
      <trkpt lat="44.31838" lon="5.12067">
        <ele>321.5</ele>
        <time>2021-02-24T15:35:55Z</time>
      </trkpt>
      <trkpt lat="44.31838" lon="5.1207">
        <ele>321.6</ele>
        <time>2021-02-24T15:35:56Z</time>
      </trkpt>
      <trkpt lat="44.31839" lon="5.12073">
        <ele>321.7</ele>
        <time>2021-02-24T15:35:57Z</time>
      </trkpt>
      <trkpt lat="44.31839" lon="5.12073">
        <ele>321.7</ele>
        <time>2021-02-24T15:35:58Z</time>
      </trkpt>
      <trkpt lat="44.3184" lon="5.12077">
        <ele>321.9</ele>
        <time>2021-02-24T15:35:59Z</time>
      </trkpt>
      <trkpt lat="44.3184" lon="5.12077">
        <ele>321.9</ele>
        <time>2021-02-24T15:36:00Z</time>
      </trkpt>
      <trkpt lat="44.31844" lon="5.1208">
        <ele>322.1</ele>
        <time>2021-02-24T15:36:01Z</time>
      </trkpt>
      <trkpt lat="44.31846" lon="5.12081">
        <ele>322.2</ele>
        <time>2021-02-24T15:36:02Z</time>
      </trkpt>
      <trkpt lat="44.31848" lon="5.12082">
        <ele>322.4</ele>
        <time>2021-02-24T15:36:03Z</time>
      </trkpt>
      <trkpt lat="44.31851" lon="5.12082">
        <ele>322.5</ele>
        <time>2021-02-24T15:36:04Z</time>
      </trkpt>
      <trkpt lat="44.31853" lon="5.12083">
        <ele>322.7</ele>
        <time>2021-02-24T15:36:05Z</time>
      </trkpt>
      <trkpt lat="44.31856" lon="5.12083">
        <ele>322.8</ele>
        <time>2021-02-24T15:36:06Z</time>
      </trkpt>
      <trkpt lat="44.31859" lon="5.12083">
        <ele>323</ele>
        <time>2021-02-24T15:36:07Z</time>
      </trkpt>
      <trkpt lat="44.31861" lon="5.12084">
        <ele>323.1</ele>
        <time>2021-02-24T15:36:08Z</time>
      </trkpt>
      <trkpt lat="44.31864" lon="5.12084">
        <ele>323.3</ele>
        <time>2021-02-24T15:36:09Z</time>
      </trkpt>
      <trkpt lat="44.31866" lon="5.12084">
        <ele>323.4</ele>
        <time>2021-02-24T15:36:10Z</time>
      </trkpt>
      <trkpt lat="44.31868" lon="5.12084">
        <ele>323.6</ele>
        <time>2021-02-24T15:36:11Z</time>
      </trkpt>
      <trkpt lat="44.31871" lon="5.12084">
        <ele>323.7</ele>
        <time>2021-02-24T15:36:12Z</time>
      </trkpt>
      <trkpt lat="44.31873" lon="5.12085">
        <ele>323.9</ele>
        <time>2021-02-24T15:36:13Z</time>
      </trkpt>
      <trkpt lat="44.31876" lon="5.12085">
        <ele>324.1</ele>
        <time>2021-02-24T15:36:14Z</time>
      </trkpt>
      <trkpt lat="44.31878" lon="5.12085">
        <ele>324.2</ele>
        <time>2021-02-24T15:36:15Z</time>
      </trkpt>
      <trkpt lat="44.31883" lon="5.12086">
        <ele>324.6</ele>
        <time>2021-02-24T15:36:16Z</time>
      </trkpt>
      <trkpt lat="44.31883" lon="5.12086">
        <ele>324.6</ele>
        <time>2021-02-24T15:36:17Z</time>
      </trkpt>
      <trkpt lat="44.31886" lon="5.12086">
        <ele>324.8</ele>
        <time>2021-02-24T15:36:18Z</time>
      </trkpt>
      <trkpt lat="44.31888" lon="5.12086">
        <ele>324.9</ele>
        <time>2021-02-24T15:36:19Z</time>
      </trkpt>
      <trkpt lat="44.31891" lon="5.12086">
        <ele>325.1</ele>
        <time>2021-02-24T15:36:20Z</time>
      </trkpt>
      <trkpt lat="44.31893" lon="5.12086">
        <ele>325.3</ele>
        <time>2021-02-24T15:36:21Z</time>
      </trkpt>
      <trkpt lat="44.31896" lon="5.12087">
        <ele>325.5</ele>
        <time>2021-02-24T15:36:22Z</time>
      </trkpt>
      <trkpt lat="44.31899" lon="5.12087">
        <ele>325.7</ele>
        <time>2021-02-24T15:36:23Z</time>
      </trkpt>
      <trkpt lat="44.31901" lon="5.12087">
        <ele>325.9</ele>
        <time>2021-02-24T15:36:24Z</time>
      </trkpt>
      <trkpt lat="44.31904" lon="5.12087">
        <ele>326</ele>
        <time>2021-02-24T15:36:25Z</time>
      </trkpt>
      <trkpt lat="44.31907" lon="5.12087">
        <ele>326.2</ele>
        <time>2021-02-24T15:36:26Z</time>
      </trkpt>
      <trkpt lat="44.31909" lon="5.12087">
        <ele>326.4</ele>
        <time>2021-02-24T15:36:27Z</time>
      </trkpt>
      <trkpt lat="44.31911" lon="5.12087">
        <ele>326.6</ele>
        <time>2021-02-24T15:36:28Z</time>
      </trkpt>
      <trkpt lat="44.31914" lon="5.12087">
        <ele>326.7</ele>
        <time>2021-02-24T15:36:29Z</time>
      </trkpt>
      <trkpt lat="44.31916" lon="5.12086">
        <ele>326.9</ele>
        <time>2021-02-24T15:36:30Z</time>
      </trkpt>
      <trkpt lat="44.31918" lon="5.12086">
        <ele>327</ele>
        <time>2021-02-24T15:36:31Z</time>
      </trkpt>
      <trkpt lat="44.3192" lon="5.12085">
        <ele>327.1</ele>
        <time>2021-02-24T15:36:32Z</time>
      </trkpt>
      <trkpt lat="44.31922" lon="5.12083">
        <ele>327.3</ele>
        <time>2021-02-24T15:36:33Z</time>
      </trkpt>
      <trkpt lat="44.31924" lon="5.12081">
        <ele>327.4</ele>
        <time>2021-02-24T15:36:34Z</time>
      </trkpt>
      <trkpt lat="44.31927" lon="5.12079">
        <ele>327.6</ele>
        <time>2021-02-24T15:36:35Z</time>
      </trkpt>
      <trkpt lat="44.31929" lon="5.12077">
        <ele>327.7</ele>
        <time>2021-02-24T15:36:36Z</time>
      </trkpt>
      <trkpt lat="44.31932" lon="5.12074">
        <ele>327.9</ele>
        <time>2021-02-24T15:36:37Z</time>
      </trkpt>
      <trkpt lat="44.31934" lon="5.12071">
        <ele>328</ele>
        <time>2021-02-24T15:36:38Z</time>
      </trkpt>
      <trkpt lat="44.31937" lon="5.12068">
        <ele>328.1</ele>
        <time>2021-02-24T15:36:39Z</time>
      </trkpt>
      <trkpt lat="44.31939" lon="5.12065">
        <ele>328.3</ele>
        <time>2021-02-24T15:36:40Z</time>
      </trkpt>
      <trkpt lat="44.3194" lon="5.12062">
        <ele>328.4</ele>
        <time>2021-02-24T15:36:41Z</time>
      </trkpt>
      <trkpt lat="44.31942" lon="5.12059">
        <ele>328.5</ele>
        <time>2021-02-24T15:36:42Z</time>
      </trkpt>
      <trkpt lat="44.31944" lon="5.12056">
        <ele>328.6</ele>
        <time>2021-02-24T15:36:43Z</time>
      </trkpt>
      <trkpt lat="44.31946" lon="5.12053">
        <ele>328.7</ele>
        <time>2021-02-24T15:36:44Z</time>
      </trkpt>
      <trkpt lat="44.31948" lon="5.1205">
        <ele>328.8</ele>
        <time>2021-02-24T15:36:45Z</time>
      </trkpt>
      <trkpt lat="44.3195" lon="5.12047">
        <ele>328.9</ele>
        <time>2021-02-24T15:36:46Z</time>
      </trkpt>
      <trkpt lat="44.31952" lon="5.12044">
        <ele>329</ele>
        <time>2021-02-24T15:36:47Z</time>
      </trkpt>
      <trkpt lat="44.31954" lon="5.12041">
        <ele>329.1</ele>
        <time>2021-02-24T15:36:48Z</time>
      </trkpt>
      <trkpt lat="44.31957" lon="5.12039">
        <ele>329.2</ele>
        <time>2021-02-24T15:36:49Z</time>
      </trkpt>
      <trkpt lat="44.31959" lon="5.12036">
        <ele>329.3</ele>
        <time>2021-02-24T15:36:50Z</time>
      </trkpt>
      <trkpt lat="44.31961" lon="5.12034">
        <ele>329.4</ele>
        <time>2021-02-24T15:36:51Z</time>
      </trkpt>
      <trkpt lat="44.31963" lon="5.12032">
        <ele>329.5</ele>
        <time>2021-02-24T15:36:52Z</time>
      </trkpt>
      <trkpt lat="44.31966" lon="5.1203">
        <ele>329.6</ele>
        <time>2021-02-24T15:36:53Z</time>
      </trkpt>
      <trkpt lat="44.3197" lon="5.12027">
        <ele>329.9</ele>
        <time>2021-02-24T15:36:54Z</time>
      </trkpt>
      <trkpt lat="44.3197" lon="5.12027">
        <ele>329.9</ele>
        <time>2021-02-24T15:36:55Z</time>
      </trkpt>
      <trkpt lat="44.31973" lon="5.12026">
        <ele>330</ele>
        <time>2021-02-24T15:36:56Z</time>
      </trkpt>
      <trkpt lat="44.31975" lon="5.12025">
        <ele>330</ele>
        <time>2021-02-24T15:36:57Z</time>
      </trkpt>
      <trkpt lat="44.31978" lon="5.12024">
        <ele>330.1</ele>
        <time>2021-02-24T15:36:58Z</time>
      </trkpt>
      <trkpt lat="44.3198" lon="5.12024">
        <ele>330.2</ele>
        <time>2021-02-24T15:36:59Z</time>
      </trkpt>
      <trkpt lat="44.31983" lon="5.12024">
        <ele>330.3</ele>
        <time>2021-02-24T15:37:00Z</time>
      </trkpt>
      <trkpt lat="44.31985" lon="5.12024">
        <ele>330.4</ele>
        <time>2021-02-24T15:37:01Z</time>
      </trkpt>
      <trkpt lat="44.31988" lon="5.12023">
        <ele>330.5</ele>
        <time>2021-02-24T15:37:02Z</time>
      </trkpt>
      <trkpt lat="44.31991" lon="5.12023">
        <ele>330.7</ele>
        <time>2021-02-24T15:37:03Z</time>
      </trkpt>
      <trkpt lat="44.31994" lon="5.12024">
        <ele>330.8</ele>
        <time>2021-02-24T15:37:04Z</time>
      </trkpt>
      <trkpt lat="44.31997" lon="5.12025">
        <ele>330.9</ele>
        <time>2021-02-24T15:37:05Z</time>
      </trkpt>
      <trkpt lat="44.31999" lon="5.12025">
        <ele>331</ele>
        <time>2021-02-24T15:37:06Z</time>
      </trkpt>
      <trkpt lat="44.32002" lon="5.12025">
        <ele>331.1</ele>
        <time>2021-02-24T15:37:07Z</time>
      </trkpt>
      <trkpt lat="44.32006" lon="5.12025">
        <ele>331.2</ele>
        <time>2021-02-24T15:37:08Z</time>
      </trkpt>
      <trkpt lat="44.32009" lon="5.12025">
        <ele>331.3</ele>
        <time>2021-02-24T15:37:09Z</time>
      </trkpt>
      <trkpt lat="44.32013" lon="5.12025">
        <ele>331.4</ele>
        <time>2021-02-24T15:37:10Z</time>
      </trkpt>
      <trkpt lat="44.32017" lon="5.12026">
        <ele>331.5</ele>
        <time>2021-02-24T15:37:11Z</time>
      </trkpt>
      <trkpt lat="44.32019" lon="5.12027">
        <ele>331.6</ele>
        <time>2021-02-24T15:37:12Z</time>
      </trkpt>
      <trkpt lat="44.32022" lon="5.12028">
        <ele>331.7</ele>
        <time>2021-02-24T15:37:13Z</time>
      </trkpt>
      <trkpt lat="44.32024" lon="5.12028">
        <ele>331.7</ele>
        <time>2021-02-24T15:37:14Z</time>
      </trkpt>
      <trkpt lat="44.32027" lon="5.12028">
        <ele>331.8</ele>
        <time>2021-02-24T15:37:15Z</time>
      </trkpt>
      <trkpt lat="44.3203" lon="5.12029">
        <ele>331.9</ele>
        <time>2021-02-24T15:37:16Z</time>
      </trkpt>
      <trkpt lat="44.32033" lon="5.12028">
        <ele>332</ele>
        <time>2021-02-24T15:37:17Z</time>
      </trkpt>
      <trkpt lat="44.32036" lon="5.12028">
        <ele>332.1</ele>
        <time>2021-02-24T15:37:18Z</time>
      </trkpt>
      <trkpt lat="44.32038" lon="5.12027">
        <ele>332.1</ele>
        <time>2021-02-24T15:37:19Z</time>
      </trkpt>
      <trkpt lat="44.32041" lon="5.12025">
        <ele>332.2</ele>
        <time>2021-02-24T15:37:20Z</time>
      </trkpt>
      <trkpt lat="44.32044" lon="5.12024">
        <ele>332.3</ele>
        <time>2021-02-24T15:37:21Z</time>
      </trkpt>
      <trkpt lat="44.32047" lon="5.12022">
        <ele>332.4</ele>
        <time>2021-02-24T15:37:22Z</time>
      </trkpt>
      <trkpt lat="44.3205" lon="5.1202">
        <ele>332.5</ele>
        <time>2021-02-24T15:37:23Z</time>
      </trkpt>
      <trkpt lat="44.32052" lon="5.12018">
        <ele>332.5</ele>
        <time>2021-02-24T15:37:24Z</time>
      </trkpt>
      <trkpt lat="44.32055" lon="5.12016">
        <ele>332.6</ele>
        <time>2021-02-24T15:37:25Z</time>
      </trkpt>
      <trkpt lat="44.32058" lon="5.12014">
        <ele>332.7</ele>
        <time>2021-02-24T15:37:26Z</time>
      </trkpt>
      <trkpt lat="44.32061" lon="5.12012">
        <ele>332.8</ele>
        <time>2021-02-24T15:37:27Z</time>
      </trkpt>
      <trkpt lat="44.32064" lon="5.12009">
        <ele>332.9</ele>
        <time>2021-02-24T15:37:28Z</time>
      </trkpt>
      <trkpt lat="44.32066" lon="5.12007">
        <ele>333</ele>
        <time>2021-02-24T15:37:29Z</time>
      </trkpt>
      <trkpt lat="44.32068" lon="5.12005">
        <ele>333.1</ele>
        <time>2021-02-24T15:37:30Z</time>
      </trkpt>
      <trkpt lat="44.3207" lon="5.12003">
        <ele>333.2</ele>
        <time>2021-02-24T15:37:31Z</time>
      </trkpt>
      <trkpt lat="44.32075" lon="5.11998">
        <ele>333.4</ele>
        <time>2021-02-24T15:37:32Z</time>
      </trkpt>
      <trkpt lat="44.32075" lon="5.11998">
        <ele>333.4</ele>
        <time>2021-02-24T15:37:33Z</time>
      </trkpt>
      <trkpt lat="44.32078" lon="5.11996">
        <ele>333.5</ele>
        <time>2021-02-24T15:37:34Z</time>
      </trkpt>
      <trkpt lat="44.32082" lon="5.11993">
        <ele>333.6</ele>
        <time>2021-02-24T15:37:35Z</time>
      </trkpt>
      <trkpt lat="44.32084" lon="5.11992">
        <ele>333.7</ele>
        <time>2021-02-24T15:37:36Z</time>
      </trkpt>
      <trkpt lat="44.32086" lon="5.1199">
        <ele>333.8</ele>
        <time>2021-02-24T15:37:37Z</time>
      </trkpt>
      <trkpt lat="44.32089" lon="5.11988">
        <ele>333.9</ele>
        <time>2021-02-24T15:37:38Z</time>
      </trkpt>
      <trkpt lat="44.32091" lon="5.11986">
        <ele>334</ele>
        <time>2021-02-24T15:37:39Z</time>
      </trkpt>
      <trkpt lat="44.32094" lon="5.11984">
        <ele>334.1</ele>
        <time>2021-02-24T15:37:40Z</time>
      </trkpt>
      <trkpt lat="44.32096" lon="5.11982">
        <ele>334.2</ele>
        <time>2021-02-24T15:37:41Z</time>
      </trkpt>
      <trkpt lat="44.32098" lon="5.1198">
        <ele>334.3</ele>
        <time>2021-02-24T15:37:42Z</time>
      </trkpt>
      <trkpt lat="44.32101" lon="5.11978">
        <ele>334.5</ele>
        <time>2021-02-24T15:37:43Z</time>
      </trkpt>
      <trkpt lat="44.32104" lon="5.11976">
        <ele>334.6</ele>
        <time>2021-02-24T15:37:44Z</time>
      </trkpt>
      <trkpt lat="44.32107" lon="5.11974">
        <ele>334.7</ele>
        <time>2021-02-24T15:37:45Z</time>
      </trkpt>
      <trkpt lat="44.32109" lon="5.11972">
        <ele>334.9</ele>
        <time>2021-02-24T15:37:46Z</time>
      </trkpt>
      <trkpt lat="44.32111" lon="5.1197">
        <ele>335</ele>
        <time>2021-02-24T15:37:47Z</time>
      </trkpt>
      <trkpt lat="44.32114" lon="5.11968">
        <ele>335.1</ele>
        <time>2021-02-24T15:37:48Z</time>
      </trkpt>
      <trkpt lat="44.32116" lon="5.11966">
        <ele>335.3</ele>
        <time>2021-02-24T15:37:49Z</time>
      </trkpt>
      <trkpt lat="44.32119" lon="5.11964">
        <ele>335.4</ele>
        <time>2021-02-24T15:37:50Z</time>
      </trkpt>
      <trkpt lat="44.32124" lon="5.1196">
        <ele>335.7</ele>
        <time>2021-02-24T15:37:51Z</time>
      </trkpt>
      <trkpt lat="44.32124" lon="5.1196">
        <ele>335.7</ele>
        <time>2021-02-24T15:37:52Z</time>
      </trkpt>
      <trkpt lat="44.32126" lon="5.11958">
        <ele>335.8</ele>
        <time>2021-02-24T15:37:53Z</time>
      </trkpt>
      <trkpt lat="44.32129" lon="5.11956">
        <ele>336</ele>
        <time>2021-02-24T15:37:54Z</time>
      </trkpt>
      <trkpt lat="44.32131" lon="5.11955">
        <ele>336.1</ele>
        <time>2021-02-24T15:37:55Z</time>
      </trkpt>
      <trkpt lat="44.32133" lon="5.11953">
        <ele>336.3</ele>
        <time>2021-02-24T15:37:56Z</time>
      </trkpt>
      <trkpt lat="44.32136" lon="5.11951">
        <ele>336.5</ele>
        <time>2021-02-24T15:37:57Z</time>
      </trkpt>
      <trkpt lat="44.32138" lon="5.11949">
        <ele>336.6</ele>
        <time>2021-02-24T15:37:58Z</time>
      </trkpt>
      <trkpt lat="44.3214" lon="5.11947">
        <ele>336.8</ele>
        <time>2021-02-24T15:37:59Z</time>
      </trkpt>
      <trkpt lat="44.32143" lon="5.11945">
        <ele>336.9</ele>
        <time>2021-02-24T15:38:00Z</time>
      </trkpt>
      <trkpt lat="44.32145" lon="5.11943">
        <ele>337.1</ele>
        <time>2021-02-24T15:38:01Z</time>
      </trkpt>
      <trkpt lat="44.32147" lon="5.11941">
        <ele>337.3</ele>
        <time>2021-02-24T15:38:02Z</time>
      </trkpt>
      <trkpt lat="44.3215" lon="5.11939">
        <ele>337.4</ele>
        <time>2021-02-24T15:38:03Z</time>
      </trkpt>
      <trkpt lat="44.32152" lon="5.11938">
        <ele>337.6</ele>
        <time>2021-02-24T15:38:04Z</time>
      </trkpt>
      <trkpt lat="44.32154" lon="5.11936">
        <ele>337.8</ele>
        <time>2021-02-24T15:38:05Z</time>
      </trkpt>
      <trkpt lat="44.32157" lon="5.11933">
        <ele>338</ele>
        <time>2021-02-24T15:38:06Z</time>
      </trkpt>
      <trkpt lat="44.32159" lon="5.11931">
        <ele>338.2</ele>
        <time>2021-02-24T15:38:07Z</time>
      </trkpt>
      <trkpt lat="44.32162" lon="5.11929">
        <ele>338.3</ele>
        <time>2021-02-24T15:38:08Z</time>
      </trkpt>
      <trkpt lat="44.32164" lon="5.11928">
        <ele>338.5</ele>
        <time>2021-02-24T15:38:09Z</time>
      </trkpt>
      <trkpt lat="44.32166" lon="5.11926">
        <ele>338.7</ele>
        <time>2021-02-24T15:38:10Z</time>
      </trkpt>
      <trkpt lat="44.32169" lon="5.11924">
        <ele>338.9</ele>
        <time>2021-02-24T15:38:11Z</time>
      </trkpt>
      <trkpt lat="44.32171" lon="5.11922">
        <ele>339.1</ele>
        <time>2021-02-24T15:38:12Z</time>
      </trkpt>
      <trkpt lat="44.32174" lon="5.11921">
        <ele>339.3</ele>
        <time>2021-02-24T15:38:13Z</time>
      </trkpt>
      <trkpt lat="44.32176" lon="5.1192">
        <ele>339.5</ele>
        <time>2021-02-24T15:38:14Z</time>
      </trkpt>
      <trkpt lat="44.32178" lon="5.1192">
        <ele>339.7</ele>
        <time>2021-02-24T15:38:15Z</time>
      </trkpt>
      <trkpt lat="44.3218" lon="5.1192">
        <ele>339.8</ele>
        <time>2021-02-24T15:38:16Z</time>
      </trkpt>
      <trkpt lat="44.32183" lon="5.1192">
        <ele>340.2</ele>
        <time>2021-02-24T15:38:17Z</time>
      </trkpt>
      <trkpt lat="44.32185" lon="5.11921">
        <ele>340.4</ele>
        <time>2021-02-24T15:38:18Z</time>
      </trkpt>
      <trkpt lat="44.32187" lon="5.11922">
        <ele>340.5</ele>
        <time>2021-02-24T15:38:19Z</time>
      </trkpt>
      <trkpt lat="44.32189" lon="5.11924">
        <ele>340.7</ele>
        <time>2021-02-24T15:38:20Z</time>
      </trkpt>
      <trkpt lat="44.32191" lon="5.11926">
        <ele>340.9</ele>
        <time>2021-02-24T15:38:21Z</time>
      </trkpt>
      <trkpt lat="44.32193" lon="5.11928">
        <ele>341.1</ele>
        <time>2021-02-24T15:38:22Z</time>
      </trkpt>
      <trkpt lat="44.32195" lon="5.1193">
        <ele>341.3</ele>
        <time>2021-02-24T15:38:23Z</time>
      </trkpt>
      <trkpt lat="44.32197" lon="5.11933">
        <ele>341.5</ele>
        <time>2021-02-24T15:38:24Z</time>
      </trkpt>
      <trkpt lat="44.32199" lon="5.11935">
        <ele>341.7</ele>
        <time>2021-02-24T15:38:25Z</time>
      </trkpt>
      <trkpt lat="44.322" lon="5.11938">
        <ele>341.9</ele>
        <time>2021-02-24T15:38:26Z</time>
      </trkpt>
      <trkpt lat="44.32202" lon="5.11941">
        <ele>342.1</ele>
        <time>2021-02-24T15:38:27Z</time>
      </trkpt>
      <trkpt lat="44.32204" lon="5.11943">
        <ele>342.2</ele>
        <time>2021-02-24T15:38:28Z</time>
      </trkpt>
      <trkpt lat="44.32206" lon="5.11948">
        <ele>342.6</ele>
        <time>2021-02-24T15:38:29Z</time>
      </trkpt>
      <trkpt lat="44.32206" lon="5.11948">
        <ele>342.6</ele>
        <time>2021-02-24T15:38:30Z</time>
      </trkpt>
      <trkpt lat="44.32208" lon="5.11951">
        <ele>342.8</ele>
        <time>2021-02-24T15:38:31Z</time>
      </trkpt>
      <trkpt lat="44.3221" lon="5.11954">
        <ele>343</ele>
        <time>2021-02-24T15:38:32Z</time>
      </trkpt>
      <trkpt lat="44.3221" lon="5.11955">
        <ele>343.1</ele>
        <time>2021-02-24T15:38:33Z</time>
      </trkpt>
      <trkpt lat="44.32212" lon="5.11958">
        <ele>343.3</ele>
        <time>2021-02-24T15:38:34Z</time>
      </trkpt>
      <trkpt lat="44.32213" lon="5.1196">
        <ele>343.5</ele>
        <time>2021-02-24T15:38:35Z</time>
      </trkpt>
      <trkpt lat="44.32214" lon="5.11963">
        <ele>343.6</ele>
        <time>2021-02-24T15:38:36Z</time>
      </trkpt>
      <trkpt lat="44.32215" lon="5.11965">
        <ele>343.8</ele>
        <time>2021-02-24T15:38:37Z</time>
      </trkpt>
      <trkpt lat="44.32217" lon="5.11967">
        <ele>343.9</ele>
        <time>2021-02-24T15:38:38Z</time>
      </trkpt>
      <trkpt lat="44.32218" lon="5.1197">
        <ele>344.1</ele>
        <time>2021-02-24T15:38:39Z</time>
      </trkpt>
      <trkpt lat="44.32219" lon="5.11972">
        <ele>344.3</ele>
        <time>2021-02-24T15:38:40Z</time>
      </trkpt>
      <trkpt lat="44.32221" lon="5.11975">
        <ele>344.5</ele>
        <time>2021-02-24T15:38:41Z</time>
      </trkpt>
      <trkpt lat="44.32222" lon="5.11978">
        <ele>344.6</ele>
        <time>2021-02-24T15:38:42Z</time>
      </trkpt>
      <trkpt lat="44.32224" lon="5.1198">
        <ele>344.8</ele>
        <time>2021-02-24T15:38:43Z</time>
      </trkpt>
      <trkpt lat="44.32226" lon="5.11983">
        <ele>345</ele>
        <time>2021-02-24T15:38:44Z</time>
      </trkpt>
      <trkpt lat="44.32228" lon="5.11986">
        <ele>345.2</ele>
        <time>2021-02-24T15:38:45Z</time>
      </trkpt>
      <trkpt lat="44.3223" lon="5.11989">
        <ele>345.4</ele>
        <time>2021-02-24T15:38:46Z</time>
      </trkpt>
      <trkpt lat="44.32232" lon="5.11991">
        <ele>345.6</ele>
        <time>2021-02-24T15:38:47Z</time>
      </trkpt>
      <trkpt lat="44.32233" lon="5.11994">
        <ele>345.8</ele>
        <time>2021-02-24T15:38:48Z</time>
      </trkpt>
      <trkpt lat="44.32235" lon="5.11997">
        <ele>346</ele>
        <time>2021-02-24T15:38:49Z</time>
      </trkpt>
      <trkpt lat="44.32237" lon="5.12">
        <ele>346.2</ele>
        <time>2021-02-24T15:38:50Z</time>
      </trkpt>
      <trkpt lat="44.32238" lon="5.12003">
        <ele>346.4</ele>
        <time>2021-02-24T15:38:51Z</time>
      </trkpt>
      <trkpt lat="44.3224" lon="5.12006">
        <ele>346.5</ele>
        <time>2021-02-24T15:38:52Z</time>
      </trkpt>
      <trkpt lat="44.32241" lon="5.12008">
        <ele>346.7</ele>
        <time>2021-02-24T15:38:53Z</time>
      </trkpt>
      <trkpt lat="44.32243" lon="5.12011">
        <ele>346.9</ele>
        <time>2021-02-24T15:38:54Z</time>
      </trkpt>
      <trkpt lat="44.32244" lon="5.12013">
        <ele>347</ele>
        <time>2021-02-24T15:38:55Z</time>
      </trkpt>
      <trkpt lat="44.32246" lon="5.12016">
        <ele>347.2</ele>
        <time>2021-02-24T15:38:56Z</time>
      </trkpt>
      <trkpt lat="44.32247" lon="5.12019">
        <ele>347.4</ele>
        <time>2021-02-24T15:38:57Z</time>
      </trkpt>
      <trkpt lat="44.32249" lon="5.12022">
        <ele>347.5</ele>
        <time>2021-02-24T15:38:58Z</time>
      </trkpt>
      <trkpt lat="44.3225" lon="5.12024">
        <ele>347.7</ele>
        <time>2021-02-24T15:38:59Z</time>
      </trkpt>
      <trkpt lat="44.32251" lon="5.12027">
        <ele>347.9</ele>
        <time>2021-02-24T15:39:00Z</time>
      </trkpt>
      <trkpt lat="44.32253" lon="5.1203">
        <ele>348</ele>
        <time>2021-02-24T15:39:01Z</time>
      </trkpt>
      <trkpt lat="44.32254" lon="5.12033">
        <ele>348.2</ele>
        <time>2021-02-24T15:39:02Z</time>
      </trkpt>
      <trkpt lat="44.32256" lon="5.12036">
        <ele>348.4</ele>
        <time>2021-02-24T15:39:03Z</time>
      </trkpt>
      <trkpt lat="44.32257" lon="5.12039">
        <ele>348.6</ele>
        <time>2021-02-24T15:39:04Z</time>
      </trkpt>
      <trkpt lat="44.32259" lon="5.12041">
        <ele>348.8</ele>
        <time>2021-02-24T15:39:05Z</time>
      </trkpt>
      <trkpt lat="44.3226" lon="5.12044">
        <ele>348.9</ele>
        <time>2021-02-24T15:39:06Z</time>
      </trkpt>
      <trkpt lat="44.32262" lon="5.12047">
        <ele>349.1</ele>
        <time>2021-02-24T15:39:07Z</time>
      </trkpt>
      <trkpt lat="44.32263" lon="5.1205">
        <ele>349.3</ele>
        <time>2021-02-24T15:39:08Z</time>
      </trkpt>
      <trkpt lat="44.32264" lon="5.12052">
        <ele>349.5</ele>
        <time>2021-02-24T15:39:09Z</time>
      </trkpt>
      <trkpt lat="44.32266" lon="5.12055">
        <ele>349.6</ele>
        <time>2021-02-24T15:39:10Z</time>
      </trkpt>
      <trkpt lat="44.32267" lon="5.12058">
        <ele>349.8</ele>
        <time>2021-02-24T15:39:11Z</time>
      </trkpt>
      <trkpt lat="44.32269" lon="5.1206">
        <ele>350</ele>
        <time>2021-02-24T15:39:12Z</time>
      </trkpt>
      <trkpt lat="44.3227" lon="5.12063">
        <ele>350.1</ele>
        <time>2021-02-24T15:39:13Z</time>
      </trkpt>
      <trkpt lat="44.32272" lon="5.12065">
        <ele>350.3</ele>
        <time>2021-02-24T15:39:14Z</time>
      </trkpt>
      <trkpt lat="44.32273" lon="5.12068">
        <ele>350.5</ele>
        <time>2021-02-24T15:39:15Z</time>
      </trkpt>
      <trkpt lat="44.32274" lon="5.12071">
        <ele>350.6</ele>
        <time>2021-02-24T15:39:16Z</time>
      </trkpt>
      <trkpt lat="44.32276" lon="5.12073">
        <ele>350.8</ele>
        <time>2021-02-24T15:39:17Z</time>
      </trkpt>
      <trkpt lat="44.32277" lon="5.12076">
        <ele>351</ele>
        <time>2021-02-24T15:39:18Z</time>
      </trkpt>
      <trkpt lat="44.32279" lon="5.12078">
        <ele>351.1</ele>
        <time>2021-02-24T15:39:19Z</time>
      </trkpt>
      <trkpt lat="44.32281" lon="5.1208">
        <ele>351.3</ele>
        <time>2021-02-24T15:39:20Z</time>
      </trkpt>
      <trkpt lat="44.32283" lon="5.12083">
        <ele>351.5</ele>
        <time>2021-02-24T15:39:21Z</time>
      </trkpt>
      <trkpt lat="44.32285" lon="5.12084">
        <ele>351.6</ele>
        <time>2021-02-24T15:39:22Z</time>
      </trkpt>
      <trkpt lat="44.32288" lon="5.12087">
        <ele>351.9</ele>
        <time>2021-02-24T15:39:23Z</time>
      </trkpt>
      <trkpt lat="44.32289" lon="5.12088">
        <ele>352</ele>
        <time>2021-02-24T15:39:24Z</time>
      </trkpt>
      <trkpt lat="44.3229" lon="5.1209">
        <ele>352.2</ele>
        <time>2021-02-24T15:39:25Z</time>
      </trkpt>
      <trkpt lat="44.32292" lon="5.12091">
        <ele>352.3</ele>
        <time>2021-02-24T15:39:26Z</time>
      </trkpt>
      <trkpt lat="44.32294" lon="5.12093">
        <ele>352.5</ele>
        <time>2021-02-24T15:39:27Z</time>
      </trkpt>
      <trkpt lat="44.32296" lon="5.12094">
        <ele>352.6</ele>
        <time>2021-02-24T15:39:28Z</time>
      </trkpt>
      <trkpt lat="44.32297" lon="5.12095">
        <ele>352.8</ele>
        <time>2021-02-24T15:39:29Z</time>
      </trkpt>
      <trkpt lat="44.323" lon="5.12097">
        <ele>352.9</ele>
        <time>2021-02-24T15:39:30Z</time>
      </trkpt>
      <trkpt lat="44.32301" lon="5.12099">
        <ele>353.1</ele>
        <time>2021-02-24T15:39:31Z</time>
      </trkpt>
      <trkpt lat="44.32301" lon="5.12099">
        <ele>353.1</ele>
        <time>2021-02-24T15:39:32Z</time>
      </trkpt>
      <trkpt lat="44.32304" lon="5.121">
        <ele>353.3</ele>
        <time>2021-02-24T15:39:33Z</time>
      </trkpt>
      <trkpt lat="44.32304" lon="5.121">
        <ele>353.3</ele>
        <time>2021-02-24T15:39:34Z</time>
      </trkpt>
      <trkpt lat="44.32307" lon="5.12102">
        <ele>353.5</ele>
        <time>2021-02-24T15:39:35Z</time>
      </trkpt>
      <trkpt lat="44.32309" lon="5.12104">
        <ele>353.7</ele>
        <time>2021-02-24T15:39:36Z</time>
      </trkpt>
      <trkpt lat="44.32312" lon="5.12105">
        <ele>353.9</ele>
        <time>2021-02-24T15:39:37Z</time>
      </trkpt>
      <trkpt lat="44.32314" lon="5.12107">
        <ele>354.1</ele>
        <time>2021-02-24T15:39:38Z</time>
      </trkpt>
      <trkpt lat="44.32315" lon="5.12109">
        <ele>354.2</ele>
        <time>2021-02-24T15:39:39Z</time>
      </trkpt>
      <trkpt lat="44.32316" lon="5.12111">
        <ele>354.4</ele>
        <time>2021-02-24T15:39:40Z</time>
      </trkpt>
      <trkpt lat="44.32317" lon="5.12113">
        <ele>354.5</ele>
        <time>2021-02-24T15:39:41Z</time>
      </trkpt>
      <trkpt lat="44.32319" lon="5.12116">
        <ele>354.7</ele>
        <time>2021-02-24T15:39:42Z</time>
      </trkpt>
      <trkpt lat="44.3232" lon="5.12119">
        <ele>354.9</ele>
        <time>2021-02-24T15:39:43Z</time>
      </trkpt>
      <trkpt lat="44.32322" lon="5.12122">
        <ele>355</ele>
        <time>2021-02-24T15:39:44Z</time>
      </trkpt>
      <trkpt lat="44.32323" lon="5.12124">
        <ele>355.2</ele>
        <time>2021-02-24T15:39:45Z</time>
      </trkpt>
      <trkpt lat="44.32324" lon="5.12127">
        <ele>355.4</ele>
        <time>2021-02-24T15:39:46Z</time>
      </trkpt>
      <trkpt lat="44.32326" lon="5.1213">
        <ele>355.6</ele>
        <time>2021-02-24T15:39:47Z</time>
      </trkpt>
      <trkpt lat="44.32327" lon="5.12133">
        <ele>355.8</ele>
        <time>2021-02-24T15:39:48Z</time>
      </trkpt>
      <trkpt lat="44.32329" lon="5.12137">
        <ele>356</ele>
        <time>2021-02-24T15:39:49Z</time>
      </trkpt>
      <trkpt lat="44.32331" lon="5.1214">
        <ele>356.2</ele>
        <time>2021-02-24T15:39:50Z</time>
      </trkpt>
      <trkpt lat="44.32333" lon="5.12142">
        <ele>356.4</ele>
        <time>2021-02-24T15:39:51Z</time>
      </trkpt>
      <trkpt lat="44.32334" lon="5.12145">
        <ele>356.6</ele>
        <time>2021-02-24T15:39:52Z</time>
      </trkpt>
      <trkpt lat="44.32336" lon="5.12147">
        <ele>356.8</ele>
        <time>2021-02-24T15:39:53Z</time>
      </trkpt>
      <trkpt lat="44.32337" lon="5.12149">
        <ele>356.9</ele>
        <time>2021-02-24T15:39:54Z</time>
      </trkpt>
      <trkpt lat="44.32339" lon="5.12151">
        <ele>357.1</ele>
        <time>2021-02-24T15:39:55Z</time>
      </trkpt>
      <trkpt lat="44.3234" lon="5.12151">
        <ele>357.1</ele>
        <time>2021-02-24T15:39:56Z</time>
      </trkpt>
      <trkpt lat="44.32341" lon="5.12151">
        <ele>357.2</ele>
        <time>2021-02-24T15:39:57Z</time>
      </trkpt>
      <trkpt lat="44.32341" lon="5.12151">
        <ele>357.3</ele>
        <time>2021-02-24T15:39:58Z</time>
      </trkpt>
      <trkpt lat="44.32342" lon="5.12151">
        <ele>357.3</ele>
        <time>2021-02-24T15:39:59Z</time>
      </trkpt>
      <trkpt lat="44.32343" lon="5.12151">
        <ele>357.4</ele>
        <time>2021-02-24T15:40:00Z</time>
      </trkpt>
      <trkpt lat="44.32344" lon="5.12152">
        <ele>357.5</ele>
        <time>2021-02-24T15:40:01Z</time>
      </trkpt>
      <trkpt lat="44.32351" lon="5.12151">
        <ele>358.1</ele>
        <time>2021-02-24T15:40:02Z</time>
      </trkpt>
      <trkpt lat="44.32353" lon="5.1215">
        <ele>358.2</ele>
        <time>2021-02-24T15:40:03Z</time>
      </trkpt>
      <trkpt lat="44.32355" lon="5.12149">
        <ele>358.4</ele>
        <time>2021-02-24T15:40:04Z</time>
      </trkpt>
      <trkpt lat="44.32357" lon="5.12148">
        <ele>358.6</ele>
        <time>2021-02-24T15:40:05Z</time>
      </trkpt>
      <trkpt lat="44.32359" lon="5.12147">
        <ele>358.8</ele>
        <time>2021-02-24T15:40:06Z</time>
      </trkpt>
      <trkpt lat="44.32361" lon="5.12145">
        <ele>359</ele>
        <time>2021-02-24T15:40:07Z</time>
      </trkpt>
      <trkpt lat="44.32364" lon="5.12144">
        <ele>359.2</ele>
        <time>2021-02-24T15:40:08Z</time>
      </trkpt>
      <trkpt lat="44.32366" lon="5.12143">
        <ele>359.5</ele>
        <time>2021-02-24T15:40:09Z</time>
      </trkpt>
      <trkpt lat="44.32369" lon="5.12141">
        <ele>359.7</ele>
        <time>2021-02-24T15:40:10Z</time>
      </trkpt>
      <trkpt lat="44.32372" lon="5.12139">
        <ele>360</ele>
        <time>2021-02-24T15:40:11Z</time>
      </trkpt>
      <trkpt lat="44.32375" lon="5.12137">
        <ele>360.2</ele>
        <time>2021-02-24T15:40:12Z</time>
      </trkpt>
      <trkpt lat="44.32378" lon="5.12135">
        <ele>360.5</ele>
        <time>2021-02-24T15:40:13Z</time>
      </trkpt>
      <trkpt lat="44.32381" lon="5.12133">
        <ele>360.8</ele>
        <time>2021-02-24T15:40:14Z</time>
      </trkpt>
      <trkpt lat="44.32383" lon="5.12132">
        <ele>360.9</ele>
        <time>2021-02-24T15:40:15Z</time>
      </trkpt>
      <trkpt lat="44.32383" lon="5.12132">
        <ele>360.9</ele>
        <time>2021-02-24T15:40:16Z</time>
      </trkpt>
      <trkpt lat="44.32386" lon="5.12129">
        <ele>361.2</ele>
        <time>2021-02-24T15:40:17Z</time>
      </trkpt>
      <trkpt lat="44.3239" lon="5.12126">
        <ele>361.5</ele>
        <time>2021-02-24T15:40:18Z</time>
      </trkpt>
      <trkpt lat="44.32394" lon="5.12123">
        <ele>361.8</ele>
        <time>2021-02-24T15:40:19Z</time>
      </trkpt>
      <trkpt lat="44.32394" lon="5.12123">
        <ele>361.8</ele>
        <time>2021-02-24T15:40:20Z</time>
      </trkpt>
      <trkpt lat="44.32396" lon="5.12122">
        <ele>362</ele>
        <time>2021-02-24T15:40:21Z</time>
      </trkpt>
      <trkpt lat="44.32399" lon="5.12121">
        <ele>362.1</ele>
        <time>2021-02-24T15:40:22Z</time>
      </trkpt>
      <trkpt lat="44.32401" lon="5.1212">
        <ele>362.3</ele>
        <time>2021-02-24T15:40:23Z</time>
      </trkpt>
      <trkpt lat="44.32404" lon="5.12119">
        <ele>362.4</ele>
        <time>2021-02-24T15:40:24Z</time>
      </trkpt>
      <trkpt lat="44.32406" lon="5.12118">
        <ele>362.5</ele>
        <time>2021-02-24T15:40:25Z</time>
      </trkpt>
      <trkpt lat="44.32408" lon="5.12117">
        <ele>362.7</ele>
        <time>2021-02-24T15:40:26Z</time>
      </trkpt>
      <trkpt lat="44.32408" lon="5.12117">
        <ele>362.7</ele>
        <time>2021-02-24T15:40:27Z</time>
      </trkpt>
      <trkpt lat="44.32412" lon="5.12116">
        <ele>362.8</ele>
        <time>2021-02-24T15:40:28Z</time>
      </trkpt>
      <trkpt lat="44.32412" lon="5.12116">
        <ele>362.8</ele>
        <time>2021-02-24T15:40:29Z</time>
      </trkpt>
      <trkpt lat="44.32415" lon="5.12117">
        <ele>363</ele>
        <time>2021-02-24T15:40:30Z</time>
      </trkpt>
      <trkpt lat="44.32419" lon="5.12117">
        <ele>363.2</ele>
        <time>2021-02-24T15:40:31Z</time>
      </trkpt>
      <trkpt lat="44.32423" lon="5.12117">
        <ele>363.4</ele>
        <time>2021-02-24T15:40:32Z</time>
      </trkpt>
      <trkpt lat="44.32426" lon="5.12118">
        <ele>363.5</ele>
        <time>2021-02-24T15:40:33Z</time>
      </trkpt>
      <trkpt lat="44.32428" lon="5.12119">
        <ele>363.6</ele>
        <time>2021-02-24T15:40:34Z</time>
      </trkpt>
      <trkpt lat="44.32431" lon="5.12119">
        <ele>363.7</ele>
        <time>2021-02-24T15:40:35Z</time>
      </trkpt>
      <trkpt lat="44.32435" lon="5.1212">
        <ele>363.8</ele>
        <time>2021-02-24T15:40:36Z</time>
      </trkpt>
      <trkpt lat="44.32438" lon="5.12121">
        <ele>363.9</ele>
        <time>2021-02-24T15:40:37Z</time>
      </trkpt>
      <trkpt lat="44.32441" lon="5.12121">
        <ele>364</ele>
        <time>2021-02-24T15:40:38Z</time>
      </trkpt>
      <trkpt lat="44.32445" lon="5.12122">
        <ele>364</ele>
        <time>2021-02-24T15:40:39Z</time>
      </trkpt>
      <trkpt lat="44.32448" lon="5.12123">
        <ele>364.1</ele>
        <time>2021-02-24T15:40:40Z</time>
      </trkpt>
      <trkpt lat="44.32451" lon="5.12124">
        <ele>364.2</ele>
        <time>2021-02-24T15:40:41Z</time>
      </trkpt>
      <trkpt lat="44.32455" lon="5.12125">
        <ele>364.2</ele>
        <time>2021-02-24T15:40:42Z</time>
      </trkpt>
      <trkpt lat="44.32458" lon="5.12125">
        <ele>364.3</ele>
        <time>2021-02-24T15:40:43Z</time>
      </trkpt>
      <trkpt lat="44.32461" lon="5.12126">
        <ele>364.3</ele>
        <time>2021-02-24T15:40:44Z</time>
      </trkpt>
      <trkpt lat="44.32465" lon="5.12127">
        <ele>364.4</ele>
        <time>2021-02-24T15:40:45Z</time>
      </trkpt>
      <trkpt lat="44.32468" lon="5.12128">
        <ele>364.4</ele>
        <time>2021-02-24T15:40:46Z</time>
      </trkpt>
      <trkpt lat="44.32471" lon="5.12128">
        <ele>364.5</ele>
        <time>2021-02-24T15:40:47Z</time>
      </trkpt>
      <trkpt lat="44.32474" lon="5.1213">
        <ele>364.6</ele>
        <time>2021-02-24T15:40:48Z</time>
      </trkpt>
      <trkpt lat="44.32477" lon="5.12131">
        <ele>364.7</ele>
        <time>2021-02-24T15:40:49Z</time>
      </trkpt>
      <trkpt lat="44.3248" lon="5.12132">
        <ele>364.7</ele>
        <time>2021-02-24T15:40:50Z</time>
      </trkpt>
      <trkpt lat="44.32483" lon="5.12133">
        <ele>364.8</ele>
        <time>2021-02-24T15:40:51Z</time>
      </trkpt>
      <trkpt lat="44.32486" lon="5.12134">
        <ele>364.9</ele>
        <time>2021-02-24T15:40:52Z</time>
      </trkpt>
      <trkpt lat="44.32489" lon="5.12135">
        <ele>365</ele>
        <time>2021-02-24T15:40:53Z</time>
      </trkpt>
      <trkpt lat="44.32492" lon="5.12136">
        <ele>365.1</ele>
        <time>2021-02-24T15:40:54Z</time>
      </trkpt>
      <trkpt lat="44.32495" lon="5.12137">
        <ele>365.2</ele>
        <time>2021-02-24T15:40:55Z</time>
      </trkpt>
      <trkpt lat="44.32498" lon="5.12138">
        <ele>365.3</ele>
        <time>2021-02-24T15:40:56Z</time>
      </trkpt>
      <trkpt lat="44.32501" lon="5.12139">
        <ele>365.4</ele>
        <time>2021-02-24T15:40:57Z</time>
      </trkpt>
      <trkpt lat="44.32504" lon="5.1214">
        <ele>365.6</ele>
        <time>2021-02-24T15:40:58Z</time>
      </trkpt>
      <trkpt lat="44.32507" lon="5.12141">
        <ele>365.7</ele>
        <time>2021-02-24T15:40:59Z</time>
      </trkpt>
      <trkpt lat="44.3251" lon="5.12143">
        <ele>365.8</ele>
        <time>2021-02-24T15:41:00Z</time>
      </trkpt>
      <trkpt lat="44.32513" lon="5.12144">
        <ele>365.9</ele>
        <time>2021-02-24T15:41:01Z</time>
      </trkpt>
      <trkpt lat="44.32516" lon="5.12145">
        <ele>366.1</ele>
        <time>2021-02-24T15:41:02Z</time>
      </trkpt>
      <trkpt lat="44.32519" lon="5.12147">
        <ele>366.2</ele>
        <time>2021-02-24T15:41:03Z</time>
      </trkpt>
      <trkpt lat="44.32522" lon="5.12148">
        <ele>366.3</ele>
        <time>2021-02-24T15:41:04Z</time>
      </trkpt>
      <trkpt lat="44.32525" lon="5.12149">
        <ele>366.4</ele>
        <time>2021-02-24T15:41:05Z</time>
      </trkpt>
      <trkpt lat="44.32527" lon="5.1215">
        <ele>366.6</ele>
        <time>2021-02-24T15:41:06Z</time>
      </trkpt>
      <trkpt lat="44.3253" lon="5.12151">
        <ele>366.7</ele>
        <time>2021-02-24T15:41:07Z</time>
      </trkpt>
      <trkpt lat="44.32533" lon="5.12152">
        <ele>366.9</ele>
        <time>2021-02-24T15:41:08Z</time>
      </trkpt>
      <trkpt lat="44.32536" lon="5.12153">
        <ele>367</ele>
        <time>2021-02-24T15:41:09Z</time>
      </trkpt>
      <trkpt lat="44.32539" lon="5.12154">
        <ele>367.2</ele>
        <time>2021-02-24T15:41:10Z</time>
      </trkpt>
      <trkpt lat="44.32542" lon="5.12155">
        <ele>367.3</ele>
        <time>2021-02-24T15:41:11Z</time>
      </trkpt>
      <trkpt lat="44.32545" lon="5.12156">
        <ele>367.5</ele>
        <time>2021-02-24T15:41:12Z</time>
      </trkpt>
      <trkpt lat="44.32548" lon="5.12157">
        <ele>367.6</ele>
        <time>2021-02-24T15:41:13Z</time>
      </trkpt>
      <trkpt lat="44.32551" lon="5.12158">
        <ele>367.8</ele>
        <time>2021-02-24T15:41:14Z</time>
      </trkpt>
      <trkpt lat="44.32554" lon="5.1216">
        <ele>368</ele>
        <time>2021-02-24T15:41:15Z</time>
      </trkpt>
      <trkpt lat="44.32557" lon="5.12161">
        <ele>368.1</ele>
        <time>2021-02-24T15:41:16Z</time>
      </trkpt>
      <trkpt lat="44.32559" lon="5.12162">
        <ele>368.3</ele>
        <time>2021-02-24T15:41:17Z</time>
      </trkpt>
      <trkpt lat="44.32562" lon="5.12163">
        <ele>368.5</ele>
        <time>2021-02-24T15:41:18Z</time>
      </trkpt>
      <trkpt lat="44.32565" lon="5.12164">
        <ele>368.7</ele>
        <time>2021-02-24T15:41:19Z</time>
      </trkpt>
      <trkpt lat="44.32568" lon="5.12165">
        <ele>368.9</ele>
        <time>2021-02-24T15:41:20Z</time>
      </trkpt>
      <trkpt lat="44.32571" lon="5.12166">
        <ele>369</ele>
        <time>2021-02-24T15:41:21Z</time>
      </trkpt>
      <trkpt lat="44.32573" lon="5.12167">
        <ele>369.2</ele>
        <time>2021-02-24T15:41:22Z</time>
      </trkpt>
      <trkpt lat="44.32576" lon="5.12168">
        <ele>369.4</ele>
        <time>2021-02-24T15:41:23Z</time>
      </trkpt>
      <trkpt lat="44.32579" lon="5.12169">
        <ele>369.5</ele>
        <time>2021-02-24T15:41:24Z</time>
      </trkpt>
      <trkpt lat="44.32582" lon="5.1217">
        <ele>369.7</ele>
        <time>2021-02-24T15:41:25Z</time>
      </trkpt>
      <trkpt lat="44.32585" lon="5.12171">
        <ele>369.9</ele>
        <time>2021-02-24T15:41:26Z</time>
      </trkpt>
      <trkpt lat="44.32588" lon="5.12171">
        <ele>370.1</ele>
        <time>2021-02-24T15:41:27Z</time>
      </trkpt>
      <trkpt lat="44.32591" lon="5.12171">
        <ele>370.2</ele>
        <time>2021-02-24T15:41:28Z</time>
      </trkpt>
      <trkpt lat="44.32593" lon="5.12171">
        <ele>370.3</ele>
        <time>2021-02-24T15:41:29Z</time>
      </trkpt>
      <trkpt lat="44.32595" lon="5.12171">
        <ele>370.4</ele>
        <time>2021-02-24T15:41:30Z</time>
      </trkpt>
      <trkpt lat="44.32598" lon="5.1217">
        <ele>370.5</ele>
        <time>2021-02-24T15:41:31Z</time>
      </trkpt>
      <trkpt lat="44.326" lon="5.1217">
        <ele>370.6</ele>
        <time>2021-02-24T15:41:32Z</time>
      </trkpt>
      <trkpt lat="44.326" lon="5.1217">
        <ele>370.6</ele>
        <time>2021-02-24T15:41:33Z</time>
      </trkpt>
      <trkpt lat="44.32604" lon="5.12169">
        <ele>370.8</ele>
        <time>2021-02-24T15:41:34Z</time>
      </trkpt>
      <trkpt lat="44.32606" lon="5.1217">
        <ele>370.9</ele>
        <time>2021-02-24T15:41:35Z</time>
      </trkpt>
      <trkpt lat="44.3261" lon="5.1217">
        <ele>371</ele>
        <time>2021-02-24T15:41:36Z</time>
      </trkpt>
      <trkpt lat="44.32614" lon="5.12169">
        <ele>371.1</ele>
        <time>2021-02-24T15:41:37Z</time>
      </trkpt>
      <trkpt lat="44.32617" lon="5.12169">
        <ele>371.2</ele>
        <time>2021-02-24T15:41:38Z</time>
      </trkpt>
      <trkpt lat="44.3262" lon="5.12169">
        <ele>371.3</ele>
        <time>2021-02-24T15:41:39Z</time>
      </trkpt>
      <trkpt lat="44.32623" lon="5.12168">
        <ele>371.4</ele>
        <time>2021-02-24T15:41:40Z</time>
      </trkpt>
      <trkpt lat="44.32626" lon="5.12167">
        <ele>371.5</ele>
        <time>2021-02-24T15:41:41Z</time>
      </trkpt>
      <trkpt lat="44.32628" lon="5.12166">
        <ele>371.6</ele>
        <time>2021-02-24T15:41:42Z</time>
      </trkpt>
      <trkpt lat="44.32628" lon="5.12166">
        <ele>371.6</ele>
        <time>2021-02-24T15:41:43Z</time>
      </trkpt>
      <trkpt lat="44.32631" lon="5.12166">
        <ele>371.6</ele>
        <time>2021-02-24T15:41:44Z</time>
      </trkpt>
      <trkpt lat="44.32633" lon="5.12166">
        <ele>371.7</ele>
        <time>2021-02-24T15:41:45Z</time>
      </trkpt>
      <trkpt lat="44.32633" lon="5.12166">
        <ele>371.7</ele>
        <time>2021-02-24T15:41:46Z</time>
      </trkpt>
      <trkpt lat="44.32635" lon="5.12167">
        <ele>371.8</ele>
        <time>2021-02-24T15:41:47Z</time>
      </trkpt>
      <trkpt lat="44.32637" lon="5.12168">
        <ele>371.8</ele>
        <time>2021-02-24T15:41:48Z</time>
      </trkpt>
      <trkpt lat="44.32639" lon="5.12169">
        <ele>371.9</ele>
        <time>2021-02-24T15:41:49Z</time>
      </trkpt>
      <trkpt lat="44.32642" lon="5.1217">
        <ele>371.9</ele>
        <time>2021-02-24T15:41:50Z</time>
      </trkpt>
      <trkpt lat="44.32644" lon="5.12171">
        <ele>372</ele>
        <time>2021-02-24T15:41:51Z</time>
      </trkpt>
      <trkpt lat="44.3265" lon="5.12174">
        <ele>372.1</ele>
        <time>2021-02-24T15:41:52Z</time>
      </trkpt>
      <trkpt lat="44.32656" lon="5.12177">
        <ele>372.1</ele>
        <time>2021-02-24T15:41:53Z</time>
      </trkpt>
      <trkpt lat="44.32661" lon="5.1218">
        <ele>371.9</ele>
        <time>2021-02-24T15:41:54Z</time>
      </trkpt>
      <trkpt lat="44.32668" lon="5.12184">
        <ele>371.7</ele>
        <time>2021-02-24T15:41:55Z</time>
      </trkpt>
      <trkpt lat="44.32668" lon="5.12184">
        <ele>371.7</ele>
        <time>2021-02-24T15:41:56Z</time>
      </trkpt>
      <trkpt lat="44.32673" lon="5.12185">
        <ele>371.5</ele>
        <time>2021-02-24T15:41:57Z</time>
      </trkpt>
      <trkpt lat="44.32679" lon="5.12187">
        <ele>371.2</ele>
        <time>2021-02-24T15:41:58Z</time>
      </trkpt>
      <trkpt lat="44.32685" lon="5.12188">
        <ele>370.9</ele>
        <time>2021-02-24T15:41:59Z</time>
      </trkpt>
      <trkpt lat="44.32689" lon="5.12188">
        <ele>370.6</ele>
        <time>2021-02-24T15:42:00Z</time>
      </trkpt>
      <trkpt lat="44.32689" lon="5.12188">
        <ele>370.6</ele>
        <time>2021-02-24T15:42:01Z</time>
      </trkpt>
      <trkpt lat="44.32706" lon="5.12184">
        <ele>369.7</ele>
        <time>2021-02-24T15:42:02Z</time>
      </trkpt>
      <trkpt lat="44.3271" lon="5.12182">
        <ele>369.6</ele>
        <time>2021-02-24T15:42:03Z</time>
      </trkpt>
      <trkpt lat="44.32721" lon="5.12178">
        <ele>369.2</ele>
        <time>2021-02-24T15:42:04Z</time>
      </trkpt>
      <trkpt lat="44.32725" lon="5.12177">
        <ele>369</ele>
        <time>2021-02-24T15:42:05Z</time>
      </trkpt>
      <trkpt lat="44.32737" lon="5.12172">
        <ele>368.7</ele>
        <time>2021-02-24T15:42:06Z</time>
      </trkpt>
      <trkpt lat="44.3274" lon="5.12171">
        <ele>368.5</ele>
        <time>2021-02-24T15:42:07Z</time>
      </trkpt>
      <trkpt lat="44.3275" lon="5.12167">
        <ele>368.2</ele>
        <time>2021-02-24T15:42:08Z</time>
      </trkpt>
      <trkpt lat="44.32753" lon="5.12165">
        <ele>368.1</ele>
        <time>2021-02-24T15:42:09Z</time>
      </trkpt>
      <trkpt lat="44.32759" lon="5.12162">
        <ele>367.8</ele>
        <time>2021-02-24T15:42:10Z</time>
      </trkpt>
      <trkpt lat="44.32766" lon="5.12158">
        <ele>367.6</ele>
        <time>2021-02-24T15:42:11Z</time>
      </trkpt>
      <trkpt lat="44.32772" lon="5.12154">
        <ele>367.5</ele>
        <time>2021-02-24T15:42:12Z</time>
      </trkpt>
      <trkpt lat="44.32778" lon="5.1215">
        <ele>367.3</ele>
        <time>2021-02-24T15:42:13Z</time>
      </trkpt>
      <trkpt lat="44.32784" lon="5.12146">
        <ele>367.2</ele>
        <time>2021-02-24T15:42:14Z</time>
      </trkpt>
      <trkpt lat="44.3279" lon="5.12142">
        <ele>367.2</ele>
        <time>2021-02-24T15:42:15Z</time>
      </trkpt>
      <trkpt lat="44.32795" lon="5.12138">
        <ele>367.1</ele>
        <time>2021-02-24T15:42:16Z</time>
      </trkpt>
      <trkpt lat="44.328" lon="5.12134">
        <ele>367.1</ele>
        <time>2021-02-24T15:42:17Z</time>
      </trkpt>
      <trkpt lat="44.32805" lon="5.12129">
        <ele>367.1</ele>
        <time>2021-02-24T15:42:18Z</time>
      </trkpt>
      <trkpt lat="44.3281" lon="5.12123">
        <ele>367.1</ele>
        <time>2021-02-24T15:42:19Z</time>
      </trkpt>
      <trkpt lat="44.32814" lon="5.12117">
        <ele>367.1</ele>
        <time>2021-02-24T15:42:20Z</time>
      </trkpt>
      <trkpt lat="44.32817" lon="5.12111">
        <ele>367.1</ele>
        <time>2021-02-24T15:42:21Z</time>
      </trkpt>
      <trkpt lat="44.32819" lon="5.12105">
        <ele>367.1</ele>
        <time>2021-02-24T15:42:22Z</time>
      </trkpt>
      <trkpt lat="44.32821" lon="5.12097">
        <ele>367.1</ele>
        <time>2021-02-24T15:42:23Z</time>
      </trkpt>
      <trkpt lat="44.32822" lon="5.1209">
        <ele>367</ele>
        <time>2021-02-24T15:42:24Z</time>
      </trkpt>
      <trkpt lat="44.32824" lon="5.12084">
        <ele>367</ele>
        <time>2021-02-24T15:42:25Z</time>
      </trkpt>
      <trkpt lat="44.32826" lon="5.12078">
        <ele>367</ele>
        <time>2021-02-24T15:42:26Z</time>
      </trkpt>
      <trkpt lat="44.32828" lon="5.12072">
        <ele>366.9</ele>
        <time>2021-02-24T15:42:27Z</time>
      </trkpt>
      <trkpt lat="44.32829" lon="5.12065">
        <ele>366.8</ele>
        <time>2021-02-24T15:42:28Z</time>
      </trkpt>
      <trkpt lat="44.32832" lon="5.12058">
        <ele>366.7</ele>
        <time>2021-02-24T15:42:29Z</time>
      </trkpt>
      <trkpt lat="44.32836" lon="5.12053">
        <ele>366.5</ele>
        <time>2021-02-24T15:42:30Z</time>
      </trkpt>
      <trkpt lat="44.3284" lon="5.12049">
        <ele>366.4</ele>
        <time>2021-02-24T15:42:31Z</time>
      </trkpt>
      <trkpt lat="44.32845" lon="5.12047">
        <ele>366.1</ele>
        <time>2021-02-24T15:42:32Z</time>
      </trkpt>
      <trkpt lat="44.32851" lon="5.12047">
        <ele>365.8</ele>
        <time>2021-02-24T15:42:33Z</time>
      </trkpt>
      <trkpt lat="44.32857" lon="5.12048">
        <ele>365.4</ele>
        <time>2021-02-24T15:42:34Z</time>
      </trkpt>
      <trkpt lat="44.32864" lon="5.12049">
        <ele>365</ele>
        <time>2021-02-24T15:42:35Z</time>
      </trkpt>
      <trkpt lat="44.3287" lon="5.1205">
        <ele>364.6</ele>
        <time>2021-02-24T15:42:36Z</time>
      </trkpt>
      <trkpt lat="44.32878" lon="5.12048">
        <ele>364.2</ele>
        <time>2021-02-24T15:42:37Z</time>
      </trkpt>
      <trkpt lat="44.32886" lon="5.12045">
        <ele>363.7</ele>
        <time>2021-02-24T15:42:38Z</time>
      </trkpt>
      <trkpt lat="44.32893" lon="5.12041">
        <ele>363.3</ele>
        <time>2021-02-24T15:42:39Z</time>
      </trkpt>
      <trkpt lat="44.329" lon="5.12036">
        <ele>362.7</ele>
        <time>2021-02-24T15:42:40Z</time>
      </trkpt>
      <trkpt lat="44.32907" lon="5.12031">
        <ele>362.2</ele>
        <time>2021-02-24T15:42:41Z</time>
      </trkpt>
      <trkpt lat="44.32914" lon="5.12025">
        <ele>361.6</ele>
        <time>2021-02-24T15:42:42Z</time>
      </trkpt>
      <trkpt lat="44.32921" lon="5.12017">
        <ele>361</ele>
        <time>2021-02-24T15:42:43Z</time>
      </trkpt>
      <trkpt lat="44.32927" lon="5.12009">
        <ele>360.4</ele>
        <time>2021-02-24T15:42:44Z</time>
      </trkpt>
      <trkpt lat="44.32932" lon="5.12">
        <ele>359.8</ele>
        <time>2021-02-24T15:42:45Z</time>
      </trkpt>
      <trkpt lat="44.32939" lon="5.11992">
        <ele>359.1</ele>
        <time>2021-02-24T15:42:46Z</time>
      </trkpt>
      <trkpt lat="44.32947" lon="5.11985">
        <ele>358.4</ele>
        <time>2021-02-24T15:42:47Z</time>
      </trkpt>
      <trkpt lat="44.32957" lon="5.1198">
        <ele>357.5</ele>
        <time>2021-02-24T15:42:48Z</time>
      </trkpt>
      <trkpt lat="44.32966" lon="5.11977">
        <ele>356.6</ele>
        <time>2021-02-24T15:42:49Z</time>
      </trkpt>
      <trkpt lat="44.32975" lon="5.11973">
        <ele>355.9</ele>
        <time>2021-02-24T15:42:50Z</time>
      </trkpt>
      <trkpt lat="44.32982" lon="5.11967">
        <ele>355.1</ele>
        <time>2021-02-24T15:42:51Z</time>
      </trkpt>
      <trkpt lat="44.32988" lon="5.11958">
        <ele>354.4</ele>
        <time>2021-02-24T15:42:52Z</time>
      </trkpt>
      <trkpt lat="44.32993" lon="5.11946">
        <ele>353.7</ele>
        <time>2021-02-24T15:42:53Z</time>
      </trkpt>
      <trkpt lat="44.32997" lon="5.11933">
        <ele>353.1</ele>
        <time>2021-02-24T15:42:54Z</time>
      </trkpt>
      <trkpt lat="44.33" lon="5.1192">
        <ele>352.5</ele>
        <time>2021-02-24T15:42:55Z</time>
      </trkpt>
      <trkpt lat="44.33004" lon="5.11909">
        <ele>352</ele>
        <time>2021-02-24T15:42:56Z</time>
      </trkpt>
      <trkpt lat="44.33008" lon="5.11898">
        <ele>351.6</ele>
        <time>2021-02-24T15:42:57Z</time>
      </trkpt>
      <trkpt lat="44.33013" lon="5.11888">
        <ele>351.2</ele>
        <time>2021-02-24T15:42:58Z</time>
      </trkpt>
      <trkpt lat="44.3302" lon="5.11881">
        <ele>350.9</ele>
        <time>2021-02-24T15:42:59Z</time>
      </trkpt>
      <trkpt lat="44.33029" lon="5.11875">
        <ele>350.7</ele>
        <time>2021-02-24T15:43:00Z</time>
      </trkpt>
      <trkpt lat="44.33038" lon="5.11873">
        <ele>350.5</ele>
        <time>2021-02-24T15:43:01Z</time>
      </trkpt>
      <trkpt lat="44.33046" lon="5.11872">
        <ele>350.3</ele>
        <time>2021-02-24T15:43:02Z</time>
      </trkpt>
      <trkpt lat="44.33055" lon="5.11873">
        <ele>350.2</ele>
        <time>2021-02-24T15:43:03Z</time>
      </trkpt>
      <trkpt lat="44.33063" lon="5.11874">
        <ele>350.1</ele>
        <time>2021-02-24T15:43:04Z</time>
      </trkpt>
      <trkpt lat="44.33071" lon="5.11875">
        <ele>350.1</ele>
        <time>2021-02-24T15:43:05Z</time>
      </trkpt>
      <trkpt lat="44.33078" lon="5.11877">
        <ele>350.1</ele>
        <time>2021-02-24T15:43:06Z</time>
      </trkpt>
      <trkpt lat="44.33086" lon="5.11878">
        <ele>350</ele>
        <time>2021-02-24T15:43:07Z</time>
      </trkpt>
      <trkpt lat="44.33093" lon="5.1188">
        <ele>350</ele>
        <time>2021-02-24T15:43:08Z</time>
      </trkpt>
      <trkpt lat="44.33101" lon="5.11882">
        <ele>349.8</ele>
        <time>2021-02-24T15:43:09Z</time>
      </trkpt>
      <trkpt lat="44.33108" lon="5.11884">
        <ele>349.7</ele>
        <time>2021-02-24T15:43:10Z</time>
      </trkpt>
      <trkpt lat="44.33116" lon="5.11886">
        <ele>349.5</ele>
        <time>2021-02-24T15:43:11Z</time>
      </trkpt>
      <trkpt lat="44.33124" lon="5.11888">
        <ele>349.4</ele>
        <time>2021-02-24T15:43:12Z</time>
      </trkpt>
      <trkpt lat="44.33131" lon="5.11889">
        <ele>349.2</ele>
        <time>2021-02-24T15:43:13Z</time>
      </trkpt>
      <trkpt lat="44.33138" lon="5.11891">
        <ele>349</ele>
        <time>2021-02-24T15:43:14Z</time>
      </trkpt>
      <trkpt lat="44.33146" lon="5.11892">
        <ele>348.9</ele>
        <time>2021-02-24T15:43:15Z</time>
      </trkpt>
      <trkpt lat="44.33153" lon="5.11893">
        <ele>348.7</ele>
        <time>2021-02-24T15:43:16Z</time>
      </trkpt>
      <trkpt lat="44.3316" lon="5.11893">
        <ele>348.5</ele>
        <time>2021-02-24T15:43:17Z</time>
      </trkpt>
      <trkpt lat="44.33167" lon="5.11894">
        <ele>348.3</ele>
        <time>2021-02-24T15:43:18Z</time>
      </trkpt>
      <trkpt lat="44.33174" lon="5.11893">
        <ele>348.2</ele>
        <time>2021-02-24T15:43:19Z</time>
      </trkpt>
      <trkpt lat="44.3318" lon="5.11893">
        <ele>348.1</ele>
        <time>2021-02-24T15:43:20Z</time>
      </trkpt>
      <trkpt lat="44.33186" lon="5.11893">
        <ele>348.1</ele>
        <time>2021-02-24T15:43:21Z</time>
      </trkpt>
      <trkpt lat="44.33191" lon="5.11894">
        <ele>348.1</ele>
        <time>2021-02-24T15:43:22Z</time>
      </trkpt>
      <trkpt lat="44.33196" lon="5.11897">
        <ele>348.7</ele>
        <time>2021-02-24T15:43:23Z</time>
      </trkpt>
      <trkpt lat="44.332" lon="5.11902">
        <ele>348.9</ele>
        <time>2021-02-24T15:43:24Z</time>
      </trkpt>
      <trkpt lat="44.332" lon="5.11907">
        <ele>349.1</ele>
        <time>2021-02-24T15:43:25Z</time>
      </trkpt>
      <trkpt lat="44.332" lon="5.11911">
        <ele>349.3</ele>
        <time>2021-02-24T15:43:26Z</time>
      </trkpt>
      <trkpt lat="44.332" lon="5.11916">
        <ele>349.5</ele>
        <time>2021-02-24T15:43:27Z</time>
      </trkpt>
      <trkpt lat="44.332" lon="5.1192">
        <ele>349.7</ele>
        <time>2021-02-24T15:43:28Z</time>
      </trkpt>
      <trkpt lat="44.33201" lon="5.11925">
        <ele>349.9</ele>
        <time>2021-02-24T15:43:29Z</time>
      </trkpt>
      <trkpt lat="44.33201" lon="5.11929">
        <ele>350</ele>
        <time>2021-02-24T15:43:30Z</time>
      </trkpt>
      <trkpt lat="44.33202" lon="5.11933">
        <ele>350.1</ele>
        <time>2021-02-24T15:43:31Z</time>
      </trkpt>
      <trkpt lat="44.33202" lon="5.11936">
        <ele>350.3</ele>
        <time>2021-02-24T15:43:32Z</time>
      </trkpt>
      <trkpt lat="44.33202" lon="5.1194">
        <ele>350.4</ele>
        <time>2021-02-24T15:43:33Z</time>
      </trkpt>
      <trkpt lat="44.33202" lon="5.11943">
        <ele>350.4</ele>
        <time>2021-02-24T15:43:34Z</time>
      </trkpt>
      <trkpt lat="44.33202" lon="5.11946">
        <ele>350.4</ele>
        <time>2021-02-24T15:43:35Z</time>
      </trkpt>
      <trkpt lat="44.33202" lon="5.1195">
        <ele>350.4</ele>
        <time>2021-02-24T15:43:36Z</time>
      </trkpt>
      <trkpt lat="44.33203" lon="5.11953">
        <ele>350.4</ele>
        <time>2021-02-24T15:43:37Z</time>
      </trkpt>
      <trkpt lat="44.33204" lon="5.11957">
        <ele>350.3</ele>
        <time>2021-02-24T15:43:38Z</time>
      </trkpt>
      <trkpt lat="44.33205" lon="5.11961">
        <ele>350.3</ele>
        <time>2021-02-24T15:43:39Z</time>
      </trkpt>
      <trkpt lat="44.33207" lon="5.11965">
        <ele>350.2</ele>
        <time>2021-02-24T15:43:40Z</time>
      </trkpt>
      <trkpt lat="44.33207" lon="5.11965">
        <ele>350.2</ele>
        <time>2021-02-24T15:43:41Z</time>
      </trkpt>
      <trkpt lat="44.33215" lon="5.11971">
        <ele>350</ele>
        <time>2021-02-24T15:43:42Z</time>
      </trkpt>
      <trkpt lat="44.33215" lon="5.11971">
        <ele>350</ele>
        <time>2021-02-24T15:43:43Z</time>
      </trkpt>
      <trkpt lat="44.33231" lon="5.11969">
        <ele>350</ele>
        <time>2021-02-24T15:43:44Z</time>
      </trkpt>
      <trkpt lat="44.33234" lon="5.11967">
        <ele>350</ele>
        <time>2021-02-24T15:43:45Z</time>
      </trkpt>
      <trkpt lat="44.33241" lon="5.11964">
        <ele>350.3</ele>
        <time>2021-02-24T15:43:46Z</time>
      </trkpt>
      <trkpt lat="44.33244" lon="5.11963">
        <ele>350.3</ele>
        <time>2021-02-24T15:43:47Z</time>
      </trkpt>
      <trkpt lat="44.3325" lon="5.11961">
        <ele>350.5</ele>
        <time>2021-02-24T15:43:48Z</time>
      </trkpt>
      <trkpt lat="44.33252" lon="5.1196">
        <ele>350.6</ele>
        <time>2021-02-24T15:43:49Z</time>
      </trkpt>
      <trkpt lat="44.33255" lon="5.11959">
        <ele>350.7</ele>
        <time>2021-02-24T15:43:50Z</time>
      </trkpt>
      <trkpt lat="44.33259" lon="5.11959">
        <ele>350.7</ele>
        <time>2021-02-24T15:43:51Z</time>
      </trkpt>
      <trkpt lat="44.33263" lon="5.11958">
        <ele>350.7</ele>
        <time>2021-02-24T15:43:52Z</time>
      </trkpt>
      <trkpt lat="44.33267" lon="5.11957">
        <ele>350.7</ele>
        <time>2021-02-24T15:43:53Z</time>
      </trkpt>
      <trkpt lat="44.3327" lon="5.11956">
        <ele>350.7</ele>
        <time>2021-02-24T15:43:54Z</time>
      </trkpt>
      <trkpt lat="44.33273" lon="5.11955">
        <ele>350.6</ele>
        <time>2021-02-24T15:43:55Z</time>
      </trkpt>
      <trkpt lat="44.33276" lon="5.11954">
        <ele>350.5</ele>
        <time>2021-02-24T15:43:56Z</time>
      </trkpt>
      <trkpt lat="44.3328" lon="5.11953">
        <ele>350.3</ele>
        <time>2021-02-24T15:43:57Z</time>
      </trkpt>
      <trkpt lat="44.33283" lon="5.11951">
        <ele>350.1</ele>
        <time>2021-02-24T15:43:58Z</time>
      </trkpt>
      <trkpt lat="44.33287" lon="5.1195">
        <ele>349.8</ele>
        <time>2021-02-24T15:43:59Z</time>
      </trkpt>
      <trkpt lat="44.33291" lon="5.1195">
        <ele>349.5</ele>
        <time>2021-02-24T15:44:00Z</time>
      </trkpt>
      <trkpt lat="44.33294" lon="5.1195">
        <ele>349.3</ele>
        <time>2021-02-24T15:44:01Z</time>
      </trkpt>
      <trkpt lat="44.33298" lon="5.11953">
        <ele>348.9</ele>
        <time>2021-02-24T15:44:02Z</time>
      </trkpt>
      <trkpt lat="44.33304" lon="5.1196">
        <ele>348.1</ele>
        <time>2021-02-24T15:44:03Z</time>
      </trkpt>
      <trkpt lat="44.3331" lon="5.11968">
        <ele>347.2</ele>
        <time>2021-02-24T15:44:04Z</time>
      </trkpt>
      <trkpt lat="44.33315" lon="5.11978">
        <ele>346.4</ele>
        <time>2021-02-24T15:44:05Z</time>
      </trkpt>
      <trkpt lat="44.3332" lon="5.1199">
        <ele>345.7</ele>
        <time>2021-02-24T15:44:06Z</time>
      </trkpt>
      <trkpt lat="44.33324" lon="5.12002">
        <ele>345.2</ele>
        <time>2021-02-24T15:44:07Z</time>
      </trkpt>
      <trkpt lat="44.33329" lon="5.12014">
        <ele>344.9</ele>
        <time>2021-02-24T15:44:08Z</time>
      </trkpt>
      <trkpt lat="44.33335" lon="5.12026">
        <ele>344.8</ele>
        <time>2021-02-24T15:44:09Z</time>
      </trkpt>
      <trkpt lat="44.33341" lon="5.12035">
        <ele>344.9</ele>
        <time>2021-02-24T15:44:10Z</time>
      </trkpt>
      <trkpt lat="44.33347" lon="5.12044">
        <ele>345</ele>
        <time>2021-02-24T15:44:11Z</time>
      </trkpt>
      <trkpt lat="44.33352" lon="5.12052">
        <ele>345.1</ele>
        <time>2021-02-24T15:44:12Z</time>
      </trkpt>
      <trkpt lat="44.33357" lon="5.1206">
        <ele>344.9</ele>
        <time>2021-02-24T15:44:13Z</time>
      </trkpt>
      <trkpt lat="44.33363" lon="5.12067">
        <ele>344.7</ele>
        <time>2021-02-24T15:44:14Z</time>
      </trkpt>
      <trkpt lat="44.33368" lon="5.12074">
        <ele>344.6</ele>
        <time>2021-02-24T15:44:15Z</time>
      </trkpt>
      <trkpt lat="44.33374" lon="5.12081">
        <ele>344.5</ele>
        <time>2021-02-24T15:44:16Z</time>
      </trkpt>
      <trkpt lat="44.33381" lon="5.12088">
        <ele>344.4</ele>
        <time>2021-02-24T15:44:17Z</time>
      </trkpt>
      <trkpt lat="44.33387" lon="5.12094">
        <ele>344.3</ele>
        <time>2021-02-24T15:44:18Z</time>
      </trkpt>
      <trkpt lat="44.33393" lon="5.12099">
        <ele>344.3</ele>
        <time>2021-02-24T15:44:19Z</time>
      </trkpt>
      <trkpt lat="44.33398" lon="5.12104">
        <ele>344.3</ele>
        <time>2021-02-24T15:44:20Z</time>
      </trkpt>
      <trkpt lat="44.33404" lon="5.12109">
        <ele>344.3</ele>
        <time>2021-02-24T15:44:21Z</time>
      </trkpt>
      <trkpt lat="44.33408" lon="5.12113">
        <ele>344.2</ele>
        <time>2021-02-24T15:44:22Z</time>
      </trkpt>
      <trkpt lat="44.33413" lon="5.12118">
        <ele>344.2</ele>
        <time>2021-02-24T15:44:23Z</time>
      </trkpt>
      <trkpt lat="44.33419" lon="5.12122">
        <ele>344.2</ele>
        <time>2021-02-24T15:44:24Z</time>
      </trkpt>
      <trkpt lat="44.33424" lon="5.12126">
        <ele>344.1</ele>
        <time>2021-02-24T15:44:25Z</time>
      </trkpt>
      <trkpt lat="44.33429" lon="5.12129">
        <ele>344.1</ele>
        <time>2021-02-24T15:44:26Z</time>
      </trkpt>
      <trkpt lat="44.33435" lon="5.12133">
        <ele>344</ele>
        <time>2021-02-24T15:44:27Z</time>
      </trkpt>
      <trkpt lat="44.3344" lon="5.12138">
        <ele>343.9</ele>
        <time>2021-02-24T15:44:28Z</time>
      </trkpt>
      <trkpt lat="44.33444" lon="5.12142">
        <ele>343.8</ele>
        <time>2021-02-24T15:44:29Z</time>
      </trkpt>
      <trkpt lat="44.33448" lon="5.12146">
        <ele>343.6</ele>
        <time>2021-02-24T15:44:30Z</time>
      </trkpt>
      <trkpt lat="44.33452" lon="5.1215">
        <ele>343.5</ele>
        <time>2021-02-24T15:44:31Z</time>
      </trkpt>
      <trkpt lat="44.33452" lon="5.1215">
        <ele>343.5</ele>
        <time>2021-02-24T15:44:32Z</time>
      </trkpt>
      <trkpt lat="44.33454" lon="5.1216">
        <ele>343.3</ele>
        <time>2021-02-24T15:44:33Z</time>
      </trkpt>
      <trkpt lat="44.33456" lon="5.1217">
        <ele>343</ele>
        <time>2021-02-24T15:44:34Z</time>
      </trkpt>
      <trkpt lat="44.33458" lon="5.12179">
        <ele>342.8</ele>
        <time>2021-02-24T15:44:35Z</time>
      </trkpt>
      <trkpt lat="44.3346" lon="5.12192">
        <ele>342.6</ele>
        <time>2021-02-24T15:44:36Z</time>
      </trkpt>
      <trkpt lat="44.33462" lon="5.12195">
        <ele>342.6</ele>
        <time>2021-02-24T15:44:37Z</time>
      </trkpt>
      <trkpt lat="44.33464" lon="5.12202">
        <ele>342.6</ele>
        <time>2021-02-24T15:44:38Z</time>
      </trkpt>
      <trkpt lat="44.33464" lon="5.12202">
        <ele>342.6</ele>
        <time>2021-02-24T15:44:39Z</time>
      </trkpt>
      <trkpt lat="44.33467" lon="5.12203">
        <ele>342.7</ele>
        <time>2021-02-24T15:44:40Z</time>
      </trkpt>
      <trkpt lat="44.33469" lon="5.12204">
        <ele>342.7</ele>
        <time>2021-02-24T15:44:41Z</time>
      </trkpt>
      <trkpt lat="44.33472" lon="5.12205">
        <ele>342.7</ele>
        <time>2021-02-24T15:44:42Z</time>
      </trkpt>
      <trkpt lat="44.33474" lon="5.12206">
        <ele>342.8</ele>
        <time>2021-02-24T15:44:43Z</time>
      </trkpt>
      <trkpt lat="44.33475" lon="5.12203">
        <ele>342.8</ele>
        <time>2021-02-24T15:44:44Z</time>
      </trkpt>
      <trkpt lat="44.33476" lon="5.122">
        <ele>342.8</ele>
        <time>2021-02-24T15:44:45Z</time>
      </trkpt>
      <trkpt lat="44.33477" lon="5.12196">
        <ele>342.9</ele>
        <time>2021-02-24T15:44:46Z</time>
      </trkpt>
      <trkpt lat="44.33478" lon="5.12193">
        <ele>342.9</ele>
        <time>2021-02-24T15:44:47Z</time>
      </trkpt>
      <trkpt lat="44.33478" lon="5.12189">
        <ele>343</ele>
        <time>2021-02-24T15:44:48Z</time>
      </trkpt>
      <trkpt lat="44.33478" lon="5.12185">
        <ele>343.2</ele>
        <time>2021-02-24T15:44:49Z</time>
      </trkpt>
      <trkpt lat="44.33479" lon="5.1218">
        <ele>343.3</ele>
        <time>2021-02-24T15:44:50Z</time>
      </trkpt>
      <trkpt lat="44.3348" lon="5.12167">
        <ele>343.8</ele>
        <time>2021-02-24T15:44:51Z</time>
      </trkpt>
      <trkpt lat="44.3348" lon="5.12167">
        <ele>343.8</ele>
        <time>2021-02-24T15:44:52Z</time>
      </trkpt>
      <trkpt lat="44.33484" lon="5.12155">
        <ele>344.3</ele>
        <time>2021-02-24T15:44:53Z</time>
      </trkpt>
      <trkpt lat="44.33484" lon="5.12155">
        <ele>344.3</ele>
        <time>2021-02-24T15:44:54Z</time>
      </trkpt>
      <trkpt lat="44.33484" lon="5.12147">
        <ele>344.6</ele>
        <time>2021-02-24T15:44:55Z</time>
      </trkpt>
      <trkpt lat="44.33485" lon="5.12138">
        <ele>344.7</ele>
        <time>2021-02-24T15:44:56Z</time>
      </trkpt>
      <trkpt lat="44.33485" lon="5.1213">
        <ele>344.7</ele>
        <time>2021-02-24T15:44:57Z</time>
      </trkpt>
      <trkpt lat="44.33487" lon="5.12119">
        <ele>344.6</ele>
        <time>2021-02-24T15:44:58Z</time>
      </trkpt>
      <trkpt lat="44.33488" lon="5.12116">
        <ele>344.6</ele>
        <time>2021-02-24T15:44:59Z</time>
      </trkpt>
      <trkpt lat="44.33494" lon="5.12108">
        <ele>344.5</ele>
        <time>2021-02-24T15:45:00Z</time>
      </trkpt>
      <trkpt lat="44.33496" lon="5.12108">
        <ele>344.5</ele>
        <time>2021-02-24T15:45:01Z</time>
      </trkpt>
      <trkpt lat="44.33504" lon="5.12106">
        <ele>344.4</ele>
        <time>2021-02-24T15:45:02Z</time>
      </trkpt>
      <trkpt lat="44.33507" lon="5.12105">
        <ele>344.4</ele>
        <time>2021-02-24T15:45:03Z</time>
      </trkpt>
      <trkpt lat="44.33512" lon="5.12105">
        <ele>344.5</ele>
        <time>2021-02-24T15:45:04Z</time>
      </trkpt>
      <trkpt lat="44.33516" lon="5.12105">
        <ele>344.5</ele>
        <time>2021-02-24T15:45:05Z</time>
      </trkpt>
      <trkpt lat="44.33521" lon="5.12104">
        <ele>344.6</ele>
        <time>2021-02-24T15:45:06Z</time>
      </trkpt>
      <trkpt lat="44.33525" lon="5.12105">
        <ele>344.7</ele>
        <time>2021-02-24T15:45:07Z</time>
      </trkpt>
      <trkpt lat="44.33529" lon="5.12105">
        <ele>344.7</ele>
        <time>2021-02-24T15:45:08Z</time>
      </trkpt>
      <trkpt lat="44.33533" lon="5.12105">
        <ele>344.8</ele>
        <time>2021-02-24T15:45:09Z</time>
      </trkpt>
      <trkpt lat="44.33537" lon="5.12106">
        <ele>344.9</ele>
        <time>2021-02-24T15:45:10Z</time>
      </trkpt>
      <trkpt lat="44.33541" lon="5.12106">
        <ele>345</ele>
        <time>2021-02-24T15:45:11Z</time>
      </trkpt>
      <trkpt lat="44.33546" lon="5.12106">
        <ele>345.1</ele>
        <time>2021-02-24T15:45:12Z</time>
      </trkpt>
      <trkpt lat="44.33549" lon="5.12106">
        <ele>345.2</ele>
        <time>2021-02-24T15:45:13Z</time>
      </trkpt>
      <trkpt lat="44.33553" lon="5.12106">
        <ele>345.2</ele>
        <time>2021-02-24T15:45:14Z</time>
      </trkpt>
      <trkpt lat="44.33557" lon="5.12106">
        <ele>345.3</ele>
        <time>2021-02-24T15:45:15Z</time>
      </trkpt>
      <trkpt lat="44.33562" lon="5.12106">
        <ele>345.3</ele>
        <time>2021-02-24T15:45:16Z</time>
      </trkpt>
      <trkpt lat="44.33566" lon="5.12106">
        <ele>345.3</ele>
        <time>2021-02-24T15:45:17Z</time>
      </trkpt>
      <trkpt lat="44.33571" lon="5.12106">
        <ele>345.3</ele>
        <time>2021-02-24T15:45:18Z</time>
      </trkpt>
      <trkpt lat="44.33576" lon="5.12106">
        <ele>345.3</ele>
        <time>2021-02-24T15:45:19Z</time>
      </trkpt>
      <trkpt lat="44.3358" lon="5.12106">
        <ele>345.3</ele>
        <time>2021-02-24T15:45:20Z</time>
      </trkpt>
      <trkpt lat="44.33585" lon="5.12105">
        <ele>345.3</ele>
        <time>2021-02-24T15:45:21Z</time>
      </trkpt>
      <trkpt lat="44.33589" lon="5.12105">
        <ele>345.3</ele>
        <time>2021-02-24T15:45:22Z</time>
      </trkpt>
      <trkpt lat="44.33594" lon="5.12105">
        <ele>345.3</ele>
        <time>2021-02-24T15:45:23Z</time>
      </trkpt>
      <trkpt lat="44.33598" lon="5.12104">
        <ele>345.2</ele>
        <time>2021-02-24T15:45:24Z</time>
      </trkpt>
      <trkpt lat="44.33602" lon="5.12104">
        <ele>345.2</ele>
        <time>2021-02-24T15:45:25Z</time>
      </trkpt>
      <trkpt lat="44.33607" lon="5.12103">
        <ele>345.1</ele>
        <time>2021-02-24T15:45:26Z</time>
      </trkpt>
      <trkpt lat="44.33611" lon="5.12103">
        <ele>345</ele>
        <time>2021-02-24T15:45:27Z</time>
      </trkpt>
      <trkpt lat="44.33616" lon="5.12102">
        <ele>344.9</ele>
        <time>2021-02-24T15:45:28Z</time>
      </trkpt>
      <trkpt lat="44.3362" lon="5.12101">
        <ele>344.7</ele>
        <time>2021-02-24T15:45:29Z</time>
      </trkpt>
      <trkpt lat="44.33624" lon="5.121">
        <ele>344.6</ele>
        <time>2021-02-24T15:45:30Z</time>
      </trkpt>
      <trkpt lat="44.33629" lon="5.12097">
        <ele>344.4</ele>
        <time>2021-02-24T15:45:31Z</time>
      </trkpt>
      <trkpt lat="44.33635" lon="5.12093">
        <ele>344.2</ele>
        <time>2021-02-24T15:45:32Z</time>
      </trkpt>
      <trkpt lat="44.33642" lon="5.1209">
        <ele>344.1</ele>
        <time>2021-02-24T15:45:33Z</time>
      </trkpt>
      <trkpt lat="44.33647" lon="5.1209">
        <ele>344.2</ele>
        <time>2021-02-24T15:45:34Z</time>
      </trkpt>
      <trkpt lat="44.3365" lon="5.1209">
        <ele>344.4</ele>
        <time>2021-02-24T15:45:35Z</time>
      </trkpt>
      <trkpt lat="44.33654" lon="5.12092">
        <ele>344.5</ele>
        <time>2021-02-24T15:45:36Z</time>
      </trkpt>
      <trkpt lat="44.33654" lon="5.12092">
        <ele>344.5</ele>
        <time>2021-02-24T15:45:37Z</time>
      </trkpt>
      <trkpt lat="44.33659" lon="5.12099">
        <ele>345</ele>
        <time>2021-02-24T15:45:38Z</time>
      </trkpt>
      <trkpt lat="44.33659" lon="5.121">
        <ele>345</ele>
        <time>2021-02-24T15:45:39Z</time>
      </trkpt>
      <trkpt lat="44.33659" lon="5.121">
        <ele>345</ele>
        <time>2021-02-24T15:45:40Z</time>
      </trkpt>
      <trkpt lat="44.33662" lon="5.12104">
        <ele>345.3</ele>
        <time>2021-02-24T15:45:41Z</time>
      </trkpt>
      <trkpt lat="44.33665" lon="5.12108">
        <ele>345.5</ele>
        <time>2021-02-24T15:45:42Z</time>
      </trkpt>
      <trkpt lat="44.33668" lon="5.12112">
        <ele>345.7</ele>
        <time>2021-02-24T15:45:43Z</time>
      </trkpt>
      <trkpt lat="44.33668" lon="5.12112">
        <ele>345.7</ele>
        <time>2021-02-24T15:45:44Z</time>
      </trkpt>
      <trkpt lat="44.33673" lon="5.12116">
        <ele>346.1</ele>
        <time>2021-02-24T15:45:45Z</time>
      </trkpt>
      <trkpt lat="44.33677" lon="5.12121">
        <ele>346.4</ele>
        <time>2021-02-24T15:45:46Z</time>
      </trkpt>
      <trkpt lat="44.33681" lon="5.12125">
        <ele>346.8</ele>
        <time>2021-02-24T15:45:47Z</time>
      </trkpt>
      <trkpt lat="44.33685" lon="5.12129">
        <ele>347.1</ele>
        <time>2021-02-24T15:45:48Z</time>
      </trkpt>
      <trkpt lat="44.33689" lon="5.12133">
        <ele>347.5</ele>
        <time>2021-02-24T15:45:49Z</time>
      </trkpt>
      <trkpt lat="44.33694" lon="5.12138">
        <ele>347.9</ele>
        <time>2021-02-24T15:45:50Z</time>
      </trkpt>
      <trkpt lat="44.33698" lon="5.12143">
        <ele>348.4</ele>
        <time>2021-02-24T15:45:51Z</time>
      </trkpt>
      <trkpt lat="44.33702" lon="5.12147">
        <ele>348.8</ele>
        <time>2021-02-24T15:45:52Z</time>
      </trkpt>
      <trkpt lat="44.33706" lon="5.12152">
        <ele>349.2</ele>
        <time>2021-02-24T15:45:53Z</time>
      </trkpt>
      <trkpt lat="44.33709" lon="5.12156">
        <ele>349.6</ele>
        <time>2021-02-24T15:45:54Z</time>
      </trkpt>
      <trkpt lat="44.33712" lon="5.1216">
        <ele>350</ele>
        <time>2021-02-24T15:45:55Z</time>
      </trkpt>
      <trkpt lat="44.33715" lon="5.12165">
        <ele>350.4</ele>
        <time>2021-02-24T15:45:56Z</time>
      </trkpt>
      <trkpt lat="44.33718" lon="5.1217">
        <ele>350.9</ele>
        <time>2021-02-24T15:45:57Z</time>
      </trkpt>
      <trkpt lat="44.33721" lon="5.12175">
        <ele>351.4</ele>
        <time>2021-02-24T15:45:58Z</time>
      </trkpt>
      <trkpt lat="44.33724" lon="5.1218">
        <ele>351.8</ele>
        <time>2021-02-24T15:45:59Z</time>
      </trkpt>
      <trkpt lat="44.33726" lon="5.12186">
        <ele>352.3</ele>
        <time>2021-02-24T15:46:00Z</time>
      </trkpt>
      <trkpt lat="44.33732" lon="5.12191">
        <ele>352.9</ele>
        <time>2021-02-24T15:46:01Z</time>
      </trkpt>
      <trkpt lat="44.33735" lon="5.12196">
        <ele>353.3</ele>
        <time>2021-02-24T15:46:02Z</time>
      </trkpt>
      <trkpt lat="44.33738" lon="5.12201">
        <ele>353.7</ele>
        <time>2021-02-24T15:46:03Z</time>
      </trkpt>
      <trkpt lat="44.33741" lon="5.12206">
        <ele>354</ele>
        <time>2021-02-24T15:46:04Z</time>
      </trkpt>
      <trkpt lat="44.33743" lon="5.12211">
        <ele>354.4</ele>
        <time>2021-02-24T15:46:05Z</time>
      </trkpt>
      <trkpt lat="44.33745" lon="5.12216">
        <ele>354.7</ele>
        <time>2021-02-24T15:46:06Z</time>
      </trkpt>
      <trkpt lat="44.33748" lon="5.12221">
        <ele>355</ele>
        <time>2021-02-24T15:46:07Z</time>
      </trkpt>
      <trkpt lat="44.3375" lon="5.12225">
        <ele>355.3</ele>
        <time>2021-02-24T15:46:08Z</time>
      </trkpt>
      <trkpt lat="44.33753" lon="5.12228">
        <ele>355.5</ele>
        <time>2021-02-24T15:46:09Z</time>
      </trkpt>
      <trkpt lat="44.33755" lon="5.12231">
        <ele>355.7</ele>
        <time>2021-02-24T15:46:10Z</time>
      </trkpt>
      <trkpt lat="44.33757" lon="5.12234">
        <ele>355.8</ele>
        <time>2021-02-24T15:46:11Z</time>
      </trkpt>
      <trkpt lat="44.33759" lon="5.12237">
        <ele>356</ele>
        <time>2021-02-24T15:46:12Z</time>
      </trkpt>
      <trkpt lat="44.33761" lon="5.1224">
        <ele>356.1</ele>
        <time>2021-02-24T15:46:13Z</time>
      </trkpt>
      <trkpt lat="44.33763" lon="5.12242">
        <ele>356.2</ele>
        <time>2021-02-24T15:46:14Z</time>
      </trkpt>
      <trkpt lat="44.33766" lon="5.12245">
        <ele>356.3</ele>
        <time>2021-02-24T15:46:15Z</time>
      </trkpt>
      <trkpt lat="44.33767" lon="5.12247">
        <ele>356.4</ele>
        <time>2021-02-24T15:46:16Z</time>
      </trkpt>
      <trkpt lat="44.33769" lon="5.1225">
        <ele>356.5</ele>
        <time>2021-02-24T15:46:17Z</time>
      </trkpt>
      <trkpt lat="44.33771" lon="5.12252">
        <ele>356.6</ele>
        <time>2021-02-24T15:46:18Z</time>
      </trkpt>
      <trkpt lat="44.33772" lon="5.12254">
        <ele>356.6</ele>
        <time>2021-02-24T15:46:19Z</time>
      </trkpt>
      <trkpt lat="44.33774" lon="5.12256">
        <ele>356.7</ele>
        <time>2021-02-24T15:46:20Z</time>
      </trkpt>
      <trkpt lat="44.33774" lon="5.12256">
        <ele>356.7</ele>
        <time>2021-02-24T15:46:21Z</time>
      </trkpt>
      <trkpt lat="44.33776" lon="5.1226">
        <ele>356.8</ele>
        <time>2021-02-24T15:46:22Z</time>
      </trkpt>
      <trkpt lat="44.33776" lon="5.1226">
        <ele>356.8</ele>
        <time>2021-02-24T15:46:23Z</time>
      </trkpt>
      <trkpt lat="44.33778" lon="5.12263">
        <ele>356.8</ele>
        <time>2021-02-24T15:46:24Z</time>
      </trkpt>
      <trkpt lat="44.33778" lon="5.12263">
        <ele>356.8</ele>
        <time>2021-02-24T15:46:25Z</time>
      </trkpt>
      <trkpt lat="44.33779" lon="5.12265">
        <ele>356.9</ele>
        <time>2021-02-24T15:46:26Z</time>
      </trkpt>
      <trkpt lat="44.33779" lon="5.12265">
        <ele>356.9</ele>
        <time>2021-02-24T15:46:27Z</time>
      </trkpt>
      <trkpt lat="44.3378" lon="5.12267">
        <ele>356.9</ele>
        <time>2021-02-24T15:46:28Z</time>
      </trkpt>
      <trkpt lat="44.3378" lon="5.12267">
        <ele>356.9</ele>
        <time>2021-02-24T15:46:29Z</time>
      </trkpt>
      <trkpt lat="44.33781" lon="5.12269">
        <ele>356.9</ele>
        <time>2021-02-24T15:46:30Z</time>
      </trkpt>
      <trkpt lat="44.33781" lon="5.12269">
        <ele>356.9</ele>
        <time>2021-02-24T15:46:31Z</time>
      </trkpt>
      <trkpt lat="44.33781" lon="5.12269">
        <ele>356.9</ele>
        <time>2021-02-24T15:46:32Z</time>
      </trkpt>
      <trkpt lat="44.33781" lon="5.12269">
        <ele>356.9</ele>
        <time>2021-02-24T15:46:33Z</time>
      </trkpt>
      <trkpt lat="44.33781" lon="5.12269">
        <ele>356.9</ele>
        <time>2021-02-24T15:46:34Z</time>
      </trkpt>
      <trkpt lat="44.33781" lon="5.12269">
        <ele>356.9</ele>
        <time>2021-02-24T15:46:35Z</time>
      </trkpt>
      <trkpt lat="44.33781" lon="5.12269">
        <ele>356.9</ele>
        <time>2021-02-24T15:46:36Z</time>
      </trkpt>
      <trkpt lat="44.33781" lon="5.12269">
        <ele>356.9</ele>
        <time>2021-02-24T15:46:37Z</time>
      </trkpt>
      <trkpt lat="44.33788" lon="5.12266">
        <ele>357</ele>
        <time>2021-02-24T15:52:50Z</time>
      </trkpt>
      <trkpt lat="44.3379" lon="5.12268">
        <ele>357</ele>
        <time>2021-02-24T15:52:51Z</time>
      </trkpt>
      <trkpt lat="44.33793" lon="5.1227">
        <ele>357</ele>
        <time>2021-02-24T15:52:52Z</time>
      </trkpt>
      <trkpt lat="44.33795" lon="5.12271">
        <ele>357</ele>
        <time>2021-02-24T15:52:53Z</time>
      </trkpt>
      <trkpt lat="44.33798" lon="5.12273">
        <ele>357.1</ele>
        <time>2021-02-24T15:52:54Z</time>
      </trkpt>
      <trkpt lat="44.33801" lon="5.12274">
        <ele>357.1</ele>
        <time>2021-02-24T15:52:55Z</time>
      </trkpt>
      <trkpt lat="44.33804" lon="5.12275">
        <ele>357.1</ele>
        <time>2021-02-24T15:52:56Z</time>
      </trkpt>
      <trkpt lat="44.33808" lon="5.12276">
        <ele>357.1</ele>
        <time>2021-02-24T15:52:57Z</time>
      </trkpt>
      <trkpt lat="44.33811" lon="5.12277">
        <ele>357.1</ele>
        <time>2021-02-24T15:52:58Z</time>
      </trkpt>
      <trkpt lat="44.33815" lon="5.12278">
        <ele>357.2</ele>
        <time>2021-02-24T15:52:59Z</time>
      </trkpt>
      <trkpt lat="44.33818" lon="5.12279">
        <ele>357.2</ele>
        <time>2021-02-24T15:53:00Z</time>
      </trkpt>
      <trkpt lat="44.33822" lon="5.1228">
        <ele>357.3</ele>
        <time>2021-02-24T15:53:01Z</time>
      </trkpt>
      <trkpt lat="44.33825" lon="5.12281">
        <ele>357.3</ele>
        <time>2021-02-24T15:53:02Z</time>
      </trkpt>
      <trkpt lat="44.33828" lon="5.12283">
        <ele>357.4</ele>
        <time>2021-02-24T15:53:03Z</time>
      </trkpt>
      <trkpt lat="44.33832" lon="5.12284">
        <ele>357.5</ele>
        <time>2021-02-24T15:53:04Z</time>
      </trkpt>
      <trkpt lat="44.33835" lon="5.12285">
        <ele>357.5</ele>
        <time>2021-02-24T15:53:05Z</time>
      </trkpt>
      <trkpt lat="44.33838" lon="5.12286">
        <ele>357.6</ele>
        <time>2021-02-24T15:53:06Z</time>
      </trkpt>
      <trkpt lat="44.33841" lon="5.12288">
        <ele>357.6</ele>
        <time>2021-02-24T15:53:07Z</time>
      </trkpt>
      <trkpt lat="44.33844" lon="5.12289">
        <ele>357.7</ele>
        <time>2021-02-24T15:53:08Z</time>
      </trkpt>
      <trkpt lat="44.33847" lon="5.1229">
        <ele>357.7</ele>
        <time>2021-02-24T15:53:09Z</time>
      </trkpt>
      <trkpt lat="44.3385" lon="5.12291">
        <ele>357.8</ele>
        <time>2021-02-24T15:53:10Z</time>
      </trkpt>
      <trkpt lat="44.33853" lon="5.12292">
        <ele>357.8</ele>
        <time>2021-02-24T15:53:11Z</time>
      </trkpt>
      <trkpt lat="44.33856" lon="5.12292">
        <ele>357.8</ele>
        <time>2021-02-24T15:53:12Z</time>
      </trkpt>
      <trkpt lat="44.33859" lon="5.12293">
        <ele>357.8</ele>
        <time>2021-02-24T15:53:13Z</time>
      </trkpt>
      <trkpt lat="44.33861" lon="5.12294">
        <ele>357.8</ele>
        <time>2021-02-24T15:53:14Z</time>
      </trkpt>
      <trkpt lat="44.33864" lon="5.12294">
        <ele>357.8</ele>
        <time>2021-02-24T15:53:15Z</time>
      </trkpt>
      <trkpt lat="44.33867" lon="5.12295">
        <ele>357.7</ele>
        <time>2021-02-24T15:53:16Z</time>
      </trkpt>
      <trkpt lat="44.3387" lon="5.12296">
        <ele>357.7</ele>
        <time>2021-02-24T15:53:17Z</time>
      </trkpt>
      <trkpt lat="44.33874" lon="5.12297">
        <ele>357.6</ele>
        <time>2021-02-24T15:53:18Z</time>
      </trkpt>
      <trkpt lat="44.33878" lon="5.12298">
        <ele>357.6</ele>
        <time>2021-02-24T15:53:19Z</time>
      </trkpt>
      <trkpt lat="44.33881" lon="5.12299">
        <ele>357.5</ele>
        <time>2021-02-24T15:53:20Z</time>
      </trkpt>
      <trkpt lat="44.33885" lon="5.12299">
        <ele>357.4</ele>
        <time>2021-02-24T15:53:21Z</time>
      </trkpt>
      <trkpt lat="44.33889" lon="5.123">
        <ele>357.4</ele>
        <time>2021-02-24T15:53:22Z</time>
      </trkpt>
      <trkpt lat="44.33893" lon="5.12301">
        <ele>357.3</ele>
        <time>2021-02-24T15:53:23Z</time>
      </trkpt>
      <trkpt lat="44.33897" lon="5.12302">
        <ele>357.3</ele>
        <time>2021-02-24T15:53:24Z</time>
      </trkpt>
      <trkpt lat="44.33901" lon="5.12303">
        <ele>357.2</ele>
        <time>2021-02-24T15:53:25Z</time>
      </trkpt>
      <trkpt lat="44.33905" lon="5.12304">
        <ele>357.2</ele>
        <time>2021-02-24T15:53:26Z</time>
      </trkpt>
      <trkpt lat="44.33909" lon="5.12305">
        <ele>357.2</ele>
        <time>2021-02-24T15:53:27Z</time>
      </trkpt>
      <trkpt lat="44.33912" lon="5.12306">
        <ele>357.1</ele>
        <time>2021-02-24T15:53:28Z</time>
      </trkpt>
      <trkpt lat="44.33916" lon="5.12306">
        <ele>357.1</ele>
        <time>2021-02-24T15:53:29Z</time>
      </trkpt>
      <trkpt lat="44.33919" lon="5.12307">
        <ele>357.1</ele>
        <time>2021-02-24T15:53:30Z</time>
      </trkpt>
      <trkpt lat="44.33923" lon="5.12308">
        <ele>357.1</ele>
        <time>2021-02-24T15:53:31Z</time>
      </trkpt>
      <trkpt lat="44.33926" lon="5.12308">
        <ele>357.1</ele>
        <time>2021-02-24T15:53:32Z</time>
      </trkpt>
      <trkpt lat="44.3393" lon="5.12309">
        <ele>357.1</ele>
        <time>2021-02-24T15:53:33Z</time>
      </trkpt>
      <trkpt lat="44.33934" lon="5.1231">
        <ele>357.1</ele>
        <time>2021-02-24T15:53:34Z</time>
      </trkpt>
      <trkpt lat="44.33938" lon="5.12311">
        <ele>357.1</ele>
        <time>2021-02-24T15:53:35Z</time>
      </trkpt>
      <trkpt lat="44.33942" lon="5.12311">
        <ele>357.1</ele>
        <time>2021-02-24T15:53:36Z</time>
      </trkpt>
      <trkpt lat="44.33946" lon="5.12312">
        <ele>357</ele>
        <time>2021-02-24T15:53:37Z</time>
      </trkpt>
      <trkpt lat="44.3395" lon="5.12313">
        <ele>357</ele>
        <time>2021-02-24T15:53:38Z</time>
      </trkpt>
      <trkpt lat="44.33954" lon="5.12314">
        <ele>357</ele>
        <time>2021-02-24T15:53:39Z</time>
      </trkpt>
      <trkpt lat="44.33957" lon="5.12315">
        <ele>356.9</ele>
        <time>2021-02-24T15:53:40Z</time>
      </trkpt>
      <trkpt lat="44.33961" lon="5.12316">
        <ele>356.9</ele>
        <time>2021-02-24T15:53:41Z</time>
      </trkpt>
      <trkpt lat="44.33964" lon="5.12317">
        <ele>356.9</ele>
        <time>2021-02-24T15:53:42Z</time>
      </trkpt>
      <trkpt lat="44.33968" lon="5.12317">
        <ele>356.8</ele>
        <time>2021-02-24T15:53:43Z</time>
      </trkpt>
      <trkpt lat="44.33972" lon="5.12319">
        <ele>356.8</ele>
        <time>2021-02-24T15:53:44Z</time>
      </trkpt>
      <trkpt lat="44.33976" lon="5.1232">
        <ele>356.7</ele>
        <time>2021-02-24T15:53:45Z</time>
      </trkpt>
      <trkpt lat="44.3398" lon="5.12321">
        <ele>356.7</ele>
        <time>2021-02-24T15:53:46Z</time>
      </trkpt>
      <trkpt lat="44.33984" lon="5.12322">
        <ele>356.6</ele>
        <time>2021-02-24T15:53:47Z</time>
      </trkpt>
      <trkpt lat="44.33987" lon="5.12323">
        <ele>356.6</ele>
        <time>2021-02-24T15:53:48Z</time>
      </trkpt>
      <trkpt lat="44.33991" lon="5.12324">
        <ele>356.5</ele>
        <time>2021-02-24T15:53:49Z</time>
      </trkpt>
      <trkpt lat="44.33995" lon="5.12325">
        <ele>356.4</ele>
        <time>2021-02-24T15:53:50Z</time>
      </trkpt>
      <trkpt lat="44.33999" lon="5.12326">
        <ele>356.3</ele>
        <time>2021-02-24T15:53:51Z</time>
      </trkpt>
      <trkpt lat="44.34003" lon="5.12327">
        <ele>356.2</ele>
        <time>2021-02-24T15:53:52Z</time>
      </trkpt>
      <trkpt lat="44.34007" lon="5.12329">
        <ele>356.1</ele>
        <time>2021-02-24T15:53:53Z</time>
      </trkpt>
      <trkpt lat="44.34011" lon="5.1233">
        <ele>356</ele>
        <time>2021-02-24T15:53:54Z</time>
      </trkpt>
      <trkpt lat="44.34015" lon="5.12331">
        <ele>355.9</ele>
        <time>2021-02-24T15:53:55Z</time>
      </trkpt>
      <trkpt lat="44.34019" lon="5.12332">
        <ele>355.8</ele>
        <time>2021-02-24T15:53:56Z</time>
      </trkpt>
      <trkpt lat="44.34023" lon="5.12333">
        <ele>355.6</ele>
        <time>2021-02-24T15:53:57Z</time>
      </trkpt>
      <trkpt lat="44.34028" lon="5.12335">
        <ele>355.4</ele>
        <time>2021-02-24T15:53:58Z</time>
      </trkpt>
      <trkpt lat="44.34034" lon="5.12336">
        <ele>355.2</ele>
        <time>2021-02-24T15:53:59Z</time>
      </trkpt>
      <trkpt lat="44.3404" lon="5.12338">
        <ele>355.1</ele>
        <time>2021-02-24T15:54:00Z</time>
      </trkpt>
      <trkpt lat="44.34046" lon="5.1234">
        <ele>354.9</ele>
        <time>2021-02-24T15:54:01Z</time>
      </trkpt>
      <trkpt lat="44.34051" lon="5.12342">
        <ele>354.9</ele>
        <time>2021-02-24T15:54:02Z</time>
      </trkpt>
      <trkpt lat="44.34056" lon="5.12343">
        <ele>354.9</ele>
        <time>2021-02-24T15:54:03Z</time>
      </trkpt>
      <trkpt lat="44.34061" lon="5.12345">
        <ele>355</ele>
        <time>2021-02-24T15:54:04Z</time>
      </trkpt>
      <trkpt lat="44.34066" lon="5.12346">
        <ele>355.1</ele>
        <time>2021-02-24T15:54:05Z</time>
      </trkpt>
      <trkpt lat="44.34071" lon="5.12348">
        <ele>355.2</ele>
        <time>2021-02-24T15:54:06Z</time>
      </trkpt>
      <trkpt lat="44.34075" lon="5.12349">
        <ele>355.3</ele>
        <time>2021-02-24T15:54:07Z</time>
      </trkpt>
      <trkpt lat="44.3408" lon="5.12351">
        <ele>355.4</ele>
        <time>2021-02-24T15:54:08Z</time>
      </trkpt>
      <trkpt lat="44.34084" lon="5.12352">
        <ele>355.4</ele>
        <time>2021-02-24T15:54:09Z</time>
      </trkpt>
      <trkpt lat="44.34087" lon="5.12353">
        <ele>355.4</ele>
        <time>2021-02-24T15:54:10Z</time>
      </trkpt>
      <trkpt lat="44.34091" lon="5.12354">
        <ele>355.4</ele>
        <time>2021-02-24T15:54:11Z</time>
      </trkpt>
      <trkpt lat="44.34096" lon="5.12356">
        <ele>355.4</ele>
        <time>2021-02-24T15:54:12Z</time>
      </trkpt>
      <trkpt lat="44.341" lon="5.12358">
        <ele>355.5</ele>
        <time>2021-02-24T15:54:13Z</time>
      </trkpt>
      <trkpt lat="44.34104" lon="5.1236">
        <ele>355.5</ele>
        <time>2021-02-24T15:54:14Z</time>
      </trkpt>
      <trkpt lat="44.34108" lon="5.12362">
        <ele>355.5</ele>
        <time>2021-02-24T15:54:15Z</time>
      </trkpt>
      <trkpt lat="44.34113" lon="5.12364">
        <ele>355.5</ele>
        <time>2021-02-24T15:54:16Z</time>
      </trkpt>
      <trkpt lat="44.34117" lon="5.12366">
        <ele>355.5</ele>
        <time>2021-02-24T15:54:17Z</time>
      </trkpt>
      <trkpt lat="44.34121" lon="5.12368">
        <ele>355.5</ele>
        <time>2021-02-24T15:54:18Z</time>
      </trkpt>
      <trkpt lat="44.34125" lon="5.1237">
        <ele>355.6</ele>
        <time>2021-02-24T15:54:19Z</time>
      </trkpt>
      <trkpt lat="44.34129" lon="5.12372">
        <ele>355.6</ele>
        <time>2021-02-24T15:54:20Z</time>
      </trkpt>
      <trkpt lat="44.34133" lon="5.12374">
        <ele>355.7</ele>
        <time>2021-02-24T15:54:21Z</time>
      </trkpt>
      <trkpt lat="44.34137" lon="5.12376">
        <ele>355.8</ele>
        <time>2021-02-24T15:54:22Z</time>
      </trkpt>
      <trkpt lat="44.34141" lon="5.12378">
        <ele>355.9</ele>
        <time>2021-02-24T15:54:23Z</time>
      </trkpt>
      <trkpt lat="44.34145" lon="5.1238">
        <ele>355.9</ele>
        <time>2021-02-24T15:54:24Z</time>
      </trkpt>
      <trkpt lat="44.34149" lon="5.12382">
        <ele>356</ele>
        <time>2021-02-24T15:54:25Z</time>
      </trkpt>
      <trkpt lat="44.34153" lon="5.12385">
        <ele>356.1</ele>
        <time>2021-02-24T15:54:26Z</time>
      </trkpt>
      <trkpt lat="44.34157" lon="5.12387">
        <ele>356.2</ele>
        <time>2021-02-24T15:54:27Z</time>
      </trkpt>
      <trkpt lat="44.34161" lon="5.12389">
        <ele>356.3</ele>
        <time>2021-02-24T15:54:28Z</time>
      </trkpt>
      <trkpt lat="44.34165" lon="5.12391">
        <ele>356.4</ele>
        <time>2021-02-24T15:54:29Z</time>
      </trkpt>
      <trkpt lat="44.34168" lon="5.12393">
        <ele>356.5</ele>
        <time>2021-02-24T15:54:30Z</time>
      </trkpt>
      <trkpt lat="44.34172" lon="5.12394">
        <ele>356.6</ele>
        <time>2021-02-24T15:54:31Z</time>
      </trkpt>
      <trkpt lat="44.34176" lon="5.12396">
        <ele>356.7</ele>
        <time>2021-02-24T15:54:32Z</time>
      </trkpt>
      <trkpt lat="44.3418" lon="5.12398">
        <ele>356.8</ele>
        <time>2021-02-24T15:54:33Z</time>
      </trkpt>
      <trkpt lat="44.34184" lon="5.124">
        <ele>356.9</ele>
        <time>2021-02-24T15:54:34Z</time>
      </trkpt>
      <trkpt lat="44.34187" lon="5.12402">
        <ele>357</ele>
        <time>2021-02-24T15:54:35Z</time>
      </trkpt>
      <trkpt lat="44.34191" lon="5.12403">
        <ele>357</ele>
        <time>2021-02-24T15:54:36Z</time>
      </trkpt>
      <trkpt lat="44.34195" lon="5.12405">
        <ele>357.1</ele>
        <time>2021-02-24T15:54:37Z</time>
      </trkpt>
      <trkpt lat="44.34199" lon="5.12407">
        <ele>357.1</ele>
        <time>2021-02-24T15:54:38Z</time>
      </trkpt>
      <trkpt lat="44.34202" lon="5.12409">
        <ele>357.2</ele>
        <time>2021-02-24T15:54:39Z</time>
      </trkpt>
      <trkpt lat="44.34206" lon="5.1241">
        <ele>357.2</ele>
        <time>2021-02-24T15:54:40Z</time>
      </trkpt>
      <trkpt lat="44.34211" lon="5.12413">
        <ele>357.1</ele>
        <time>2021-02-24T15:54:41Z</time>
      </trkpt>
      <trkpt lat="44.34215" lon="5.12415">
        <ele>357</ele>
        <time>2021-02-24T15:54:42Z</time>
      </trkpt>
      <trkpt lat="44.3422" lon="5.12418">
        <ele>356.9</ele>
        <time>2021-02-24T15:54:43Z</time>
      </trkpt>
      <trkpt lat="44.34225" lon="5.12421">
        <ele>356.7</ele>
        <time>2021-02-24T15:54:44Z</time>
      </trkpt>
      <trkpt lat="44.34229" lon="5.12424">
        <ele>356.5</ele>
        <time>2021-02-24T15:54:45Z</time>
      </trkpt>
      <trkpt lat="44.34235" lon="5.12428">
        <ele>356.2</ele>
        <time>2021-02-24T15:54:46Z</time>
      </trkpt>
      <trkpt lat="44.3424" lon="5.12432">
        <ele>355.9</ele>
        <time>2021-02-24T15:54:47Z</time>
      </trkpt>
      <trkpt lat="44.34246" lon="5.12437">
        <ele>355.5</ele>
        <time>2021-02-24T15:54:48Z</time>
      </trkpt>
      <trkpt lat="44.34252" lon="5.12442">
        <ele>355.1</ele>
        <time>2021-02-24T15:54:49Z</time>
      </trkpt>
      <trkpt lat="44.34258" lon="5.12447">
        <ele>354.7</ele>
        <time>2021-02-24T15:54:50Z</time>
      </trkpt>
      <trkpt lat="44.34265" lon="5.12452">
        <ele>354.2</ele>
        <time>2021-02-24T15:54:51Z</time>
      </trkpt>
      <trkpt lat="44.34271" lon="5.12457">
        <ele>353.8</ele>
        <time>2021-02-24T15:54:52Z</time>
      </trkpt>
      <trkpt lat="44.34278" lon="5.12463">
        <ele>353.3</ele>
        <time>2021-02-24T15:54:53Z</time>
      </trkpt>
      <trkpt lat="44.34284" lon="5.12469">
        <ele>352.9</ele>
        <time>2021-02-24T15:54:54Z</time>
      </trkpt>
      <trkpt lat="44.3429" lon="5.12477">
        <ele>352.5</ele>
        <time>2021-02-24T15:54:55Z</time>
      </trkpt>
      <trkpt lat="44.34293" lon="5.12487">
        <ele>352</ele>
        <time>2021-02-24T15:54:56Z</time>
      </trkpt>
      <trkpt lat="44.34294" lon="5.12498">
        <ele>351.6</ele>
        <time>2021-02-24T15:54:57Z</time>
      </trkpt>
      <trkpt lat="44.34293" lon="5.12509">
        <ele>351.1</ele>
        <time>2021-02-24T15:54:58Z</time>
      </trkpt>
      <trkpt lat="44.3429" lon="5.12519">
        <ele>350.5</ele>
        <time>2021-02-24T15:54:59Z</time>
      </trkpt>
      <trkpt lat="44.3429" lon="5.1253">
        <ele>349.9</ele>
        <time>2021-02-24T15:55:00Z</time>
      </trkpt>
      <trkpt lat="44.34291" lon="5.12541">
        <ele>349.2</ele>
        <time>2021-02-24T15:55:01Z</time>
      </trkpt>
      <trkpt lat="44.34295" lon="5.12551">
        <ele>348.5</ele>
        <time>2021-02-24T15:55:02Z</time>
      </trkpt>
      <trkpt lat="44.34302" lon="5.1256">
        <ele>347.6</ele>
        <time>2021-02-24T15:55:03Z</time>
      </trkpt>
      <trkpt lat="44.34309" lon="5.1257">
        <ele>346.8</ele>
        <time>2021-02-24T15:55:04Z</time>
      </trkpt>
      <trkpt lat="44.34317" lon="5.12579">
        <ele>346.2</ele>
        <time>2021-02-24T15:55:05Z</time>
      </trkpt>
      <trkpt lat="44.34324" lon="5.12587">
        <ele>345.7</ele>
        <time>2021-02-24T15:55:06Z</time>
      </trkpt>
      <trkpt lat="44.34331" lon="5.12596">
        <ele>345.3</ele>
        <time>2021-02-24T15:55:07Z</time>
      </trkpt>
      <trkpt lat="44.34339" lon="5.12602">
        <ele>345</ele>
        <time>2021-02-24T15:55:08Z</time>
      </trkpt>
      <trkpt lat="44.34347" lon="5.12605">
        <ele>344.4</ele>
        <time>2021-02-24T15:55:09Z</time>
      </trkpt>
      <trkpt lat="44.34356" lon="5.12605">
        <ele>343.9</ele>
        <time>2021-02-24T15:55:10Z</time>
      </trkpt>
      <trkpt lat="44.34356" lon="5.12605">
        <ele>343.9</ele>
        <time>2021-02-24T15:55:11Z</time>
      </trkpt>
      <trkpt lat="44.34376" lon="5.12599">
        <ele>342.3</ele>
        <time>2021-02-24T15:55:12Z</time>
      </trkpt>
      <trkpt lat="44.3438" lon="5.12599">
        <ele>342</ele>
        <time>2021-02-24T15:55:13Z</time>
      </trkpt>
      <trkpt lat="44.34391" lon="5.12599">
        <ele>340.9</ele>
        <time>2021-02-24T15:55:14Z</time>
      </trkpt>
      <trkpt lat="44.34395" lon="5.12601">
        <ele>340.5</ele>
        <time>2021-02-24T15:55:15Z</time>
      </trkpt>
      <trkpt lat="44.34406" lon="5.12606">
        <ele>339.5</ele>
        <time>2021-02-24T15:55:16Z</time>
      </trkpt>
      <trkpt lat="44.34409" lon="5.12607">
        <ele>339.1</ele>
        <time>2021-02-24T15:55:17Z</time>
      </trkpt>
      <trkpt lat="44.34419" lon="5.1261">
        <ele>338.2</ele>
        <time>2021-02-24T15:55:18Z</time>
      </trkpt>
      <trkpt lat="44.34423" lon="5.12611">
        <ele>337.9</ele>
        <time>2021-02-24T15:55:19Z</time>
      </trkpt>
      <trkpt lat="44.34434" lon="5.12612">
        <ele>336.8</ele>
        <time>2021-02-24T15:55:20Z</time>
      </trkpt>
      <trkpt lat="44.34439" lon="5.12611">
        <ele>336.4</ele>
        <time>2021-02-24T15:55:21Z</time>
      </trkpt>
      <trkpt lat="44.34449" lon="5.12609">
        <ele>335.7</ele>
        <time>2021-02-24T15:55:22Z</time>
      </trkpt>
      <trkpt lat="44.34458" lon="5.12605">
        <ele>334.9</ele>
        <time>2021-02-24T15:55:23Z</time>
      </trkpt>
      <trkpt lat="44.34469" lon="5.12603">
        <ele>334.2</ele>
        <time>2021-02-24T15:55:24Z</time>
      </trkpt>
      <trkpt lat="44.34479" lon="5.12603">
        <ele>333.4</ele>
        <time>2021-02-24T15:55:25Z</time>
      </trkpt>
      <trkpt lat="44.34494" lon="5.12606">
        <ele>332.5</ele>
        <time>2021-02-24T15:55:26Z</time>
      </trkpt>
      <trkpt lat="44.34509" lon="5.12614">
        <ele>331.4</ele>
        <time>2021-02-24T15:55:27Z</time>
      </trkpt>
      <trkpt lat="44.3452" lon="5.12625">
        <ele>330.4</ele>
        <time>2021-02-24T15:55:28Z</time>
      </trkpt>
      <trkpt lat="44.34527" lon="5.12636">
        <ele>329.6</ele>
        <time>2021-02-24T15:55:29Z</time>
      </trkpt>
      <trkpt lat="44.34534" lon="5.12648">
        <ele>328.7</ele>
        <time>2021-02-24T15:55:30Z</time>
      </trkpt>
      <trkpt lat="44.3454" lon="5.12662">
        <ele>328</ele>
        <time>2021-02-24T15:55:31Z</time>
      </trkpt>
      <trkpt lat="44.34544" lon="5.12676">
        <ele>327.3</ele>
        <time>2021-02-24T15:55:32Z</time>
      </trkpt>
      <trkpt lat="44.34548" lon="5.1269">
        <ele>326.8</ele>
        <time>2021-02-24T15:55:33Z</time>
      </trkpt>
      <trkpt lat="44.34551" lon="5.12703">
        <ele>326.3</ele>
        <time>2021-02-24T15:55:34Z</time>
      </trkpt>
      <trkpt lat="44.34554" lon="5.12715">
        <ele>325.9</ele>
        <time>2021-02-24T15:55:35Z</time>
      </trkpt>
      <trkpt lat="44.34558" lon="5.12725">
        <ele>325.5</ele>
        <time>2021-02-24T15:55:36Z</time>
      </trkpt>
      <trkpt lat="44.34564" lon="5.12733">
        <ele>325.1</ele>
        <time>2021-02-24T15:55:37Z</time>
      </trkpt>
      <trkpt lat="44.34571" lon="5.12738">
        <ele>324.5</ele>
        <time>2021-02-24T15:55:38Z</time>
      </trkpt>
      <trkpt lat="44.34571" lon="5.12738">
        <ele>324.5</ele>
        <time>2021-02-24T15:55:39Z</time>
      </trkpt>
      <trkpt lat="44.34591" lon="5.12734">
        <ele>323</ele>
        <time>2021-02-24T15:55:40Z</time>
      </trkpt>
      <trkpt lat="44.34593" lon="5.12733">
        <ele>322.8</ele>
        <time>2021-02-24T15:55:41Z</time>
      </trkpt>
      <trkpt lat="44.34598" lon="5.12731">
        <ele>322.4</ele>
        <time>2021-02-24T15:55:42Z</time>
      </trkpt>
      <trkpt lat="44.34619" lon="5.1272">
        <ele>320.7</ele>
        <time>2021-02-24T15:55:43Z</time>
      </trkpt>
      <trkpt lat="44.34623" lon="5.12717">
        <ele>320.3</ele>
        <time>2021-02-24T15:55:44Z</time>
      </trkpt>
      <trkpt lat="44.34632" lon="5.12713">
        <ele>319.7</ele>
        <time>2021-02-24T15:55:45Z</time>
      </trkpt>
      <trkpt lat="44.34641" lon="5.12708">
        <ele>319.1</ele>
        <time>2021-02-24T15:55:46Z</time>
      </trkpt>
      <trkpt lat="44.3465" lon="5.12705">
        <ele>318.5</ele>
        <time>2021-02-24T15:55:47Z</time>
      </trkpt>
      <trkpt lat="44.34659" lon="5.12704">
        <ele>318</ele>
        <time>2021-02-24T15:55:48Z</time>
      </trkpt>
      <trkpt lat="44.34668" lon="5.12705">
        <ele>317.4</ele>
        <time>2021-02-24T15:55:49Z</time>
      </trkpt>
      <trkpt lat="44.34678" lon="5.12709">
        <ele>316.8</ele>
        <time>2021-02-24T15:55:50Z</time>
      </trkpt>
      <trkpt lat="44.34688" lon="5.12712">
        <ele>316.2</ele>
        <time>2021-02-24T15:55:51Z</time>
      </trkpt>
      <trkpt lat="44.34697" lon="5.12716">
        <ele>315.6</ele>
        <time>2021-02-24T15:55:52Z</time>
      </trkpt>
      <trkpt lat="44.34708" lon="5.12719">
        <ele>315</ele>
        <time>2021-02-24T15:55:53Z</time>
      </trkpt>
      <trkpt lat="44.34721" lon="5.12726">
        <ele>314.4</ele>
        <time>2021-02-24T15:55:54Z</time>
      </trkpt>
      <trkpt lat="44.34731" lon="5.12735">
        <ele>314</ele>
        <time>2021-02-24T15:55:55Z</time>
      </trkpt>
      <trkpt lat="44.34738" lon="5.12746">
        <ele>313.5</ele>
        <time>2021-02-24T15:55:56Z</time>
      </trkpt>
      <trkpt lat="44.34744" lon="5.12758">
        <ele>313</ele>
        <time>2021-02-24T15:55:57Z</time>
      </trkpt>
      <trkpt lat="44.34749" lon="5.12772">
        <ele>312.6</ele>
        <time>2021-02-24T15:55:58Z</time>
      </trkpt>
      <trkpt lat="44.34754" lon="5.12785">
        <ele>312</ele>
        <time>2021-02-24T15:55:59Z</time>
      </trkpt>
      <trkpt lat="44.34759" lon="5.12799">
        <ele>311.5</ele>
        <time>2021-02-24T15:56:00Z</time>
      </trkpt>
      <trkpt lat="44.34764" lon="5.12811">
        <ele>311</ele>
        <time>2021-02-24T15:56:01Z</time>
      </trkpt>
      <trkpt lat="44.34764" lon="5.12811">
        <ele>311</ele>
        <time>2021-02-24T15:56:02Z</time>
      </trkpt>
      <trkpt lat="44.34779" lon="5.12828">
        <ele>309.8</ele>
        <time>2021-02-24T15:56:03Z</time>
      </trkpt>
      <trkpt lat="44.34782" lon="5.12828">
        <ele>309.6</ele>
        <time>2021-02-24T15:56:04Z</time>
      </trkpt>
      <trkpt lat="44.34794" lon="5.12827">
        <ele>308.8</ele>
        <time>2021-02-24T15:56:05Z</time>
      </trkpt>
      <trkpt lat="44.34798" lon="5.12824">
        <ele>308.4</ele>
        <time>2021-02-24T15:56:06Z</time>
      </trkpt>
      <trkpt lat="44.34807" lon="5.12819">
        <ele>307.7</ele>
        <time>2021-02-24T15:56:07Z</time>
      </trkpt>
      <trkpt lat="44.34816" lon="5.12815">
        <ele>307.1</ele>
        <time>2021-02-24T15:56:08Z</time>
      </trkpt>
      <trkpt lat="44.34825" lon="5.12811">
        <ele>306.4</ele>
        <time>2021-02-24T15:56:09Z</time>
      </trkpt>
      <trkpt lat="44.34834" lon="5.12808">
        <ele>305.9</ele>
        <time>2021-02-24T15:56:10Z</time>
      </trkpt>
      <trkpt lat="44.34844" lon="5.12807">
        <ele>305.4</ele>
        <time>2021-02-24T15:56:11Z</time>
      </trkpt>
      <trkpt lat="44.34854" lon="5.12807">
        <ele>304.9</ele>
        <time>2021-02-24T15:56:12Z</time>
      </trkpt>
      <trkpt lat="44.34865" lon="5.12809">
        <ele>304.4</ele>
        <time>2021-02-24T15:56:13Z</time>
      </trkpt>
      <trkpt lat="44.34875" lon="5.12812">
        <ele>304</ele>
        <time>2021-02-24T15:56:14Z</time>
      </trkpt>
      <trkpt lat="44.34884" lon="5.12816">
        <ele>303.7</ele>
        <time>2021-02-24T15:56:15Z</time>
      </trkpt>
      <trkpt lat="44.34894" lon="5.12821">
        <ele>303.4</ele>
        <time>2021-02-24T15:56:16Z</time>
      </trkpt>
      <trkpt lat="44.34902" lon="5.12826">
        <ele>303</ele>
        <time>2021-02-24T15:56:17Z</time>
      </trkpt>
      <trkpt lat="44.34911" lon="5.12834">
        <ele>302.5</ele>
        <time>2021-02-24T15:56:18Z</time>
      </trkpt>
      <trkpt lat="44.34916" lon="5.12845">
        <ele>301.8</ele>
        <time>2021-02-24T15:56:19Z</time>
      </trkpt>
      <trkpt lat="44.34919" lon="5.12857">
        <ele>301.1</ele>
        <time>2021-02-24T15:56:20Z</time>
      </trkpt>
      <trkpt lat="44.34919" lon="5.1287">
        <ele>300.4</ele>
        <time>2021-02-24T15:56:21Z</time>
      </trkpt>
      <trkpt lat="44.34918" lon="5.12884">
        <ele>299.6</ele>
        <time>2021-02-24T15:56:22Z</time>
      </trkpt>
      <trkpt lat="44.34917" lon="5.12898">
        <ele>298.9</ele>
        <time>2021-02-24T15:56:23Z</time>
      </trkpt>
      <trkpt lat="44.34917" lon="5.12912">
        <ele>298.3</ele>
        <time>2021-02-24T15:56:24Z</time>
      </trkpt>
      <trkpt lat="44.34917" lon="5.12926">
        <ele>297.7</ele>
        <time>2021-02-24T15:56:25Z</time>
      </trkpt>
      <trkpt lat="44.34916" lon="5.12941">
        <ele>297.3</ele>
        <time>2021-02-24T15:56:26Z</time>
      </trkpt>
      <trkpt lat="44.34915" lon="5.12955">
        <ele>296.9</ele>
        <time>2021-02-24T15:56:27Z</time>
      </trkpt>
      <trkpt lat="44.34916" lon="5.12968">
        <ele>296.5</ele>
        <time>2021-02-24T15:56:28Z</time>
      </trkpt>
      <trkpt lat="44.34918" lon="5.1298">
        <ele>296.1</ele>
        <time>2021-02-24T15:56:29Z</time>
      </trkpt>
      <trkpt lat="44.34924" lon="5.12991">
        <ele>295.6</ele>
        <time>2021-02-24T15:56:30Z</time>
      </trkpt>
      <trkpt lat="44.3493" lon="5.13001">
        <ele>295.1</ele>
        <time>2021-02-24T15:56:31Z</time>
      </trkpt>
      <trkpt lat="44.34936" lon="5.13012">
        <ele>294.6</ele>
        <time>2021-02-24T15:56:32Z</time>
      </trkpt>
      <trkpt lat="44.3494" lon="5.13024">
        <ele>294.4</ele>
        <time>2021-02-24T15:56:33Z</time>
      </trkpt>
      <trkpt lat="44.34944" lon="5.13035">
        <ele>294.2</ele>
        <time>2021-02-24T15:56:34Z</time>
      </trkpt>
      <trkpt lat="44.34944" lon="5.13035">
        <ele>294.2</ele>
        <time>2021-02-24T15:56:35Z</time>
      </trkpt>
      <trkpt lat="44.34958" lon="5.13053">
        <ele>293.6</ele>
        <time>2021-02-24T15:56:36Z</time>
      </trkpt>
      <trkpt lat="44.34961" lon="5.13054">
        <ele>293.5</ele>
        <time>2021-02-24T15:56:37Z</time>
      </trkpt>
      <trkpt lat="44.34971" lon="5.13054">
        <ele>292.8</ele>
        <time>2021-02-24T15:56:38Z</time>
      </trkpt>
      <trkpt lat="44.34975" lon="5.13052">
        <ele>292.5</ele>
        <time>2021-02-24T15:56:39Z</time>
      </trkpt>
      <trkpt lat="44.34988" lon="5.13051">
        <ele>291.6</ele>
        <time>2021-02-24T15:56:40Z</time>
      </trkpt>
      <trkpt lat="44.34992" lon="5.13052">
        <ele>291.3</ele>
        <time>2021-02-24T15:56:41Z</time>
      </trkpt>
      <trkpt lat="44.35005" lon="5.13059">
        <ele>290.5</ele>
        <time>2021-02-24T15:56:42Z</time>
      </trkpt>
      <trkpt lat="44.35009" lon="5.13063">
        <ele>290.3</ele>
        <time>2021-02-24T15:56:43Z</time>
      </trkpt>
      <trkpt lat="44.35017" lon="5.1307">
        <ele>289.8</ele>
        <time>2021-02-24T15:56:44Z</time>
      </trkpt>
      <trkpt lat="44.35023" lon="5.1308">
        <ele>289.3</ele>
        <time>2021-02-24T15:56:45Z</time>
      </trkpt>
      <trkpt lat="44.35029" lon="5.13091">
        <ele>288.7</ele>
        <time>2021-02-24T15:56:46Z</time>
      </trkpt>
      <trkpt lat="44.35035" lon="5.13103">
        <ele>288.1</ele>
        <time>2021-02-24T15:56:47Z</time>
      </trkpt>
      <trkpt lat="44.35039" lon="5.13116">
        <ele>287.4</ele>
        <time>2021-02-24T15:56:48Z</time>
      </trkpt>
      <trkpt lat="44.35044" lon="5.13128">
        <ele>286.8</ele>
        <time>2021-02-24T15:56:49Z</time>
      </trkpt>
      <trkpt lat="44.35049" lon="5.1314">
        <ele>286.2</ele>
        <time>2021-02-24T15:56:50Z</time>
      </trkpt>
      <trkpt lat="44.35054" lon="5.13151">
        <ele>285.6</ele>
        <time>2021-02-24T15:56:51Z</time>
      </trkpt>
      <trkpt lat="44.3506" lon="5.13162">
        <ele>285</ele>
        <time>2021-02-24T15:56:52Z</time>
      </trkpt>
      <trkpt lat="44.35068" lon="5.13174">
        <ele>284.4</ele>
        <time>2021-02-24T15:56:53Z</time>
      </trkpt>
      <trkpt lat="44.35076" lon="5.13185">
        <ele>283.8</ele>
        <time>2021-02-24T15:56:54Z</time>
      </trkpt>
      <trkpt lat="44.35083" lon="5.13196">
        <ele>283.3</ele>
        <time>2021-02-24T15:56:55Z</time>
      </trkpt>
      <trkpt lat="44.35091" lon="5.13207">
        <ele>282.7</ele>
        <time>2021-02-24T15:56:56Z</time>
      </trkpt>
      <trkpt lat="44.35098" lon="5.13219">
        <ele>282.2</ele>
        <time>2021-02-24T15:56:57Z</time>
      </trkpt>
      <trkpt lat="44.35106" lon="5.1323">
        <ele>281.7</ele>
        <time>2021-02-24T15:56:58Z</time>
      </trkpt>
      <trkpt lat="44.35112" lon="5.13242">
        <ele>281.2</ele>
        <time>2021-02-24T15:56:59Z</time>
      </trkpt>
      <trkpt lat="44.35118" lon="5.13255">
        <ele>280.8</ele>
        <time>2021-02-24T15:57:00Z</time>
      </trkpt>
      <trkpt lat="44.35123" lon="5.13268">
        <ele>280.3</ele>
        <time>2021-02-24T15:57:01Z</time>
      </trkpt>
      <trkpt lat="44.35126" lon="5.13281">
        <ele>279.9</ele>
        <time>2021-02-24T15:57:02Z</time>
      </trkpt>
      <trkpt lat="44.35132" lon="5.13293">
        <ele>279.4</ele>
        <time>2021-02-24T15:57:03Z</time>
      </trkpt>
      <trkpt lat="44.35138" lon="5.13303">
        <ele>279</ele>
        <time>2021-02-24T15:57:04Z</time>
      </trkpt>
      <trkpt lat="44.35138" lon="5.13303">
        <ele>279</ele>
        <time>2021-02-24T15:57:05Z</time>
      </trkpt>
      <trkpt lat="44.35152" lon="5.13325">
        <ele>278.2</ele>
        <time>2021-02-24T15:57:06Z</time>
      </trkpt>
      <trkpt lat="44.35156" lon="5.13329">
        <ele>278</ele>
        <time>2021-02-24T15:57:07Z</time>
      </trkpt>
      <trkpt lat="44.35165" lon="5.13341">
        <ele>277.6</ele>
        <time>2021-02-24T15:57:08Z</time>
      </trkpt>
      <trkpt lat="44.35168" lon="5.13345">
        <ele>277.4</ele>
        <time>2021-02-24T15:57:09Z</time>
      </trkpt>
      <trkpt lat="44.35178" lon="5.13357">
        <ele>276.9</ele>
        <time>2021-02-24T15:57:10Z</time>
      </trkpt>
      <trkpt lat="44.35181" lon="5.13361">
        <ele>276.7</ele>
        <time>2021-02-24T15:57:11Z</time>
      </trkpt>
      <trkpt lat="44.3519" lon="5.1337">
        <ele>276.3</ele>
        <time>2021-02-24T15:57:12Z</time>
      </trkpt>
      <trkpt lat="44.35192" lon="5.13371">
        <ele>276.2</ele>
        <time>2021-02-24T15:57:13Z</time>
      </trkpt>
      <trkpt lat="44.35195" lon="5.13375">
        <ele>276</ele>
        <time>2021-02-24T15:57:14Z</time>
      </trkpt>
      <trkpt lat="44.35215" lon="5.13389">
        <ele>275.1</ele>
        <time>2021-02-24T15:57:15Z</time>
      </trkpt>
      <trkpt lat="44.3522" lon="5.13392">
        <ele>274.8</ele>
        <time>2021-02-24T15:57:16Z</time>
      </trkpt>
      <trkpt lat="44.35228" lon="5.13397">
        <ele>274.4</ele>
        <time>2021-02-24T15:57:17Z</time>
      </trkpt>
      <trkpt lat="44.35228" lon="5.13397">
        <ele>274.4</ele>
        <time>2021-02-24T15:57:18Z</time>
      </trkpt>
      <trkpt lat="44.35247" lon="5.13414">
        <ele>273.5</ele>
        <time>2021-02-24T15:57:19Z</time>
      </trkpt>
      <trkpt lat="44.3525" lon="5.13418">
        <ele>273.3</ele>
        <time>2021-02-24T15:57:20Z</time>
      </trkpt>
      <trkpt lat="44.3526" lon="5.1343">
        <ele>272.9</ele>
        <time>2021-02-24T15:57:21Z</time>
      </trkpt>
      <trkpt lat="44.35263" lon="5.13435">
        <ele>272.7</ele>
        <time>2021-02-24T15:57:22Z</time>
      </trkpt>
      <trkpt lat="44.3527" lon="5.13449">
        <ele>272.2</ele>
        <time>2021-02-24T15:57:23Z</time>
      </trkpt>
      <trkpt lat="44.35272" lon="5.13455">
        <ele>272</ele>
        <time>2021-02-24T15:57:24Z</time>
      </trkpt>
      <trkpt lat="44.35278" lon="5.13471">
        <ele>271.5</ele>
        <time>2021-02-24T15:57:25Z</time>
      </trkpt>
      <trkpt lat="44.3528" lon="5.13476">
        <ele>271.2</ele>
        <time>2021-02-24T15:57:26Z</time>
      </trkpt>
      <trkpt lat="44.35289" lon="5.1349">
        <ele>270.7</ele>
        <time>2021-02-24T15:57:27Z</time>
      </trkpt>
      <trkpt lat="44.35293" lon="5.13493">
        <ele>270.5</ele>
        <time>2021-02-24T15:57:28Z</time>
      </trkpt>
      <trkpt lat="44.353" lon="5.135">
        <ele>270.3</ele>
        <time>2021-02-24T15:57:29Z</time>
      </trkpt>
      <trkpt lat="44.35309" lon="5.13505">
        <ele>270</ele>
        <time>2021-02-24T15:57:30Z</time>
      </trkpt>
      <trkpt lat="44.35309" lon="5.13505">
        <ele>270</ele>
        <time>2021-02-24T15:57:31Z</time>
      </trkpt>
      <trkpt lat="44.35329" lon="5.13517">
        <ele>269.1</ele>
        <time>2021-02-24T15:57:32Z</time>
      </trkpt>
      <trkpt lat="44.35333" lon="5.13519">
        <ele>268.9</ele>
        <time>2021-02-24T15:57:33Z</time>
      </trkpt>
      <trkpt lat="44.35342" lon="5.13526">
        <ele>268.3</ele>
        <time>2021-02-24T15:57:34Z</time>
      </trkpt>
      <trkpt lat="44.35344" lon="5.13528">
        <ele>268.4</ele>
        <time>2021-02-24T15:57:35Z</time>
      </trkpt>
      <trkpt lat="44.35348" lon="5.13531">
        <ele>268.4</ele>
        <time>2021-02-24T15:57:36Z</time>
      </trkpt>
      <trkpt lat="44.35363" lon="5.13554">
        <ele>268.8</ele>
        <time>2021-02-24T15:57:37Z</time>
      </trkpt>
      <trkpt lat="44.35365" lon="5.13559">
        <ele>268.9</ele>
        <time>2021-02-24T15:57:38Z</time>
      </trkpt>
      <trkpt lat="44.35373" lon="5.13573">
        <ele>269.2</ele>
        <time>2021-02-24T15:57:39Z</time>
      </trkpt>
      <trkpt lat="44.35376" lon="5.13577">
        <ele>269.2</ele>
        <time>2021-02-24T15:57:40Z</time>
      </trkpt>
      <trkpt lat="44.35382" lon="5.13586">
        <ele>269.4</ele>
        <time>2021-02-24T15:57:41Z</time>
      </trkpt>
      <trkpt lat="44.35388" lon="5.13593">
        <ele>269.5</ele>
        <time>2021-02-24T15:57:42Z</time>
      </trkpt>
      <trkpt lat="44.35394" lon="5.13599">
        <ele>269.6</ele>
        <time>2021-02-24T15:57:43Z</time>
      </trkpt>
      <trkpt lat="44.35399" lon="5.13606">
        <ele>269.7</ele>
        <time>2021-02-24T15:57:44Z</time>
      </trkpt>
      <trkpt lat="44.35404" lon="5.13613">
        <ele>269.8</ele>
        <time>2021-02-24T15:57:45Z</time>
      </trkpt>
      <trkpt lat="44.35409" lon="5.13619">
        <ele>269.9</ele>
        <time>2021-02-24T15:57:46Z</time>
      </trkpt>
      <trkpt lat="44.35415" lon="5.13625">
        <ele>270</ele>
        <time>2021-02-24T15:57:47Z</time>
      </trkpt>
      <trkpt lat="44.3542" lon="5.13631">
        <ele>270</ele>
        <time>2021-02-24T15:57:48Z</time>
      </trkpt>
      <trkpt lat="44.35426" lon="5.13636">
        <ele>270.1</ele>
        <time>2021-02-24T15:57:49Z</time>
      </trkpt>
      <trkpt lat="44.35431" lon="5.13642">
        <ele>270.2</ele>
        <time>2021-02-24T15:57:50Z</time>
      </trkpt>
      <trkpt lat="44.35436" lon="5.13647">
        <ele>270.2</ele>
        <time>2021-02-24T15:57:51Z</time>
      </trkpt>
      <trkpt lat="44.35442" lon="5.13653">
        <ele>270.3</ele>
        <time>2021-02-24T15:57:52Z</time>
      </trkpt>
      <trkpt lat="44.35447" lon="5.13658">
        <ele>270.3</ele>
        <time>2021-02-24T15:57:53Z</time>
      </trkpt>
      <trkpt lat="44.35453" lon="5.13663">
        <ele>270.4</ele>
        <time>2021-02-24T15:57:54Z</time>
      </trkpt>
      <trkpt lat="44.35458" lon="5.13669">
        <ele>270.5</ele>
        <time>2021-02-24T15:57:55Z</time>
      </trkpt>
      <trkpt lat="44.35464" lon="5.13674">
        <ele>270.5</ele>
        <time>2021-02-24T15:57:56Z</time>
      </trkpt>
      <trkpt lat="44.35469" lon="5.1368">
        <ele>270.6</ele>
        <time>2021-02-24T15:57:57Z</time>
      </trkpt>
      <trkpt lat="44.35474" lon="5.13685">
        <ele>270.6</ele>
        <time>2021-02-24T15:57:58Z</time>
      </trkpt>
      <trkpt lat="44.3548" lon="5.13691">
        <ele>270.7</ele>
        <time>2021-02-24T15:57:59Z</time>
      </trkpt>
      <trkpt lat="44.35485" lon="5.13697">
        <ele>270.7</ele>
        <time>2021-02-24T15:58:00Z</time>
      </trkpt>
      <trkpt lat="44.3549" lon="5.13703">
        <ele>270.8</ele>
        <time>2021-02-24T15:58:01Z</time>
      </trkpt>
      <trkpt lat="44.35494" lon="5.1371">
        <ele>270.8</ele>
        <time>2021-02-24T15:58:02Z</time>
      </trkpt>
      <trkpt lat="44.35499" lon="5.13717">
        <ele>270.8</ele>
        <time>2021-02-24T15:58:03Z</time>
      </trkpt>
      <trkpt lat="44.35503" lon="5.13723">
        <ele>270.8</ele>
        <time>2021-02-24T15:58:04Z</time>
      </trkpt>
      <trkpt lat="44.35507" lon="5.1373">
        <ele>270.9</ele>
        <time>2021-02-24T15:58:05Z</time>
      </trkpt>
      <trkpt lat="44.35511" lon="5.13737">
        <ele>270.9</ele>
        <time>2021-02-24T15:58:06Z</time>
      </trkpt>
      <trkpt lat="44.35514" lon="5.13745">
        <ele>270.9</ele>
        <time>2021-02-24T15:58:07Z</time>
      </trkpt>
      <trkpt lat="44.35518" lon="5.13752">
        <ele>271</ele>
        <time>2021-02-24T15:58:08Z</time>
      </trkpt>
      <trkpt lat="44.35522" lon="5.13759">
        <ele>271.1</ele>
        <time>2021-02-24T15:58:09Z</time>
      </trkpt>
      <trkpt lat="44.35525" lon="5.13767">
        <ele>271.2</ele>
        <time>2021-02-24T15:58:10Z</time>
      </trkpt>
      <trkpt lat="44.35528" lon="5.13775">
        <ele>271.3</ele>
        <time>2021-02-24T15:58:11Z</time>
      </trkpt>
      <trkpt lat="44.35531" lon="5.13782">
        <ele>271.4</ele>
        <time>2021-02-24T15:58:12Z</time>
      </trkpt>
      <trkpt lat="44.35535" lon="5.13789">
        <ele>271.5</ele>
        <time>2021-02-24T15:58:13Z</time>
      </trkpt>
      <trkpt lat="44.35538" lon="5.13797">
        <ele>271.6</ele>
        <time>2021-02-24T15:58:14Z</time>
      </trkpt>
      <trkpt lat="44.35541" lon="5.13804">
        <ele>271.8</ele>
        <time>2021-02-24T15:58:15Z</time>
      </trkpt>
      <trkpt lat="44.35544" lon="5.13811">
        <ele>271.9</ele>
        <time>2021-02-24T15:58:16Z</time>
      </trkpt>
      <trkpt lat="44.35547" lon="5.13818">
        <ele>272</ele>
        <time>2021-02-24T15:58:17Z</time>
      </trkpt>
      <trkpt lat="44.3555" lon="5.13825">
        <ele>272.2</ele>
        <time>2021-02-24T15:58:18Z</time>
      </trkpt>
      <trkpt lat="44.35553" lon="5.13832">
        <ele>272.3</ele>
        <time>2021-02-24T15:58:19Z</time>
      </trkpt>
      <trkpt lat="44.35556" lon="5.13838">
        <ele>272.4</ele>
        <time>2021-02-24T15:58:20Z</time>
      </trkpt>
      <trkpt lat="44.35559" lon="5.13845">
        <ele>272.6</ele>
        <time>2021-02-24T15:58:21Z</time>
      </trkpt>
      <trkpt lat="44.35562" lon="5.13852">
        <ele>272.7</ele>
        <time>2021-02-24T15:58:22Z</time>
      </trkpt>
      <trkpt lat="44.35565" lon="5.13858">
        <ele>272.8</ele>
        <time>2021-02-24T15:58:23Z</time>
      </trkpt>
      <trkpt lat="44.35568" lon="5.13865">
        <ele>272.9</ele>
        <time>2021-02-24T15:58:24Z</time>
      </trkpt>
      <trkpt lat="44.35571" lon="5.13872">
        <ele>273</ele>
        <time>2021-02-24T15:58:25Z</time>
      </trkpt>
      <trkpt lat="44.35574" lon="5.13878">
        <ele>273.1</ele>
        <time>2021-02-24T15:58:26Z</time>
      </trkpt>
      <trkpt lat="44.35577" lon="5.13885">
        <ele>273.2</ele>
        <time>2021-02-24T15:58:27Z</time>
      </trkpt>
      <trkpt lat="44.35581" lon="5.13891">
        <ele>273.3</ele>
        <time>2021-02-24T15:58:28Z</time>
      </trkpt>
      <trkpt lat="44.35584" lon="5.13898">
        <ele>273.5</ele>
        <time>2021-02-24T15:58:29Z</time>
      </trkpt>
      <trkpt lat="44.35587" lon="5.13905">
        <ele>273.6</ele>
        <time>2021-02-24T15:58:30Z</time>
      </trkpt>
      <trkpt lat="44.3559" lon="5.13911">
        <ele>273.7</ele>
        <time>2021-02-24T15:58:31Z</time>
      </trkpt>
      <trkpt lat="44.35593" lon="5.13918">
        <ele>273.9</ele>
        <time>2021-02-24T15:58:32Z</time>
      </trkpt>
      <trkpt lat="44.35596" lon="5.13925">
        <ele>274</ele>
        <time>2021-02-24T15:58:33Z</time>
      </trkpt>
      <trkpt lat="44.35598" lon="5.13931">
        <ele>274.1</ele>
        <time>2021-02-24T15:58:34Z</time>
      </trkpt>
      <trkpt lat="44.35601" lon="5.13937">
        <ele>274.2</ele>
        <time>2021-02-24T15:58:35Z</time>
      </trkpt>
      <trkpt lat="44.35601" lon="5.13937">
        <ele>274.2</ele>
        <time>2021-02-24T15:58:36Z</time>
      </trkpt>
      <trkpt lat="44.35609" lon="5.13953">
        <ele>274.5</ele>
        <time>2021-02-24T15:58:37Z</time>
      </trkpt>
      <trkpt lat="44.3561" lon="5.13956">
        <ele>274.6</ele>
        <time>2021-02-24T15:58:38Z</time>
      </trkpt>
      <trkpt lat="44.35614" lon="5.13965">
        <ele>274.8</ele>
        <time>2021-02-24T15:58:39Z</time>
      </trkpt>
      <trkpt lat="44.35616" lon="5.13968">
        <ele>274.9</ele>
        <time>2021-02-24T15:58:40Z</time>
      </trkpt>
      <trkpt lat="44.35618" lon="5.13974">
        <ele>275</ele>
        <time>2021-02-24T15:58:41Z</time>
      </trkpt>
      <trkpt lat="44.35621" lon="5.1398">
        <ele>275.1</ele>
        <time>2021-02-24T15:58:42Z</time>
      </trkpt>
      <trkpt lat="44.35624" lon="5.13986">
        <ele>275.2</ele>
        <time>2021-02-24T15:58:43Z</time>
      </trkpt>
      <trkpt lat="44.35627" lon="5.13992">
        <ele>275.3</ele>
        <time>2021-02-24T15:58:44Z</time>
      </trkpt>
      <trkpt lat="44.3563" lon="5.13997">
        <ele>275.5</ele>
        <time>2021-02-24T15:58:45Z</time>
      </trkpt>
      <trkpt lat="44.35634" lon="5.14003">
        <ele>275.6</ele>
        <time>2021-02-24T15:58:46Z</time>
      </trkpt>
      <trkpt lat="44.35637" lon="5.14008">
        <ele>275.7</ele>
        <time>2021-02-24T15:58:47Z</time>
      </trkpt>
      <trkpt lat="44.3564" lon="5.14014">
        <ele>275.7</ele>
        <time>2021-02-24T15:58:48Z</time>
      </trkpt>
      <trkpt lat="44.35644" lon="5.1402">
        <ele>275.8</ele>
        <time>2021-02-24T15:58:49Z</time>
      </trkpt>
      <trkpt lat="44.35648" lon="5.14025">
        <ele>275.8</ele>
        <time>2021-02-24T15:58:50Z</time>
      </trkpt>
      <trkpt lat="44.35651" lon="5.14031">
        <ele>275.8</ele>
        <time>2021-02-24T15:58:51Z</time>
      </trkpt>
      <trkpt lat="44.35655" lon="5.14036">
        <ele>275.8</ele>
        <time>2021-02-24T15:58:52Z</time>
      </trkpt>
      <trkpt lat="44.35655" lon="5.14036">
        <ele>275.8</ele>
        <time>2021-02-24T15:58:53Z</time>
      </trkpt>
      <trkpt lat="44.35665" lon="5.1405">
        <ele>275.7</ele>
        <time>2021-02-24T15:58:54Z</time>
      </trkpt>
      <trkpt lat="44.35667" lon="5.14053">
        <ele>275.7</ele>
        <time>2021-02-24T15:58:55Z</time>
      </trkpt>
      <trkpt lat="44.35671" lon="5.14058">
        <ele>275.7</ele>
        <time>2021-02-24T15:58:56Z</time>
      </trkpt>
      <trkpt lat="44.35675" lon="5.14064">
        <ele>275.6</ele>
        <time>2021-02-24T15:58:57Z</time>
      </trkpt>
      <trkpt lat="44.35679" lon="5.14069">
        <ele>275.5</ele>
        <time>2021-02-24T15:58:58Z</time>
      </trkpt>
      <trkpt lat="44.35683" lon="5.14075">
        <ele>275.4</ele>
        <time>2021-02-24T15:58:59Z</time>
      </trkpt>
      <trkpt lat="44.35687" lon="5.1408">
        <ele>275.3</ele>
        <time>2021-02-24T15:59:00Z</time>
      </trkpt>
      <trkpt lat="44.35691" lon="5.14086">
        <ele>275.2</ele>
        <time>2021-02-24T15:59:01Z</time>
      </trkpt>
      <trkpt lat="44.35696" lon="5.14092">
        <ele>275.1</ele>
        <time>2021-02-24T15:59:02Z</time>
      </trkpt>
      <trkpt lat="44.357" lon="5.14097">
        <ele>274.9</ele>
        <time>2021-02-24T15:59:03Z</time>
      </trkpt>
      <trkpt lat="44.35705" lon="5.14103">
        <ele>274.7</ele>
        <time>2021-02-24T15:59:04Z</time>
      </trkpt>
      <trkpt lat="44.3571" lon="5.1411">
        <ele>274.5</ele>
        <time>2021-02-24T15:59:05Z</time>
      </trkpt>
      <trkpt lat="44.35714" lon="5.14116">
        <ele>274.2</ele>
        <time>2021-02-24T15:59:06Z</time>
      </trkpt>
      <trkpt lat="44.35719" lon="5.14123">
        <ele>274</ele>
        <time>2021-02-24T15:59:07Z</time>
      </trkpt>
      <trkpt lat="44.35719" lon="5.14123">
        <ele>274</ele>
        <time>2021-02-24T15:59:08Z</time>
      </trkpt>
      <trkpt lat="44.35733" lon="5.14139">
        <ele>273.4</ele>
        <time>2021-02-24T15:59:09Z</time>
      </trkpt>
      <trkpt lat="44.35736" lon="5.14143">
        <ele>273.3</ele>
        <time>2021-02-24T15:59:10Z</time>
      </trkpt>
      <trkpt lat="44.35744" lon="5.14153">
        <ele>273.1</ele>
        <time>2021-02-24T15:59:11Z</time>
      </trkpt>
      <trkpt lat="44.35746" lon="5.14156">
        <ele>273</ele>
        <time>2021-02-24T15:59:12Z</time>
      </trkpt>
      <trkpt lat="44.35754" lon="5.14165">
        <ele>272.8</ele>
        <time>2021-02-24T15:59:13Z</time>
      </trkpt>
      <trkpt lat="44.35756" lon="5.14169">
        <ele>272.7</ele>
        <time>2021-02-24T15:59:14Z</time>
      </trkpt>
      <trkpt lat="44.35761" lon="5.14179">
        <ele>272.6</ele>
        <time>2021-02-24T15:59:15Z</time>
      </trkpt>
      <trkpt lat="44.35763" lon="5.14182">
        <ele>272.5</ele>
        <time>2021-02-24T15:59:16Z</time>
      </trkpt>
      <trkpt lat="44.35767" lon="5.14192">
        <ele>272.4</ele>
        <time>2021-02-24T15:59:17Z</time>
      </trkpt>
      <trkpt lat="44.35769" lon="5.14194">
        <ele>272.4</ele>
        <time>2021-02-24T15:59:18Z</time>
      </trkpt>
      <trkpt lat="44.35775" lon="5.14202">
        <ele>272.4</ele>
        <time>2021-02-24T15:59:19Z</time>
      </trkpt>
      <trkpt lat="44.35777" lon="5.14203">
        <ele>272.4</ele>
        <time>2021-02-24T15:59:20Z</time>
      </trkpt>
      <trkpt lat="44.35784" lon="5.14205">
        <ele>272.4</ele>
        <time>2021-02-24T15:59:21Z</time>
      </trkpt>
      <trkpt lat="44.35786" lon="5.14204">
        <ele>272.4</ele>
        <time>2021-02-24T15:59:22Z</time>
      </trkpt>
      <trkpt lat="44.35793" lon="5.14196">
        <ele>272.6</ele>
        <time>2021-02-24T15:59:23Z</time>
      </trkpt>
      <trkpt lat="44.35794" lon="5.14192">
        <ele>272.7</ele>
        <time>2021-02-24T15:59:24Z</time>
      </trkpt>
      <trkpt lat="44.35799" lon="5.1418">
        <ele>272.3</ele>
        <time>2021-02-24T15:59:25Z</time>
      </trkpt>
      <trkpt lat="44.35801" lon="5.14176">
        <ele>272.2</ele>
        <time>2021-02-24T15:59:26Z</time>
      </trkpt>
      <trkpt lat="44.35806" lon="5.14165">
        <ele>271.9</ele>
        <time>2021-02-24T15:59:27Z</time>
      </trkpt>
      <trkpt lat="44.35808" lon="5.14162">
        <ele>271.7</ele>
        <time>2021-02-24T15:59:28Z</time>
      </trkpt>
      <trkpt lat="44.35815" lon="5.14152">
        <ele>271.3</ele>
        <time>2021-02-24T15:59:29Z</time>
      </trkpt>
      <trkpt lat="44.35818" lon="5.14149">
        <ele>271.1</ele>
        <time>2021-02-24T15:59:30Z</time>
      </trkpt>
      <trkpt lat="44.35825" lon="5.14139">
        <ele>270.6</ele>
        <time>2021-02-24T15:59:31Z</time>
      </trkpt>
      <trkpt lat="44.35828" lon="5.14136">
        <ele>270.5</ele>
        <time>2021-02-24T15:59:32Z</time>
      </trkpt>
      <trkpt lat="44.35835" lon="5.14127">
        <ele>270.1</ele>
        <time>2021-02-24T15:59:33Z</time>
      </trkpt>
      <trkpt lat="44.35838" lon="5.14124">
        <ele>270</ele>
        <time>2021-02-24T15:59:34Z</time>
      </trkpt>
      <trkpt lat="44.35843" lon="5.14118">
        <ele>269.7</ele>
        <time>2021-02-24T15:59:35Z</time>
      </trkpt>
      <trkpt lat="44.35848" lon="5.14111">
        <ele>269.5</ele>
        <time>2021-02-24T15:59:36Z</time>
      </trkpt>
      <trkpt lat="44.35853" lon="5.14105">
        <ele>269.2</ele>
        <time>2021-02-24T15:59:37Z</time>
      </trkpt>
      <trkpt lat="44.35858" lon="5.14099">
        <ele>269</ele>
        <time>2021-02-24T15:59:38Z</time>
      </trkpt>
      <trkpt lat="44.35862" lon="5.14094">
        <ele>268.9</ele>
        <time>2021-02-24T15:59:39Z</time>
      </trkpt>
      <trkpt lat="44.35866" lon="5.14089">
        <ele>268.7</ele>
        <time>2021-02-24T15:59:40Z</time>
      </trkpt>
      <trkpt lat="44.35869" lon="5.14085">
        <ele>268.6</ele>
        <time>2021-02-24T15:59:41Z</time>
      </trkpt>
      <trkpt lat="44.35872" lon="5.14081">
        <ele>268.5</ele>
        <time>2021-02-24T15:59:42Z</time>
      </trkpt>
      <trkpt lat="44.35875" lon="5.14079">
        <ele>268.5</ele>
        <time>2021-02-24T15:59:43Z</time>
      </trkpt>
      <trkpt lat="44.35878" lon="5.14077">
        <ele>268.5</ele>
        <time>2021-02-24T15:59:44Z</time>
      </trkpt>
      <trkpt lat="44.35881" lon="5.14078">
        <ele>268.5</ele>
        <time>2021-02-24T15:59:45Z</time>
      </trkpt>
      <trkpt lat="44.35884" lon="5.14079">
        <ele>268.5</ele>
        <time>2021-02-24T15:59:46Z</time>
      </trkpt>
      <trkpt lat="44.35886" lon="5.1408">
        <ele>268.5</ele>
        <time>2021-02-24T15:59:47Z</time>
      </trkpt>
      <trkpt lat="44.35886" lon="5.1408">
        <ele>268.5</ele>
        <time>2021-02-24T15:59:48Z</time>
      </trkpt>
      <trkpt lat="44.35888" lon="5.14079">
        <ele>268.4</ele>
        <time>2021-02-24T15:59:49Z</time>
      </trkpt>
      <trkpt lat="44.35888" lon="5.14079">
        <ele>268.4</ele>
        <time>2021-02-24T15:59:50Z</time>
      </trkpt>
      <trkpt lat="44.35888" lon="5.14078">
        <ele>268.4</ele>
        <time>2021-02-24T15:59:51Z</time>
      </trkpt>
      <trkpt lat="44.35889" lon="5.14077">
        <ele>268.4</ele>
        <time>2021-02-24T15:59:52Z</time>
      </trkpt>
      <trkpt lat="44.3589" lon="5.14075">
        <ele>268.4</ele>
        <time>2021-02-24T15:59:53Z</time>
      </trkpt>
      <trkpt lat="44.3589" lon="5.14074">
        <ele>268.4</ele>
        <time>2021-02-24T15:59:54Z</time>
      </trkpt>
      <trkpt lat="44.35891" lon="5.14073">
        <ele>268.4</ele>
        <time>2021-02-24T16:02:17Z</time>
      </trkpt>
      <trkpt lat="44.35891" lon="5.14072">
        <ele>268.4</ele>
        <time>2021-02-24T16:02:18Z</time>
      </trkpt>
      <trkpt lat="44.35892" lon="5.1407">
        <ele>268.4</ele>
        <time>2021-02-24T16:02:19Z</time>
      </trkpt>
      <trkpt lat="44.35893" lon="5.14069">
        <ele>268.4</ele>
        <time>2021-02-24T16:02:20Z</time>
      </trkpt>
      <trkpt lat="44.35893" lon="5.14068">
        <ele>268</ele>
        <time>2021-02-24T16:03:03Z</time>
      </trkpt>
      <trkpt lat="44.35894" lon="5.14066">
        <ele>268</ele>
        <time>2021-02-24T16:03:04Z</time>
      </trkpt>
      <trkpt lat="44.35895" lon="5.14065">
        <ele>268</ele>
        <time>2021-02-24T16:03:05Z</time>
      </trkpt>
      <trkpt lat="44.35895" lon="5.14064">
        <ele>267.9</ele>
        <time>2021-02-24T16:03:06Z</time>
      </trkpt>
      <trkpt lat="44.35896" lon="5.14062">
        <ele>267.9</ele>
        <time>2021-02-24T16:03:07Z</time>
      </trkpt>
      <trkpt lat="44.35896" lon="5.14061">
        <ele>267.8</ele>
        <time>2021-02-24T16:03:08Z</time>
      </trkpt>
      <trkpt lat="44.35897" lon="5.1406">
        <ele>267.8</ele>
        <time>2021-02-24T16:03:09Z</time>
      </trkpt>
      <trkpt lat="44.35899" lon="5.14057">
        <ele>267.7</ele>
        <time>2021-02-24T16:03:10Z</time>
      </trkpt>
      <trkpt lat="44.35902" lon="5.14055">
        <ele>267.5</ele>
        <time>2021-02-24T16:03:11Z</time>
      </trkpt>
      <trkpt lat="44.35904" lon="5.14052">
        <ele>267.4</ele>
        <time>2021-02-24T16:03:12Z</time>
      </trkpt>
      <trkpt lat="44.35909" lon="5.14049">
        <ele>267.3</ele>
        <time>2021-02-24T16:03:13Z</time>
      </trkpt>
      <trkpt lat="44.35913" lon="5.14046">
        <ele>267.1</ele>
        <time>2021-02-24T16:03:14Z</time>
      </trkpt>
      <trkpt lat="44.35918" lon="5.14043">
        <ele>267</ele>
        <time>2021-02-24T16:03:15Z</time>
      </trkpt>
      <trkpt lat="44.35923" lon="5.1404">
        <ele>266.8</ele>
        <time>2021-02-24T16:03:16Z</time>
      </trkpt>
      <trkpt lat="44.35925" lon="5.14039">
        <ele>266.8</ele>
        <time>2021-02-24T16:03:17Z</time>
      </trkpt>
      <trkpt lat="44.35929" lon="5.14037">
        <ele>266.8</ele>
        <time>2021-02-24T16:03:18Z</time>
      </trkpt>
      <trkpt lat="44.35933" lon="5.14036">
        <ele>266.7</ele>
        <time>2021-02-24T16:03:19Z</time>
      </trkpt>
      <trkpt lat="44.35933" lon="5.14036">
        <ele>266.7</ele>
        <time>2021-02-24T16:03:20Z</time>
      </trkpt>
      <trkpt lat="44.35943" lon="5.14032">
        <ele>266.7</ele>
        <time>2021-02-24T16:03:21Z</time>
      </trkpt>
      <trkpt lat="44.35945" lon="5.14032">
        <ele>266.7</ele>
        <time>2021-02-24T16:03:22Z</time>
      </trkpt>
      <trkpt lat="44.35949" lon="5.1403">
        <ele>266.7</ele>
        <time>2021-02-24T16:03:23Z</time>
      </trkpt>
      <trkpt lat="44.35952" lon="5.14028">
        <ele>266.8</ele>
        <time>2021-02-24T16:03:24Z</time>
      </trkpt>
      <trkpt lat="44.35955" lon="5.14027">
        <ele>266.8</ele>
        <time>2021-02-24T16:03:25Z</time>
      </trkpt>
      <trkpt lat="44.35959" lon="5.14026">
        <ele>266.8</ele>
        <time>2021-02-24T16:03:26Z</time>
      </trkpt>
      <trkpt lat="44.35963" lon="5.14024">
        <ele>266.9</ele>
        <time>2021-02-24T16:03:27Z</time>
      </trkpt>
      <trkpt lat="44.35967" lon="5.14022">
        <ele>267</ele>
        <time>2021-02-24T16:03:28Z</time>
      </trkpt>
      <trkpt lat="44.35967" lon="5.14022">
        <ele>267</ele>
        <time>2021-02-24T16:03:29Z</time>
      </trkpt>
      <trkpt lat="44.35971" lon="5.14021">
        <ele>267.1</ele>
        <time>2021-02-24T16:03:30Z</time>
      </trkpt>
      <trkpt lat="44.35975" lon="5.1402">
        <ele>267.2</ele>
        <time>2021-02-24T16:03:31Z</time>
      </trkpt>
      <trkpt lat="44.35979" lon="5.14018">
        <ele>267.3</ele>
        <time>2021-02-24T16:03:32Z</time>
      </trkpt>
      <trkpt lat="44.35982" lon="5.14016">
        <ele>267.4</ele>
        <time>2021-02-24T16:03:33Z</time>
      </trkpt>
      <trkpt lat="44.35985" lon="5.14015">
        <ele>267.5</ele>
        <time>2021-02-24T16:03:34Z</time>
      </trkpt>
      <trkpt lat="44.35989" lon="5.14013">
        <ele>267.5</ele>
        <time>2021-02-24T16:03:35Z</time>
      </trkpt>
      <trkpt lat="44.35993" lon="5.14012">
        <ele>267.6</ele>
        <time>2021-02-24T16:03:36Z</time>
      </trkpt>
      <trkpt lat="44.35997" lon="5.14011">
        <ele>267.7</ele>
        <time>2021-02-24T16:03:37Z</time>
      </trkpt>
      <trkpt lat="44.36001" lon="5.14009">
        <ele>267.7</ele>
        <time>2021-02-24T16:03:38Z</time>
      </trkpt>
      <trkpt lat="44.36005" lon="5.14008">
        <ele>267.8</ele>
        <time>2021-02-24T16:03:39Z</time>
      </trkpt>
      <trkpt lat="44.36008" lon="5.14006">
        <ele>267.9</ele>
        <time>2021-02-24T16:03:40Z</time>
      </trkpt>
      <trkpt lat="44.36012" lon="5.14005">
        <ele>268</ele>
        <time>2021-02-24T16:03:41Z</time>
      </trkpt>
      <trkpt lat="44.36016" lon="5.14003">
        <ele>268.1</ele>
        <time>2021-02-24T16:03:42Z</time>
      </trkpt>
      <trkpt lat="44.3602" lon="5.14001">
        <ele>268.2</ele>
        <time>2021-02-24T16:03:43Z</time>
      </trkpt>
      <trkpt lat="44.36024" lon="5.13999">
        <ele>268.3</ele>
        <time>2021-02-24T16:03:44Z</time>
      </trkpt>
      <trkpt lat="44.36027" lon="5.13997">
        <ele>268.4</ele>
        <time>2021-02-24T16:03:45Z</time>
      </trkpt>
      <trkpt lat="44.3603" lon="5.13994">
        <ele>268.5</ele>
        <time>2021-02-24T16:03:46Z</time>
      </trkpt>
      <trkpt lat="44.36034" lon="5.13991">
        <ele>268.6</ele>
        <time>2021-02-24T16:03:47Z</time>
      </trkpt>
      <trkpt lat="44.36037" lon="5.1399">
        <ele>268.7</ele>
        <time>2021-02-24T16:03:48Z</time>
      </trkpt>
      <trkpt lat="44.3604" lon="5.13989">
        <ele>268.8</ele>
        <time>2021-02-24T16:03:49Z</time>
      </trkpt>
      <trkpt lat="44.36043" lon="5.13988">
        <ele>269</ele>
        <time>2021-02-24T16:03:50Z</time>
      </trkpt>
      <trkpt lat="44.36046" lon="5.13985">
        <ele>269.1</ele>
        <time>2021-02-24T16:03:51Z</time>
      </trkpt>
      <trkpt lat="44.36049" lon="5.13982">
        <ele>269.2</ele>
        <time>2021-02-24T16:03:52Z</time>
      </trkpt>
      <trkpt lat="44.36052" lon="5.13979">
        <ele>269.3</ele>
        <time>2021-02-24T16:03:53Z</time>
      </trkpt>
      <trkpt lat="44.36053" lon="5.13975">
        <ele>269.4</ele>
        <time>2021-02-24T16:03:54Z</time>
      </trkpt>
      <trkpt lat="44.36055" lon="5.13971">
        <ele>269.4</ele>
        <time>2021-02-24T16:03:55Z</time>
      </trkpt>
      <trkpt lat="44.36056" lon="5.13966">
        <ele>269.5</ele>
        <time>2021-02-24T16:03:56Z</time>
      </trkpt>
      <trkpt lat="44.36057" lon="5.13964">
        <ele>269.5</ele>
        <time>2021-02-24T16:03:57Z</time>
      </trkpt>
      <trkpt lat="44.36058" lon="5.13961">
        <ele>269.8</ele>
        <time>2021-02-24T16:03:58Z</time>
      </trkpt>
      <trkpt lat="44.36059" lon="5.13959">
        <ele>269.8</ele>
        <time>2021-02-24T16:03:59Z</time>
      </trkpt>
      <trkpt lat="44.3606" lon="5.13956">
        <ele>269.9</ele>
        <time>2021-02-24T16:04:00Z</time>
      </trkpt>
      <trkpt lat="44.36061" lon="5.13954">
        <ele>269.9</ele>
        <time>2021-02-24T16:04:01Z</time>
      </trkpt>
      <trkpt lat="44.36063" lon="5.13951">
        <ele>270</ele>
        <time>2021-02-24T16:04:02Z</time>
      </trkpt>
      <trkpt lat="44.36065" lon="5.13948">
        <ele>270.1</ele>
        <time>2021-02-24T16:04:03Z</time>
      </trkpt>
      <trkpt lat="44.36067" lon="5.13945">
        <ele>270.1</ele>
        <time>2021-02-24T16:04:04Z</time>
      </trkpt>
      <trkpt lat="44.36069" lon="5.13942">
        <ele>270.2</ele>
        <time>2021-02-24T16:04:05Z</time>
      </trkpt>
      <trkpt lat="44.36071" lon="5.13939">
        <ele>270.3</ele>
        <time>2021-02-24T16:04:06Z</time>
      </trkpt>
      <trkpt lat="44.36074" lon="5.13936">
        <ele>270.3</ele>
        <time>2021-02-24T16:04:07Z</time>
      </trkpt>
      <trkpt lat="44.36076" lon="5.13933">
        <ele>270.4</ele>
        <time>2021-02-24T16:04:08Z</time>
      </trkpt>
      <trkpt lat="44.36078" lon="5.1393">
        <ele>270.4</ele>
        <time>2021-02-24T16:04:09Z</time>
      </trkpt>
      <trkpt lat="44.3608" lon="5.13926">
        <ele>270.5</ele>
        <time>2021-02-24T16:04:10Z</time>
      </trkpt>
      <trkpt lat="44.36082" lon="5.13923">
        <ele>270.5</ele>
        <time>2021-02-24T16:04:11Z</time>
      </trkpt>
      <trkpt lat="44.36084" lon="5.13919">
        <ele>270.6</ele>
        <time>2021-02-24T16:04:12Z</time>
      </trkpt>
      <trkpt lat="44.36086" lon="5.13915">
        <ele>270.6</ele>
        <time>2021-02-24T16:04:13Z</time>
      </trkpt>
      <trkpt lat="44.36088" lon="5.13911">
        <ele>270.7</ele>
        <time>2021-02-24T16:04:14Z</time>
      </trkpt>
      <trkpt lat="44.36089" lon="5.13906">
        <ele>270.7</ele>
        <time>2021-02-24T16:04:15Z</time>
      </trkpt>
      <trkpt lat="44.36091" lon="5.13901">
        <ele>270.7</ele>
        <time>2021-02-24T16:04:16Z</time>
      </trkpt>
      <trkpt lat="44.36093" lon="5.13897">
        <ele>270.8</ele>
        <time>2021-02-24T16:04:17Z</time>
      </trkpt>
      <trkpt lat="44.36095" lon="5.13892">
        <ele>270.8</ele>
        <time>2021-02-24T16:04:18Z</time>
      </trkpt>
      <trkpt lat="44.36096" lon="5.13886">
        <ele>270.8</ele>
        <time>2021-02-24T16:04:19Z</time>
      </trkpt>
      <trkpt lat="44.36097" lon="5.13881">
        <ele>270.8</ele>
        <time>2021-02-24T16:04:20Z</time>
      </trkpt>
      <trkpt lat="44.36099" lon="5.13876">
        <ele>270.9</ele>
        <time>2021-02-24T16:04:21Z</time>
      </trkpt>
      <trkpt lat="44.36101" lon="5.13871">
        <ele>270.9</ele>
        <time>2021-02-24T16:04:22Z</time>
      </trkpt>
      <trkpt lat="44.36102" lon="5.13866">
        <ele>270.9</ele>
        <time>2021-02-24T16:04:23Z</time>
      </trkpt>
      <trkpt lat="44.36104" lon="5.13861">
        <ele>270.9</ele>
        <time>2021-02-24T16:04:24Z</time>
      </trkpt>
      <trkpt lat="44.36106" lon="5.13856">
        <ele>271</ele>
        <time>2021-02-24T16:04:25Z</time>
      </trkpt>
      <trkpt lat="44.36108" lon="5.13851">
        <ele>271</ele>
        <time>2021-02-24T16:04:26Z</time>
      </trkpt>
      <trkpt lat="44.36109" lon="5.13846">
        <ele>271</ele>
        <time>2021-02-24T16:04:27Z</time>
      </trkpt>
      <trkpt lat="44.36111" lon="5.13841">
        <ele>271</ele>
        <time>2021-02-24T16:04:28Z</time>
      </trkpt>
      <trkpt lat="44.36113" lon="5.13836">
        <ele>271.1</ele>
        <time>2021-02-24T16:04:29Z</time>
      </trkpt>
      <trkpt lat="44.36114" lon="5.13831">
        <ele>271.1</ele>
        <time>2021-02-24T16:04:30Z</time>
      </trkpt>
      <trkpt lat="44.36116" lon="5.13826">
        <ele>271.1</ele>
        <time>2021-02-24T16:04:31Z</time>
      </trkpt>
      <trkpt lat="44.36118" lon="5.13821">
        <ele>271.2</ele>
        <time>2021-02-24T16:04:32Z</time>
      </trkpt>
      <trkpt lat="44.3612" lon="5.13816">
        <ele>271.2</ele>
        <time>2021-02-24T16:04:33Z</time>
      </trkpt>
      <trkpt lat="44.36122" lon="5.13811">
        <ele>271.2</ele>
        <time>2021-02-24T16:04:34Z</time>
      </trkpt>
      <trkpt lat="44.36124" lon="5.13806">
        <ele>271.3</ele>
        <time>2021-02-24T16:04:35Z</time>
      </trkpt>
      <trkpt lat="44.36125" lon="5.13801">
        <ele>271.3</ele>
        <time>2021-02-24T16:04:36Z</time>
      </trkpt>
      <trkpt lat="44.36127" lon="5.13796">
        <ele>271.3</ele>
        <time>2021-02-24T16:04:37Z</time>
      </trkpt>
      <trkpt lat="44.36128" lon="5.1379">
        <ele>271.4</ele>
        <time>2021-02-24T16:04:38Z</time>
      </trkpt>
      <trkpt lat="44.3613" lon="5.13785">
        <ele>271.4</ele>
        <time>2021-02-24T16:04:39Z</time>
      </trkpt>
      <trkpt lat="44.36132" lon="5.1378">
        <ele>271.4</ele>
        <time>2021-02-24T16:04:40Z</time>
      </trkpt>
      <trkpt lat="44.36133" lon="5.13775">
        <ele>271.5</ele>
        <time>2021-02-24T16:04:41Z</time>
      </trkpt>
      <trkpt lat="44.36135" lon="5.1377">
        <ele>271.5</ele>
        <time>2021-02-24T16:04:42Z</time>
      </trkpt>
      <trkpt lat="44.36137" lon="5.13764">
        <ele>271.6</ele>
        <time>2021-02-24T16:04:43Z</time>
      </trkpt>
      <trkpt lat="44.36138" lon="5.13758">
        <ele>271.6</ele>
        <time>2021-02-24T16:04:44Z</time>
      </trkpt>
      <trkpt lat="44.3614" lon="5.13753">
        <ele>271.7</ele>
        <time>2021-02-24T16:04:45Z</time>
      </trkpt>
      <trkpt lat="44.36141" lon="5.13747">
        <ele>271.7</ele>
        <time>2021-02-24T16:04:46Z</time>
      </trkpt>
      <trkpt lat="44.36142" lon="5.13742">
        <ele>271.8</ele>
        <time>2021-02-24T16:04:47Z</time>
      </trkpt>
      <trkpt lat="44.36143" lon="5.13736">
        <ele>271.9</ele>
        <time>2021-02-24T16:04:48Z</time>
      </trkpt>
      <trkpt lat="44.36145" lon="5.1373">
        <ele>272</ele>
        <time>2021-02-24T16:04:49Z</time>
      </trkpt>
      <trkpt lat="44.36146" lon="5.13725">
        <ele>272</ele>
        <time>2021-02-24T16:04:50Z</time>
      </trkpt>
      <trkpt lat="44.36147" lon="5.13719">
        <ele>272.1</ele>
        <time>2021-02-24T16:04:51Z</time>
      </trkpt>
      <trkpt lat="44.36148" lon="5.13714">
        <ele>272.2</ele>
        <time>2021-02-24T16:04:52Z</time>
      </trkpt>
      <trkpt lat="44.3615" lon="5.13709">
        <ele>272.2</ele>
        <time>2021-02-24T16:04:53Z</time>
      </trkpt>
      <trkpt lat="44.36151" lon="5.13704">
        <ele>272.3</ele>
        <time>2021-02-24T16:04:54Z</time>
      </trkpt>
      <trkpt lat="44.36152" lon="5.13699">
        <ele>272.4</ele>
        <time>2021-02-24T16:04:55Z</time>
      </trkpt>
      <trkpt lat="44.36154" lon="5.13695">
        <ele>272.5</ele>
        <time>2021-02-24T16:04:56Z</time>
      </trkpt>
      <trkpt lat="44.36155" lon="5.1369">
        <ele>272.6</ele>
        <time>2021-02-24T16:04:57Z</time>
      </trkpt>
      <trkpt lat="44.36156" lon="5.13684">
        <ele>272.7</ele>
        <time>2021-02-24T16:04:58Z</time>
      </trkpt>
      <trkpt lat="44.36157" lon="5.13679">
        <ele>272.8</ele>
        <time>2021-02-24T16:04:59Z</time>
      </trkpt>
      <trkpt lat="44.36159" lon="5.13674">
        <ele>272.9</ele>
        <time>2021-02-24T16:05:00Z</time>
      </trkpt>
      <trkpt lat="44.3616" lon="5.13668">
        <ele>273.1</ele>
        <time>2021-02-24T16:05:01Z</time>
      </trkpt>
      <trkpt lat="44.36162" lon="5.13663">
        <ele>273.2</ele>
        <time>2021-02-24T16:05:02Z</time>
      </trkpt>
      <trkpt lat="44.36163" lon="5.13658">
        <ele>273.4</ele>
        <time>2021-02-24T16:05:03Z</time>
      </trkpt>
      <trkpt lat="44.36164" lon="5.13653">
        <ele>273.5</ele>
        <time>2021-02-24T16:05:04Z</time>
      </trkpt>
      <trkpt lat="44.36165" lon="5.13648">
        <ele>273.7</ele>
        <time>2021-02-24T16:05:05Z</time>
      </trkpt>
      <trkpt lat="44.36166" lon="5.13643">
        <ele>273.8</ele>
        <time>2021-02-24T16:05:06Z</time>
      </trkpt>
      <trkpt lat="44.36167" lon="5.13638">
        <ele>273.9</ele>
        <time>2021-02-24T16:05:07Z</time>
      </trkpt>
      <trkpt lat="44.36168" lon="5.13633">
        <ele>274</ele>
        <time>2021-02-24T16:05:08Z</time>
      </trkpt>
      <trkpt lat="44.36169" lon="5.13629">
        <ele>274.2</ele>
        <time>2021-02-24T16:05:09Z</time>
      </trkpt>
      <trkpt lat="44.3617" lon="5.13624">
        <ele>274.3</ele>
        <time>2021-02-24T16:05:10Z</time>
      </trkpt>
      <trkpt lat="44.3617" lon="5.13619">
        <ele>274.4</ele>
        <time>2021-02-24T16:05:11Z</time>
      </trkpt>
      <trkpt lat="44.36172" lon="5.13615">
        <ele>274.5</ele>
        <time>2021-02-24T16:05:12Z</time>
      </trkpt>
      <trkpt lat="44.36173" lon="5.13611">
        <ele>275.3</ele>
        <time>2021-02-24T16:05:13Z</time>
      </trkpt>
      <trkpt lat="44.36174" lon="5.13606">
        <ele>275.6</ele>
        <time>2021-02-24T16:05:14Z</time>
      </trkpt>
      <trkpt lat="44.36177" lon="5.13605">
        <ele>275.9</ele>
        <time>2021-02-24T16:05:15Z</time>
      </trkpt>
      <trkpt lat="44.36179" lon="5.13603">
        <ele>276.1</ele>
        <time>2021-02-24T16:05:16Z</time>
      </trkpt>
      <trkpt lat="44.36181" lon="5.13602">
        <ele>276.3</ele>
        <time>2021-02-24T16:05:17Z</time>
      </trkpt>
      <trkpt lat="44.36183" lon="5.136">
        <ele>276.5</ele>
        <time>2021-02-24T16:05:18Z</time>
      </trkpt>
      <trkpt lat="44.36185" lon="5.13601">
        <ele>276.7</ele>
        <time>2021-02-24T16:05:19Z</time>
      </trkpt>
      <trkpt lat="44.36187" lon="5.13602">
        <ele>276.9</ele>
        <time>2021-02-24T16:05:20Z</time>
      </trkpt>
      <trkpt lat="44.36189" lon="5.13603">
        <ele>277.1</ele>
        <time>2021-02-24T16:05:21Z</time>
      </trkpt>
      <trkpt lat="44.36191" lon="5.13604">
        <ele>277.3</ele>
        <time>2021-02-24T16:05:22Z</time>
      </trkpt>
      <trkpt lat="44.36193" lon="5.13605">
        <ele>277.4</ele>
        <time>2021-02-24T16:05:23Z</time>
      </trkpt>
      <trkpt lat="44.36196" lon="5.13606">
        <ele>277.6</ele>
        <time>2021-02-24T16:05:24Z</time>
      </trkpt>
      <trkpt lat="44.36198" lon="5.13607">
        <ele>277.9</ele>
        <time>2021-02-24T16:05:25Z</time>
      </trkpt>
      <trkpt lat="44.362" lon="5.13608">
        <ele>278.1</ele>
        <time>2021-02-24T16:05:26Z</time>
      </trkpt>
      <trkpt lat="44.36203" lon="5.13609">
        <ele>278.3</ele>
        <time>2021-02-24T16:05:27Z</time>
      </trkpt>
      <trkpt lat="44.36206" lon="5.1361">
        <ele>278.6</ele>
        <time>2021-02-24T16:05:28Z</time>
      </trkpt>
      <trkpt lat="44.36209" lon="5.13612">
        <ele>278.9</ele>
        <time>2021-02-24T16:05:29Z</time>
      </trkpt>
      <trkpt lat="44.36212" lon="5.13613">
        <ele>279.2</ele>
        <time>2021-02-24T16:05:30Z</time>
      </trkpt>
      <trkpt lat="44.36215" lon="5.13614">
        <ele>279.5</ele>
        <time>2021-02-24T16:05:31Z</time>
      </trkpt>
      <trkpt lat="44.36219" lon="5.13616">
        <ele>279.9</ele>
        <time>2021-02-24T16:05:32Z</time>
      </trkpt>
      <trkpt lat="44.36222" lon="5.13617">
        <ele>280.2</ele>
        <time>2021-02-24T16:05:33Z</time>
      </trkpt>
      <trkpt lat="44.36225" lon="5.13618">
        <ele>280.5</ele>
        <time>2021-02-24T16:05:34Z</time>
      </trkpt>
      <trkpt lat="44.36228" lon="5.1362">
        <ele>280.8</ele>
        <time>2021-02-24T16:05:35Z</time>
      </trkpt>
      <trkpt lat="44.3623" lon="5.13621">
        <ele>281.1</ele>
        <time>2021-02-24T16:05:36Z</time>
      </trkpt>
      <trkpt lat="44.36233" lon="5.13622">
        <ele>281.4</ele>
        <time>2021-02-24T16:05:37Z</time>
      </trkpt>
      <trkpt lat="44.36235" lon="5.1362">
        <ele>281.5</ele>
        <time>2021-02-24T16:05:38Z</time>
      </trkpt>
      <trkpt lat="44.36236" lon="5.13618">
        <ele>281.8</ele>
        <time>2021-02-24T16:05:39Z</time>
      </trkpt>
      <trkpt lat="44.36238" lon="5.13616">
        <ele>281.8</ele>
        <time>2021-02-24T16:05:40Z</time>
      </trkpt>
      <trkpt lat="44.36239" lon="5.13614">
        <ele>281.7</ele>
        <time>2021-02-24T16:05:41Z</time>
      </trkpt>
      <trkpt lat="44.36241" lon="5.13612">
        <ele>281.7</ele>
        <time>2021-02-24T16:05:42Z</time>
      </trkpt>
      <trkpt lat="44.36242" lon="5.13607">
        <ele>281.6</ele>
        <time>2021-02-24T16:05:43Z</time>
      </trkpt>
      <trkpt lat="44.36242" lon="5.13602">
        <ele>281.6</ele>
        <time>2021-02-24T16:05:44Z</time>
      </trkpt>
      <trkpt lat="44.36243" lon="5.13597">
        <ele>281.5</ele>
        <time>2021-02-24T16:05:45Z</time>
      </trkpt>
      <trkpt lat="44.36243" lon="5.13594">
        <ele>281.5</ele>
        <time>2021-02-24T16:05:46Z</time>
      </trkpt>
      <trkpt lat="44.36244" lon="5.1359">
        <ele>281.4</ele>
        <time>2021-02-24T16:05:47Z</time>
      </trkpt>
      <trkpt lat="44.36245" lon="5.13586">
        <ele>281.3</ele>
        <time>2021-02-24T16:05:48Z</time>
      </trkpt>
      <trkpt lat="44.36246" lon="5.13582">
        <ele>281.2</ele>
        <time>2021-02-24T16:05:49Z</time>
      </trkpt>
      <trkpt lat="44.36247" lon="5.13577">
        <ele>281.2</ele>
        <time>2021-02-24T16:05:50Z</time>
      </trkpt>
      <trkpt lat="44.36248" lon="5.13573">
        <ele>281.1</ele>
        <time>2021-02-24T16:05:51Z</time>
      </trkpt>
      <trkpt lat="44.36249" lon="5.13569">
        <ele>281</ele>
        <time>2021-02-24T16:05:52Z</time>
      </trkpt>
      <trkpt lat="44.3625" lon="5.13564">
        <ele>280.9</ele>
        <time>2021-02-24T16:05:53Z</time>
      </trkpt>
      <trkpt lat="44.36252" lon="5.1356">
        <ele>280.9</ele>
        <time>2021-02-24T16:05:54Z</time>
      </trkpt>
      <trkpt lat="44.36253" lon="5.13556">
        <ele>280.8</ele>
        <time>2021-02-24T16:05:55Z</time>
      </trkpt>
      <trkpt lat="44.36254" lon="5.13551">
        <ele>280.8</ele>
        <time>2021-02-24T16:05:56Z</time>
      </trkpt>
      <trkpt lat="44.36255" lon="5.13547">
        <ele>280.7</ele>
        <time>2021-02-24T16:05:57Z</time>
      </trkpt>
      <trkpt lat="44.36256" lon="5.13542">
        <ele>280.7</ele>
        <time>2021-02-24T16:05:58Z</time>
      </trkpt>
      <trkpt lat="44.36257" lon="5.13538">
        <ele>280.6</ele>
        <time>2021-02-24T16:05:59Z</time>
      </trkpt>
      <trkpt lat="44.36258" lon="5.13533">
        <ele>280.6</ele>
        <time>2021-02-24T16:06:00Z</time>
      </trkpt>
      <trkpt lat="44.36259" lon="5.13529">
        <ele>280.5</ele>
        <time>2021-02-24T16:06:01Z</time>
      </trkpt>
      <trkpt lat="44.36259" lon="5.13524">
        <ele>280.5</ele>
        <time>2021-02-24T16:06:02Z</time>
      </trkpt>
      <trkpt lat="44.3626" lon="5.13519">
        <ele>280.4</ele>
        <time>2021-02-24T16:06:03Z</time>
      </trkpt>
      <trkpt lat="44.36261" lon="5.13514">
        <ele>280.4</ele>
        <time>2021-02-24T16:06:04Z</time>
      </trkpt>
      <trkpt lat="44.36262" lon="5.1351">
        <ele>280.4</ele>
        <time>2021-02-24T16:06:05Z</time>
      </trkpt>
      <trkpt lat="44.36263" lon="5.13506">
        <ele>280.5</ele>
        <time>2021-02-24T16:06:06Z</time>
      </trkpt>
      <trkpt lat="44.36264" lon="5.13502">
        <ele>280.5</ele>
        <time>2021-02-24T16:06:07Z</time>
      </trkpt>
      <trkpt lat="44.36264" lon="5.13496">
        <ele>280.6</ele>
        <time>2021-02-24T16:06:08Z</time>
      </trkpt>
      <trkpt lat="44.36265" lon="5.13491">
        <ele>280.8</ele>
        <time>2021-02-24T16:06:09Z</time>
      </trkpt>
      <trkpt lat="44.36265" lon="5.13485">
        <ele>280.9</ele>
        <time>2021-02-24T16:06:10Z</time>
      </trkpt>
      <trkpt lat="44.36265" lon="5.13481">
        <ele>281</ele>
        <time>2021-02-24T16:06:11Z</time>
      </trkpt>
      <trkpt lat="44.36266" lon="5.13477">
        <ele>281.1</ele>
        <time>2021-02-24T16:06:12Z</time>
      </trkpt>
      <trkpt lat="44.36266" lon="5.13473">
        <ele>281.2</ele>
        <time>2021-02-24T16:06:13Z</time>
      </trkpt>
      <trkpt lat="44.36266" lon="5.13469">
        <ele>281.3</ele>
        <time>2021-02-24T16:06:14Z</time>
      </trkpt>
      <trkpt lat="44.36266" lon="5.13465">
        <ele>281.5</ele>
        <time>2021-02-24T16:06:15Z</time>
      </trkpt>
      <trkpt lat="44.36266" lon="5.13461">
        <ele>281.6</ele>
        <time>2021-02-24T16:06:16Z</time>
      </trkpt>
      <trkpt lat="44.36267" lon="5.13457">
        <ele>281.7</ele>
        <time>2021-02-24T16:06:17Z</time>
      </trkpt>
      <trkpt lat="44.36267" lon="5.13453">
        <ele>281.8</ele>
        <time>2021-02-24T16:06:18Z</time>
      </trkpt>
      <trkpt lat="44.36267" lon="5.1345">
        <ele>282</ele>
        <time>2021-02-24T16:06:19Z</time>
      </trkpt>
      <trkpt lat="44.36267" lon="5.13446">
        <ele>282.1</ele>
        <time>2021-02-24T16:06:20Z</time>
      </trkpt>
      <trkpt lat="44.36268" lon="5.13443">
        <ele>282.2</ele>
        <time>2021-02-24T16:06:21Z</time>
      </trkpt>
      <trkpt lat="44.36269" lon="5.13439">
        <ele>282.3</ele>
        <time>2021-02-24T16:06:22Z</time>
      </trkpt>
      <trkpt lat="44.3627" lon="5.13436">
        <ele>282.5</ele>
        <time>2021-02-24T16:06:23Z</time>
      </trkpt>
      <trkpt lat="44.3627" lon="5.13432">
        <ele>282.6</ele>
        <time>2021-02-24T16:06:24Z</time>
      </trkpt>
      <trkpt lat="44.3627" lon="5.13432">
        <ele>282.6</ele>
        <time>2021-02-24T16:06:25Z</time>
      </trkpt>
      <trkpt lat="44.36272" lon="5.13423">
        <ele>282.9</ele>
        <time>2021-02-24T16:06:26Z</time>
      </trkpt>
      <trkpt lat="44.36272" lon="5.13422">
        <ele>283</ele>
        <time>2021-02-24T16:06:27Z</time>
      </trkpt>
      <trkpt lat="44.36274" lon="5.13418">
        <ele>283.1</ele>
        <time>2021-02-24T16:06:28Z</time>
      </trkpt>
      <trkpt lat="44.36274" lon="5.13418">
        <ele>283.1</ele>
        <time>2021-02-24T16:06:29Z</time>
      </trkpt>
      <trkpt lat="44.36276" lon="5.13414">
        <ele>283.3</ele>
        <time>2021-02-24T16:06:30Z</time>
      </trkpt>
      <trkpt lat="44.36278" lon="5.13411">
        <ele>283.5</ele>
        <time>2021-02-24T16:06:31Z</time>
      </trkpt>
      <trkpt lat="44.3628" lon="5.13407">
        <ele>283.6</ele>
        <time>2021-02-24T16:06:32Z</time>
      </trkpt>
      <trkpt lat="44.36282" lon="5.13404">
        <ele>283.8</ele>
        <time>2021-02-24T16:06:33Z</time>
      </trkpt>
      <trkpt lat="44.36284" lon="5.13401">
        <ele>284</ele>
        <time>2021-02-24T16:06:34Z</time>
      </trkpt>
      <trkpt lat="44.36285" lon="5.13397">
        <ele>284.1</ele>
        <time>2021-02-24T16:06:35Z</time>
      </trkpt>
      <trkpt lat="44.36287" lon="5.13394">
        <ele>284.3</ele>
        <time>2021-02-24T16:06:36Z</time>
      </trkpt>
      <trkpt lat="44.36288" lon="5.13391">
        <ele>284.4</ele>
        <time>2021-02-24T16:06:37Z</time>
      </trkpt>
      <trkpt lat="44.36289" lon="5.13388">
        <ele>284.6</ele>
        <time>2021-02-24T16:06:38Z</time>
      </trkpt>
      <trkpt lat="44.36291" lon="5.13385">
        <ele>284.7</ele>
        <time>2021-02-24T16:06:39Z</time>
      </trkpt>
      <trkpt lat="44.36292" lon="5.13382">
        <ele>284.9</ele>
        <time>2021-02-24T16:06:40Z</time>
      </trkpt>
      <trkpt lat="44.36293" lon="5.13379">
        <ele>285</ele>
        <time>2021-02-24T16:06:41Z</time>
      </trkpt>
      <trkpt lat="44.36295" lon="5.13376">
        <ele>285.2</ele>
        <time>2021-02-24T16:06:42Z</time>
      </trkpt>
      <trkpt lat="44.36296" lon="5.13373">
        <ele>285.3</ele>
        <time>2021-02-24T16:06:43Z</time>
      </trkpt>
      <trkpt lat="44.36298" lon="5.1337">
        <ele>285.5</ele>
        <time>2021-02-24T16:06:44Z</time>
      </trkpt>
      <trkpt lat="44.36299" lon="5.13367">
        <ele>285.6</ele>
        <time>2021-02-24T16:06:45Z</time>
      </trkpt>
      <trkpt lat="44.363" lon="5.13365">
        <ele>285.8</ele>
        <time>2021-02-24T16:06:46Z</time>
      </trkpt>
      <trkpt lat="44.36301" lon="5.13362">
        <ele>285.9</ele>
        <time>2021-02-24T16:06:47Z</time>
      </trkpt>
      <trkpt lat="44.36303" lon="5.1336">
        <ele>286.1</ele>
        <time>2021-02-24T16:06:48Z</time>
      </trkpt>
      <trkpt lat="44.36305" lon="5.13358">
        <ele>286.2</ele>
        <time>2021-02-24T16:06:49Z</time>
      </trkpt>
      <trkpt lat="44.36308" lon="5.13356">
        <ele>286.4</ele>
        <time>2021-02-24T16:06:50Z</time>
      </trkpt>
      <trkpt lat="44.3631" lon="5.13353">
        <ele>286.6</ele>
        <time>2021-02-24T16:06:51Z</time>
      </trkpt>
      <trkpt lat="44.36311" lon="5.13351">
        <ele>286.8</ele>
        <time>2021-02-24T16:06:52Z</time>
      </trkpt>
      <trkpt lat="44.36313" lon="5.13348">
        <ele>287</ele>
        <time>2021-02-24T16:06:53Z</time>
      </trkpt>
      <trkpt lat="44.36315" lon="5.13345">
        <ele>287.2</ele>
        <time>2021-02-24T16:06:54Z</time>
      </trkpt>
      <trkpt lat="44.36318" lon="5.13342">
        <ele>287.4</ele>
        <time>2021-02-24T16:06:55Z</time>
      </trkpt>
      <trkpt lat="44.36319" lon="5.13339">
        <ele>287.6</ele>
        <time>2021-02-24T16:06:56Z</time>
      </trkpt>
      <trkpt lat="44.36322" lon="5.13337">
        <ele>287.8</ele>
        <time>2021-02-24T16:06:57Z</time>
      </trkpt>
      <trkpt lat="44.36323" lon="5.13335">
        <ele>287.9</ele>
        <time>2021-02-24T16:06:58Z</time>
      </trkpt>
      <trkpt lat="44.36326" lon="5.13333">
        <ele>288.1</ele>
        <time>2021-02-24T16:06:59Z</time>
      </trkpt>
      <trkpt lat="44.36328" lon="5.13331">
        <ele>288.3</ele>
        <time>2021-02-24T16:07:00Z</time>
      </trkpt>
      <trkpt lat="44.3633" lon="5.13329">
        <ele>288.5</ele>
        <time>2021-02-24T16:07:01Z</time>
      </trkpt>
      <trkpt lat="44.36332" lon="5.13327">
        <ele>288.7</ele>
        <time>2021-02-24T16:07:02Z</time>
      </trkpt>
      <trkpt lat="44.36334" lon="5.13325">
        <ele>288.9</ele>
        <time>2021-02-24T16:07:03Z</time>
      </trkpt>
      <trkpt lat="44.36336" lon="5.13323">
        <ele>289</ele>
        <time>2021-02-24T16:07:04Z</time>
      </trkpt>
      <trkpt lat="44.36338" lon="5.13321">
        <ele>289.1</ele>
        <time>2021-02-24T16:07:05Z</time>
      </trkpt>
      <trkpt lat="44.36339" lon="5.1332">
        <ele>289.3</ele>
        <time>2021-02-24T16:07:06Z</time>
      </trkpt>
      <trkpt lat="44.36341" lon="5.13317">
        <ele>289.5</ele>
        <time>2021-02-24T16:07:07Z</time>
      </trkpt>
      <trkpt lat="44.36343" lon="5.13315">
        <ele>289.7</ele>
        <time>2021-02-24T16:07:08Z</time>
      </trkpt>
      <trkpt lat="44.36345" lon="5.13313">
        <ele>289.8</ele>
        <time>2021-02-24T16:07:09Z</time>
      </trkpt>
      <trkpt lat="44.36347" lon="5.1331">
        <ele>290.1</ele>
        <time>2021-02-24T16:07:10Z</time>
      </trkpt>
      <trkpt lat="44.3635" lon="5.13308">
        <ele>290.4</ele>
        <time>2021-02-24T16:07:11Z</time>
      </trkpt>
      <trkpt lat="44.3635" lon="5.13308">
        <ele>290.4</ele>
        <time>2021-02-24T16:07:12Z</time>
      </trkpt>
      <trkpt lat="44.36352" lon="5.13306">
        <ele>290.6</ele>
        <time>2021-02-24T16:07:13Z</time>
      </trkpt>
      <trkpt lat="44.36355" lon="5.13303">
        <ele>290.9</ele>
        <time>2021-02-24T16:07:14Z</time>
      </trkpt>
      <trkpt lat="44.36357" lon="5.13301">
        <ele>291.2</ele>
        <time>2021-02-24T16:07:15Z</time>
      </trkpt>
      <trkpt lat="44.36363" lon="5.13295">
        <ele>291.9</ele>
        <time>2021-02-24T16:07:16Z</time>
      </trkpt>
      <trkpt lat="44.36364" lon="5.13294">
        <ele>292</ele>
        <time>2021-02-24T16:07:17Z</time>
      </trkpt>
      <trkpt lat="44.36367" lon="5.13292">
        <ele>292.2</ele>
        <time>2021-02-24T16:07:18Z</time>
      </trkpt>
      <trkpt lat="44.36368" lon="5.13289">
        <ele>292.4</ele>
        <time>2021-02-24T16:07:19Z</time>
      </trkpt>
      <trkpt lat="44.3637" lon="5.13287">
        <ele>292.7</ele>
        <time>2021-02-24T16:07:20Z</time>
      </trkpt>
      <trkpt lat="44.36372" lon="5.13284">
        <ele>292.9</ele>
        <time>2021-02-24T16:07:21Z</time>
      </trkpt>
      <trkpt lat="44.36372" lon="5.13284">
        <ele>292.9</ele>
        <time>2021-02-24T16:07:22Z</time>
      </trkpt>
      <trkpt lat="44.36376" lon="5.13277">
        <ele>293.6</ele>
        <time>2021-02-24T16:07:23Z</time>
      </trkpt>
      <trkpt lat="44.36377" lon="5.13276">
        <ele>293.6</ele>
        <time>2021-02-24T16:07:24Z</time>
      </trkpt>
      <trkpt lat="44.36379" lon="5.13273">
        <ele>293.6</ele>
        <time>2021-02-24T16:07:25Z</time>
      </trkpt>
      <trkpt lat="44.36381" lon="5.1327">
        <ele>293.7</ele>
        <time>2021-02-24T16:07:26Z</time>
      </trkpt>
      <trkpt lat="44.36382" lon="5.13266">
        <ele>293.7</ele>
        <time>2021-02-24T16:07:27Z</time>
      </trkpt>
      <trkpt lat="44.36382" lon="5.13263">
        <ele>293.8</ele>
        <time>2021-02-24T16:07:28Z</time>
      </trkpt>
      <trkpt lat="44.36383" lon="5.13259">
        <ele>293.8</ele>
        <time>2021-02-24T16:07:29Z</time>
      </trkpt>
      <trkpt lat="44.36384" lon="5.13255">
        <ele>293.8</ele>
        <time>2021-02-24T16:07:30Z</time>
      </trkpt>
      <trkpt lat="44.36385" lon="5.13251">
        <ele>293.8</ele>
        <time>2021-02-24T16:07:31Z</time>
      </trkpt>
      <trkpt lat="44.36384" lon="5.13247">
        <ele>293.8</ele>
        <time>2021-02-24T16:07:32Z</time>
      </trkpt>
      <trkpt lat="44.36385" lon="5.13243">
        <ele>293.9</ele>
        <time>2021-02-24T16:07:33Z</time>
      </trkpt>
      <trkpt lat="44.36385" lon="5.13243">
        <ele>293.9</ele>
        <time>2021-02-24T16:07:34Z</time>
      </trkpt>
      <trkpt lat="44.36386" lon="5.1324">
        <ele>293.9</ele>
        <time>2021-02-24T16:07:35Z</time>
      </trkpt>
      <trkpt lat="44.36387" lon="5.13236">
        <ele>293.9</ele>
        <time>2021-02-24T16:07:36Z</time>
      </trkpt>
      <trkpt lat="44.36387" lon="5.13232">
        <ele>293.9</ele>
        <time>2021-02-24T16:07:37Z</time>
      </trkpt>
      <trkpt lat="44.36388" lon="5.13228">
        <ele>294</ele>
        <time>2021-02-24T16:07:38Z</time>
      </trkpt>
      <trkpt lat="44.36388" lon="5.13224">
        <ele>294</ele>
        <time>2021-02-24T16:07:39Z</time>
      </trkpt>
      <trkpt lat="44.36387" lon="5.1322">
        <ele>294</ele>
        <time>2021-02-24T16:07:40Z</time>
      </trkpt>
      <trkpt lat="44.36387" lon="5.13216">
        <ele>294</ele>
        <time>2021-02-24T16:07:41Z</time>
      </trkpt>
      <trkpt lat="44.36386" lon="5.13212">
        <ele>294</ele>
        <time>2021-02-24T16:07:42Z</time>
      </trkpt>
      <trkpt lat="44.36385" lon="5.13209">
        <ele>294</ele>
        <time>2021-02-24T16:07:43Z</time>
      </trkpt>
      <trkpt lat="44.36385" lon="5.13205">
        <ele>294</ele>
        <time>2021-02-24T16:07:44Z</time>
      </trkpt>
      <trkpt lat="44.36384" lon="5.13202">
        <ele>294</ele>
        <time>2021-02-24T16:07:45Z</time>
      </trkpt>
      <trkpt lat="44.36382" lon="5.13195">
        <ele>294</ele>
        <time>2021-02-24T16:07:46Z</time>
      </trkpt>
      <trkpt lat="44.36382" lon="5.13195">
        <ele>294</ele>
        <time>2021-02-24T16:07:47Z</time>
      </trkpt>
      <trkpt lat="44.36381" lon="5.13189">
        <ele>294</ele>
        <time>2021-02-24T16:07:48Z</time>
      </trkpt>
      <trkpt lat="44.36381" lon="5.13189">
        <ele>294</ele>
        <time>2021-02-24T16:07:49Z</time>
      </trkpt>
      <trkpt lat="44.36379" lon="5.13188">
        <ele>294</ele>
        <time>2021-02-24T16:07:50Z</time>
      </trkpt>
      <trkpt lat="44.36378" lon="5.13186">
        <ele>294</ele>
        <time>2021-02-24T16:07:51Z</time>
      </trkpt>
      <trkpt lat="44.36377" lon="5.13185">
        <ele>293.9</ele>
        <time>2021-02-24T16:07:52Z</time>
      </trkpt>
      <trkpt lat="44.36375" lon="5.13183">
        <ele>293.9</ele>
        <time>2021-02-24T16:07:53Z</time>
      </trkpt>
      <trkpt lat="44.36374" lon="5.13182">
        <ele>293.9</ele>
        <time>2021-02-24T16:07:54Z</time>
      </trkpt>
      <trkpt lat="44.3637" lon="5.13182">
        <ele>293.9</ele>
        <time>2021-02-24T16:07:55Z</time>
      </trkpt>
      <trkpt lat="44.3637" lon="5.13182">
        <ele>293.9</ele>
        <time>2021-02-24T16:07:56Z</time>
      </trkpt>
      <trkpt lat="44.36368" lon="5.13181">
        <ele>293.9</ele>
        <time>2021-02-24T16:07:57Z</time>
      </trkpt>
      <trkpt lat="44.36367" lon="5.1318">
        <ele>293.9</ele>
        <time>2021-02-24T16:07:58Z</time>
      </trkpt>
      <trkpt lat="44.36365" lon="5.13179">
        <ele>293.9</ele>
        <time>2021-02-24T16:07:59Z</time>
      </trkpt>
      <trkpt lat="44.36363" lon="5.13178">
        <ele>294</ele>
        <time>2021-02-24T16:08:00Z</time>
      </trkpt>
      <trkpt lat="44.36361" lon="5.13177">
        <ele>294</ele>
        <time>2021-02-24T16:08:01Z</time>
      </trkpt>
      <trkpt lat="44.36361" lon="5.13177">
        <ele>294</ele>
        <time>2021-02-24T16:08:02Z</time>
      </trkpt>
      <trkpt lat="44.36361" lon="5.13177">
        <ele>294</ele>
        <time>2021-02-24T16:08:03Z</time>
      </trkpt>
      <trkpt lat="44.36361" lon="5.13177">
        <ele>294</ele>
        <time>2021-02-24T16:08:04Z</time>
      </trkpt>
      <trkpt lat="44.36361" lon="5.13177">
        <ele>294</ele>
        <time>2021-02-24T16:08:05Z</time>
      </trkpt>
      <trkpt lat="44.36361" lon="5.13177">
        <ele>294</ele>
        <time>2021-02-24T16:08:06Z</time>
      </trkpt>
      <trkpt lat="44.36361" lon="5.13177">
        <ele>294</ele>
        <time>2021-02-24T16:08:07Z</time>
      </trkpt>
      <trkpt lat="44.36361" lon="5.13177">
        <ele>294</ele>
        <time>2021-02-24T16:08:08Z</time>
      </trkpt>
      <trkpt lat="44.36361" lon="5.13177">
        <ele>294</ele>
        <time>2021-02-24T16:08:09Z</time>
      </trkpt>
      <trkpt lat="44.36361" lon="5.13177">
        <ele>294</ele>
        <time>2021-02-24T16:08:10Z</time>
      </trkpt>
      <trkpt lat="44.36361" lon="5.13177">
        <ele>294</ele>
        <time>2021-02-24T16:08:11Z</time>
      </trkpt>
      <trkpt lat="44.36361" lon="5.13177">
        <ele>294</ele>
        <time>2021-02-24T16:08:12Z</time>
      </trkpt>
      <trkpt lat="44.36361" lon="5.13177">
        <ele>294</ele>
        <time>2021-02-24T16:08:13Z</time>
      </trkpt>
      <trkpt lat="44.36361" lon="5.13177">
        <ele>294</ele>
        <time>2021-02-24T16:08:14Z</time>
      </trkpt>
      <trkpt lat="44.36361" lon="5.13177">
        <ele>294</ele>
        <time>2021-02-24T16:08:15Z</time>
      </trkpt>
      <trkpt lat="44.36358" lon="5.13167">
        <ele>294.2</ele>
        <time>2021-02-24T16:08:16Z</time>
      </trkpt>
    </trkseg>
  </trk>
</gpx>